<?xml version="1.0" encoding="UTF-8" standalone="no" ?>
<gpx xmlns="http://www.topografix.com/GPX/1/1" xmlns:xsi="http://www.w3.org/2001/XMLSchema-instance" xsi:schemaLocation="http://www.topografix.com/GPX/1/1 http://www.topografix.com/GPX/1/1/gpx.xsd" version="1.1" creator="VisuGPX - https://www.visugpx.com">
  <metadata>
    <name>Raid Bulles : Barsuraubois</name>
    <desc><![CDATA[parcours RAID BULLES EN CHAMPAGNE 375KM]]></desc>
  </metadata>
  <wpt lat="48.1461" lon="4.76948">
    <ele>206.1</ele>
    <name><![CDATA[Ravitaillement chaud]]></name>
  </wpt>
  <wpt lat="48.14803" lon="4.83346">
    <ele>208.6</ele>
    <name><![CDATA[Départ réel]]></name>
  </wpt>
  <wpt lat="48.13585" lon="4.66919">
    <ele>253.9</ele>
    <name><![CDATA[Gravel début section]]></name>
  </wpt>
  <wpt lat="48.21735" lon="4.71382">
    <ele>168.8</ele>
  </wpt>
  <trk>
    <name><![CDATA[Raid Bulles : Parcours complet 375 km]]></name>
    <extensions>
      <line xmlns="http://www.topografix.com/GPX/gpx_style/0/2">
        <color>0000FF</color>
        <width>4</width>
      </line>
    </extensions>
    <trkseg>
      <trkpt lat="48.29599" lon="4.06574">
        <ele>116.800788</ele>
        <time>2024-03-14T10:57:52.040Z</time>
      </trkpt>
      <trkpt lat="48.29601" lon="4.06593">
        <ele>116.800788</ele>
        <time>2024-03-14T10:57:55.949Z</time>
      </trkpt>
      <trkpt lat="48.29623" lon="4.06669">
        <ele>116.800788</ele>
        <time>2024-03-14T10:58:11.408Z</time>
      </trkpt>
      <trkpt lat="48.29633" lon="4.06687">
        <ele>116.800788</ele>
        <time>2024-03-14T10:58:15.921Z</time>
      </trkpt>
      <trkpt lat="48.29641" lon="4.06693">
        <ele>116.79897</ele>
        <time>2024-03-14T10:58:18.111Z</time>
      </trkpt>
      <trkpt lat="48.29661" lon="4.06734">
        <ele>116.76892</ele>
        <time>2024-03-14T10:58:26.810Z</time>
      </trkpt>
      <trkpt lat="48.29666" lon="4.06731">
        <ele>116.764177</ele>
        <time>2024-03-14T10:58:28.041Z</time>
      </trkpt>
      <trkpt lat="48.2967" lon="4.06728">
        <ele>116.760399</ele>
        <time>2024-03-14T10:58:29.087Z</time>
      </trkpt>
      <trkpt lat="48.29706" lon="4.06709">
        <ele>116.725727</ele>
        <time>2024-03-14T10:58:38.810Z</time>
      </trkpt>
      <trkpt lat="48.29709" lon="4.06712">
        <ele>116.722708</ele>
        <time>2024-03-14T10:58:39.589Z</time>
      </trkpt>
      <trkpt lat="48.29719" lon="4.06741">
        <ele>116.70299</ele>
        <time>2024-03-14T10:58:44.557Z</time>
      </trkpt>
      <trkpt lat="48.29721" lon="4.06747">
        <ele>116.699373</ele>
        <time>2024-03-14T10:58:45.415Z</time>
      </trkpt>
      <trkpt lat="48.29723" lon="4.06754">
        <ele>116.694783</ele>
        <time>2024-03-14T10:58:46.496Z</time>
      </trkpt>
      <trkpt lat="48.29762" lon="4.06869">
        <ele>116.502712</ele>
        <time>2024-03-14T10:59:03.727Z</time>
      </trkpt>
      <trkpt lat="48.2977" lon="4.06891">
        <ele>116.409828</ele>
        <time>2024-03-14T10:59:06.982Z</time>
      </trkpt>
      <trkpt lat="48.29777" lon="4.06912">
        <ele>116.321607</ele>
        <time>2024-03-14T10:59:10.199Z</time>
      </trkpt>
      <trkpt lat="48.29824" lon="4.07049">
        <ele>115.748668</ele>
        <time>2024-03-14T10:59:31.692Z</time>
      </trkpt>
      <trkpt lat="48.29831" lon="4.07069">
        <ele>115.66511</ele>
        <time>2024-03-14T10:59:35.163Z</time>
      </trkpt>
      <trkpt lat="48.29816" lon="4.07079">
        <ele>115.61473</ele>
        <time>2024-03-14T10:59:38.582Z</time>
      </trkpt>
      <trkpt lat="48.29812" lon="4.07081">
        <ele>115.607071</ele>
        <time>2024-03-14T10:59:39.507Z</time>
      </trkpt>
      <trkpt lat="48.29783" lon="4.07102">
        <ele>115.547065</ele>
        <time>2024-03-14T10:59:46.457Z</time>
      </trkpt>
      <trkpt lat="48.2978" lon="4.07104">
        <ele>115.540798</ele>
        <time>2024-03-14T10:59:47.196Z</time>
      </trkpt>
      <trkpt lat="48.29777" lon="4.07105">
        <ele>115.534879</ele>
        <time>2024-03-14T10:59:47.915Z</time>
      </trkpt>
      <trkpt lat="48.29774" lon="4.07107">
        <ele>115.529114</ele>
        <time>2024-03-14T10:59:48.606Z</time>
      </trkpt>
      <trkpt lat="48.29738" lon="4.07141">
        <ele>115.450301</ele>
        <time>2024-03-14T10:59:58.221Z</time>
      </trkpt>
      <trkpt lat="48.29706" lon="4.07173">
        <ele>115.379923</ele>
        <time>2024-03-14T11:00:07.648Z</time>
      </trkpt>
      <trkpt lat="48.29711" lon="4.07182">
        <ele>115.366192</ele>
        <time>2024-03-14T11:00:09.460Z</time>
      </trkpt>
      <trkpt lat="48.29748" lon="4.07256">
        <ele>114.961701</ele>
        <time>2024-03-14T11:00:23.145Z</time>
      </trkpt>
      <trkpt lat="48.29667" lon="4.07338">
        <ele>113.723776</ele>
        <time>2024-03-14T11:00:42.282Z</time>
      </trkpt>
      <trkpt lat="48.29694" lon="4.07384">
        <ele>113.21265</ele>
        <time>2024-03-14T11:00:50.014Z</time>
      </trkpt>
      <trkpt lat="48.29717" lon="4.07413">
        <ele>112.745887</ele>
        <time>2024-03-14T11:00:56.178Z</time>
      </trkpt>
      <trkpt lat="48.29751" lon="4.07471">
        <ele>111.782896</ele>
        <time>2024-03-14T11:01:09.726Z</time>
      </trkpt>
      <trkpt lat="48.29744" lon="4.07479">
        <ele>111.622608</ele>
        <time>2024-03-14T11:01:11.266Z</time>
      </trkpt>
      <trkpt lat="48.29716" lon="4.07513">
        <ele>110.948668</ele>
        <time>2024-03-14T11:01:17.801Z</time>
      </trkpt>
      <trkpt lat="48.29722" lon="4.07523">
        <ele>110.78739</ele>
        <time>2024-03-14T11:01:19.452Z</time>
      </trkpt>
      <trkpt lat="48.29757" lon="4.07589">
        <ele>109.745294</ele>
        <time>2024-03-14T11:01:29.950Z</time>
      </trkpt>
      <trkpt lat="48.29768" lon="4.07611">
        <ele>109.505938</ele>
        <time>2024-03-14T11:01:33.723Z</time>
      </trkpt>
      <trkpt lat="48.29806" lon="4.07692">
        <ele>108.75622</ele>
        <time>2024-03-14T11:01:47.333Z</time>
      </trkpt>
      <trkpt lat="48.29808" lon="4.07702">
        <ele>108.680911</ele>
        <time>2024-03-14T11:01:48.759Z</time>
      </trkpt>
      <trkpt lat="48.29811" lon="4.07704">
        <ele>108.641866</ele>
        <time>2024-03-14T11:01:49.502Z</time>
      </trkpt>
      <trkpt lat="48.29817" lon="4.07723">
        <ele>108.486057</ele>
        <time>2024-03-14T11:01:52.364Z</time>
      </trkpt>
      <trkpt lat="48.29805" lon="4.07731">
        <ele>108.3421</ele>
        <time>2024-03-14T11:01:55.085Z</time>
      </trkpt>
      <trkpt lat="48.29794" lon="4.07738">
        <ele>108.199177</ele>
        <time>2024-03-14T11:01:57.755Z</time>
      </trkpt>
      <trkpt lat="48.29798" lon="4.07749">
        <ele>108.107561</ele>
        <time>2024-03-14T11:01:59.293Z</time>
      </trkpt>
      <trkpt lat="48.29804" lon="4.07762">
        <ele>107.985817</ele>
        <time>2024-03-14T11:02:01.435Z</time>
      </trkpt>
      <trkpt lat="48.29809" lon="4.07773">
        <ele>107.888503</ele>
        <time>2024-03-14T11:02:03.107Z</time>
      </trkpt>
      <trkpt lat="48.29814" lon="4.07785">
        <ele>107.779277</ele>
        <time>2024-03-14T11:02:05.015Z</time>
      </trkpt>
      <trkpt lat="48.29833" lon="4.07839">
        <ele>107.575469</ele>
        <time>2024-03-14T11:02:13.064Z</time>
      </trkpt>
      <trkpt lat="48.29835" lon="4.07843">
        <ele>107.568732</ele>
        <time>2024-03-14T11:02:13.684Z</time>
      </trkpt>
      <trkpt lat="48.29828" lon="4.07853">
        <ele>107.548807</ele>
        <time>2024-03-14T11:02:20.239Z</time>
      </trkpt>
      <trkpt lat="48.2983" lon="4.07856">
        <ele>107.543505</ele>
        <time>2024-03-14T11:02:20.792Z</time>
      </trkpt>
      <trkpt lat="48.29823" lon="4.07866">
        <ele>107.523684</ele>
        <time>2024-03-14T11:02:22.792Z</time>
      </trkpt>
      <trkpt lat="48.29809" lon="4.07885">
        <ele>107.483347</ele>
        <time>2024-03-14T11:02:26.885Z</time>
      </trkpt>
      <trkpt lat="48.2978" lon="4.07924">
        <ele>107.400853</ele>
        <time>2024-03-14T11:02:35.935Z</time>
      </trkpt>
      <trkpt lat="48.29675" lon="4.08">
        <ele>107.296793</ele>
        <time>2024-03-14T11:03:02.186Z</time>
      </trkpt>
      <trkpt lat="48.29573" lon="4.08074">
        <ele>107.401327</ele>
        <time>2024-03-14T11:03:27.342Z</time>
      </trkpt>
      <trkpt lat="48.29541" lon="4.08096">
        <ele>107.472217</ele>
        <time>2024-03-14T11:03:35.705Z</time>
      </trkpt>
      <trkpt lat="48.29539" lon="4.08088">
        <ele>107.493077</ele>
        <time>2024-03-14T11:03:37.439Z</time>
      </trkpt>
      <trkpt lat="48.29536" lon="4.0809">
        <ele>107.505118</ele>
        <time>2024-03-14T11:03:38.321Z</time>
      </trkpt>
      <trkpt lat="48.29534" lon="4.0809">
        <ele>107.510297</ele>
        <time>2024-03-14T11:03:38.731Z</time>
      </trkpt>
      <trkpt lat="48.2952" lon="4.081">
        <ele>107.562653</ele>
        <time>2024-03-14T11:03:42.435Z</time>
      </trkpt>
      <trkpt lat="48.29516" lon="4.08099">
        <ele>107.579052</ele>
        <time>2024-03-14T11:03:43.608Z</time>
      </trkpt>
      <trkpt lat="48.29509" lon="4.08121">
        <ele>107.634772</ele>
        <time>2024-03-14T11:03:47.917Z</time>
      </trkpt>
      <trkpt lat="48.29501" lon="4.08138">
        <ele>107.682056</ele>
        <time>2024-03-14T11:03:51.254Z</time>
      </trkpt>
      <trkpt lat="48.29498" lon="4.08149">
        <ele>107.710309</ele>
        <time>2024-03-14T11:03:53.083Z</time>
      </trkpt>
      <trkpt lat="48.29488" lon="4.08185">
        <ele>107.798118</ele>
        <time>2024-03-14T11:03:59.684Z</time>
      </trkpt>
      <trkpt lat="48.29484" lon="4.08205">
        <ele>107.846426</ele>
        <time>2024-03-14T11:04:02.845Z</time>
      </trkpt>
      <trkpt lat="48.29451" lon="4.0826">
        <ele>108.016727</ele>
        <time>2024-03-14T11:04:15.157Z</time>
      </trkpt>
      <trkpt lat="48.29436" lon="4.08276">
        <ele>107.995964</ele>
        <time>2024-03-14T11:04:19.059Z</time>
      </trkpt>
      <trkpt lat="48.29419" lon="4.08295">
        <ele>107.926716</ele>
        <time>2024-03-14T11:04:24.079Z</time>
      </trkpt>
      <trkpt lat="48.29365" lon="4.08355">
        <ele>107.708444</ele>
        <time>2024-03-14T11:04:38.526Z</time>
      </trkpt>
      <trkpt lat="48.29342" lon="4.08389">
        <ele>107.602933</ele>
        <time>2024-03-14T11:04:45.326Z</time>
      </trkpt>
      <trkpt lat="48.29329" lon="4.08409">
        <ele>107.542622</ele>
        <time>2024-03-14T11:04:49.071Z</time>
      </trkpt>
      <trkpt lat="48.29323" lon="4.08424">
        <ele>107.504402</ele>
        <time>2024-03-14T11:04:51.475Z</time>
      </trkpt>
      <trkpt lat="48.29314" lon="4.0845">
        <ele>107.431222</ele>
        <time>2024-03-14T11:04:55.514Z</time>
      </trkpt>
      <trkpt lat="48.29304" lon="4.08476">
        <ele>107.310821</ele>
        <time>2024-03-14T11:04:59.437Z</time>
      </trkpt>
      <trkpt lat="48.293" lon="4.08488">
        <ele>107.25496</ele>
        <time>2024-03-14T11:05:01.217Z</time>
      </trkpt>
      <trkpt lat="48.29299" lon="4.0849">
        <ele>107.242637</ele>
        <time>2024-03-14T11:05:01.617Z</time>
      </trkpt>
      <trkpt lat="48.29287" lon="4.08523">
        <ele>107.08809</ele>
        <time>2024-03-14T11:05:06.698Z</time>
      </trkpt>
      <trkpt lat="48.29286" lon="4.08526">
        <ele>107.074688</ele>
        <time>2024-03-14T11:05:07.141Z</time>
      </trkpt>
      <trkpt lat="48.29282" lon="4.08536">
        <ele>107.026721</ele>
        <time>2024-03-14T11:05:08.675Z</time>
      </trkpt>
      <trkpt lat="48.2928" lon="4.08541">
        <ele>107.003761</ele>
        <time>2024-03-14T11:05:09.433Z</time>
      </trkpt>
      <trkpt lat="48.29266" lon="4.08556">
        <ele>106.901207</ele>
        <time>2024-03-14T11:05:12.844Z</time>
      </trkpt>
      <trkpt lat="48.29211" lon="4.08625">
        <ele>106.459378</ele>
        <time>2024-03-14T11:05:27.690Z</time>
      </trkpt>
      <trkpt lat="48.29158" lon="4.08729">
        <ele>106.370727</ele>
        <time>2024-03-14T11:05:46.931Z</time>
      </trkpt>
      <trkpt lat="48.29147" lon="4.08761">
        <ele>106.380805</ele>
        <time>2024-03-14T11:05:52.263Z</time>
      </trkpt>
      <trkpt lat="48.29138" lon="4.08771">
        <ele>106.385405</ele>
        <time>2024-03-14T11:05:54.682Z</time>
      </trkpt>
      <trkpt lat="48.29127" lon="4.08775">
        <ele>106.3902</ele>
        <time>2024-03-14T11:05:57.188Z</time>
      </trkpt>
      <trkpt lat="48.29115" lon="4.0876">
        <ele>106.397175</ele>
        <time>2024-03-14T11:06:01.007Z</time>
      </trkpt>
      <trkpt lat="48.29108" lon="4.08753">
        <ele>106.400742</ele>
        <time>2024-03-14T11:06:02.944Z</time>
      </trkpt>
      <trkpt lat="48.291" lon="4.0875">
        <ele>106.403866</ele>
        <time>2024-03-14T11:06:04.605Z</time>
      </trkpt>
      <trkpt lat="48.29088" lon="4.08753">
        <ele>106.409274</ele>
        <time>2024-03-14T11:06:07.690Z</time>
      </trkpt>
      <trkpt lat="48.29078" lon="4.08772">
        <ele>106.416063</ele>
        <time>2024-03-14T11:06:11.416Z</time>
      </trkpt>
      <trkpt lat="48.29077" lon="4.08791">
        <ele>106.457393</ele>
        <time>2024-03-14T11:06:14.474Z</time>
      </trkpt>
      <trkpt lat="48.29079" lon="4.088">
        <ele>106.485972</ele>
        <time>2024-03-14T11:06:16.046Z</time>
      </trkpt>
      <trkpt lat="48.29085" lon="4.08808">
        <ele>106.522434</ele>
        <time>2024-03-14T11:06:17.911Z</time>
      </trkpt>
      <trkpt lat="48.29099" lon="4.08828">
        <ele>106.610088</ele>
        <time>2024-03-14T11:06:22.424Z</time>
      </trkpt>
      <trkpt lat="48.29095" lon="4.08844">
        <ele>106.662021</ele>
        <time>2024-03-14T11:06:25.310Z</time>
      </trkpt>
      <trkpt lat="48.2909" lon="4.08844">
        <ele>106.687076</ele>
        <time>2024-03-14T11:06:26.654Z</time>
      </trkpt>
      <trkpt lat="48.2904" lon="4.08921">
        <ele>107.019596</ele>
        <time>2024-03-14T11:06:44.248Z</time>
      </trkpt>
      <trkpt lat="48.28978" lon="4.09036">
        <ele>107.470439</ele>
        <time>2024-03-14T11:07:08.881Z</time>
      </trkpt>
      <trkpt lat="48.28903" lon="4.09187">
        <ele>108.043075</ele>
        <time>2024-03-14T11:07:39.726Z</time>
      </trkpt>
      <trkpt lat="48.28881" lon="4.09213">
        <ele>108.09264</ele>
        <time>2024-03-14T11:07:46.128Z</time>
      </trkpt>
      <trkpt lat="48.28819" lon="4.09264">
        <ele>108.163736</ele>
        <time>2024-03-14T11:08:02.525Z</time>
      </trkpt>
      <trkpt lat="48.28766" lon="4.09326">
        <ele>108.231161</ele>
        <time>2024-03-14T11:08:17.506Z</time>
      </trkpt>
      <trkpt lat="48.28714" lon="4.09365">
        <ele>108.198713</ele>
        <time>2024-03-14T11:08:30.416Z</time>
      </trkpt>
      <trkpt lat="48.28703" lon="4.09385">
        <ele>108.175071</ele>
        <time>2024-03-14T11:08:34.082Z</time>
      </trkpt>
      <trkpt lat="48.28698" lon="4.094">
        <ele>108.159065</ele>
        <time>2024-03-14T11:08:36.512Z</time>
      </trkpt>
      <trkpt lat="48.28686" lon="4.09489">
        <ele>108.074462</ele>
        <time>2024-03-14T11:08:49.580Z</time>
      </trkpt>
      <trkpt lat="48.28681" lon="4.09501">
        <ele>108.061383</ele>
        <time>2024-03-14T11:08:51.585Z</time>
      </trkpt>
      <trkpt lat="48.2867" lon="4.09519">
        <ele>108.039098</ele>
        <time>2024-03-14T11:08:55.050Z</time>
      </trkpt>
      <trkpt lat="48.28646" lon="4.09536">
        <ele>108.001599</ele>
        <time>2024-03-14T11:09:00.825Z</time>
      </trkpt>
      <trkpt lat="48.28637" lon="4.09551">
        <ele>108.00692</ele>
        <time>2024-03-14T11:09:03.895Z</time>
      </trkpt>
      <trkpt lat="48.28625" lon="4.09584">
        <ele>108.022851</ele>
        <time>2024-03-14T11:09:09.370Z</time>
      </trkpt>
      <trkpt lat="48.28587" lon="4.0975">
        <ele>108.096948</ele>
        <time>2024-03-14T11:09:35.621Z</time>
      </trkpt>
      <trkpt lat="48.28573" lon="4.09792">
        <ele>108.129262</ele>
        <time>2024-03-14T11:09:42.888Z</time>
      </trkpt>
      <trkpt lat="48.2855" lon="4.09836">
        <ele>108.246998</ele>
        <time>2024-03-14T11:09:51.972Z</time>
      </trkpt>
      <trkpt lat="48.28542" lon="4.09847">
        <ele>108.280979</ele>
        <time>2024-03-14T11:09:54.556Z</time>
      </trkpt>
      <trkpt lat="48.2854" lon="4.09856">
        <ele>108.299146</ele>
        <time>2024-03-14T11:09:55.928Z</time>
      </trkpt>
      <trkpt lat="48.28508" lon="4.09883">
        <ele>108.415241</ele>
        <time>2024-03-14T11:10:04.883Z</time>
      </trkpt>
      <trkpt lat="48.28506" lon="4.09886">
        <ele>108.424681</ele>
        <time>2024-03-14T11:10:05.597Z</time>
      </trkpt>
      <trkpt lat="48.28436" lon="4.09952">
        <ele>108.68201</ele>
        <time>2024-03-14T11:10:25.471Z</time>
      </trkpt>
      <trkpt lat="48.28434" lon="4.09955">
        <ele>108.687417</ele>
        <time>2024-03-14T11:10:26.109Z</time>
      </trkpt>
      <trkpt lat="48.28428" lon="4.09962">
        <ele>108.703122</ele>
        <time>2024-03-14T11:10:27.882Z</time>
      </trkpt>
      <trkpt lat="48.2842" lon="4.09971">
        <ele>108.725722</ele>
        <time>2024-03-14T11:10:30.426Z</time>
      </trkpt>
      <trkpt lat="48.28405" lon="4.09971">
        <ele>108.755865</ele>
        <time>2024-03-14T11:10:33.778Z</time>
      </trkpt>
      <trkpt lat="48.28353" lon="4.09954">
        <ele>108.867148</ele>
        <time>2024-03-14T11:10:46.099Z</time>
      </trkpt>
      <trkpt lat="48.28325" lon="4.09953">
        <ele>108.924728</ele>
        <time>2024-03-14T11:10:52.443Z</time>
      </trkpt>
      <trkpt lat="48.28314" lon="4.09958">
        <ele>108.949497</ele>
        <time>2024-03-14T11:10:55.157Z</time>
      </trkpt>
      <trkpt lat="48.28254" lon="4.09983">
        <ele>109.085821</ele>
        <time>2024-03-14T11:11:09.080Z</time>
      </trkpt>
      <trkpt lat="48.28232" lon="4.09991">
        <ele>109.149263</ele>
        <time>2024-03-14T11:11:14.631Z</time>
      </trkpt>
      <trkpt lat="48.28185" lon="4.10002">
        <ele>109.28159</ele>
        <time>2024-03-14T11:11:26.245Z</time>
      </trkpt>
      <trkpt lat="48.28131" lon="4.09995">
        <ele>109.430691</ele>
        <time>2024-03-14T11:11:38.968Z</time>
      </trkpt>
      <trkpt lat="48.2813" lon="4.09988">
        <ele>109.443535</ele>
        <time>2024-03-14T11:11:40.052Z</time>
      </trkpt>
      <trkpt lat="48.28126" lon="4.09986">
        <ele>109.455564</ele>
        <time>2024-03-14T11:11:41.074Z</time>
      </trkpt>
      <trkpt lat="48.28123" lon="4.09993">
        <ele>109.46966</ele>
        <time>2024-03-14T11:11:42.262Z</time>
      </trkpt>
      <trkpt lat="48.28121" lon="4.09992">
        <ele>109.47636</ele>
        <time>2024-03-14T11:11:42.901Z</time>
      </trkpt>
      <trkpt lat="48.28123" lon="4.09988">
        <ele>109.48648</ele>
        <time>2024-03-14T11:11:43.722Z</time>
      </trkpt>
      <trkpt lat="48.28091" lon="4.09979">
        <ele>109.58369</ele>
        <time>2024-03-14T11:11:56.092Z</time>
      </trkpt>
      <trkpt lat="48.28038" lon="4.09955">
        <ele>109.783144</ele>
        <time>2024-03-14T11:12:17.014Z</time>
      </trkpt>
      <trkpt lat="48.27944" lon="4.09935">
        <ele>110.129537</ele>
        <time>2024-03-14T11:12:54.596Z</time>
      </trkpt>
      <trkpt lat="48.27906" lon="4.09941">
        <ele>110.276369</ele>
        <time>2024-03-14T11:13:09.589Z</time>
      </trkpt>
      <trkpt lat="48.27834" lon="4.09967">
        <ele>110.578459</ele>
        <time>2024-03-14T11:13:38.806Z</time>
      </trkpt>
      <trkpt lat="48.27796" lon="4.0997">
        <ele>110.734148</ele>
        <time>2024-03-14T11:13:53.776Z</time>
      </trkpt>
      <trkpt lat="48.27755" lon="4.09969">
        <ele>110.89951</ele>
        <time>2024-03-14T11:14:09.519Z</time>
      </trkpt>
      <trkpt lat="48.27731" lon="4.09972">
        <ele>110.921079</ele>
        <time>2024-03-14T11:14:18.833Z</time>
      </trkpt>
      <trkpt lat="48.27723" lon="4.09975">
        <ele>110.911932</ele>
        <time>2024-03-14T11:14:21.990Z</time>
      </trkpt>
      <trkpt lat="48.27699" lon="4.09987">
        <ele>110.883305</ele>
        <time>2024-03-14T11:14:31.695Z</time>
      </trkpt>
      <trkpt lat="48.27676" lon="4.09986">
        <ele>110.858373</ele>
        <time>2024-03-14T11:14:40.043Z</time>
      </trkpt>
      <trkpt lat="48.27627" lon="4.10003">
        <ele>110.802566</ele>
        <time>2024-03-14T11:14:58.418Z</time>
      </trkpt>
      <trkpt lat="48.27491" lon="4.10026">
        <ele>110.418923</ele>
        <time>2024-03-14T11:15:47.590Z</time>
      </trkpt>
      <trkpt lat="48.27472" lon="4.10033">
        <ele>110.337591</ele>
        <time>2024-03-14T11:15:54.763Z</time>
      </trkpt>
      <trkpt lat="48.27373" lon="4.10082">
        <ele>109.973252</ele>
        <time>2024-03-14T11:16:32.008Z</time>
      </trkpt>
      <trkpt lat="48.27291" lon="4.1013">
        <ele>109.839354</ele>
        <time>2024-03-14T11:16:51.223Z</time>
      </trkpt>
      <trkpt lat="48.27238" lon="4.10157">
        <ele>109.755313</ele>
        <time>2024-03-14T11:17:03.404Z</time>
      </trkpt>
      <trkpt lat="48.27217" lon="4.10166">
        <ele>109.771651</ele>
        <time>2024-03-14T11:17:08.136Z</time>
      </trkpt>
      <trkpt lat="48.27113" lon="4.1022">
        <ele>110.245256</ele>
        <time>2024-03-14T11:17:34.797Z</time>
      </trkpt>
      <trkpt lat="48.27095" lon="4.10229">
        <ele>110.326559</ele>
        <time>2024-03-14T11:17:39.502Z</time>
      </trkpt>
      <trkpt lat="48.26929" lon="4.10294">
        <ele>111.574154</ele>
        <time>2024-03-14T11:18:24.011Z</time>
      </trkpt>
      <trkpt lat="48.26903" lon="4.103">
        <ele>111.789525</ele>
        <time>2024-03-14T11:18:31.550Z</time>
      </trkpt>
      <trkpt lat="48.26898" lon="4.10305">
        <ele>111.84</ele>
        <time>2024-03-14T11:18:33.306Z</time>
      </trkpt>
      <trkpt lat="48.26895" lon="4.10304">
        <ele>111.86776</ele>
        <time>2024-03-14T11:18:34.192Z</time>
      </trkpt>
      <trkpt lat="48.26888" lon="4.1029">
        <ele>111.961691</ele>
        <time>2024-03-14T11:18:37.281Z</time>
      </trkpt>
      <trkpt lat="48.26886" lon="4.10286">
        <ele>111.986823</ele>
        <time>2024-03-14T11:18:38.121Z</time>
      </trkpt>
      <trkpt lat="48.26885" lon="4.1028">
        <ele>112.013516</ele>
        <time>2024-03-14T11:18:39.250Z</time>
      </trkpt>
      <trkpt lat="48.2688" lon="4.10224">
        <ele>112.238746</ele>
        <time>2024-03-14T11:18:49.403Z</time>
      </trkpt>
      <trkpt lat="48.26871" lon="4.10143">
        <ele>112.563964</ele>
        <time>2024-03-14T11:19:03.754Z</time>
      </trkpt>
      <trkpt lat="48.26874" lon="4.10127">
        <ele>112.629236</ele>
        <time>2024-03-14T11:19:06.560Z</time>
      </trkpt>
      <trkpt lat="48.26877" lon="4.10123">
        <ele>112.652943</ele>
        <time>2024-03-14T11:19:07.556Z</time>
      </trkpt>
      <trkpt lat="48.26877" lon="4.1011">
        <ele>112.704281</ele>
        <time>2024-03-14T11:19:09.858Z</time>
      </trkpt>
      <trkpt lat="48.26874" lon="4.10105">
        <ele>112.733829</ele>
        <time>2024-03-14T11:19:11.155Z</time>
      </trkpt>
      <trkpt lat="48.26869" lon="4.10102">
        <ele>112.768496</ele>
        <time>2024-03-14T11:19:12.544Z</time>
      </trkpt>
      <trkpt lat="48.26861" lon="4.10109">
        <ele>112.818502</ele>
        <time>2024-03-14T11:19:14.562Z</time>
      </trkpt>
      <trkpt lat="48.26861" lon="4.10112">
        <ele>112.831181</ele>
        <time>2024-03-14T11:19:15.065Z</time>
      </trkpt>
      <trkpt lat="48.26852" lon="4.10122">
        <ele>112.895522</ele>
        <time>2024-03-14T11:19:17.652Z</time>
      </trkpt>
      <trkpt lat="48.26829" lon="4.10127">
        <ele>113.034573</ele>
        <time>2024-03-14T11:19:23.011Z</time>
      </trkpt>
      <trkpt lat="48.26694" lon="4.10139">
        <ele>112.790871</ele>
        <time>2024-03-14T11:19:52.200Z</time>
      </trkpt>
      <trkpt lat="48.26681" lon="4.1014">
        <ele>112.763903</ele>
        <time>2024-03-14T11:19:54.828Z</time>
      </trkpt>
      <trkpt lat="48.26648" lon="4.10142">
        <ele>112.696997</ele>
        <time>2024-03-14T11:20:01.816Z</time>
      </trkpt>
      <trkpt lat="48.26616" lon="4.10143">
        <ele>112.65013</ele>
        <time>2024-03-14T11:20:08.788Z</time>
      </trkpt>
      <trkpt lat="48.26477" lon="4.10151">
        <ele>112.456334</ele>
        <time>2024-03-14T11:20:39.436Z</time>
      </trkpt>
      <trkpt lat="48.26358" lon="4.10163">
        <ele>112.163514</ele>
        <time>2024-03-14T11:21:05.281Z</time>
      </trkpt>
      <trkpt lat="48.26332" lon="4.10173">
        <ele>112.09379</ele>
        <time>2024-03-14T11:21:10.992Z</time>
      </trkpt>
      <trkpt lat="48.26309" lon="4.10188">
        <ele>112.031153</ele>
        <time>2024-03-14T11:21:16.126Z</time>
      </trkpt>
      <trkpt lat="48.26227" lon="4.10243">
        <ele>112.000194</ele>
        <time>2024-03-14T11:21:35.582Z</time>
      </trkpt>
      <trkpt lat="48.26203" lon="4.1026">
        <ele>112.008853</ele>
        <time>2024-03-14T11:21:41.589Z</time>
      </trkpt>
      <trkpt lat="48.26192" lon="4.10275">
        <ele>112.013618</ele>
        <time>2024-03-14T11:21:44.933Z</time>
      </trkpt>
      <trkpt lat="48.2618" lon="4.10304">
        <ele>112.020817</ele>
        <time>2024-03-14T11:21:49.970Z</time>
      </trkpt>
      <trkpt lat="48.26173" lon="4.10328">
        <ele>112.026214</ele>
        <time>2024-03-14T11:21:53.971Z</time>
      </trkpt>
      <trkpt lat="48.26154" lon="4.104">
        <ele>112.218328</ele>
        <time>2024-03-14T11:22:06.432Z</time>
      </trkpt>
      <trkpt lat="48.26145" lon="4.10432">
        <ele>112.399857</ele>
        <time>2024-03-14T11:22:12.287Z</time>
      </trkpt>
      <trkpt lat="48.26134" lon="4.10462">
        <ele>112.585078</ele>
        <time>2024-03-14T11:22:18.659Z</time>
      </trkpt>
      <trkpt lat="48.26115" lon="4.10488">
        <ele>112.784263</ele>
        <time>2024-03-14T11:22:25.604Z</time>
      </trkpt>
      <trkpt lat="48.2609" lon="4.10511">
        <ele>113.020212</ele>
        <time>2024-03-14T11:22:33.724Z</time>
      </trkpt>
      <trkpt lat="48.26035" lon="4.10548">
        <ele>113.486666</ele>
        <time>2024-03-14T11:22:49.888Z</time>
      </trkpt>
      <trkpt lat="48.26022" lon="4.10552">
        <ele>113.538904</ele>
        <time>2024-03-14T11:22:53.351Z</time>
      </trkpt>
      <trkpt lat="48.26015" lon="4.10553">
        <ele>113.566032</ele>
        <time>2024-03-14T11:22:55.152Z</time>
      </trkpt>
      <trkpt lat="48.25996" lon="4.10549">
        <ele>113.642509</ele>
        <time>2024-03-14T11:23:00.010Z</time>
      </trkpt>
      <trkpt lat="48.25983" lon="4.10542">
        <ele>113.700289</ele>
        <time>2024-03-14T11:23:03.692Z</time>
      </trkpt>
      <trkpt lat="48.25968" lon="4.10527">
        <ele>113.771718</ele>
        <time>2024-03-14T11:23:08.102Z</time>
      </trkpt>
      <trkpt lat="48.25946" lon="4.10503">
        <ele>113.877713</ele>
        <time>2024-03-14T11:23:14.608Z</time>
      </trkpt>
      <trkpt lat="48.25937" lon="4.10493">
        <ele>113.925354</ele>
        <time>2024-03-14T11:23:17.431Z</time>
      </trkpt>
      <trkpt lat="48.25908" lon="4.10462">
        <ele>114.066243</ele>
        <time>2024-03-14T11:23:25.726Z</time>
      </trkpt>
      <trkpt lat="48.25824" lon="4.10396">
        <ele>114.151673</ele>
        <time>2024-03-14T11:23:46.385Z</time>
      </trkpt>
      <trkpt lat="48.25818" lon="4.10389">
        <ele>114.1472</ele>
        <time>2024-03-14T11:23:48.033Z</time>
      </trkpt>
      <trkpt lat="48.25797" lon="4.10367">
        <ele>114.132555</ele>
        <time>2024-03-14T11:23:53.458Z</time>
      </trkpt>
      <trkpt lat="48.25771" lon="4.10325">
        <ele>114.110369</ele>
        <time>2024-03-14T11:24:01.842Z</time>
      </trkpt>
      <trkpt lat="48.25764" lon="4.10309">
        <ele>114.10301</ele>
        <time>2024-03-14T11:24:04.626Z</time>
      </trkpt>
      <trkpt lat="48.25761" lon="4.10276">
        <ele>114.089875</ele>
        <time>2024-03-14T11:24:09.871Z</time>
      </trkpt>
      <trkpt lat="48.25757" lon="4.10226">
        <ele>114.230481</ele>
        <time>2024-03-14T11:24:17.648Z</time>
      </trkpt>
      <trkpt lat="48.25748" lon="4.10204">
        <ele>114.335577</ele>
        <time>2024-03-14T11:24:21.693Z</time>
      </trkpt>
      <trkpt lat="48.25736" lon="4.10185">
        <ele>114.440876</ele>
        <time>2024-03-14T11:24:25.950Z</time>
      </trkpt>
      <trkpt lat="48.25723" lon="4.10169">
        <ele>114.548218</ele>
        <time>2024-03-14T11:24:30.274Z</time>
      </trkpt>
      <trkpt lat="48.25708" lon="4.10161">
        <ele>114.642011</ele>
        <time>2024-03-14T11:24:34.198Z</time>
      </trkpt>
      <trkpt lat="48.25693" lon="4.10163">
        <ele>114.735529</ele>
        <time>2024-03-14T11:24:38.228Z</time>
      </trkpt>
      <trkpt lat="48.25683" lon="4.10171">
        <ele>114.800119</ele>
        <time>2024-03-14T11:24:41.097Z</time>
      </trkpt>
      <trkpt lat="48.25673" lon="4.10185">
        <ele>114.885007</ele>
        <time>2024-03-14T11:24:44.882Z</time>
      </trkpt>
      <trkpt lat="48.25657" lon="4.10249">
        <ele>115.161572</ele>
        <time>2024-03-14T11:24:57.314Z</time>
      </trkpt>
      <trkpt lat="48.25647" lon="4.10269">
        <ele>115.19566</ele>
        <time>2024-03-14T11:25:01.558Z</time>
      </trkpt>
      <trkpt lat="48.25637" lon="4.10275">
        <ele>115.208935</ele>
        <time>2024-03-14T11:25:04.367Z</time>
      </trkpt>
      <trkpt lat="48.2562" lon="4.10275">
        <ele>115.229992</ele>
        <time>2024-03-14T11:25:08.784Z</time>
      </trkpt>
      <trkpt lat="48.25616" lon="4.10271">
        <ele>115.236087</ele>
        <time>2024-03-14T11:25:10.053Z</time>
      </trkpt>
      <trkpt lat="48.25607" lon="4.10255">
        <ele>115.252924</ele>
        <time>2024-03-14T11:25:13.468Z</time>
      </trkpt>
      <trkpt lat="48.256" lon="4.10236">
        <ele>115.270584</ele>
        <time>2024-03-14T11:25:16.914Z</time>
      </trkpt>
      <trkpt lat="48.25587" lon="4.10208">
        <ele>115.298547</ele>
        <time>2024-03-14T11:25:22.032Z</time>
      </trkpt>
      <trkpt lat="48.25611" lon="4.10202">
        <ele>115.328671</ele>
        <time>2024-03-14T11:25:27.383Z</time>
      </trkpt>
      <trkpt lat="48.25682" lon="4.10088">
        <ele>115.129471</ele>
        <time>2024-03-14T11:25:49.355Z</time>
      </trkpt>
      <trkpt lat="48.25723" lon="4.10016">
        <ele>114.761707</ele>
        <time>2024-03-14T11:26:02.298Z</time>
      </trkpt>
      <trkpt lat="48.25732" lon="4.09995">
        <ele>114.664364</ele>
        <time>2024-03-14T11:26:05.577Z</time>
      </trkpt>
      <trkpt lat="48.25665" lon="4.0993">
        <ele>114.387829</ele>
        <time>2024-03-14T11:26:22.729Z</time>
      </trkpt>
      <trkpt lat="48.25649" lon="4.09886">
        <ele>114.440775</ele>
        <time>2024-03-14T11:26:30.356Z</time>
      </trkpt>
      <trkpt lat="48.25624" lon="4.0986">
        <ele>114.488283</ele>
        <time>2024-03-14T11:26:37.667Z</time>
      </trkpt>
      <trkpt lat="48.25687" lon="4.09753">
        <ele>114.687404</ele>
        <time>2024-03-14T11:27:02.071Z</time>
      </trkpt>
      <trkpt lat="48.25701" lon="4.09731">
        <ele>114.922357</ele>
        <time>2024-03-14T11:27:07.325Z</time>
      </trkpt>
      <trkpt lat="48.25718" lon="4.09719">
        <ele>115.144433</ele>
        <time>2024-03-14T11:27:12.314Z</time>
      </trkpt>
      <trkpt lat="48.25699" lon="4.09682">
        <ele>115.510041</ele>
        <time>2024-03-14T11:27:21.052Z</time>
      </trkpt>
      <trkpt lat="48.25695" lon="4.09682">
        <ele>115.556382</ele>
        <time>2024-03-14T11:27:22.142Z</time>
      </trkpt>
      <trkpt lat="48.25677" lon="4.09646">
        <ele>115.915245</ele>
        <time>2024-03-14T11:27:31.140Z</time>
      </trkpt>
      <trkpt lat="48.25666" lon="4.09648">
        <ele>116.047104</ele>
        <time>2024-03-14T11:27:34.382Z</time>
      </trkpt>
      <trkpt lat="48.25648" lon="4.09609">
        <ele>116.41922</ele>
        <time>2024-03-14T11:27:44.135Z</time>
      </trkpt>
      <trkpt lat="48.25648" lon="4.09603">
        <ele>116.468399</ele>
        <time>2024-03-14T11:27:45.420Z</time>
      </trkpt>
      <trkpt lat="48.25639" lon="4.09573">
        <ele>116.728983</ele>
        <time>2024-03-14T11:27:52.626Z</time>
      </trkpt>
      <trkpt lat="48.25654" lon="4.0957">
        <ele>116.930184</ele>
        <time>2024-03-14T11:27:57.262Z</time>
      </trkpt>
      <trkpt lat="48.25643" lon="4.09522">
        <ele>117.375748</ele>
        <time>2024-03-14T11:28:09.378Z</time>
      </trkpt>
      <trkpt lat="48.25637" lon="4.09497">
        <ele>117.611787</ele>
        <time>2024-03-14T11:28:15.942Z</time>
      </trkpt>
      <trkpt lat="48.25625" lon="4.09472">
        <ele>117.887765</ele>
        <time>2024-03-14T11:28:23.679Z</time>
      </trkpt>
      <trkpt lat="48.25632" lon="4.09457">
        <ele>118.042745</ele>
        <time>2024-03-14T11:28:31.770Z</time>
      </trkpt>
      <trkpt lat="48.25641" lon="4.09447">
        <ele>118.195029</ele>
        <time>2024-03-14T11:28:39.690Z</time>
      </trkpt>
      <trkpt lat="48.25641" lon="4.09441">
        <ele>118.248634</ele>
        <time>2024-03-14T11:28:42.490Z</time>
      </trkpt>
      <trkpt lat="48.25621" lon="4.09393">
        <ele>118.754847</ele>
        <time>2024-03-14T11:29:08.914Z</time>
      </trkpt>
      <trkpt lat="48.25648" lon="4.09373">
        <ele>119.160058</ele>
        <time>2024-03-14T11:29:17.511Z</time>
      </trkpt>
      <trkpt lat="48.25654" lon="4.09364">
        <ele>119.116199</ele>
        <time>2024-03-14T11:29:19.789Z</time>
      </trkpt>
      <trkpt lat="48.25663" lon="4.09364">
        <ele>119.066646</ele>
        <time>2024-03-14T11:29:21.822Z</time>
      </trkpt>
      <trkpt lat="48.25666" lon="4.0936">
        <ele>119.04365</ele>
        <time>2024-03-14T11:29:22.766Z</time>
      </trkpt>
      <trkpt lat="48.25667" lon="4.09349">
        <ele>119.00082</ele>
        <time>2024-03-14T11:29:24.556Z</time>
      </trkpt>
      <trkpt lat="48.25663" lon="4.09341">
        <ele>118.960299</ele>
        <time>2024-03-14T11:29:26.258Z</time>
      </trkpt>
      <trkpt lat="48.25653" lon="4.0934">
        <ele>118.905001</ele>
        <time>2024-03-14T11:29:28.534Z</time>
      </trkpt>
      <trkpt lat="48.25634" lon="4.0931">
        <ele>118.746998</ele>
        <time>2024-03-14T11:29:34.619Z</time>
      </trkpt>
      <trkpt lat="48.25637" lon="4.09306">
        <ele>118.7228</ele>
        <time>2024-03-14T11:29:37.585Z</time>
      </trkpt>
      <trkpt lat="48.25642" lon="4.09276">
        <ele>118.603576</ele>
        <time>2024-03-14T11:29:52.151Z</time>
      </trkpt>
      <trkpt lat="48.25685" lon="4.09232">
        <ele>118.306098</ele>
        <time>2024-03-14T11:30:28.464Z</time>
      </trkpt>
      <trkpt lat="48.25709" lon="4.0921">
        <ele>118.150096</ele>
        <time>2024-03-14T11:30:47.511Z</time>
      </trkpt>
      <trkpt lat="48.25713" lon="4.0919">
        <ele>117.977193</ele>
        <time>2024-03-14T11:30:57.483Z</time>
      </trkpt>
      <trkpt lat="48.25759" lon="4.0915">
        <ele>117.278966</ele>
        <time>2024-03-14T11:31:08.123Z</time>
      </trkpt>
      <trkpt lat="48.25748" lon="4.09114">
        <ele>116.936389</ele>
        <time>2024-03-14T11:31:13.311Z</time>
      </trkpt>
      <trkpt lat="48.25716" lon="4.09035">
        <ele>116.135783</ele>
        <time>2024-03-14T11:31:25.531Z</time>
      </trkpt>
      <trkpt lat="48.25712" lon="4.09016">
        <ele>115.962686</ele>
        <time>2024-03-14T11:31:28.304Z</time>
      </trkpt>
      <trkpt lat="48.25796" lon="4.08889">
        <ele>115.211386</ele>
        <time>2024-03-14T11:31:54.376Z</time>
      </trkpt>
      <trkpt lat="48.25806" lon="4.08885">
        <ele>115.151084</ele>
        <time>2024-03-14T11:31:56.701Z</time>
      </trkpt>
      <trkpt lat="48.25818" lon="4.08865">
        <ele>115.053545</ele>
        <time>2024-03-14T11:32:00.411Z</time>
      </trkpt>
      <trkpt lat="48.25827" lon="4.08837">
        <ele>114.938781</ele>
        <time>2024-03-14T11:32:04.752Z</time>
      </trkpt>
      <trkpt lat="48.25831" lon="4.08822">
        <ele>114.878924</ele>
        <time>2024-03-14T11:32:06.996Z</time>
      </trkpt>
      <trkpt lat="48.25851" lon="4.08745">
        <ele>114.7166</ele>
        <time>2024-03-14T11:32:18.487Z</time>
      </trkpt>
      <trkpt lat="48.25845" lon="4.08741">
        <ele>114.701616</ele>
        <time>2024-03-14T11:32:19.976Z</time>
      </trkpt>
      <trkpt lat="48.2585" lon="4.08715">
        <ele>114.661614</ele>
        <time>2024-03-14T11:32:24.089Z</time>
      </trkpt>
      <trkpt lat="48.25871" lon="4.08642">
        <ele>114.546191</ele>
        <time>2024-03-14T11:32:36.192Z</time>
      </trkpt>
      <trkpt lat="48.25884" lon="4.08587">
        <ele>114.460371</ele>
        <time>2024-03-14T11:32:45.114Z</time>
      </trkpt>
      <trkpt lat="48.25895" lon="4.0855">
        <ele>114.405149</ele>
        <time>2024-03-14T11:32:51.121Z</time>
      </trkpt>
      <trkpt lat="48.25922" lon="4.08472">
        <ele>114.313888</ele>
        <time>2024-03-14T11:33:04.247Z</time>
      </trkpt>
      <trkpt lat="48.25934" lon="4.08428">
        <ele>114.263987</ele>
        <time>2024-03-14T11:33:11.474Z</time>
      </trkpt>
      <trkpt lat="48.2594" lon="4.08394">
        <ele>114.227689</ele>
        <time>2024-03-14T11:33:16.984Z</time>
      </trkpt>
      <trkpt lat="48.2594" lon="4.08308">
        <ele>114.138514</ele>
        <time>2024-03-14T11:33:30.110Z</time>
      </trkpt>
      <trkpt lat="48.25931" lon="4.0821">
        <ele>114.098675</ele>
        <time>2024-03-14T11:33:44.926Z</time>
      </trkpt>
      <trkpt lat="48.2593" lon="4.08201">
        <ele>114.095425</ele>
        <time>2024-03-14T11:33:46.285Z</time>
      </trkpt>
      <trkpt lat="48.25935" lon="4.08199">
        <ele>114.09253</ele>
        <time>2024-03-14T11:33:48.326Z</time>
      </trkpt>
      <trkpt lat="48.2593" lon="4.08165">
        <ele>114.079721</ele>
        <time>2024-03-14T11:33:53.309Z</time>
      </trkpt>
      <trkpt lat="48.25905" lon="4.08061">
        <ele>114.039118</ele>
        <time>2024-03-14T11:34:09.833Z</time>
      </trkpt>
      <trkpt lat="48.2589" lon="4.07948">
        <ele>114.089602</ele>
        <time>2024-03-14T11:34:27.471Z</time>
      </trkpt>
      <trkpt lat="48.25883" lon="4.07866">
        <ele>114.135055</ele>
        <time>2024-03-14T11:34:39.663Z</time>
      </trkpt>
      <trkpt lat="48.25857" lon="4.07749">
        <ele>114.200612</ele>
        <time>2024-03-14T11:34:58.575Z</time>
      </trkpt>
      <trkpt lat="48.25848" lon="4.07682">
        <ele>114.233317</ele>
        <time>2024-03-14T11:35:08.923Z</time>
      </trkpt>
      <trkpt lat="48.25836" lon="4.07646">
        <ele>114.252465</ele>
        <time>2024-03-14T11:35:14.902Z</time>
      </trkpt>
      <trkpt lat="48.25827" lon="4.07655">
        <ele>114.259983</ele>
        <time>2024-03-14T11:35:17.316Z</time>
      </trkpt>
      <trkpt lat="48.2582" lon="4.07676">
        <ele>114.271328</ele>
        <time>2024-03-14T11:35:21.034Z</time>
      </trkpt>
      <trkpt lat="48.25776" lon="4.07594">
        <ele>114.313034</ele>
        <time>2024-03-14T11:35:47.175Z</time>
      </trkpt>
      <trkpt lat="48.2575" lon="4.07554">
        <ele>114.315065</ele>
        <time>2024-03-14T11:36:01.091Z</time>
      </trkpt>
      <trkpt lat="48.25723" lon="4.07521">
        <ele>114.316973</ele>
        <time>2024-03-14T11:36:14.165Z</time>
      </trkpt>
      <trkpt lat="48.2569" lon="4.07493">
        <ele>114.319027</ele>
        <time>2024-03-14T11:36:28.056Z</time>
      </trkpt>
      <trkpt lat="48.25598" lon="4.07456">
        <ele>114.282828</ele>
        <time>2024-03-14T11:37:03.220Z</time>
      </trkpt>
      <trkpt lat="48.2558" lon="4.0744">
        <ele>114.261547</ele>
        <time>2024-03-14T11:37:10.944Z</time>
      </trkpt>
      <trkpt lat="48.25539" lon="4.07382">
        <ele>114.204519</ele>
        <time>2024-03-14T11:37:31.545Z</time>
      </trkpt>
      <trkpt lat="48.25485" lon="4.07284">
        <ele>114.176472</ele>
        <time>2024-03-14T11:38:02.665Z</time>
      </trkpt>
      <trkpt lat="48.25448" lon="4.07216">
        <ele>114.282568</ele>
        <time>2024-03-14T11:38:24.341Z</time>
      </trkpt>
      <trkpt lat="48.25417" lon="4.07134">
        <ele>114.39716</ele>
        <time>2024-03-14T11:38:48.600Z</time>
      </trkpt>
      <trkpt lat="48.25325" lon="4.06968">
        <ele>114.919629</ele>
        <time>2024-03-14T11:39:45.148Z</time>
      </trkpt>
      <trkpt lat="48.25285" lon="4.06894">
        <ele>115.191176</ele>
        <time>2024-03-14T11:40:10.580Z</time>
      </trkpt>
      <trkpt lat="48.25277" lon="4.06903">
        <ele>115.235631</ele>
        <time>2024-03-14T11:40:14.362Z</time>
      </trkpt>
      <trkpt lat="48.24788" lon="4.06951">
        <ele>116.220081</ele>
        <time>2024-03-14T11:43:21.146Z</time>
      </trkpt>
      <trkpt lat="48.24776" lon="4.06955">
        <ele>116.236992</ele>
        <time>2024-03-14T11:43:25.738Z</time>
      </trkpt>
      <trkpt lat="48.24491" lon="4.07312">
        <ele>116.344631</ele>
        <time>2024-03-14T11:45:43.197Z</time>
      </trkpt>
      <trkpt lat="48.24461" lon="4.07208">
        <ele>116.39238</ele>
        <time>2024-03-14T11:46:11.923Z</time>
      </trkpt>
      <trkpt lat="48.24434" lon="4.07139">
        <ele>116.436107</ele>
        <time>2024-03-14T11:46:32.056Z</time>
      </trkpt>
      <trkpt lat="48.24415" lon="4.0705">
        <ele>116.486818</ele>
        <time>2024-03-14T11:46:55.017Z</time>
      </trkpt>
      <trkpt lat="48.24383" lon="4.06862">
        <ele>116.674701</ele>
        <time>2024-03-14T11:47:42.814Z</time>
      </trkpt>
      <trkpt lat="48.24372" lon="4.06804">
        <ele>116.736894</ele>
        <time>2024-03-14T11:47:57.759Z</time>
      </trkpt>
      <trkpt lat="48.24246" lon="4.06494">
        <ele>118.429073</ele>
        <time>2024-03-14T11:49:36.331Z</time>
      </trkpt>
      <trkpt lat="48.24204" lon="4.06418">
        <ele>119.067127</ele>
        <time>2024-03-14T11:50:05.350Z</time>
      </trkpt>
      <trkpt lat="48.24124" lon="4.06233">
        <ele>119.809832</ele>
        <time>2024-03-14T11:51:05.952Z</time>
      </trkpt>
      <trkpt lat="48.23834" lon="4.06477">
        <ele>118.686304</ele>
        <time>2024-03-14T11:53:04.088Z</time>
      </trkpt>
      <trkpt lat="48.23794" lon="4.06506">
        <ele>118.528301</ele>
        <time>2024-03-14T11:53:20.400Z</time>
      </trkpt>
      <trkpt lat="48.23711" lon="4.0656">
        <ele>118.211704</ele>
        <time>2024-03-14T11:53:53.182Z</time>
      </trkpt>
      <trkpt lat="48.23702" lon="4.06566">
        <ele>118.191719</ele>
        <time>2024-03-14T11:53:56.651Z</time>
      </trkpt>
      <trkpt lat="48.23622" lon="4.06615">
        <ele>118.056668</ele>
        <time>2024-03-14T11:54:28.249Z</time>
      </trkpt>
      <trkpt lat="48.23616" lon="4.06619">
        <ele>118.047347</ele>
        <time>2024-03-14T11:54:30.412Z</time>
      </trkpt>
      <trkpt lat="48.23611" lon="4.06621">
        <ele>118.038527</ele>
        <time>2024-03-14T11:54:32.455Z</time>
      </trkpt>
      <trkpt lat="48.23602" lon="4.06622">
        <ele>118.024734</ele>
        <time>2024-03-14T11:54:35.675Z</time>
      </trkpt>
      <trkpt lat="48.23597" lon="4.06618">
        <ele>118.016155</ele>
        <time>2024-03-14T11:54:37.685Z</time>
      </trkpt>
      <trkpt lat="48.23588" lon="4.06609">
        <ele>117.998185</ele>
        <time>2024-03-14T11:54:41.875Z</time>
      </trkpt>
      <trkpt lat="48.2358" lon="4.06594">
        <ele>117.978837</ele>
        <time>2024-03-14T11:54:46.312Z</time>
      </trkpt>
      <trkpt lat="48.23537" lon="4.06433">
        <ele>118.28627</ele>
        <time>2024-03-14T11:55:29.133Z</time>
      </trkpt>
      <trkpt lat="48.23531" lon="4.06406">
        <ele>118.3754</ele>
        <time>2024-03-14T11:55:36.959Z</time>
      </trkpt>
      <trkpt lat="48.23526" lon="4.0634">
        <ele>118.580377</ele>
        <time>2024-03-14T11:55:55.273Z</time>
      </trkpt>
      <trkpt lat="48.23518" lon="4.06343">
        <ele>118.619683</ele>
        <time>2024-03-14T11:55:58.876Z</time>
      </trkpt>
      <trkpt lat="48.23409" lon="4.06427">
        <ele>119.25571</ele>
        <time>2024-03-14T11:56:49.620Z</time>
      </trkpt>
      <trkpt lat="48.23157" lon="4.06627">
        <ele>119.853413</ele>
        <time>2024-03-14T11:58:37.258Z</time>
      </trkpt>
      <trkpt lat="48.23135" lon="4.06587">
        <ele>119.75875</ele>
        <time>2024-03-14T11:58:49.678Z</time>
      </trkpt>
      <trkpt lat="48.23113" lon="4.06582">
        <ele>119.697372</ele>
        <time>2024-03-14T11:58:57.655Z</time>
      </trkpt>
      <trkpt lat="48.23109" lon="4.06543">
        <ele>119.624224</ele>
        <time>2024-03-14T11:59:07.068Z</time>
      </trkpt>
      <trkpt lat="48.23103" lon="4.06509">
        <ele>119.559615</ele>
        <time>2024-03-14T11:59:15.408Z</time>
      </trkpt>
      <trkpt lat="48.23091" lon="4.06467">
        <ele>119.477021</ele>
        <time>2024-03-14T11:59:26.195Z</time>
      </trkpt>
      <trkpt lat="48.23041" lon="4.06335">
        <ele>119.500217</ele>
        <time>2024-03-14T12:00:03.682Z</time>
      </trkpt>
      <trkpt lat="48.23036" lon="4.06355">
        <ele>119.517224</ele>
        <time>2024-03-14T12:00:09.002Z</time>
      </trkpt>
      <trkpt lat="48.23017" lon="4.06319">
        <ele>119.553196</ele>
        <time>2024-03-14T12:00:15.976Z</time>
      </trkpt>
      <trkpt lat="48.22995" lon="4.06266">
        <ele>119.603498</ele>
        <time>2024-03-14T12:00:25.685Z</time>
      </trkpt>
      <trkpt lat="48.22943" lon="4.06108">
        <ele>120.020517</ele>
        <time>2024-03-14T12:00:55.132Z</time>
      </trkpt>
      <trkpt lat="48.22919" lon="4.06036">
        <ele>120.22975</ele>
        <time>2024-03-14T12:01:08.048Z</time>
      </trkpt>
      <trkpt lat="48.22899" lon="4.05969">
        <ele>120.339881</ele>
        <time>2024-03-14T12:01:19.598Z</time>
      </trkpt>
      <trkpt lat="48.22886" lon="4.05912">
        <ele>120.353878</ele>
        <time>2024-03-14T12:01:28.658Z</time>
      </trkpt>
      <trkpt lat="48.2284" lon="4.057">
        <ele>120.33045</ele>
        <time>2024-03-14T12:02:01.260Z</time>
      </trkpt>
      <trkpt lat="48.22835" lon="4.05666">
        <ele>120.283451</ele>
        <time>2024-03-14T12:02:06.290Z</time>
      </trkpt>
      <trkpt lat="48.22841" lon="4.05659">
        <ele>120.268854</ele>
        <time>2024-03-14T12:02:07.917Z</time>
      </trkpt>
      <trkpt lat="48.22843" lon="4.05649">
        <ele>120.254102</ele>
        <time>2024-03-14T12:02:09.506Z</time>
      </trkpt>
      <trkpt lat="48.22838" lon="4.05635">
        <ele>120.233181</ele>
        <time>2024-03-14T12:02:11.736Z</time>
      </trkpt>
      <trkpt lat="48.22831" lon="4.05631">
        <ele>120.218276</ele>
        <time>2024-03-14T12:02:13.334Z</time>
      </trkpt>
      <trkpt lat="48.22826" lon="4.05633">
        <ele>120.208274</ele>
        <time>2024-03-14T12:02:14.421Z</time>
      </trkpt>
      <trkpt lat="48.22821" lon="4.0564">
        <ele>120.193691</ele>
        <time>2024-03-14T12:02:16.064Z</time>
      </trkpt>
      <trkpt lat="48.2282" lon="4.05646">
        <ele>120.185118</ele>
        <time>2024-03-14T12:02:16.975Z</time>
      </trkpt>
      <trkpt lat="48.22822" lon="4.0566">
        <ele>120.166603</ele>
        <time>2024-03-14T12:02:18.939Z</time>
      </trkpt>
      <trkpt lat="48.22812" lon="4.05667">
        <ele>120.145371</ele>
        <time>2024-03-14T12:02:22.810Z</time>
      </trkpt>
      <trkpt lat="48.2281" lon="4.05673">
        <ele>120.135746</ele>
        <time>2024-03-14T12:02:24.595Z</time>
      </trkpt>
      <trkpt lat="48.2281" lon="4.05684">
        <ele>120.120859</ele>
        <time>2024-03-14T12:02:27.351Z</time>
      </trkpt>
      <trkpt lat="48.22813" lon="4.05697">
        <ele>120.102895</ele>
        <time>2024-03-14T12:02:30.630Z</time>
      </trkpt>
      <trkpt lat="48.22828" lon="4.05727">
        <ele>120.052869</ele>
        <time>2024-03-14T12:02:39.788Z</time>
      </trkpt>
      <trkpt lat="48.22838" lon="4.05755">
        <ele>120.0136</ele>
        <time>2024-03-14T12:02:47.456Z</time>
      </trkpt>
      <trkpt lat="48.22877" lon="4.05983">
        <ele>119.735614</ele>
        <time>2024-03-14T12:03:44.700Z</time>
      </trkpt>
      <trkpt lat="48.22893" lon="4.06057">
        <ele>119.825765</ele>
        <time>2024-03-14T12:04:03.641Z</time>
      </trkpt>
      <trkpt lat="48.22894" lon="4.0608">
        <ele>119.867831</ele>
        <time>2024-03-14T12:04:09.604Z</time>
      </trkpt>
      <trkpt lat="48.22887" lon="4.06106">
        <ele>119.917077</ele>
        <time>2024-03-14T12:04:16.644Z</time>
      </trkpt>
      <trkpt lat="48.22836" lon="4.06244">
        <ele>120.197157</ele>
        <time>2024-03-14T12:04:57.481Z</time>
      </trkpt>
      <trkpt lat="48.22806" lon="4.0631">
        <ele>120.801857</ele>
        <time>2024-03-14T12:05:19.099Z</time>
      </trkpt>
      <trkpt lat="48.22804" lon="4.06313">
        <ele>120.835697</ele>
        <time>2024-03-14T12:05:20.360Z</time>
      </trkpt>
      <trkpt lat="48.22757" lon="4.06441">
        <ele>121.935052</ele>
        <time>2024-03-14T12:06:02.949Z</time>
      </trkpt>
      <trkpt lat="48.22751" lon="4.06466">
        <ele>122.134272</ele>
        <time>2024-03-14T12:06:08.701Z</time>
      </trkpt>
      <trkpt lat="48.22743" lon="4.06507">
        <ele>122.509532</ele>
        <time>2024-03-14T12:06:18.100Z</time>
      </trkpt>
      <trkpt lat="48.22732" lon="4.06541">
        <ele>122.860677</ele>
        <time>2024-03-14T12:06:26.280Z</time>
      </trkpt>
      <trkpt lat="48.22687" lon="4.06656">
        <ele>124.100928</ele>
        <time>2024-03-14T12:06:54.835Z</time>
      </trkpt>
      <trkpt lat="48.2263" lon="4.06841">
        <ele>125.281261</ele>
        <time>2024-03-14T12:07:35.406Z</time>
      </trkpt>
      <trkpt lat="48.22548" lon="4.07163">
        <ele>125.978737</ele>
        <time>2024-03-14T12:08:33.574Z</time>
      </trkpt>
      <trkpt lat="48.22456" lon="4.07553">
        <ele>125.972384</ele>
        <time>2024-03-14T12:09:42.764Z</time>
      </trkpt>
      <trkpt lat="48.22406" lon="4.07852">
        <ele>125.26792</ele>
        <time>2024-03-14T12:10:31.006Z</time>
      </trkpt>
      <trkpt lat="48.22393" lon="4.07885">
        <ele>125.165762</ele>
        <time>2024-03-14T12:10:36.886Z</time>
      </trkpt>
      <trkpt lat="48.22355" lon="4.07966">
        <ele>124.899302</ele>
        <time>2024-03-14T12:10:52.440Z</time>
      </trkpt>
      <trkpt lat="48.22345" lon="4.07971">
        <ele>124.874216</ele>
        <time>2024-03-14T12:10:55.095Z</time>
      </trkpt>
      <trkpt lat="48.22337" lon="4.07969">
        <ele>124.880107</ele>
        <time>2024-03-14T12:10:57.024Z</time>
      </trkpt>
      <trkpt lat="48.21999" lon="4.0768">
        <ele>125.587551</ele>
        <time>2024-03-14T12:12:36.401Z</time>
      </trkpt>
      <trkpt lat="48.21981" lon="4.07686">
        <ele>125.694169</ele>
        <time>2024-03-14T12:12:41.603Z</time>
      </trkpt>
      <trkpt lat="48.21936" lon="4.07712">
        <ele>125.966956</ele>
        <time>2024-03-14T12:12:54.929Z</time>
      </trkpt>
      <trkpt lat="48.21925" lon="4.07716">
        <ele>126.031186</ele>
        <time>2024-03-14T12:12:57.834Z</time>
      </trkpt>
      <trkpt lat="48.21877" lon="4.07625">
        <ele>126.527332</ele>
        <time>2024-03-14T12:13:29.667Z</time>
      </trkpt>
      <trkpt lat="48.21868" lon="4.07612">
        <ele>126.635624</ele>
        <time>2024-03-14T12:13:34.683Z</time>
      </trkpt>
      <trkpt lat="48.21785" lon="4.07543">
        <ele>127.472288</ele>
        <time>2024-03-14T12:14:13.678Z</time>
      </trkpt>
      <trkpt lat="48.21757" lon="4.07526">
        <ele>127.744901</ele>
        <time>2024-03-14T12:14:26.499Z</time>
      </trkpt>
      <trkpt lat="48.21733" lon="4.07497">
        <ele>128.035845</ele>
        <time>2024-03-14T12:14:39.201Z</time>
      </trkpt>
      <trkpt lat="48.21269" lon="4.07104">
        <ele>135.079015</ele>
        <time>2024-03-14T12:18:32.047Z</time>
      </trkpt>
      <trkpt lat="48.21222" lon="4.07067">
        <ele>135.757965</ele>
        <time>2024-03-14T12:18:56.435Z</time>
      </trkpt>
      <trkpt lat="48.21163" lon="4.07037">
        <ele>136.539121</ele>
        <time>2024-03-14T12:19:23.807Z</time>
      </trkpt>
      <trkpt lat="48.21143" lon="4.07062">
        <ele>136.867864</ele>
        <time>2024-03-14T12:19:35.079Z</time>
      </trkpt>
      <trkpt lat="48.21125" lon="4.07091">
        <ele>137.204739</ele>
        <time>2024-03-14T12:19:46.427Z</time>
      </trkpt>
      <trkpt lat="48.21048" lon="4.07235">
        <ele>137.305387</ele>
        <time>2024-03-14T12:20:33.850Z</time>
      </trkpt>
      <trkpt lat="48.21025" lon="4.07292">
        <ele>137.273384</ele>
        <time>2024-03-14T12:20:49.392Z</time>
      </trkpt>
      <trkpt lat="48.21" lon="4.0738">
        <ele>136.828423</ele>
        <time>2024-03-14T12:21:11.836Z</time>
      </trkpt>
      <trkpt lat="48.2095" lon="4.07491">
        <ele>135.807527</ele>
        <time>2024-03-14T12:21:42.621Z</time>
      </trkpt>
      <trkpt lat="48.20907" lon="4.07625">
        <ele>134.350876</ele>
        <time>2024-03-14T12:22:15.355Z</time>
      </trkpt>
      <trkpt lat="48.20851" lon="4.07751">
        <ele>132.46629</ele>
        <time>2024-03-14T12:22:48.532Z</time>
      </trkpt>
      <trkpt lat="48.20809" lon="4.07856">
        <ele>130.855183</ele>
        <time>2024-03-14T12:23:14.836Z</time>
      </trkpt>
      <trkpt lat="48.20737" lon="4.08037">
        <ele>128.050836</ele>
        <time>2024-03-14T12:23:41.633Z</time>
      </trkpt>
      <trkpt lat="48.20668" lon="4.08197">
        <ele>126.261648</ele>
        <time>2024-03-14T12:24:06.867Z</time>
      </trkpt>
      <trkpt lat="48.2063" lon="4.08297">
        <ele>125.561608</ele>
        <time>2024-03-14T12:24:23.195Z</time>
      </trkpt>
      <trkpt lat="48.20623" lon="4.08318">
        <ele>125.519785</ele>
        <time>2024-03-14T12:24:26.670Z</time>
      </trkpt>
      <trkpt lat="48.20606" lon="4.08352">
        <ele>125.444309</ele>
        <time>2024-03-14T12:24:33.147Z</time>
      </trkpt>
      <trkpt lat="48.20541" lon="4.08447">
        <ele>125.203223</ele>
        <time>2024-03-14T12:24:54.099Z</time>
      </trkpt>
      <trkpt lat="48.20517" lon="4.08496">
        <ele>125.131334</ele>
        <time>2024-03-14T12:25:03.089Z</time>
      </trkpt>
      <trkpt lat="48.20503" lon="4.08531">
        <ele>125.095406</ele>
        <time>2024-03-14T12:25:08.781Z</time>
      </trkpt>
      <trkpt lat="48.20452" lon="4.08682">
        <ele>124.94268</ele>
        <time>2024-03-14T12:25:33.643Z</time>
      </trkpt>
      <trkpt lat="48.20446" lon="4.08696">
        <ele>124.927574</ele>
        <time>2024-03-14T12:25:36.069Z</time>
      </trkpt>
      <trkpt lat="48.20435" lon="4.08711">
        <ele>124.844614</ele>
        <time>2024-03-14T12:25:39.695Z</time>
      </trkpt>
      <trkpt lat="48.20419" lon="4.08725">
        <ele>124.740907</ele>
        <time>2024-03-14T12:25:43.472Z</time>
      </trkpt>
      <trkpt lat="48.20372" lon="4.08759">
        <ele>124.449772</ele>
        <time>2024-03-14T12:25:54.204Z</time>
      </trkpt>
      <trkpt lat="48.20355" lon="4.08775">
        <ele>124.336714</ele>
        <time>2024-03-14T12:25:58.168Z</time>
      </trkpt>
      <trkpt lat="48.2032" lon="4.08817">
        <ele>124.088573</ele>
        <time>2024-03-14T12:26:07.159Z</time>
      </trkpt>
      <trkpt lat="48.2032" lon="4.08817">
        <ele>124.088573</ele>
        <time>2024-03-14T12:26:07.186Z</time>
      </trkpt>
      <trkpt lat="48.2032" lon="4.08817">
        <ele>124.088573</ele>
        <time>2024-03-14T12:26:07.186Z</time>
      </trkpt>
      <trkpt lat="48.20279" lon="4.08752">
        <ele>123.952073</ele>
        <time>2024-03-14T12:26:22.533Z</time>
      </trkpt>
      <trkpt lat="48.20238" lon="4.08687">
        <ele>124.008715</ele>
        <time>2024-03-14T12:26:37.897Z</time>
      </trkpt>
      <trkpt lat="48.20195" lon="4.08652">
        <ele>124.055703</ele>
        <time>2024-03-14T12:26:50.642Z</time>
      </trkpt>
      <trkpt lat="48.20152" lon="4.08616">
        <ele>124.257044</ele>
        <time>2024-03-14T12:27:03.379Z</time>
      </trkpt>
      <trkpt lat="48.20097" lon="4.08658">
        <ele>125.526586</ele>
        <time>2024-03-14T12:27:19.334Z</time>
      </trkpt>
      <trkpt lat="48.2004" lon="4.08709">
        <ele>126.882321</ele>
        <time>2024-03-14T12:27:43.305Z</time>
      </trkpt>
      <trkpt lat="48.19972" lon="4.0875">
        <ele>128.293359</ele>
        <time>2024-03-14T12:28:09.180Z</time>
      </trkpt>
      <trkpt lat="48.19965" lon="4.08763">
        <ele>128.481832</ele>
        <time>2024-03-14T12:28:13.161Z</time>
      </trkpt>
      <trkpt lat="48.19951" lon="4.08744">
        <ele>128.805521</ele>
        <time>2024-03-14T12:28:19.560Z</time>
      </trkpt>
      <trkpt lat="48.19924" lon="4.08717">
        <ele>129.339778</ele>
        <time>2024-03-14T12:28:29.954Z</time>
      </trkpt>
      <trkpt lat="48.19875" lon="4.08673">
        <ele>130.300031</ele>
        <time>2024-03-14T12:28:47.415Z</time>
      </trkpt>
      <trkpt lat="48.19856" lon="4.08654">
        <ele>130.689655</ele>
        <time>2024-03-14T12:28:53.565Z</time>
      </trkpt>
      <trkpt lat="48.19834" lon="4.0863">
        <ele>130.718504</ele>
        <time>2024-03-14T12:29:00.219Z</time>
      </trkpt>
      <trkpt lat="48.19752" lon="4.08699">
        <ele>130.231158</ele>
        <time>2024-03-14T12:29:21.162Z</time>
      </trkpt>
      <trkpt lat="48.19651" lon="4.08752">
        <ele>129.071139</ele>
        <time>2024-03-14T12:29:42.786Z</time>
      </trkpt>
      <trkpt lat="48.19581" lon="4.08797">
        <ele>127.529136</ele>
        <time>2024-03-14T12:29:57.228Z</time>
      </trkpt>
      <trkpt lat="48.19417" lon="4.08904">
        <ele>124.373239</ele>
        <time>2024-03-14T12:30:54.817Z</time>
      </trkpt>
      <trkpt lat="48.19386" lon="4.08919">
        <ele>123.83402</ele>
        <time>2024-03-14T12:31:06.109Z</time>
      </trkpt>
      <trkpt lat="48.19309" lon="4.08942">
        <ele>123.102006</ele>
        <time>2024-03-14T12:31:33.660Z</time>
      </trkpt>
      <trkpt lat="48.19278" lon="4.08956">
        <ele>122.9519</ele>
        <time>2024-03-14T12:31:45.275Z</time>
      </trkpt>
      <trkpt lat="48.1922" lon="4.09021">
        <ele>122.616865</ele>
        <time>2024-03-14T12:32:11.625Z</time>
      </trkpt>
      <trkpt lat="48.19181" lon="4.09069">
        <ele>122.447147</ele>
        <time>2024-03-14T12:32:29.789Z</time>
      </trkpt>
      <trkpt lat="48.19105" lon="4.09157">
        <ele>122.279298</ele>
        <time>2024-03-14T12:33:04.526Z</time>
      </trkpt>
      <trkpt lat="48.19071" lon="4.09189">
        <ele>122.209033</ele>
        <time>2024-03-14T12:33:19.221Z</time>
      </trkpt>
      <trkpt lat="48.19062" lon="4.09194">
        <ele>122.193044</ele>
        <time>2024-03-14T12:33:22.619Z</time>
      </trkpt>
      <trkpt lat="48.19029" lon="4.09199">
        <ele>122.218187</ele>
        <time>2024-03-14T12:33:35.282Z</time>
      </trkpt>
      <trkpt lat="48.18991" lon="4.09217">
        <ele>122.307649</ele>
        <time>2024-03-14T12:33:51.100Z</time>
      </trkpt>
      <trkpt lat="48.18888" lon="4.09308">
        <ele>122.570803</ele>
        <time>2024-03-14T12:34:37.835Z</time>
      </trkpt>
      <trkpt lat="48.18862" lon="4.09323">
        <ele>122.400044</ele>
        <time>2024-03-14T12:34:47.735Z</time>
      </trkpt>
      <trkpt lat="48.18816" lon="4.09341">
        <ele>122.110661</ele>
        <time>2024-03-14T12:35:04.514Z</time>
      </trkpt>
      <trkpt lat="48.1876" lon="4.09397">
        <ele>121.697912</ele>
        <time>2024-03-14T12:35:28.112Z</time>
      </trkpt>
      <trkpt lat="48.18735" lon="4.09413">
        <ele>121.528454</ele>
        <time>2024-03-14T12:35:37.649Z</time>
      </trkpt>
      <trkpt lat="48.18703" lon="4.09428">
        <ele>121.309561</ele>
        <time>2024-03-14T12:35:48.980Z</time>
      </trkpt>
      <trkpt lat="48.18627" lon="4.09515">
        <ele>120.656874</ele>
        <time>2024-03-14T12:36:22.063Z</time>
      </trkpt>
      <trkpt lat="48.18621" lon="4.09524">
        <ele>120.598657</ele>
        <time>2024-03-14T12:36:25.077Z</time>
      </trkpt>
      <trkpt lat="48.1862" lon="4.0953">
        <ele>120.568442</ele>
        <time>2024-03-14T12:36:26.656Z</time>
      </trkpt>
      <trkpt lat="48.18623" lon="4.09539">
        <ele>120.522544</ele>
        <time>2024-03-14T12:36:29.112Z</time>
      </trkpt>
      <trkpt lat="48.18624" lon="4.09548">
        <ele>120.478311</ele>
        <time>2024-03-14T12:36:31.496Z</time>
      </trkpt>
      <trkpt lat="48.18621" lon="4.09558">
        <ele>120.428816</ele>
        <time>2024-03-14T12:36:34.211Z</time>
      </trkpt>
      <trkpt lat="48.18569" lon="4.09652">
        <ele>120.231919</ele>
        <time>2024-03-14T12:37:03.978Z</time>
      </trkpt>
      <trkpt lat="48.18495" lon="4.09632">
        <ele>120.212885</ele>
        <time>2024-03-14T12:37:31.742Z</time>
      </trkpt>
      <trkpt lat="48.18413" lon="4.09618">
        <ele>120.21397</ele>
        <time>2024-03-14T12:38:02.540Z</time>
      </trkpt>
      <trkpt lat="48.18334" lon="4.09599">
        <ele>120.249015</ele>
        <time>2024-03-14T12:38:32.409Z</time>
      </trkpt>
      <trkpt lat="48.18252" lon="4.09547">
        <ele>120.320289</ele>
        <time>2024-03-14T12:39:05.844Z</time>
      </trkpt>
      <trkpt lat="48.18191" lon="4.09463">
        <ele>120.48108</ele>
        <time>2024-03-14T12:39:37.085Z</time>
      </trkpt>
      <trkpt lat="48.18079" lon="4.09214">
        <ele>120.960763</ele>
        <time>2024-03-14T12:40:53.916Z</time>
      </trkpt>
      <trkpt lat="48.1801" lon="4.09108">
        <ele>121.199564</ele>
        <time>2024-03-14T12:41:31.839Z</time>
      </trkpt>
      <trkpt lat="48.17929" lon="4.08929">
        <ele>121.499811</ele>
        <time>2024-03-14T12:42:26.999Z</time>
      </trkpt>
      <trkpt lat="48.17916" lon="4.08876">
        <ele>121.57577</ele>
        <time>2024-03-14T12:42:40.914Z</time>
      </trkpt>
      <trkpt lat="48.17902" lon="4.08846">
        <ele>121.626122</ele>
        <time>2024-03-14T12:42:50.322Z</time>
      </trkpt>
      <trkpt lat="48.17834" lon="4.0875">
        <ele>121.817727</ele>
        <time>2024-03-14T12:43:26.293Z</time>
      </trkpt>
      <trkpt lat="48.1783" lon="4.08737">
        <ele>121.837065</ele>
        <time>2024-03-14T12:43:29.745Z</time>
      </trkpt>
      <trkpt lat="48.17863" lon="4.08732">
        <ele>121.971125</ele>
        <time>2024-03-14T12:43:37.156Z</time>
      </trkpt>
      <trkpt lat="48.17885" lon="4.08723">
        <ele>122.075</ele>
        <time>2024-03-14T12:43:42.287Z</time>
      </trkpt>
      <trkpt lat="48.17901" lon="4.08705">
        <ele>122.169141</ele>
        <time>2024-03-14T12:43:46.860Z</time>
      </trkpt>
      <trkpt lat="48.17901" lon="4.08705">
        <ele>122.169452</ele>
        <time>2024-03-14T12:43:46.872Z</time>
      </trkpt>
      <trkpt lat="48.17908" lon="4.08693">
        <ele>122.21939</ele>
        <time>2024-03-14T12:43:49.547Z</time>
      </trkpt>
      <trkpt lat="48.17925" lon="4.08651">
        <ele>122.374894</ele>
        <time>2024-03-14T12:43:58.000Z</time>
      </trkpt>
      <trkpt lat="48.1793" lon="4.08639">
        <ele>122.41771</ele>
        <time>2024-03-14T12:44:00.579Z</time>
      </trkpt>
      <trkpt lat="48.17951" lon="4.08588">
        <ele>122.60172</ele>
        <time>2024-03-14T12:44:10.978Z</time>
      </trkpt>
      <trkpt lat="48.17969" lon="4.0856">
        <ele>122.740963</ele>
        <time>2024-03-14T12:44:17.734Z</time>
      </trkpt>
      <trkpt lat="48.17996" lon="4.08536">
        <ele>122.957741</ele>
        <time>2024-03-14T12:44:25.435Z</time>
      </trkpt>
      <trkpt lat="48.18047" lon="4.08514">
        <ele>123.323018</ele>
        <time>2024-03-14T12:44:38.733Z</time>
      </trkpt>
      <trkpt lat="48.17987" lon="4.08411">
        <ele>123.938631</ele>
        <time>2024-03-14T12:45:16.037Z</time>
      </trkpt>
      <trkpt lat="48.17975" lon="4.08384">
        <ele>123.987541</ele>
        <time>2024-03-14T12:45:25.006Z</time>
      </trkpt>
      <trkpt lat="48.1797" lon="4.08352">
        <ele>124.03681</ele>
        <time>2024-03-14T12:45:33.632Z</time>
      </trkpt>
      <trkpt lat="48.17975" lon="4.08314">
        <ele>124.093803</ele>
        <time>2024-03-14T12:45:43.251Z</time>
      </trkpt>
      <trkpt lat="48.17994" lon="4.08265">
        <ele>124.177567</ele>
        <time>2024-03-14T12:45:57.119Z</time>
      </trkpt>
      <trkpt lat="48.1811" lon="4.08007">
        <ele>124.716108</ele>
        <time>2024-03-14T12:47:14.822Z</time>
      </trkpt>
      <trkpt lat="48.18123" lon="4.0799">
        <ele>124.764113</ele>
        <time>2024-03-14T12:47:21.733Z</time>
      </trkpt>
      <trkpt lat="48.18145" lon="4.07969">
        <ele>124.840719</ele>
        <time>2024-03-14T12:47:32.295Z</time>
      </trkpt>
      <trkpt lat="48.18218" lon="4.07924">
        <ele>125.873618</ele>
        <time>2024-03-14T12:48:06.205Z</time>
      </trkpt>
      <trkpt lat="48.18191" lon="4.07802">
        <ele>127.00266</ele>
        <time>2024-03-14T12:48:45.321Z</time>
      </trkpt>
      <trkpt lat="48.18189" lon="4.07726">
        <ele>127.503411</ele>
        <time>2024-03-14T12:49:07.927Z</time>
      </trkpt>
      <trkpt lat="48.18192" lon="4.07652">
        <ele>127.929617</ele>
        <time>2024-03-14T12:49:29.144Z</time>
      </trkpt>
      <trkpt lat="48.18173" lon="4.07581">
        <ele>128.369235</ele>
        <time>2024-03-14T12:49:49.882Z</time>
      </trkpt>
      <trkpt lat="48.18105" lon="4.07456">
        <ele>128.61342</ele>
        <time>2024-03-14T12:50:29.764Z</time>
      </trkpt>
      <trkpt lat="48.18049" lon="4.07327">
        <ele>128.406302</ele>
        <time>2024-03-14T12:51:06.623Z</time>
      </trkpt>
      <trkpt lat="48.17929" lon="4.07003">
        <ele>128.310388</ele>
        <time>2024-03-14T12:52:38.028Z</time>
      </trkpt>
      <trkpt lat="48.17885" lon="4.06879">
        <ele>128.328198</ele>
        <time>2024-03-14T12:53:12.983Z</time>
      </trkpt>
      <trkpt lat="48.17781" lon="4.06968">
        <ele>128.353926</ele>
        <time>2024-03-14T12:53:57.854Z</time>
      </trkpt>
      <trkpt lat="48.17721" lon="4.06951">
        <ele>128.367487</ele>
        <time>2024-03-14T12:54:20.451Z</time>
      </trkpt>
      <trkpt lat="48.17684" lon="4.06927">
        <ele>128.356737</ele>
        <time>2024-03-14T12:54:35.271Z</time>
      </trkpt>
      <trkpt lat="48.17626" lon="4.06872">
        <ele>128.228254</ele>
        <time>2024-03-14T12:55:00.551Z</time>
      </trkpt>
      <trkpt lat="48.17614" lon="4.06852">
        <ele>128.194804</ele>
        <time>2024-03-14T12:55:07.036Z</time>
      </trkpt>
      <trkpt lat="48.1754" lon="4.06698">
        <ele>127.941045</ele>
        <time>2024-03-14T12:55:52.817Z</time>
      </trkpt>
      <trkpt lat="48.17488" lon="4.06617">
        <ele>127.77054</ele>
        <time>2024-03-14T12:56:20.334Z</time>
      </trkpt>
      <trkpt lat="48.17465" lon="4.06589">
        <ele>127.703574</ele>
        <time>2024-03-14T12:56:31.054Z</time>
      </trkpt>
      <trkpt lat="48.17444" lon="4.06572">
        <ele>127.649597</ele>
        <time>2024-03-14T12:56:39.693Z</time>
      </trkpt>
      <trkpt lat="48.17421" lon="4.06559">
        <ele>127.659779</ele>
        <time>2024-03-14T12:56:48.420Z</time>
      </trkpt>
      <trkpt lat="48.17397" lon="4.06554">
        <ele>127.704607</ele>
        <time>2024-03-14T12:56:57.658Z</time>
      </trkpt>
      <trkpt lat="48.17317" lon="4.0656">
        <ele>127.848158</ele>
        <time>2024-03-14T12:57:28.927Z</time>
      </trkpt>
      <trkpt lat="48.17267" lon="4.06571">
        <ele>127.940782</ele>
        <time>2024-03-14T12:57:48.142Z</time>
      </trkpt>
      <trkpt lat="48.17234" lon="4.06537">
        <ele>127.998684</ele>
        <time>2024-03-14T12:58:02.928Z</time>
      </trkpt>
      <trkpt lat="48.17187" lon="4.06502">
        <ele>128.069998</ele>
        <time>2024-03-14T12:58:22.879Z</time>
      </trkpt>
      <trkpt lat="48.17108" lon="4.06422">
        <ele>128.198517</ele>
        <time>2024-03-14T12:58:59.299Z</time>
      </trkpt>
      <trkpt lat="48.17055" lon="4.0635">
        <ele>128.223915</ele>
        <time>2024-03-14T12:59:25.744Z</time>
      </trkpt>
      <trkpt lat="48.17045" lon="4.06328">
        <ele>128.229921</ele>
        <time>2024-03-14T12:59:32.369Z</time>
      </trkpt>
      <trkpt lat="48.1701" lon="4.06275">
        <ele>128.246361</ele>
        <time>2024-03-14T12:59:50.613Z</time>
      </trkpt>
      <trkpt lat="48.16984" lon="4.0625">
        <ele>128.256752</ele>
        <time>2024-03-14T13:00:02.231Z</time>
      </trkpt>
      <trkpt lat="48.16844" lon="4.06065">
        <ele>128.533117</ele>
        <time>2024-03-14T13:01:13.267Z</time>
      </trkpt>
      <trkpt lat="48.16798" lon="4.06011">
        <ele>128.534957</ele>
        <time>2024-03-14T13:01:34.977Z</time>
      </trkpt>
      <trkpt lat="48.168" lon="4.05994">
        <ele>128.533987</ele>
        <time>2024-03-14T13:01:37.482Z</time>
      </trkpt>
      <trkpt lat="48.16799" lon="4.05939">
        <ele>128.531027</ele>
        <time>2024-03-14T13:01:45.318Z</time>
      </trkpt>
      <trkpt lat="48.16801" lon="4.05917">
        <ele>128.529775</ele>
        <time>2024-03-14T13:01:48.791Z</time>
      </trkpt>
      <trkpt lat="48.16766" lon="4.05919">
        <ele>128.526914</ele>
        <time>2024-03-14T13:01:56.445Z</time>
      </trkpt>
      <trkpt lat="48.16704" lon="4.0593">
        <ele>128.764379</ele>
        <time>2024-03-14T13:02:10.662Z</time>
      </trkpt>
      <trkpt lat="48.16691" lon="4.05922">
        <ele>128.856474</ele>
        <time>2024-03-14T13:02:14.102Z</time>
      </trkpt>
      <trkpt lat="48.16689" lon="4.05909">
        <ele>128.92</ele>
        <time>2024-03-14T13:02:16.357Z</time>
      </trkpt>
      <trkpt lat="48.16692" lon="4.05665">
        <ele>130.145045</ele>
        <time>2024-03-14T13:02:59.820Z</time>
      </trkpt>
      <trkpt lat="48.16687" lon="4.0565">
        <ele>130.252436</ele>
        <time>2024-03-14T13:03:03.018Z</time>
      </trkpt>
      <trkpt lat="48.16647" lon="4.05566">
        <ele>130.934413</ele>
        <time>2024-03-14T13:03:23.248Z</time>
      </trkpt>
      <trkpt lat="48.16537" lon="4.05434">
        <ele>131.954645</ele>
        <time>2024-03-14T13:03:58.851Z</time>
      </trkpt>
      <trkpt lat="48.16475" lon="4.05359">
        <ele>132.389516</ele>
        <time>2024-03-14T13:04:17.726Z</time>
      </trkpt>
      <trkpt lat="48.16413" lon="4.0525">
        <ele>133.342212</ele>
        <time>2024-03-14T13:04:42.585Z</time>
      </trkpt>
      <trkpt lat="48.16401" lon="4.05238">
        <ele>133.500723</ele>
        <time>2024-03-14T13:04:46.699Z</time>
      </trkpt>
      <trkpt lat="48.16378" lon="4.05228">
        <ele>133.767996</ele>
        <time>2024-03-14T13:04:53.585Z</time>
      </trkpt>
      <trkpt lat="48.16337" lon="4.05233">
        <ele>134.227031</ele>
        <time>2024-03-14T13:05:06.159Z</time>
      </trkpt>
      <trkpt lat="48.16323" lon="4.05239">
        <ele>134.382856</ele>
        <time>2024-03-14T13:05:10.286Z</time>
      </trkpt>
      <trkpt lat="48.16302" lon="4.05257">
        <ele>134.546897</ele>
        <time>2024-03-14T13:05:17.657Z</time>
      </trkpt>
      <trkpt lat="48.16282" lon="4.05292">
        <ele>134.676562</ele>
        <time>2024-03-14T13:05:26.471Z</time>
      </trkpt>
      <trkpt lat="48.16237" lon="4.05377">
        <ele>134.983809</ele>
        <time>2024-03-14T13:05:45.908Z</time>
      </trkpt>
      <trkpt lat="48.16199" lon="4.05463">
        <ele>135.071433</ele>
        <time>2024-03-14T13:06:00.510Z</time>
      </trkpt>
      <trkpt lat="48.16206" lon="4.05532">
        <ele>134.141782</ele>
        <time>2024-03-14T13:06:09.580Z</time>
      </trkpt>
      <trkpt lat="48.16216" lon="4.05595">
        <ele>133.284674</ele>
        <time>2024-03-14T13:06:17.573Z</time>
      </trkpt>
      <trkpt lat="48.16215" lon="4.05623">
        <ele>132.910849</ele>
        <time>2024-03-14T13:06:21.034Z</time>
      </trkpt>
      <trkpt lat="48.16208" lon="4.05648">
        <ele>132.547714</ele>
        <time>2024-03-14T13:06:24.391Z</time>
      </trkpt>
      <trkpt lat="48.16154" lon="4.0579">
        <ele>130.604046</ele>
        <time>2024-03-14T13:06:44.843Z</time>
      </trkpt>
      <trkpt lat="48.16024" lon="4.06001">
        <ele>128.148746</ele>
        <time>2024-03-14T13:07:24.201Z</time>
      </trkpt>
      <trkpt lat="48.15986" lon="4.06079">
        <ele>127.672692</ele>
        <time>2024-03-14T13:07:38.366Z</time>
      </trkpt>
      <trkpt lat="48.1583" lon="4.06437">
        <ele>126.153709</ele>
        <time>2024-03-14T13:08:40.465Z</time>
      </trkpt>
      <trkpt lat="48.15828" lon="4.06443">
        <ele>126.132568</ele>
        <time>2024-03-14T13:08:41.420Z</time>
      </trkpt>
      <trkpt lat="48.15812" lon="4.06491">
        <ele>125.97085</ele>
        <time>2024-03-14T13:08:49.244Z</time>
      </trkpt>
      <trkpt lat="48.15781" lon="4.06692">
        <ele>125.650858</ele>
        <time>2024-03-14T13:09:19.952Z</time>
      </trkpt>
      <trkpt lat="48.15764" lon="4.06775">
        <ele>125.660752</ele>
        <time>2024-03-14T13:09:33.409Z</time>
      </trkpt>
      <trkpt lat="48.15753" lon="4.06818">
        <ele>125.666012</ele>
        <time>2024-03-14T13:09:40.772Z</time>
      </trkpt>
      <trkpt lat="48.15734" lon="4.06849">
        <ele>125.674281</ele>
        <time>2024-03-14T13:09:47.513Z</time>
      </trkpt>
      <trkpt lat="48.1572" lon="4.06861">
        <ele>125.821057</ele>
        <time>2024-03-14T13:09:51.636Z</time>
      </trkpt>
      <trkpt lat="48.15679" lon="4.06884">
        <ele>126.232792</ele>
        <time>2024-03-14T13:10:03.632Z</time>
      </trkpt>
      <trkpt lat="48.15597" lon="4.0693">
        <ele>127.04711</ele>
        <time>2024-03-14T13:10:28.515Z</time>
      </trkpt>
      <trkpt lat="48.15562" lon="4.06951">
        <ele>127.41629</ele>
        <time>2024-03-14T13:10:39.627Z</time>
      </trkpt>
      <trkpt lat="48.15317" lon="4.07155">
        <ele>130.331483</ele>
        <time>2024-03-14T13:12:02.568Z</time>
      </trkpt>
      <trkpt lat="48.14744" lon="4.06507">
        <ele>129.305495</ele>
        <time>2024-03-14T13:14:44.098Z</time>
      </trkpt>
      <trkpt lat="48.14773" lon="4.06459">
        <ele>129.205771</ele>
        <time>2024-03-14T13:14:53.209Z</time>
      </trkpt>
      <trkpt lat="48.14843" lon="4.06395">
        <ele>129.173285</ele>
        <time>2024-03-14T13:15:10.780Z</time>
      </trkpt>
      <trkpt lat="48.14889" lon="4.06317">
        <ele>129.233981</ele>
        <time>2024-03-14T13:15:26.344Z</time>
      </trkpt>
      <trkpt lat="48.1488" lon="4.06308">
        <ele>129.243422</ele>
        <time>2024-03-14T13:15:30.504Z</time>
      </trkpt>
      <trkpt lat="48.1471" lon="4.06316">
        <ele>129.996993</ele>
        <time>2024-03-14T13:16:38.264Z</time>
      </trkpt>
      <trkpt lat="48.1471" lon="4.06316">
        <ele>129.996993</ele>
        <time>2024-03-14T13:16:38.264Z</time>
      </trkpt>
      <trkpt lat="48.14619" lon="4.06316">
        <ele>130.550994</ele>
        <time>2024-03-14T13:17:15.380Z</time>
      </trkpt>
      <trkpt lat="48.14456" lon="4.06302">
        <ele>131.585502</ele>
        <time>2024-03-14T13:18:21.340Z</time>
      </trkpt>
      <trkpt lat="48.14295" lon="4.06274">
        <ele>132.510253</ele>
        <time>2024-03-14T13:19:25.366Z</time>
      </trkpt>
      <trkpt lat="48.14148" lon="4.06236">
        <ele>133.528543</ele>
        <time>2024-03-14T13:20:25.524Z</time>
      </trkpt>
      <trkpt lat="48.13997" lon="4.06184">
        <ele>134.927997</ele>
        <time>2024-03-14T13:21:29.974Z</time>
      </trkpt>
      <trkpt lat="48.13827" lon="4.06108">
        <ele>136.651356</ele>
        <time>2024-03-14T13:22:45.225Z</time>
      </trkpt>
      <trkpt lat="48.13801" lon="4.06121">
        <ele>136.913948</ele>
        <time>2024-03-14T13:22:56.515Z</time>
      </trkpt>
      <trkpt lat="48.13787" lon="4.06124">
        <ele>137.054877</ele>
        <time>2024-03-14T13:23:02.547Z</time>
      </trkpt>
      <trkpt lat="48.13756" lon="4.06089">
        <ele>137.40491</ele>
        <time>2024-03-14T13:23:18.325Z</time>
      </trkpt>
      <trkpt lat="48.135" lon="4.06286">
        <ele>139.837675</ele>
        <time>2024-03-14T13:24:34.733Z</time>
      </trkpt>
      <trkpt lat="48.13449" lon="4.06114">
        <ele>140.664423</ele>
        <time>2024-03-14T13:25:07.025Z</time>
      </trkpt>
      <trkpt lat="48.13438" lon="4.06063">
        <ele>140.859693</ele>
        <time>2024-03-14T13:25:15.783Z</time>
      </trkpt>
      <trkpt lat="48.13433" lon="4.06019">
        <ele>141.022331</ele>
        <time>2024-03-14T13:25:23.034Z</time>
      </trkpt>
      <trkpt lat="48.13433" lon="4.05978">
        <ele>141.173496</ele>
        <time>2024-03-14T13:25:29.762Z</time>
      </trkpt>
      <trkpt lat="48.13438" lon="4.05937">
        <ele>141.356877</ele>
        <time>2024-03-14T13:25:36.458Z</time>
      </trkpt>
      <trkpt lat="48.13438" lon="4.05907">
        <ele>141.511725</ele>
        <time>2024-03-14T13:25:41.316Z</time>
      </trkpt>
      <trkpt lat="48.13436" lon="4.05886">
        <ele>141.62662</ele>
        <time>2024-03-14T13:25:44.918Z</time>
      </trkpt>
      <trkpt lat="48.13429" lon="4.05863">
        <ele>141.756306</ele>
        <time>2024-03-14T13:25:49.024Z</time>
      </trkpt>
      <trkpt lat="48.13418" lon="4.0584">
        <ele>141.907431</ele>
        <time>2024-03-14T13:25:53.960Z</time>
      </trkpt>
      <trkpt lat="48.134" lon="4.05821">
        <ele>142.075948</ele>
        <time>2024-03-14T13:25:59.568Z</time>
      </trkpt>
      <trkpt lat="48.13364" lon="4.05793">
        <ele>142.391741</ele>
        <time>2024-03-14T13:26:10.364Z</time>
      </trkpt>
      <trkpt lat="48.13304" lon="4.05755">
        <ele>143.087135</ele>
        <time>2024-03-14T13:26:28.902Z</time>
      </trkpt>
      <trkpt lat="48.13294" lon="4.05739">
        <ele>143.280804</ele>
        <time>2024-03-14T13:26:33.141Z</time>
      </trkpt>
      <trkpt lat="48.1329" lon="4.05721">
        <ele>143.45303</ele>
        <time>2024-03-14T13:26:36.954Z</time>
      </trkpt>
      <trkpt lat="48.13277" lon="4.05722">
        <ele>143.637753</ele>
        <time>2024-03-14T13:26:43.072Z</time>
      </trkpt>
      <trkpt lat="48.13265" lon="4.05711">
        <ele>143.828726</ele>
        <time>2024-03-14T13:26:49.492Z</time>
      </trkpt>
      <trkpt lat="48.13251" lon="4.05669">
        <ele>144.251886</ele>
        <time>2024-03-14T13:27:03.565Z</time>
      </trkpt>
      <trkpt lat="48.13241" lon="4.05652">
        <ele>144.448747</ele>
        <time>2024-03-14T13:27:10.150Z</time>
      </trkpt>
      <trkpt lat="48.13159" lon="4.05542">
        <ele>145.64697</ele>
        <time>2024-03-14T13:27:57.688Z</time>
      </trkpt>
      <trkpt lat="48.13133" lon="4.05502">
        <ele>145.991793</ele>
        <time>2024-03-14T13:28:13.366Z</time>
      </trkpt>
      <trkpt lat="48.13082" lon="4.05417">
        <ele>146.67831</ele>
        <time>2024-03-14T13:28:43.682Z</time>
      </trkpt>
      <trkpt lat="48.13019" lon="4.05304">
        <ele>147.448259</ele>
        <time>2024-03-14T13:29:23.484Z</time>
      </trkpt>
      <trkpt lat="48.12991" lon="4.05249">
        <ele>147.80293</ele>
        <time>2024-03-14T13:29:42.528Z</time>
      </trkpt>
      <trkpt lat="48.12898" lon="4.05023">
        <ele>149.418798</ele>
        <time>2024-03-14T13:30:57.209Z</time>
      </trkpt>
      <trkpt lat="48.12843" lon="4.04851">
        <ele>150.607601</ele>
        <time>2024-03-14T13:31:49.478Z</time>
      </trkpt>
      <trkpt lat="48.12807" lon="4.04712">
        <ele>151.557111</ele>
        <time>2024-03-14T13:32:30.847Z</time>
      </trkpt>
      <trkpt lat="48.12787" lon="4.04612">
        <ele>152.463509</ele>
        <time>2024-03-14T13:33:02.119Z</time>
      </trkpt>
      <trkpt lat="48.12778" lon="4.0458">
        <ele>152.763212</ele>
        <time>2024-03-14T13:33:12.818Z</time>
      </trkpt>
      <trkpt lat="48.12772" lon="4.04569">
        <ele>152.884687</ele>
        <time>2024-03-14T13:33:17.187Z</time>
      </trkpt>
      <trkpt lat="48.12681" lon="4.04442">
        <ele>153.947327</ele>
        <time>2024-03-14T13:34:09.981Z</time>
      </trkpt>
      <trkpt lat="48.12664" lon="4.04423">
        <ele>154.003973</ele>
        <time>2024-03-14T13:34:18.500Z</time>
      </trkpt>
      <trkpt lat="48.12736" lon="4.04273">
        <ele>154.221168</ele>
        <time>2024-03-14T13:34:46.479Z</time>
      </trkpt>
      <trkpt lat="48.12775" lon="4.04208">
        <ele>154.037355</ele>
        <time>2024-03-14T13:34:59.089Z</time>
      </trkpt>
      <trkpt lat="48.12787" lon="4.04187">
        <ele>153.977066</ele>
        <time>2024-03-14T13:35:03.277Z</time>
      </trkpt>
      <trkpt lat="48.12804" lon="4.04022">
        <ele>153.58767</ele>
        <time>2024-03-14T13:35:43.771Z</time>
      </trkpt>
      <trkpt lat="48.12836" lon="4.036">
        <ele>151.95991</ele>
        <time>2024-03-14T13:37:24.688Z</time>
      </trkpt>
      <trkpt lat="48.1284" lon="4.03588">
        <ele>151.895325</ele>
        <time>2024-03-14T13:37:27.748Z</time>
      </trkpt>
      <trkpt lat="48.13023" lon="4.03582">
        <ele>150.393699</ele>
        <time>2024-03-14T13:38:03.745Z</time>
      </trkpt>
      <trkpt lat="48.13024" lon="4.03542">
        <ele>150.167704</ele>
        <time>2024-03-14T13:38:09.361Z</time>
      </trkpt>
      <trkpt lat="48.13028" lon="4.0352">
        <ele>150.101637</ele>
        <time>2024-03-14T13:38:12.547Z</time>
      </trkpt>
      <trkpt lat="48.13034" lon="4.03503">
        <ele>150.175112</ele>
        <time>2024-03-14T13:38:15.352Z</time>
      </trkpt>
      <trkpt lat="48.13108" lon="4.03372">
        <ele>150.842461</ele>
        <time>2024-03-14T13:38:44.751Z</time>
      </trkpt>
      <trkpt lat="48.13113" lon="4.03338">
        <ele>150.977468</ele>
        <time>2024-03-14T13:38:51.112Z</time>
      </trkpt>
      <trkpt lat="48.13109" lon="4.03298">
        <ele>151.136324</ele>
        <time>2024-03-14T13:38:58.433Z</time>
      </trkpt>
      <trkpt lat="48.1308" lon="4.03152">
        <ele>151.890037</ele>
        <time>2024-03-14T13:39:26.651Z</time>
      </trkpt>
      <trkpt lat="48.13077" lon="4.03112">
        <ele>152.086305</ele>
        <time>2024-03-14T13:39:33.691Z</time>
      </trkpt>
      <trkpt lat="48.13083" lon="4.0307">
        <ele>152.301007</ele>
        <time>2024-03-14T13:39:40.938Z</time>
      </trkpt>
      <trkpt lat="48.13104" lon="4.02983">
        <ele>152.058231</ele>
        <time>2024-03-14T13:39:54.507Z</time>
      </trkpt>
      <trkpt lat="48.13154" lon="4.0298">
        <ele>151.576681</ele>
        <time>2024-03-14T13:40:05.020Z</time>
      </trkpt>
      <trkpt lat="48.1317" lon="4.02983">
        <ele>151.421544</ele>
        <time>2024-03-14T13:40:08.291Z</time>
      </trkpt>
      <trkpt lat="48.1322" lon="4.03023">
        <ele>150.880832</ele>
        <time>2024-03-14T13:40:19.448Z</time>
      </trkpt>
      <trkpt lat="48.13259" lon="4.03059">
        <ele>150.576197</ele>
        <time>2024-03-14T13:40:28.522Z</time>
      </trkpt>
      <trkpt lat="48.13298" lon="4.031">
        <ele>150.341104</ele>
        <time>2024-03-14T13:40:37.938Z</time>
      </trkpt>
      <trkpt lat="48.13321" lon="4.03113">
        <ele>150.217081</ele>
        <time>2024-03-14T13:40:43.099Z</time>
      </trkpt>
      <trkpt lat="48.1334" lon="4.03112">
        <ele>150.119582</ele>
        <time>2024-03-14T13:40:47.372Z</time>
      </trkpt>
      <trkpt lat="48.1339" lon="4.03077">
        <ele>149.843292</ele>
        <time>2024-03-14T13:41:01.140Z</time>
      </trkpt>
      <trkpt lat="48.13407" lon="4.03079">
        <ele>150.295588</ele>
        <time>2024-03-14T13:41:06.262Z</time>
      </trkpt>
      <trkpt lat="48.13426" lon="4.03088">
        <ele>150.964168</ele>
        <time>2024-03-14T13:41:12.752Z</time>
      </trkpt>
      <trkpt lat="48.13432" lon="4.03095">
        <ele>151.214587</ele>
        <time>2024-03-14T13:41:15.411Z</time>
      </trkpt>
      <trkpt lat="48.13444" lon="4.03136">
        <ele>152.229389</ele>
        <time>2024-03-14T13:41:26.317Z</time>
      </trkpt>
      <trkpt lat="48.13465" lon="4.03172">
        <ele>153.291249</ele>
        <time>2024-03-14T13:41:38.820Z</time>
      </trkpt>
      <trkpt lat="48.13479" lon="4.03213">
        <ele>154.32443</ele>
        <time>2024-03-14T13:41:52.189Z</time>
      </trkpt>
      <trkpt lat="48.13487" lon="4.03221">
        <ele>154.660502</ele>
        <time>2024-03-14T13:41:57.085Z</time>
      </trkpt>
      <trkpt lat="48.13498" lon="4.03224">
        <ele>155.026172</ele>
        <time>2024-03-14T13:42:02.331Z</time>
      </trkpt>
      <trkpt lat="48.13506" lon="4.03223">
        <ele>155.290212</ele>
        <time>2024-03-14T13:42:05.919Z</time>
      </trkpt>
      <trkpt lat="48.13529" lon="4.03214">
        <ele>156.22896</ele>
        <time>2024-03-14T13:42:21.491Z</time>
      </trkpt>
      <trkpt lat="48.13574" lon="4.03204">
        <ele>158.749582</ele>
        <time>2024-03-14T13:42:51.412Z</time>
      </trkpt>
      <trkpt lat="48.13614" lon="4.03196">
        <ele>161.012756</ele>
        <time>2024-03-14T13:43:18.699Z</time>
      </trkpt>
      <trkpt lat="48.13635" lon="4.03187">
        <ele>162.267741</ele>
        <time>2024-03-14T13:43:34.374Z</time>
      </trkpt>
      <trkpt lat="48.1365" lon="4.03176">
        <ele>163.19288</ele>
        <time>2024-03-14T13:43:45.281Z</time>
      </trkpt>
      <trkpt lat="48.13672" lon="4.03153">
        <ele>164.66737</ele>
        <time>2024-03-14T13:44:02.903Z</time>
      </trkpt>
      <trkpt lat="48.13699" lon="4.03119">
        <ele>166.330239</ele>
        <time>2024-03-14T13:44:25.881Z</time>
      </trkpt>
      <trkpt lat="48.13829" lon="4.02923">
        <ele>171.854305</ele>
        <time>2024-03-14T13:46:03.551Z</time>
      </trkpt>
      <trkpt lat="48.13835" lon="4.02918">
        <ele>171.857126</ele>
        <time>2024-03-14T13:46:06.015Z</time>
      </trkpt>
      <trkpt lat="48.13744" lon="4.02916">
        <ele>171.898538</ele>
        <time>2024-03-14T13:46:38.593Z</time>
      </trkpt>
      <trkpt lat="48.13724" lon="4.02918">
        <ele>171.907771</ele>
        <time>2024-03-14T13:46:45.670Z</time>
      </trkpt>
      <trkpt lat="48.13796" lon="4.02804">
        <ele>171.385023</ele>
        <time>2024-03-14T13:47:21.622Z</time>
      </trkpt>
      <trkpt lat="48.13854" lon="4.02718">
        <ele>170.634939</ele>
        <time>2024-03-14T13:47:51.072Z</time>
      </trkpt>
      <trkpt lat="48.1395" lon="4.02618">
        <ele>169.293232</ele>
        <time>2024-03-14T13:48:29.934Z</time>
      </trkpt>
      <trkpt lat="48.13952" lon="4.02607">
        <ele>169.198294</ele>
        <time>2024-03-14T13:48:32.399Z</time>
      </trkpt>
      <trkpt lat="48.13941" lon="4.02573">
        <ele>168.879431</ele>
        <time>2024-03-14T13:48:41.074Z</time>
      </trkpt>
      <trkpt lat="48.13932" lon="4.02523">
        <ele>168.442316</ele>
        <time>2024-03-14T13:48:52.865Z</time>
      </trkpt>
      <trkpt lat="48.13932" lon="4.02508">
        <ele>168.318422</ele>
        <time>2024-03-14T13:48:56.177Z</time>
      </trkpt>
      <trkpt lat="48.13936" lon="4.02489">
        <ele>168.150067</ele>
        <time>2024-03-14T13:49:00.763Z</time>
      </trkpt>
      <trkpt lat="48.13954" lon="4.0249">
        <ele>168.033117</ele>
        <time>2024-03-14T13:49:04.574Z</time>
      </trkpt>
      <trkpt lat="48.13968" lon="4.02486">
        <ele>168.077045</ele>
        <time>2024-03-14T13:49:07.545Z</time>
      </trkpt>
      <trkpt lat="48.14044" lon="4.02468">
        <ele>168.310748</ele>
        <time>2024-03-14T13:49:35.019Z</time>
      </trkpt>
      <trkpt lat="48.14213" lon="4.02457">
        <ele>169.282994</ele>
        <time>2024-03-14T13:50:50.630Z</time>
      </trkpt>
      <trkpt lat="48.1428" lon="4.02455">
        <ele>169.843702</ele>
        <time>2024-03-14T13:51:17.295Z</time>
      </trkpt>
      <trkpt lat="48.14468" lon="4.02168">
        <ele>169.281774</ele>
        <time>2024-03-14T13:52:52.902Z</time>
      </trkpt>
      <trkpt lat="48.14473" lon="4.02163">
        <ele>169.278245</ele>
        <time>2024-03-14T13:52:55.357Z</time>
      </trkpt>
      <trkpt lat="48.14484" lon="4.02168">
        <ele>169.272089</ele>
        <time>2024-03-14T13:52:59.665Z</time>
      </trkpt>
      <trkpt lat="48.14501" lon="4.02191">
        <ele>169.26006</ele>
        <time>2024-03-14T13:53:08.065Z</time>
      </trkpt>
      <trkpt lat="48.14503" lon="4.02197">
        <ele>169.257373</ele>
        <time>2024-03-14T13:53:09.985Z</time>
      </trkpt>
      <trkpt lat="48.14501" lon="4.02228">
        <ele>169.246251</ele>
        <time>2024-03-14T13:53:17.913Z</time>
      </trkpt>
      <trkpt lat="48.14559" lon="4.02275">
        <ele>169.229223</ele>
        <time>2024-03-14T13:53:43.718Z</time>
      </trkpt>
      <trkpt lat="48.14571" lon="4.02276">
        <ele>169.236437</ele>
        <time>2024-03-14T13:53:48.468Z</time>
      </trkpt>
      <trkpt lat="48.14576" lon="4.02271">
        <ele>169.239704</ele>
        <time>2024-03-14T13:53:50.606Z</time>
      </trkpt>
      <trkpt lat="48.14584" lon="4.02245">
        <ele>169.250973</ele>
        <time>2024-03-14T13:53:58.198Z</time>
      </trkpt>
      <trkpt lat="48.14594" lon="4.02239">
        <ele>169.25763</ele>
        <time>2024-03-14T13:54:02.604Z</time>
      </trkpt>
      <trkpt lat="48.14673" lon="4.02289">
        <ele>169.308365</ele>
        <time>2024-03-14T13:54:33.893Z</time>
      </trkpt>
      <trkpt lat="48.14673" lon="4.02289">
        <ele>169.308404</ele>
        <time>2024-03-14T13:54:33.909Z</time>
      </trkpt>
      <trkpt lat="48.14727" lon="4.02311">
        <ele>169.281212</ele>
        <time>2024-03-14T13:54:54.478Z</time>
      </trkpt>
      <trkpt lat="48.1474" lon="4.02311">
        <ele>169.259502</ele>
        <time>2024-03-14T13:54:58.862Z</time>
      </trkpt>
      <trkpt lat="48.14726" lon="4.02262">
        <ele>169.196594</ele>
        <time>2024-03-14T13:55:11.956Z</time>
      </trkpt>
      <trkpt lat="48.14642" lon="4.02115">
        <ele>168.984107</ele>
        <time>2024-03-14T13:55:59.185Z</time>
      </trkpt>
      <trkpt lat="48.1463" lon="4.02101">
        <ele>168.96781</ele>
        <time>2024-03-14T13:56:04.583Z</time>
      </trkpt>
      <trkpt lat="48.14579" lon="4.02057">
        <ele>168.902976</ele>
        <time>2024-03-14T13:56:26.385Z</time>
      </trkpt>
      <trkpt lat="48.14551" lon="4.02041">
        <ele>168.870333</ele>
        <time>2024-03-14T13:56:37.181Z</time>
      </trkpt>
      <trkpt lat="48.14525" lon="4.02029">
        <ele>168.840786</ele>
        <time>2024-03-14T13:56:47.126Z</time>
      </trkpt>
      <trkpt lat="48.14457" lon="4.02009">
        <ele>169.138405</ele>
        <time>2024-03-14T13:57:13.176Z</time>
      </trkpt>
      <trkpt lat="48.14444" lon="4.02001">
        <ele>169.238639</ele>
        <time>2024-03-14T13:57:18.443Z</time>
      </trkpt>
      <trkpt lat="48.14426" lon="4.01958">
        <ele>169.495717</ele>
        <time>2024-03-14T13:57:32.478Z</time>
      </trkpt>
      <trkpt lat="48.14418" lon="4.01927">
        <ele>169.661727</ele>
        <time>2024-03-14T13:57:41.953Z</time>
      </trkpt>
      <trkpt lat="48.144" lon="4.018">
        <ele>170.340862</ele>
        <time>2024-03-14T13:58:19.208Z</time>
      </trkpt>
      <trkpt lat="48.14392" lon="4.01679">
        <ele>171.083765</ele>
        <time>2024-03-14T13:58:53.634Z</time>
      </trkpt>
      <trkpt lat="48.14387" lon="4.01496">
        <ele>172.594464</ele>
        <time>2024-03-14T13:59:25.509Z</time>
      </trkpt>
      <trkpt lat="48.14374" lon="4.01437">
        <ele>173.356692</ele>
        <time>2024-03-14T13:59:38.073Z</time>
      </trkpt>
      <trkpt lat="48.14401" lon="4.01409">
        <ele>173.960175</ele>
        <time>2024-03-14T13:59:48.585Z</time>
      </trkpt>
      <trkpt lat="48.14388" lon="4.0138">
        <ele>174.392009</ele>
        <time>2024-03-14T13:59:57.278Z</time>
      </trkpt>
      <trkpt lat="48.14374" lon="4.01357">
        <ele>174.761192</ele>
        <time>2024-03-14T14:00:04.952Z</time>
      </trkpt>
      <trkpt lat="48.14354" lon="4.01333">
        <ele>175.359418</ele>
        <time>2024-03-14T14:00:15.079Z</time>
      </trkpt>
      <trkpt lat="48.14286" lon="4.01213">
        <ele>178.65269</ele>
        <time>2024-03-14T14:00:57.798Z</time>
      </trkpt>
      <trkpt lat="48.14225" lon="4.01109">
        <ele>181.264922</ele>
        <time>2024-03-14T14:01:45.677Z</time>
      </trkpt>
      <trkpt lat="48.14203" lon="4.01142">
        <ele>181.888915</ele>
        <time>2024-03-14T14:02:00.540Z</time>
      </trkpt>
      <trkpt lat="48.1412" lon="4.01238">
        <ele>184.004652</ele>
        <time>2024-03-14T14:02:48.821Z</time>
      </trkpt>
      <trkpt lat="48.14085" lon="4.01273">
        <ele>184.490552</ele>
        <time>2024-03-14T14:03:07.337Z</time>
      </trkpt>
      <trkpt lat="48.14068" lon="4.01286">
        <ele>184.594935</ele>
        <time>2024-03-14T14:03:15.638Z</time>
      </trkpt>
      <trkpt lat="48.14047" lon="4.01296">
        <ele>184.714091</ele>
        <time>2024-03-14T14:03:24.854Z</time>
      </trkpt>
      <trkpt lat="48.14" lon="4.01309">
        <ele>184.978982</ele>
        <time>2024-03-14T14:03:44.559Z</time>
      </trkpt>
      <trkpt lat="48.13926" lon="4.01343">
        <ele>185.180756</ele>
        <time>2024-03-14T14:04:13.783Z</time>
      </trkpt>
      <trkpt lat="48.13657" lon="4.0148">
        <ele>179.84379</ele>
        <time>2024-03-14T14:05:47.025Z</time>
      </trkpt>
      <trkpt lat="48.13633" lon="4.01508">
        <ele>179.086371</ele>
        <time>2024-03-14T14:05:56.537Z</time>
      </trkpt>
      <trkpt lat="48.13587" lon="4.01579">
        <ele>176.874688</ele>
        <time>2024-03-14T14:06:16.443Z</time>
      </trkpt>
      <trkpt lat="48.13481" lon="4.01772">
        <ele>169.891018</ele>
        <time>2024-03-14T14:07:05.173Z</time>
      </trkpt>
      <trkpt lat="48.13465" lon="4.0179">
        <ele>169.33516</ele>
        <time>2024-03-14T14:07:10.871Z</time>
      </trkpt>
      <trkpt lat="48.1344" lon="4.01759">
        <ele>168.393192</ele>
        <time>2024-03-14T14:07:20.534Z</time>
      </trkpt>
      <trkpt lat="48.13417" lon="4.01739">
        <ele>167.628593</ele>
        <time>2024-03-14T14:07:28.532Z</time>
      </trkpt>
      <trkpt lat="48.13302" lon="4.01659">
        <ele>165.778647</ele>
        <time>2024-03-14T14:08:11.184Z</time>
      </trkpt>
      <trkpt lat="48.13296" lon="4.01658">
        <ele>165.846181</ele>
        <time>2024-03-14T14:08:13.682Z</time>
      </trkpt>
      <trkpt lat="48.13283" lon="4.01666">
        <ele>166.0133</ele>
        <time>2024-03-14T14:08:20.062Z</time>
      </trkpt>
      <trkpt lat="48.13277" lon="4.01666">
        <ele>166.079458</ele>
        <time>2024-03-14T14:08:22.776Z</time>
      </trkpt>
      <trkpt lat="48.13169" lon="4.01525">
        <ele>167.766639</ele>
        <time>2024-03-14T14:09:31.898Z</time>
      </trkpt>
      <trkpt lat="48.13118" lon="4.01587">
        <ele>168.634844</ele>
        <time>2024-03-14T14:09:52.930Z</time>
      </trkpt>
      <trkpt lat="48.13096" lon="4.01622">
        <ele>169.066045</ele>
        <time>2024-03-14T14:10:01.923Z</time>
      </trkpt>
      <trkpt lat="48.13049" lon="4.01725">
        <ele>169.583717</ele>
        <time>2024-03-14T14:10:20.651Z</time>
      </trkpt>
      <trkpt lat="48.13048" lon="4.01728">
        <ele>169.577822</ele>
        <time>2024-03-14T14:10:21.034Z</time>
      </trkpt>
      <trkpt lat="48.12983" lon="4.01869">
        <ele>169.209283</ele>
        <time>2024-03-14T14:10:44.957Z</time>
      </trkpt>
      <trkpt lat="48.12972" lon="4.01882">
        <ele>169.164591</ele>
        <time>2024-03-14T14:10:47.866Z</time>
      </trkpt>
      <trkpt lat="48.12966" lon="4.01914">
        <ele>169.125784</ele>
        <time>2024-03-14T14:10:52.632Z</time>
      </trkpt>
      <trkpt lat="48.12957" lon="4.01926">
        <ele>169.136824</ele>
        <time>2024-03-14T14:10:55.300Z</time>
      </trkpt>
      <trkpt lat="48.12924" lon="4.01998">
        <ele>169.190011</ele>
        <time>2024-03-14T14:11:08.473Z</time>
      </trkpt>
      <trkpt lat="48.12905" lon="4.02046">
        <ele>169.223873</ele>
        <time>2024-03-14T14:11:16.958Z</time>
      </trkpt>
      <trkpt lat="48.12849" lon="4.02217">
        <ele>170.020497</ele>
        <time>2024-03-14T14:11:50.845Z</time>
      </trkpt>
      <trkpt lat="48.12835" lon="4.02247">
        <ele>170.300188</ele>
        <time>2024-03-14T14:11:57.922Z</time>
      </trkpt>
      <trkpt lat="48.12807" lon="4.02286">
        <ele>170.752071</ele>
        <time>2024-03-14T14:12:09.918Z</time>
      </trkpt>
      <trkpt lat="48.128" lon="4.02293">
        <ele>170.851255</ele>
        <time>2024-03-14T14:12:12.689Z</time>
      </trkpt>
      <trkpt lat="48.12761" lon="4.02326">
        <ele>171.367676</ele>
        <time>2024-03-14T14:12:26.327Z</time>
      </trkpt>
      <trkpt lat="48.1269" lon="4.02357">
        <ele>171.706518</ele>
        <time>2024-03-14T14:12:47.725Z</time>
      </trkpt>
      <trkpt lat="48.12645" lon="4.02413">
        <ele>171.963974</ele>
        <time>2024-03-14T14:13:02.203Z</time>
      </trkpt>
      <trkpt lat="48.12625" lon="4.02523">
        <ele>171.99646</ele>
        <time>2024-03-14T14:13:29.224Z</time>
      </trkpt>
      <trkpt lat="48.12624" lon="4.02598">
        <ele>171.66922</ele>
        <time>2024-03-14T14:13:46.782Z</time>
      </trkpt>
      <trkpt lat="48.12619" lon="4.02616">
        <ele>171.584342</ele>
        <time>2024-03-14T14:13:51.316Z</time>
      </trkpt>
      <trkpt lat="48.12558" lon="4.02663">
        <ele>171.140595</ele>
        <time>2024-03-14T14:14:15.101Z</time>
      </trkpt>
      <trkpt lat="48.12513" lon="4.02703">
        <ele>170.886608</ele>
        <time>2024-03-14T14:14:34.062Z</time>
      </trkpt>
      <trkpt lat="48.12467" lon="4.02757">
        <ele>170.66273</ele>
        <time>2024-03-14T14:14:55.577Z</time>
      </trkpt>
      <trkpt lat="48.12446" lon="4.02776">
        <ele>170.57115</ele>
        <time>2024-03-14T14:15:04.386Z</time>
      </trkpt>
      <trkpt lat="48.12437" lon="4.02788">
        <ele>170.525404</ele>
        <time>2024-03-14T14:15:08.730Z</time>
      </trkpt>
      <trkpt lat="48.12435" lon="4.02795">
        <ele>170.506201</ele>
        <time>2024-03-14T14:15:10.540Z</time>
      </trkpt>
      <trkpt lat="48.12431" lon="4.02795">
        <ele>170.492095</ele>
        <time>2024-03-14T14:15:11.386Z</time>
      </trkpt>
      <trkpt lat="48.12414" lon="4.02817">
        <ele>170.406905</ele>
        <time>2024-03-14T14:15:16.381Z</time>
      </trkpt>
      <trkpt lat="48.12384" lon="4.02852">
        <ele>170.15955</ele>
        <time>2024-03-14T14:15:30.146Z</time>
      </trkpt>
      <trkpt lat="48.12328" lon="4.02972">
        <ele>169.206752</ele>
        <time>2024-03-14T14:16:04.024Z</time>
      </trkpt>
      <trkpt lat="48.12294" lon="4.03053">
        <ele>168.583128</ele>
        <time>2024-03-14T14:16:25.451Z</time>
      </trkpt>
      <trkpt lat="48.12288" lon="4.03076">
        <ele>168.37527</ele>
        <time>2024-03-14T14:16:31.006Z</time>
      </trkpt>
      <trkpt lat="48.12287" lon="4.03102">
        <ele>168.153526</ele>
        <time>2024-03-14T14:16:36.766Z</time>
      </trkpt>
      <trkpt lat="48.12289" lon="4.03122">
        <ele>167.974725</ele>
        <time>2024-03-14T14:16:41.409Z</time>
      </trkpt>
      <trkpt lat="48.12293" lon="4.03131">
        <ele>167.883921</ele>
        <time>2024-03-14T14:16:43.768Z</time>
      </trkpt>
      <trkpt lat="48.1208" lon="4.03259">
        <ele>165.439993</ele>
        <time>2024-03-14T14:17:30.568Z</time>
      </trkpt>
      <trkpt lat="48.11915" lon="4.03344">
        <ele>164.924596</ele>
        <time>2024-03-14T14:18:34.166Z</time>
      </trkpt>
      <trkpt lat="48.11867" lon="4.0337">
        <ele>164.975648</ele>
        <time>2024-03-14T14:18:53.633Z</time>
      </trkpt>
      <trkpt lat="48.11852" lon="4.03234">
        <ele>165.647128</ele>
        <time>2024-03-14T14:19:30.640Z</time>
      </trkpt>
      <trkpt lat="48.11836" lon="4.03061">
        <ele>166.880082</ele>
        <time>2024-03-14T14:20:21.728Z</time>
      </trkpt>
      <trkpt lat="48.11834" lon="4.03049">
        <ele>166.960695</ele>
        <time>2024-03-14T14:20:25.418Z</time>
      </trkpt>
      <trkpt lat="48.11826" lon="4.03038">
        <ele>167.061962</ele>
        <time>2024-03-14T14:20:30.037Z</time>
      </trkpt>
      <trkpt lat="48.1182" lon="4.03037">
        <ele>167.11484</ele>
        <time>2024-03-14T14:20:32.474Z</time>
      </trkpt>
      <trkpt lat="48.11807" lon="4.03043">
        <ele>167.241659</ele>
        <time>2024-03-14T14:20:38.648Z</time>
      </trkpt>
      <trkpt lat="48.1174" lon="4.03118">
        <ele>168.031847</ele>
        <time>2024-03-14T14:21:14.666Z</time>
      </trkpt>
      <trkpt lat="48.11718" lon="4.03133">
        <ele>168.260429</ele>
        <time>2024-03-14T14:21:24.847Z</time>
      </trkpt>
      <trkpt lat="48.11607" lon="4.03152">
        <ele>168.309639</ele>
        <time>2024-03-14T14:22:07.031Z</time>
      </trkpt>
      <trkpt lat="48.11527" lon="4.03171">
        <ele>167.997025</ele>
        <time>2024-03-14T14:22:35.581Z</time>
      </trkpt>
      <trkpt lat="48.11499" lon="4.03189">
        <ele>167.846874</ele>
        <time>2024-03-14T14:22:46.260Z</time>
      </trkpt>
      <trkpt lat="48.11451" lon="4.03241">
        <ele>167.379407</ele>
        <time>2024-03-14T14:23:06.309Z</time>
      </trkpt>
      <trkpt lat="48.11419" lon="4.03261">
        <ele>167.100957</ele>
        <time>2024-03-14T14:23:18.379Z</time>
      </trkpt>
      <trkpt lat="48.11404" lon="4.03274">
        <ele>166.961984</ele>
        <time>2024-03-14T14:23:24.443Z</time>
      </trkpt>
      <trkpt lat="48.1138" lon="4.03329">
        <ele>166.613575</ele>
        <time>2024-03-14T14:23:39.745Z</time>
      </trkpt>
      <trkpt lat="48.11364" lon="4.0335">
        <ele>166.47893</ele>
        <time>2024-03-14T14:23:47.412Z</time>
      </trkpt>
      <trkpt lat="48.11271" lon="4.03408">
        <ele>166.663845</ele>
        <time>2024-03-14T14:24:24.747Z</time>
      </trkpt>
      <trkpt lat="48.11242" lon="4.03423">
        <ele>166.72068</ele>
        <time>2024-03-14T14:24:37.084Z</time>
      </trkpt>
      <trkpt lat="48.11221" lon="4.0345">
        <ele>166.770552</ele>
        <time>2024-03-14T14:24:48.082Z</time>
      </trkpt>
      <trkpt lat="48.11156" lon="4.0355">
        <ele>166.816191</ele>
        <time>2024-03-14T14:25:25.746Z</time>
      </trkpt>
      <trkpt lat="48.10559" lon="4.0451">
        <ele>167.189058</ele>
        <time>2024-03-14T14:30:49.115Z</time>
      </trkpt>
      <trkpt lat="48.10559" lon="4.0451">
        <ele>167.189058</ele>
        <time>2024-03-14T14:30:49.120Z</time>
      </trkpt>
      <trkpt lat="48.10386" lon="4.04785">
        <ele>168.304652</ele>
        <time>2024-03-14T14:32:33.857Z</time>
      </trkpt>
      <trkpt lat="48.10377" lon="4.04795">
        <ele>168.335294</ele>
        <time>2024-03-14T14:32:38.268Z</time>
      </trkpt>
      <trkpt lat="48.09891" lon="4.05739">
        <ele>159.241478</ele>
        <time>2024-03-14T14:37:08.794Z</time>
      </trkpt>
      <trkpt lat="48.09583" lon="4.06339">
        <ele>152.42856</ele>
        <time>2024-03-14T14:39:59.027Z</time>
      </trkpt>
      <trkpt lat="48.09677" lon="4.06507">
        <ele>151.453283</ele>
        <time>2024-03-14T14:40:50.086Z</time>
      </trkpt>
      <trkpt lat="48.09831" lon="4.0679">
        <ele>151.072231</ele>
        <time>2024-03-14T14:42:21.856Z</time>
      </trkpt>
      <trkpt lat="48.09877" lon="4.06869">
        <ele>150.551878</ele>
        <time>2024-03-14T14:42:46.732Z</time>
      </trkpt>
      <trkpt lat="48.09877" lon="4.06869">
        <ele>150.551878</ele>
        <time>2024-03-14T14:42:46.745Z</time>
      </trkpt>
      <trkpt lat="48.09931" lon="4.06835">
        <ele>150.113373</ele>
        <time>2024-03-14T14:43:01.996Z</time>
      </trkpt>
      <trkpt lat="48.09995" lon="4.06929">
        <ele>149.023764</ele>
        <time>2024-03-14T14:43:25.132Z</time>
      </trkpt>
      <trkpt lat="48.1006" lon="4.07023">
        <ele>147.801903</ele>
        <time>2024-03-14T14:43:48.287Z</time>
      </trkpt>
      <trkpt lat="48.10124" lon="4.07116">
        <ele>146.824407</ele>
        <time>2024-03-14T14:44:11.422Z</time>
      </trkpt>
      <trkpt lat="48.10188" lon="4.0721">
        <ele>145.926309</ele>
        <time>2024-03-14T14:44:34.556Z</time>
      </trkpt>
      <trkpt lat="48.10252" lon="4.07303">
        <ele>144.972466</ele>
        <time>2024-03-14T14:44:57.691Z</time>
      </trkpt>
      <trkpt lat="48.10219" lon="4.07354">
        <ele>144.462555</ele>
        <time>2024-03-14T14:45:09.815Z</time>
      </trkpt>
      <trkpt lat="48.10264" lon="4.07462">
        <ele>143.849056</ele>
        <time>2024-03-14T14:45:31.871Z</time>
      </trkpt>
      <trkpt lat="48.1024" lon="4.07499">
        <ele>144.050778</ele>
        <time>2024-03-14T14:45:39.198Z</time>
      </trkpt>
      <trkpt lat="48.10105" lon="4.07706">
        <ele>146.093737</ele>
        <time>2024-03-14T14:46:34.102Z</time>
      </trkpt>
      <trkpt lat="48.10092" lon="4.07727">
        <ele>146.464935</ele>
        <time>2024-03-14T14:46:40.832Z</time>
      </trkpt>
      <trkpt lat="48.1007" lon="4.07776">
        <ele>147.225702</ele>
        <time>2024-03-14T14:46:54.530Z</time>
      </trkpt>
      <trkpt lat="48.1005" lon="4.07838">
        <ele>148.125749</ele>
        <time>2024-03-14T14:47:10.819Z</time>
      </trkpt>
      <trkpt lat="48.09973" lon="4.0819">
        <ele>151.761814</ele>
        <time>2024-03-14T14:48:27.349Z</time>
      </trkpt>
      <trkpt lat="48.09887" lon="4.08601">
        <ele>152.384012</ele>
        <time>2024-03-14T14:49:29.000Z</time>
      </trkpt>
      <trkpt lat="48.09869" lon="4.08657">
        <ele>152.989996</ele>
        <time>2024-03-14T14:49:41.584Z</time>
      </trkpt>
      <trkpt lat="48.09821" lon="4.08757">
        <ele>154.705015</ele>
        <time>2024-03-14T14:50:09.009Z</time>
      </trkpt>
      <trkpt lat="48.09792" lon="4.08796">
        <ele>155.503195</ele>
        <time>2024-03-14T14:50:22.959Z</time>
      </trkpt>
      <trkpt lat="48.09741" lon="4.08853">
        <ele>156.859475</ele>
        <time>2024-03-14T14:50:45.822Z</time>
      </trkpt>
      <trkpt lat="48.0966" lon="4.08923">
        <ele>158.839281</ele>
        <time>2024-03-14T14:51:16.010Z</time>
      </trkpt>
      <trkpt lat="48.09247" lon="4.09288">
        <ele>166.5207</ele>
        <time>2024-03-14T14:53:46.986Z</time>
      </trkpt>
      <trkpt lat="48.08852" lon="4.09628">
        <ele>165.157958</ele>
        <time>2024-03-14T14:55:22.729Z</time>
      </trkpt>
      <trkpt lat="48.08837" lon="4.09648">
        <ele>164.935848</ele>
        <time>2024-03-14T14:55:26.325Z</time>
      </trkpt>
      <trkpt lat="48.08828" lon="4.09669">
        <ele>164.472776</ele>
        <time>2024-03-14T14:55:29.400Z</time>
      </trkpt>
      <trkpt lat="48.08806" lon="4.09743">
        <ele>162.995566</ele>
        <time>2024-03-14T14:55:38.909Z</time>
      </trkpt>
      <trkpt lat="48.08791" lon="4.09772">
        <ele>162.323093</ele>
        <time>2024-03-14T14:55:43.166Z</time>
      </trkpt>
      <trkpt lat="48.08502" lon="4.10034">
        <ele>153.362681</ele>
        <time>2024-03-14T14:56:40.828Z</time>
      </trkpt>
      <trkpt lat="48.08916" lon="4.10606">
        <ele>147.65997</ele>
        <time>2024-03-14T14:59:55.271Z</time>
      </trkpt>
      <trkpt lat="48.08979" lon="4.10697">
        <ele>148.091092</ele>
        <time>2024-03-14T15:00:36.183Z</time>
      </trkpt>
      <trkpt lat="48.08998" lon="4.1076">
        <ele>148.912386</ele>
        <time>2024-03-14T15:00:59.537Z</time>
      </trkpt>
      <trkpt lat="48.09021" lon="4.10958">
        <ele>151.09556</ele>
        <time>2024-03-14T15:02:01.876Z</time>
      </trkpt>
      <trkpt lat="48.0895" lon="4.10979">
        <ele>150.756342</ele>
        <time>2024-03-14T15:02:17.372Z</time>
      </trkpt>
      <trkpt lat="48.08883" lon="4.10985">
        <ele>150.443629</ele>
        <time>2024-03-14T15:02:30.189Z</time>
      </trkpt>
      <trkpt lat="48.08838" lon="4.10996">
        <ele>150.391852</ele>
        <time>2024-03-14T15:02:39.013Z</time>
      </trkpt>
      <trkpt lat="48.08793" lon="4.11007">
        <ele>150.680754</ele>
        <time>2024-03-14T15:02:48.821Z</time>
      </trkpt>
      <trkpt lat="48.08771" lon="4.1102">
        <ele>150.828699</ele>
        <time>2024-03-14T15:02:54.801Z</time>
      </trkpt>
      <trkpt lat="48.08758" lon="4.11034">
        <ele>150.927062</ele>
        <time>2024-03-14T15:02:59.033Z</time>
      </trkpt>
      <trkpt lat="48.08789" lon="4.11077">
        <ele>151.190994</ele>
        <time>2024-03-14T15:03:11.704Z</time>
      </trkpt>
      <trkpt lat="48.088" lon="4.11097">
        <ele>151.299275</ele>
        <time>2024-03-14T15:03:17.033Z</time>
      </trkpt>
      <trkpt lat="48.08847" lon="4.11201">
        <ele>152.148491</ele>
        <time>2024-03-14T15:03:45.034Z</time>
      </trkpt>
      <trkpt lat="48.08849" lon="4.11217">
        <ele>152.270979</ele>
        <time>2024-03-14T15:03:49.102Z</time>
      </trkpt>
      <trkpt lat="48.08853" lon="4.11221">
        <ele>152.326918</ele>
        <time>2024-03-14T15:03:50.816Z</time>
      </trkpt>
      <trkpt lat="48.0886" lon="4.11237">
        <ele>152.467115</ele>
        <time>2024-03-14T15:03:54.931Z</time>
      </trkpt>
      <trkpt lat="48.08864" lon="4.11256">
        <ele>152.620581</ele>
        <time>2024-03-14T15:03:59.586Z</time>
      </trkpt>
      <trkpt lat="48.08878" lon="4.11479">
        <ele>152.407783</ele>
        <time>2024-03-14T15:04:31.754Z</time>
      </trkpt>
      <trkpt lat="48.08888" lon="4.11529">
        <ele>151.908247</ele>
        <time>2024-03-14T15:04:38.096Z</time>
      </trkpt>
      <trkpt lat="48.08931" lon="4.11647">
        <ele>150.642032</ele>
        <time>2024-03-14T15:04:54.307Z</time>
      </trkpt>
      <trkpt lat="48.08945" lon="4.11681">
        <ele>150.287402</ele>
        <time>2024-03-14T15:04:59.051Z</time>
      </trkpt>
      <trkpt lat="48.0897" lon="4.11725">
        <ele>149.762205</ele>
        <time>2024-03-14T15:05:06.096Z</time>
      </trkpt>
      <trkpt lat="48.09042" lon="4.11828">
        <ele>148.503018</ele>
        <time>2024-03-14T15:05:25.944Z</time>
      </trkpt>
      <trkpt lat="48.09084" lon="4.11913">
        <ele>149.082559</ele>
        <time>2024-03-14T15:05:43.452Z</time>
      </trkpt>
      <trkpt lat="48.09099" lon="4.11954">
        <ele>149.339954</ele>
        <time>2024-03-14T15:05:51.900Z</time>
      </trkpt>
      <trkpt lat="48.08716" lon="4.12979">
        <ele>161.747333</ele>
        <time>2024-03-14T15:11:48.397Z</time>
      </trkpt>
      <trkpt lat="48.08454" lon="4.13179">
        <ele>165.327274</ele>
        <time>2024-03-14T15:13:09.803Z</time>
      </trkpt>
      <trkpt lat="48.08136" lon="4.1331">
        <ele>169.924246</ele>
        <time>2024-03-14T15:14:49.499Z</time>
      </trkpt>
      <trkpt lat="48.07993" lon="4.13369">
        <ele>171.142861</ele>
        <time>2024-03-14T15:15:26.950Z</time>
      </trkpt>
      <trkpt lat="48.07995" lon="4.13412">
        <ele>171.267224</ele>
        <time>2024-03-14T15:15:37.989Z</time>
      </trkpt>
      <trkpt lat="48.0801" lon="4.13526">
        <ele>171.602013</ele>
        <time>2024-03-14T15:16:08.282Z</time>
      </trkpt>
      <trkpt lat="48.07925" lon="4.13736">
        <ele>172.033604</ele>
        <time>2024-03-14T15:17:12.373Z</time>
      </trkpt>
      <trkpt lat="48.07883" lon="4.13862">
        <ele>171.869567</ele>
        <time>2024-03-14T15:17:46.443Z</time>
      </trkpt>
      <trkpt lat="48.07883" lon="4.13862">
        <ele>171.869567</ele>
        <time>2024-03-14T15:17:46.444Z</time>
      </trkpt>
      <trkpt lat="48.07872" lon="4.13909">
        <ele>171.688491</ele>
        <time>2024-03-14T15:17:58.057Z</time>
      </trkpt>
      <trkpt lat="48.07849" lon="4.14148">
        <ele>171.130283</ele>
        <time>2024-03-14T15:18:54.770Z</time>
      </trkpt>
      <trkpt lat="48.07774" lon="4.14579">
        <ele>171.667354</ele>
        <time>2024-03-14T15:20:50.361Z</time>
      </trkpt>
      <trkpt lat="48.07763" lon="4.14591">
        <ele>171.65449</ele>
        <time>2024-03-14T15:20:55.836Z</time>
      </trkpt>
      <trkpt lat="48.07679" lon="4.14654">
        <ele>171.570187</ele>
        <time>2024-03-14T15:21:30.835Z</time>
      </trkpt>
      <trkpt lat="48.07645" lon="4.14669">
        <ele>171.537696</ele>
        <time>2024-03-14T15:21:43.961Z</time>
      </trkpt>
      <trkpt lat="48.07555" lon="4.14493">
        <ele>170.629547</ele>
        <time>2024-03-14T15:22:14.465Z</time>
      </trkpt>
      <trkpt lat="48.07532" lon="4.14441">
        <ele>170.305004</ele>
        <time>2024-03-14T15:22:22.828Z</time>
      </trkpt>
      <trkpt lat="48.07472" lon="4.14335">
        <ele>169.30247</ele>
        <time>2024-03-14T15:22:41.093Z</time>
      </trkpt>
      <trkpt lat="48.07443" lon="4.14266">
        <ele>168.655037</ele>
        <time>2024-03-14T15:22:51.608Z</time>
      </trkpt>
      <trkpt lat="48.07443" lon="4.14265">
        <ele>168.649049</ele>
        <time>2024-03-14T15:22:51.713Z</time>
      </trkpt>
      <trkpt lat="48.074" lon="4.14182">
        <ele>167.762708</ele>
        <time>2024-03-14T15:23:05.328Z</time>
      </trkpt>
      <trkpt lat="48.07355" lon="4.14069">
        <ele>166.384233</ele>
        <time>2024-03-14T15:23:22.268Z</time>
      </trkpt>
      <trkpt lat="48.07329" lon="4.14026">
        <ele>165.788583</ele>
        <time>2024-03-14T15:23:29.464Z</time>
      </trkpt>
      <trkpt lat="48.07311" lon="4.14006">
        <ele>165.423211</ele>
        <time>2024-03-14T15:23:33.811Z</time>
      </trkpt>
      <trkpt lat="48.07227" lon="4.13959">
        <ele>162.988926</ele>
        <time>2024-03-14T15:23:50.049Z</time>
      </trkpt>
      <trkpt lat="48.07204" lon="4.13951">
        <ele>162.304487</ele>
        <time>2024-03-14T15:23:54.018Z</time>
      </trkpt>
      <trkpt lat="48.0713" lon="4.13944">
        <ele>160.075777</ele>
        <time>2024-03-14T15:24:06.455Z</time>
      </trkpt>
      <trkpt lat="48.07115" lon="4.13936">
        <ele>159.573182</ele>
        <time>2024-03-14T15:24:09.126Z</time>
      </trkpt>
      <trkpt lat="48.07102" lon="4.13925">
        <ele>159.110426</ele>
        <time>2024-03-14T15:24:11.514Z</time>
      </trkpt>
      <trkpt lat="48.07053" lon="4.13868">
        <ele>157.142998</ele>
        <time>2024-03-14T15:24:21.676Z</time>
      </trkpt>
      <trkpt lat="48.06989" lon="4.13818">
        <ele>154.882334</ele>
        <time>2024-03-14T15:24:33.848Z</time>
      </trkpt>
      <trkpt lat="48.06977" lon="4.13808">
        <ele>154.431911</ele>
        <time>2024-03-14T15:24:36.372Z</time>
      </trkpt>
      <trkpt lat="48.06963" lon="4.13793">
        <ele>154.075495</ele>
        <time>2024-03-14T15:24:39.375Z</time>
      </trkpt>
      <trkpt lat="48.06539" lon="4.14108">
        <ele>156.130103</ele>
        <time>2024-03-14T15:26:39.857Z</time>
      </trkpt>
      <trkpt lat="48.0621" lon="4.14252">
        <ele>157.458142</ele>
        <time>2024-03-14T15:28:03.949Z</time>
      </trkpt>
      <trkpt lat="48.06161" lon="4.14274">
        <ele>157.526042</ele>
        <time>2024-03-14T15:28:16.060Z</time>
      </trkpt>
      <trkpt lat="48.06153" lon="4.14258">
        <ele>157.543292</ele>
        <time>2024-03-14T15:28:19.731Z</time>
      </trkpt>
      <trkpt lat="48.06144" lon="4.14251">
        <ele>157.555866</ele>
        <time>2024-03-14T15:28:22.442Z</time>
      </trkpt>
      <trkpt lat="48.06134" lon="4.14249">
        <ele>157.433729</ele>
        <time>2024-03-14T15:28:25.290Z</time>
      </trkpt>
      <trkpt lat="48.06123" lon="4.14254">
        <ele>157.213648</ele>
        <time>2024-03-14T15:28:28.479Z</time>
      </trkpt>
      <trkpt lat="48.06114" lon="4.14259">
        <ele>157.036792</ele>
        <time>2024-03-14T15:28:30.995Z</time>
      </trkpt>
      <trkpt lat="48.06108" lon="4.14271">
        <ele>156.858786</ele>
        <time>2024-03-14T15:28:33.554Z</time>
      </trkpt>
      <trkpt lat="48.06104" lon="4.14284">
        <ele>156.673876</ele>
        <time>2024-03-14T15:28:36.167Z</time>
      </trkpt>
      <trkpt lat="48.06103" lon="4.14299">
        <ele>156.491798</ele>
        <time>2024-03-14T15:28:38.636Z</time>
      </trkpt>
      <trkpt lat="48.06054" lon="4.14317">
        <ele>155.549531</ele>
        <time>2024-03-14T15:28:47.914Z</time>
      </trkpt>
      <trkpt lat="48.06052" lon="4.14311">
        <ele>155.462931</ele>
        <time>2024-03-14T15:28:48.780Z</time>
      </trkpt>
      <trkpt lat="48.06" lon="4.14239">
        <ele>154.124249</ele>
        <time>2024-03-14T15:29:01.797Z</time>
      </trkpt>
      <trkpt lat="48.05991" lon="4.14209">
        <ele>153.593347</ele>
        <time>2024-03-14T15:29:05.752Z</time>
      </trkpt>
      <trkpt lat="48.05984" lon="4.14133">
        <ele>152.33013</ele>
        <time>2024-03-14T15:29:15.127Z</time>
      </trkpt>
      <trkpt lat="48.05989" lon="4.14057">
        <ele>151.092107</ele>
        <time>2024-03-14T15:29:24.346Z</time>
      </trkpt>
      <trkpt lat="48.05986" lon="4.1399">
        <ele>149.993112</ele>
        <time>2024-03-14T15:29:32.949Z</time>
      </trkpt>
      <trkpt lat="48.05984" lon="4.1398">
        <ele>149.823586</ele>
        <time>2024-03-14T15:29:34.314Z</time>
      </trkpt>
      <trkpt lat="48.05982" lon="4.13972">
        <ele>149.791869</ele>
        <time>2024-03-14T15:29:35.359Z</time>
      </trkpt>
      <trkpt lat="48.05975" lon="4.13952">
        <ele>149.748603</ele>
        <time>2024-03-14T15:29:38.572Z</time>
      </trkpt>
      <trkpt lat="48.05946" lon="4.13883">
        <ele>149.594726</ele>
        <time>2024-03-14T15:29:50.873Z</time>
      </trkpt>
      <trkpt lat="48.05935" lon="4.13856">
        <ele>149.537541</ele>
        <time>2024-03-14T15:29:55.997Z</time>
      </trkpt>
      <trkpt lat="48.05926" lon="4.1383">
        <ele>149.482678</ele>
        <time>2024-03-14T15:30:00.809Z</time>
      </trkpt>
      <trkpt lat="48.05908" lon="4.13778">
        <ele>149.372543</ele>
        <time>2024-03-14T15:30:10.261Z</time>
      </trkpt>
      <trkpt lat="48.05882" lon="4.1371">
        <ele>149.398137</ele>
        <time>2024-03-14T15:30:22.742Z</time>
      </trkpt>
      <trkpt lat="48.05879" lon="4.13701">
        <ele>149.423286</ele>
        <time>2024-03-14T15:30:24.322Z</time>
      </trkpt>
      <trkpt lat="48.05871" lon="4.13707">
        <ele>149.455533</ele>
        <time>2024-03-14T15:30:26.347Z</time>
      </trkpt>
      <trkpt lat="48.05852" lon="4.13723">
        <ele>149.534062</ele>
        <time>2024-03-14T15:30:33.096Z</time>
      </trkpt>
      <trkpt lat="48.05823" lon="4.1375">
        <ele>149.656816</ele>
        <time>2024-03-14T15:30:41.163Z</time>
      </trkpt>
      <trkpt lat="48.05829" lon="4.13773">
        <ele>149.71743</ele>
        <time>2024-03-14T15:30:45.057Z</time>
      </trkpt>
      <trkpt lat="48.0583" lon="4.13785">
        <ele>149.74709</ele>
        <time>2024-03-14T15:30:46.997Z</time>
      </trkpt>
      <trkpt lat="48.05831" lon="4.13798">
        <ele>149.778969</ele>
        <time>2024-03-14T15:30:49.215Z</time>
      </trkpt>
      <trkpt lat="48.05834" lon="4.1387">
        <ele>149.955352</ele>
        <time>2024-03-14T15:31:00.975Z</time>
      </trkpt>
      <trkpt lat="48.05827" lon="4.1398">
        <ele>151.209656</ele>
        <time>2024-03-14T15:31:20.077Z</time>
      </trkpt>
      <trkpt lat="48.05827" lon="4.13984">
        <ele>151.254073</ele>
        <time>2024-03-14T15:31:20.839Z</time>
      </trkpt>
      <trkpt lat="48.05826" lon="4.13998">
        <ele>151.408888</ele>
        <time>2024-03-14T15:31:23.564Z</time>
      </trkpt>
      <trkpt lat="48.05826" lon="4.14008">
        <ele>151.529572</ele>
        <time>2024-03-14T15:31:25.777Z</time>
      </trkpt>
      <trkpt lat="48.05826" lon="4.14013">
        <ele>151.581951</ele>
        <time>2024-03-14T15:31:26.742Z</time>
      </trkpt>
      <trkpt lat="48.05827" lon="4.14025">
        <ele>151.724464</ele>
        <time>2024-03-14T15:31:29.485Z</time>
      </trkpt>
      <trkpt lat="48.05829" lon="4.14071">
        <ele>152.24352</ele>
        <time>2024-03-14T15:31:39.938Z</time>
      </trkpt>
      <trkpt lat="48.0583" lon="4.14085">
        <ele>152.411146</ele>
        <time>2024-03-14T15:31:43.420Z</time>
      </trkpt>
      <trkpt lat="48.05835" lon="4.14102">
        <ele>152.621174</ele>
        <time>2024-03-14T15:31:48.006Z</time>
      </trkpt>
      <trkpt lat="48.0589" lon="4.14191">
        <ele>154.361439</ele>
        <time>2024-03-14T15:32:17.790Z</time>
      </trkpt>
      <trkpt lat="48.05944" lon="4.14267">
        <ele>156.107228</ele>
        <time>2024-03-14T15:32:43.568Z</time>
      </trkpt>
      <trkpt lat="48.05963" lon="4.14289">
        <ele>156.67457</ele>
        <time>2024-03-14T15:32:51.477Z</time>
      </trkpt>
      <trkpt lat="48.05991" lon="4.1431">
        <ele>157.271532</ele>
        <time>2024-03-14T15:33:00.975Z</time>
      </trkpt>
      <trkpt lat="48.06007" lon="4.14316">
        <ele>157.345878</ele>
        <time>2024-03-14T15:33:05.666Z</time>
      </trkpt>
      <trkpt lat="48.06034" lon="4.14319">
        <ele>157.473281</ele>
        <time>2024-03-14T15:33:13.313Z</time>
      </trkpt>
      <trkpt lat="48.06054" lon="4.14317">
        <ele>157.566148</ele>
        <time>2024-03-14T15:33:18.355Z</time>
      </trkpt>
      <trkpt lat="48.06103" lon="4.14299">
        <ele>157.800619</ele>
        <time>2024-03-14T15:33:29.908Z</time>
      </trkpt>
      <trkpt lat="48.06161" lon="4.14274">
        <ele>158.068446</ele>
        <time>2024-03-14T15:33:42.711Z</time>
      </trkpt>
      <trkpt lat="48.0621" lon="4.14252">
        <ele>157.836988</ele>
        <time>2024-03-14T15:33:53.829Z</time>
      </trkpt>
      <trkpt lat="48.06539" lon="4.14108">
        <ele>156.145188</ele>
        <time>2024-03-14T15:35:05.602Z</time>
      </trkpt>
      <trkpt lat="48.06963" lon="4.13793">
        <ele>154.410811</ele>
        <time>2024-03-14T15:36:43.117Z</time>
      </trkpt>
      <trkpt lat="48.06977" lon="4.13808">
        <ele>154.440434</ele>
        <time>2024-03-14T15:36:49.065Z</time>
      </trkpt>
      <trkpt lat="48.06989" lon="4.13818">
        <ele>154.507747</ele>
        <time>2024-03-14T15:36:54.097Z</time>
      </trkpt>
      <trkpt lat="48.07053" lon="4.13868">
        <ele>156.986685</ele>
        <time>2024-03-14T15:37:21.894Z</time>
      </trkpt>
      <trkpt lat="48.07102" lon="4.13925">
        <ele>159.144075</ele>
        <time>2024-03-14T15:37:48.927Z</time>
      </trkpt>
      <trkpt lat="48.07115" lon="4.13936">
        <ele>159.651512</ele>
        <time>2024-03-14T15:37:55.417Z</time>
      </trkpt>
      <trkpt lat="48.0713" lon="4.13944">
        <ele>160.22156</ele>
        <time>2024-03-14T15:38:02.550Z</time>
      </trkpt>
      <trkpt lat="48.07204" lon="4.13951">
        <ele>162.349038</ele>
        <time>2024-03-14T15:38:32.384Z</time>
      </trkpt>
      <trkpt lat="48.07227" lon="4.13959">
        <ele>162.972052</ele>
        <time>2024-03-14T15:38:40.715Z</time>
      </trkpt>
      <trkpt lat="48.07311" lon="4.14006">
        <ele>165.423483</ele>
        <time>2024-03-14T15:39:10.484Z</time>
      </trkpt>
      <trkpt lat="48.07329" lon="4.14026">
        <ele>165.856695</ele>
        <time>2024-03-14T15:39:17.710Z</time>
      </trkpt>
      <trkpt lat="48.07355" lon="4.14069">
        <ele>166.422284</ele>
        <time>2024-03-14T15:39:29.172Z</time>
      </trkpt>
      <trkpt lat="48.074" lon="4.14182">
        <ele>167.731189</ele>
        <time>2024-03-14T15:39:54.837Z</time>
      </trkpt>
      <trkpt lat="48.07443" lon="4.14265">
        <ele>168.658656</ele>
        <time>2024-03-14T15:40:14.954Z</time>
      </trkpt>
      <trkpt lat="48.07443" lon="4.14266">
        <ele>168.664321</ele>
        <time>2024-03-14T15:40:15.110Z</time>
      </trkpt>
      <trkpt lat="48.07472" lon="4.14335">
        <ele>169.276738</ele>
        <time>2024-03-14T15:40:30.490Z</time>
      </trkpt>
      <trkpt lat="48.07532" lon="4.14441">
        <ele>170.322039</ele>
        <time>2024-03-14T15:40:56.171Z</time>
      </trkpt>
      <trkpt lat="48.07555" lon="4.14493">
        <ele>170.450544</ele>
        <time>2024-03-14T15:41:07.374Z</time>
      </trkpt>
      <trkpt lat="48.07645" lon="4.14669">
        <ele>170.800629</ele>
        <time>2024-03-14T15:41:41.730Z</time>
      </trkpt>
      <trkpt lat="48.07754" lon="4.14877">
        <ele>169.611882</ele>
        <time>2024-03-14T15:42:17.044Z</time>
      </trkpt>
      <trkpt lat="48.07787" lon="4.15011">
        <ele>169.849947</ele>
        <time>2024-03-14T15:42:37.277Z</time>
      </trkpt>
      <trkpt lat="48.0787" lon="4.15225">
        <ele>171.614046</ele>
        <time>2024-03-14T15:43:23.952Z</time>
      </trkpt>
      <trkpt lat="48.0803" lon="4.15638">
        <ele>178.824819</ele>
        <time>2024-03-14T15:45:12.883Z</time>
      </trkpt>
      <trkpt lat="48.0806" lon="4.15688">
        <ele>180.069804</ele>
        <time>2024-03-14T15:45:28.822Z</time>
      </trkpt>
      <trkpt lat="48.08085" lon="4.15717">
        <ele>180.969363</ele>
        <time>2024-03-14T15:45:40.644Z</time>
      </trkpt>
      <trkpt lat="48.08184" lon="4.15802">
        <ele>184.218045</ele>
        <time>2024-03-14T15:46:23.754Z</time>
      </trkpt>
      <trkpt lat="48.08236" lon="4.15847">
        <ele>185.968271</ele>
        <time>2024-03-14T15:46:46.726Z</time>
      </trkpt>
      <trkpt lat="48.08261" lon="4.15859">
        <ele>186.749024</ele>
        <time>2024-03-14T15:46:56.954Z</time>
      </trkpt>
      <trkpt lat="48.08424" lon="4.15867">
        <ele>189.38295</ele>
        <time>2024-03-14T15:47:50.585Z</time>
      </trkpt>
      <trkpt lat="48.08958" lon="4.15962">
        <ele>186.091029</ele>
        <time>2024-03-14T15:49:39.199Z</time>
      </trkpt>
      <trkpt lat="48.09018" lon="4.15974">
        <ele>185.622524</ele>
        <time>2024-03-14T15:49:51.366Z</time>
      </trkpt>
      <trkpt lat="48.09043" lon="4.15986">
        <ele>185.579081</ele>
        <time>2024-03-14T15:49:56.585Z</time>
      </trkpt>
      <trkpt lat="48.09106" lon="4.16037">
        <ele>185.457637</ele>
        <time>2024-03-14T15:50:11.713Z</time>
      </trkpt>
      <trkpt lat="48.09176" lon="4.1607">
        <ele>185.331812</ele>
        <time>2024-03-14T15:50:28.651Z</time>
      </trkpt>
      <trkpt lat="48.09397" lon="4.16157">
        <ele>187.697349</ele>
        <time>2024-03-14T15:51:32.000Z</time>
      </trkpt>
      <trkpt lat="48.09476" lon="4.16203">
        <ele>188.750701</ele>
        <time>2024-03-14T15:51:57.261Z</time>
      </trkpt>
      <trkpt lat="48.0952" lon="4.16234">
        <ele>189.359302</ele>
        <time>2024-03-14T15:52:11.812Z</time>
      </trkpt>
      <trkpt lat="48.0967" lon="4.16349">
        <ele>189.172074</ele>
        <time>2024-03-14T15:52:50.441Z</time>
      </trkpt>
      <trkpt lat="48.09879" lon="4.16607">
        <ele>182.656817</ele>
        <time>2024-03-14T15:53:38.480Z</time>
      </trkpt>
      <trkpt lat="48.09891" lon="4.16628">
        <ele>182.106522</ele>
        <time>2024-03-14T15:53:41.625Z</time>
      </trkpt>
      <trkpt lat="48.09911" lon="4.16689">
        <ele>180.763122</ele>
        <time>2024-03-14T15:53:49.287Z</time>
      </trkpt>
      <trkpt lat="48.09969" lon="4.1683">
        <ele>177.864643</ele>
        <time>2024-03-14T15:54:08.196Z</time>
      </trkpt>
      <trkpt lat="48.09983" lon="4.16855">
        <ele>177.332596</ele>
        <time>2024-03-14T15:54:11.949Z</time>
      </trkpt>
      <trkpt lat="48.10155" lon="4.1701">
        <ele>174.312076</ele>
        <time>2024-03-14T15:54:49.546Z</time>
      </trkpt>
      <trkpt lat="48.10412" lon="4.17237">
        <ele>175.760233</ele>
        <time>2024-03-14T15:56:06.714Z</time>
      </trkpt>
      <trkpt lat="48.10608" lon="4.1757">
        <ele>179.873226</ele>
        <time>2024-03-14T15:57:35.883Z</time>
      </trkpt>
      <trkpt lat="48.10641" lon="4.17624">
        <ele>180.119603</ele>
        <time>2024-03-14T15:57:48.876Z</time>
      </trkpt>
      <trkpt lat="48.1069" lon="4.17695">
        <ele>180.347758</ele>
        <time>2024-03-14T15:58:05.178Z</time>
      </trkpt>
      <trkpt lat="48.10721" lon="4.17734">
        <ele>180.484245</ele>
        <time>2024-03-14T15:58:14.255Z</time>
      </trkpt>
      <trkpt lat="48.10762" lon="4.17764">
        <ele>180.53318</ele>
        <time>2024-03-14T15:58:23.876Z</time>
      </trkpt>
      <trkpt lat="48.10929" lon="4.17853">
        <ele>180.02471</ele>
        <time>2024-03-14T15:59:01.418Z</time>
      </trkpt>
      <trkpt lat="48.10992" lon="4.17883">
        <ele>180.063254</ele>
        <time>2024-03-14T15:59:16.299Z</time>
      </trkpt>
      <trkpt lat="48.11089" lon="4.17943">
        <ele>180.09982</ele>
        <time>2024-03-14T15:59:41.232Z</time>
      </trkpt>
      <trkpt lat="48.11103" lon="4.17952">
        <ele>180.036343</ele>
        <time>2024-03-14T15:59:44.621Z</time>
      </trkpt>
      <trkpt lat="48.11143" lon="4.1799">
        <ele>179.835654</ele>
        <time>2024-03-14T15:59:55.065Z</time>
      </trkpt>
      <trkpt lat="48.11157" lon="4.1801">
        <ele>179.757881</ele>
        <time>2024-03-14T15:59:58.995Z</time>
      </trkpt>
      <trkpt lat="48.11189" lon="4.18037">
        <ele>179.601374</ele>
        <time>2024-03-14T16:00:06.690Z</time>
      </trkpt>
      <trkpt lat="48.11246" lon="4.18101">
        <ele>179.226661</ele>
        <time>2024-03-14T16:00:21.107Z</time>
      </trkpt>
      <trkpt lat="48.1127" lon="4.18124">
        <ele>178.962387</ele>
        <time>2024-03-14T16:00:26.724Z</time>
      </trkpt>
      <trkpt lat="48.11319" lon="4.18175">
        <ele>178.40871</ele>
        <time>2024-03-14T16:00:38.277Z</time>
      </trkpt>
      <trkpt lat="48.11363" lon="4.18212">
        <ele>177.938058</ele>
        <time>2024-03-14T16:00:48.232Z</time>
      </trkpt>
      <trkpt lat="48.11389" lon="4.18228">
        <ele>177.695025</ele>
        <time>2024-03-14T16:00:53.861Z</time>
      </trkpt>
      <trkpt lat="48.11432" lon="4.18244">
        <ele>177.876569</ele>
        <time>2024-03-14T16:01:03.534Z</time>
      </trkpt>
      <trkpt lat="48.11485" lon="4.18257">
        <ele>178.094136</ele>
        <time>2024-03-14T16:01:16.985Z</time>
      </trkpt>
      <trkpt lat="48.11514" lon="4.18259">
        <ele>178.211641</ele>
        <time>2024-03-14T16:01:24.576Z</time>
      </trkpt>
      <trkpt lat="48.11605" lon="4.18263">
        <ele>178.660539</ele>
        <time>2024-03-14T16:01:49.555Z</time>
      </trkpt>
      <trkpt lat="48.11629" lon="4.18267">
        <ele>178.801626</ele>
        <time>2024-03-14T16:01:55.996Z</time>
      </trkpt>
      <trkpt lat="48.11836" lon="4.1843">
        <ele>179.454241</ele>
        <time>2024-03-14T16:02:52.225Z</time>
      </trkpt>
      <trkpt lat="48.11908" lon="4.18483">
        <ele>179.256568</ele>
        <time>2024-03-14T16:03:08.691Z</time>
      </trkpt>
      <trkpt lat="48.1201" lon="4.18566">
        <ele>178.114592</ele>
        <time>2024-03-14T16:03:31.669Z</time>
      </trkpt>
      <trkpt lat="48.12145" lon="4.18747">
        <ele>176.190771</ele>
        <time>2024-03-14T16:04:07.448Z</time>
      </trkpt>
      <trkpt lat="48.12301" lon="4.1887">
        <ele>174.563198</ele>
        <time>2024-03-14T16:04:42.606Z</time>
      </trkpt>
      <trkpt lat="48.12332" lon="4.18903">
        <ele>174.2327</ele>
        <time>2024-03-14T16:04:50.274Z</time>
      </trkpt>
      <trkpt lat="48.12361" lon="4.18951">
        <ele>174.050997</ele>
        <time>2024-03-14T16:04:59.050Z</time>
      </trkpt>
      <trkpt lat="48.12438" lon="4.19113">
        <ele>173.675031</ele>
        <time>2024-03-14T16:05:27.438Z</time>
      </trkpt>
      <trkpt lat="48.12438" lon="4.19113">
        <ele>173.675031</ele>
        <time>2024-03-14T16:05:27.448Z</time>
      </trkpt>
      <trkpt lat="48.12507" lon="4.19246">
        <ele>174.288934</ele>
        <time>2024-03-14T16:05:55.856Z</time>
      </trkpt>
      <trkpt lat="48.12527" lon="4.19299">
        <ele>174.562789</ele>
        <time>2024-03-14T16:06:06.980Z</time>
      </trkpt>
      <trkpt lat="48.12545" lon="4.1936">
        <ele>174.853848</ele>
        <time>2024-03-14T16:06:18.955Z</time>
      </trkpt>
      <trkpt lat="48.12579" lon="4.19442">
        <ele>175.202102</ele>
        <time>2024-03-14T16:06:35.772Z</time>
      </trkpt>
      <trkpt lat="48.126" lon="4.19477">
        <ele>175.367507</ele>
        <time>2024-03-14T16:06:43.520Z</time>
      </trkpt>
      <trkpt lat="48.12701" lon="4.1965">
        <ele>175.278313</ele>
        <time>2024-03-14T16:07:19.564Z</time>
      </trkpt>
      <trkpt lat="48.12764" lon="4.19718">
        <ele>174.727713</ele>
        <time>2024-03-14T16:07:35.425Z</time>
      </trkpt>
      <trkpt lat="48.12268" lon="4.20828">
        <ele>154.401457</ele>
        <time>2024-03-14T16:12:19.160Z</time>
      </trkpt>
      <trkpt lat="48.1336" lon="4.218">
        <ele>151.32319</ele>
        <time>2024-03-14T16:20:02.994Z</time>
      </trkpt>
      <trkpt lat="48.13378" lon="4.21845">
        <ele>151.183336</ele>
        <time>2024-03-14T16:20:15.963Z</time>
      </trkpt>
      <trkpt lat="48.13425" lon="4.21899">
        <ele>150.582854</ele>
        <time>2024-03-14T16:20:37.636Z</time>
      </trkpt>
      <trkpt lat="48.13444" lon="4.21935">
        <ele>150.272372</ele>
        <time>2024-03-14T16:20:48.360Z</time>
      </trkpt>
      <trkpt lat="48.13508" lon="4.21873">
        <ele>149.494527</ele>
        <time>2024-03-14T16:21:03.772Z</time>
      </trkpt>
      <trkpt lat="48.13588" lon="4.21932">
        <ele>146.810477</ele>
        <time>2024-03-14T16:21:20.026Z</time>
      </trkpt>
      <trkpt lat="48.13602" lon="4.21951">
        <ele>146.220578</ele>
        <time>2024-03-14T16:21:23.491Z</time>
      </trkpt>
      <trkpt lat="48.13613" lon="4.21988">
        <ele>145.37536</ele>
        <time>2024-03-14T16:21:28.280Z</time>
      </trkpt>
      <trkpt lat="48.13619" lon="4.2213">
        <ele>142.527253</ele>
        <time>2024-03-14T16:21:44.656Z</time>
      </trkpt>
      <trkpt lat="48.13659" lon="4.2213">
        <ele>141.363379</ele>
        <time>2024-03-14T16:21:51.722Z</time>
      </trkpt>
      <trkpt lat="48.13703" lon="4.22144">
        <ele>140.034157</ele>
        <time>2024-03-14T16:22:00.071Z</time>
      </trkpt>
      <trkpt lat="48.13719" lon="4.22146">
        <ele>139.58423</ele>
        <time>2024-03-14T16:22:02.988Z</time>
      </trkpt>
      <trkpt lat="48.13762" lon="4.22142">
        <ele>138.537715</ele>
        <time>2024-03-14T16:22:11.411Z</time>
      </trkpt>
      <trkpt lat="48.13801" lon="4.22131">
        <ele>138.189238</ele>
        <time>2024-03-14T16:22:19.532Z</time>
      </trkpt>
      <trkpt lat="48.13874" lon="4.22121">
        <ele>137.541629</ele>
        <time>2024-03-14T16:22:35.070Z</time>
      </trkpt>
      <trkpt lat="48.13889" lon="4.22113">
        <ele>137.396869</ele>
        <time>2024-03-14T16:22:38.646Z</time>
      </trkpt>
      <trkpt lat="48.1405" lon="4.21996">
        <ele>136.635947</ele>
        <time>2024-03-14T16:23:18.747Z</time>
      </trkpt>
      <trkpt lat="48.1409" lon="4.21979">
        <ele>136.515936</ele>
        <time>2024-03-14T16:23:27.952Z</time>
      </trkpt>
      <trkpt lat="48.14141" lon="4.21941">
        <ele>136.579731</ele>
        <time>2024-03-14T16:23:40.551Z</time>
      </trkpt>
      <trkpt lat="48.14169" lon="4.2193">
        <ele>136.61266</ele>
        <time>2024-03-14T16:23:47.154Z</time>
      </trkpt>
      <trkpt lat="48.1417" lon="4.21938">
        <ele>136.619018</ele>
        <time>2024-03-14T16:23:48.807Z</time>
      </trkpt>
      <trkpt lat="48.14171" lon="4.21948">
        <ele>136.626283</ele>
        <time>2024-03-14T16:23:50.559Z</time>
      </trkpt>
      <trkpt lat="48.14184" lon="4.22085">
        <ele>136.816494</ele>
        <time>2024-03-14T16:24:13.469Z</time>
      </trkpt>
      <trkpt lat="48.14185" lon="4.22094">
        <ele>136.864577</ele>
        <time>2024-03-14T16:24:15.222Z</time>
      </trkpt>
      <trkpt lat="48.14192" lon="4.22114">
        <ele>136.992141</ele>
        <time>2024-03-14T16:24:19.548Z</time>
      </trkpt>
      <trkpt lat="48.14157" lon="4.22175">
        <ele>137.446224</ele>
        <time>2024-03-14T16:24:33.479Z</time>
      </trkpt>
      <trkpt lat="48.1414" lon="4.22196">
        <ele>137.634653</ele>
        <time>2024-03-14T16:24:39.715Z</time>
      </trkpt>
      <trkpt lat="48.14047" lon="4.22293">
        <ele>138.489477</ele>
        <time>2024-03-14T16:25:10.798Z</time>
      </trkpt>
      <trkpt lat="48.14047" lon="4.22293">
        <ele>138.489477</ele>
        <time>2024-03-14T16:25:10.799Z</time>
      </trkpt>
      <trkpt lat="48.14011" lon="4.22324">
        <ele>138.743133</ele>
        <time>2024-03-14T16:25:21.373Z</time>
      </trkpt>
      <trkpt lat="48.13883" lon="4.22452">
        <ele>139.847821</ele>
        <time>2024-03-14T16:25:58.218Z</time>
      </trkpt>
      <trkpt lat="48.13794" lon="4.22551">
        <ele>140.842456</ele>
        <time>2024-03-14T16:26:27.856Z</time>
      </trkpt>
      <trkpt lat="48.13758" lon="4.22583">
        <ele>141.71653</ele>
        <time>2024-03-14T16:26:41.112Z</time>
      </trkpt>
      <trkpt lat="48.13727" lon="4.22602">
        <ele>142.564572</ele>
        <time>2024-03-14T16:26:52.352Z</time>
      </trkpt>
      <trkpt lat="48.13702" lon="4.22612">
        <ele>143.21652</ele>
        <time>2024-03-14T16:27:01.436Z</time>
      </trkpt>
      <trkpt lat="48.13708" lon="4.22634">
        <ele>143.617056</ele>
        <time>2024-03-14T16:27:07.189Z</time>
      </trkpt>
      <trkpt lat="48.13713" lon="4.2267">
        <ele>144.239105</ele>
        <time>2024-03-14T16:27:16.422Z</time>
      </trkpt>
      <trkpt lat="48.13734" lon="4.22822">
        <ele>147.107085</ele>
        <time>2024-03-14T16:27:57.309Z</time>
      </trkpt>
      <trkpt lat="48.13745" lon="4.22898">
        <ele>148.638129</ele>
        <time>2024-03-14T16:28:17.457Z</time>
      </trkpt>
      <trkpt lat="48.13743" lon="4.22936">
        <ele>149.390599</ele>
        <time>2024-03-14T16:28:27.023Z</time>
      </trkpt>
      <trkpt lat="48.13732" lon="4.2303">
        <ele>151.179037</ele>
        <time>2024-03-14T16:28:50.067Z</time>
      </trkpt>
      <trkpt lat="48.13718" lon="4.23119">
        <ele>152.603777</ele>
        <time>2024-03-14T16:29:11.396Z</time>
      </trkpt>
      <trkpt lat="48.13712" lon="4.23171">
        <ele>153.406676</ele>
        <time>2024-03-14T16:29:23.321Z</time>
      </trkpt>
      <trkpt lat="48.13708" lon="4.23284">
        <ele>155.145433</ele>
        <time>2024-03-14T16:29:49.316Z</time>
      </trkpt>
      <trkpt lat="48.13688" lon="4.23397">
        <ele>156.675274</ele>
        <time>2024-03-14T16:30:15.605Z</time>
      </trkpt>
      <trkpt lat="48.13669" lon="4.23467">
        <ele>157.664741</ele>
        <time>2024-03-14T16:30:32.451Z</time>
      </trkpt>
      <trkpt lat="48.13564" lon="4.23732">
        <ele>161.226871</ele>
        <time>2024-03-14T16:31:37.530Z</time>
      </trkpt>
      <trkpt lat="48.1351" lon="4.23886">
        <ele>163.083762</ele>
        <time>2024-03-14T16:32:12.622Z</time>
      </trkpt>
      <trkpt lat="48.1349" lon="4.23934">
        <ele>163.677242</ele>
        <time>2024-03-14T16:32:24.089Z</time>
      </trkpt>
      <trkpt lat="48.13431" lon="4.24051">
        <ele>165.817243</ele>
        <time>2024-03-14T16:32:55.810Z</time>
      </trkpt>
      <trkpt lat="48.13423" lon="4.24059">
        <ele>166.085008</ele>
        <time>2024-03-14T16:32:59.275Z</time>
      </trkpt>
      <trkpt lat="48.13418" lon="4.24075">
        <ele>166.402852</ele>
        <time>2024-03-14T16:33:05.145Z</time>
      </trkpt>
      <trkpt lat="48.13374" lon="4.24152">
        <ele>168.244512</ele>
        <time>2024-03-14T16:33:40.629Z</time>
      </trkpt>
      <trkpt lat="48.13344" lon="4.24211">
        <ele>169.617153</ele>
        <time>2024-03-14T16:34:07.166Z</time>
      </trkpt>
      <trkpt lat="48.13304" lon="4.24311">
        <ele>172.020639</ele>
        <time>2024-03-14T16:34:50.308Z</time>
      </trkpt>
      <trkpt lat="48.13285" lon="4.24597">
        <ele>176.38557</ele>
        <time>2024-03-14T16:36:26.683Z</time>
      </trkpt>
      <trkpt lat="48.13268" lon="4.24727">
        <ele>177.542286</ele>
        <time>2024-03-14T16:37:01.434Z</time>
      </trkpt>
      <trkpt lat="48.13223" lon="4.25004">
        <ele>176.464635</ele>
        <time>2024-03-14T16:38:07.726Z</time>
      </trkpt>
      <trkpt lat="48.13214" lon="4.25039">
        <ele>176.483046</ele>
        <time>2024-03-14T16:38:16.638Z</time>
      </trkpt>
      <trkpt lat="48.13179" lon="4.25089">
        <ele>176.518561</ele>
        <time>2024-03-14T16:38:34.057Z</time>
      </trkpt>
      <trkpt lat="48.13026" lon="4.24956">
        <ele>177.769787</ele>
        <time>2024-03-14T16:39:20.219Z</time>
      </trkpt>
      <trkpt lat="48.12992" lon="4.25095">
        <ele>179.105767</ele>
        <time>2024-03-14T16:40:05.509Z</time>
      </trkpt>
      <trkpt lat="48.12849" lon="4.25115">
        <ele>181.722649</ele>
        <time>2024-03-14T16:41:12.735Z</time>
      </trkpt>
      <trkpt lat="48.12363" lon="4.25072">
        <ele>189.543981</ele>
        <time>2024-03-14T16:44:52.668Z</time>
      </trkpt>
      <trkpt lat="48.12174" lon="4.25067">
        <ele>191.878852</ele>
        <time>2024-03-14T16:46:14.478Z</time>
      </trkpt>
      <trkpt lat="48.12043" lon="4.25078">
        <ele>193.144818</ele>
        <time>2024-03-14T16:47:08.068Z</time>
      </trkpt>
      <trkpt lat="48.11669" lon="4.25145">
        <ele>195.715784</ele>
        <time>2024-03-14T16:49:44.162Z</time>
      </trkpt>
      <trkpt lat="48.11132" lon="4.2526">
        <ele>195.79941</ele>
        <time>2024-03-14T16:53:01.604Z</time>
      </trkpt>
      <trkpt lat="48.11102" lon="4.25382">
        <ele>196.33656</ele>
        <time>2024-03-14T16:53:25.629Z</time>
      </trkpt>
      <trkpt lat="48.11012" lon="4.25726">
        <ele>201.087292</ele>
        <time>2024-03-14T16:54:45.456Z</time>
      </trkpt>
      <trkpt lat="48.10895" lon="4.26188">
        <ele>207.596466</ele>
        <time>2024-03-14T16:56:35.868Z</time>
      </trkpt>
      <trkpt lat="48.10841" lon="4.26414">
        <ele>207.545984</ele>
        <time>2024-03-14T16:57:11.544Z</time>
      </trkpt>
      <trkpt lat="48.10782" lon="4.26644">
        <ele>202.134979</ele>
        <time>2024-03-14T16:57:39.417Z</time>
      </trkpt>
      <trkpt lat="48.10756" lon="4.26725">
        <ele>198.853756</ele>
        <time>2024-03-14T16:57:48.649Z</time>
      </trkpt>
      <trkpt lat="48.10737" lon="4.26815">
        <ele>195.126512</ele>
        <time>2024-03-14T16:57:58.221Z</time>
      </trkpt>
      <trkpt lat="48.10733" lon="4.26832">
        <ele>194.445341</ele>
        <time>2024-03-14T16:57:59.921Z</time>
      </trkpt>
      <trkpt lat="48.10678" lon="4.27108">
        <ele>185.557071</ele>
        <time>2024-03-14T16:58:30.022Z</time>
      </trkpt>
      <trkpt lat="48.10577" lon="4.275">
        <ele>184.011044</ele>
        <time>2024-03-14T16:59:31.951Z</time>
      </trkpt>
      <trkpt lat="48.10501" lon="4.27779">
        <ele>186.199931</ele>
        <time>2024-03-14T17:00:31.484Z</time>
      </trkpt>
      <trkpt lat="48.10491" lon="4.27844">
        <ele>186.778189</ele>
        <time>2024-03-14T17:00:44.310Z</time>
      </trkpt>
      <trkpt lat="48.10491" lon="4.27873">
        <ele>187.037482</ele>
        <time>2024-03-14T17:00:49.819Z</time>
      </trkpt>
      <trkpt lat="48.10522" lon="4.28224">
        <ele>189.388775</ele>
        <time>2024-03-14T17:01:54.018Z</time>
      </trkpt>
      <trkpt lat="48.10524" lon="4.28261">
        <ele>189.541723</ele>
        <time>2024-03-14T17:02:00.454Z</time>
      </trkpt>
      <trkpt lat="48.10514" lon="4.28588">
        <ele>190.423662</ele>
        <time>2024-03-14T17:02:54.605Z</time>
      </trkpt>
      <trkpt lat="48.10513" lon="4.28627">
        <ele>190.437784</ele>
        <time>2024-03-14T17:03:00.847Z</time>
      </trkpt>
      <trkpt lat="48.10507" lon="4.28839">
        <ele>189.223287</ele>
        <time>2024-03-14T17:03:30.323Z</time>
      </trkpt>
      <trkpt lat="48.10522" lon="4.29248">
        <ele>183.083847</ele>
        <time>2024-03-14T17:04:18.815Z</time>
      </trkpt>
      <trkpt lat="48.10523" lon="4.29344">
        <ele>181.511775</ele>
        <time>2024-03-14T17:04:29.980Z</time>
      </trkpt>
      <trkpt lat="48.10513" lon="4.29459">
        <ele>179.627914</ele>
        <time>2024-03-14T17:04:43.858Z</time>
      </trkpt>
      <trkpt lat="48.10513" lon="4.29492">
        <ele>179.085853</ele>
        <time>2024-03-14T17:04:47.879Z</time>
      </trkpt>
      <trkpt lat="48.10514" lon="4.29533">
        <ele>178.424091</ele>
        <time>2024-03-14T17:04:52.778Z</time>
      </trkpt>
      <trkpt lat="48.1053" lon="4.29678">
        <ele>175.864802</ele>
        <time>2024-03-14T17:05:10.348Z</time>
      </trkpt>
      <trkpt lat="48.10543" lon="4.2976">
        <ele>174.397222</ele>
        <time>2024-03-14T17:05:20.179Z</time>
      </trkpt>
      <trkpt lat="48.10566" lon="4.29848">
        <ele>172.630979</ele>
        <time>2024-03-14T17:05:31.120Z</time>
      </trkpt>
      <trkpt lat="48.10566" lon="4.29848">
        <ele>172.630979</ele>
        <time>2024-03-14T17:05:31.123Z</time>
      </trkpt>
      <trkpt lat="48.10601" lon="4.29963">
        <ele>170.134126</ele>
        <time>2024-03-14T17:05:45.572Z</time>
      </trkpt>
      <trkpt lat="48.10654" lon="4.30072">
        <ele>167.679065</ele>
        <time>2024-03-14T17:06:01.184Z</time>
      </trkpt>
      <trkpt lat="48.10753" lon="4.30265">
        <ele>164.105173</ele>
        <time>2024-03-14T17:06:30.870Z</time>
      </trkpt>
      <trkpt lat="48.10773" lon="4.30309">
        <ele>163.525256</ele>
        <time>2024-03-14T17:06:37.430Z</time>
      </trkpt>
      <trkpt lat="48.10782" lon="4.30329">
        <ele>163.261444</ele>
        <time>2024-03-14T17:06:40.462Z</time>
      </trkpt>
      <trkpt lat="48.10808" lon="4.30387">
        <ele>162.500359</ele>
        <time>2024-03-14T17:06:49.411Z</time>
      </trkpt>
      <trkpt lat="48.10824" lon="4.30431">
        <ele>161.952808</ele>
        <time>2024-03-14T17:06:55.808Z</time>
      </trkpt>
      <trkpt lat="48.10836" lon="4.30473">
        <ele>161.459672</ele>
        <time>2024-03-14T17:07:01.536Z</time>
      </trkpt>
      <trkpt lat="48.10847" lon="4.30513">
        <ele>161.058907</ele>
        <time>2024-03-14T17:07:07.018Z</time>
      </trkpt>
      <trkpt lat="48.10896" lon="4.30485">
        <ele>160.357723</ele>
        <time>2024-03-14T17:07:17.695Z</time>
      </trkpt>
      <trkpt lat="48.109" lon="4.30511">
        <ele>160.120624</ele>
        <time>2024-03-14T17:07:21.185Z</time>
      </trkpt>
      <trkpt lat="48.109" lon="4.30572">
        <ele>159.582809</ele>
        <time>2024-03-14T17:07:29.306Z</time>
      </trkpt>
      <trkpt lat="48.10922" lon="4.30565">
        <ele>159.289559</ele>
        <time>2024-03-14T17:07:33.884Z</time>
      </trkpt>
      <trkpt lat="48.10936" lon="4.30555">
        <ele>159.082192</ele>
        <time>2024-03-14T17:07:37.056Z</time>
      </trkpt>
      <trkpt lat="48.10948" lon="4.30545">
        <ele>158.950054</ele>
        <time>2024-03-14T17:07:39.980Z</time>
      </trkpt>
      <trkpt lat="48.1096" lon="4.30546">
        <ele>158.894499</ele>
        <time>2024-03-14T17:07:42.533Z</time>
      </trkpt>
      <trkpt lat="48.10985" lon="4.30564">
        <ele>158.774123</ele>
        <time>2024-03-14T17:07:48.354Z</time>
      </trkpt>
      <trkpt lat="48.11012" lon="4.30509">
        <ele>158.578103</ele>
        <time>2024-03-14T17:07:57.941Z</time>
      </trkpt>
      <trkpt lat="48.11035" lon="4.30475">
        <ele>158.436919</ele>
        <time>2024-03-14T17:08:05.406Z</time>
      </trkpt>
      <trkpt lat="48.11115" lon="4.30399">
        <ele>158.006715</ele>
        <time>2024-03-14T17:08:28.369Z</time>
      </trkpt>
      <trkpt lat="48.11185" lon="4.30324">
        <ele>157.598555</ele>
        <time>2024-03-14T17:08:47.701Z</time>
      </trkpt>
      <trkpt lat="48.11344" lon="4.30218">
        <ele>155.636887</ele>
        <time>2024-03-14T17:09:46.661Z</time>
      </trkpt>
      <trkpt lat="48.11486" lon="4.30191">
        <ele>153.887765</ele>
        <time>2024-03-14T17:10:34.002Z</time>
      </trkpt>
      <trkpt lat="48.11599" lon="4.30194">
        <ele>152.828088</ele>
        <time>2024-03-14T17:11:13.687Z</time>
      </trkpt>
      <trkpt lat="48.11796" lon="4.3021">
        <ele>152.895797</ele>
        <time>2024-03-14T17:12:28.045Z</time>
      </trkpt>
      <trkpt lat="48.11857" lon="4.30208">
        <ele>153.122567</ele>
        <time>2024-03-14T17:12:50.799Z</time>
      </trkpt>
      <trkpt lat="48.12005" lon="4.30195">
        <ele>154.731328</ele>
        <time>2024-03-14T17:13:50.509Z</time>
      </trkpt>
      <trkpt lat="48.12026" lon="4.30182">
        <ele>155.191573</ele>
        <time>2024-03-14T17:14:00.669Z</time>
      </trkpt>
      <trkpt lat="48.12042" lon="4.30179">
        <ele>155.528988</ele>
        <time>2024-03-14T17:14:08.091Z</time>
      </trkpt>
      <trkpt lat="48.12059" lon="4.30176">
        <ele>155.884949</ele>
        <time>2024-03-14T17:14:16.552Z</time>
      </trkpt>
      <trkpt lat="48.12228" lon="4.30024">
        <ele>161.989299</ele>
        <time>2024-03-14T17:16:06.089Z</time>
      </trkpt>
      <trkpt lat="48.12265" lon="4.29999">
        <ele>163.452575</ele>
        <time>2024-03-14T17:16:28.693Z</time>
      </trkpt>
      <trkpt lat="48.12291" lon="4.29988">
        <ele>163.990769</ele>
        <time>2024-03-14T17:16:43.445Z</time>
      </trkpt>
      <trkpt lat="48.12319" lon="4.29987">
        <ele>164.452989</ele>
        <time>2024-03-14T17:16:57.284Z</time>
      </trkpt>
      <trkpt lat="48.12454" lon="4.3">
        <ele>166.701937</ele>
        <time>2024-03-14T17:17:54.825Z</time>
      </trkpt>
      <trkpt lat="48.12535" lon="4.30001">
        <ele>167.573252</ele>
        <time>2024-03-14T17:18:27.187Z</time>
      </trkpt>
      <trkpt lat="48.12603" lon="4.29999">
        <ele>168.306111</ele>
        <time>2024-03-14T17:18:56.113Z</time>
      </trkpt>
      <trkpt lat="48.12625" lon="4.29995">
        <ele>168.545085</ele>
        <time>2024-03-14T17:19:05.912Z</time>
      </trkpt>
      <trkpt lat="48.12718" lon="4.29968">
        <ele>170.802765</ele>
        <time>2024-03-14T17:19:51.912Z</time>
      </trkpt>
      <trkpt lat="48.12822" lon="4.29928">
        <ele>173.36318</ele>
        <time>2024-03-14T17:20:46.311Z</time>
      </trkpt>
      <trkpt lat="48.12865" lon="4.29899">
        <ele>174.464032</ele>
        <time>2024-03-14T17:21:11.400Z</time>
      </trkpt>
      <trkpt lat="48.12907" lon="4.29856">
        <ele>175.678348</ele>
        <time>2024-03-14T17:21:37.899Z</time>
      </trkpt>
      <trkpt lat="48.12933" lon="4.29827">
        <ele>176.451099</ele>
        <time>2024-03-14T17:21:53.667Z</time>
      </trkpt>
      <trkpt lat="48.12939" lon="4.29816">
        <ele>176.674109</ele>
        <time>2024-03-14T17:21:57.144Z</time>
      </trkpt>
      <trkpt lat="48.12922" lon="4.29792">
        <ele>177.08582</ele>
        <time>2024-03-14T17:22:08.238Z</time>
      </trkpt>
      <trkpt lat="48.12921" lon="4.2978">
        <ele>176.993794</ele>
        <time>2024-03-14T17:22:11.099Z</time>
      </trkpt>
      <trkpt lat="48.1294" lon="4.29719">
        <ele>176.471062</ele>
        <time>2024-03-14T17:22:27.591Z</time>
      </trkpt>
      <trkpt lat="48.12947" lon="4.29701">
        <ele>176.30752</ele>
        <time>2024-03-14T17:22:32.767Z</time>
      </trkpt>
      <trkpt lat="48.13014" lon="4.2962">
        <ele>175.303362</ele>
        <time>2024-03-14T17:23:01.162Z</time>
      </trkpt>
      <trkpt lat="48.13064" lon="4.29574">
        <ele>173.764741</ele>
        <time>2024-03-14T17:23:19.199Z</time>
      </trkpt>
      <trkpt lat="48.1307" lon="4.29562">
        <ele>173.42552</ele>
        <time>2024-03-14T17:23:22.082Z</time>
      </trkpt>
      <trkpt lat="48.13108" lon="4.29583">
        <ele>172.009359</ele>
        <time>2024-03-14T17:23:34.045Z</time>
      </trkpt>
      <trkpt lat="48.13297" lon="4.29694">
        <ele>164.981191</ele>
        <time>2024-03-14T17:24:35.697Z</time>
      </trkpt>
      <trkpt lat="48.13326" lon="4.29712">
        <ele>163.894169</ele>
        <time>2024-03-14T17:24:45.441Z</time>
      </trkpt>
      <trkpt lat="48.1338" lon="4.29732">
        <ele>162.028651</ele>
        <time>2024-03-14T17:25:02.227Z</time>
      </trkpt>
      <trkpt lat="48.13499" lon="4.29765">
        <ele>157.971209</ele>
        <time>2024-03-14T17:25:39.605Z</time>
      </trkpt>
      <trkpt lat="48.1364" lon="4.29789">
        <ele>153.120133</ele>
        <time>2024-03-14T17:26:22.888Z</time>
      </trkpt>
      <trkpt lat="48.13656" lon="4.29795">
        <ele>152.545948</ele>
        <time>2024-03-14T17:26:27.916Z</time>
      </trkpt>
      <trkpt lat="48.13763" lon="4.29813">
        <ele>148.933192</ele>
        <time>2024-03-14T17:27:00.389Z</time>
      </trkpt>
      <trkpt lat="48.13851" lon="4.29837">
        <ele>146.05876</ele>
        <time>2024-03-14T17:27:27.330Z</time>
      </trkpt>
      <trkpt lat="48.1391" lon="4.29856">
        <ele>144.353474</ele>
        <time>2024-03-14T17:27:46.323Z</time>
      </trkpt>
      <trkpt lat="48.13979" lon="4.29886">
        <ele>143.330569</ele>
        <time>2024-03-14T17:28:10.198Z</time>
      </trkpt>
      <trkpt lat="48.13993" lon="4.29901">
        <ele>143.090379</ele>
        <time>2024-03-14T17:28:15.920Z</time>
      </trkpt>
      <trkpt lat="48.14003" lon="4.29927">
        <ele>142.801673</ele>
        <time>2024-03-14T17:28:22.863Z</time>
      </trkpt>
      <trkpt lat="48.14023" lon="4.3">
        <ele>142.052558</ele>
        <time>2024-03-14T17:28:41.499Z</time>
      </trkpt>
      <trkpt lat="48.14032" lon="4.30024">
        <ele>141.954796</ele>
        <time>2024-03-14T17:28:48.253Z</time>
      </trkpt>
      <trkpt lat="48.14043" lon="4.3004">
        <ele>141.911688</ele>
        <time>2024-03-14T17:28:53.680Z</time>
      </trkpt>
      <trkpt lat="48.14052" lon="4.30049">
        <ele>141.878676</ele>
        <time>2024-03-14T17:28:57.856Z</time>
      </trkpt>
      <trkpt lat="48.14038" lon="4.30173">
        <ele>141.634815</ele>
        <time>2024-03-14T17:29:16.229Z</time>
      </trkpt>
      <trkpt lat="48.1403" lon="4.30238">
        <ele>141.506554</ele>
        <time>2024-03-14T17:29:25.682Z</time>
      </trkpt>
      <trkpt lat="48.14028" lon="4.30254">
        <ele>141.474704</ele>
        <time>2024-03-14T17:29:27.945Z</time>
      </trkpt>
      <trkpt lat="48.14027" lon="4.30267">
        <ele>141.449618</ele>
        <time>2024-03-14T17:29:29.718Z</time>
      </trkpt>
      <trkpt lat="48.14072" lon="4.30262">
        <ele>141.314541</ele>
        <time>2024-03-14T17:29:39.242Z</time>
      </trkpt>
      <trkpt lat="48.14108" lon="4.3026">
        <ele>141.208493</ele>
        <time>2024-03-14T17:29:46.845Z</time>
      </trkpt>
      <trkpt lat="48.14148" lon="4.30266">
        <ele>141.09132</ele>
        <time>2024-03-14T17:29:55.365Z</time>
      </trkpt>
      <trkpt lat="48.14179" lon="4.30273">
        <ele>140.997461</ele>
        <time>2024-03-14T17:30:02.214Z</time>
      </trkpt>
      <trkpt lat="48.14209" lon="4.30275">
        <ele>140.940898</ele>
        <time>2024-03-14T17:30:08.662Z</time>
      </trkpt>
      <trkpt lat="48.14293" lon="4.30261">
        <ele>140.935573</ele>
        <time>2024-03-14T17:30:27.513Z</time>
      </trkpt>
      <trkpt lat="48.14312" lon="4.30257">
        <ele>140.934406</ele>
        <time>2024-03-14T17:30:31.604Z</time>
      </trkpt>
      <trkpt lat="48.14279" lon="4.30385">
        <ele>140.953068</ele>
        <time>2024-03-14T17:30:53.585Z</time>
      </trkpt>
      <trkpt lat="48.1425" lon="4.30456">
        <ele>141.001526</ele>
        <time>2024-03-14T17:31:06.547Z</time>
      </trkpt>
      <trkpt lat="48.14239" lon="4.30561">
        <ele>141.06318</ele>
        <time>2024-03-14T17:31:22.909Z</time>
      </trkpt>
      <trkpt lat="48.14233" lon="4.30678">
        <ele>141.491866</ele>
        <time>2024-03-14T17:31:41.546Z</time>
      </trkpt>
      <trkpt lat="48.14234" lon="4.30812">
        <ele>142.210044</ele>
        <time>2024-03-14T17:32:06.587Z</time>
      </trkpt>
      <trkpt lat="48.14235" lon="4.30838">
        <ele>142.351344</ele>
        <time>2024-03-14T17:32:11.834Z</time>
      </trkpt>
      <trkpt lat="48.14229" lon="4.30854">
        <ele>142.447759</ele>
        <time>2024-03-14T17:32:15.377Z</time>
      </trkpt>
      <trkpt lat="48.14236" lon="4.30865">
        <ele>142.532915</ele>
        <time>2024-03-14T17:32:18.689Z</time>
      </trkpt>
      <trkpt lat="48.14234" lon="4.30907">
        <ele>142.776513</ele>
        <time>2024-03-14T17:32:27.786Z</time>
      </trkpt>
      <trkpt lat="48.14227" lon="4.30978">
        <ele>143.187386</ele>
        <time>2024-03-14T17:32:42.738Z</time>
      </trkpt>
      <trkpt lat="48.14207" lon="4.31094">
        <ele>143.86519</ele>
        <time>2024-03-14T17:33:04.980Z</time>
      </trkpt>
      <trkpt lat="48.14188" lon="4.3116">
        <ele>144.004283</ele>
        <time>2024-03-14T17:33:17.941Z</time>
      </trkpt>
      <trkpt lat="48.14163" lon="4.31288">
        <ele>143.780437</ele>
        <time>2024-03-14T17:33:39.182Z</time>
      </trkpt>
      <trkpt lat="48.14137" lon="4.31423">
        <ele>143.564968</ele>
        <time>2024-03-14T17:34:00.888Z</time>
      </trkpt>
      <trkpt lat="48.14132" lon="4.3146">
        <ele>143.521559</ele>
        <time>2024-03-14T17:34:06.743Z</time>
      </trkpt>
      <trkpt lat="48.14132" lon="4.31495">
        <ele>143.481106</ele>
        <time>2024-03-14T17:34:12.316Z</time>
      </trkpt>
      <trkpt lat="48.14135" lon="4.31548">
        <ele>143.419009</ele>
        <time>2024-03-14T17:34:21.122Z</time>
      </trkpt>
      <trkpt lat="48.14164" lon="4.31821">
        <ele>143.300002</ele>
        <time>2024-03-14T17:35:06.893Z</time>
      </trkpt>
      <trkpt lat="48.1417" lon="4.31894">
        <ele>143.300002</ele>
        <time>2024-03-14T17:35:19.035Z</time>
      </trkpt>
      <trkpt lat="48.14166" lon="4.31975">
        <ele>143.284734</ele>
        <time>2024-03-14T17:35:32.449Z</time>
      </trkpt>
      <trkpt lat="48.14158" lon="4.32059">
        <ele>143.262727</ele>
        <time>2024-03-14T17:35:46.423Z</time>
      </trkpt>
      <trkpt lat="48.14144" lon="4.32201">
        <ele>143.2347</ele>
        <time>2024-03-14T17:36:09.939Z</time>
      </trkpt>
      <trkpt lat="48.14144" lon="4.32292">
        <ele>143.258235</ele>
        <time>2024-03-14T17:36:24.960Z</time>
      </trkpt>
      <trkpt lat="48.14148" lon="4.32355">
        <ele>143.274341</ele>
        <time>2024-03-14T17:36:35.394Z</time>
      </trkpt>
      <trkpt lat="48.14176" lon="4.32546">
        <ele>143.368541</ele>
        <time>2024-03-14T17:37:08.508Z</time>
      </trkpt>
      <trkpt lat="48.1418" lon="4.32588">
        <ele>143.397708</ele>
        <time>2024-03-14T17:37:15.637Z</time>
      </trkpt>
      <trkpt lat="48.14179" lon="4.32607">
        <ele>143.41121</ele>
        <time>2024-03-14T17:37:18.947Z</time>
      </trkpt>
      <trkpt lat="48.14172" lon="4.32681">
        <ele>143.463787</ele>
        <time>2024-03-14T17:37:31.611Z</time>
      </trkpt>
      <trkpt lat="48.14158" lon="4.32772">
        <ele>143.443814</ele>
        <time>2024-03-14T17:37:46.999Z</time>
      </trkpt>
      <trkpt lat="48.14115" lon="4.32924">
        <ele>143.320682</ele>
        <time>2024-03-14T17:38:13.673Z</time>
      </trkpt>
      <trkpt lat="48.14108" lon="4.32948">
        <ele>143.301128</ele>
        <time>2024-03-14T17:38:17.871Z</time>
      </trkpt>
      <trkpt lat="48.14034" lon="4.3322">
        <ele>143.003148</ele>
        <time>2024-03-14T17:39:29.545Z</time>
      </trkpt>
      <trkpt lat="48.14027" lon="4.33238">
        <ele>143.028772</ele>
        <time>2024-03-14T17:39:34.684Z</time>
      </trkpt>
      <trkpt lat="48.13993" lon="4.33296">
        <ele>143.125832</ele>
        <time>2024-03-14T17:39:54.349Z</time>
      </trkpt>
      <trkpt lat="48.13969" lon="4.33326">
        <ele>143.183346</ele>
        <time>2024-03-14T17:40:06.089Z</time>
      </trkpt>
      <trkpt lat="48.13933" lon="4.33367">
        <ele>143.267959</ele>
        <time>2024-03-14T17:40:23.515Z</time>
      </trkpt>
      <trkpt lat="48.13891" lon="4.33402">
        <ele>143.366165</ele>
        <time>2024-03-14T17:40:42.053Z</time>
      </trkpt>
      <trkpt lat="48.13854" lon="4.33429">
        <ele>143.471144</ele>
        <time>2024-03-14T17:40:57.944Z</time>
      </trkpt>
      <trkpt lat="48.13714" lon="4.33589">
        <ele>143.933383</ele>
        <time>2024-03-14T17:42:05.253Z</time>
      </trkpt>
      <trkpt lat="48.13699" lon="4.33613">
        <ele>143.994632</ele>
        <time>2024-03-14T17:42:13.774Z</time>
      </trkpt>
      <trkpt lat="48.13679" lon="4.33656">
        <ele>144.090508</ele>
        <time>2024-03-14T17:42:27.070Z</time>
      </trkpt>
      <trkpt lat="48.13651" lon="4.33735">
        <ele>144.256776</ele>
        <time>2024-03-14T17:42:50.038Z</time>
      </trkpt>
      <trkpt lat="48.13627" lon="4.33792">
        <ele>144.418186</ele>
        <time>2024-03-14T17:43:07.311Z</time>
      </trkpt>
      <trkpt lat="48.13555" lon="4.33934">
        <ele>144.891876</ele>
        <time>2024-03-14T17:43:38.888Z</time>
      </trkpt>
      <trkpt lat="48.13533" lon="4.33975">
        <ele>145.046343</ele>
        <time>2024-03-14T17:43:47.972Z</time>
      </trkpt>
      <trkpt lat="48.13531" lon="4.3398">
        <ele>145.073447</ele>
        <time>2024-03-14T17:43:48.997Z</time>
      </trkpt>
      <trkpt lat="48.13526" lon="4.33988">
        <ele>145.117992</ele>
        <time>2024-03-14T17:43:50.736Z</time>
      </trkpt>
      <trkpt lat="48.13463" lon="4.34061">
        <ele>145.639351</ele>
        <time>2024-03-14T17:44:12.680Z</time>
      </trkpt>
      <trkpt lat="48.13379" lon="4.3416">
        <ele>146.167226</ele>
        <time>2024-03-14T17:44:40.847Z</time>
      </trkpt>
      <trkpt lat="48.13301" lon="4.34254">
        <ele>146.146119</ele>
        <time>2024-03-14T17:45:04.616Z</time>
      </trkpt>
      <trkpt lat="48.13279" lon="4.34277">
        <ele>146.140486</ele>
        <time>2024-03-14T17:45:10.477Z</time>
      </trkpt>
      <trkpt lat="48.1324" lon="4.3431">
        <ele>146.035373</ele>
        <time>2024-03-14T17:45:20.115Z</time>
      </trkpt>
      <trkpt lat="48.13228" lon="4.34323">
        <ele>145.946424</ele>
        <time>2024-03-14T17:45:23.254Z</time>
      </trkpt>
      <trkpt lat="48.13214" lon="4.34343">
        <ele>145.830892</ele>
        <time>2024-03-14T17:45:27.337Z</time>
      </trkpt>
      <trkpt lat="48.13195" lon="4.34379">
        <ele>145.647948</ele>
        <time>2024-03-14T17:45:33.802Z</time>
      </trkpt>
      <trkpt lat="48.13127" lon="4.34539">
        <ele>145.043865</ele>
        <time>2024-03-14T17:46:01.307Z</time>
      </trkpt>
      <trkpt lat="48.13066" lon="4.34652">
        <ele>145.005984</ele>
        <time>2024-03-14T17:46:23.962Z</time>
      </trkpt>
      <trkpt lat="48.13045" lon="4.34707">
        <ele>144.989573</ele>
        <time>2024-03-14T17:46:34.131Z</time>
      </trkpt>
      <trkpt lat="48.13035" lon="4.34754">
        <ele>145.045929</ele>
        <time>2024-03-14T17:46:42.114Z</time>
      </trkpt>
      <trkpt lat="48.1302" lon="4.34852">
        <ele>145.251757</ele>
        <time>2024-03-14T17:46:58.565Z</time>
      </trkpt>
      <trkpt lat="48.12933" lon="4.35202">
        <ele>146.133359</ele>
        <time>2024-03-14T17:48:00.845Z</time>
      </trkpt>
      <trkpt lat="48.12874" lon="4.35509">
        <ele>147.085167</ele>
        <time>2024-03-14T17:48:55.200Z</time>
      </trkpt>
      <trkpt lat="48.12859" lon="4.35586">
        <ele>147.385312</ele>
        <time>2024-03-14T17:49:08.653Z</time>
      </trkpt>
      <trkpt lat="48.12854" lon="4.35612">
        <ele>147.485414</ele>
        <time>2024-03-14T17:49:12.941Z</time>
      </trkpt>
      <trkpt lat="48.12828" lon="4.35601">
        <ele>147.636892</ele>
        <time>2024-03-14T17:49:19.722Z</time>
      </trkpt>
      <trkpt lat="48.12822" lon="4.35602">
        <ele>147.671822</ele>
        <time>2024-03-14T17:49:21.299Z</time>
      </trkpt>
      <trkpt lat="48.12818" lon="4.35608">
        <ele>147.702243</ele>
        <time>2024-03-14T17:49:22.779Z</time>
      </trkpt>
      <trkpt lat="48.12783" lon="4.35804">
        <ele>148.444271</ele>
        <time>2024-03-14T17:50:00.275Z</time>
      </trkpt>
      <trkpt lat="48.12774" lon="4.35856">
        <ele>148.639764</ele>
        <time>2024-03-14T17:50:09.763Z</time>
      </trkpt>
      <trkpt lat="48.12755" lon="4.35966">
        <ele>148.982776</ele>
        <time>2024-03-14T17:50:27.954Z</time>
      </trkpt>
      <trkpt lat="48.12764" lon="4.35971">
        <ele>148.951781</ele>
        <time>2024-03-14T17:50:30.383Z</time>
      </trkpt>
      <trkpt lat="48.12822" lon="4.35995">
        <ele>148.770894</ele>
        <time>2024-03-14T17:50:43.045Z</time>
      </trkpt>
      <trkpt lat="48.12846" lon="4.36005">
        <ele>148.692764</ele>
        <time>2024-03-14T17:50:48.354Z</time>
      </trkpt>
      <trkpt lat="48.12874" lon="4.36018">
        <ele>148.605606</ele>
        <time>2024-03-14T17:50:54.334Z</time>
      </trkpt>
      <trkpt lat="48.1293" lon="4.36041">
        <ele>148.4641</ele>
        <time>2024-03-14T17:51:06.488Z</time>
      </trkpt>
      <trkpt lat="48.12947" lon="4.36048">
        <ele>148.471909</ele>
        <time>2024-03-14T17:51:10.410Z</time>
      </trkpt>
      <trkpt lat="48.12965" lon="4.36047">
        <ele>148.479639</ele>
        <time>2024-03-14T17:51:14.291Z</time>
      </trkpt>
      <trkpt lat="48.12965" lon="4.36063">
        <ele>148.484473</ele>
        <time>2024-03-14T17:51:16.999Z</time>
      </trkpt>
      <trkpt lat="48.12945" lon="4.36169">
        <ele>148.516689</ele>
        <time>2024-03-14T17:51:35.109Z</time>
      </trkpt>
      <trkpt lat="48.12936" lon="4.36263">
        <ele>148.491732</ele>
        <time>2024-03-14T17:51:50.378Z</time>
      </trkpt>
      <trkpt lat="48.12908" lon="4.3636">
        <ele>148.24579</ele>
        <time>2024-03-14T17:52:06.097Z</time>
      </trkpt>
      <trkpt lat="48.12872" lon="4.36516">
        <ele>147.91093</ele>
        <time>2024-03-14T17:52:31.738Z</time>
      </trkpt>
      <trkpt lat="48.12868" lon="4.36519">
        <ele>147.911003</ele>
        <time>2024-03-14T17:52:32.775Z</time>
      </trkpt>
      <trkpt lat="48.12859" lon="4.36518">
        <ele>147.911143</ele>
        <time>2024-03-14T17:52:34.762Z</time>
      </trkpt>
      <trkpt lat="48.12801" lon="4.36478">
        <ele>147.91218</ele>
        <time>2024-03-14T17:52:50.265Z</time>
      </trkpt>
      <trkpt lat="48.12789" lon="4.36477">
        <ele>147.912368</ele>
        <time>2024-03-14T17:52:53.089Z</time>
      </trkpt>
      <trkpt lat="48.12779" lon="4.36489">
        <ele>147.912575</ele>
        <time>2024-03-14T17:52:58.169Z</time>
      </trkpt>
      <trkpt lat="48.127" lon="4.36672">
        <ele>148.219474</ele>
        <time>2024-03-14T17:53:55.757Z</time>
      </trkpt>
      <trkpt lat="48.12682" lon="4.36714">
        <ele>148.34268</ele>
        <time>2024-03-14T17:54:08.515Z</time>
      </trkpt>
      <trkpt lat="48.12675" lon="4.36758">
        <ele>148.453498</ele>
        <time>2024-03-14T17:54:19.847Z</time>
      </trkpt>
      <trkpt lat="48.12677" lon="4.36994">
        <ele>148.968832</ele>
        <time>2024-03-14T17:55:20.456Z</time>
      </trkpt>
      <trkpt lat="48.12674" lon="4.37059">
        <ele>149.105631</ele>
        <time>2024-03-14T17:55:37.546Z</time>
      </trkpt>
      <trkpt lat="48.12679" lon="4.37166">
        <ele>149.250669</ele>
        <time>2024-03-14T17:56:05.353Z</time>
      </trkpt>
      <trkpt lat="48.12668" lon="4.37263">
        <ele>149.366095</ele>
        <time>2024-03-14T17:56:30.178Z</time>
      </trkpt>
      <trkpt lat="48.12664" lon="4.37326">
        <ele>149.440594</ele>
        <time>2024-03-14T17:56:45.874Z</time>
      </trkpt>
      <trkpt lat="48.12609" lon="4.37446">
        <ele>149.360993</ele>
        <time>2024-03-14T17:57:21.553Z</time>
      </trkpt>
      <trkpt lat="48.12574" lon="4.37513">
        <ele>149.291244</ele>
        <time>2024-03-14T17:57:42.021Z</time>
      </trkpt>
      <trkpt lat="48.1252" lon="4.37595">
        <ele>149.338694</ele>
        <time>2024-03-14T17:58:10.855Z</time>
      </trkpt>
      <trkpt lat="48.12487" lon="4.37639">
        <ele>149.449151</ele>
        <time>2024-03-14T17:58:22.175Z</time>
      </trkpt>
      <trkpt lat="48.12414" lon="4.37718">
        <ele>149.676974</ele>
        <time>2024-03-14T17:58:46.205Z</time>
      </trkpt>
      <trkpt lat="48.12359" lon="4.37772">
        <ele>149.859741</ele>
        <time>2024-03-14T17:59:03.535Z</time>
      </trkpt>
      <trkpt lat="48.12297" lon="4.37821">
        <ele>150.053363</ele>
        <time>2024-03-14T17:59:22.010Z</time>
      </trkpt>
      <trkpt lat="48.12247" lon="4.37837">
        <ele>150.19439</ele>
        <time>2024-03-14T17:59:35.106Z</time>
      </trkpt>
      <trkpt lat="48.12225" lon="4.37835">
        <ele>150.21942</ele>
        <time>2024-03-14T17:59:40.816Z</time>
      </trkpt>
      <trkpt lat="48.12188" lon="4.37844">
        <ele>150.258552</ele>
        <time>2024-03-14T17:59:50.534Z</time>
      </trkpt>
      <trkpt lat="48.12162" lon="4.37855">
        <ele>150.285573</ele>
        <time>2024-03-14T17:59:57.157Z</time>
      </trkpt>
      <trkpt lat="48.12097" lon="4.37896">
        <ele>150.358608</ele>
        <time>2024-03-14T18:00:14.967Z</time>
      </trkpt>
      <trkpt lat="48.12078" lon="4.37905">
        <ele>150.379293</ele>
        <time>2024-03-14T18:00:19.961Z</time>
      </trkpt>
      <trkpt lat="48.12053" lon="4.37912">
        <ele>150.390564</ele>
        <time>2024-03-14T18:00:27.423Z</time>
      </trkpt>
      <trkpt lat="48.11992" lon="4.3795">
        <ele>150.414075</ele>
        <time>2024-03-14T18:00:46.683Z</time>
      </trkpt>
      <trkpt lat="48.11983" lon="4.37961">
        <ele>150.418177</ele>
        <time>2024-03-14T18:00:49.944Z</time>
      </trkpt>
      <trkpt lat="48.11965" lon="4.37972">
        <ele>150.425318</ele>
        <time>2024-03-14T18:00:55.806Z</time>
      </trkpt>
      <trkpt lat="48.11836" lon="4.3805">
        <ele>150.651133</ele>
        <time>2024-03-14T18:01:36.856Z</time>
      </trkpt>
      <trkpt lat="48.1177" lon="4.38088">
        <ele>150.836721</ele>
        <time>2024-03-14T18:01:59.069Z</time>
      </trkpt>
      <trkpt lat="48.1174" lon="4.38095">
        <ele>150.916388</ele>
        <time>2024-03-14T18:02:08.970Z</time>
      </trkpt>
      <trkpt lat="48.11575" lon="4.38077">
        <ele>151.083534</ele>
        <time>2024-03-14T18:02:58.936Z</time>
      </trkpt>
      <trkpt lat="48.1156" lon="4.38004">
        <ele>151.060751</ele>
        <time>2024-03-14T18:03:09.487Z</time>
      </trkpt>
      <trkpt lat="48.1155" lon="4.37951">
        <ele>151.022426</ele>
        <time>2024-03-14T18:03:17.268Z</time>
      </trkpt>
      <trkpt lat="48.11527" lon="4.3784">
        <ele>150.942132</ele>
        <time>2024-03-14T18:03:33.948Z</time>
      </trkpt>
      <trkpt lat="48.11525" lon="4.37834">
        <ele>150.937069</ele>
        <time>2024-03-14T18:03:34.960Z</time>
      </trkpt>
      <trkpt lat="48.11481" lon="4.37675">
        <ele>151.638808</ele>
        <time>2024-03-14T18:04:05.291Z</time>
      </trkpt>
      <trkpt lat="48.11479" lon="4.37667">
        <ele>151.684527</ele>
        <time>2024-03-14T18:04:06.901Z</time>
      </trkpt>
      <trkpt lat="48.11475" lon="4.3765">
        <ele>151.781075</ele>
        <time>2024-03-14T18:04:10.503Z</time>
      </trkpt>
      <trkpt lat="48.11471" lon="4.37652">
        <ele>151.812636</ele>
        <time>2024-03-14T18:04:11.640Z</time>
      </trkpt>
      <trkpt lat="48.11453" lon="4.37548">
        <ele>152.354928</ele>
        <time>2024-03-14T18:04:31.927Z</time>
      </trkpt>
      <trkpt lat="48.11494" lon="4.37524">
        <ele>152.249909</ele>
        <time>2024-03-14T18:04:42.384Z</time>
      </trkpt>
      <trkpt lat="48.11494" lon="4.37506">
        <ele>152.222582</ele>
        <time>2024-03-14T18:04:45.175Z</time>
      </trkpt>
      <trkpt lat="48.115" lon="4.37498">
        <ele>152.20333</ele>
        <time>2024-03-14T18:04:47.055Z</time>
      </trkpt>
      <trkpt lat="48.1151" lon="4.37496">
        <ele>152.178854</ele>
        <time>2024-03-14T18:04:49.397Z</time>
      </trkpt>
      <trkpt lat="48.11512" lon="4.37499">
        <ele>152.171743</ele>
        <time>2024-03-14T18:04:50.093Z</time>
      </trkpt>
      <trkpt lat="48.11531" lon="4.37499">
        <ele>152.126569</ele>
        <time>2024-03-14T18:04:54.767Z</time>
      </trkpt>
      <trkpt lat="48.11535" lon="4.3758">
        <ele>151.998456</ele>
        <time>2024-03-14T18:05:06.389Z</time>
      </trkpt>
      <trkpt lat="48.11533" lon="4.37604">
        <ele>151.961651</ele>
        <time>2024-03-14T18:05:09.673Z</time>
      </trkpt>
      <trkpt lat="48.11535" lon="4.37622">
        <ele>151.923111</ele>
        <time>2024-03-14T18:05:12.081Z</time>
      </trkpt>
      <trkpt lat="48.11505" lon="4.37639">
        <ele>151.69755</ele>
        <time>2024-03-14T18:05:18.284Z</time>
      </trkpt>
      <trkpt lat="48.11475" lon="4.3765">
        <ele>151.481441</ele>
        <time>2024-03-14T18:05:24.241Z</time>
      </trkpt>
      <trkpt lat="48.11479" lon="4.37667">
        <ele>151.396886</ele>
        <time>2024-03-14T18:05:26.448Z</time>
      </trkpt>
      <trkpt lat="48.11481" lon="4.37675">
        <ele>151.356846</ele>
        <time>2024-03-14T18:05:27.596Z</time>
      </trkpt>
      <trkpt lat="48.11525" lon="4.37834">
        <ele>150.689913</ele>
        <time>2024-03-14T18:05:51.953Z</time>
      </trkpt>
      <trkpt lat="48.11527" lon="4.3784">
        <ele>150.696699</ele>
        <time>2024-03-14T18:05:53.332Z</time>
      </trkpt>
      <trkpt lat="48.1155" lon="4.37951">
        <ele>150.804328</ele>
        <time>2024-03-14T18:06:11.001Z</time>
      </trkpt>
      <trkpt lat="48.1156" lon="4.38004">
        <ele>150.855701</ele>
        <time>2024-03-14T18:06:19.175Z</time>
      </trkpt>
      <trkpt lat="48.11575" lon="4.38077">
        <ele>150.97226</ele>
        <time>2024-03-14T18:06:31.789Z</time>
      </trkpt>
      <trkpt lat="48.11596" lon="4.38215">
        <ele>151.707359</ele>
        <time>2024-03-14T18:06:55.845Z</time>
      </trkpt>
      <trkpt lat="48.1161" lon="4.38306">
        <ele>152.191184</ele>
        <time>2024-03-14T18:07:12.310Z</time>
      </trkpt>
      <trkpt lat="48.11617" lon="4.38348">
        <ele>152.654003</ele>
        <time>2024-03-14T18:07:20.092Z</time>
      </trkpt>
      <trkpt lat="48.1162" lon="4.38368">
        <ele>153.023647</ele>
        <time>2024-03-14T18:07:24.086Z</time>
      </trkpt>
      <trkpt lat="48.11631" lon="4.38442">
        <ele>154.375725</ele>
        <time>2024-03-14T18:07:39.657Z</time>
      </trkpt>
      <trkpt lat="48.11648" lon="4.38553">
        <ele>156.406444</ele>
        <time>2024-03-14T18:08:09.829Z</time>
      </trkpt>
      <trkpt lat="48.1165" lon="4.38597">
        <ele>157.219464</ele>
        <time>2024-03-14T18:08:22.027Z</time>
      </trkpt>
      <trkpt lat="48.11646" lon="4.38609">
        <ele>157.610648</ele>
        <time>2024-03-14T18:08:26.056Z</time>
      </trkpt>
      <trkpt lat="48.11649" lon="4.38627">
        <ele>158.138628</ele>
        <time>2024-03-14T18:08:31.191Z</time>
      </trkpt>
      <trkpt lat="48.11656" lon="4.38634">
        <ele>158.486527</ele>
        <time>2024-03-14T18:08:34.558Z</time>
      </trkpt>
      <trkpt lat="48.11664" lon="4.38634">
        <ele>158.830566</ele>
        <time>2024-03-14T18:08:37.801Z</time>
      </trkpt>
      <trkpt lat="48.11669" lon="4.38666">
        <ele>159.725149</ele>
        <time>2024-03-14T18:08:47.295Z</time>
      </trkpt>
      <trkpt lat="48.1168" lon="4.3872">
        <ele>161.312106</ele>
        <time>2024-03-14T18:09:04.267Z</time>
      </trkpt>
      <trkpt lat="48.11691" lon="4.38785">
        <ele>163.195478</ele>
        <time>2024-03-14T18:09:24.415Z</time>
      </trkpt>
      <trkpt lat="48.11699" lon="4.38848">
        <ele>164.961766</ele>
        <time>2024-03-14T18:09:43.957Z</time>
      </trkpt>
      <trkpt lat="48.117" lon="4.3886">
        <ele>165.284998</ele>
        <time>2024-03-14T18:09:47.804Z</time>
      </trkpt>
      <trkpt lat="48.11701" lon="4.3887">
        <ele>165.539672</ele>
        <time>2024-03-14T18:09:50.924Z</time>
      </trkpt>
      <trkpt lat="48.1171" lon="4.38954">
        <ele>167.782546</ele>
        <time>2024-03-14T18:10:16.138Z</time>
      </trkpt>
      <trkpt lat="48.11717" lon="4.38994">
        <ele>168.860004</ele>
        <time>2024-03-14T18:10:27.420Z</time>
      </trkpt>
      <trkpt lat="48.1175" lon="4.39129">
        <ele>172.276485</ele>
        <time>2024-03-14T18:11:07.989Z</time>
      </trkpt>
      <trkpt lat="48.11796" lon="4.39305">
        <ele>175.256871</ele>
        <time>2024-03-14T18:12:09.750Z</time>
      </trkpt>
      <trkpt lat="48.11803" lon="4.39344">
        <ele>175.899125</ele>
        <time>2024-03-14T18:12:21.558Z</time>
      </trkpt>
      <trkpt lat="48.11815" lon="4.39428">
        <ele>176.266447</ele>
        <time>2024-03-14T18:12:45.560Z</time>
      </trkpt>
      <trkpt lat="48.11819" lon="4.39491">
        <ele>176.497713</ele>
        <time>2024-03-14T18:13:02.429Z</time>
      </trkpt>
      <trkpt lat="48.1182" lon="4.39561">
        <ele>176.749554</ele>
        <time>2024-03-14T18:13:19.644Z</time>
      </trkpt>
      <trkpt lat="48.11832" lon="4.39679">
        <ele>177.371044</ele>
        <time>2024-03-14T18:13:49.049Z</time>
      </trkpt>
      <trkpt lat="48.11865" lon="4.39825">
        <ele>178.392214</ele>
        <time>2024-03-14T18:14:31.042Z</time>
      </trkpt>
      <trkpt lat="48.11872" lon="4.39844">
        <ele>178.537816</ele>
        <time>2024-03-14T18:14:37.898Z</time>
      </trkpt>
      <trkpt lat="48.1189" lon="4.39894">
        <ele>179.337365</ele>
        <time>2024-03-14T18:14:56.841Z</time>
      </trkpt>
      <trkpt lat="48.11901" lon="4.39938">
        <ele>180.400075</ele>
        <time>2024-03-14T18:15:13.342Z</time>
      </trkpt>
      <trkpt lat="48.11911" lon="4.40007">
        <ele>181.989671</ele>
        <time>2024-03-14T18:15:39.118Z</time>
      </trkpt>
      <trkpt lat="48.11907" lon="4.40086">
        <ele>183.761693</ele>
        <time>2024-03-14T18:16:08.213Z</time>
      </trkpt>
      <trkpt lat="48.11886" lon="4.40169">
        <ele>186.138927</ele>
        <time>2024-03-14T18:16:42.292Z</time>
      </trkpt>
      <trkpt lat="48.11827" lon="4.40368">
        <ele>192.955862</ele>
        <time>2024-03-14T18:18:10.007Z</time>
      </trkpt>
      <trkpt lat="48.11783" lon="4.40574">
        <ele>201.378741</ele>
        <time>2024-03-14T18:19:47.175Z</time>
      </trkpt>
      <trkpt lat="48.1178" lon="4.406">
        <ele>202.45078</ele>
        <time>2024-03-14T18:20:00.482Z</time>
      </trkpt>
      <trkpt lat="48.1178" lon="4.40639">
        <ele>203.93084</ele>
        <time>2024-03-14T18:20:18.819Z</time>
      </trkpt>
      <trkpt lat="48.11806" lon="4.40846">
        <ele>210.29541</ele>
        <time>2024-03-14T18:21:44.615Z</time>
      </trkpt>
      <trkpt lat="48.11825" lon="4.40906">
        <ele>212.219385</ele>
        <time>2024-03-14T18:22:07.138Z</time>
      </trkpt>
      <trkpt lat="48.11832" lon="4.40929">
        <ele>212.75442</ele>
        <time>2024-03-14T18:22:15.340Z</time>
      </trkpt>
      <trkpt lat="48.11876" lon="4.41033">
        <ele>215.446517</ele>
        <time>2024-03-14T18:22:57.803Z</time>
      </trkpt>
      <trkpt lat="48.11881" lon="4.41061">
        <ele>216.083365</ele>
        <time>2024-03-14T18:23:08.048Z</time>
      </trkpt>
      <trkpt lat="48.11879" lon="4.41079">
        <ele>216.471781</ele>
        <time>2024-03-14T18:23:14.279Z</time>
      </trkpt>
      <trkpt lat="48.11866" lon="4.41128">
        <ele>217.637818</ele>
        <time>2024-03-14T18:23:33.909Z</time>
      </trkpt>
      <trkpt lat="48.11817" lon="4.41261">
        <ele>221.738258</ele>
        <time>2024-03-14T18:24:33.366Z</time>
      </trkpt>
      <trkpt lat="48.1179" lon="4.41371">
        <ele>224.963629</ele>
        <time>2024-03-14T18:25:19.782Z</time>
      </trkpt>
      <trkpt lat="48.11788" lon="4.41496">
        <ele>227.305115</ele>
        <time>2024-03-14T18:26:04.306Z</time>
      </trkpt>
      <trkpt lat="48.11825" lon="4.41629">
        <ele>229.86684</ele>
        <time>2024-03-14T18:26:48.960Z</time>
      </trkpt>
      <trkpt lat="48.1189" lon="4.41863">
        <ele>234.58049</ele>
        <time>2024-03-14T18:28:12.214Z</time>
      </trkpt>
      <trkpt lat="48.11902" lon="4.4195">
        <ele>237.293878</ele>
        <time>2024-03-14T18:28:48.132Z</time>
      </trkpt>
      <trkpt lat="48.11897" lon="4.41969">
        <ele>238.008224</ele>
        <time>2024-03-14T18:28:56.682Z</time>
      </trkpt>
      <trkpt lat="48.11859" lon="4.42069">
        <ele>242.054911</ele>
        <time>2024-03-14T18:29:45.789Z</time>
      </trkpt>
      <trkpt lat="48.11851" lon="4.42174">
        <ele>246.110599</ele>
        <time>2024-03-14T18:30:33.804Z</time>
      </trkpt>
      <trkpt lat="48.11841" lon="4.42262">
        <ele>250.194607</ele>
        <time>2024-03-14T18:31:15.488Z</time>
      </trkpt>
      <trkpt lat="48.11828" lon="4.42282">
        <ele>251.493829</ele>
        <time>2024-03-14T18:31:28.804Z</time>
      </trkpt>
      <trkpt lat="48.11781" lon="4.42358">
        <ele>256.230667</ele>
        <time>2024-03-14T18:32:18.634Z</time>
      </trkpt>
      <trkpt lat="48.11757" lon="4.4243">
        <ele>260.627526</ele>
        <time>2024-03-14T18:32:59.764Z</time>
      </trkpt>
      <trkpt lat="48.11719" lon="4.42492">
        <ele>265.426751</ele>
        <time>2024-03-14T18:33:45.783Z</time>
      </trkpt>
      <trkpt lat="48.11673" lon="4.42556">
        <ele>270.784191</ele>
        <time>2024-03-14T18:34:38.055Z</time>
      </trkpt>
      <trkpt lat="48.11589" lon="4.42629">
        <ele>277.324449</ele>
        <time>2024-03-14T18:35:54.983Z</time>
      </trkpt>
      <trkpt lat="48.11575" lon="4.42649">
        <ele>278.508844</ele>
        <time>2024-03-14T18:36:08.455Z</time>
      </trkpt>
      <trkpt lat="48.1156" lon="4.42672">
        <ele>279.905591</ele>
        <time>2024-03-14T18:36:23.668Z</time>
      </trkpt>
      <trkpt lat="48.1155" lon="4.42715">
        <ele>281.838678</ele>
        <time>2024-03-14T18:36:42.529Z</time>
      </trkpt>
      <trkpt lat="48.11543" lon="4.42752">
        <ele>283.442539</ele>
        <time>2024-03-14T18:37:00.095Z</time>
      </trkpt>
      <trkpt lat="48.11514" lon="4.42799">
        <ele>283.24681</ele>
        <time>2024-03-14T18:37:29.972Z</time>
      </trkpt>
      <trkpt lat="48.1149" lon="4.42817">
        <ele>282.985937</ele>
        <time>2024-03-14T18:37:48.847Z</time>
      </trkpt>
      <trkpt lat="48.1148" lon="4.42816">
        <ele>282.896769</ele>
        <time>2024-03-14T18:37:55.322Z</time>
      </trkpt>
      <trkpt lat="48.11473" lon="4.42822">
        <ele>282.81821</ele>
        <time>2024-03-14T18:38:01.049Z</time>
      </trkpt>
      <trkpt lat="48.11432" lon="4.42876">
        <ele>282.297329</ele>
        <time>2024-03-14T18:38:18.617Z</time>
      </trkpt>
      <trkpt lat="48.1142" lon="4.42896">
        <ele>282.117166</ele>
        <time>2024-03-14T18:38:24.313Z</time>
      </trkpt>
      <trkpt lat="48.11375" lon="4.42967">
        <ele>279.727162</ele>
        <time>2024-03-14T18:38:43.015Z</time>
      </trkpt>
      <trkpt lat="48.11369" lon="4.42982">
        <ele>279.164476</ele>
        <time>2024-03-14T18:38:46.129Z</time>
      </trkpt>
      <trkpt lat="48.11372" lon="4.4304">
        <ele>277.215834</ele>
        <time>2024-03-14T18:38:56.989Z</time>
      </trkpt>
      <trkpt lat="48.11377" lon="4.43189">
        <ele>272.072204</ele>
        <time>2024-03-14T18:39:25.934Z</time>
      </trkpt>
      <trkpt lat="48.1129" lon="4.43181">
        <ele>266.912346</ele>
        <time>2024-03-14T18:39:41.395Z</time>
      </trkpt>
      <trkpt lat="48.11272" lon="4.43183">
        <ele>265.797232</ele>
        <time>2024-03-14T18:39:44.654Z</time>
      </trkpt>
      <trkpt lat="48.11265" lon="4.43187">
        <ele>265.348056</ele>
        <time>2024-03-14T18:39:45.965Z</time>
      </trkpt>
      <trkpt lat="48.11259" lon="4.43195">
        <ele>264.913327</ele>
        <time>2024-03-14T18:39:47.258Z</time>
      </trkpt>
      <trkpt lat="48.11256" lon="4.43204">
        <ele>264.487815</ele>
        <time>2024-03-14T18:39:48.407Z</time>
      </trkpt>
      <trkpt lat="48.11255" lon="4.43222">
        <ele>263.788949</ele>
        <time>2024-03-14T18:39:50.280Z</time>
      </trkpt>
      <trkpt lat="48.11274" lon="4.4329">
        <ele>259.638812</ele>
        <time>2024-03-14T18:39:58.020Z</time>
      </trkpt>
      <trkpt lat="48.11276" lon="4.43313">
        <ele>257.773535</ele>
        <time>2024-03-14T18:40:00.481Z</time>
      </trkpt>
      <trkpt lat="48.11272" lon="4.43347">
        <ele>255.144763</ele>
        <time>2024-03-14T18:40:03.895Z</time>
      </trkpt>
      <trkpt lat="48.11223" lon="4.43538">
        <ele>238.330628</ele>
        <time>2024-03-14T18:40:23.464Z</time>
      </trkpt>
      <trkpt lat="48.112" lon="4.43592">
        <ele>231.269348</ele>
        <time>2024-03-14T18:40:29.476Z</time>
      </trkpt>
      <trkpt lat="48.11178" lon="4.43675">
        <ele>221.519051</ele>
        <time>2024-03-14T18:40:37.723Z</time>
      </trkpt>
      <trkpt lat="48.11164" lon="4.43738">
        <ele>214.254956</ele>
        <time>2024-03-14T18:40:43.864Z</time>
      </trkpt>
      <trkpt lat="48.11155" lon="4.43758">
        <ele>211.649976</ele>
        <time>2024-03-14T18:40:46.070Z</time>
      </trkpt>
      <trkpt lat="48.11113" lon="4.43839">
        <ele>202.619524</ele>
        <time>2024-03-14T18:40:55.589Z</time>
      </trkpt>
      <trkpt lat="48.11081" lon="4.43873">
        <ele>197.401427</ele>
        <time>2024-03-14T18:41:01.213Z</time>
      </trkpt>
      <trkpt lat="48.1102" lon="4.43913">
        <ele>188.588037</ele>
        <time>2024-03-14T18:41:10.990Z</time>
      </trkpt>
      <trkpt lat="48.11005" lon="4.43928">
        <ele>187.29659</ele>
        <time>2024-03-14T18:41:13.803Z</time>
      </trkpt>
      <trkpt lat="48.11004" lon="4.43941">
        <ele>186.885617</ele>
        <time>2024-03-14T18:41:15.168Z</time>
      </trkpt>
      <trkpt lat="48.10961" lon="4.43948">
        <ele>184.940392</ele>
        <time>2024-03-14T18:41:21.646Z</time>
      </trkpt>
      <trkpt lat="48.10947" lon="4.43947">
        <ele>184.310308</ele>
        <time>2024-03-14T18:41:23.937Z</time>
      </trkpt>
      <trkpt lat="48.10928" lon="4.43978">
        <ele>183.01854</ele>
        <time>2024-03-14T18:41:28.565Z</time>
      </trkpt>
      <trkpt lat="48.1092" lon="4.43992">
        <ele>182.455378</ele>
        <time>2024-03-14T18:41:30.813Z</time>
      </trkpt>
      <trkpt lat="48.10889" lon="4.44077">
        <ele>179.678381</ele>
        <time>2024-03-14T18:41:42.915Z</time>
      </trkpt>
      <trkpt lat="48.10877" lon="4.44103">
        <ele>179.667452</ele>
        <time>2024-03-14T18:41:47.079Z</time>
      </trkpt>
      <trkpt lat="48.10875" lon="4.44106">
        <ele>179.665655</ele>
        <time>2024-03-14T18:41:47.733Z</time>
      </trkpt>
      <trkpt lat="48.10827" lon="4.44164">
        <ele>179.633376</ele>
        <time>2024-03-14T18:42:00.741Z</time>
      </trkpt>
      <trkpt lat="48.10811" lon="4.44212">
        <ele>179.614441</ele>
        <time>2024-03-14T18:42:09.267Z</time>
      </trkpt>
      <trkpt lat="48.10802" lon="4.44255">
        <ele>179.598267</ele>
        <time>2024-03-14T18:42:17.186Z</time>
      </trkpt>
      <trkpt lat="48.108" lon="4.44266">
        <ele>179.594325</ele>
        <time>2024-03-14T18:42:19.217Z</time>
      </trkpt>
      <trkpt lat="48.10791" lon="4.44325">
        <ele>180.107183</ele>
        <time>2024-03-14T18:42:30.283Z</time>
      </trkpt>
      <trkpt lat="48.10783" lon="4.44384">
        <ele>181.012745</ele>
        <time>2024-03-14T18:42:41.296Z</time>
      </trkpt>
      <trkpt lat="48.10765" lon="4.44524">
        <ele>183.154805</ele>
        <time>2024-03-14T18:43:14.177Z</time>
      </trkpt>
      <trkpt lat="48.10755" lon="4.44597">
        <ele>185.245436</ele>
        <time>2024-03-14T18:43:34.932Z</time>
      </trkpt>
      <trkpt lat="48.10752" lon="4.4462">
        <ele>186.119811</ele>
        <time>2024-03-14T18:43:42.255Z</time>
      </trkpt>
      <trkpt lat="48.1074" lon="4.44693">
        <ele>188.902403</ele>
        <time>2024-03-14T18:44:06.262Z</time>
      </trkpt>
      <trkpt lat="48.10729" lon="4.44745">
        <ele>190.957135</ele>
        <time>2024-03-14T18:44:25.962Z</time>
      </trkpt>
      <trkpt lat="48.10728" lon="4.44757">
        <ele>191.413519</ele>
        <time>2024-03-14T18:44:30.365Z</time>
      </trkpt>
      <trkpt lat="48.10728" lon="4.44785">
        <ele>192.459976</ele>
        <time>2024-03-14T18:44:41.083Z</time>
      </trkpt>
      <trkpt lat="48.10723" lon="4.44813">
        <ele>193.551863</ele>
        <time>2024-03-14T18:44:52.323Z</time>
      </trkpt>
      <trkpt lat="48.10715" lon="4.44835">
        <ele>194.788895</ele>
        <time>2024-03-14T18:45:02.216Z</time>
      </trkpt>
      <trkpt lat="48.107" lon="4.44868">
        <ele>196.946447</ele>
        <time>2024-03-14T18:45:18.545Z</time>
      </trkpt>
      <trkpt lat="48.10687" lon="4.44901">
        <ele>198.999107</ele>
        <time>2024-03-14T18:45:34.733Z</time>
      </trkpt>
      <trkpt lat="48.1068" lon="4.44938">
        <ele>201.036049</ele>
        <time>2024-03-14T18:45:50.759Z</time>
      </trkpt>
      <trkpt lat="48.1068" lon="4.44967">
        <ele>202.594104</ele>
        <time>2024-03-14T18:46:02.931Z</time>
      </trkpt>
      <trkpt lat="48.10686" lon="4.45014">
        <ele>205.140962</ele>
        <time>2024-03-14T18:46:23.424Z</time>
      </trkpt>
      <trkpt lat="48.10696" lon="4.45061">
        <ele>207.737442</ele>
        <time>2024-03-14T18:46:44.440Z</time>
      </trkpt>
      <trkpt lat="48.10698" lon="4.45095">
        <ele>209.88043</ele>
        <time>2024-03-14T18:47:00.150Z</time>
      </trkpt>
      <trkpt lat="48.10731" lon="4.45283">
        <ele>222.125619</ele>
        <time>2024-03-14T18:48:30.465Z</time>
      </trkpt>
      <trkpt lat="48.10747" lon="4.45405">
        <ele>230.870505</ele>
        <time>2024-03-14T18:49:33.959Z</time>
      </trkpt>
      <trkpt lat="48.10749" lon="4.45453">
        <ele>234.460115</ele>
        <time>2024-03-14T18:49:59.559Z</time>
      </trkpt>
      <trkpt lat="48.10743" lon="4.45487">
        <ele>237.094402</ele>
        <time>2024-03-14T18:50:18.666Z</time>
      </trkpt>
      <trkpt lat="48.10724" lon="4.45562">
        <ele>243.079733</ele>
        <time>2024-03-14T18:51:02.999Z</time>
      </trkpt>
      <trkpt lat="48.10712" lon="4.45611">
        <ele>246.785245</ele>
        <time>2024-03-14T18:51:30.928Z</time>
      </trkpt>
      <trkpt lat="48.10709" lon="4.45622">
        <ele>247.646846</ele>
        <time>2024-03-14T18:51:37.637Z</time>
      </trkpt>
      <trkpt lat="48.10693" lon="4.45677">
        <ele>251.66497</ele>
        <time>2024-03-14T18:52:08.650Z</time>
      </trkpt>
      <trkpt lat="48.10677" lon="4.45729">
        <ele>255.516504</ele>
        <time>2024-03-14T18:52:37.568Z</time>
      </trkpt>
      <trkpt lat="48.10644" lon="4.45806">
        <ele>261.694653</ele>
        <time>2024-03-14T18:53:21.188Z</time>
      </trkpt>
      <trkpt lat="48.10588" lon="4.45934">
        <ele>269.567513</ele>
        <time>2024-03-14T18:54:25.373Z</time>
      </trkpt>
      <trkpt lat="48.10549" lon="4.46036">
        <ele>275.220392</ele>
        <time>2024-03-14T18:55:10.008Z</time>
      </trkpt>
      <trkpt lat="48.1054" lon="4.46052">
        <ele>276.262133</ele>
        <time>2024-03-14T18:55:17.892Z</time>
      </trkpt>
      <trkpt lat="48.10532" lon="4.46095">
        <ele>277.67666</ele>
        <time>2024-03-14T18:55:33.858Z</time>
      </trkpt>
      <trkpt lat="48.10512" lon="4.46203">
        <ele>281.141761</ele>
        <time>2024-03-14T18:56:09.373Z</time>
      </trkpt>
      <trkpt lat="48.10505" lon="4.46285">
        <ele>283.692534</ele>
        <time>2024-03-14T18:56:34.279Z</time>
      </trkpt>
      <trkpt lat="48.10498" lon="4.46366">
        <ele>285.92388</ele>
        <time>2024-03-14T18:56:57.857Z</time>
      </trkpt>
      <trkpt lat="48.10491" lon="4.46494">
        <ele>289.119412</ele>
        <time>2024-03-14T18:57:33.309Z</time>
      </trkpt>
      <trkpt lat="48.10477" lon="4.46675">
        <ele>294.286508</ele>
        <time>2024-03-14T18:58:27.962Z</time>
      </trkpt>
      <trkpt lat="48.10481" lon="4.46733">
        <ele>296.138122</ele>
        <time>2024-03-14T18:58:47.322Z</time>
      </trkpt>
      <trkpt lat="48.10486" lon="4.46788">
        <ele>297.913575</ele>
        <time>2024-03-14T18:59:06.450Z</time>
      </trkpt>
      <trkpt lat="48.10499" lon="4.4691">
        <ele>301.627212</ele>
        <time>2024-03-14T18:59:49.113Z</time>
      </trkpt>
      <trkpt lat="48.10512" lon="4.4706">
        <ele>305.900857</ele>
        <time>2024-03-14T19:00:35.375Z</time>
      </trkpt>
      <trkpt lat="48.10525" lon="4.47141">
        <ele>307.85833</ele>
        <time>2024-03-14T19:00:58.715Z</time>
      </trkpt>
      <trkpt lat="48.10525" lon="4.47184">
        <ele>308.38999</ele>
        <time>2024-03-14T19:01:09.770Z</time>
      </trkpt>
      <trkpt lat="48.10521" lon="4.47231">
        <ele>308.962192</ele>
        <time>2024-03-14T19:01:20.948Z</time>
      </trkpt>
      <trkpt lat="48.10515" lon="4.47327">
        <ele>310.14882</ele>
        <time>2024-03-14T19:01:41.354Z</time>
      </trkpt>
      <trkpt lat="48.10514" lon="4.47339">
        <ele>310.302924</ele>
        <time>2024-03-14T19:01:44.632Z</time>
      </trkpt>
      <trkpt lat="48.10501" lon="4.47464">
        <ele>310.9488</ele>
        <time>2024-03-14T19:02:18.786Z</time>
      </trkpt>
      <trkpt lat="48.10489" lon="4.47543">
        <ele>311.029135</ele>
        <time>2024-03-14T19:02:39.236Z</time>
      </trkpt>
      <trkpt lat="48.1039" lon="4.48068">
        <ele>311.381464</ele>
        <time>2024-03-14T19:04:50.731Z</time>
      </trkpt>
      <trkpt lat="48.10377" lon="4.48136">
        <ele>311.749972</ele>
        <time>2024-03-14T19:05:13.414Z</time>
      </trkpt>
      <trkpt lat="48.10362" lon="4.48172">
        <ele>312.135656</ele>
        <time>2024-03-14T19:05:27.859Z</time>
      </trkpt>
      <trkpt lat="48.10328" lon="4.48232">
        <ele>313.696571</ele>
        <time>2024-03-14T19:05:55.782Z</time>
      </trkpt>
      <trkpt lat="48.10289" lon="4.48297">
        <ele>315.415803</ele>
        <time>2024-03-14T19:06:27.308Z</time>
      </trkpt>
      <trkpt lat="48.1026" lon="4.48339">
        <ele>316.601335</ele>
        <time>2024-03-14T19:06:49.281Z</time>
      </trkpt>
      <trkpt lat="48.10235" lon="4.4837">
        <ele>317.247243</ele>
        <time>2024-03-14T19:07:05.834Z</time>
      </trkpt>
      <trkpt lat="48.10156" lon="4.48438">
        <ele>317.471147</ele>
        <time>2024-03-14T19:07:45.007Z</time>
      </trkpt>
      <trkpt lat="48.10073" lon="4.48513">
        <ele>316.835213</ele>
        <time>2024-03-14T19:08:17.720Z</time>
      </trkpt>
      <trkpt lat="48.10042" lon="4.48545">
        <ele>315.300378</ele>
        <time>2024-03-14T19:08:29.562Z</time>
      </trkpt>
      <trkpt lat="48.09978" lon="4.48651">
        <ele>311.384148</ele>
        <time>2024-03-14T19:08:57.621Z</time>
      </trkpt>
      <trkpt lat="48.09977" lon="4.4866">
        <ele>311.121753</ele>
        <time>2024-03-14T19:08:59.448Z</time>
      </trkpt>
      <trkpt lat="48.09979" lon="4.48666">
        <ele>310.935266</ele>
        <time>2024-03-14T19:09:00.726Z</time>
      </trkpt>
      <trkpt lat="48.10003" lon="4.48684">
        <ele>309.30485</ele>
        <time>2024-03-14T19:09:08.070Z</time>
      </trkpt>
      <trkpt lat="48.10005" lon="4.48688">
        <ele>309.020797</ele>
        <time>2024-03-14T19:09:08.957Z</time>
      </trkpt>
      <trkpt lat="48.10009" lon="4.48692">
        <ele>308.607366</ele>
        <time>2024-03-14T19:09:10.221Z</time>
      </trkpt>
      <trkpt lat="48.10011" lon="4.48704">
        <ele>307.870698</ele>
        <time>2024-03-14T19:09:12.454Z</time>
      </trkpt>
      <trkpt lat="48.09995" lon="4.48809">
        <ele>301.401516</ele>
        <time>2024-03-14T19:09:31.764Z</time>
      </trkpt>
      <trkpt lat="48.09993" lon="4.48856">
        <ele>298.593567</ele>
        <time>2024-03-14T19:09:39.895Z</time>
      </trkpt>
      <trkpt lat="48.09994" lon="4.48895">
        <ele>296.245704</ele>
        <time>2024-03-14T19:09:46.557Z</time>
      </trkpt>
      <trkpt lat="48.09974" lon="4.48989">
        <ele>289.049131</ele>
        <time>2024-03-14T19:10:02.840Z</time>
      </trkpt>
      <trkpt lat="48.0997" lon="4.49022">
        <ele>286.353873</ele>
        <time>2024-03-14T19:10:08.370Z</time>
      </trkpt>
      <trkpt lat="48.09964" lon="4.49143">
        <ele>276.640665</ele>
        <time>2024-03-14T19:10:28.475Z</time>
      </trkpt>
      <trkpt lat="48.09966" lon="4.49175">
        <ele>274.048708</ele>
        <time>2024-03-14T19:10:33.886Z</time>
      </trkpt>
      <trkpt lat="48.09973" lon="4.49212">
        <ele>271.351608</ele>
        <time>2024-03-14T19:10:40.464Z</time>
      </trkpt>
      <trkpt lat="48.09982" lon="4.49306">
        <ele>265.839092</ele>
        <time>2024-03-14T19:10:56.475Z</time>
      </trkpt>
      <trkpt lat="48.09994" lon="4.49232">
        <ele>261.400228</ele>
        <time>2024-03-14T19:11:09.798Z</time>
      </trkpt>
      <trkpt lat="48.10007" lon="4.49217">
        <ele>259.919687</ele>
        <time>2024-03-14T19:11:14.348Z</time>
      </trkpt>
      <trkpt lat="48.10025" lon="4.49214">
        <ele>258.346235</ele>
        <time>2024-03-14T19:11:19.400Z</time>
      </trkpt>
      <trkpt lat="48.10041" lon="4.49231">
        <ele>256.760874</ele>
        <time>2024-03-14T19:11:24.812Z</time>
      </trkpt>
      <trkpt lat="48.10047" lon="4.49258">
        <ele>256.610918</ele>
        <time>2024-03-14T19:11:30.447Z</time>
      </trkpt>
      <trkpt lat="48.10037" lon="4.49334">
        <ele>256.217332</ele>
        <time>2024-03-14T19:11:45.643Z</time>
      </trkpt>
      <trkpt lat="48.10033" lon="4.49404">
        <ele>255.852207</ele>
        <time>2024-03-14T19:12:01.701Z</time>
      </trkpt>
      <trkpt lat="48.10039" lon="4.49459">
        <ele>255.569709</ele>
        <time>2024-03-14T19:12:19.283Z</time>
      </trkpt>
      <trkpt lat="48.10051" lon="4.495">
        <ele>255.876007</ele>
        <time>2024-03-14T19:12:37.734Z</time>
      </trkpt>
      <trkpt lat="48.10076" lon="4.49532">
        <ele>258.340936</ele>
        <time>2024-03-14T19:13:01.263Z</time>
      </trkpt>
      <trkpt lat="48.10096" lon="4.49535">
        <ele>259.864017</ele>
        <time>2024-03-14T19:13:17.608Z</time>
      </trkpt>
      <trkpt lat="48.10113" lon="4.49522">
        <ele>261.360883</ele>
        <time>2024-03-14T19:13:33.056Z</time>
      </trkpt>
      <trkpt lat="48.10145" lon="4.49473">
        <ele>264.81288</ele>
        <time>2024-03-14T19:14:10.855Z</time>
      </trkpt>
      <trkpt lat="48.10179" lon="4.49439">
        <ele>267.891053</ele>
        <time>2024-03-14T19:14:43.803Z</time>
      </trkpt>
      <trkpt lat="48.1019" lon="4.4943">
        <ele>268.875625</ele>
        <time>2024-03-14T19:14:53.549Z</time>
      </trkpt>
      <trkpt lat="48.10207" lon="4.49416">
        <ele>269.753353</ele>
        <time>2024-03-14T19:15:08.578Z</time>
      </trkpt>
      <trkpt lat="48.10247" lon="4.49403">
        <ele>271.547641</ele>
        <time>2024-03-14T19:15:38.342Z</time>
      </trkpt>
      <trkpt lat="48.1028" lon="4.49388">
        <ele>273.021304</ele>
        <time>2024-03-14T19:15:59.717Z</time>
      </trkpt>
      <trkpt lat="48.10309" lon="4.49363">
        <ele>274.479641</ele>
        <time>2024-03-14T19:16:17.450Z</time>
      </trkpt>
      <trkpt lat="48.10334" lon="4.49362">
        <ele>275.548553</ele>
        <time>2024-03-14T19:16:28.228Z</time>
      </trkpt>
      <trkpt lat="48.10361" lon="4.49385">
        <ele>276.847269</ele>
        <time>2024-03-14T19:16:40.741Z</time>
      </trkpt>
      <trkpt lat="48.10377" lon="4.49426">
        <ele>277.654458</ele>
        <time>2024-03-14T19:16:53.263Z</time>
      </trkpt>
      <trkpt lat="48.10386" lon="4.49464">
        <ele>278.330899</ele>
        <time>2024-03-14T19:17:04.219Z</time>
      </trkpt>
      <trkpt lat="48.10383" lon="4.49495">
        <ele>278.853689</ele>
        <time>2024-03-14T19:17:13.341Z</time>
      </trkpt>
      <trkpt lat="48.10337" lon="4.49571">
        <ele>280.572751</ele>
        <time>2024-03-14T19:17:48.899Z</time>
      </trkpt>
      <trkpt lat="48.10331" lon="4.496">
        <ele>281.089303</ele>
        <time>2024-03-14T19:18:01.187Z</time>
      </trkpt>
      <trkpt lat="48.10334" lon="4.49623">
        <ele>281.698242</ele>
        <time>2024-03-14T19:18:10.432Z</time>
      </trkpt>
      <trkpt lat="48.10347" lon="4.49641">
        <ele>282.835273</ele>
        <time>2024-03-14T19:18:21.540Z</time>
      </trkpt>
      <trkpt lat="48.10362" lon="4.49649">
        <ele>283.882571</ele>
        <time>2024-03-14T19:18:31.838Z</time>
      </trkpt>
      <trkpt lat="48.1038" lon="4.49641">
        <ele>285.060748</ele>
        <time>2024-03-14T19:18:43.757Z</time>
      </trkpt>
      <trkpt lat="48.10387" lon="4.4963">
        <ele>285.724936</ele>
        <time>2024-03-14T19:18:50.651Z</time>
      </trkpt>
      <trkpt lat="48.10423" lon="4.49544">
        <ele>290.060597</ele>
        <time>2024-03-14T19:19:38.201Z</time>
      </trkpt>
      <trkpt lat="48.10457" lon="4.49483">
        <ele>293.621213</ele>
        <time>2024-03-14T19:20:18.896Z</time>
      </trkpt>
      <trkpt lat="48.10509" lon="4.49424">
        <ele>299.053156</ele>
        <time>2024-03-14T19:21:11.666Z</time>
      </trkpt>
      <trkpt lat="48.10583" lon="4.49382">
        <ele>305.594604</ele>
        <time>2024-03-14T19:22:15.693Z</time>
      </trkpt>
      <trkpt lat="48.10682" lon="4.49353">
        <ele>311.371098</ele>
        <time>2024-03-14T19:23:30.700Z</time>
      </trkpt>
      <trkpt lat="48.10736" lon="4.49343">
        <ele>314.017792</ele>
        <time>2024-03-14T19:24:05.354Z</time>
      </trkpt>
      <trkpt lat="48.11022" lon="4.49245">
        <ele>316.456598</ele>
        <time>2024-03-14T19:26:03.443Z</time>
      </trkpt>
      <trkpt lat="48.11059" lon="4.49237">
        <ele>315.690232</ele>
        <time>2024-03-14T19:26:15.973Z</time>
      </trkpt>
      <trkpt lat="48.1111" lon="4.49233">
        <ele>314.651317</ele>
        <time>2024-03-14T19:26:31.629Z</time>
      </trkpt>
      <trkpt lat="48.11202" lon="4.49186">
        <ele>309.51316</ele>
        <time>2024-03-14T19:26:59.004Z</time>
      </trkpt>
      <trkpt lat="48.11305" lon="4.49157">
        <ele>302.601765</ele>
        <time>2024-03-14T19:27:27.292Z</time>
      </trkpt>
      <trkpt lat="48.11367" lon="4.49134">
        <ele>298.901426</ele>
        <time>2024-03-14T19:27:44.560Z</time>
      </trkpt>
      <trkpt lat="48.1149" lon="4.49109">
        <ele>291.870015</ele>
        <time>2024-03-14T19:28:20.117Z</time>
      </trkpt>
      <trkpt lat="48.1156" lon="4.49101">
        <ele>289.344016</ele>
        <time>2024-03-14T19:28:41.840Z</time>
      </trkpt>
      <trkpt lat="48.11594" lon="4.49084">
        <ele>288.078943</ele>
        <time>2024-03-14T19:28:52.864Z</time>
      </trkpt>
      <trkpt lat="48.11619" lon="4.49071">
        <ele>287.131178</ele>
        <time>2024-03-14T19:29:01.074Z</time>
      </trkpt>
      <trkpt lat="48.11745" lon="4.4899">
        <ele>280.947416</ele>
        <time>2024-03-14T19:29:41.913Z</time>
      </trkpt>
      <trkpt lat="48.11753" lon="4.48987">
        <ele>280.534793</ele>
        <time>2024-03-14T19:29:44.267Z</time>
      </trkpt>
      <trkpt lat="48.11763" lon="4.48984">
        <ele>279.983684</ele>
        <time>2024-03-14T19:29:47.420Z</time>
      </trkpt>
      <trkpt lat="48.11826" lon="4.48977">
        <ele>276.851918</ele>
        <time>2024-03-14T19:29:57.633Z</time>
      </trkpt>
      <trkpt lat="48.11849" lon="4.48978">
        <ele>275.189862</ele>
        <time>2024-03-14T19:30:01.339Z</time>
      </trkpt>
      <trkpt lat="48.11873" lon="4.48984">
        <ele>273.27075</ele>
        <time>2024-03-14T19:30:05.150Z</time>
      </trkpt>
      <trkpt lat="48.11951" lon="4.48986">
        <ele>267.122768</ele>
        <time>2024-03-14T19:30:17.158Z</time>
      </trkpt>
      <trkpt lat="48.11973" lon="4.48986">
        <ele>265.442039</ele>
        <time>2024-03-14T19:30:20.403Z</time>
      </trkpt>
      <trkpt lat="48.12021" lon="4.49001">
        <ele>261.428836</ele>
        <time>2024-03-14T19:30:27.833Z</time>
      </trkpt>
      <trkpt lat="48.12119" lon="4.49039">
        <ele>251.796466</ele>
        <time>2024-03-14T19:30:43.169Z</time>
      </trkpt>
      <trkpt lat="48.12147" lon="4.49041">
        <ele>249.179332</ele>
        <time>2024-03-14T19:30:47.293Z</time>
      </trkpt>
      <trkpt lat="48.12187" lon="4.49043">
        <ele>245.371704</ele>
        <time>2024-03-14T19:30:53.320Z</time>
      </trkpt>
      <trkpt lat="48.12207" lon="4.49038">
        <ele>243.516814</ele>
        <time>2024-03-14T19:30:56.287Z</time>
      </trkpt>
      <trkpt lat="48.12221" lon="4.49022">
        <ele>241.876539</ele>
        <time>2024-03-14T19:30:58.926Z</time>
      </trkpt>
      <trkpt lat="48.12235" lon="4.49013">
        <ele>240.479325</ele>
        <time>2024-03-14T19:31:01.166Z</time>
      </trkpt>
      <trkpt lat="48.12243" lon="4.49019">
        <ele>239.658953</ele>
        <time>2024-03-14T19:31:02.478Z</time>
      </trkpt>
      <trkpt lat="48.12248" lon="4.49034">
        <ele>238.578547</ele>
        <time>2024-03-14T19:31:04.239Z</time>
      </trkpt>
      <trkpt lat="48.12249" lon="4.4906">
        <ele>236.974699</ele>
        <time>2024-03-14T19:31:06.806Z</time>
      </trkpt>
      <trkpt lat="48.12254" lon="4.49077">
        <ele>235.829093</ele>
        <time>2024-03-14T19:31:08.655Z</time>
      </trkpt>
      <trkpt lat="48.12262" lon="4.49087">
        <ele>234.859836</ele>
        <time>2024-03-14T19:31:10.228Z</time>
      </trkpt>
      <trkpt lat="48.12302" lon="4.49099">
        <ele>231.125716</ele>
        <time>2024-03-14T19:31:16.251Z</time>
      </trkpt>
      <trkpt lat="48.12332" lon="4.49096">
        <ele>228.385544</ele>
        <time>2024-03-14T19:31:20.884Z</time>
      </trkpt>
      <trkpt lat="48.12385" lon="4.4907">
        <ele>224.458353</ele>
        <time>2024-03-14T19:31:29.591Z</time>
      </trkpt>
      <trkpt lat="48.12416" lon="4.49065">
        <ele>222.257333</ele>
        <time>2024-03-14T19:31:34.526Z</time>
      </trkpt>
      <trkpt lat="48.12453" lon="4.49063">
        <ele>219.672206</ele>
        <time>2024-03-14T19:31:40.338Z</time>
      </trkpt>
      <trkpt lat="48.12452" lon="4.49116">
        <ele>217.200803</ele>
        <time>2024-03-14T19:31:45.672Z</time>
      </trkpt>
      <trkpt lat="48.12452" lon="4.49126">
        <ele>216.72748</ele>
        <time>2024-03-14T19:31:46.720Z</time>
      </trkpt>
      <trkpt lat="48.12461" lon="4.49138">
        <ele>215.943218</ele>
        <time>2024-03-14T19:31:48.612Z</time>
      </trkpt>
      <trkpt lat="48.12481" lon="4.4918">
        <ele>214.630663</ele>
        <time>2024-03-14T19:31:53.964Z</time>
      </trkpt>
      <trkpt lat="48.12489" lon="4.49231">
        <ele>213.289363</ele>
        <time>2024-03-14T19:31:59.589Z</time>
      </trkpt>
      <trkpt lat="48.12493" lon="4.49239">
        <ele>213.041647</ele>
        <time>2024-03-14T19:32:00.627Z</time>
      </trkpt>
      <trkpt lat="48.12501" lon="4.49247">
        <ele>212.68503</ele>
        <time>2024-03-14T19:32:02.141Z</time>
      </trkpt>
      <trkpt lat="48.12531" lon="4.49261">
        <ele>211.472184</ele>
        <time>2024-03-14T19:32:07.611Z</time>
      </trkpt>
      <trkpt lat="48.12544" lon="4.49271">
        <ele>210.929753</ele>
        <time>2024-03-14T19:32:10.114Z</time>
      </trkpt>
      <trkpt lat="48.12556" lon="4.49285">
        <ele>210.333082</ele>
        <time>2024-03-14T19:32:12.801Z</time>
      </trkpt>
      <trkpt lat="48.12576" lon="4.49327">
        <ele>209.256698</ele>
        <time>2024-03-14T19:32:18.906Z</time>
      </trkpt>
      <trkpt lat="48.12582" lon="4.49348">
        <ele>209.600157</ele>
        <time>2024-03-14T19:32:21.823Z</time>
      </trkpt>
      <trkpt lat="48.126" lon="4.49402">
        <ele>210.477999</ele>
        <time>2024-03-14T19:32:30.632Z</time>
      </trkpt>
      <trkpt lat="48.12609" lon="4.49419">
        <ele>210.793472</ele>
        <time>2024-03-14T19:32:34.922Z</time>
      </trkpt>
      <trkpt lat="48.12641" lon="4.49461">
        <ele>211.731334</ele>
        <time>2024-03-14T19:32:50.144Z</time>
      </trkpt>
      <trkpt lat="48.12641" lon="4.4948">
        <ele>212.021879</ele>
        <time>2024-03-14T19:32:55.687Z</time>
      </trkpt>
      <trkpt lat="48.12638" lon="4.49496">
        <ele>212.256419</ele>
        <time>2024-03-14T19:33:00.523Z</time>
      </trkpt>
      <trkpt lat="48.12625" lon="4.49526">
        <ele>212.792319</ele>
        <time>2024-03-14T19:33:12.086Z</time>
      </trkpt>
      <trkpt lat="48.12613" lon="4.49553">
        <ele>213.615501</ele>
        <time>2024-03-14T19:33:23.371Z</time>
      </trkpt>
      <trkpt lat="48.12575" lon="4.49618">
        <ele>218.01908</ele>
        <time>2024-03-14T19:33:55.635Z</time>
      </trkpt>
      <trkpt lat="48.1254" lon="4.4967">
        <ele>221.755646</ele>
        <time>2024-03-14T19:34:25.745Z</time>
      </trkpt>
      <trkpt lat="48.12508" lon="4.49704">
        <ele>224.79432</ele>
        <time>2024-03-14T19:34:51.939Z</time>
      </trkpt>
      <trkpt lat="48.12428" lon="4.49787">
        <ele>234.945289</ele>
        <time>2024-03-14T19:36:02.250Z</time>
      </trkpt>
      <trkpt lat="48.12406" lon="4.49831">
        <ele>239.200234</ele>
        <time>2024-03-14T19:36:31.579Z</time>
      </trkpt>
      <trkpt lat="48.12309" lon="4.50017">
        <ele>258.709676</ele>
        <time>2024-03-14T19:38:55.631Z</time>
      </trkpt>
      <trkpt lat="48.12284" lon="4.50044">
        <ele>262.696949</ele>
        <time>2024-03-14T19:39:23.869Z</time>
      </trkpt>
      <trkpt lat="48.12234" lon="4.50097">
        <ele>270.665954</ele>
        <time>2024-03-14T19:40:16.741Z</time>
      </trkpt>
      <trkpt lat="48.12222" lon="4.50114">
        <ele>272.222112</ele>
        <time>2024-03-14T19:40:32.836Z</time>
      </trkpt>
      <trkpt lat="48.1217" lon="4.50192">
        <ele>278.547708</ele>
        <time>2024-03-14T19:41:38.280Z</time>
      </trkpt>
      <trkpt lat="48.12143" lon="4.50282">
        <ele>284.190155</ele>
        <time>2024-03-14T19:42:27.495Z</time>
      </trkpt>
      <trkpt lat="48.12082" lon="4.50376">
        <ele>288.66613</ele>
        <time>2024-03-14T19:43:19.829Z</time>
      </trkpt>
      <trkpt lat="48.11964" lon="4.50479">
        <ele>293.122263</ele>
        <time>2024-03-14T19:44:30.162Z</time>
      </trkpt>
      <trkpt lat="48.11936" lon="4.50502">
        <ele>293.524969</ele>
        <time>2024-03-14T19:44:45.157Z</time>
      </trkpt>
      <trkpt lat="48.11925" lon="4.50507">
        <ele>293.666891</ele>
        <time>2024-03-14T19:44:50.171Z</time>
      </trkpt>
      <trkpt lat="48.1188" lon="4.50446">
        <ele>294.426144</ele>
        <time>2024-03-14T19:45:16.275Z</time>
      </trkpt>
      <trkpt lat="48.11868" lon="4.50446">
        <ele>294.57858</ele>
        <time>2024-03-14T19:45:21.161Z</time>
      </trkpt>
      <trkpt lat="48.11851" lon="4.50468">
        <ele>294.855147</ele>
        <time>2024-03-14T19:45:30.082Z</time>
      </trkpt>
      <trkpt lat="48.11824" lon="4.50659">
        <ele>294.767539</ele>
        <time>2024-03-14T19:46:18.466Z</time>
      </trkpt>
      <trkpt lat="48.11801" lon="4.50724">
        <ele>294.588041</ele>
        <time>2024-03-14T19:46:35.055Z</time>
      </trkpt>
      <trkpt lat="48.11761" lon="4.50796">
        <ele>294.518501</ele>
        <time>2024-03-14T19:46:56.910Z</time>
      </trkpt>
      <trkpt lat="48.1172" lon="4.50911">
        <ele>294.56634</ele>
        <time>2024-03-14T19:47:28.684Z</time>
      </trkpt>
      <trkpt lat="48.11709" lon="4.50871">
        <ele>294.582143</ele>
        <time>2024-03-14T19:47:40.043Z</time>
      </trkpt>
      <trkpt lat="48.1171" lon="4.51185">
        <ele>296.885086</ele>
        <time>2024-03-14T19:49:12.011Z</time>
      </trkpt>
      <trkpt lat="48.11699" lon="4.51279">
        <ele>297.015379</ele>
        <time>2024-03-14T19:49:39.487Z</time>
      </trkpt>
      <trkpt lat="48.11697" lon="4.51388">
        <ele>297.164132</ele>
        <time>2024-03-14T19:50:06.270Z</time>
      </trkpt>
      <trkpt lat="48.11689" lon="4.51434">
        <ele>297.228847</ele>
        <time>2024-03-14T19:50:17.405Z</time>
      </trkpt>
      <trkpt lat="48.11669" lon="4.51497">
        <ele>296.903962</ele>
        <time>2024-03-14T19:50:33.442Z</time>
      </trkpt>
      <trkpt lat="48.11637" lon="4.51598">
        <ele>296.245432</ele>
        <time>2024-03-14T19:50:58.626Z</time>
      </trkpt>
      <trkpt lat="48.11551" lon="4.51967">
        <ele>294.1558</ele>
        <time>2024-03-14T19:52:31.517Z</time>
      </trkpt>
      <trkpt lat="48.11494" lon="4.52128">
        <ele>291.390325</ele>
        <time>2024-03-14T19:53:11.731Z</time>
      </trkpt>
      <trkpt lat="48.1142" lon="4.52283">
        <ele>284.754471</ele>
        <time>2024-03-14T19:53:49.382Z</time>
      </trkpt>
      <trkpt lat="48.11421" lon="4.52311">
        <ele>283.479747</ele>
        <time>2024-03-14T19:53:54.564Z</time>
      </trkpt>
      <trkpt lat="48.11427" lon="4.52314">
        <ele>283.099265</ele>
        <time>2024-03-14T19:53:56.112Z</time>
      </trkpt>
      <trkpt lat="48.11504" lon="4.52356">
        <ele>277.192749</ele>
        <time>2024-03-14T19:54:17.471Z</time>
      </trkpt>
      <trkpt lat="48.11534" lon="4.52382">
        <ele>273.510037</ele>
        <time>2024-03-14T19:54:26.271Z</time>
      </trkpt>
      <trkpt lat="48.11562" lon="4.52435">
        <ele>268.738328</ele>
        <time>2024-03-14T19:54:37.580Z</time>
      </trkpt>
      <trkpt lat="48.11585" lon="4.52494">
        <ele>263.991921</ele>
        <time>2024-03-14T19:54:48.952Z</time>
      </trkpt>
      <trkpt lat="48.1159" lon="4.52531">
        <ele>261.325647</ele>
        <time>2024-03-14T19:54:55.530Z</time>
      </trkpt>
      <trkpt lat="48.11587" lon="4.52553">
        <ele>259.79434</ele>
        <time>2024-03-14T19:54:59.236Z</time>
      </trkpt>
      <trkpt lat="48.11564" lon="4.52606">
        <ele>258.582397</ele>
        <time>2024-03-14T19:55:05.788Z</time>
      </trkpt>
      <trkpt lat="48.11555" lon="4.5265">
        <ele>257.940391</ele>
        <time>2024-03-14T19:55:10.771Z</time>
      </trkpt>
      <trkpt lat="48.11546" lon="4.52644">
        <ele>257.738665</ele>
        <time>2024-03-14T19:55:12.550Z</time>
      </trkpt>
      <trkpt lat="48.11533" lon="4.52641">
        <ele>257.4551</ele>
        <time>2024-03-14T19:55:14.928Z</time>
      </trkpt>
      <trkpt lat="48.1151" lon="4.52643">
        <ele>256.973656</ele>
        <time>2024-03-14T19:55:19.339Z</time>
      </trkpt>
      <trkpt lat="48.11477" lon="4.5265">
        <ele>256.265481</ele>
        <time>2024-03-14T19:55:28.819Z</time>
      </trkpt>
      <trkpt lat="48.11427" lon="4.52681">
        <ele>257.101529</ele>
        <time>2024-03-14T19:55:55.606Z</time>
      </trkpt>
      <trkpt lat="48.11414" lon="4.52694">
        <ele>258.14471</ele>
        <time>2024-03-14T19:56:04.745Z</time>
      </trkpt>
      <trkpt lat="48.11411" lon="4.52695">
        <ele>258.360815</ele>
        <time>2024-03-14T19:56:06.812Z</time>
      </trkpt>
      <trkpt lat="48.11387" lon="4.52708">
        <ele>260.057646</ele>
        <time>2024-03-14T19:56:22.703Z</time>
      </trkpt>
      <trkpt lat="48.11379" lon="4.52713">
        <ele>260.642746</ele>
        <time>2024-03-14T19:56:28.030Z</time>
      </trkpt>
      <trkpt lat="48.11296" lon="4.52759">
        <ele>266.577675</ele>
        <time>2024-03-14T19:57:20.716Z</time>
      </trkpt>
      <trkpt lat="48.11276" lon="4.52767">
        <ele>267.992564</ele>
        <time>2024-03-14T19:57:32.699Z</time>
      </trkpt>
      <trkpt lat="48.11261" lon="4.52769">
        <ele>268.982197</ele>
        <time>2024-03-14T19:57:41.086Z</time>
      </trkpt>
      <trkpt lat="48.11237" lon="4.52766">
        <ele>270.5301</ele>
        <time>2024-03-14T19:57:53.670Z</time>
      </trkpt>
      <trkpt lat="48.11153" lon="4.52745">
        <ele>276.179884</ele>
        <time>2024-03-14T19:58:40.639Z</time>
      </trkpt>
      <trkpt lat="48.11111" lon="4.52742">
        <ele>278.891237</ele>
        <time>2024-03-14T19:59:02.678Z</time>
      </trkpt>
      <trkpt lat="48.11086" lon="4.52747">
        <ele>280.796948</ele>
        <time>2024-03-14T19:59:16.648Z</time>
      </trkpt>
      <trkpt lat="48.11067" lon="4.52757">
        <ele>282.413408</ele>
        <time>2024-03-14T19:59:27.270Z</time>
      </trkpt>
      <trkpt lat="48.11032" lon="4.5278">
        <ele>285.539394</ele>
        <time>2024-03-14T19:59:50.030Z</time>
      </trkpt>
      <trkpt lat="48.11018" lon="4.52784">
        <ele>286.712304</ele>
        <time>2024-03-14T19:59:59.643Z</time>
      </trkpt>
      <trkpt lat="48.10995" lon="4.52804">
        <ele>288.824282</ele>
        <time>2024-03-14T20:00:16.303Z</time>
      </trkpt>
      <trkpt lat="48.10946" lon="4.52839">
        <ele>293.286277</ele>
        <time>2024-03-14T20:00:54.516Z</time>
      </trkpt>
      <trkpt lat="48.1087" lon="4.52875">
        <ele>300.200154</ele>
        <time>2024-03-14T20:01:51.850Z</time>
      </trkpt>
      <trkpt lat="48.10783" lon="4.52891">
        <ele>307.956694</ele>
        <time>2024-03-14T20:02:50.149Z</time>
      </trkpt>
      <trkpt lat="48.10709" lon="4.52868">
        <ele>313.666592</ele>
        <time>2024-03-14T20:03:36.789Z</time>
      </trkpt>
      <trkpt lat="48.10605" lon="4.52852">
        <ele>320.84714</ele>
        <time>2024-03-14T20:04:35.838Z</time>
      </trkpt>
      <trkpt lat="48.10524" lon="4.52875">
        <ele>325.233507</ele>
        <time>2024-03-14T20:05:19.519Z</time>
      </trkpt>
      <trkpt lat="48.10404" lon="4.52898">
        <ele>330.929437</ele>
        <time>2024-03-14T20:06:14.604Z</time>
      </trkpt>
      <trkpt lat="48.10374" lon="4.52899">
        <ele>331.083983</ele>
        <time>2024-03-14T20:06:25.921Z</time>
      </trkpt>
      <trkpt lat="48.10361" lon="4.52899">
        <ele>331.151761</ele>
        <time>2024-03-14T20:06:30.599Z</time>
      </trkpt>
      <trkpt lat="48.10351" lon="4.53063">
        <ele>331.715793</ele>
        <time>2024-03-14T20:06:56.338Z</time>
      </trkpt>
      <trkpt lat="48.10351" lon="4.53145">
        <ele>330.802503</ele>
        <time>2024-03-14T20:07:06.116Z</time>
      </trkpt>
      <trkpt lat="48.10366" lon="4.53341">
        <ele>326.166926</ele>
        <time>2024-03-14T20:07:27.876Z</time>
      </trkpt>
      <trkpt lat="48.10371" lon="4.5337">
        <ele>325.465531</ele>
        <time>2024-03-14T20:07:31.135Z</time>
      </trkpt>
      <trkpt lat="48.10388" lon="4.53425">
        <ele>324.17558</ele>
        <time>2024-03-14T20:07:37.688Z</time>
      </trkpt>
      <trkpt lat="48.10389" lon="4.53438">
        <ele>323.91533</ele>
        <time>2024-03-14T20:07:39.010Z</time>
      </trkpt>
      <trkpt lat="48.10369" lon="4.53478">
        <ele>322.86389</ele>
        <time>2024-03-14T20:07:48.856Z</time>
      </trkpt>
      <trkpt lat="48.10346" lon="4.5355">
        <ele>321.143836</ele>
        <time>2024-03-14T20:08:05.464Z</time>
      </trkpt>
      <trkpt lat="48.10303" lon="4.53654">
        <ele>319.714362</ele>
        <time>2024-03-14T20:08:32.286Z</time>
      </trkpt>
      <trkpt lat="48.10263" lon="4.5379">
        <ele>319.550811</ele>
        <time>2024-03-14T20:09:09.032Z</time>
      </trkpt>
      <trkpt lat="48.10215" lon="4.53904">
        <ele>319.513159</ele>
        <time>2024-03-14T20:09:47.883Z</time>
      </trkpt>
      <trkpt lat="48.10204" lon="4.53977">
        <ele>319.546193</ele>
        <time>2024-03-14T20:10:08.758Z</time>
      </trkpt>
      <trkpt lat="48.10211" lon="4.54046">
        <ele>319.577089</ele>
        <time>2024-03-14T20:10:27.275Z</time>
      </trkpt>
      <trkpt lat="48.10142" lon="4.54269">
        <ele>314.217274</ele>
        <time>2024-03-14T20:11:19.519Z</time>
      </trkpt>
      <trkpt lat="48.10016" lon="4.54891">
        <ele>278.794669</ele>
        <time>2024-03-14T20:13:14.233Z</time>
      </trkpt>
      <trkpt lat="48.10009" lon="4.54942">
        <ele>275.148156</ele>
        <time>2024-03-14T20:13:23.017Z</time>
      </trkpt>
      <trkpt lat="48.10005" lon="4.55011">
        <ele>270.359285</ele>
        <time>2024-03-14T20:13:34.585Z</time>
      </trkpt>
      <trkpt lat="48.10008" lon="4.55087">
        <ele>265.019355</ele>
        <time>2024-03-14T20:13:47.544Z</time>
      </trkpt>
      <trkpt lat="48.10006" lon="4.55116">
        <ele>263.005106</ele>
        <time>2024-03-14T20:13:52.434Z</time>
      </trkpt>
      <trkpt lat="48.09946" lon="4.55291">
        <ele>251.530787</ele>
        <time>2024-03-14T20:14:26.686Z</time>
      </trkpt>
      <trkpt lat="48.0992" lon="4.55352">
        <ele>247.33897</ele>
        <time>2024-03-14T20:14:39.762Z</time>
      </trkpt>
      <trkpt lat="48.0989" lon="4.55391">
        <ele>245.112527</ele>
        <time>2024-03-14T20:14:50.819Z</time>
      </trkpt>
      <trkpt lat="48.09789" lon="4.55494">
        <ele>238.974302</ele>
        <time>2024-03-14T20:15:25.832Z</time>
      </trkpt>
      <trkpt lat="48.09763" lon="4.55582">
        <ele>237.983344</ele>
        <time>2024-03-14T20:15:46.373Z</time>
      </trkpt>
      <trkpt lat="48.09753" lon="4.5567">
        <ele>238.192619</ele>
        <time>2024-03-14T20:16:07.544Z</time>
      </trkpt>
      <trkpt lat="48.09802" lon="4.55714">
        <ele>238.393744</ele>
        <time>2024-03-14T20:16:25.470Z</time>
      </trkpt>
      <trkpt lat="48.09842" lon="4.55745">
        <ele>240.15283</ele>
        <time>2024-03-14T20:16:44.436Z</time>
      </trkpt>
      <trkpt lat="48.09894" lon="4.55774">
        <ele>244.224545</ele>
        <time>2024-03-14T20:17:12.333Z</time>
      </trkpt>
      <trkpt lat="48.09814" lon="4.56231">
        <ele>270.389512</ele>
        <time>2024-03-14T20:21:38.838Z</time>
      </trkpt>
      <trkpt lat="48.09803" lon="4.56294">
        <ele>272.804258</ele>
        <time>2024-03-14T20:22:12.295Z</time>
      </trkpt>
      <trkpt lat="48.09779" lon="4.5655">
        <ele>277.289558</ele>
        <time>2024-03-14T20:23:43.801Z</time>
      </trkpt>
      <trkpt lat="48.0977" lon="4.56551">
        <ele>277.128426</ele>
        <time>2024-03-14T20:23:47.285Z</time>
      </trkpt>
      <trkpt lat="48.09779" lon="4.5655">
        <ele>276.967294</ele>
        <time>2024-03-14T20:23:50.167Z</time>
      </trkpt>
      <trkpt lat="48.09852" lon="4.56568">
        <ele>275.716722</ele>
        <time>2024-03-14T20:24:11.925Z</time>
      </trkpt>
      <trkpt lat="48.09918" lon="4.56621">
        <ele>270.692266</ele>
        <time>2024-03-14T20:24:31.968Z</time>
      </trkpt>
      <trkpt lat="48.0999" lon="4.56667">
        <ele>264.371906</ele>
        <time>2024-03-14T20:24:52.397Z</time>
      </trkpt>
      <trkpt lat="48.10025" lon="4.56689">
        <ele>261.356454</ele>
        <time>2024-03-14T20:25:02.371Z</time>
      </trkpt>
      <trkpt lat="48.10053" lon="4.56692">
        <ele>260.048639</ele>
        <time>2024-03-14T20:25:09.978Z</time>
      </trkpt>
      <trkpt lat="48.1012" lon="4.56686">
        <ele>257.369178</ele>
        <time>2024-03-14T20:25:28.958Z</time>
      </trkpt>
      <trkpt lat="48.10118" lon="4.56761">
        <ele>255.364864</ele>
        <time>2024-03-14T20:25:37.396Z</time>
      </trkpt>
      <trkpt lat="48.10121" lon="4.56783">
        <ele>254.778772</ele>
        <time>2024-03-14T20:25:40.183Z</time>
      </trkpt>
      <trkpt lat="48.10126" lon="4.56801">
        <ele>254.241556</ele>
        <time>2024-03-14T20:25:42.948Z</time>
      </trkpt>
      <trkpt lat="48.10139" lon="4.56823">
        <ele>254.148678</ele>
        <time>2024-03-14T20:25:47.588Z</time>
      </trkpt>
      <trkpt lat="48.10221" lon="4.5674">
        <ele>257.756164</ele>
        <time>2024-03-14T20:26:25.841Z</time>
      </trkpt>
      <trkpt lat="48.10228" lon="4.56757">
        <ele>258.225881</ele>
        <time>2024-03-14T20:26:32.222Z</time>
      </trkpt>
      <trkpt lat="48.10252" lon="4.56792">
        <ele>259.476557</ele>
        <time>2024-03-14T20:26:49.604Z</time>
      </trkpt>
      <trkpt lat="48.10288" lon="4.56855">
        <ele>262.302215</ele>
        <time>2024-03-14T20:27:26.724Z</time>
      </trkpt>
      <trkpt lat="48.10241" lon="4.56988">
        <ele>268.77964</ele>
        <time>2024-03-14T20:28:37.286Z</time>
      </trkpt>
      <trkpt lat="48.10228" lon="4.57051">
        <ele>271.597403</ele>
        <time>2024-03-14T20:29:07.696Z</time>
      </trkpt>
      <trkpt lat="48.10215" lon="4.57114">
        <ele>275.118034</ele>
        <time>2024-03-14T20:29:38.297Z</time>
      </trkpt>
      <trkpt lat="48.10213" lon="4.57148">
        <ele>277.001684</ele>
        <time>2024-03-14T20:29:54.837Z</time>
      </trkpt>
      <trkpt lat="48.10213" lon="4.57181">
        <ele>278.830044</ele>
        <time>2024-03-14T20:30:11.238Z</time>
      </trkpt>
      <trkpt lat="48.10229" lon="4.57228">
        <ele>281.775651</ele>
        <time>2024-03-14T20:30:38.977Z</time>
      </trkpt>
      <trkpt lat="48.10311" lon="4.57325">
        <ele>291.32988</ele>
        <time>2024-03-14T20:32:09.688Z</time>
      </trkpt>
      <trkpt lat="48.10355" lon="4.57413">
        <ele>298.992823</ele>
        <time>2024-03-14T20:33:18.603Z</time>
      </trkpt>
      <trkpt lat="48.10376" lon="4.57431">
        <ele>301.54823</ele>
        <time>2024-03-14T20:33:40.500Z</time>
      </trkpt>
      <trkpt lat="48.10397" lon="4.57425">
        <ele>303.745983</ele>
        <time>2024-03-14T20:33:58.903Z</time>
      </trkpt>
      <trkpt lat="48.10397" lon="4.57425">
        <ele>303.745983</ele>
        <time>2024-03-14T20:33:58.920Z</time>
      </trkpt>
      <trkpt lat="48.10409" lon="4.57409">
        <ele>305.504134</ele>
        <time>2024-03-14T20:34:13.503Z</time>
      </trkpt>
      <trkpt lat="48.10423" lon="4.57373">
        <ele>307.967468</ele>
        <time>2024-03-14T20:34:37.259Z</time>
      </trkpt>
      <trkpt lat="48.10441" lon="4.57328">
        <ele>310.999441</ele>
        <time>2024-03-14T20:35:06.605Z</time>
      </trkpt>
      <trkpt lat="48.10451" lon="4.57314">
        <ele>312.201616</ele>
        <time>2024-03-14T20:35:18.118Z</time>
      </trkpt>
      <trkpt lat="48.10462" lon="4.57281">
        <ele>314.353148</ele>
        <time>2024-03-14T20:35:38.546Z</time>
      </trkpt>
      <trkpt lat="48.10477" lon="4.5726">
        <ele>316.140977</ele>
        <time>2024-03-14T20:35:55.292Z</time>
      </trkpt>
      <trkpt lat="48.10495" lon="4.57257">
        <ele>317.75928</ele>
        <time>2024-03-14T20:36:09.708Z</time>
      </trkpt>
      <trkpt lat="48.10508" lon="4.57266">
        <ele>318.951183</ele>
        <time>2024-03-14T20:36:20.427Z</time>
      </trkpt>
      <trkpt lat="48.10528" lon="4.57264">
        <ele>320.737232</ele>
        <time>2024-03-14T20:36:35.641Z</time>
      </trkpt>
      <trkpt lat="48.10531" lon="4.57259">
        <ele>321.133084</ele>
        <time>2024-03-14T20:36:39.125Z</time>
      </trkpt>
      <trkpt lat="48.10532" lon="4.5725">
        <ele>321.570498</ele>
        <time>2024-03-14T20:36:43.278Z</time>
      </trkpt>
      <trkpt lat="48.10557" lon="4.57299">
        <ele>323.648903</ele>
        <time>2024-03-14T20:37:13.095Z</time>
      </trkpt>
      <trkpt lat="48.10656" lon="4.57367">
        <ele>329.151348</ele>
        <time>2024-03-14T20:38:21.261Z</time>
      </trkpt>
      <trkpt lat="48.10707" lon="4.57382">
        <ele>330.578835</ele>
        <time>2024-03-14T20:38:48.149Z</time>
      </trkpt>
      <trkpt lat="48.10831" lon="4.57418">
        <ele>330.707552</ele>
        <time>2024-03-14T20:39:33.564Z</time>
      </trkpt>
      <trkpt lat="48.10958" lon="4.57509">
        <ele>329.774269</ele>
        <time>2024-03-14T20:40:20.210Z</time>
      </trkpt>
      <trkpt lat="48.10998" lon="4.57525">
        <ele>329.41301</ele>
        <time>2024-03-14T20:40:35.099Z</time>
      </trkpt>
      <trkpt lat="48.11119" lon="4.5754">
        <ele>330.008441</ele>
        <time>2024-03-14T20:41:23.674Z</time>
      </trkpt>
      <trkpt lat="48.11338" lon="4.57746">
        <ele>332.726604</ele>
        <time>2024-03-14T20:43:17.154Z</time>
      </trkpt>
      <trkpt lat="48.11616" lon="4.57389">
        <ele>332.458763</ele>
        <time>2024-03-14T20:45:30.895Z</time>
      </trkpt>
      <trkpt lat="48.11628" lon="4.57358">
        <ele>332.386209</ele>
        <time>2024-03-14T20:45:39.752Z</time>
      </trkpt>
      <trkpt lat="48.11766" lon="4.56629">
        <ele>331.176632</ele>
        <time>2024-03-14T20:48:42.831Z</time>
      </trkpt>
      <trkpt lat="48.11883" lon="4.56647">
        <ele>331.346883</ele>
        <time>2024-03-14T20:49:30.760Z</time>
      </trkpt>
      <trkpt lat="48.12011" lon="4.56555">
        <ele>330.540233</ele>
        <time>2024-03-14T20:50:21.985Z</time>
      </trkpt>
      <trkpt lat="48.12101" lon="4.56541">
        <ele>329.33484</ele>
        <time>2024-03-14T20:50:51.745Z</time>
      </trkpt>
      <trkpt lat="48.12176" lon="4.56587">
        <ele>328.06123</ele>
        <time>2024-03-14T20:51:17.790Z</time>
      </trkpt>
      <trkpt lat="48.1256" lon="4.56578">
        <ele>322.322095</ele>
        <time>2024-03-14T20:53:26.725Z</time>
      </trkpt>
      <trkpt lat="48.12826" lon="4.56624">
        <ele>318.187685</ele>
        <time>2024-03-14T20:54:56.877Z</time>
      </trkpt>
      <trkpt lat="48.12955" lon="4.56661">
        <ele>314.471893</ele>
        <time>2024-03-14T20:55:37.488Z</time>
      </trkpt>
      <trkpt lat="48.13254" lon="4.56704">
        <ele>304.752604</ele>
        <time>2024-03-14T20:57:10.445Z</time>
      </trkpt>
      <trkpt lat="48.13404" lon="4.56657">
        <ele>297.955347</ele>
        <time>2024-03-14T20:57:55.901Z</time>
      </trkpt>
      <trkpt lat="48.1355" lon="4.56655">
        <ele>288.317154</ele>
        <time>2024-03-14T20:58:36.073Z</time>
      </trkpt>
      <trkpt lat="48.13621" lon="4.56712">
        <ele>279.708875</ele>
        <time>2024-03-14T20:58:56.688Z</time>
      </trkpt>
      <trkpt lat="48.13708" lon="4.56739">
        <ele>270.242834</ele>
        <time>2024-03-14T20:59:09.556Z</time>
      </trkpt>
      <trkpt lat="48.1379" lon="4.56784">
        <ele>261.776761</ele>
        <time>2024-03-14T20:59:22.311Z</time>
      </trkpt>
      <trkpt lat="48.1384" lon="4.56852">
        <ele>255.300324</ele>
        <time>2024-03-14T20:59:32.499Z</time>
      </trkpt>
      <trkpt lat="48.13884" lon="4.56891">
        <ele>251.248787</ele>
        <time>2024-03-14T20:59:40.546Z</time>
      </trkpt>
      <trkpt lat="48.13931" lon="4.56914">
        <ele>248.435064</ele>
        <time>2024-03-14T20:59:48.620Z</time>
      </trkpt>
      <trkpt lat="48.13976" lon="4.56931">
        <ele>245.780752</ele>
        <time>2024-03-14T20:59:56.360Z</time>
      </trkpt>
      <trkpt lat="48.14003" lon="4.56929">
        <ele>244.239276</ele>
        <time>2024-03-14T21:00:00.862Z</time>
      </trkpt>
      <trkpt lat="48.14008" lon="4.56928">
        <ele>243.93086</ele>
        <time>2024-03-14T21:00:01.771Z</time>
      </trkpt>
      <trkpt lat="48.14081" lon="4.56917">
        <ele>240.045298</ele>
        <time>2024-03-14T21:00:13.821Z</time>
      </trkpt>
      <trkpt lat="48.14185" lon="4.56919">
        <ele>234.740948</ele>
        <time>2024-03-14T21:00:30.915Z</time>
      </trkpt>
      <trkpt lat="48.14255" lon="4.56887">
        <ele>232.031841</ele>
        <time>2024-03-14T21:00:43.307Z</time>
      </trkpt>
      <trkpt lat="48.14285" lon="4.56866">
        <ele>231.175168</ele>
        <time>2024-03-14T21:00:49.234Z</time>
      </trkpt>
      <trkpt lat="48.14311" lon="4.56835">
        <ele>230.329538</ele>
        <time>2024-03-14T21:00:55.344Z</time>
      </trkpt>
      <trkpt lat="48.14317" lon="4.56829">
        <ele>230.153016</ele>
        <time>2024-03-14T21:00:56.659Z</time>
      </trkpt>
      <trkpt lat="48.14319" lon="4.56823">
        <ele>230.034658</ele>
        <time>2024-03-14T21:00:57.564Z</time>
      </trkpt>
      <trkpt lat="48.14339" lon="4.56886">
        <ele>228.840269</ele>
        <time>2024-03-14T21:01:06.598Z</time>
      </trkpt>
      <trkpt lat="48.14357" lon="4.56914">
        <ele>228.568343</ele>
        <time>2024-03-14T21:01:11.788Z</time>
      </trkpt>
      <trkpt lat="48.14366" lon="4.5692">
        <ele>228.69403</ele>
        <time>2024-03-14T21:01:14.171Z</time>
      </trkpt>
      <trkpt lat="48.1438" lon="4.56923">
        <ele>228.861818</ele>
        <time>2024-03-14T21:01:17.190Z</time>
      </trkpt>
      <trkpt lat="48.14409" lon="4.56925">
        <ele>229.20318</ele>
        <time>2024-03-14T21:01:24.619Z</time>
      </trkpt>
      <trkpt lat="48.14432" lon="4.5694">
        <ele>229.493157</ele>
        <time>2024-03-14T21:01:31.751Z</time>
      </trkpt>
      <trkpt lat="48.14462" lon="4.56971">
        <ele>229.919736</ele>
        <time>2024-03-14T21:01:42.941Z</time>
      </trkpt>
      <trkpt lat="48.14477" lon="4.56981">
        <ele>230.108146</ele>
        <time>2024-03-14T21:01:47.885Z</time>
      </trkpt>
      <trkpt lat="48.145" lon="4.56988">
        <ele>230.39294</ele>
        <time>2024-03-14T21:01:55.968Z</time>
      </trkpt>
      <trkpt lat="48.14515" lon="4.56988">
        <ele>230.571833</ele>
        <time>2024-03-14T21:02:00.825Z</time>
      </trkpt>
      <trkpt lat="48.14549" lon="4.56988">
        <ele>232.045251</ele>
        <time>2024-03-14T21:02:12.926Z</time>
      </trkpt>
      <trkpt lat="48.14578" lon="4.56992">
        <ele>233.318767</ele>
        <time>2024-03-14T21:02:24.822Z</time>
      </trkpt>
      <trkpt lat="48.14577" lon="4.57013">
        <ele>233.940264</ele>
        <time>2024-03-14T21:02:30.940Z</time>
      </trkpt>
      <trkpt lat="48.14582" lon="4.57074">
        <ele>235.738383</ele>
        <time>2024-03-14T21:02:50.099Z</time>
      </trkpt>
      <trkpt lat="48.14583" lon="4.57127">
        <ele>237.270125</ele>
        <time>2024-03-14T21:03:07.221Z</time>
      </trkpt>
      <trkpt lat="48.14588" lon="4.57151">
        <ele>238.005379</ele>
        <time>2024-03-14T21:03:15.963Z</time>
      </trkpt>
      <trkpt lat="48.14597" lon="4.57181">
        <ele>239.206888</ele>
        <time>2024-03-14T21:03:27.267Z</time>
      </trkpt>
      <trkpt lat="48.14619" lon="4.57242">
        <ele>242.06917</ele>
        <time>2024-03-14T21:03:51.603Z</time>
      </trkpt>
      <trkpt lat="48.14629" lon="4.57283">
        <ele>243.873677</ele>
        <time>2024-03-14T21:04:07.016Z</time>
      </trkpt>
      <trkpt lat="48.14646" lon="4.57513">
        <ele>253.848425</ele>
        <time>2024-03-14T21:05:31.027Z</time>
      </trkpt>
      <trkpt lat="48.14656" lon="4.57569">
        <ele>256.524016</ele>
        <time>2024-03-14T21:05:51.983Z</time>
      </trkpt>
      <trkpt lat="48.14665" lon="4.57606">
        <ele>258.333756</ele>
        <time>2024-03-14T21:06:06.677Z</time>
      </trkpt>
      <trkpt lat="48.14689" lon="4.57663">
        <ele>261.455843</ele>
        <time>2024-03-14T21:06:33.033Z</time>
      </trkpt>
      <trkpt lat="48.14712" lon="4.57701">
        <ele>264.463046</ele>
        <time>2024-03-14T21:06:54.410Z</time>
      </trkpt>
      <trkpt lat="48.14735" lon="4.57728">
        <ele>267.172508</ele>
        <time>2024-03-14T21:07:13.748Z</time>
      </trkpt>
      <trkpt lat="48.14784" lon="4.57772">
        <ele>272.548696</ele>
        <time>2024-03-14T21:07:55.221Z</time>
      </trkpt>
      <trkpt lat="48.14811" lon="4.57806">
        <ele>275.833927</ele>
        <time>2024-03-14T21:08:21.187Z</time>
      </trkpt>
      <trkpt lat="48.14847" lon="4.57876">
        <ele>281.023448</ele>
        <time>2024-03-14T21:09:03.876Z</time>
      </trkpt>
      <trkpt lat="48.14868" lon="4.57924">
        <ele>284.113424</ele>
        <time>2024-03-14T21:09:30.108Z</time>
      </trkpt>
      <trkpt lat="48.14879" lon="4.57964">
        <ele>286.49807</ele>
        <time>2024-03-14T21:09:49.458Z</time>
      </trkpt>
      <trkpt lat="48.14882" lon="4.57992">
        <ele>288.062026</ele>
        <time>2024-03-14T21:10:01.570Z</time>
      </trkpt>
      <trkpt lat="48.14881" lon="4.58001">
        <ele>288.544448</ele>
        <time>2024-03-14T21:10:05.264Z</time>
      </trkpt>
      <trkpt lat="48.14879" lon="4.5806">
        <ele>291.733606</ele>
        <time>2024-03-14T21:10:29.335Z</time>
      </trkpt>
      <trkpt lat="48.14884" lon="4.5815">
        <ele>294.809987</ele>
        <time>2024-03-14T21:11:01.227Z</time>
      </trkpt>
      <trkpt lat="48.14888" lon="4.58187">
        <ele>295.639492</ele>
        <time>2024-03-14T21:11:12.158Z</time>
      </trkpt>
      <trkpt lat="48.14898" lon="4.58233">
        <ele>296.720099</ele>
        <time>2024-03-14T21:11:25.150Z</time>
      </trkpt>
      <trkpt lat="48.14951" lon="4.58364">
        <ele>299.730848</ele>
        <time>2024-03-14T21:12:00.422Z</time>
      </trkpt>
      <trkpt lat="48.14965" lon="4.5839">
        <ele>299.995241</ele>
        <time>2024-03-14T21:12:07.122Z</time>
      </trkpt>
      <trkpt lat="48.15021" lon="4.58485">
        <ele>300.98384</ele>
        <time>2024-03-14T21:12:31.681Z</time>
      </trkpt>
      <trkpt lat="48.15065" lon="4.58543">
        <ele>301.671301</ele>
        <time>2024-03-14T21:12:49.120Z</time>
      </trkpt>
      <trkpt lat="48.15081" lon="4.58568">
        <ele>301.990998</ele>
        <time>2024-03-14T21:12:56.280Z</time>
      </trkpt>
      <trkpt lat="48.15102" lon="4.58602">
        <ele>302.403884</ele>
        <time>2024-03-14T21:13:05.679Z</time>
      </trkpt>
      <trkpt lat="48.15114" lon="4.58617">
        <ele>302.615828</ele>
        <time>2024-03-14T21:13:10.707Z</time>
      </trkpt>
      <trkpt lat="48.1518" lon="4.58661">
        <ele>303.578221</ele>
        <time>2024-03-14T21:13:33.835Z</time>
      </trkpt>
      <trkpt lat="48.15299" lon="4.58731">
        <ele>305.288659</ele>
        <time>2024-03-14T21:14:13.927Z</time>
      </trkpt>
      <trkpt lat="48.15359" lon="4.58777">
        <ele>306.19214</ele>
        <time>2024-03-14T21:14:34.390Z</time>
      </trkpt>
      <trkpt lat="48.15387" lon="4.58807">
        <ele>306.725874</ele>
        <time>2024-03-14T21:14:45.707Z</time>
      </trkpt>
      <trkpt lat="48.15446" lon="4.58888">
        <ele>308.09947</ele>
        <time>2024-03-14T21:15:12.959Z</time>
      </trkpt>
      <trkpt lat="48.15531" lon="4.59048">
        <ele>309.769588</ele>
        <time>2024-03-14T21:15:59.310Z</time>
      </trkpt>
      <trkpt lat="48.1563" lon="4.59204">
        <ele>310.155615</ele>
        <time>2024-03-14T21:16:34.235Z</time>
      </trkpt>
      <trkpt lat="48.15641" lon="4.59224">
        <ele>310.043249</ele>
        <time>2024-03-14T21:16:37.918Z</time>
      </trkpt>
      <trkpt lat="48.15653" lon="4.59254">
        <ele>309.884263</ele>
        <time>2024-03-14T21:16:43.038Z</time>
      </trkpt>
      <trkpt lat="48.15675" lon="4.5936">
        <ele>309.383424</ele>
        <time>2024-03-14T21:16:59.642Z</time>
      </trkpt>
      <trkpt lat="48.157" lon="4.59461">
        <ele>309.132535</ele>
        <time>2024-03-14T21:17:16.301Z</time>
      </trkpt>
      <trkpt lat="48.15717" lon="4.59517">
        <ele>309.279718</ele>
        <time>2024-03-14T21:17:27.145Z</time>
      </trkpt>
      <trkpt lat="48.15734" lon="4.59566">
        <ele>309.412823</ele>
        <time>2024-03-14T21:17:37.225Z</time>
      </trkpt>
      <trkpt lat="48.15759" lon="4.59624">
        <ele>309.57753</ele>
        <time>2024-03-14T21:17:50.193Z</time>
      </trkpt>
      <trkpt lat="48.1581" lon="4.59735">
        <ele>310.073696</ele>
        <time>2024-03-14T21:18:16.041Z</time>
      </trkpt>
      <trkpt lat="48.1584" lon="4.59777">
        <ele>310.347354</ele>
        <time>2024-03-14T21:18:27.018Z</time>
      </trkpt>
      <trkpt lat="48.15872" lon="4.59805">
        <ele>310.591281</ele>
        <time>2024-03-14T21:18:37.065Z</time>
      </trkpt>
      <trkpt lat="48.15894" lon="4.5982">
        <ele>310.750753</ele>
        <time>2024-03-14T21:18:43.813Z</time>
      </trkpt>
      <trkpt lat="48.15931" lon="4.59838">
        <ele>311.024755</ele>
        <time>2024-03-14T21:18:55.166Z</time>
      </trkpt>
      <trkpt lat="48.15973" lon="4.59852">
        <ele>311.338435</ele>
        <time>2024-03-14T21:19:07.714Z</time>
      </trkpt>
      <trkpt lat="48.15985" lon="4.5986">
        <ele>311.434393</ele>
        <time>2024-03-14T21:19:11.464Z</time>
      </trkpt>
      <trkpt lat="48.15992" lon="4.59867">
        <ele>311.496289</ele>
        <time>2024-03-14T21:19:13.993Z</time>
      </trkpt>
      <trkpt lat="48.16002" lon="4.59888">
        <ele>311.625214</ele>
        <time>2024-03-14T21:19:19.160Z</time>
      </trkpt>
      <trkpt lat="48.16016" lon="4.59915">
        <ele>311.791346</ele>
        <time>2024-03-14T21:19:25.686Z</time>
      </trkpt>
      <trkpt lat="48.16034" lon="4.59934">
        <ele>311.948368</ele>
        <time>2024-03-14T21:19:31.668Z</time>
      </trkpt>
      <trkpt lat="48.16094" lon="4.59966">
        <ele>312.071561</ele>
        <time>2024-03-14T21:19:49.230Z</time>
      </trkpt>
      <trkpt lat="48.16109" lon="4.59978">
        <ele>311.989914</ele>
        <time>2024-03-14T21:19:53.738Z</time>
      </trkpt>
      <trkpt lat="48.16136" lon="4.60007">
        <ele>311.830086</ele>
        <time>2024-03-14T21:20:02.194Z</time>
      </trkpt>
      <trkpt lat="48.16173" lon="4.6006">
        <ele>311.5831</ele>
        <time>2024-03-14T21:20:13.946Z</time>
      </trkpt>
      <trkpt lat="48.16204" lon="4.60117">
        <ele>311.344899</ele>
        <time>2024-03-14T21:20:24.580Z</time>
      </trkpt>
      <trkpt lat="48.16256" lon="4.60196">
        <ele>309.935389</ele>
        <time>2024-03-14T21:20:39.897Z</time>
      </trkpt>
      <trkpt lat="48.16288" lon="4.60252">
        <ele>308.994609</ele>
        <time>2024-03-14T21:20:49.941Z</time>
      </trkpt>
      <trkpt lat="48.16384" lon="4.60401">
        <ele>306.151913</ele>
        <time>2024-03-14T21:21:18.694Z</time>
      </trkpt>
      <trkpt lat="48.16431" lon="4.60515">
        <ele>304.228879</ele>
        <time>2024-03-14T21:21:37.130Z</time>
      </trkpt>
      <trkpt lat="48.1646" lon="4.60602">
        <ele>301.845164</ele>
        <time>2024-03-14T21:21:49.740Z</time>
      </trkpt>
      <trkpt lat="48.16486" lon="4.60653">
        <ele>300.127193</ele>
        <time>2024-03-14T21:21:57.924Z</time>
      </trkpt>
      <trkpt lat="48.16535" lon="4.60723">
        <ele>297.444899</ele>
        <time>2024-03-14T21:22:10.432Z</time>
      </trkpt>
      <trkpt lat="48.16653" lon="4.60851">
        <ele>287.812884</ele>
        <time>2024-03-14T21:22:35.555Z</time>
      </trkpt>
      <trkpt lat="48.16689" lon="4.60899">
        <ele>284.494341</ele>
        <time>2024-03-14T21:22:42.576Z</time>
      </trkpt>
      <trkpt lat="48.16727" lon="4.60963">
        <ele>278.350796</ele>
        <time>2024-03-14T21:22:50.723Z</time>
      </trkpt>
      <trkpt lat="48.16738" lon="4.60976">
        <ele>276.859623</ele>
        <time>2024-03-14T21:22:52.671Z</time>
      </trkpt>
      <trkpt lat="48.16749" lon="4.60985">
        <ele>275.535091</ele>
        <time>2024-03-14T21:22:54.387Z</time>
      </trkpt>
      <trkpt lat="48.16765" lon="4.60987">
        <ele>273.765508</ele>
        <time>2024-03-14T21:22:56.689Z</time>
      </trkpt>
      <trkpt lat="48.16809" lon="4.60983">
        <ele>269.009458</ele>
        <time>2024-03-14T21:23:02.773Z</time>
      </trkpt>
      <trkpt lat="48.16819" lon="4.60987">
        <ele>267.874635</ele>
        <time>2024-03-14T21:23:04.230Z</time>
      </trkpt>
      <trkpt lat="48.16832" lon="4.60996">
        <ele>266.373017</ele>
        <time>2024-03-14T21:23:06.160Z</time>
      </trkpt>
      <trkpt lat="48.16883" lon="4.61066">
        <ele>258.731957</ele>
        <time>2024-03-14T21:23:15.799Z</time>
      </trkpt>
      <trkpt lat="48.16904" lon="4.61126">
        <ele>253.773289</ele>
        <time>2024-03-14T21:23:22.069Z</time>
      </trkpt>
      <trkpt lat="48.16927" lon="4.61162">
        <ele>250.160233</ele>
        <time>2024-03-14T21:23:26.650Z</time>
      </trkpt>
      <trkpt lat="48.16945" lon="4.61187">
        <ele>247.347649</ele>
        <time>2024-03-14T21:23:30.413Z</time>
      </trkpt>
      <trkpt lat="48.17011" lon="4.61239">
        <ele>240.715566</ele>
        <time>2024-03-14T21:23:41.475Z</time>
      </trkpt>
      <trkpt lat="48.17028" lon="4.61249">
        <ele>239.213409</ele>
        <time>2024-03-14T21:23:44.257Z</time>
      </trkpt>
      <trkpt lat="48.1706" lon="4.61278">
        <ele>236.127958</ele>
        <time>2024-03-14T21:23:50.028Z</time>
      </trkpt>
      <trkpt lat="48.17084" lon="4.61294">
        <ele>233.963569</ele>
        <time>2024-03-14T21:23:54.131Z</time>
      </trkpt>
      <trkpt lat="48.17092" lon="4.61304">
        <ele>233.105687</ele>
        <time>2024-03-14T21:23:55.754Z</time>
      </trkpt>
      <trkpt lat="48.17098" lon="4.61331">
        <ele>231.565434</ele>
        <time>2024-03-14T21:23:58.700Z</time>
      </trkpt>
      <trkpt lat="48.171" lon="4.61351">
        <ele>230.425926</ele>
        <time>2024-03-14T21:24:00.893Z</time>
      </trkpt>
      <trkpt lat="48.17094" lon="4.6145">
        <ele>227.294683</ele>
        <time>2024-03-14T21:24:11.551Z</time>
      </trkpt>
      <trkpt lat="48.17097" lon="4.61466">
        <ele>226.784114</ele>
        <time>2024-03-14T21:24:13.313Z</time>
      </trkpt>
      <trkpt lat="48.17123" lon="4.61528">
        <ele>224.488332</ele>
        <time>2024-03-14T21:24:21.508Z</time>
      </trkpt>
      <trkpt lat="48.17124" lon="4.61538">
        <ele>224.172729</ele>
        <time>2024-03-14T21:24:22.684Z</time>
      </trkpt>
      <trkpt lat="48.1711" lon="4.61638">
        <ele>221.908508</ele>
        <time>2024-03-14T21:24:35.175Z</time>
      </trkpt>
      <trkpt lat="48.1713" lon="4.61657">
        <ele>221.873191</ele>
        <time>2024-03-14T21:24:39.654Z</time>
      </trkpt>
      <trkpt lat="48.1715" lon="4.61682">
        <ele>221.834485</ele>
        <time>2024-03-14T21:24:44.916Z</time>
      </trkpt>
      <trkpt lat="48.17152" lon="4.61683">
        <ele>221.830566</ele>
        <time>2024-03-14T21:24:45.472Z</time>
      </trkpt>
      <trkpt lat="48.17213" lon="4.61696">
        <ele>221.738885</ele>
        <time>2024-03-14T21:25:00.013Z</time>
      </trkpt>
      <trkpt lat="48.17229" lon="4.6169">
        <ele>221.714127</ele>
        <time>2024-03-14T21:25:04.628Z</time>
      </trkpt>
      <trkpt lat="48.17243" lon="4.61674">
        <ele>221.688406</ele>
        <time>2024-03-14T21:25:09.695Z</time>
      </trkpt>
      <trkpt lat="48.17294" lon="4.61581">
        <ele>224.367708</ele>
        <time>2024-03-14T21:25:37.898Z</time>
      </trkpt>
      <trkpt lat="48.17337" lon="4.61522">
        <ele>226.630421</ele>
        <time>2024-03-14T21:26:03.925Z</time>
      </trkpt>
      <trkpt lat="48.17341" lon="4.61516">
        <ele>226.855789</ele>
        <time>2024-03-14T21:26:06.703Z</time>
      </trkpt>
      <trkpt lat="48.17366" lon="4.61475">
        <ele>228.304062</ele>
        <time>2024-03-14T21:26:24.664Z</time>
      </trkpt>
      <trkpt lat="48.17371" lon="4.61461">
        <ele>228.741566</ele>
        <time>2024-03-14T21:26:29.566Z</time>
      </trkpt>
      <trkpt lat="48.17378" lon="4.61464">
        <ele>229.233869</ele>
        <time>2024-03-14T21:26:33.171Z</time>
      </trkpt>
      <trkpt lat="48.1739" lon="4.6147">
        <ele>230.131049</ele>
        <time>2024-03-14T21:26:39.957Z</time>
      </trkpt>
      <trkpt lat="48.17428" lon="4.61469">
        <ele>232.722666</ele>
        <time>2024-03-14T21:26:59.651Z</time>
      </trkpt>
      <trkpt lat="48.17447" lon="4.61473">
        <ele>234.111994</ele>
        <time>2024-03-14T21:27:10.425Z</time>
      </trkpt>
      <trkpt lat="48.17454" lon="4.61478">
        <ele>234.620872</ele>
        <time>2024-03-14T21:27:14.837Z</time>
      </trkpt>
      <trkpt lat="48.17468" lon="4.61488">
        <ele>235.732059</ele>
        <time>2024-03-14T21:27:24.007Z</time>
      </trkpt>
      <trkpt lat="48.175" lon="4.61524">
        <ele>238.507149</ele>
        <time>2024-03-14T21:27:47.947Z</time>
      </trkpt>
      <trkpt lat="48.1751" lon="4.61535">
        <ele>239.345809</ele>
        <time>2024-03-14T21:27:55.497Z</time>
      </trkpt>
      <trkpt lat="48.17524" lon="4.61548">
        <ele>240.490251</ele>
        <time>2024-03-14T21:28:08.840Z</time>
      </trkpt>
      <trkpt lat="48.17536" lon="4.61559">
        <ele>241.627945</ele>
        <time>2024-03-14T21:28:20.073Z</time>
      </trkpt>
      <trkpt lat="48.1757" lon="4.61572">
        <ele>245.243665</ele>
        <time>2024-03-14T21:28:48.721Z</time>
      </trkpt>
      <trkpt lat="48.17645" lon="4.61583">
        <ele>253.144179</ele>
        <time>2024-03-14T21:29:54.933Z</time>
      </trkpt>
      <trkpt lat="48.17732" lon="4.61602">
        <ele>262.500934</ele>
        <time>2024-03-14T21:31:20.896Z</time>
      </trkpt>
      <trkpt lat="48.17794" lon="4.6162">
        <ele>269.596292</ele>
        <time>2024-03-14T21:32:22.878Z</time>
      </trkpt>
      <trkpt lat="48.17851" lon="4.61637">
        <ele>276.242526</ele>
        <time>2024-03-14T21:33:17.845Z</time>
      </trkpt>
      <trkpt lat="48.17866" lon="4.61692">
        <ele>280.531425</ele>
        <time>2024-03-14T21:33:52.590Z</time>
      </trkpt>
      <trkpt lat="48.17868" lon="4.61698">
        <ele>280.888487</ele>
        <time>2024-03-14T21:33:56.756Z</time>
      </trkpt>
      <trkpt lat="48.1793" lon="4.61765">
        <ele>286.649307</ele>
        <time>2024-03-14T21:34:58.474Z</time>
      </trkpt>
      <trkpt lat="48.18012" lon="4.61795">
        <ele>292.965708</ele>
        <time>2024-03-14T21:35:57.853Z</time>
      </trkpt>
      <trkpt lat="48.18108" lon="4.61826">
        <ele>296.022942</ele>
        <time>2024-03-14T21:36:55.471Z</time>
      </trkpt>
      <trkpt lat="48.18225" lon="4.6187">
        <ele>297.863081</ele>
        <time>2024-03-14T21:37:45.439Z</time>
      </trkpt>
      <trkpt lat="48.18223" lon="4.61878">
        <ele>297.762007</ele>
        <time>2024-03-14T21:37:47.206Z</time>
      </trkpt>
      <trkpt lat="48.18223" lon="4.61878">
        <ele>297.762007</ele>
        <time>2024-03-14T21:37:47.264Z</time>
      </trkpt>
      <trkpt lat="48.18223" lon="4.61878">
        <ele>297.762007</ele>
        <time>2024-03-14T21:37:47.264Z</time>
      </trkpt>
      <trkpt lat="48.18313" lon="4.61869">
        <ele>296.058203</ele>
        <time>2024-03-14T21:38:10.466Z</time>
      </trkpt>
      <trkpt lat="48.18402" lon="4.61859">
        <ele>294.033902</ele>
        <time>2024-03-14T21:38:33.673Z</time>
      </trkpt>
      <trkpt lat="48.18447" lon="4.61855">
        <ele>292.743462</ele>
        <time>2024-03-14T21:38:45.288Z</time>
      </trkpt>
      <trkpt lat="48.18492" lon="4.6185">
        <ele>291.453152</ele>
        <time>2024-03-14T21:38:56.903Z</time>
      </trkpt>
      <trkpt lat="48.18582" lon="4.61841">
        <ele>288.974295</ele>
        <time>2024-03-14T21:39:20.108Z</time>
      </trkpt>
      <trkpt lat="48.18671" lon="4.61832">
        <ele>286.666851</ele>
        <time>2024-03-14T21:39:43.331Z</time>
      </trkpt>
      <trkpt lat="48.1867" lon="4.61839">
        <ele>286.550678</ele>
        <time>2024-03-14T21:39:44.728Z</time>
      </trkpt>
      <trkpt lat="48.18739" lon="4.61874">
        <ele>284.814929</ele>
        <time>2024-03-14T21:40:08.225Z</time>
      </trkpt>
      <trkpt lat="48.18833" lon="4.61874">
        <ele>283.027003</ele>
        <time>2024-03-14T21:40:38.785Z</time>
      </trkpt>
      <trkpt lat="48.18871" lon="4.61882">
        <ele>282.299775</ele>
        <time>2024-03-14T21:40:51.431Z</time>
      </trkpt>
      <trkpt lat="48.18945" lon="4.61906">
        <ele>280.535232</ele>
        <time>2024-03-14T21:41:16.801Z</time>
      </trkpt>
      <trkpt lat="48.19068" lon="4.61922">
        <ele>277.351439</ele>
        <time>2024-03-14T21:41:55.369Z</time>
      </trkpt>
      <trkpt lat="48.19081" lon="4.61945">
        <ele>276.663733</ele>
        <time>2024-03-14T21:42:01.523Z</time>
      </trkpt>
      <trkpt lat="48.1908" lon="4.61934">
        <ele>276.369754</ele>
        <time>2024-03-14T21:42:03.879Z</time>
      </trkpt>
      <trkpt lat="48.19081" lon="4.61945">
        <ele>276.075776</ele>
        <time>2024-03-14T21:42:06.142Z</time>
      </trkpt>
      <trkpt lat="48.19135" lon="4.62033">
        <ele>272.941375</ele>
        <time>2024-03-14T21:42:30.000Z</time>
      </trkpt>
      <trkpt lat="48.1921" lon="4.6208">
        <ele>269.711811</ele>
        <time>2024-03-14T21:42:53.849Z</time>
      </trkpt>
      <trkpt lat="48.19271" lon="4.6214">
        <ele>266.222474</ele>
        <time>2024-03-14T21:43:15.603Z</time>
      </trkpt>
      <trkpt lat="48.19319" lon="4.62153">
        <ele>263.941683</ele>
        <time>2024-03-14T21:43:29.823Z</time>
      </trkpt>
      <trkpt lat="48.19361" lon="4.62188">
        <ele>261.630658</ele>
        <time>2024-03-14T21:43:43.724Z</time>
      </trkpt>
      <trkpt lat="48.19449" lon="4.62216">
        <ele>253.651977</ele>
        <time>2024-03-14T21:44:08.018Z</time>
      </trkpt>
      <trkpt lat="48.19562" lon="4.62286">
        <ele>241.762586</ele>
        <time>2024-03-14T21:44:38.957Z</time>
      </trkpt>
      <trkpt lat="48.19625" lon="4.62357">
        <ele>232.470571</ele>
        <time>2024-03-14T21:44:58.441Z</time>
      </trkpt>
      <trkpt lat="48.19639" lon="4.62368">
        <ele>230.564591</ele>
        <time>2024-03-14T21:45:02.418Z</time>
      </trkpt>
      <trkpt lat="48.19685" lon="4.62369">
        <ele>225.128581</ele>
        <time>2024-03-14T21:45:13.948Z</time>
      </trkpt>
      <trkpt lat="48.19776" lon="4.62338">
        <ele>217.296119</ele>
        <time>2024-03-14T21:45:37.975Z</time>
      </trkpt>
      <trkpt lat="48.19819" lon="4.62344">
        <ele>213.850329</ele>
        <time>2024-03-14T21:45:49.766Z</time>
      </trkpt>
      <trkpt lat="48.19879" lon="4.62364">
        <ele>209.302864</ele>
        <time>2024-03-14T21:46:07.166Z</time>
      </trkpt>
      <trkpt lat="48.19998" lon="4.62407">
        <ele>204.7199</ele>
        <time>2024-03-14T21:46:43.073Z</time>
      </trkpt>
      <trkpt lat="48.20013" lon="4.62408">
        <ele>204.133396</ele>
        <time>2024-03-14T21:46:45.956Z</time>
      </trkpt>
      <trkpt lat="48.20061" lon="4.62433">
        <ele>202.888794</ele>
        <time>2024-03-14T21:46:55.743Z</time>
      </trkpt>
      <trkpt lat="48.20097" lon="4.62399">
        <ele>202.935686</ele>
        <time>2024-03-14T21:47:04.843Z</time>
      </trkpt>
      <trkpt lat="48.2016" lon="4.62358">
        <ele>203.012465</ele>
        <time>2024-03-14T21:47:22.668Z</time>
      </trkpt>
      <trkpt lat="48.20195" lon="4.62331">
        <ele>203.056265</ele>
        <time>2024-03-14T21:47:34.727Z</time>
      </trkpt>
      <trkpt lat="48.20168" lon="4.6223">
        <ele>203.265367</ele>
        <time>2024-03-14T21:47:56.458Z</time>
      </trkpt>
      <trkpt lat="48.20156" lon="4.62179">
        <ele>203.38417</ele>
        <time>2024-03-14T21:48:05.317Z</time>
      </trkpt>
      <trkpt lat="48.20155" lon="4.62174">
        <ele>203.394868</ele>
        <time>2024-03-14T21:48:06.088Z</time>
      </trkpt>
      <trkpt lat="48.20156" lon="4.62179">
        <ele>203.405566</ele>
        <time>2024-03-14T21:48:06.765Z</time>
      </trkpt>
      <trkpt lat="48.20174" lon="4.62169">
        <ele>203.467529</ele>
        <time>2024-03-14T21:48:11.211Z</time>
      </trkpt>
      <trkpt lat="48.20207" lon="4.62161">
        <ele>203.577457</ele>
        <time>2024-03-14T21:48:18.493Z</time>
      </trkpt>
      <trkpt lat="48.20298" lon="4.62149">
        <ele>204.283171</ele>
        <time>2024-03-14T21:48:38.360Z</time>
      </trkpt>
      <trkpt lat="48.20303" lon="4.62134">
        <ele>204.389498</ele>
        <time>2024-03-14T21:48:40.775Z</time>
      </trkpt>
      <trkpt lat="48.20351" lon="4.62062">
        <ele>205.031172</ele>
        <time>2024-03-14T21:48:58.071Z</time>
      </trkpt>
      <trkpt lat="48.20385" lon="4.62066">
        <ele>205.349697</ele>
        <time>2024-03-14T21:49:10.312Z</time>
      </trkpt>
      <trkpt lat="48.20448" lon="4.62103">
        <ele>209.839236</ele>
        <time>2024-03-14T21:49:42.200Z</time>
      </trkpt>
      <trkpt lat="48.20476" lon="4.62103">
        <ele>211.721872</ele>
        <time>2024-03-14T21:49:58.170Z</time>
      </trkpt>
      <trkpt lat="48.20488" lon="4.62103">
        <ele>212.536386</ele>
        <time>2024-03-14T21:50:05.182Z</time>
      </trkpt>
      <trkpt lat="48.20468" lon="4.62026">
        <ele>216.246264</ele>
        <time>2024-03-14T21:50:41.835Z</time>
      </trkpt>
      <trkpt lat="48.20448" lon="4.61945">
        <ele>221.525845</ele>
        <time>2024-03-14T21:51:30.234Z</time>
      </trkpt>
      <trkpt lat="48.20452" lon="4.61907">
        <ele>224.137348</ele>
        <time>2024-03-14T21:51:53.372Z</time>
      </trkpt>
      <trkpt lat="48.20501" lon="4.61914">
        <ele>229.167596</ele>
        <time>2024-03-14T21:52:38.558Z</time>
      </trkpt>
      <trkpt lat="48.2053" lon="4.61912">
        <ele>232.159324</ele>
        <time>2024-03-14T21:53:05.273Z</time>
      </trkpt>
      <trkpt lat="48.20552" lon="4.61895">
        <ele>234.722419</ele>
        <time>2024-03-14T21:53:28.180Z</time>
      </trkpt>
      <trkpt lat="48.20563" lon="4.61877">
        <ele>236.196103</ele>
        <time>2024-03-14T21:53:41.773Z</time>
      </trkpt>
      <trkpt lat="48.20566" lon="4.61809">
        <ele>239.605803</ele>
        <time>2024-03-14T21:54:21.591Z</time>
      </trkpt>
      <trkpt lat="48.20564" lon="4.61786">
        <ele>240.764956</ele>
        <time>2024-03-14T21:54:34.542Z</time>
      </trkpt>
      <trkpt lat="48.2057" lon="4.61784">
        <ele>241.201335</ele>
        <time>2024-03-14T21:54:38.065Z</time>
      </trkpt>
      <trkpt lat="48.20588" lon="4.61687">
        <ele>246.151194</ele>
        <time>2024-03-14T21:55:27.434Z</time>
      </trkpt>
      <trkpt lat="48.20597" lon="4.61513">
        <ele>251.296776</ele>
        <time>2024-03-14T21:56:32.636Z</time>
      </trkpt>
      <trkpt lat="48.20624" lon="4.61421">
        <ele>253.158888</ele>
        <time>2024-03-14T21:57:03.766Z</time>
      </trkpt>
      <trkpt lat="48.20635" lon="4.61423">
        <ele>253.471343</ele>
        <time>2024-03-14T21:57:08.796Z</time>
      </trkpt>
      <trkpt lat="48.20641" lon="4.61423">
        <ele>253.635884</ele>
        <time>2024-03-14T21:57:11.433Z</time>
      </trkpt>
      <trkpt lat="48.20666" lon="4.61339">
        <ele>255.007064</ele>
        <time>2024-03-14T21:57:39.525Z</time>
      </trkpt>
      <trkpt lat="48.20739" lon="4.61153">
        <ele>257.765473</ele>
        <time>2024-03-14T21:58:48.170Z</time>
      </trkpt>
      <trkpt lat="48.20757" lon="4.60942">
        <ele>259.578231</ele>
        <time>2024-03-14T21:59:52.163Z</time>
      </trkpt>
      <trkpt lat="48.20835" lon="4.60964">
        <ele>259.230765</ele>
        <time>2024-03-14T22:00:22.181Z</time>
      </trkpt>
      <trkpt lat="48.20917" lon="4.60863">
        <ele>257.500967</ele>
        <time>2024-03-14T22:00:56.495Z</time>
      </trkpt>
      <trkpt lat="48.20966" lon="4.60818">
        <ele>255.522146</ele>
        <time>2024-03-14T22:01:14.189Z</time>
      </trkpt>
      <trkpt lat="48.21015" lon="4.60744">
        <ele>252.016995</ele>
        <time>2024-03-14T22:01:34.627Z</time>
      </trkpt>
      <trkpt lat="48.21046" lon="4.60667">
        <ele>248.968838</ele>
        <time>2024-03-14T22:01:51.523Z</time>
      </trkpt>
      <trkpt lat="48.21098" lon="4.60574">
        <ele>242.841778</ele>
        <time>2024-03-14T22:02:13.429Z</time>
      </trkpt>
      <trkpt lat="48.21158" lon="4.60517">
        <ele>236.954925</ele>
        <time>2024-03-14T22:02:31.945Z</time>
      </trkpt>
      <trkpt lat="48.21213" lon="4.60481">
        <ele>231.906206</ele>
        <time>2024-03-14T22:02:47.515Z</time>
      </trkpt>
      <trkpt lat="48.21292" lon="4.60441">
        <ele>224.551935</ele>
        <time>2024-03-14T22:03:09.392Z</time>
      </trkpt>
      <trkpt lat="48.21325" lon="4.60411">
        <ele>221.178481</ele>
        <time>2024-03-14T22:03:19.511Z</time>
      </trkpt>
      <trkpt lat="48.21339" lon="4.60388">
        <ele>219.406212</ele>
        <time>2024-03-14T22:03:24.868Z</time>
      </trkpt>
      <trkpt lat="48.21365" lon="4.60306">
        <ele>214.90762</ele>
        <time>2024-03-14T22:03:41.030Z</time>
      </trkpt>
      <trkpt lat="48.21394" lon="4.60233">
        <ele>211.254894</ele>
        <time>2024-03-14T22:03:56.448Z</time>
      </trkpt>
      <trkpt lat="48.21423" lon="4.60186">
        <ele>208.472401</ele>
        <time>2024-03-14T22:04:08.466Z</time>
      </trkpt>
      <trkpt lat="48.21448" lon="4.60158">
        <ele>206.440069</ele>
        <time>2024-03-14T22:04:17.372Z</time>
      </trkpt>
      <trkpt lat="48.21458" lon="4.60148">
        <ele>205.660794</ele>
        <time>2024-03-14T22:04:20.830Z</time>
      </trkpt>
      <trkpt lat="48.21515" lon="4.60122">
        <ele>203.680489</ele>
        <time>2024-03-14T22:04:38.209Z</time>
      </trkpt>
      <trkpt lat="48.21534" lon="4.60119">
        <ele>203.0826</ele>
        <time>2024-03-14T22:04:43.878Z</time>
      </trkpt>
      <trkpt lat="48.21534" lon="4.60248">
        <ele>200.320413</ele>
        <time>2024-03-14T22:05:11.271Z</time>
      </trkpt>
      <trkpt lat="48.21542" lon="4.60287">
        <ele>199.749167</ele>
        <time>2024-03-14T22:05:20.288Z</time>
      </trkpt>
      <trkpt lat="48.21586" lon="4.60446">
        <ele>199.472806</ele>
        <time>2024-03-14T22:06:01.083Z</time>
      </trkpt>
      <trkpt lat="48.216" lon="4.60511">
        <ele>199.36184</ele>
        <time>2024-03-14T22:06:19.469Z</time>
      </trkpt>
      <trkpt lat="48.2161" lon="4.60559">
        <ele>199.774527</ele>
        <time>2024-03-14T22:06:33.472Z</time>
      </trkpt>
      <trkpt lat="48.21625" lon="4.60702">
        <ele>201.601827</ele>
        <time>2024-03-14T22:07:18.257Z</time>
      </trkpt>
      <trkpt lat="48.21642" lon="4.6085">
        <ele>203.597288</ele>
        <time>2024-03-14T22:08:08.662Z</time>
      </trkpt>
      <trkpt lat="48.21696" lon="4.61096">
        <ele>206.774388</ele>
        <time>2024-03-14T22:09:30.420Z</time>
      </trkpt>
      <trkpt lat="48.21716" lon="4.61297">
        <ele>207.664047</ele>
        <time>2024-03-14T22:10:23.247Z</time>
      </trkpt>
      <trkpt lat="48.21732" lon="4.61401">
        <ele>207.374402</ele>
        <time>2024-03-14T22:10:48.988Z</time>
      </trkpt>
      <trkpt lat="48.21768" lon="4.61556">
        <ele>206.694335</ele>
        <time>2024-03-14T22:11:27.251Z</time>
      </trkpt>
      <trkpt lat="48.21774" lon="4.6165">
        <ele>205.55202</ele>
        <time>2024-03-14T22:11:48.795Z</time>
      </trkpt>
      <trkpt lat="48.21793" lon="4.61778">
        <ele>203.719362</ele>
        <time>2024-03-14T22:12:17.340Z</time>
      </trkpt>
      <trkpt lat="48.21815" lon="4.61862">
        <ele>202.208531</ele>
        <time>2024-03-14T22:12:35.532Z</time>
      </trkpt>
      <trkpt lat="48.21853" lon="4.61946">
        <ele>199.872617</ele>
        <time>2024-03-14T22:12:56.030Z</time>
      </trkpt>
      <trkpt lat="48.21888" lon="4.62014">
        <ele>197.886479</ele>
        <time>2024-03-14T22:13:13.237Z</time>
      </trkpt>
      <trkpt lat="48.21902" lon="4.62028">
        <ele>197.318038</ele>
        <time>2024-03-14T22:13:18.197Z</time>
      </trkpt>
      <trkpt lat="48.22018" lon="4.62095">
        <ele>195.09975</ele>
        <time>2024-03-14T22:13:57.534Z</time>
      </trkpt>
      <trkpt lat="48.22109" lon="4.62121">
        <ele>194.347605</ele>
        <time>2024-03-14T22:14:32.040Z</time>
      </trkpt>
      <trkpt lat="48.22181" lon="4.62118">
        <ele>195.749403</ele>
        <time>2024-03-14T22:15:04.397Z</time>
      </trkpt>
      <trkpt lat="48.22365" lon="4.62038">
        <ele>200.753673</ele>
        <time>2024-03-14T22:16:43.031Z</time>
      </trkpt>
      <trkpt lat="48.22503" lon="4.61949">
        <ele>202.882083</ele>
        <time>2024-03-14T22:18:06.711Z</time>
      </trkpt>
      <trkpt lat="48.22571" lon="4.619">
        <ele>202.492091</ele>
        <time>2024-03-14T22:18:31.883Z</time>
      </trkpt>
      <trkpt lat="48.22707" lon="4.61849">
        <ele>194.652712</ele>
        <time>2024-03-14T22:19:10.547Z</time>
      </trkpt>
      <trkpt lat="48.22675" lon="4.6207">
        <ele>185.227187</ele>
        <time>2024-03-14T22:19:32.503Z</time>
      </trkpt>
      <trkpt lat="48.22657" lon="4.62199">
        <ele>180.402384</ele>
        <time>2024-03-14T22:19:47.000Z</time>
      </trkpt>
      <trkpt lat="48.22656" lon="4.62206">
        <ele>180.170664</ele>
        <time>2024-03-14T22:19:47.734Z</time>
      </trkpt>
      <trkpt lat="48.22608" lon="4.62541">
        <ele>178.974631</ele>
        <time>2024-03-14T22:20:34.529Z</time>
      </trkpt>
      <trkpt lat="48.22607" lon="4.6256">
        <ele>179.266492</ele>
        <time>2024-03-14T22:20:37.817Z</time>
      </trkpt>
      <trkpt lat="48.22603" lon="4.62604">
        <ele>179.969555</ele>
        <time>2024-03-14T22:20:47.034Z</time>
      </trkpt>
      <trkpt lat="48.22595" lon="4.62775">
        <ele>183.480141</ele>
        <time>2024-03-14T22:21:49.871Z</time>
      </trkpt>
      <trkpt lat="48.2258" lon="4.62972">
        <ele>193.165322</ele>
        <time>2024-03-14T22:23:27.289Z</time>
      </trkpt>
      <trkpt lat="48.22578" lon="4.63005">
        <ele>194.791978</ele>
        <time>2024-03-14T22:23:46.019Z</time>
      </trkpt>
      <trkpt lat="48.22626" lon="4.63262">
        <ele>213.863857</ele>
        <time>2024-03-14T22:26:27.949Z</time>
      </trkpt>
      <trkpt lat="48.22659" lon="4.63395">
        <ele>226.392312</ele>
        <time>2024-03-14T22:28:05.703Z</time>
      </trkpt>
      <trkpt lat="48.22724" lon="4.6358">
        <ele>244.648448</ele>
        <time>2024-03-14T22:30:36.432Z</time>
      </trkpt>
      <trkpt lat="48.22738" lon="4.63634">
        <ele>249.488279</ele>
        <time>2024-03-14T22:31:18.354Z</time>
      </trkpt>
      <trkpt lat="48.22698" lon="4.6384">
        <ele>265.059798</ele>
        <time>2024-03-14T22:33:30.737Z</time>
      </trkpt>
      <trkpt lat="48.22672" lon="4.63891">
        <ele>268.355918</ele>
        <time>2024-03-14T22:34:03.209Z</time>
      </trkpt>
      <trkpt lat="48.22653" lon="4.63929">
        <ele>270.76823</ele>
        <time>2024-03-14T22:34:26.226Z</time>
      </trkpt>
      <trkpt lat="48.22532" lon="4.64165">
        <ele>282.189599</ele>
        <time>2024-03-14T22:36:31.984Z</time>
      </trkpt>
      <trkpt lat="48.22467" lon="4.64292">
        <ele>286.109458</ele>
        <time>2024-03-14T22:37:32.229Z</time>
      </trkpt>
      <trkpt lat="48.22376" lon="4.64626">
        <ele>290.124064</ele>
        <time>2024-03-14T22:39:27.653Z</time>
      </trkpt>
      <trkpt lat="48.22333" lon="4.648">
        <ele>288.642616</ele>
        <time>2024-03-14T22:40:06.185Z</time>
      </trkpt>
      <trkpt lat="48.22304" lon="4.64969">
        <ele>285.830203</ele>
        <time>2024-03-14T22:40:41.840Z</time>
      </trkpt>
      <trkpt lat="48.22265" lon="4.65212">
        <ele>287.479267</ele>
        <time>2024-03-14T22:41:52.713Z</time>
      </trkpt>
      <trkpt lat="48.22248" lon="4.65385">
        <ele>291.390368</ele>
        <time>2024-03-14T22:43:01.541Z</time>
      </trkpt>
      <trkpt lat="48.22181" lon="4.65766">
        <ele>298.733858</ele>
        <time>2024-03-14T22:45:19.936Z</time>
      </trkpt>
      <trkpt lat="48.2214" lon="4.66001">
        <ele>297.866133</ele>
        <time>2024-03-14T22:46:14.796Z</time>
      </trkpt>
      <trkpt lat="48.22146" lon="4.66091">
        <ele>298.3006</ele>
        <time>2024-03-14T22:46:35.482Z</time>
      </trkpt>
      <trkpt lat="48.2215" lon="4.66133">
        <ele>298.550153</ele>
        <time>2024-03-14T22:46:46.277Z</time>
      </trkpt>
      <trkpt lat="48.22166" lon="4.66256">
        <ele>299.291185</ele>
        <time>2024-03-14T22:47:24.608Z</time>
      </trkpt>
      <trkpt lat="48.2218" lon="4.66442">
        <ele>302.135343</ele>
        <time>2024-03-14T22:48:31.124Z</time>
      </trkpt>
      <trkpt lat="48.22218" lon="4.66545">
        <ele>303.879914</ele>
        <time>2024-03-14T22:49:08.857Z</time>
      </trkpt>
      <trkpt lat="48.22362" lon="4.66841">
        <ele>304.384809</ele>
        <time>2024-03-14T22:50:38.111Z</time>
      </trkpt>
      <trkpt lat="48.22478" lon="4.67153">
        <ele>305.763214</ele>
        <time>2024-03-14T22:52:13.810Z</time>
      </trkpt>
      <trkpt lat="48.22564" lon="4.67313">
        <ele>306.141308</ele>
        <time>2024-03-14T22:53:12.490Z</time>
      </trkpt>
      <trkpt lat="48.22747" lon="4.67655">
        <ele>302.588309</ele>
        <time>2024-03-14T22:54:52.619Z</time>
      </trkpt>
      <trkpt lat="48.22802" lon="4.67997">
        <ele>289.000889</ele>
        <time>2024-03-14T22:55:58.717Z</time>
      </trkpt>
      <trkpt lat="48.22825" lon="4.68165">
        <ele>279.73253</ele>
        <time>2024-03-14T22:56:28.777Z</time>
      </trkpt>
      <trkpt lat="48.22845" lon="4.68178">
        <ele>276.976098</ele>
        <time>2024-03-14T22:56:34.308Z</time>
      </trkpt>
      <trkpt lat="48.22902" lon="4.68148">
        <ele>269.249052</ele>
        <time>2024-03-14T22:56:49.381Z</time>
      </trkpt>
      <trkpt lat="48.22926" lon="4.68156">
        <ele>266.138304</ele>
        <time>2024-03-14T22:56:55.367Z</time>
      </trkpt>
      <trkpt lat="48.22945" lon="4.68183">
        <ele>262.78628</ele>
        <time>2024-03-14T22:57:01.846Z</time>
      </trkpt>
      <trkpt lat="48.22981" lon="4.68292">
        <ele>251.472825</ele>
        <time>2024-03-14T22:57:21.661Z</time>
      </trkpt>
      <trkpt lat="48.22991" lon="4.68382">
        <ele>242.356725</ele>
        <time>2024-03-14T22:57:36.250Z</time>
      </trkpt>
      <trkpt lat="48.22999" lon="4.68454">
        <ele>235.041207</ele>
        <time>2024-03-14T22:57:47.966Z</time>
      </trkpt>
      <trkpt lat="48.22996" lon="4.68512">
        <ele>229.42634</ele>
        <time>2024-03-14T22:57:57.349Z</time>
      </trkpt>
      <trkpt lat="48.23019" lon="4.68648">
        <ele>216.851233</ele>
        <time>2024-03-14T22:58:20.357Z</time>
      </trkpt>
      <trkpt lat="48.23036" lon="4.68804">
        <ele>203.363709</ele>
        <time>2024-03-14T22:58:46.399Z</time>
      </trkpt>
      <trkpt lat="48.2305" lon="4.68872">
        <ele>198.041953</ele>
        <time>2024-03-14T22:58:58.085Z</time>
      </trkpt>
      <trkpt lat="48.23067" lon="4.68927">
        <ele>193.424652</ele>
        <time>2024-03-14T22:59:08.327Z</time>
      </trkpt>
      <trkpt lat="48.23083" lon="4.68964">
        <ele>190.089554</ele>
        <time>2024-03-14T22:59:15.798Z</time>
      </trkpt>
      <trkpt lat="48.23096" lon="4.68989">
        <ele>187.678474</ele>
        <time>2024-03-14T22:59:21.285Z</time>
      </trkpt>
      <trkpt lat="48.23144" lon="4.69056">
        <ele>183.122813</ele>
        <time>2024-03-14T22:59:31.265Z</time>
      </trkpt>
      <trkpt lat="48.23157" lon="4.69086">
        <ele>181.660048</ele>
        <time>2024-03-14T22:59:35.005Z</time>
      </trkpt>
      <trkpt lat="48.23166" lon="4.69113">
        <ele>180.421959</ele>
        <time>2024-03-14T22:59:38.244Z</time>
      </trkpt>
      <trkpt lat="48.23172" lon="4.6915">
        <ele>178.837677</ele>
        <time>2024-03-14T22:59:42.446Z</time>
      </trkpt>
      <trkpt lat="48.23146" lon="4.69246">
        <ele>175.151839</ele>
        <time>2024-03-14T22:59:53.944Z</time>
      </trkpt>
      <trkpt lat="48.23141" lon="4.69282">
        <ele>174.657426</ele>
        <time>2024-03-14T22:59:58.244Z</time>
      </trkpt>
      <trkpt lat="48.23138" lon="4.69376">
        <ele>173.378783</ele>
        <time>2024-03-14T23:00:09.760Z</time>
      </trkpt>
      <trkpt lat="48.23143" lon="4.69467">
        <ele>172.134429</ele>
        <time>2024-03-14T23:00:21.558Z</time>
      </trkpt>
      <trkpt lat="48.23149" lon="4.69505">
        <ele>171.671543</ele>
        <time>2024-03-14T23:00:26.709Z</time>
      </trkpt>
      <trkpt lat="48.23151" lon="4.69517">
        <ele>171.573795</ele>
        <time>2024-03-14T23:00:28.360Z</time>
      </trkpt>
      <trkpt lat="48.23158" lon="4.69569">
        <ele>171.165558</ele>
        <time>2024-03-14T23:00:35.107Z</time>
      </trkpt>
      <trkpt lat="48.23157" lon="4.69589">
        <ele>171.01291</ele>
        <time>2024-03-14T23:00:37.605Z</time>
      </trkpt>
      <trkpt lat="48.23142" lon="4.69724">
        <ele>169.945962</ele>
        <time>2024-03-14T23:00:55.429Z</time>
      </trkpt>
      <trkpt lat="48.23138" lon="4.69742">
        <ele>169.794194</ele>
        <time>2024-03-14T23:00:57.955Z</time>
      </trkpt>
      <trkpt lat="48.23124" lon="4.69792">
        <ele>169.725394</ele>
        <time>2024-03-14T23:01:05.167Z</time>
      </trkpt>
      <trkpt lat="48.23083" lon="4.69855">
        <ele>169.8502</ele>
        <time>2024-03-14T23:01:17.721Z</time>
      </trkpt>
      <trkpt lat="48.23076" lon="4.69883">
        <ele>169.89291</ele>
        <time>2024-03-14T23:01:22.342Z</time>
      </trkpt>
      <trkpt lat="48.23073" lon="4.69903">
        <ele>169.921698</ele>
        <time>2024-03-14T23:01:25.632Z</time>
      </trkpt>
      <trkpt lat="48.23069" lon="4.69937">
        <ele>169.970502</ele>
        <time>2024-03-14T23:01:31.582Z</time>
      </trkpt>
      <trkpt lat="48.2304" lon="4.70056">
        <ele>170.342072</ele>
        <time>2024-03-14T23:01:56.757Z</time>
      </trkpt>
      <trkpt lat="48.23006" lon="4.7018">
        <ele>170.911251</ele>
        <time>2024-03-14T23:02:22.143Z</time>
      </trkpt>
      <trkpt lat="48.22981" lon="4.70315">
        <ele>170.633697</ele>
        <time>2024-03-14T23:02:40.905Z</time>
      </trkpt>
      <trkpt lat="48.22983" lon="4.70323">
        <ele>170.573129</ele>
        <time>2024-03-14T23:02:41.840Z</time>
      </trkpt>
      <trkpt lat="48.23019" lon="4.70375">
        <ele>169.985797</ele>
        <time>2024-03-14T23:02:51.147Z</time>
      </trkpt>
      <trkpt lat="48.23031" lon="4.70388">
        <ele>169.812245</ele>
        <time>2024-03-14T23:02:54.089Z</time>
      </trkpt>
      <trkpt lat="48.23045" lon="4.70402">
        <ele>169.614941</ele>
        <time>2024-03-14T23:02:57.212Z</time>
      </trkpt>
      <trkpt lat="48.2306" lon="4.70419">
        <ele>169.398683</ele>
        <time>2024-03-14T23:03:00.973Z</time>
      </trkpt>
      <trkpt lat="48.23066" lon="4.70423">
        <ele>169.313335</ele>
        <time>2024-03-14T23:03:02.377Z</time>
      </trkpt>
      <trkpt lat="48.23107" lon="4.70433">
        <ele>169.180239</ele>
        <time>2024-03-14T23:03:10.299Z</time>
      </trkpt>
      <trkpt lat="48.23113" lon="4.70435">
        <ele>169.208492</ele>
        <time>2024-03-14T23:03:11.573Z</time>
      </trkpt>
      <trkpt lat="48.2314" lon="4.70443">
        <ele>169.32801</ele>
        <time>2024-03-14T23:03:17.107Z</time>
      </trkpt>
      <trkpt lat="48.23189" lon="4.70487">
        <ele>169.575089</ele>
        <time>2024-03-14T23:03:31.726Z</time>
      </trkpt>
      <trkpt lat="48.23202" lon="4.70498">
        <ele>169.641542</ele>
        <time>2024-03-14T23:03:35.877Z</time>
      </trkpt>
      <trkpt lat="48.23231" lon="4.7053">
        <ele>169.796858</ele>
        <time>2024-03-14T23:03:46.880Z</time>
      </trkpt>
      <trkpt lat="48.23281" lon="4.70582">
        <ele>170.016578</ele>
        <time>2024-03-14T23:04:06.474Z</time>
      </trkpt>
      <trkpt lat="48.23291" lon="4.70593">
        <ele>170.059533</ele>
        <time>2024-03-14T23:04:10.065Z</time>
      </trkpt>
      <trkpt lat="48.23329" lon="4.70643">
        <ele>170.23036</ele>
        <time>2024-03-14T23:04:22.470Z</time>
      </trkpt>
      <trkpt lat="48.23316" lon="4.70664">
        <ele>170.293244</ele>
        <time>2024-03-14T23:04:26.737Z</time>
      </trkpt>
      <trkpt lat="48.23302" lon="4.7069">
        <ele>170.370033</ele>
        <time>2024-03-14T23:04:31.233Z</time>
      </trkpt>
      <trkpt lat="48.2335" lon="4.70739">
        <ele>170.065446</ele>
        <time>2024-03-14T23:04:43.020Z</time>
      </trkpt>
      <trkpt lat="48.23363" lon="4.70708">
        <ele>169.713744</ele>
        <time>2024-03-14T23:04:47.981Z</time>
      </trkpt>
      <trkpt lat="48.23396" lon="4.70741">
        <ele>169.129429</ele>
        <time>2024-03-14T23:04:56.033Z</time>
      </trkpt>
      <trkpt lat="48.23412" lon="4.70749">
        <ele>168.881581</ele>
        <time>2024-03-14T23:04:59.281Z</time>
      </trkpt>
      <trkpt lat="48.23455" lon="4.70749">
        <ele>168.243513</ele>
        <time>2024-03-14T23:05:07.703Z</time>
      </trkpt>
      <trkpt lat="48.23451" lon="4.70865">
        <ele>167.314943</ele>
        <time>2024-03-14T23:05:22.903Z</time>
      </trkpt>
      <trkpt lat="48.23448" lon="4.70885">
        <ele>167.165914</ele>
        <time>2024-03-14T23:05:25.722Z</time>
      </trkpt>
      <trkpt lat="48.23452" lon="4.70885">
        <ele>167.126566</ele>
        <time>2024-03-14T23:05:26.469Z</time>
      </trkpt>
      <trkpt lat="48.23497" lon="4.70884">
        <ele>166.646049</ele>
        <time>2024-03-14T23:05:35.430Z</time>
      </trkpt>
      <trkpt lat="48.23693" lon="4.70896">
        <ele>165.211015</ele>
        <time>2024-03-14T23:06:16.067Z</time>
      </trkpt>
      <trkpt lat="48.2371" lon="4.70895">
        <ele>165.114763</ele>
        <time>2024-03-14T23:06:19.664Z</time>
      </trkpt>
      <trkpt lat="48.23721" lon="4.70884">
        <ele>165.043615</ele>
        <time>2024-03-14T23:06:22.273Z</time>
      </trkpt>
      <trkpt lat="48.23777" lon="4.70778">
        <ele>164.588821</ele>
        <time>2024-03-14T23:06:41.245Z</time>
      </trkpt>
      <trkpt lat="48.23779" lon="4.70769">
        <ele>164.558761</ele>
        <time>2024-03-14T23:06:42.543Z</time>
      </trkpt>
      <trkpt lat="48.23804" lon="4.7084">
        <ele>164.302461</ele>
        <time>2024-03-14T23:06:53.559Z</time>
      </trkpt>
      <trkpt lat="48.23815" lon="4.7088">
        <ele>164.160859</ele>
        <time>2024-03-14T23:06:59.635Z</time>
      </trkpt>
      <trkpt lat="48.23826" lon="4.70926">
        <ele>164.103981</ele>
        <time>2024-03-14T23:07:06.228Z</time>
      </trkpt>
      <trkpt lat="48.23835" lon="4.70944">
        <ele>164.194572</ele>
        <time>2024-03-14T23:07:09.396Z</time>
      </trkpt>
      <trkpt lat="48.2393" lon="4.71073">
        <ele>164.948606</ele>
        <time>2024-03-14T23:07:40.459Z</time>
      </trkpt>
      <trkpt lat="48.23944" lon="4.71087">
        <ele>165.046592</ele>
        <time>2024-03-14T23:07:45.303Z</time>
      </trkpt>
      <trkpt lat="48.23942" lon="4.71094">
        <ele>165.076051</ele>
        <time>2024-03-14T23:07:46.774Z</time>
      </trkpt>
      <trkpt lat="48.23955" lon="4.71142">
        <ele>166.108641</ele>
        <time>2024-03-14T23:07:57.586Z</time>
      </trkpt>
      <trkpt lat="48.2415" lon="4.71335">
        <ele>175.872929</ele>
        <time>2024-03-14T23:09:38.691Z</time>
      </trkpt>
      <trkpt lat="48.24266" lon="4.71446">
        <ele>184.163362</ele>
        <time>2024-03-14T23:10:57.798Z</time>
      </trkpt>
      <trkpt lat="48.24331" lon="4.71486">
        <ele>189.158772</ele>
        <time>2024-03-14T23:11:50.602Z</time>
      </trkpt>
      <trkpt lat="48.24366" lon="4.71514">
        <ele>191.97284</ele>
        <time>2024-03-14T23:12:19.566Z</time>
      </trkpt>
      <trkpt lat="48.24405" lon="4.71569">
        <ele>195.497037</ele>
        <time>2024-03-14T23:12:57.406Z</time>
      </trkpt>
      <trkpt lat="48.24575" lon="4.71773">
        <ele>208.036365</ele>
        <time>2024-03-14T23:15:22.463Z</time>
      </trkpt>
      <trkpt lat="48.24588" lon="4.71789">
        <ele>208.875452</ele>
        <time>2024-03-14T23:15:32.836Z</time>
      </trkpt>
      <trkpt lat="48.24645" lon="4.71841">
        <ele>212.115755</ele>
        <time>2024-03-14T23:16:11.802Z</time>
      </trkpt>
      <trkpt lat="48.2473" lon="4.71939">
        <ele>218.04814</ele>
        <time>2024-03-14T23:17:13.504Z</time>
      </trkpt>
      <trkpt lat="48.24775" lon="4.71985">
        <ele>221.236931</ele>
        <time>2024-03-14T23:17:48.953Z</time>
      </trkpt>
      <trkpt lat="48.24818" lon="4.72013">
        <ele>224.01202</ele>
        <time>2024-03-14T23:18:23.646Z</time>
      </trkpt>
      <trkpt lat="48.24888" lon="4.72027">
        <ele>231.80837</ele>
        <time>2024-03-14T23:19:24.062Z</time>
      </trkpt>
      <trkpt lat="48.24933" lon="4.72069">
        <ele>237.832366</ele>
        <time>2024-03-14T23:20:15.554Z</time>
      </trkpt>
      <trkpt lat="48.24946" lon="4.72121">
        <ele>242.127168</ele>
        <time>2024-03-14T23:20:54.864Z</time>
      </trkpt>
      <trkpt lat="48.24968" lon="4.72164">
        <ele>246.310501</ele>
        <time>2024-03-14T23:21:33.574Z</time>
      </trkpt>
      <trkpt lat="48.24983" lon="4.72206">
        <ele>250.030355</ele>
        <time>2024-03-14T23:22:07.050Z</time>
      </trkpt>
      <trkpt lat="48.24989" lon="4.72284">
        <ele>256.211846</ele>
        <time>2024-03-14T23:23:01.395Z</time>
      </trkpt>
      <trkpt lat="48.24999" lon="4.72321">
        <ele>259.332815</ele>
        <time>2024-03-14T23:23:27.593Z</time>
      </trkpt>
      <trkpt lat="48.25016" lon="4.72355">
        <ele>262.615417</ele>
        <time>2024-03-14T23:23:53.269Z</time>
      </trkpt>
      <trkpt lat="48.25028" lon="4.72371">
        <ele>264.523535</ele>
        <time>2024-03-14T23:24:07.575Z</time>
      </trkpt>
      <trkpt lat="48.25061" lon="4.72412">
        <ele>267.236142</ele>
        <time>2024-03-14T23:24:40.553Z</time>
      </trkpt>
      <trkpt lat="48.25108" lon="4.72445">
        <ele>269.129413</ele>
        <time>2024-03-14T23:25:14.302Z</time>
      </trkpt>
      <trkpt lat="48.2512" lon="4.72446">
        <ele>269.561121</ele>
        <time>2024-03-14T23:25:21.167Z</time>
      </trkpt>
      <trkpt lat="48.25143" lon="4.72886">
        <ele>272.830376</ele>
        <time>2024-03-14T23:26:31.267Z</time>
      </trkpt>
      <trkpt lat="48.25153" lon="4.72959">
        <ele>272.690483</ele>
        <time>2024-03-14T23:26:42.214Z</time>
      </trkpt>
      <trkpt lat="48.25166" lon="4.72996">
        <ele>272.611265</ele>
        <time>2024-03-14T23:26:48.623Z</time>
      </trkpt>
      <trkpt lat="48.25173" lon="4.73015">
        <ele>272.570256</ele>
        <time>2024-03-14T23:26:51.863Z</time>
      </trkpt>
      <trkpt lat="48.25213" lon="4.73071">
        <ele>272.417379</ele>
        <time>2024-03-14T23:27:03.973Z</time>
      </trkpt>
      <trkpt lat="48.25231" lon="4.73086">
        <ele>272.053449</ele>
        <time>2024-03-14T23:27:08.474Z</time>
      </trkpt>
      <trkpt lat="48.25264" lon="4.73125">
        <ele>271.019565</ele>
        <time>2024-03-14T23:27:17.352Z</time>
      </trkpt>
      <trkpt lat="48.25288" lon="4.7316">
        <ele>270.2123</ele>
        <time>2024-03-14T23:27:23.861Z</time>
      </trkpt>
      <trkpt lat="48.25322" lon="4.73192">
        <ele>269.219325</ele>
        <time>2024-03-14T23:27:31.396Z</time>
      </trkpt>
      <trkpt lat="48.25381" lon="4.73224">
        <ele>267.023557</ele>
        <time>2024-03-14T23:27:42.275Z</time>
      </trkpt>
      <trkpt lat="48.25456" lon="4.73331">
        <ele>258.974949</ele>
        <time>2024-03-14T23:27:58.505Z</time>
      </trkpt>
      <trkpt lat="48.255" lon="4.73285">
        <ele>254.800755</ele>
        <time>2024-03-14T23:28:12.220Z</time>
      </trkpt>
      <trkpt lat="48.25522" lon="4.73279">
        <ele>252.643594</ele>
        <time>2024-03-14T23:28:17.970Z</time>
      </trkpt>
      <trkpt lat="48.25537" lon="4.73282">
        <ele>250.984923</ele>
        <time>2024-03-14T23:28:21.798Z</time>
      </trkpt>
      <trkpt lat="48.25592" lon="4.73342">
        <ele>243.566336</ele>
        <time>2024-03-14T23:28:38.793Z</time>
      </trkpt>
      <trkpt lat="48.25613" lon="4.7338">
        <ele>239.894063</ele>
        <time>2024-03-14T23:28:47.195Z</time>
      </trkpt>
      <trkpt lat="48.25635" lon="4.73422">
        <ele>236.041373</ele>
        <time>2024-03-14T23:28:56.011Z</time>
      </trkpt>
      <trkpt lat="48.25647" lon="4.73455">
        <ele>233.74657</ele>
        <time>2024-03-14T23:29:02.398Z</time>
      </trkpt>
      <trkpt lat="48.2565" lon="4.73487">
        <ele>232.584306</ele>
        <time>2024-03-14T23:29:07.885Z</time>
      </trkpt>
      <trkpt lat="48.25668" lon="4.73542">
        <ele>230.331149</ele>
        <time>2024-03-14T23:29:14.249Z</time>
      </trkpt>
      <trkpt lat="48.25674" lon="4.73553">
        <ele>229.795699</ele>
        <time>2024-03-14T23:29:15.824Z</time>
      </trkpt>
      <trkpt lat="48.25702" lon="4.73597">
        <ele>227.571406</ele>
        <time>2024-03-14T23:29:22.604Z</time>
      </trkpt>
      <trkpt lat="48.25717" lon="4.73608">
        <ele>226.691519</ele>
        <time>2024-03-14T23:29:25.430Z</time>
      </trkpt>
      <trkpt lat="48.25722" lon="4.73594">
        <ele>226.107747</ele>
        <time>2024-03-14T23:29:27.438Z</time>
      </trkpt>
      <trkpt lat="48.25733" lon="4.73583">
        <ele>225.388254</ele>
        <time>2024-03-14T23:29:29.955Z</time>
      </trkpt>
      <trkpt lat="48.25798" lon="4.73646">
        <ele>224.484864</ele>
        <time>2024-03-14T23:29:47.086Z</time>
      </trkpt>
      <trkpt lat="48.25922" lon="4.73748">
        <ele>224.575653</ele>
        <time>2024-03-14T23:30:27.466Z</time>
      </trkpt>
      <trkpt lat="48.25953" lon="4.73769">
        <ele>224.134429</ele>
        <time>2024-03-14T23:30:35.495Z</time>
      </trkpt>
      <trkpt lat="48.25953" lon="4.73777">
        <ele>224.065258</ele>
        <time>2024-03-14T23:30:36.584Z</time>
      </trkpt>
      <trkpt lat="48.25959" lon="4.73844">
        <ele>223.477127</ele>
        <time>2024-03-14T23:30:45.915Z</time>
      </trkpt>
      <trkpt lat="48.25963" lon="4.73899">
        <ele>222.997929</ele>
        <time>2024-03-14T23:30:52.996Z</time>
      </trkpt>
      <trkpt lat="48.26002" lon="4.73924">
        <ele>222.370865</ele>
        <time>2024-03-14T23:31:00.306Z</time>
      </trkpt>
      <trkpt lat="48.26002" lon="4.73941">
        <ele>221.900856</ele>
        <time>2024-03-14T23:31:02.283Z</time>
      </trkpt>
      <trkpt lat="48.26075" lon="4.74228">
        <ele>213.391916</ele>
        <time>2024-03-14T23:31:36.896Z</time>
      </trkpt>
      <trkpt lat="48.26094" lon="4.74286">
        <ele>211.84249</ele>
        <time>2024-03-14T23:31:44.161Z</time>
      </trkpt>
      <trkpt lat="48.26096" lon="4.7433">
        <ele>210.785848</ele>
        <time>2024-03-14T23:31:49.325Z</time>
      </trkpt>
      <trkpt lat="48.26101" lon="4.74346">
        <ele>210.358043</ele>
        <time>2024-03-14T23:31:51.433Z</time>
      </trkpt>
      <trkpt lat="48.26129" lon="4.74372">
        <ele>209.174004</ele>
        <time>2024-03-14T23:31:57.530Z</time>
      </trkpt>
      <trkpt lat="48.26141" lon="4.74398">
        <ele>208.400214</ele>
        <time>2024-03-14T23:32:01.545Z</time>
      </trkpt>
      <trkpt lat="48.2615" lon="4.74418">
        <ele>208.139099</ele>
        <time>2024-03-14T23:32:04.480Z</time>
      </trkpt>
      <trkpt lat="48.26182" lon="4.74409">
        <ele>207.740949</ele>
        <time>2024-03-14T23:32:10.227Z</time>
      </trkpt>
      <trkpt lat="48.2621" lon="4.74406">
        <ele>207.392601</ele>
        <time>2024-03-14T23:32:15.403Z</time>
      </trkpt>
      <trkpt lat="48.26261" lon="4.74409">
        <ele>206.759342</ele>
        <time>2024-03-14T23:32:25.444Z</time>
      </trkpt>
      <trkpt lat="48.26257" lon="4.7442">
        <ele>206.659431</ele>
        <time>2024-03-14T23:32:27.231Z</time>
      </trkpt>
      <trkpt lat="48.26217" lon="4.74499">
        <ele>205.98988</ele>
        <time>2024-03-14T23:32:42.860Z</time>
      </trkpt>
      <trkpt lat="48.26207" lon="4.74531">
        <ele>205.88663</ele>
        <time>2024-03-14T23:32:48.558Z</time>
      </trkpt>
      <trkpt lat="48.26206" lon="4.74551">
        <ele>205.831402</ele>
        <time>2024-03-14T23:32:51.559Z</time>
      </trkpt>
      <trkpt lat="48.26209" lon="4.7457">
        <ele>205.774517</ele>
        <time>2024-03-14T23:32:54.450Z</time>
      </trkpt>
      <trkpt lat="48.26213" lon="4.74659">
        <ele>205.520938</ele>
        <time>2024-03-14T23:33:06.678Z</time>
      </trkpt>
      <trkpt lat="48.26212" lon="4.74768">
        <ele>205.719263</ele>
        <time>2024-03-14T23:33:22.324Z</time>
      </trkpt>
      <trkpt lat="48.26212" lon="4.74887">
        <ele>207.312043</ele>
        <time>2024-03-14T23:33:45.062Z</time>
      </trkpt>
      <trkpt lat="48.26207" lon="4.74922">
        <ele>207.798452</ele>
        <time>2024-03-14T23:33:53.743Z</time>
      </trkpt>
      <trkpt lat="48.26197" lon="4.74946">
        <ele>208.183505</ele>
        <time>2024-03-14T23:34:01.013Z</time>
      </trkpt>
      <trkpt lat="48.2617" lon="4.74994">
        <ele>209.235343</ele>
        <time>2024-03-14T23:34:18.293Z</time>
      </trkpt>
      <trkpt lat="48.26093" lon="4.75109">
        <ele>216.384188</ele>
        <time>2024-03-14T23:35:17.153Z</time>
      </trkpt>
      <trkpt lat="48.26064" lon="4.75149">
        <ele>218.978617</ele>
        <time>2024-03-14T23:35:42.895Z</time>
      </trkpt>
      <trkpt lat="48.26036" lon="4.75212">
        <ele>222.267212</ele>
        <time>2024-03-14T23:36:15.595Z</time>
      </trkpt>
      <trkpt lat="48.26" lon="4.75326">
        <ele>227.71509</ele>
        <time>2024-03-14T23:37:05.490Z</time>
      </trkpt>
      <trkpt lat="48.25988" lon="4.75383">
        <ele>230.311707</ele>
        <time>2024-03-14T23:37:26.846Z</time>
      </trkpt>
      <trkpt lat="48.25987" lon="4.75387">
        <ele>230.482273</ele>
        <time>2024-03-14T23:37:28.227Z</time>
      </trkpt>
      <trkpt lat="48.25964" lon="4.7549">
        <ele>232.997074</ele>
        <time>2024-03-14T23:38:10.825Z</time>
      </trkpt>
      <trkpt lat="48.25961" lon="4.75548">
        <ele>233.49479</ele>
        <time>2024-03-14T23:38:29.676Z</time>
      </trkpt>
      <trkpt lat="48.25964" lon="4.75643">
        <ele>234.314259</ele>
        <time>2024-03-14T23:38:54.905Z</time>
      </trkpt>
      <trkpt lat="48.25971" lon="4.75772">
        <ele>233.298199</ele>
        <time>2024-03-14T23:39:22.746Z</time>
      </trkpt>
      <trkpt lat="48.25981" lon="4.75844">
        <ele>231.873455</ele>
        <time>2024-03-14T23:39:37.444Z</time>
      </trkpt>
      <trkpt lat="48.25998" lon="4.75907">
        <ele>230.557112</ele>
        <time>2024-03-14T23:39:50.964Z</time>
      </trkpt>
      <trkpt lat="48.26024" lon="4.75945">
        <ele>229.544724</ele>
        <time>2024-03-14T23:40:02.189Z</time>
      </trkpt>
      <trkpt lat="48.26041" lon="4.75977">
        <ele>229.661107</ele>
        <time>2024-03-14T23:40:10.933Z</time>
      </trkpt>
      <trkpt lat="48.26062" lon="4.76049">
        <ele>229.882188</ele>
        <time>2024-03-14T23:40:28.198Z</time>
      </trkpt>
      <trkpt lat="48.26209" lon="4.76159">
        <ele>234.178618</ele>
        <time>2024-03-14T23:41:50.058Z</time>
      </trkpt>
      <trkpt lat="48.26235" lon="4.76196">
        <ele>236.352255</ele>
        <time>2024-03-14T23:42:15.151Z</time>
      </trkpt>
      <trkpt lat="48.26254" lon="4.76271">
        <ele>239.523293</ele>
        <time>2024-03-14T23:42:54.981Z</time>
      </trkpt>
      <trkpt lat="48.26251" lon="4.76304">
        <ele>240.843365</ele>
        <time>2024-03-14T23:43:13.124Z</time>
      </trkpt>
      <trkpt lat="48.26242" lon="4.76405">
        <ele>247.251855</ele>
        <time>2024-03-14T23:44:13.741Z</time>
      </trkpt>
      <trkpt lat="48.26234" lon="4.76485">
        <ele>252.495546</ele>
        <time>2024-03-14T23:45:03.256Z</time>
      </trkpt>
      <trkpt lat="48.26215" lon="4.76623">
        <ele>260.144697</ele>
        <time>2024-03-14T23:46:20.328Z</time>
      </trkpt>
      <trkpt lat="48.26205" lon="4.76623">
        <ele>260.710546</ele>
        <time>2024-03-14T23:46:28.187Z</time>
      </trkpt>
      <trkpt lat="48.26113" lon="4.76584">
        <ele>265.788049</ele>
        <time>2024-03-14T23:47:30.642Z</time>
      </trkpt>
      <trkpt lat="48.26096" lon="4.76588">
        <ele>266.704498</ele>
        <time>2024-03-14T23:47:39.435Z</time>
      </trkpt>
      <trkpt lat="48.2608" lon="4.76606">
        <ele>267.792957</ele>
        <time>2024-03-14T23:47:49.121Z</time>
      </trkpt>
      <trkpt lat="48.26074" lon="4.76616">
        <ele>268.028342</ele>
        <time>2024-03-14T23:47:52.756Z</time>
      </trkpt>
      <trkpt lat="48.26053" lon="4.76653">
        <ele>267.945649</ele>
        <time>2024-03-14T23:48:04.728Z</time>
      </trkpt>
      <trkpt lat="48.26037" lon="4.76683">
        <ele>267.881072</ele>
        <time>2024-03-14T23:48:13.739Z</time>
      </trkpt>
      <trkpt lat="48.2603" lon="4.76717">
        <ele>267.820305</ele>
        <time>2024-03-14T23:48:21.580Z</time>
      </trkpt>
      <trkpt lat="48.26023" lon="4.76771">
        <ele>267.726472</ele>
        <time>2024-03-14T23:48:33.517Z</time>
      </trkpt>
      <trkpt lat="48.26018" lon="4.76871">
        <ele>267.72176</ele>
        <time>2024-03-14T23:48:57.700Z</time>
      </trkpt>
      <trkpt lat="48.2601" lon="4.76906">
        <ele>268.104751</ele>
        <time>2024-03-14T23:49:07.129Z</time>
      </trkpt>
      <trkpt lat="48.26001" lon="4.7693">
        <ele>268.386204</ele>
        <time>2024-03-14T23:49:14.122Z</time>
      </trkpt>
      <trkpt lat="48.25995" lon="4.76963">
        <ele>268.742206</ele>
        <time>2024-03-14T23:49:23.225Z</time>
      </trkpt>
      <trkpt lat="48.2602" lon="4.77065">
        <ele>269.873473</ele>
        <time>2024-03-14T23:49:55.680Z</time>
      </trkpt>
      <trkpt lat="48.26032" lon="4.772">
        <ele>271.940244</ele>
        <time>2024-03-14T23:50:49.408Z</time>
      </trkpt>
      <trkpt lat="48.2606" lon="4.77313">
        <ele>274.07516</ele>
        <time>2024-03-14T23:51:34.371Z</time>
      </trkpt>
      <trkpt lat="48.26068" lon="4.77342">
        <ele>274.636047</ele>
        <time>2024-03-14T23:51:42.745Z</time>
      </trkpt>
      <trkpt lat="48.26106" lon="4.77375">
        <ele>274.105217</ele>
        <time>2024-03-14T23:51:58.914Z</time>
      </trkpt>
      <trkpt lat="48.26112" lon="4.77455">
        <ele>271.668753</ele>
        <time>2024-03-14T23:52:15.513Z</time>
      </trkpt>
      <trkpt lat="48.26134" lon="4.77629">
        <ele>265.741185</ele>
        <time>2024-03-14T23:52:47.976Z</time>
      </trkpt>
      <trkpt lat="48.26156" lon="4.77737">
        <ele>259.540309</ele>
        <time>2024-03-14T23:53:07.454Z</time>
      </trkpt>
      <trkpt lat="48.26171" lon="4.77852">
        <ele>253.029898</ele>
        <time>2024-03-14T23:53:28.206Z</time>
      </trkpt>
      <trkpt lat="48.26173" lon="4.7798">
        <ele>246.972979</ele>
        <time>2024-03-14T23:53:51.110Z</time>
      </trkpt>
      <trkpt lat="48.26174" lon="4.78038">
        <ele>244.295172</ele>
        <time>2024-03-14T23:54:01.633Z</time>
      </trkpt>
      <trkpt lat="48.26183" lon="4.78124">
        <ele>240.252392</ele>
        <time>2024-03-14T23:54:17.792Z</time>
      </trkpt>
      <trkpt lat="48.26214" lon="4.78257">
        <ele>235.279335</ele>
        <time>2024-03-14T23:54:44.324Z</time>
      </trkpt>
      <trkpt lat="48.26218" lon="4.7829">
        <ele>234.109311</ele>
        <time>2024-03-14T23:54:50.877Z</time>
      </trkpt>
      <trkpt lat="48.26191" lon="4.7827">
        <ele>232.570457</ele>
        <time>2024-03-14T23:54:55.681Z</time>
      </trkpt>
      <trkpt lat="48.2619" lon="4.78278">
        <ele>232.286792</ele>
        <time>2024-03-14T23:54:56.581Z</time>
      </trkpt>
      <trkpt lat="48.2621" lon="4.78341">
        <ele>229.99813</ele>
        <time>2024-03-14T23:55:04.435Z</time>
      </trkpt>
      <trkpt lat="48.26207" lon="4.78358">
        <ele>229.521793</ele>
        <time>2024-03-14T23:55:06.457Z</time>
      </trkpt>
      <trkpt lat="48.26113" lon="4.7841">
        <ele>225.489535</ele>
        <time>2024-03-14T23:55:23.701Z</time>
      </trkpt>
      <trkpt lat="48.2606" lon="4.78435">
        <ele>223.227136</ele>
        <time>2024-03-14T23:55:33.479Z</time>
      </trkpt>
      <trkpt lat="48.26042" lon="4.78449">
        <ele>222.686019</ele>
        <time>2024-03-14T23:55:36.978Z</time>
      </trkpt>
      <trkpt lat="48.26016" lon="4.78486">
        <ele>221.781151</ele>
        <time>2024-03-14T23:55:43.353Z</time>
      </trkpt>
      <trkpt lat="48.25991" lon="4.78513">
        <ele>220.995599</ele>
        <time>2024-03-14T23:55:48.984Z</time>
      </trkpt>
      <trkpt lat="48.25953" lon="4.78537">
        <ele>219.956595</ele>
        <time>2024-03-14T23:55:56.555Z</time>
      </trkpt>
      <trkpt lat="48.25816" lon="4.78591">
        <ele>218.009298</ele>
        <time>2024-03-14T23:56:25.040Z</time>
      </trkpt>
      <trkpt lat="48.25808" lon="4.78789">
        <ele>217.653767</ele>
        <time>2024-03-14T23:56:55.128Z</time>
      </trkpt>
      <trkpt lat="48.25802" lon="4.78886">
        <ele>218.040401</ele>
        <time>2024-03-14T23:57:12.152Z</time>
      </trkpt>
      <trkpt lat="48.25805" lon="4.79117">
        <ele>219.471616</ele>
        <time>2024-03-14T23:57:52.184Z</time>
      </trkpt>
      <trkpt lat="48.25802" lon="4.79146">
        <ele>219.713835</ele>
        <time>2024-03-14T23:57:57.611Z</time>
      </trkpt>
      <trkpt lat="48.25798" lon="4.79172">
        <ele>219.939617</ele>
        <time>2024-03-14T23:58:02.628Z</time>
      </trkpt>
      <trkpt lat="48.2574" lon="4.79269">
        <ele>221.409569</ele>
        <time>2024-03-14T23:58:29.274Z</time>
      </trkpt>
      <trkpt lat="48.2572" lon="4.79318">
        <ele>222.550619</ele>
        <time>2024-03-14T23:58:42.547Z</time>
      </trkpt>
      <trkpt lat="48.25709" lon="4.79357">
        <ele>223.391589</ele>
        <time>2024-03-14T23:58:52.919Z</time>
      </trkpt>
      <trkpt lat="48.25697" lon="4.79423">
        <ele>224.771959</ele>
        <time>2024-03-14T23:59:10.957Z</time>
      </trkpt>
      <trkpt lat="48.25678" lon="4.79476">
        <ele>225.952002</ele>
        <time>2024-03-14T23:59:27.073Z</time>
      </trkpt>
      <trkpt lat="48.25657" lon="4.79494">
        <ele>226.860667</ele>
        <time>2024-03-14T23:59:37.358Z</time>
      </trkpt>
      <trkpt lat="48.25576" lon="4.79529">
        <ele>230.205178</ele>
        <time>2024-03-15T00:00:12.779Z</time>
      </trkpt>
      <trkpt lat="48.25546" lon="4.79552">
        <ele>231.545031</ele>
        <time>2024-03-15T00:00:27.156Z</time>
      </trkpt>
      <trkpt lat="48.25521" lon="4.7956">
        <ele>232.571864</ele>
        <time>2024-03-15T00:00:38.299Z</time>
      </trkpt>
      <trkpt lat="48.25486" lon="4.79568">
        <ele>234.059103</ele>
        <time>2024-03-15T00:00:53.054Z</time>
      </trkpt>
      <trkpt lat="48.25462" lon="4.79572">
        <ele>235.116926</ele>
        <time>2024-03-15T00:01:03.012Z</time>
      </trkpt>
      <trkpt lat="48.25434" lon="4.79583">
        <ele>236.428859</ele>
        <time>2024-03-15T00:01:15.711Z</time>
      </trkpt>
      <trkpt lat="48.25355" lon="4.79638">
        <ele>240.35689</ele>
        <time>2024-03-15T00:01:54.942Z</time>
      </trkpt>
      <trkpt lat="48.25259" lon="4.79768">
        <ele>247.391093</ele>
        <time>2024-03-15T00:02:57.991Z</time>
      </trkpt>
      <trkpt lat="48.25237" lon="4.79778">
        <ele>248.680072</ele>
        <time>2024-03-15T00:03:09.668Z</time>
      </trkpt>
      <trkpt lat="48.25218" lon="4.79775">
        <ele>249.757619</ele>
        <time>2024-03-15T00:03:19.966Z</time>
      </trkpt>
      <trkpt lat="48.25198" lon="4.79753">
        <ele>251.163747</ele>
        <time>2024-03-15T00:03:33.362Z</time>
      </trkpt>
      <trkpt lat="48.25159" lon="4.79679">
        <ele>255.306428</ele>
        <time>2024-03-15T00:04:07.726Z</time>
      </trkpt>
      <trkpt lat="48.25116" lon="4.79639">
        <ele>258.723382</ele>
        <time>2024-03-15T00:04:36.685Z</time>
      </trkpt>
      <trkpt lat="48.2504" lon="4.79613">
        <ele>263.915478</ele>
        <time>2024-03-15T00:05:20.645Z</time>
      </trkpt>
      <trkpt lat="48.25018" lon="4.79598">
        <ele>265.438467</ele>
        <time>2024-03-15T00:05:34.325Z</time>
      </trkpt>
      <trkpt lat="48.24975" lon="4.79536">
        <ele>269.16009</ele>
        <time>2024-03-15T00:06:07.071Z</time>
      </trkpt>
      <trkpt lat="48.24954" lon="4.7952">
        <ele>270.654834</ele>
        <time>2024-03-15T00:06:20.010Z</time>
      </trkpt>
      <trkpt lat="48.24939" lon="4.79525">
        <ele>271.615412</ele>
        <time>2024-03-15T00:06:28.245Z</time>
      </trkpt>
      <trkpt lat="48.24926" lon="4.79542">
        <ele>272.684885</ele>
        <time>2024-03-15T00:06:37.127Z</time>
      </trkpt>
      <trkpt lat="48.24918" lon="4.79569">
        <ele>273.899705</ele>
        <time>2024-03-15T00:06:47.190Z</time>
      </trkpt>
      <trkpt lat="48.24923" lon="4.79659">
        <ele>276.737978</ele>
        <time>2024-03-15T00:07:16.624Z</time>
      </trkpt>
      <trkpt lat="48.24917" lon="4.79689">
        <ele>277.589063</ele>
        <time>2024-03-15T00:07:25.884Z</time>
      </trkpt>
      <trkpt lat="48.24902" lon="4.79709">
        <ele>278.440023</ele>
        <time>2024-03-15T00:07:35.587Z</time>
      </trkpt>
      <trkpt lat="48.24863" lon="4.79723">
        <ele>280.11394</ele>
        <time>2024-03-15T00:07:52.396Z</time>
      </trkpt>
      <trkpt lat="48.24849" lon="4.79735">
        <ele>280.77617</ele>
        <time>2024-03-15T00:07:58.158Z</time>
      </trkpt>
      <trkpt lat="48.24839" lon="4.79749">
        <ele>281.36673</ele>
        <time>2024-03-15T00:08:03.612Z</time>
      </trkpt>
      <trkpt lat="48.2483" lon="4.79771">
        <ele>282.090504</ele>
        <time>2024-03-15T00:08:09.555Z</time>
      </trkpt>
      <trkpt lat="48.24818" lon="4.79866">
        <ele>283.492374</ele>
        <time>2024-03-15T00:08:32.474Z</time>
      </trkpt>
      <trkpt lat="48.24812" lon="4.79962">
        <ele>284.751598</ele>
        <time>2024-03-15T00:08:51.757Z</time>
      </trkpt>
      <trkpt lat="48.24813" lon="4.79977">
        <ele>284.938017</ele>
        <time>2024-03-15T00:08:54.240Z</time>
      </trkpt>
      <trkpt lat="48.24815" lon="4.8">
        <ele>285.245104</ele>
        <time>2024-03-15T00:08:58.704Z</time>
      </trkpt>
      <trkpt lat="48.24829" lon="4.80069">
        <ele>286.404839</ele>
        <time>2024-03-15T00:09:12.848Z</time>
      </trkpt>
      <trkpt lat="48.24827" lon="4.80106">
        <ele>287.239568</ele>
        <time>2024-03-15T00:09:20.470Z</time>
      </trkpt>
      <trkpt lat="48.24813" lon="4.80143">
        <ele>288.193261</ele>
        <time>2024-03-15T00:09:30.209Z</time>
      </trkpt>
      <trkpt lat="48.24794" lon="4.80176">
        <ele>289.175179</ele>
        <time>2024-03-15T00:09:41.236Z</time>
      </trkpt>
      <trkpt lat="48.24758" lon="4.80241">
        <ele>291.080312</ele>
        <time>2024-03-15T00:10:06.494Z</time>
      </trkpt>
      <trkpt lat="48.24752" lon="4.80251">
        <ele>291.383313</ele>
        <time>2024-03-15T00:10:10.890Z</time>
      </trkpt>
      <trkpt lat="48.24623" lon="4.80401">
        <ele>298.43103</ele>
        <time>2024-03-15T00:11:29.564Z</time>
      </trkpt>
      <trkpt lat="48.24595" lon="4.80424">
        <ele>299.85579</ele>
        <time>2024-03-15T00:11:42.330Z</time>
      </trkpt>
      <trkpt lat="48.24481" lon="4.80522">
        <ele>299.926758</ele>
        <time>2024-03-15T00:12:17.308Z</time>
      </trkpt>
      <trkpt lat="48.24451" lon="4.80575">
        <ele>299.936793</ele>
        <time>2024-03-15T00:12:25.381Z</time>
      </trkpt>
      <trkpt lat="48.24443" lon="4.80593">
        <ele>299.527664</ele>
        <time>2024-03-15T00:12:27.858Z</time>
      </trkpt>
      <trkpt lat="48.24429" lon="4.80637">
        <ele>298.305107</ele>
        <time>2024-03-15T00:12:33.188Z</time>
      </trkpt>
      <trkpt lat="48.24429" lon="4.80638">
        <ele>298.282067</ele>
        <time>2024-03-15T00:12:33.286Z</time>
      </trkpt>
      <trkpt lat="48.24417" lon="4.80689">
        <ele>296.939041</ele>
        <time>2024-03-15T00:12:39.122Z</time>
      </trkpt>
      <trkpt lat="48.24413" lon="4.80718">
        <ele>296.188494</ele>
        <time>2024-03-15T00:12:42.331Z</time>
      </trkpt>
      <trkpt lat="48.24395" lon="4.80827">
        <ele>293.361902</ele>
        <time>2024-03-15T00:12:54.646Z</time>
      </trkpt>
      <trkpt lat="48.24386" lon="4.80981">
        <ele>290.37866</ele>
        <time>2024-03-15T00:13:12.127Z</time>
      </trkpt>
      <trkpt lat="48.2438" lon="4.81026">
        <ele>289.486585</ele>
        <time>2024-03-15T00:13:17.730Z</time>
      </trkpt>
      <trkpt lat="48.24361" lon="4.81065">
        <ele>288.586941</ele>
        <time>2024-03-15T00:13:23.519Z</time>
      </trkpt>
      <trkpt lat="48.24327" lon="4.81116">
        <ele>287.227733</ele>
        <time>2024-03-15T00:13:32.292Z</time>
      </trkpt>
      <trkpt lat="48.24318" lon="4.8114">
        <ele>286.716302</ele>
        <time>2024-03-15T00:13:35.617Z</time>
      </trkpt>
      <trkpt lat="48.24311" lon="4.81167">
        <ele>286.188136</ele>
        <time>2024-03-15T00:13:38.995Z</time>
      </trkpt>
      <trkpt lat="48.24307" lon="4.812">
        <ele>285.561244</ele>
        <time>2024-03-15T00:13:43.041Z</time>
      </trkpt>
      <trkpt lat="48.24306" lon="4.81227">
        <ele>285.062248</ele>
        <time>2024-03-15T00:13:46.179Z</time>
      </trkpt>
      <trkpt lat="48.24311" lon="4.81265">
        <ele>284.338908</ele>
        <time>2024-03-15T00:13:50.693Z</time>
      </trkpt>
      <trkpt lat="48.24327" lon="4.8133">
        <ele>283.057556</ele>
        <time>2024-03-15T00:13:58.479Z</time>
      </trkpt>
      <trkpt lat="48.24341" lon="4.81373">
        <ele>281.838827</ele>
        <time>2024-03-15T00:14:03.732Z</time>
      </trkpt>
      <trkpt lat="48.24421" lon="4.81617">
        <ele>274.463747</ele>
        <time>2024-03-15T00:14:33.605Z</time>
      </trkpt>
      <trkpt lat="48.2443" lon="4.81654">
        <ele>273.178829</ele>
        <time>2024-03-15T00:14:37.878Z</time>
      </trkpt>
      <trkpt lat="48.24431" lon="4.81707">
        <ele>271.472428</ele>
        <time>2024-03-15T00:14:43.502Z</time>
      </trkpt>
      <trkpt lat="48.24429" lon="4.8172">
        <ele>271.027177</ele>
        <time>2024-03-15T00:14:44.954Z</time>
      </trkpt>
      <trkpt lat="48.2442" lon="4.81741">
        <ele>270.219296</ele>
        <time>2024-03-15T00:14:47.590Z</time>
      </trkpt>
      <trkpt lat="48.24404" lon="4.81761">
        <ele>269.216066</ele>
        <time>2024-03-15T00:14:50.850Z</time>
      </trkpt>
      <trkpt lat="48.24366" lon="4.81789">
        <ele>267.146984</ele>
        <time>2024-03-15T00:14:57.478Z</time>
      </trkpt>
      <trkpt lat="48.24187" lon="4.81842">
        <ele>256.497077</ele>
        <time>2024-03-15T00:15:25.574Z</time>
      </trkpt>
      <trkpt lat="48.24171" lon="4.81851">
        <ele>255.568968</ele>
        <time>2024-03-15T00:15:28.329Z</time>
      </trkpt>
      <trkpt lat="48.24158" lon="4.81862">
        <ele>254.810784</ele>
        <time>2024-03-15T00:15:30.594Z</time>
      </trkpt>
      <trkpt lat="48.24156" lon="4.81863">
        <ele>254.70736</ele>
        <time>2024-03-15T00:15:30.913Z</time>
      </trkpt>
      <trkpt lat="48.24144" lon="4.81881">
        <ele>253.819967</ele>
        <time>2024-03-15T00:15:33.538Z</time>
      </trkpt>
      <trkpt lat="48.24137" lon="4.81899">
        <ele>253.07749</ele>
        <time>2024-03-15T00:15:35.741Z</time>
      </trkpt>
      <trkpt lat="48.24131" lon="4.81925">
        <ele>252.112971</ele>
        <time>2024-03-15T00:15:38.592Z</time>
      </trkpt>
      <trkpt lat="48.24128" lon="4.81947">
        <ele>251.340239</ele>
        <time>2024-03-15T00:15:40.856Z</time>
      </trkpt>
      <trkpt lat="48.24132" lon="4.8199">
        <ele>249.812463</ele>
        <time>2024-03-15T00:15:45.400Z</time>
      </trkpt>
      <trkpt lat="48.24148" lon="4.82076">
        <ele>247.045593</ele>
        <time>2024-03-15T00:15:54.905Z</time>
      </trkpt>
      <trkpt lat="48.24171" lon="4.8218">
        <ele>245.4616</ele>
        <time>2024-03-15T00:16:07.622Z</time>
      </trkpt>
      <trkpt lat="48.24182" lon="4.82232">
        <ele>244.679362</ele>
        <time>2024-03-15T00:16:14.463Z</time>
      </trkpt>
      <trkpt lat="48.2418" lon="4.82241">
        <ele>244.548866</ele>
        <time>2024-03-15T00:16:15.654Z</time>
      </trkpt>
      <trkpt lat="48.24168" lon="4.82258">
        <ele>244.19157</ele>
        <time>2024-03-15T00:16:18.872Z</time>
      </trkpt>
      <trkpt lat="48.24147" lon="4.82282">
        <ele>243.611291</ele>
        <time>2024-03-15T00:16:24.197Z</time>
      </trkpt>
      <trkpt lat="48.24143" lon="4.82286">
        <ele>243.515152</ele>
        <time>2024-03-15T00:16:25.127Z</time>
      </trkpt>
      <trkpt lat="48.2413" lon="4.82295">
        <ele>243.471386</ele>
        <time>2024-03-15T00:16:28.036Z</time>
      </trkpt>
      <trkpt lat="48.24122" lon="4.823">
        <ele>243.560454</ele>
        <time>2024-03-15T00:16:30.079Z</time>
      </trkpt>
      <trkpt lat="48.24102" lon="4.82315">
        <ele>243.771465</ele>
        <time>2024-03-15T00:16:35.046Z</time>
      </trkpt>
      <trkpt lat="48.24087" lon="4.82331">
        <ele>243.942737</ele>
        <time>2024-03-15T00:16:39.582Z</time>
      </trkpt>
      <trkpt lat="48.24046" lon="4.82425">
        <ele>244.661905</ele>
        <time>2024-03-15T00:17:01.421Z</time>
      </trkpt>
      <trkpt lat="48.24032" lon="4.82473">
        <ele>244.995618</ele>
        <time>2024-03-15T00:17:12.734Z</time>
      </trkpt>
      <trkpt lat="48.24025" lon="4.82519">
        <ele>245.302398</ele>
        <time>2024-03-15T00:17:22.620Z</time>
      </trkpt>
      <trkpt lat="48.24031" lon="4.82574">
        <ele>245.668909</ele>
        <time>2024-03-15T00:17:33.998Z</time>
      </trkpt>
      <trkpt lat="48.24035" lon="4.82617">
        <ele>245.962376</ele>
        <time>2024-03-15T00:17:42.797Z</time>
      </trkpt>
      <trkpt lat="48.24037" lon="4.82672">
        <ele>246.32404</ele>
        <time>2024-03-15T00:17:52.644Z</time>
      </trkpt>
      <trkpt lat="48.24033" lon="4.82724">
        <ele>246.668485</ele>
        <time>2024-03-15T00:18:01.224Z</time>
      </trkpt>
      <trkpt lat="48.2403" lon="4.82743">
        <ele>246.798342</ele>
        <time>2024-03-15T00:18:04.128Z</time>
      </trkpt>
      <trkpt lat="48.24018" lon="4.82815">
        <ele>246.203644</ele>
        <time>2024-03-15T00:18:15.105Z</time>
      </trkpt>
      <trkpt lat="48.24006" lon="4.82845">
        <ele>245.805632</ele>
        <time>2024-03-15T00:18:19.632Z</time>
      </trkpt>
      <trkpt lat="48.2399" lon="4.82919">
        <ele>244.908732</ele>
        <time>2024-03-15T00:18:29.163Z</time>
      </trkpt>
      <trkpt lat="48.23981" lon="4.83029">
        <ele>243.552058</ele>
        <time>2024-03-15T00:18:41.884Z</time>
      </trkpt>
      <trkpt lat="48.23945" lon="4.83174">
        <ele>240.968641</ele>
        <time>2024-03-15T00:18:59.736Z</time>
      </trkpt>
      <trkpt lat="48.23899" lon="4.83228">
        <ele>239.520423</ele>
        <time>2024-03-15T00:19:10.312Z</time>
      </trkpt>
      <trkpt lat="48.23825" lon="4.83366">
        <ele>239.091519</ele>
        <time>2024-03-15T00:19:34.107Z</time>
      </trkpt>
      <trkpt lat="48.23779" lon="4.83436">
        <ele>238.978532</ele>
        <time>2024-03-15T00:19:51.131Z</time>
      </trkpt>
      <trkpt lat="48.23735" lon="4.83525">
        <ele>240.968463</ele>
        <time>2024-03-15T00:20:14.586Z</time>
      </trkpt>
      <trkpt lat="48.23682" lon="4.83569">
        <ele>242.766707</ele>
        <time>2024-03-15T00:20:37.350Z</time>
      </trkpt>
      <trkpt lat="48.23669" lon="4.83586">
        <ele>243.28409</ele>
        <time>2024-03-15T00:20:44.524Z</time>
      </trkpt>
      <trkpt lat="48.23657" lon="4.83609">
        <ele>243.851498</ele>
        <time>2024-03-15T00:20:52.758Z</time>
      </trkpt>
      <trkpt lat="48.2362" lon="4.83723">
        <ele>248.056686</ele>
        <time>2024-03-15T00:21:33.034Z</time>
      </trkpt>
      <trkpt lat="48.23508" lon="4.83926">
        <ele>257.428923</ele>
        <time>2024-03-15T00:23:03.553Z</time>
      </trkpt>
      <trkpt lat="48.23469" lon="4.83996">
        <ele>260.562003</ele>
        <time>2024-03-15T00:23:32.967Z</time>
      </trkpt>
      <trkpt lat="48.23396" lon="4.84094">
        <ele>265.050781</ele>
        <time>2024-03-15T00:24:16.001Z</time>
      </trkpt>
      <trkpt lat="48.23338" lon="4.84246">
        <ele>269.579925</ele>
        <time>2024-03-15T00:25:02.939Z</time>
      </trkpt>
      <trkpt lat="48.23321" lon="4.84265">
        <ele>270.421387</ele>
        <time>2024-03-15T00:25:11.688Z</time>
      </trkpt>
      <trkpt lat="48.23308" lon="4.84282">
        <ele>271.241761</ele>
        <time>2024-03-15T00:25:18.921Z</time>
      </trkpt>
      <trkpt lat="48.2324" lon="4.84332">
        <ele>274.781256</ele>
        <time>2024-03-15T00:25:51.952Z</time>
      </trkpt>
      <trkpt lat="48.23219" lon="4.84382">
        <ele>276.625005</ele>
        <time>2024-03-15T00:26:10.303Z</time>
      </trkpt>
      <trkpt lat="48.2317" lon="4.84761">
        <ele>290.251579</ele>
        <time>2024-03-15T00:28:19.047Z</time>
      </trkpt>
      <trkpt lat="48.23164" lon="4.84784">
        <ele>291.066137</ele>
        <time>2024-03-15T00:28:26.820Z</time>
      </trkpt>
      <trkpt lat="48.23155" lon="4.84804">
        <ele>291.863744</ele>
        <time>2024-03-15T00:28:34.513Z</time>
      </trkpt>
      <trkpt lat="48.23146" lon="4.84813">
        <ele>292.393575</ele>
        <time>2024-03-15T00:28:39.524Z</time>
      </trkpt>
      <trkpt lat="48.23103" lon="4.84847">
        <ele>294.814687</ele>
        <time>2024-03-15T00:29:02.222Z</time>
      </trkpt>
      <trkpt lat="48.23093" lon="4.8487">
        <ele>295.744359</ele>
        <time>2024-03-15T00:29:10.867Z</time>
      </trkpt>
      <trkpt lat="48.23088" lon="4.84901">
        <ele>296.795121</ele>
        <time>2024-03-15T00:29:20.415Z</time>
      </trkpt>
      <trkpt lat="48.23053" lon="4.85279">
        <ele>308.262529</ele>
        <time>2024-03-15T00:31:15.211Z</time>
      </trkpt>
      <trkpt lat="48.23055" lon="4.85645">
        <ele>317.758314</ele>
        <time>2024-03-15T00:32:57.681Z</time>
      </trkpt>
      <trkpt lat="48.23037" lon="4.85844">
        <ele>321.879461</ele>
        <time>2024-03-15T00:33:46.938Z</time>
      </trkpt>
      <trkpt lat="48.23041" lon="4.85963">
        <ele>324.006385</ele>
        <time>2024-03-15T00:34:14.174Z</time>
      </trkpt>
      <trkpt lat="48.23048" lon="4.86046">
        <ele>325.641766</ele>
        <time>2024-03-15T00:34:33.644Z</time>
      </trkpt>
      <trkpt lat="48.23048" lon="4.86101">
        <ele>326.790024</ele>
        <time>2024-03-15T00:34:46.842Z</time>
      </trkpt>
      <trkpt lat="48.23033" lon="4.86302">
        <ele>331.08344</ele>
        <time>2024-03-15T00:35:39.973Z</time>
      </trkpt>
      <trkpt lat="48.23009" lon="4.86447">
        <ele>334.533411</ele>
        <time>2024-03-15T00:36:22.134Z</time>
      </trkpt>
      <trkpt lat="48.22996" lon="4.86488">
        <ele>335.575882</ele>
        <time>2024-03-15T00:36:33.844Z</time>
      </trkpt>
      <trkpt lat="48.22977" lon="4.86528">
        <ele>336.587569</ele>
        <time>2024-03-15T00:36:45.731Z</time>
      </trkpt>
      <trkpt lat="48.22945" lon="4.86609">
        <ele>337.452187</ele>
        <time>2024-03-15T00:37:05.987Z</time>
      </trkpt>
      <trkpt lat="48.22894" lon="4.86784">
        <ele>339.114044</ele>
        <time>2024-03-15T00:37:38.986Z</time>
      </trkpt>
      <trkpt lat="48.229" lon="4.8684">
        <ele>339.415026</ele>
        <time>2024-03-15T00:37:48.641Z</time>
      </trkpt>
      <trkpt lat="48.22904" lon="4.86901">
        <ele>339.739394</ele>
        <time>2024-03-15T00:37:59.087Z</time>
      </trkpt>
      <trkpt lat="48.22903" lon="4.86942">
        <ele>339.956063</ele>
        <time>2024-03-15T00:38:05.931Z</time>
      </trkpt>
      <trkpt lat="48.22906" lon="4.86947">
        <ele>339.986126</ele>
        <time>2024-03-15T00:38:07.080Z</time>
      </trkpt>
      <trkpt lat="48.2291" lon="4.86993">
        <ele>340.231265</ele>
        <time>2024-03-15T00:38:15.289Z</time>
      </trkpt>
      <trkpt lat="48.22908" lon="4.8704">
        <ele>340.53861</ele>
        <time>2024-03-15T00:38:24.696Z</time>
      </trkpt>
      <trkpt lat="48.22896" lon="4.87089">
        <ele>341.016337</ele>
        <time>2024-03-15T00:38:34.468Z</time>
      </trkpt>
      <trkpt lat="48.22875" lon="4.87132">
        <ele>341.517253</ele>
        <time>2024-03-15T00:38:45.102Z</time>
      </trkpt>
      <trkpt lat="48.22842" lon="4.87164">
        <ele>342.074204</ele>
        <time>2024-03-15T00:38:57.493Z</time>
      </trkpt>
      <trkpt lat="48.22831" lon="4.87182">
        <ele>342.301852</ele>
        <time>2024-03-15T00:39:02.459Z</time>
      </trkpt>
      <trkpt lat="48.22809" lon="4.87202">
        <ele>342.666883</ele>
        <time>2024-03-15T00:39:09.979Z</time>
      </trkpt>
      <trkpt lat="48.2278" lon="4.87218">
        <ele>343.201525</ele>
        <time>2024-03-15T00:39:18.843Z</time>
      </trkpt>
      <trkpt lat="48.22716" lon="4.87243">
        <ele>344.766141</ele>
        <time>2024-03-15T00:39:40.374Z</time>
      </trkpt>
      <trkpt lat="48.22642" lon="4.8729">
        <ele>346.635194</ele>
        <time>2024-03-15T00:40:09.670Z</time>
      </trkpt>
      <trkpt lat="48.22576" lon="4.87316">
        <ele>348.383393</ele>
        <time>2024-03-15T00:40:33.414Z</time>
      </trkpt>
      <trkpt lat="48.22548" lon="4.87336">
        <ele>349.239822</ele>
        <time>2024-03-15T00:40:44.845Z</time>
      </trkpt>
      <trkpt lat="48.22521" lon="4.87362">
        <ele>350.101577</ele>
        <time>2024-03-15T00:40:56.227Z</time>
      </trkpt>
      <trkpt lat="48.22497" lon="4.87394">
        <ele>350.962354</ele>
        <time>2024-03-15T00:41:07.681Z</time>
      </trkpt>
      <trkpt lat="48.22465" lon="4.87448">
        <ele>352.239989</ele>
        <time>2024-03-15T00:41:24.480Z</time>
      </trkpt>
      <trkpt lat="48.22453" lon="4.87483">
        <ele>352.914655</ele>
        <time>2024-03-15T00:41:34.370Z</time>
      </trkpt>
      <trkpt lat="48.22435" lon="4.87514">
        <ele>353.604772</ele>
        <time>2024-03-15T00:41:44.070Z</time>
      </trkpt>
      <trkpt lat="48.22359" lon="4.87569">
        <ele>355.752359</ele>
        <time>2024-03-15T00:42:14.152Z</time>
      </trkpt>
      <trkpt lat="48.22345" lon="4.87585">
        <ele>356.186424</ele>
        <time>2024-03-15T00:42:20.142Z</time>
      </trkpt>
      <trkpt lat="48.22302" lon="4.87645">
        <ele>356.937043</ele>
        <time>2024-03-15T00:42:39.507Z</time>
      </trkpt>
      <trkpt lat="48.2228" lon="4.87682">
        <ele>357.208088</ele>
        <time>2024-03-15T00:42:48.816Z</time>
      </trkpt>
      <trkpt lat="48.22261" lon="4.87726">
        <ele>357.497462</ele>
        <time>2024-03-15T00:42:57.479Z</time>
      </trkpt>
      <trkpt lat="48.22252" lon="4.87753">
        <ele>357.660958</ele>
        <time>2024-03-15T00:43:02.037Z</time>
      </trkpt>
      <trkpt lat="48.2224" lon="4.87814">
        <ele>358.012511</ele>
        <time>2024-03-15T00:43:11.259Z</time>
      </trkpt>
      <trkpt lat="48.22235" lon="4.87871">
        <ele>357.936269</ele>
        <time>2024-03-15T00:43:19.262Z</time>
      </trkpt>
      <trkpt lat="48.22236" lon="4.87924">
        <ele>357.804812</ele>
        <time>2024-03-15T00:43:26.782Z</time>
      </trkpt>
      <trkpt lat="48.22243" lon="4.88044">
        <ele>357.509091</ele>
        <time>2024-03-15T00:43:43.388Z</time>
      </trkpt>
      <trkpt lat="48.22236" lon="4.88147">
        <ele>357.389008</ele>
        <time>2024-03-15T00:43:58.339Z</time>
      </trkpt>
      <trkpt lat="48.22241" lon="4.88198">
        <ele>357.385385</ele>
        <time>2024-03-15T00:44:07.025Z</time>
      </trkpt>
      <trkpt lat="48.22262" lon="4.88324">
        <ele>357.376388</ele>
        <time>2024-03-15T00:44:27.666Z</time>
      </trkpt>
      <trkpt lat="48.22263" lon="4.88399">
        <ele>357.240606</ele>
        <time>2024-03-15T00:44:37.829Z</time>
      </trkpt>
      <trkpt lat="48.22257" lon="4.88469">
        <ele>357.023509</ele>
        <time>2024-03-15T00:44:47.242Z</time>
      </trkpt>
      <trkpt lat="48.22248" lon="4.88483">
        <ele>356.961487</ele>
        <time>2024-03-15T00:44:49.911Z</time>
      </trkpt>
      <trkpt lat="48.22239" lon="4.88482">
        <ele>356.921741</ele>
        <time>2024-03-15T00:44:51.747Z</time>
      </trkpt>
      <trkpt lat="48.22235" lon="4.8849">
        <ele>356.891138</ele>
        <time>2024-03-15T00:44:53.132Z</time>
      </trkpt>
      <trkpt lat="48.22226" lon="4.88483">
        <ele>356.84357</ele>
        <time>2024-03-15T00:44:55.210Z</time>
      </trkpt>
      <trkpt lat="48.222" lon="4.88489">
        <ele>356.722672</ele>
        <time>2024-03-15T00:45:00.664Z</time>
      </trkpt>
      <trkpt lat="48.22189" lon="4.88493">
        <ele>356.668139</ele>
        <time>2024-03-15T00:45:03.159Z</time>
      </trkpt>
      <trkpt lat="48.22179" lon="4.88496">
        <ele>356.622182</ele>
        <time>2024-03-15T00:45:05.219Z</time>
      </trkpt>
      <trkpt lat="48.22175" lon="4.88503">
        <ele>356.591488</ele>
        <time>2024-03-15T00:45:06.677Z</time>
      </trkpt>
      <trkpt lat="48.2216" lon="4.88543">
        <ele>356.683752</ele>
        <time>2024-03-15T00:45:13.142Z</time>
      </trkpt>
      <trkpt lat="48.22148" lon="4.88571">
        <ele>356.861205</ele>
        <time>2024-03-15T00:45:18.197Z</time>
      </trkpt>
      <trkpt lat="48.22092" lon="4.88553">
        <ele>357.314634</ele>
        <time>2024-03-15T00:45:31.983Z</time>
      </trkpt>
      <trkpt lat="48.21995" lon="4.88525">
        <ele>357.966014</ele>
        <time>2024-03-15T00:46:02.330Z</time>
      </trkpt>
      <trkpt lat="48.21951" lon="4.88508">
        <ele>357.98588</ele>
        <time>2024-03-15T00:46:15.858Z</time>
      </trkpt>
      <trkpt lat="48.21936" lon="4.88502">
        <ele>357.99249</ele>
        <time>2024-03-15T00:46:19.963Z</time>
      </trkpt>
      <trkpt lat="48.21857" lon="4.88479">
        <ele>358.028155</ele>
        <time>2024-03-15T00:46:37.441Z</time>
      </trkpt>
      <trkpt lat="48.21845" lon="4.88477">
        <ele>358.033468</ele>
        <time>2024-03-15T00:46:39.737Z</time>
      </trkpt>
      <trkpt lat="48.21832" lon="4.88474">
        <ele>357.896119</ele>
        <time>2024-03-15T00:46:42.124Z</time>
      </trkpt>
      <trkpt lat="48.21775" lon="4.8846">
        <ele>355.423662</ele>
        <time>2024-03-15T00:46:52.081Z</time>
      </trkpt>
      <trkpt lat="48.21727" lon="4.88444">
        <ele>353.328928</ele>
        <time>2024-03-15T00:46:59.999Z</time>
      </trkpt>
      <trkpt lat="48.21698" lon="4.88431">
        <ele>352.042738</ele>
        <time>2024-03-15T00:47:04.711Z</time>
      </trkpt>
      <trkpt lat="48.21676" lon="4.88422">
        <ele>351.070848</ele>
        <time>2024-03-15T00:47:08.210Z</time>
      </trkpt>
      <trkpt lat="48.21609" lon="4.88386">
        <ele>347.901803</ele>
        <time>2024-03-15T00:47:19.150Z</time>
      </trkpt>
      <trkpt lat="48.21501" lon="4.883">
        <ele>342.356985</ele>
        <time>2024-03-15T00:47:39.066Z</time>
      </trkpt>
      <trkpt lat="48.2139" lon="4.88211">
        <ele>339.258854</ele>
        <time>2024-03-15T00:48:01.773Z</time>
      </trkpt>
      <trkpt lat="48.21373" lon="4.88203">
        <ele>338.843414</ele>
        <time>2024-03-15T00:48:05.015Z</time>
      </trkpt>
      <trkpt lat="48.21139" lon="4.88146">
        <ele>333.835364</ele>
        <time>2024-03-15T00:48:48.508Z</time>
      </trkpt>
      <trkpt lat="48.21089" lon="4.88129">
        <ele>332.624363</ele>
        <time>2024-03-15T00:48:57.649Z</time>
      </trkpt>
      <trkpt lat="48.21053" lon="4.88109">
        <ele>331.729891</ele>
        <time>2024-03-15T00:49:04.421Z</time>
      </trkpt>
      <trkpt lat="48.21035" lon="4.88094">
        <ele>331.236005</ele>
        <time>2024-03-15T00:49:08.177Z</time>
      </trkpt>
      <trkpt lat="48.20992" lon="4.88051">
        <ele>330.029838</ele>
        <time>2024-03-15T00:49:17.402Z</time>
      </trkpt>
      <trkpt lat="48.20968" lon="4.88022">
        <ele>329.560483</ele>
        <time>2024-03-15T00:49:22.854Z</time>
      </trkpt>
      <trkpt lat="48.20656" lon="4.87577">
        <ele>323.568889</ele>
        <time>2024-03-15T00:50:45.281Z</time>
      </trkpt>
      <trkpt lat="48.20382" lon="4.87183">
        <ele>322.870013</ele>
        <time>2024-03-15T00:52:08.015Z</time>
      </trkpt>
      <trkpt lat="48.20127" lon="4.86808">
        <ele>325.70789</ele>
        <time>2024-03-15T00:53:44.473Z</time>
      </trkpt>
      <trkpt lat="48.20072" lon="4.8673">
        <ele>326.154671</ele>
        <time>2024-03-15T00:54:04.508Z</time>
      </trkpt>
      <trkpt lat="48.20066" lon="4.86721">
        <ele>326.122402</ele>
        <time>2024-03-15T00:54:06.739Z</time>
      </trkpt>
      <trkpt lat="48.19787" lon="4.86302">
        <ele>323.796642</ele>
        <time>2024-03-15T00:55:27.814Z</time>
      </trkpt>
      <trkpt lat="48.19812" lon="4.86251">
        <ele>323.437777</ele>
        <time>2024-03-15T00:55:36.692Z</time>
      </trkpt>
      <trkpt lat="48.1981" lon="4.86231">
        <ele>323.327948</ele>
        <time>2024-03-15T00:55:39.412Z</time>
      </trkpt>
      <trkpt lat="48.19779" lon="4.86171">
        <ele>322.896745</ele>
        <time>2024-03-15T00:55:50.159Z</time>
      </trkpt>
      <trkpt lat="48.19686" lon="4.85989">
        <ele>321.419687</ele>
        <time>2024-03-15T00:56:22.061Z</time>
      </trkpt>
      <trkpt lat="48.19626" lon="4.85915">
        <ele>320.654731</ele>
        <time>2024-03-15T00:56:38.013Z</time>
      </trkpt>
      <trkpt lat="48.1949" lon="4.85788">
        <ele>319.229113</ele>
        <time>2024-03-15T00:57:11.082Z</time>
      </trkpt>
      <trkpt lat="48.19216" lon="4.8559">
        <ele>319.424595</ele>
        <time>2024-03-15T00:58:22.735Z</time>
      </trkpt>
      <trkpt lat="48.18878" lon="4.85339">
        <ele>322.092988</ele>
        <time>2024-03-15T01:00:03.800Z</time>
      </trkpt>
      <trkpt lat="48.18619" lon="4.85121">
        <ele>325.318683</ele>
        <time>2024-03-15T01:01:32.428Z</time>
      </trkpt>
      <trkpt lat="48.18571" lon="4.85094">
        <ele>325.691825</ele>
        <time>2024-03-15T01:01:45.630Z</time>
      </trkpt>
      <trkpt lat="48.18214" lon="4.84915">
        <ele>325.019799</ele>
        <time>2024-03-15T01:03:09.779Z</time>
      </trkpt>
      <trkpt lat="48.18169" lon="4.8487">
        <ele>324.853278</ele>
        <time>2024-03-15T01:03:22.012Z</time>
      </trkpt>
      <trkpt lat="48.18079" lon="4.84761">
        <ele>324.482901</ele>
        <time>2024-03-15T01:03:47.843Z</time>
      </trkpt>
      <trkpt lat="48.18009" lon="4.84699">
        <ele>324.183265</ele>
        <time>2024-03-15T01:04:05.750Z</time>
      </trkpt>
      <trkpt lat="48.17828" lon="4.84215">
        <ele>323.165054</ele>
        <time>2024-03-15T01:05:27.497Z</time>
      </trkpt>
      <trkpt lat="48.17767" lon="4.84111">
        <ele>323.428333</ele>
        <time>2024-03-15T01:05:51.244Z</time>
      </trkpt>
      <trkpt lat="48.17786" lon="4.84053">
        <ele>323.718093</ele>
        <time>2024-03-15T01:06:03.239Z</time>
      </trkpt>
      <trkpt lat="48.17866" lon="4.83849">
        <ele>325.403245</ele>
        <time>2024-03-15T01:06:49.165Z</time>
      </trkpt>
      <trkpt lat="48.1803" lon="4.83581">
        <ele>326.418834</ele>
        <time>2024-03-15T01:07:55.036Z</time>
      </trkpt>
      <trkpt lat="48.18064" lon="4.83399">
        <ele>325.315004</ele>
        <time>2024-03-15T01:08:20.476Z</time>
      </trkpt>
      <trkpt lat="48.18069" lon="4.83245">
        <ele>322.100682</ele>
        <time>2024-03-15T01:08:39.027Z</time>
      </trkpt>
      <trkpt lat="48.18091" lon="4.83181">
        <ele>320.59043</ele>
        <time>2024-03-15T01:08:47.467Z</time>
      </trkpt>
      <trkpt lat="48.18231" lon="4.83011">
        <ele>313.880452</ele>
        <time>2024-03-15T01:09:18.710Z</time>
      </trkpt>
      <trkpt lat="48.18287" lon="4.82976">
        <ele>311.722547</ele>
        <time>2024-03-15T01:09:29.452Z</time>
      </trkpt>
      <trkpt lat="48.18411" lon="4.82923">
        <ele>307.277303</ele>
        <time>2024-03-15T01:09:52.394Z</time>
      </trkpt>
      <trkpt lat="48.18542" lon="4.82772">
        <ele>301.79763</ele>
        <time>2024-03-15T01:10:21.617Z</time>
      </trkpt>
      <trkpt lat="48.18588" lon="4.82667">
        <ele>299.719692</ele>
        <time>2024-03-15T01:10:37.019Z</time>
      </trkpt>
      <trkpt lat="48.18698" lon="4.82558">
        <ele>296.9832</ele>
        <time>2024-03-15T01:11:02.848Z</time>
      </trkpt>
      <trkpt lat="48.18824" lon="4.82385">
        <ele>294.417122</ele>
        <time>2024-03-15T01:11:36.757Z</time>
      </trkpt>
      <trkpt lat="48.18863" lon="4.82204">
        <ele>293.399106</ele>
        <time>2024-03-15T01:12:03.106Z</time>
      </trkpt>
      <trkpt lat="48.18925" lon="4.82099">
        <ele>292.828146</ele>
        <time>2024-03-15T01:12:24.419Z</time>
      </trkpt>
      <trkpt lat="48.18957" lon="4.81988">
        <ele>292.535565</ele>
        <time>2024-03-15T01:12:42.806Z</time>
      </trkpt>
      <trkpt lat="48.19049" lon="4.8183">
        <ele>291.172521</ele>
        <time>2024-03-15T01:13:12.483Z</time>
      </trkpt>
      <trkpt lat="48.19063" lon="4.81778">
        <ele>290.650293</ele>
        <time>2024-03-15T01:13:19.748Z</time>
      </trkpt>
      <trkpt lat="48.19072" lon="4.8168">
        <ele>289.63965</ele>
        <time>2024-03-15T01:13:32.538Z</time>
      </trkpt>
      <trkpt lat="48.19087" lon="4.81626">
        <ele>288.565202</ele>
        <time>2024-03-15T01:13:39.858Z</time>
      </trkpt>
      <trkpt lat="48.19158" lon="4.81516">
        <ele>285.739032</ele>
        <time>2024-03-15T01:13:58.497Z</time>
      </trkpt>
      <trkpt lat="48.19252" lon="4.81156">
        <ele>278.8996</ele>
        <time>2024-03-15T01:14:44.686Z</time>
      </trkpt>
      <trkpt lat="48.19275" lon="4.81096">
        <ele>278.532707</ele>
        <time>2024-03-15T01:14:54.264Z</time>
      </trkpt>
      <trkpt lat="48.19284" lon="4.80997">
        <ele>278.00061</ele>
        <time>2024-03-15T01:15:10.166Z</time>
      </trkpt>
      <trkpt lat="48.19276" lon="4.80735">
        <ele>278.981649</ele>
        <time>2024-03-15T01:16:01.864Z</time>
      </trkpt>
      <trkpt lat="48.19363" lon="4.80544">
        <ele>277.548002</ele>
        <time>2024-03-15T01:16:34.718Z</time>
      </trkpt>
      <trkpt lat="48.19374" lon="4.80487">
        <ele>277.041518</ele>
        <time>2024-03-15T01:16:41.981Z</time>
      </trkpt>
      <trkpt lat="48.194" lon="4.80395">
        <ele>274.566475</ele>
        <time>2024-03-15T01:16:54.046Z</time>
      </trkpt>
      <trkpt lat="48.19386" lon="4.80298">
        <ele>271.680118</ele>
        <time>2024-03-15T01:17:05.428Z</time>
      </trkpt>
      <trkpt lat="48.19387" lon="4.80192">
        <ele>268.274593</ele>
        <time>2024-03-15T01:17:16.994Z</time>
      </trkpt>
      <trkpt lat="48.1942" lon="4.80054">
        <ele>260.462453</ele>
        <time>2024-03-15T01:17:32.317Z</time>
      </trkpt>
      <trkpt lat="48.19458" lon="4.80007">
        <ele>256.532218</ele>
        <time>2024-03-15T01:17:39.754Z</time>
      </trkpt>
      <trkpt lat="48.1949" lon="4.79858">
        <ele>246.330438</ele>
        <time>2024-03-15T01:17:55.302Z</time>
      </trkpt>
      <trkpt lat="48.19455" lon="4.79712">
        <ele>235.787132</ele>
        <time>2024-03-15T01:18:10.570Z</time>
      </trkpt>
      <trkpt lat="48.19468" lon="4.79684">
        <ele>233.672314</ele>
        <time>2024-03-15T01:18:13.920Z</time>
      </trkpt>
      <trkpt lat="48.19439" lon="4.79581">
        <ele>226.702041</ele>
        <time>2024-03-15T01:18:25.045Z</time>
      </trkpt>
      <trkpt lat="48.19424" lon="4.7941">
        <ele>216.515993</ele>
        <time>2024-03-15T01:18:42.566Z</time>
      </trkpt>
      <trkpt lat="48.19464" lon="4.79279">
        <ele>209.07546</ele>
        <time>2024-03-15T01:18:57.378Z</time>
      </trkpt>
      <trkpt lat="48.19502" lon="4.79213">
        <ele>204.727368</ele>
        <time>2024-03-15T01:19:06.520Z</time>
      </trkpt>
      <trkpt lat="48.19513" lon="4.79058">
        <ele>198.189955</ele>
        <time>2024-03-15T01:19:23.064Z</time>
      </trkpt>
      <trkpt lat="48.19538" lon="4.78972">
        <ele>194.237678</ele>
        <time>2024-03-15T01:19:33.226Z</time>
      </trkpt>
      <trkpt lat="48.19543" lon="4.78937">
        <ele>193.212936</ele>
        <time>2024-03-15T01:19:37.079Z</time>
      </trkpt>
      <trkpt lat="48.19547" lon="4.78861">
        <ele>191.046323</ele>
        <time>2024-03-15T01:19:45.530Z</time>
      </trkpt>
      <trkpt lat="48.19551" lon="4.78837">
        <ele>190.351799</ele>
        <time>2024-03-15T01:19:48.310Z</time>
      </trkpt>
      <trkpt lat="48.19566" lon="4.78777">
        <ele>188.54756</ele>
        <time>2024-03-15T01:19:55.768Z</time>
      </trkpt>
      <trkpt lat="48.19588" lon="4.78709">
        <ele>186.48074</ele>
        <time>2024-03-15T01:20:04.949Z</time>
      </trkpt>
      <trkpt lat="48.19602" lon="4.78679">
        <ele>185.963474</ele>
        <time>2024-03-15T01:20:09.558Z</time>
      </trkpt>
      <trkpt lat="48.19612" lon="4.78663">
        <ele>185.646857</ele>
        <time>2024-03-15T01:20:12.395Z</time>
      </trkpt>
      <trkpt lat="48.19644" lon="4.78644">
        <ele>184.918064</ele>
        <time>2024-03-15T01:20:18.977Z</time>
      </trkpt>
      <trkpt lat="48.19675" lon="4.78643">
        <ele>184.269394</ele>
        <time>2024-03-15T01:20:24.774Z</time>
      </trkpt>
      <trkpt lat="48.1972" lon="4.78646">
        <ele>183.327204</ele>
        <time>2024-03-15T01:20:33.403Z</time>
      </trkpt>
      <trkpt lat="48.19764" lon="4.78644">
        <ele>182.462478</ele>
        <time>2024-03-15T01:20:42.259Z</time>
      </trkpt>
      <trkpt lat="48.19773" lon="4.78638">
        <ele>182.284749</ele>
        <time>2024-03-15T01:20:44.319Z</time>
      </trkpt>
      <trkpt lat="48.19779" lon="4.78631">
        <ele>182.150836</ele>
        <time>2024-03-15T01:20:45.890Z</time>
      </trkpt>
      <trkpt lat="48.19782" lon="4.7862">
        <ele>182.020796</ele>
        <time>2024-03-15T01:20:47.430Z</time>
      </trkpt>
      <trkpt lat="48.1978" lon="4.78577">
        <ele>181.514995</ele>
        <time>2024-03-15T01:20:53.202Z</time>
      </trkpt>
      <trkpt lat="48.19781" lon="4.78537">
        <ele>181.058669</ele>
        <time>2024-03-15T01:20:58.345Z</time>
      </trkpt>
      <trkpt lat="48.19764" lon="4.78445">
        <ele>179.945236</ele>
        <time>2024-03-15T01:21:10.170Z</time>
      </trkpt>
      <trkpt lat="48.19752" lon="4.78388">
        <ele>179.423851</ele>
        <time>2024-03-15T01:21:17.465Z</time>
      </trkpt>
      <trkpt lat="48.1975" lon="4.78378">
        <ele>179.359941</ele>
        <time>2024-03-15T01:21:18.680Z</time>
      </trkpt>
      <trkpt lat="48.19735" lon="4.78296">
        <ele>178.812046</ele>
        <time>2024-03-15T01:21:29.625Z</time>
      </trkpt>
      <trkpt lat="48.19725" lon="4.78214">
        <ele>178.273</ele>
        <time>2024-03-15T01:21:40.841Z</time>
      </trkpt>
      <trkpt lat="48.19727" lon="4.78186">
        <ele>178.093666</ele>
        <time>2024-03-15T01:21:44.626Z</time>
      </trkpt>
      <trkpt lat="48.19732" lon="4.78162">
        <ele>177.932258</ele>
        <time>2024-03-15T01:21:48.207Z</time>
      </trkpt>
      <trkpt lat="48.19745" lon="4.78139">
        <ele>178.337008</ele>
        <time>2024-03-15T01:21:52.974Z</time>
      </trkpt>
      <trkpt lat="48.1977" lon="4.7811">
        <ele>179.146044</ele>
        <time>2024-03-15T01:22:01.087Z</time>
      </trkpt>
      <trkpt lat="48.19793" lon="4.78098">
        <ele>179.797556</ele>
        <time>2024-03-15T01:22:08.386Z</time>
      </trkpt>
      <trkpt lat="48.19806" lon="4.78082">
        <ele>180.21448</ele>
        <time>2024-03-15T01:22:13.947Z</time>
      </trkpt>
      <trkpt lat="48.1981" lon="4.78067">
        <ele>180.506161</ele>
        <time>2024-03-15T01:22:18.052Z</time>
      </trkpt>
      <trkpt lat="48.19813" lon="4.77999">
        <ele>181.678287</ele>
        <time>2024-03-15T01:22:36.313Z</time>
      </trkpt>
      <trkpt lat="48.19815" lon="4.77961">
        <ele>182.338198</ele>
        <time>2024-03-15T01:22:48.148Z</time>
      </trkpt>
      <trkpt lat="48.19818" lon="4.77892">
        <ele>184.569568</ele>
        <time>2024-03-15T01:23:11.055Z</time>
      </trkpt>
      <trkpt lat="48.19848" lon="4.77852">
        <ele>186.708355</ele>
        <time>2024-03-15T01:23:31.518Z</time>
      </trkpt>
      <trkpt lat="48.1985" lon="4.77822">
        <ele>187.824827</ele>
        <time>2024-03-15T01:23:42.242Z</time>
      </trkpt>
      <trkpt lat="48.19851" lon="4.77788">
        <ele>189.023694</ele>
        <time>2024-03-15T01:23:54.154Z</time>
      </trkpt>
      <trkpt lat="48.19823" lon="4.77753">
        <ele>190.974926</ele>
        <time>2024-03-15T01:24:13.080Z</time>
      </trkpt>
      <trkpt lat="48.19819" lon="4.77751">
        <ele>191.231845</ele>
        <time>2024-03-15T01:24:15.433Z</time>
      </trkpt>
      <trkpt lat="48.19763" lon="4.77781">
        <ele>193.30848</ele>
        <time>2024-03-15T01:24:43.785Z</time>
      </trkpt>
      <trkpt lat="48.19685" lon="4.77775">
        <ele>195.359367</ele>
        <time>2024-03-15T01:25:12.677Z</time>
      </trkpt>
      <trkpt lat="48.19656" lon="4.77771">
        <ele>196.132493</ele>
        <time>2024-03-15T01:25:21.163Z</time>
      </trkpt>
      <trkpt lat="48.19643" lon="4.77774">
        <ele>196.469593</ele>
        <time>2024-03-15T01:25:24.493Z</time>
      </trkpt>
      <trkpt lat="48.19619" lon="4.77773">
        <ele>197.003709</ele>
        <time>2024-03-15T01:25:30.557Z</time>
      </trkpt>
      <trkpt lat="48.19528" lon="4.77771">
        <ele>197.346932</ele>
        <time>2024-03-15T01:25:50.518Z</time>
      </trkpt>
      <trkpt lat="48.19518" lon="4.7777">
        <ele>197.387932</ele>
        <time>2024-03-15T01:25:52.860Z</time>
      </trkpt>
      <trkpt lat="48.19497" lon="4.7777">
        <ele>197.465006</ele>
        <time>2024-03-15T01:25:57.540Z</time>
      </trkpt>
      <trkpt lat="48.19405" lon="4.77765">
        <ele>198.196715</ele>
        <time>2024-03-15T01:26:21.789Z</time>
      </trkpt>
      <trkpt lat="48.19381" lon="4.77763">
        <ele>198.527734</ele>
        <time>2024-03-15T01:26:28.812Z</time>
      </trkpt>
      <trkpt lat="48.19265" lon="4.77732">
        <ele>200.138111</ele>
        <time>2024-03-15T01:27:04.475Z</time>
      </trkpt>
      <trkpt lat="48.19188" lon="4.7771">
        <ele>201.623512</ele>
        <time>2024-03-15T01:27:28.791Z</time>
      </trkpt>
      <trkpt lat="48.19163" lon="4.77695">
        <ele>202.126671</ele>
        <time>2024-03-15T01:27:36.865Z</time>
      </trkpt>
      <trkpt lat="48.19063" lon="4.77597">
        <ele>204.998442</ele>
        <time>2024-03-15T01:28:15.673Z</time>
      </trkpt>
      <trkpt lat="48.19012" lon="4.77556">
        <ele>206.861597</ele>
        <time>2024-03-15T01:28:38.351Z</time>
      </trkpt>
      <trkpt lat="48.18975" lon="4.77535">
        <ele>208.162881</ele>
        <time>2024-03-15T01:28:55.081Z</time>
      </trkpt>
      <trkpt lat="48.18924" lon="4.77517">
        <ele>209.790384</ele>
        <time>2024-03-15T01:29:17.000Z</time>
      </trkpt>
      <trkpt lat="48.18895" lon="4.77512">
        <ele>210.657144</ele>
        <time>2024-03-15T01:29:29.323Z</time>
      </trkpt>
      <trkpt lat="48.18878" lon="4.77503">
        <ele>211.178165</ele>
        <time>2024-03-15T01:29:36.252Z</time>
      </trkpt>
      <trkpt lat="48.18864" lon="4.77483">
        <ele>211.747517</ele>
        <time>2024-03-15T01:29:43.758Z</time>
      </trkpt>
      <trkpt lat="48.18851" lon="4.77502">
        <ele>212.295123</ele>
        <time>2024-03-15T01:29:50.511Z</time>
      </trkpt>
      <trkpt lat="48.18824" lon="4.7754">
        <ele>213.380931</ele>
        <time>2024-03-15T01:30:03.875Z</time>
      </trkpt>
      <trkpt lat="48.18748" lon="4.77647">
        <ele>215.149012</ele>
        <time>2024-03-15T01:30:36.716Z</time>
      </trkpt>
      <trkpt lat="48.18715" lon="4.77707">
        <ele>215.582584</ele>
        <time>2024-03-15T01:30:49.441Z</time>
      </trkpt>
      <trkpt lat="48.18692" lon="4.77772">
        <ele>215.990627</ele>
        <time>2024-03-15T01:31:00.484Z</time>
      </trkpt>
      <trkpt lat="48.18657" lon="4.77927">
        <ele>215.948031</ele>
        <time>2024-03-15T01:31:24.711Z</time>
      </trkpt>
      <trkpt lat="48.18565" lon="4.78339">
        <ele>214.391504</ele>
        <time>2024-03-15T01:32:26.165Z</time>
      </trkpt>
      <trkpt lat="48.18515" lon="4.78562">
        <ele>211.00312</ele>
        <time>2024-03-15T01:32:54.768Z</time>
      </trkpt>
      <trkpt lat="48.18501" lon="4.78625">
        <ele>208.37825</ele>
        <time>2024-03-15T01:33:01.793Z</time>
      </trkpt>
      <trkpt lat="48.18484" lon="4.78678">
        <ele>205.992962</ele>
        <time>2024-03-15T01:33:07.731Z</time>
      </trkpt>
      <trkpt lat="48.18469" lon="4.78702">
        <ele>204.65059</ele>
        <time>2024-03-15T01:33:11.052Z</time>
      </trkpt>
      <trkpt lat="48.18453" lon="4.78719">
        <ele>203.438244</ele>
        <time>2024-03-15T01:33:14.019Z</time>
      </trkpt>
      <trkpt lat="48.18429" lon="4.78733">
        <ele>201.894108</ele>
        <time>2024-03-15T01:33:17.754Z</time>
      </trkpt>
      <trkpt lat="48.18417" lon="4.78736">
        <ele>201.126046</ele>
        <time>2024-03-15T01:33:19.646Z</time>
      </trkpt>
      <trkpt lat="48.18393" lon="4.78735">
        <ele>199.702247</ele>
        <time>2024-03-15T01:33:23.190Z</time>
      </trkpt>
      <trkpt lat="48.18381" lon="4.78731">
        <ele>199.102054</ele>
        <time>2024-03-15T01:33:24.929Z</time>
      </trkpt>
      <trkpt lat="48.18357" lon="4.78717">
        <ele>197.703471</ele>
        <time>2024-03-15T01:33:28.887Z</time>
      </trkpt>
      <trkpt lat="48.18274" lon="4.78612">
        <ele>192.061653</ele>
        <time>2024-03-15T01:33:45.640Z</time>
      </trkpt>
      <trkpt lat="48.18225" lon="4.78551">
        <ele>191.041507</ele>
        <time>2024-03-15T01:33:57.412Z</time>
      </trkpt>
      <trkpt lat="48.18229" lon="4.78541">
        <ele>191.133047</ele>
        <time>2024-03-15T01:33:59.687Z</time>
      </trkpt>
      <trkpt lat="48.18231" lon="4.78493">
        <ele>191.52497</ele>
        <time>2024-03-15T01:34:10.085Z</time>
      </trkpt>
      <trkpt lat="48.1823" lon="4.78445">
        <ele>191.923455</ele>
        <time>2024-03-15T01:34:22.562Z</time>
      </trkpt>
      <trkpt lat="48.18225" lon="4.78372">
        <ele>192.536705</ele>
        <time>2024-03-15T01:34:44.755Z</time>
      </trkpt>
      <trkpt lat="48.18193" lon="4.78202">
        <ele>196.457509</ele>
        <time>2024-03-15T01:35:43.491Z</time>
      </trkpt>
      <trkpt lat="48.18195" lon="4.78112">
        <ele>198.771614</ele>
        <time>2024-03-15T01:36:13.309Z</time>
      </trkpt>
      <trkpt lat="48.1819" lon="4.78035">
        <ele>200.402043</ele>
        <time>2024-03-15T01:36:37.177Z</time>
      </trkpt>
      <trkpt lat="48.18184" lon="4.78002">
        <ele>200.970195</ele>
        <time>2024-03-15T01:36:47.081Z</time>
      </trkpt>
      <trkpt lat="48.18174" lon="4.77966">
        <ele>201.645002</ele>
        <time>2024-03-15T01:36:58.278Z</time>
      </trkpt>
      <trkpt lat="48.18151" lon="4.77925">
        <ele>202.539559</ele>
        <time>2024-03-15T01:37:12.671Z</time>
      </trkpt>
      <trkpt lat="48.18098" lon="4.77846">
        <ele>204.379719</ele>
        <time>2024-03-15T01:37:42.537Z</time>
      </trkpt>
      <trkpt lat="48.18006" lon="4.77647">
        <ele>207.060223</ele>
        <time>2024-03-15T01:38:42.881Z</time>
      </trkpt>
      <trkpt lat="48.17973" lon="4.77492">
        <ele>208.710072</ele>
        <time>2024-03-15T01:39:21.567Z</time>
      </trkpt>
      <trkpt lat="48.17957" lon="4.77448">
        <ele>209.206377</ele>
        <time>2024-03-15T01:39:33.791Z</time>
      </trkpt>
      <trkpt lat="48.17924" lon="4.77375">
        <ele>210.130364</ele>
        <time>2024-03-15T01:39:56.022Z</time>
      </trkpt>
      <trkpt lat="48.17892" lon="4.77278">
        <ele>211.572566</ele>
        <time>2024-03-15T01:40:24.588Z</time>
      </trkpt>
      <trkpt lat="48.17817" lon="4.77088">
        <ele>214.279128</ele>
        <time>2024-03-15T01:41:23.007Z</time>
      </trkpt>
      <trkpt lat="48.178" lon="4.77021">
        <ele>214.996087</ele>
        <time>2024-03-15T01:41:40.706Z</time>
      </trkpt>
      <trkpt lat="48.17759" lon="4.76697">
        <ele>217.641904</ele>
        <time>2024-03-15T01:42:57.507Z</time>
      </trkpt>
      <trkpt lat="48.17758" lon="4.76683">
        <ele>217.732586</ele>
        <time>2024-03-15T01:43:00.218Z</time>
      </trkpt>
      <trkpt lat="48.17743" lon="4.76628">
        <ele>218.15754</ele>
        <time>2024-03-15T01:43:12.820Z</time>
      </trkpt>
      <trkpt lat="48.17712" lon="4.76569">
        <ele>218.980667</ele>
        <time>2024-03-15T01:43:30.329Z</time>
      </trkpt>
      <trkpt lat="48.17692" lon="4.76541">
        <ele>219.430713</ele>
        <time>2024-03-15T01:43:40.002Z</time>
      </trkpt>
      <trkpt lat="48.17661" lon="4.76506">
        <ele>220.062686</ele>
        <time>2024-03-15T01:43:54.643Z</time>
      </trkpt>
      <trkpt lat="48.17638" lon="4.76479">
        <ele>220.548477</ele>
        <time>2024-03-15T01:44:06.334Z</time>
      </trkpt>
      <trkpt lat="48.1762" lon="4.76442">
        <ele>221.041331</ele>
        <time>2024-03-15T01:44:18.733Z</time>
      </trkpt>
      <trkpt lat="48.17609" lon="4.76244">
        <ele>224.701627</ele>
        <time>2024-03-15T01:45:16.237Z</time>
      </trkpt>
      <trkpt lat="48.17628" lon="4.76053">
        <ele>228.179812</ele>
        <time>2024-03-15T01:46:12.702Z</time>
      </trkpt>
      <trkpt lat="48.17625" lon="4.75956">
        <ele>229.913741</ele>
        <time>2024-03-15T01:46:39.344Z</time>
      </trkpt>
      <trkpt lat="48.17614" lon="4.75882">
        <ele>231.209276</ele>
        <time>2024-03-15T01:47:00.505Z</time>
      </trkpt>
      <trkpt lat="48.1759" lon="4.75775">
        <ele>232.973103</ele>
        <time>2024-03-15T01:47:31.891Z</time>
      </trkpt>
      <trkpt lat="48.17575" lon="4.75727">
        <ele>233.814222</ele>
        <time>2024-03-15T01:47:46.517Z</time>
      </trkpt>
      <trkpt lat="48.17558" lon="4.75673">
        <ele>234.7488</ele>
        <time>2024-03-15T01:48:02.643Z</time>
      </trkpt>
      <trkpt lat="48.17524" lon="4.75358">
        <ele>239.594805</ele>
        <time>2024-03-15T01:49:27.318Z</time>
      </trkpt>
      <trkpt lat="48.17524" lon="4.75358">
        <ele>239.594805</ele>
        <time>2024-03-15T01:49:27.331Z</time>
      </trkpt>
      <trkpt lat="48.17521" lon="4.75039">
        <ele>246.03076</ele>
        <time>2024-03-15T01:51:02.315Z</time>
      </trkpt>
      <trkpt lat="48.17495" lon="4.74914">
        <ele>248.932459</ele>
        <time>2024-03-15T01:51:42.562Z</time>
      </trkpt>
      <trkpt lat="48.17481" lon="4.74827">
        <ele>251.031415</ele>
        <time>2024-03-15T01:52:10.662Z</time>
      </trkpt>
      <trkpt lat="48.17479" lon="4.74772">
        <ele>252.434693</ele>
        <time>2024-03-15T01:52:27.939Z</time>
      </trkpt>
      <trkpt lat="48.1749" lon="4.74578">
        <ele>257.433892</ele>
        <time>2024-03-15T01:53:32.414Z</time>
      </trkpt>
      <trkpt lat="48.17486" lon="4.74521">
        <ele>258.749929</ele>
        <time>2024-03-15T01:53:50.993Z</time>
      </trkpt>
      <trkpt lat="48.17474" lon="4.74439">
        <ele>260.6984</ele>
        <time>2024-03-15T01:54:17.662Z</time>
      </trkpt>
      <trkpt lat="48.17443" lon="4.74341">
        <ele>263.200944</ele>
        <time>2024-03-15T01:54:50.517Z</time>
      </trkpt>
      <trkpt lat="48.17432" lon="4.74332">
        <ele>263.558049</ele>
        <time>2024-03-15T01:54:55.782Z</time>
      </trkpt>
      <trkpt lat="48.17423" lon="4.7433">
        <ele>263.802813</ele>
        <time>2024-03-15T01:55:00.021Z</time>
      </trkpt>
      <trkpt lat="48.16664" lon="4.75187">
        <ele>286.918621</ele>
        <time>2024-03-15T02:01:35.318Z</time>
      </trkpt>
      <trkpt lat="48.16457" lon="4.75422">
        <ele>289.75395</ele>
        <time>2024-03-15T02:03:05.867Z</time>
      </trkpt>
      <trkpt lat="48.16139" lon="4.7578">
        <ele>287.653121</ele>
        <time>2024-03-15T02:04:54.319Z</time>
      </trkpt>
      <trkpt lat="48.15859" lon="4.75637">
        <ele>287.555586</ele>
        <time>2024-03-15T02:06:48.809Z</time>
      </trkpt>
      <trkpt lat="48.15848" lon="4.7564">
        <ele>287.518162</ele>
        <time>2024-03-15T02:06:52.787Z</time>
      </trkpt>
      <trkpt lat="48.15832" lon="4.75645">
        <ele>287.468513</ele>
        <time>2024-03-15T02:06:58.098Z</time>
      </trkpt>
      <trkpt lat="48.15741" lon="4.75708">
        <ele>286.403836</ele>
        <time>2024-03-15T02:07:31.585Z</time>
      </trkpt>
      <trkpt lat="48.15714" lon="4.75745">
        <ele>285.893177</ele>
        <time>2024-03-15T02:07:43.583Z</time>
      </trkpt>
      <trkpt lat="48.15652" lon="4.7597">
        <ele>282.993614</ele>
        <time>2024-03-15T02:08:38.813Z</time>
      </trkpt>
      <trkpt lat="48.15591" lon="4.76016">
        <ele>281.554646</ele>
        <time>2024-03-15T02:09:01.036Z</time>
      </trkpt>
      <trkpt lat="48.15573" lon="4.76044">
        <ele>280.948833</ele>
        <time>2024-03-15T02:09:08.955Z</time>
      </trkpt>
      <trkpt lat="48.15549" lon="4.76083">
        <ele>279.010903</ele>
        <time>2024-03-15T02:09:19.485Z</time>
      </trkpt>
      <trkpt lat="48.15537" lon="4.76243">
        <ele>273.146608</ele>
        <time>2024-03-15T02:09:49.530Z</time>
      </trkpt>
      <trkpt lat="48.15561" lon="4.7643">
        <ele>266.023713</ele>
        <time>2024-03-15T02:10:24.511Z</time>
      </trkpt>
      <trkpt lat="48.15531" lon="4.76465">
        <ele>263.891007</ele>
        <time>2024-03-15T02:10:35.139Z</time>
      </trkpt>
      <trkpt lat="48.15373" lon="4.76514">
        <ele>257.214875</ele>
        <time>2024-03-15T02:11:23.127Z</time>
      </trkpt>
      <trkpt lat="48.15325" lon="4.76529">
        <ele>255.500998</ele>
        <time>2024-03-15T02:11:38.839Z</time>
      </trkpt>
      <trkpt lat="48.15275" lon="4.76534">
        <ele>254.074077</ele>
        <time>2024-03-15T02:11:54.745Z</time>
      </trkpt>
      <trkpt lat="48.15246" lon="4.76551">
        <ele>253.301683</ele>
        <time>2024-03-15T02:12:04.735Z</time>
      </trkpt>
      <trkpt lat="48.15218" lon="4.76578">
        <ele>252.503566</ele>
        <time>2024-03-15T02:12:15.115Z</time>
      </trkpt>
      <trkpt lat="48.15205" lon="4.76605">
        <ele>251.951393</ele>
        <time>2024-03-15T02:12:22.353Z</time>
      </trkpt>
      <trkpt lat="48.15178" lon="4.76677">
        <ele>250.584897</ele>
        <time>2024-03-15T02:12:40.245Z</time>
      </trkpt>
      <trkpt lat="48.15121" lon="4.76753">
        <ele>247.659501</ele>
        <time>2024-03-15T02:13:03.549Z</time>
      </trkpt>
      <trkpt lat="48.15086" lon="4.76782">
        <ele>246.081754</ele>
        <time>2024-03-15T02:13:15.227Z</time>
      </trkpt>
      <trkpt lat="48.15018" lon="4.7683">
        <ele>242.946175</ele>
        <time>2024-03-15T02:13:37.398Z</time>
      </trkpt>
      <trkpt lat="48.14966" lon="4.76897">
        <ele>238.572121</ele>
        <time>2024-03-15T02:13:56.810Z</time>
      </trkpt>
      <trkpt lat="48.14957" lon="4.76903">
        <ele>237.926751</ele>
        <time>2024-03-15T02:13:59.625Z</time>
      </trkpt>
      <trkpt lat="48.14817" lon="4.76876">
        <ele>228.42727</ele>
        <time>2024-03-15T02:14:37.814Z</time>
      </trkpt>
      <trkpt lat="48.14722" lon="4.76914">
        <ele>221.163038</ele>
        <time>2024-03-15T02:15:03.796Z</time>
      </trkpt>
      <trkpt lat="48.14654" lon="4.76933">
        <ele>216.96409</ele>
        <time>2024-03-15T02:15:22.838Z</time>
      </trkpt>
      <trkpt lat="48.14589" lon="4.77116">
        <ele>211.026881</ele>
        <time>2024-03-15T02:15:45.587Z</time>
      </trkpt>
      <trkpt lat="48.14575" lon="4.77166">
        <ele>210.210518</ele>
        <time>2024-03-15T02:15:52.718Z</time>
      </trkpt>
      <trkpt lat="48.14558" lon="4.77276">
        <ele>209.122619</ele>
        <time>2024-03-15T02:16:07.787Z</time>
      </trkpt>
      <trkpt lat="48.14553" lon="4.77334">
        <ele>208.551809</ele>
        <time>2024-03-15T02:16:15.512Z</time>
      </trkpt>
      <trkpt lat="48.14558" lon="4.77404">
        <ele>207.826608</ele>
        <time>2024-03-15T02:16:24.591Z</time>
      </trkpt>
      <trkpt lat="48.14598" lon="4.7762">
        <ele>204.700692</ele>
        <time>2024-03-15T02:16:51.971Z</time>
      </trkpt>
      <trkpt lat="48.14621" lon="4.77808">
        <ele>201.89058</ele>
        <time>2024-03-15T02:17:14.146Z</time>
      </trkpt>
      <trkpt lat="48.14617" lon="4.77873">
        <ele>200.920867</ele>
        <time>2024-03-15T02:17:21.937Z</time>
      </trkpt>
      <trkpt lat="48.14607" lon="4.77892">
        <ele>200.561694</ele>
        <time>2024-03-15T02:17:24.957Z</time>
      </trkpt>
      <trkpt lat="48.14591" lon="4.77904">
        <ele>200.211724</ele>
        <time>2024-03-15T02:17:28.300Z</time>
      </trkpt>
      <trkpt lat="48.14529" lon="4.77925">
        <ele>200.54155</ele>
        <time>2024-03-15T02:17:42.252Z</time>
      </trkpt>
      <trkpt lat="48.14496" lon="4.77947">
        <ele>200.726026</ele>
        <time>2024-03-15T02:17:52.495Z</time>
      </trkpt>
      <trkpt lat="48.14416" lon="4.78084">
        <ele>201.04181</ele>
        <time>2024-03-15T02:18:29.040Z</time>
      </trkpt>
      <trkpt lat="48.14422" lon="4.78142">
        <ele>200.960354</ele>
        <time>2024-03-15T02:18:38.803Z</time>
      </trkpt>
      <trkpt lat="48.14433" lon="4.78233">
        <ele>200.831184</ele>
        <time>2024-03-15T02:18:52.114Z</time>
      </trkpt>
      <trkpt lat="48.14484" lon="4.78299">
        <ele>200.481595</ele>
        <time>2024-03-15T02:19:05.324Z</time>
      </trkpt>
      <trkpt lat="48.1449" lon="4.78311">
        <ele>200.393461</ele>
        <time>2024-03-15T02:19:07.193Z</time>
      </trkpt>
      <trkpt lat="48.14502" lon="4.78362">
        <ele>200.070984</ele>
        <time>2024-03-15T02:19:13.990Z</time>
      </trkpt>
      <trkpt lat="48.14529" lon="4.7854">
        <ele>199.529642</ele>
        <time>2024-03-15T02:19:40.770Z</time>
      </trkpt>
      <trkpt lat="48.14529" lon="4.7854">
        <ele>199.529642</ele>
        <time>2024-03-15T02:19:40.770Z</time>
      </trkpt>
      <trkpt lat="48.14538" lon="4.78576">
        <ele>200.024889</ele>
        <time>2024-03-15T02:19:49.045Z</time>
      </trkpt>
      <trkpt lat="48.14555" lon="4.78619">
        <ele>200.673118</ele>
        <time>2024-03-15T02:20:00.861Z</time>
      </trkpt>
      <trkpt lat="48.14555" lon="4.78634">
        <ele>200.866412</ele>
        <time>2024-03-15T02:20:04.246Z</time>
      </trkpt>
      <trkpt lat="48.14541" lon="4.78649">
        <ele>201.208617</ele>
        <time>2024-03-15T02:20:11.380Z</time>
      </trkpt>
      <trkpt lat="48.14537" lon="4.78636">
        <ele>201.397417</ele>
        <time>2024-03-15T02:20:14.277Z</time>
      </trkpt>
      <trkpt lat="48.1439" lon="4.78154">
        <ele>210.598807</ele>
        <time>2024-03-15T02:22:17.717Z</time>
      </trkpt>
      <trkpt lat="48.1439" lon="4.78091">
        <ele>211.914613</ele>
        <time>2024-03-15T02:22:34.550Z</time>
      </trkpt>
      <trkpt lat="48.1437" lon="4.78039">
        <ele>213.235383</ele>
        <time>2024-03-15T02:22:54.810Z</time>
      </trkpt>
      <trkpt lat="48.14303" lon="4.77828">
        <ele>219.262939</ele>
        <time>2024-03-15T02:24:14.711Z</time>
      </trkpt>
      <trkpt lat="48.14146" lon="4.77219">
        <ele>226.85479</ele>
        <time>2024-03-15T02:26:57.860Z</time>
      </trkpt>
      <trkpt lat="48.14103" lon="4.77092">
        <ele>228.041705</ele>
        <time>2024-03-15T02:27:32.806Z</time>
      </trkpt>
      <trkpt lat="48.13965" lon="4.76773">
        <ele>228.055432</ele>
        <time>2024-03-15T02:28:46.841Z</time>
      </trkpt>
      <trkpt lat="48.13905" lon="4.76634">
        <ele>227.201803</ele>
        <time>2024-03-15T02:29:16.250Z</time>
      </trkpt>
      <trkpt lat="48.13894" lon="4.76616">
        <ele>227.079278</ele>
        <time>2024-03-15T02:29:20.447Z</time>
      </trkpt>
      <trkpt lat="48.13877" lon="4.76587">
        <ele>226.852315</ele>
        <time>2024-03-15T02:29:27.362Z</time>
      </trkpt>
      <trkpt lat="48.1383" lon="4.76479">
        <ele>226.110474</ele>
        <time>2024-03-15T02:29:49.915Z</time>
      </trkpt>
      <trkpt lat="48.13822" lon="4.76432">
        <ele>225.829789</ele>
        <time>2024-03-15T02:29:58.625Z</time>
      </trkpt>
      <trkpt lat="48.13826" lon="4.76393">
        <ele>225.600615</ele>
        <time>2024-03-15T02:30:05.959Z</time>
      </trkpt>
      <trkpt lat="48.13843" lon="4.76375">
        <ele>225.596562</ele>
        <time>2024-03-15T02:30:12.247Z</time>
      </trkpt>
      <trkpt lat="48.13845" lon="4.76352">
        <ele>225.720367</ele>
        <time>2024-03-15T02:30:17.229Z</time>
      </trkpt>
      <trkpt lat="48.13822" lon="4.76273">
        <ele>226.168333</ele>
        <time>2024-03-15T02:30:35.875Z</time>
      </trkpt>
      <trkpt lat="48.13811" lon="4.76217">
        <ele>226.471804</ele>
        <time>2024-03-15T02:30:49.349Z</time>
      </trkpt>
      <trkpt lat="48.13788" lon="4.75981">
        <ele>227.945067</ele>
        <time>2024-03-15T02:31:46.027Z</time>
      </trkpt>
      <trkpt lat="48.13777" lon="4.75932">
        <ele>228.294501</ele>
        <time>2024-03-15T02:31:57.139Z</time>
      </trkpt>
      <trkpt lat="48.13711" lon="4.7578">
        <ele>229.681892</ele>
        <time>2024-03-15T02:32:36.946Z</time>
      </trkpt>
      <trkpt lat="48.13676" lon="4.75665">
        <ele>230.716066</ele>
        <time>2024-03-15T02:33:06.885Z</time>
      </trkpt>
      <trkpt lat="48.13649" lon="4.7552">
        <ele>232.776433</ele>
        <time>2024-03-15T02:33:48.874Z</time>
      </trkpt>
      <trkpt lat="48.13609" lon="4.75399">
        <ele>234.792538</ele>
        <time>2024-03-15T02:34:26.004Z</time>
      </trkpt>
      <trkpt lat="48.13563" lon="4.75301">
        <ele>235.886454</ele>
        <time>2024-03-15T02:34:55.855Z</time>
      </trkpt>
      <trkpt lat="48.13489" lon="4.75178">
        <ele>237.281269</ele>
        <time>2024-03-15T02:35:33.535Z</time>
      </trkpt>
      <trkpt lat="48.13463" lon="4.75116">
        <ele>237.766471</ele>
        <time>2024-03-15T02:35:49.360Z</time>
      </trkpt>
      <trkpt lat="48.13451" lon="4.75056">
        <ele>238.183078</ele>
        <time>2024-03-15T02:36:03.047Z</time>
      </trkpt>
      <trkpt lat="48.1344" lon="4.74984">
        <ele>238.673182</ele>
        <time>2024-03-15T02:36:19.801Z</time>
      </trkpt>
      <trkpt lat="48.13439" lon="4.74895">
        <ele>239.454871</ele>
        <time>2024-03-15T02:36:41.546Z</time>
      </trkpt>
      <trkpt lat="48.1343" lon="4.74811">
        <ele>240.486898</ele>
        <time>2024-03-15T02:37:03.411Z</time>
      </trkpt>
      <trkpt lat="48.13413" lon="4.74755">
        <ele>241.219926</ele>
        <time>2024-03-15T02:37:19.254Z</time>
      </trkpt>
      <trkpt lat="48.13365" lon="4.74674">
        <ele>242.505038</ele>
        <time>2024-03-15T02:37:47.834Z</time>
      </trkpt>
      <trkpt lat="48.13339" lon="4.74651">
        <ele>243.004598</ele>
        <time>2024-03-15T02:38:01.994Z</time>
      </trkpt>
      <trkpt lat="48.13249" lon="4.74574">
        <ele>244.722294</ele>
        <time>2024-03-15T02:38:48.674Z</time>
      </trkpt>
      <trkpt lat="48.1319" lon="4.74318">
        <ele>247.699235</ele>
        <time>2024-03-15T02:40:08.723Z</time>
      </trkpt>
      <trkpt lat="48.13117" lon="4.74247">
        <ele>249.481843</ele>
        <time>2024-03-15T02:40:51.203Z</time>
      </trkpt>
      <trkpt lat="48.13066" lon="4.74199">
        <ele>250.836823</ele>
        <time>2024-03-15T02:41:21.844Z</time>
      </trkpt>
      <trkpt lat="48.12996" lon="4.74002">
        <ele>252.959988</ele>
        <time>2024-03-15T02:42:31.144Z</time>
      </trkpt>
      <trkpt lat="48.12879" lon="4.73915">
        <ele>253.662545</ele>
        <time>2024-03-15T02:43:18.789Z</time>
      </trkpt>
      <trkpt lat="48.1281" lon="4.73766">
        <ele>253.493116</ele>
        <time>2024-03-15T02:44:01.389Z</time>
      </trkpt>
      <trkpt lat="48.12658" lon="4.73707">
        <ele>255.87035</ele>
        <time>2024-03-15T02:45:10.376Z</time>
      </trkpt>
      <trkpt lat="48.12565" lon="4.73644">
        <ele>258.444284</ele>
        <time>2024-03-15T02:46:05.296Z</time>
      </trkpt>
      <trkpt lat="48.12487" lon="4.73521">
        <ele>262.021398</ele>
        <time>2024-03-15T02:47:06.846Z</time>
      </trkpt>
      <trkpt lat="48.12299" lon="4.73356">
        <ele>266.294068</ele>
        <time>2024-03-15T02:48:49.307Z</time>
      </trkpt>
      <trkpt lat="48.1208" lon="4.73298">
        <ele>268.685291</ele>
        <time>2024-03-15T02:50:19.815Z</time>
      </trkpt>
      <trkpt lat="48.12015" lon="4.73267">
        <ele>269.540894</ele>
        <time>2024-03-15T02:50:48.524Z</time>
      </trkpt>
      <trkpt lat="48.11966" lon="4.73206">
        <ele>270.637818</ele>
        <time>2024-03-15T02:51:19.346Z</time>
      </trkpt>
      <trkpt lat="48.11954" lon="4.73192">
        <ele>271.03543</ele>
        <time>2024-03-15T02:51:27.491Z</time>
      </trkpt>
      <trkpt lat="48.119" lon="4.7312">
        <ele>272.90379</ele>
        <time>2024-03-15T02:52:02.992Z</time>
      </trkpt>
      <trkpt lat="48.11862" lon="4.73085">
        <ele>274.040599</ele>
        <time>2024-03-15T02:52:24.413Z</time>
      </trkpt>
      <trkpt lat="48.11835" lon="4.73066">
        <ele>274.820429</ele>
        <time>2024-03-15T02:52:40.406Z</time>
      </trkpt>
      <trkpt lat="48.11813" lon="4.73055">
        <ele>275.471444</ele>
        <time>2024-03-15T02:52:54.230Z</time>
      </trkpt>
      <trkpt lat="48.11782" lon="4.73039">
        <ele>276.378269</ele>
        <time>2024-03-15T02:53:07.198Z</time>
      </trkpt>
      <trkpt lat="48.11765" lon="4.73029">
        <ele>276.867017</ele>
        <time>2024-03-15T02:53:15.224Z</time>
      </trkpt>
      <trkpt lat="48.11703" lon="4.73002">
        <ele>278.643562</ele>
        <time>2024-03-15T02:53:48.087Z</time>
      </trkpt>
      <trkpt lat="48.11532" lon="4.72905">
        <ele>283.136713</ele>
        <time>2024-03-15T02:55:17.722Z</time>
      </trkpt>
      <trkpt lat="48.1146" lon="4.7291">
        <ele>284.763203</ele>
        <time>2024-03-15T02:55:52.517Z</time>
      </trkpt>
      <trkpt lat="48.11365" lon="4.7287">
        <ele>286.922524</ele>
        <time>2024-03-15T02:56:39.881Z</time>
      </trkpt>
      <trkpt lat="48.11266" lon="4.72828">
        <ele>289.011954</ele>
        <time>2024-03-15T02:57:28.418Z</time>
      </trkpt>
      <trkpt lat="48.11104" lon="4.7282">
        <ele>292.191136</ele>
        <time>2024-03-15T02:58:44.190Z</time>
      </trkpt>
      <trkpt lat="48.10981" lon="4.72735">
        <ele>294.937192</ele>
        <time>2024-03-15T02:59:47.629Z</time>
      </trkpt>
      <trkpt lat="48.10714" lon="4.7255">
        <ele>303.015818</ele>
        <time>2024-03-15T03:02:14.663Z</time>
      </trkpt>
      <trkpt lat="48.10655" lon="4.72508">
        <ele>305.053605</ele>
        <time>2024-03-15T03:02:50.912Z</time>
      </trkpt>
      <trkpt lat="48.1059" lon="4.72347">
        <ele>310.836749</ele>
        <time>2024-03-15T03:04:06.753Z</time>
      </trkpt>
      <trkpt lat="48.10506" lon="4.7217">
        <ele>317.776862</ele>
        <time>2024-03-15T03:05:37.043Z</time>
      </trkpt>
      <trkpt lat="48.10476" lon="4.71998">
        <ele>323.446259</ele>
        <time>2024-03-15T03:06:49.503Z</time>
      </trkpt>
      <trkpt lat="48.10232" lon="4.71743">
        <ele>334.604867</ele>
        <time>2024-03-15T03:09:44.506Z</time>
      </trkpt>
      <trkpt lat="48.10029" lon="4.70647">
        <ele>327.834114</ele>
        <time>2024-03-15T03:14:05.099Z</time>
      </trkpt>
      <trkpt lat="48.10013" lon="4.70497">
        <ele>325.813481</ele>
        <time>2024-03-15T03:14:36.175Z</time>
      </trkpt>
      <trkpt lat="48.10003" lon="4.70463">
        <ele>325.306168</ele>
        <time>2024-03-15T03:14:44.283Z</time>
      </trkpt>
      <trkpt lat="48.0996" lon="4.70404">
        <ele>324.454238</ele>
        <time>2024-03-15T03:15:03.542Z</time>
      </trkpt>
      <trkpt lat="48.0971" lon="4.70396">
        <ele>328.201453</ele>
        <time>2024-03-15T03:16:58.602Z</time>
      </trkpt>
      <trkpt lat="48.09628" lon="4.70456">
        <ele>330.085886</ele>
        <time>2024-03-15T03:17:43.994Z</time>
      </trkpt>
      <trkpt lat="48.09596" lon="4.70496">
        <ele>330.668731</ele>
        <time>2024-03-15T03:18:03.575Z</time>
      </trkpt>
      <trkpt lat="48.09512" lon="4.70688">
        <ele>332.489443</ele>
        <time>2024-03-15T03:19:07.413Z</time>
      </trkpt>
      <trkpt lat="48.09355" lon="4.70713">
        <ele>334.130048</ele>
        <time>2024-03-15T03:20:12.426Z</time>
      </trkpt>
      <trkpt lat="48.09072" lon="4.70616">
        <ele>339.351699</ele>
        <time>2024-03-15T03:22:28.911Z</time>
      </trkpt>
      <trkpt lat="48.08983" lon="4.70629">
        <ele>340.882551</ele>
        <time>2024-03-15T03:23:09.280Z</time>
      </trkpt>
      <trkpt lat="48.08861" lon="4.70511">
        <ele>342.350041</ele>
        <time>2024-03-15T03:24:10.752Z</time>
      </trkpt>
      <trkpt lat="48.08744" lon="4.70744">
        <ele>343.292857</ele>
        <time>2024-03-15T03:24:58.066Z</time>
      </trkpt>
      <trkpt lat="48.08685" lon="4.70698">
        <ele>343.544253</ele>
        <time>2024-03-15T03:25:22.652Z</time>
      </trkpt>
      <trkpt lat="48.08535" lon="4.70767">
        <ele>344.42967</ele>
        <time>2024-03-15T03:26:23.929Z</time>
      </trkpt>
      <trkpt lat="48.08333" lon="4.7076">
        <ele>347.521513</ele>
        <time>2024-03-15T03:27:55.839Z</time>
      </trkpt>
      <trkpt lat="48.08268" lon="4.70661">
        <ele>349.277813</ele>
        <time>2024-03-15T03:28:39.459Z</time>
      </trkpt>
      <trkpt lat="48.08268" lon="4.70661">
        <ele>349.277813</ele>
        <time>2024-03-15T03:28:39.460Z</time>
      </trkpt>
      <trkpt lat="48.08037" lon="4.71174">
        <ele>357.248776</ele>
        <time>2024-03-15T03:31:55.607Z</time>
      </trkpt>
      <trkpt lat="48.07727" lon="4.70894">
        <ele>358.010132</ele>
        <time>2024-03-15T03:34:12.633Z</time>
      </trkpt>
      <trkpt lat="48.07701" lon="4.70885">
        <ele>357.725895</ele>
        <time>2024-03-15T03:34:21.875Z</time>
      </trkpt>
      <trkpt lat="48.06883" lon="4.70085">
        <ele>347.235125</ele>
        <time>2024-03-15T03:39:56.091Z</time>
      </trkpt>
      <trkpt lat="48.06738" lon="4.6994">
        <ele>345.49425</ele>
        <time>2024-03-15T03:40:56.898Z</time>
      </trkpt>
      <trkpt lat="48.06708" lon="4.6991">
        <ele>345.136963</ele>
        <time>2024-03-15T03:41:09.296Z</time>
      </trkpt>
      <trkpt lat="48.06698" lon="4.6991">
        <ele>345.038192</ele>
        <time>2024-03-15T03:41:12.718Z</time>
      </trkpt>
      <trkpt lat="48.06668" lon="4.69908">
        <ele>344.63565</ele>
        <time>2024-03-15T03:41:23.045Z</time>
      </trkpt>
      <trkpt lat="48.06358" lon="4.69692">
        <ele>339.446188</ele>
        <time>2024-03-15T03:43:15.629Z</time>
      </trkpt>
      <trkpt lat="48.06345" lon="4.69689">
        <ele>339.564268</ele>
        <time>2024-03-15T03:43:20.975Z</time>
      </trkpt>
      <trkpt lat="48.0633" lon="4.69685">
        <ele>339.788903</ele>
        <time>2024-03-15T03:43:26.725Z</time>
      </trkpt>
      <trkpt lat="48.06312" lon="4.69689">
        <ele>340.071126</ele>
        <time>2024-03-15T03:43:34.497Z</time>
      </trkpt>
      <trkpt lat="48.06104" lon="4.69896">
        <ele>342.933318</ele>
        <time>2024-03-15T03:45:35.261Z</time>
      </trkpt>
      <trkpt lat="48.06079" lon="4.69955">
        <ele>343.254458</ele>
        <time>2024-03-15T03:45:52.170Z</time>
      </trkpt>
      <trkpt lat="48.0606" lon="4.6997">
        <ele>343.317464</ele>
        <time>2024-03-15T03:45:59.372Z</time>
      </trkpt>
      <trkpt lat="48.05823" lon="4.70199">
        <ele>330.405674</ele>
        <time>2024-03-15T03:47:21.082Z</time>
      </trkpt>
      <trkpt lat="48.05786" lon="4.70252">
        <ele>327.714589</ele>
        <time>2024-03-15T03:47:35.703Z</time>
      </trkpt>
      <trkpt lat="48.0577" lon="4.70301">
        <ele>325.838639</ele>
        <time>2024-03-15T03:47:45.822Z</time>
      </trkpt>
      <trkpt lat="48.05628" lon="4.70168">
        <ele>316.915192</ele>
        <time>2024-03-15T03:48:33.646Z</time>
      </trkpt>
      <trkpt lat="48.05552" lon="4.70061">
        <ele>312.316652</ele>
        <time>2024-03-15T03:49:03.924Z</time>
      </trkpt>
      <trkpt lat="48.05532" lon="4.69917">
        <ele>308.153048</ele>
        <time>2024-03-15T03:49:33.373Z</time>
      </trkpt>
      <trkpt lat="48.05518" lon="4.6976">
        <ele>304.29629</ele>
        <time>2024-03-15T03:50:05.410Z</time>
      </trkpt>
      <trkpt lat="48.05266" lon="4.69127">
        <ele>286.225232</ele>
        <time>2024-03-15T03:52:34.199Z</time>
      </trkpt>
      <trkpt lat="48.05202" lon="4.69063">
        <ele>283.361489</ele>
        <time>2024-03-15T03:52:56.938Z</time>
      </trkpt>
      <trkpt lat="48.05045" lon="4.68925">
        <ele>277.327674</ele>
        <time>2024-03-15T03:53:52.605Z</time>
      </trkpt>
      <trkpt lat="48.04994" lon="4.68878">
        <ele>275.887378</ele>
        <time>2024-03-15T03:54:11.467Z</time>
      </trkpt>
      <trkpt lat="48.04973" lon="4.68812">
        <ele>274.893525</ele>
        <time>2024-03-15T03:54:27.405Z</time>
      </trkpt>
      <trkpt lat="48.04946" lon="4.68597">
        <ele>272.191033</ele>
        <time>2024-03-15T03:55:16.067Z</time>
      </trkpt>
      <trkpt lat="48.04927" lon="4.68552">
        <ele>271.629928</ele>
        <time>2024-03-15T03:55:27.810Z</time>
      </trkpt>
      <trkpt lat="48.04865" lon="4.68415">
        <ele>269.832811</ele>
        <time>2024-03-15T03:56:04.671Z</time>
      </trkpt>
      <trkpt lat="48.04865" lon="4.68415">
        <ele>269.832811</ele>
        <time>2024-03-15T03:56:04.687Z</time>
      </trkpt>
      <trkpt lat="48.04761" lon="4.68318">
        <ele>267.610879</ele>
        <time>2024-03-15T03:56:45.549Z</time>
      </trkpt>
      <trkpt lat="48.04682" lon="4.68218">
        <ele>265.16859</ele>
        <time>2024-03-15T03:57:18.427Z</time>
      </trkpt>
      <trkpt lat="48.04656" lon="4.68171">
        <ele>264.083848</ele>
        <time>2024-03-15T03:57:31.295Z</time>
      </trkpt>
      <trkpt lat="48.04643" lon="4.68135">
        <ele>263.3521</ele>
        <time>2024-03-15T03:57:39.853Z</time>
      </trkpt>
      <trkpt lat="48.04641" lon="4.68128">
        <ele>263.222477</ele>
        <time>2024-03-15T03:57:41.371Z</time>
      </trkpt>
      <trkpt lat="48.04633" lon="4.68059">
        <ele>261.971615</ele>
        <time>2024-03-15T03:57:56.008Z</time>
      </trkpt>
      <trkpt lat="48.04625" lon="4.68025">
        <ele>261.353067</ele>
        <time>2024-03-15T03:58:03.449Z</time>
      </trkpt>
      <trkpt lat="48.04638" lon="4.68013">
        <ele>260.962088</ele>
        <time>2024-03-15T03:58:08.172Z</time>
      </trkpt>
      <trkpt lat="48.04635" lon="4.6798">
        <ele>260.384115</ele>
        <time>2024-03-15T03:58:15.170Z</time>
      </trkpt>
      <trkpt lat="48.04615" lon="4.67919">
        <ele>259.204635</ele>
        <time>2024-03-15T03:58:29.567Z</time>
      </trkpt>
      <trkpt lat="48.04603" lon="4.67897">
        <ele>258.730814</ele>
        <time>2024-03-15T03:58:35.421Z</time>
      </trkpt>
      <trkpt lat="48.04514" lon="4.67783">
        <ele>256.595758</ele>
        <time>2024-03-15T03:59:13.585Z</time>
      </trkpt>
      <trkpt lat="48.04415" lon="4.67637">
        <ele>254.993569</ele>
        <time>2024-03-15T04:00:01.845Z</time>
      </trkpt>
      <trkpt lat="48.04374" lon="4.67562">
        <ele>254.672937</ele>
        <time>2024-03-15T04:00:25.155Z</time>
      </trkpt>
      <trkpt lat="48.04356" lon="4.67519">
        <ele>254.503626</ele>
        <time>2024-03-15T04:00:37.438Z</time>
      </trkpt>
      <trkpt lat="48.04324" lon="4.67417">
        <ele>253.989794</ele>
        <time>2024-03-15T04:01:04.496Z</time>
      </trkpt>
      <trkpt lat="48.04315" lon="4.67355">
        <ele>253.539625</ele>
        <time>2024-03-15T04:01:19.382Z</time>
      </trkpt>
      <trkpt lat="48.0429" lon="4.67249">
        <ele>252.735442</ele>
        <time>2024-03-15T04:01:45.189Z</time>
      </trkpt>
      <trkpt lat="48.04282" lon="4.67199">
        <ele>252.372109</ele>
        <time>2024-03-15T04:01:56.618Z</time>
      </trkpt>
      <trkpt lat="48.04274" lon="4.67104">
        <ele>251.656012</ele>
        <time>2024-03-15T04:02:17.568Z</time>
      </trkpt>
      <trkpt lat="48.04271" lon="4.67085">
        <ele>251.506483</ele>
        <time>2024-03-15T04:02:20.201Z</time>
      </trkpt>
      <trkpt lat="48.04261" lon="4.67063">
        <ele>251.31113</ele>
        <time>2024-03-15T04:02:23.571Z</time>
      </trkpt>
      <trkpt lat="48.04255" lon="4.6703">
        <ele>251.051162</ele>
        <time>2024-03-15T04:02:28.185Z</time>
      </trkpt>
      <trkpt lat="48.04258" lon="4.66985">
        <ele>250.709353</ele>
        <time>2024-03-15T04:02:34.516Z</time>
      </trkpt>
      <trkpt lat="48.04252" lon="4.66879">
        <ele>250.997124</ele>
        <time>2024-03-15T04:02:50.753Z</time>
      </trkpt>
      <trkpt lat="48.04229" lon="4.66872">
        <ele>251.436907</ele>
        <time>2024-03-15T04:02:56.928Z</time>
      </trkpt>
      <trkpt lat="48.0422" lon="4.66859">
        <ele>251.667811</ele>
        <time>2024-03-15T04:03:00.371Z</time>
      </trkpt>
      <trkpt lat="48.04212" lon="4.66854">
        <ele>251.837693</ele>
        <time>2024-03-15T04:03:03.003Z</time>
      </trkpt>
      <trkpt lat="48.0419" lon="4.6684">
        <ele>252.300356</ele>
        <time>2024-03-15T04:03:10.533Z</time>
      </trkpt>
      <trkpt lat="48.0415" lon="4.6683">
        <ele>253.084368</ele>
        <time>2024-03-15T04:03:25.456Z</time>
      </trkpt>
      <trkpt lat="48.04115" lon="4.66833">
        <ele>253.755304</ele>
        <time>2024-03-15T04:03:39.955Z</time>
      </trkpt>
      <trkpt lat="48.04111" lon="4.66837">
        <ele>254.049219</ele>
        <time>2024-03-15T04:03:42.287Z</time>
      </trkpt>
      <trkpt lat="48.04088" lon="4.6677">
        <ele>257.190228</ele>
        <time>2024-03-15T04:04:06.866Z</time>
      </trkpt>
      <trkpt lat="48.04084" lon="4.66754">
        <ele>257.887267</ele>
        <time>2024-03-15T04:04:12.609Z</time>
      </trkpt>
      <trkpt lat="48.04058" lon="4.6677">
        <ele>259.669295</ele>
        <time>2024-03-15T04:04:28.704Z</time>
      </trkpt>
      <trkpt lat="48.04034" lon="4.66779">
        <ele>261.170594</ele>
        <time>2024-03-15T04:04:42.681Z</time>
      </trkpt>
      <trkpt lat="48.04017" lon="4.66783">
        <ele>262.28777</ele>
        <time>2024-03-15T04:04:52.901Z</time>
      </trkpt>
      <trkpt lat="48.03971" lon="4.66786">
        <ele>265.156871</ele>
        <time>2024-03-15T04:05:20.398Z</time>
      </trkpt>
      <trkpt lat="48.03899" lon="4.66786">
        <ele>270.827245</ele>
        <time>2024-03-15T04:06:06.337Z</time>
      </trkpt>
      <trkpt lat="48.03876" lon="4.66786">
        <ele>272.568972</ele>
        <time>2024-03-15T04:06:20.286Z</time>
      </trkpt>
      <trkpt lat="48.03837" lon="4.66795">
        <ele>275.658807</ele>
        <time>2024-03-15T04:06:45.364Z</time>
      </trkpt>
      <trkpt lat="48.03801" lon="4.66816">
        <ele>278.706309</ele>
        <time>2024-03-15T04:07:09.740Z</time>
      </trkpt>
      <trkpt lat="48.03797" lon="4.6681">
        <ele>279.177362</ele>
        <time>2024-03-15T04:07:14.538Z</time>
      </trkpt>
      <trkpt lat="48.03739" lon="4.66791">
        <ele>283.633546</ele>
        <time>2024-03-15T04:07:58.673Z</time>
      </trkpt>
      <trkpt lat="48.03716" lon="4.66791">
        <ele>285.312747</ele>
        <time>2024-03-15T04:08:15.485Z</time>
      </trkpt>
      <trkpt lat="48.03699" lon="4.66796">
        <ele>286.631754</ele>
        <time>2024-03-15T04:08:28.359Z</time>
      </trkpt>
      <trkpt lat="48.03648" lon="4.66816">
        <ele>290.579478</ele>
        <time>2024-03-15T04:09:08.133Z</time>
      </trkpt>
      <trkpt lat="48.0363" lon="4.66815">
        <ele>291.929761</ele>
        <time>2024-03-15T04:09:21.283Z</time>
      </trkpt>
      <trkpt lat="48.03611" lon="4.66807">
        <ele>293.193175</ele>
        <time>2024-03-15T04:09:35.846Z</time>
      </trkpt>
      <trkpt lat="48.03543" lon="4.66754">
        <ele>297.737866</ele>
        <time>2024-03-15T04:10:30.815Z</time>
      </trkpt>
      <trkpt lat="48.03454" lon="4.66668">
        <ele>303.543864</ele>
        <time>2024-03-15T04:11:37.870Z</time>
      </trkpt>
      <trkpt lat="48.03324" lon="4.66517">
        <ele>308.330709</ele>
        <time>2024-03-15T04:13:00.213Z</time>
      </trkpt>
      <trkpt lat="48.03298" lon="4.66492">
        <ele>309.083139</ele>
        <time>2024-03-15T04:13:13.976Z</time>
      </trkpt>
      <trkpt lat="48.03238" lon="4.66438">
        <ele>310.816147</ele>
        <time>2024-03-15T04:13:46.995Z</time>
      </trkpt>
      <trkpt lat="48.03116" lon="4.66353">
        <ele>314.295185</ele>
        <time>2024-03-15T04:14:56.738Z</time>
      </trkpt>
      <trkpt lat="48.03093" lon="4.66306">
        <ele>315.354712</ele>
        <time>2024-03-15T04:15:17.663Z</time>
      </trkpt>
      <trkpt lat="48.0308" lon="4.66262">
        <ele>316.236727</ele>
        <time>2024-03-15T04:15:34.662Z</time>
      </trkpt>
      <trkpt lat="48.03067" lon="4.66188">
        <ele>317.647493</ele>
        <time>2024-03-15T04:16:00.107Z</time>
      </trkpt>
      <trkpt lat="48.0305" lon="4.66062">
        <ele>318.476975</ele>
        <time>2024-03-15T04:16:36.740Z</time>
      </trkpt>
      <trkpt lat="48.03052" lon="4.65972">
        <ele>319.029206</ele>
        <time>2024-03-15T04:16:58.898Z</time>
      </trkpt>
      <trkpt lat="48.0303" lon="4.65826">
        <ele>320.758381</ele>
        <time>2024-03-15T04:17:40.693Z</time>
      </trkpt>
      <trkpt lat="48.03024" lon="4.65803">
        <ele>321.127896</ele>
        <time>2024-03-15T04:17:48.164Z</time>
      </trkpt>
      <trkpt lat="48.02988" lon="4.65821">
        <ele>321.961049</ele>
        <time>2024-03-15T04:18:01.166Z</time>
      </trkpt>
      <trkpt lat="48.02925" lon="4.65863">
        <ele>323.636995</ele>
        <time>2024-03-15T04:18:28.128Z</time>
      </trkpt>
      <trkpt lat="48.02876" lon="4.65883">
        <ele>325.723854</ele>
        <time>2024-03-15T04:18:51.373Z</time>
      </trkpt>
      <trkpt lat="48.02654" lon="4.65899">
        <ele>334.101143</ele>
        <time>2024-03-15T04:20:26.614Z</time>
      </trkpt>
      <trkpt lat="48.02634" lon="4.65894">
        <ele>334.801489</ele>
        <time>2024-03-15T04:20:34.614Z</time>
      </trkpt>
      <trkpt lat="48.02612" lon="4.65883">
        <ele>335.57294</ele>
        <time>2024-03-15T04:20:43.249Z</time>
      </trkpt>
      <trkpt lat="48.02514" lon="4.65733">
        <ele>337.48096</ele>
        <time>2024-03-15T04:21:25.966Z</time>
      </trkpt>
      <trkpt lat="48.02407" lon="4.65606">
        <ele>337.063131</ele>
        <time>2024-03-15T04:21:53.767Z</time>
      </trkpt>
      <trkpt lat="48.0236" lon="4.65557">
        <ele>336.172735</ele>
        <time>2024-03-15T04:22:04.411Z</time>
      </trkpt>
      <trkpt lat="48.02385" lon="4.65426">
        <ele>334.711614</ele>
        <time>2024-03-15T04:22:34.219Z</time>
      </trkpt>
      <trkpt lat="48.02475" lon="4.65029">
        <ele>329.345914</ele>
        <time>2024-03-15T04:24:07.125Z</time>
      </trkpt>
      <trkpt lat="48.02503" lon="4.64973">
        <ele>328.349008</ele>
        <time>2024-03-15T04:24:21.625Z</time>
      </trkpt>
      <trkpt lat="48.02534" lon="4.64866">
        <ele>325.289923</ele>
        <time>2024-03-15T04:24:45.086Z</time>
      </trkpt>
      <trkpt lat="48.02567" lon="4.64778">
        <ele>322.61851</ele>
        <time>2024-03-15T04:25:04.916Z</time>
      </trkpt>
      <trkpt lat="48.02573" lon="4.64741">
        <ele>321.626045</ele>
        <time>2024-03-15T04:25:12.244Z</time>
      </trkpt>
      <trkpt lat="48.02577" lon="4.64624">
        <ele>318.911368</ele>
        <time>2024-03-15T04:25:35.411Z</time>
      </trkpt>
      <trkpt lat="48.02567" lon="4.64267">
        <ele>311.709262</ele>
        <time>2024-03-15T04:26:50.133Z</time>
      </trkpt>
      <trkpt lat="48.02546" lon="4.63875">
        <ele>305.49523</ele>
        <time>2024-03-15T04:28:14.361Z</time>
      </trkpt>
      <trkpt lat="48.02531" lon="4.63789">
        <ele>304.262306</ele>
        <time>2024-03-15T04:28:33.583Z</time>
      </trkpt>
      <trkpt lat="48.02498" lon="4.63739">
        <ele>303.303523</ele>
        <time>2024-03-15T04:28:48.534Z</time>
      </trkpt>
      <trkpt lat="48.02462" lon="4.63555">
        <ele>301.917062</ele>
        <time>2024-03-15T04:29:31.600Z</time>
      </trkpt>
      <trkpt lat="48.02446" lon="4.63509">
        <ele>301.717242</ele>
        <time>2024-03-15T04:29:43.940Z</time>
      </trkpt>
      <trkpt lat="48.02438" lon="4.63484">
        <ele>301.608766</ele>
        <time>2024-03-15T04:29:50.892Z</time>
      </trkpt>
      <trkpt lat="48.02418" lon="4.63325">
        <ele>302.095584</ele>
        <time>2024-03-15T04:30:35.656Z</time>
      </trkpt>
      <trkpt lat="48.02435" lon="4.63183">
        <ele>303.150564</ele>
        <time>2024-03-15T04:31:18.544Z</time>
      </trkpt>
      <trkpt lat="48.02441" lon="4.63014">
        <ele>303.824795</ele>
        <time>2024-03-15T04:32:05.241Z</time>
      </trkpt>
      <trkpt lat="48.02449" lon="4.62902">
        <ele>304.203746</ele>
        <time>2024-03-15T04:32:33.354Z</time>
      </trkpt>
      <trkpt lat="48.02452" lon="4.62763">
        <ele>304.368366</ele>
        <time>2024-03-15T04:33:07.823Z</time>
      </trkpt>
      <trkpt lat="48.02402" lon="4.62643">
        <ele>304.504814</ele>
        <time>2024-03-15T04:33:44.122Z</time>
      </trkpt>
      <trkpt lat="48.02331" lon="4.62398">
        <ele>304.804557</ele>
        <time>2024-03-15T04:34:52.988Z</time>
      </trkpt>
      <trkpt lat="48.02171" lon="4.61947">
        <ele>301.422032</ele>
        <time>2024-03-15T04:36:51.442Z</time>
      </trkpt>
      <trkpt lat="48.02049" lon="4.61399">
        <ele>291.512572</ele>
        <time>2024-03-15T04:38:53.850Z</time>
      </trkpt>
      <trkpt lat="48.02011" lon="4.61205">
        <ele>285.048472</ele>
        <time>2024-03-15T04:39:33.023Z</time>
      </trkpt>
      <trkpt lat="48.01964" lon="4.61111">
        <ele>280.745805</ele>
        <time>2024-03-15T04:39:55.127Z</time>
      </trkpt>
      <trkpt lat="48.01911" lon="4.61031">
        <ele>276.18617</ele>
        <time>2024-03-15T04:40:15.980Z</time>
      </trkpt>
      <trkpt lat="48.01878" lon="4.60857">
        <ele>269.137708</ele>
        <time>2024-03-15T04:40:49.721Z</time>
      </trkpt>
      <trkpt lat="48.01851" lon="4.60749">
        <ele>264.829785</ele>
        <time>2024-03-15T04:41:11.646Z</time>
      </trkpt>
      <trkpt lat="48.01789" lon="4.60611">
        <ele>259.267301</ele>
        <time>2024-03-15T04:41:43.800Z</time>
      </trkpt>
      <trkpt lat="48.01773" lon="4.6053">
        <ele>256.672527</ele>
        <time>2024-03-15T04:42:00.358Z</time>
      </trkpt>
      <trkpt lat="48.01635" lon="4.60241">
        <ele>246.133376</ele>
        <time>2024-03-15T04:43:10.371Z</time>
      </trkpt>
      <trkpt lat="48.01567" lon="4.5995">
        <ele>235.621342</ele>
        <time>2024-03-15T04:44:09.748Z</time>
      </trkpt>
      <trkpt lat="48.01469" lon="4.5941">
        <ele>213.545195</ele>
        <time>2024-03-15T04:45:54.717Z</time>
      </trkpt>
      <trkpt lat="48.01387" lon="4.59262">
        <ele>205.320263</ele>
        <time>2024-03-15T04:46:15.103Z</time>
      </trkpt>
      <trkpt lat="48.01342" lon="4.59167">
        <ele>201.612838</ele>
        <time>2024-03-15T04:46:27.751Z</time>
      </trkpt>
      <trkpt lat="48.01321" lon="4.59136">
        <ele>200.2702</ele>
        <time>2024-03-15T04:46:32.740Z</time>
      </trkpt>
      <trkpt lat="48.01297" lon="4.59072">
        <ele>198.070417</ele>
        <time>2024-03-15T04:46:41.166Z</time>
      </trkpt>
      <trkpt lat="48.01237" lon="4.58986">
        <ele>196.208107</ele>
        <time>2024-03-15T04:46:55.996Z</time>
      </trkpt>
      <trkpt lat="48.01177" lon="4.58938">
        <ele>195.703248</ele>
        <time>2024-03-15T04:47:10.143Z</time>
      </trkpt>
      <trkpt lat="48.01152" lon="4.5892">
        <ele>195.494208</ele>
        <time>2024-03-15T04:47:16.807Z</time>
      </trkpt>
      <trkpt lat="48.01141" lon="4.58912">
        <ele>195.401227</ele>
        <time>2024-03-15T04:47:19.859Z</time>
      </trkpt>
      <trkpt lat="48.01116" lon="4.58903">
        <ele>195.280687</ele>
        <time>2024-03-15T04:47:26.191Z</time>
      </trkpt>
      <trkpt lat="48.01029" lon="4.58861">
        <ele>196.428433</ele>
        <time>2024-03-15T04:47:51.423Z</time>
      </trkpt>
      <trkpt lat="48.00968" lon="4.58829">
        <ele>197.23379</ele>
        <time>2024-03-15T04:48:09.911Z</time>
      </trkpt>
      <trkpt lat="48.00957" lon="4.58823">
        <ele>197.375702</ele>
        <time>2024-03-15T04:48:13.606Z</time>
      </trkpt>
      <trkpt lat="48.00936" lon="4.58828">
        <ele>197.87051</ele>
        <time>2024-03-15T04:48:20.581Z</time>
      </trkpt>
      <trkpt lat="48.00929" lon="4.58827">
        <ele>198.06991</ele>
        <time>2024-03-15T04:48:22.882Z</time>
      </trkpt>
      <trkpt lat="48.00924" lon="4.58823">
        <ele>198.238516</ele>
        <time>2024-03-15T04:48:24.983Z</time>
      </trkpt>
      <trkpt lat="48.0086" lon="4.58901">
        <ele>200.654415</ele>
        <time>2024-03-15T04:48:54.340Z</time>
      </trkpt>
      <trkpt lat="48.00814" lon="4.58839">
        <ele>202.487844</ele>
        <time>2024-03-15T04:49:20.042Z</time>
      </trkpt>
      <trkpt lat="48.00792" lon="4.58826">
        <ele>203.665813</ele>
        <time>2024-03-15T04:49:29.882Z</time>
      </trkpt>
      <trkpt lat="48.00762" lon="4.588">
        <ele>205.868724</ele>
        <time>2024-03-15T04:49:45.984Z</time>
      </trkpt>
      <trkpt lat="48.00714" lon="4.58715">
        <ele>210.570756</ele>
        <time>2024-03-15T04:50:25.510Z</time>
      </trkpt>
      <trkpt lat="48.00718" lon="4.58707">
        <ele>210.968617</ele>
        <time>2024-03-15T04:50:29.553Z</time>
      </trkpt>
      <trkpt lat="48.00645" lon="4.5862">
        <ele>219.272875</ele>
        <time>2024-03-15T04:51:30.675Z</time>
      </trkpt>
      <trkpt lat="48.00622" lon="4.58579">
        <ele>223.533707</ele>
        <time>2024-03-15T04:51:59.153Z</time>
      </trkpt>
      <trkpt lat="48.00573" lon="4.58513">
        <ele>231.544804</ele>
        <time>2024-03-15T04:52:58.431Z</time>
      </trkpt>
      <trkpt lat="48.00553" lon="4.58445">
        <ele>237.856299</ele>
        <time>2024-03-15T04:53:53.150Z</time>
      </trkpt>
      <trkpt lat="48.00522" lon="4.58285">
        <ele>254.161076</ele>
        <time>2024-03-15T04:56:01.174Z</time>
      </trkpt>
      <trkpt lat="48.00522" lon="4.58285">
        <ele>254.161076</ele>
        <time>2024-03-15T04:56:01.176Z</time>
      </trkpt>
      <trkpt lat="48.0046" lon="4.58006">
        <ele>279.667198</ele>
        <time>2024-03-15T04:59:27.431Z</time>
      </trkpt>
      <trkpt lat="48.00285" lon="4.57718">
        <ele>302.165348</ele>
        <time>2024-03-15T05:02:56.221Z</time>
      </trkpt>
      <trkpt lat="48.00219" lon="4.57579">
        <ele>308.300106</ele>
        <time>2024-03-15T05:04:05.889Z</time>
      </trkpt>
      <trkpt lat="48.00103" lon="4.57268">
        <ele>314.82958</ele>
        <time>2024-03-15T05:05:28.825Z</time>
      </trkpt>
      <trkpt lat="48.00009" lon="4.56963">
        <ele>319.066866</ele>
        <time>2024-03-15T05:06:47.558Z</time>
      </trkpt>
      <trkpt lat="47.99877" lon="4.56707">
        <ele>319.724955</ele>
        <time>2024-03-15T05:07:36.877Z</time>
      </trkpt>
      <trkpt lat="47.99786" lon="4.56443">
        <ele>319.528631</ele>
        <time>2024-03-15T05:08:19.986Z</time>
      </trkpt>
      <trkpt lat="47.99655" lon="4.56022">
        <ele>322.850818</ele>
        <time>2024-03-15T05:09:53.432Z</time>
      </trkpt>
      <trkpt lat="47.99629" lon="4.55947">
        <ele>323.473626</ele>
        <time>2024-03-15T05:10:10.941Z</time>
      </trkpt>
      <trkpt lat="47.99281" lon="4.55392">
        <ele>324.709141</ele>
        <time>2024-03-15T05:12:08.908Z</time>
      </trkpt>
      <trkpt lat="47.99213" lon="4.55322">
        <ele>325.441037</ele>
        <time>2024-03-15T05:12:34.218Z</time>
      </trkpt>
      <trkpt lat="47.99145" lon="4.55166">
        <ele>327.97109</ele>
        <time>2024-03-15T05:13:17.502Z</time>
      </trkpt>
      <trkpt lat="47.98947" lon="4.54358">
        <ele>338.125311</ele>
        <time>2024-03-15T05:16:22.177Z</time>
      </trkpt>
      <trkpt lat="47.98918" lon="4.542">
        <ele>338.943649</ele>
        <time>2024-03-15T05:16:51.409Z</time>
      </trkpt>
      <trkpt lat="47.98894" lon="4.53998">
        <ele>339.699785</ele>
        <time>2024-03-15T05:17:26.514Z</time>
      </trkpt>
      <trkpt lat="47.9875" lon="4.53392">
        <ele>340.285136</ele>
        <time>2024-03-15T05:19:13.155Z</time>
      </trkpt>
      <trkpt lat="47.98682" lon="4.53115">
        <ele>336.582901</ele>
        <time>2024-03-15T05:19:51.029Z</time>
      </trkpt>
      <trkpt lat="47.98657" lon="4.53034">
        <ele>334.591048</ele>
        <time>2024-03-15T05:20:01.568Z</time>
      </trkpt>
      <trkpt lat="47.98647" lon="4.53012">
        <ele>333.864556</ele>
        <time>2024-03-15T05:20:04.568Z</time>
      </trkpt>
      <trkpt lat="47.98597" lon="4.52931">
        <ele>330.736651</ele>
        <time>2024-03-15T05:20:17.275Z</time>
      </trkpt>
      <trkpt lat="47.98114" lon="4.52307">
        <ele>297.541039</ele>
        <time>2024-03-15T05:22:03.079Z</time>
      </trkpt>
      <trkpt lat="47.98094" lon="4.52276">
        <ele>295.637387</ele>
        <time>2024-03-15T05:22:07.570Z</time>
      </trkpt>
      <trkpt lat="47.98071" lon="4.52227">
        <ele>292.891453</ele>
        <time>2024-03-15T05:22:14.011Z</time>
      </trkpt>
      <trkpt lat="47.97978" lon="4.51999">
        <ele>279.486971</ele>
        <time>2024-03-15T05:22:41.479Z</time>
      </trkpt>
      <trkpt lat="47.97971" lon="4.51982">
        <ele>278.398583</ele>
        <time>2024-03-15T05:22:43.579Z</time>
      </trkpt>
      <trkpt lat="47.97952" lon="4.51955">
        <ele>276.264554</ele>
        <time>2024-03-15T05:22:47.640Z</time>
      </trkpt>
      <trkpt lat="47.97932" lon="4.51911">
        <ele>273.41927</ele>
        <time>2024-03-15T05:22:53.078Z</time>
      </trkpt>
      <trkpt lat="47.97849" lon="4.51677">
        <ele>259.45219</ele>
        <time>2024-03-15T05:23:20.371Z</time>
      </trkpt>
      <trkpt lat="47.97821" lon="4.51568">
        <ele>253.632042</ele>
        <time>2024-03-15T05:23:32.691Z</time>
      </trkpt>
      <trkpt lat="47.97794" lon="4.51441">
        <ele>247.033222</ele>
        <time>2024-03-15T05:23:46.621Z</time>
      </trkpt>
      <trkpt lat="47.97775" lon="4.51284">
        <ele>238.802991</ele>
        <time>2024-03-15T05:24:03.215Z</time>
      </trkpt>
      <trkpt lat="47.97762" lon="4.51145">
        <ele>231.540233</ele>
        <time>2024-03-15T05:24:17.666Z</time>
      </trkpt>
      <trkpt lat="47.97753" lon="4.51083">
        <ele>228.169728</ele>
        <time>2024-03-15T05:24:24.231Z</time>
      </trkpt>
      <trkpt lat="47.97744" lon="4.51033">
        <ele>225.439611</ele>
        <time>2024-03-15T05:24:29.557Z</time>
      </trkpt>
      <trkpt lat="47.97725" lon="4.50957">
        <ele>221.131378</ele>
        <time>2024-03-15T05:24:37.969Z</time>
      </trkpt>
      <trkpt lat="47.97714" lon="4.50925">
        <ele>219.254701</ele>
        <time>2024-03-15T05:24:41.628Z</time>
      </trkpt>
      <trkpt lat="47.97629" lon="4.50758">
        <ele>208.3711</ele>
        <time>2024-03-15T05:25:03.279Z</time>
      </trkpt>
      <trkpt lat="47.97587" lon="4.50671">
        <ele>203.222888</ele>
        <time>2024-03-15T05:25:14.511Z</time>
      </trkpt>
      <trkpt lat="47.9757" lon="4.50623">
        <ele>201.175344</ele>
        <time>2024-03-15T05:25:20.291Z</time>
      </trkpt>
      <trkpt lat="47.97563" lon="4.50593">
        <ele>200.008538</ele>
        <time>2024-03-15T05:25:23.616Z</time>
      </trkpt>
      <trkpt lat="47.97543" lon="4.50396">
        <ele>193.469387</ele>
        <time>2024-03-15T05:25:46.063Z</time>
      </trkpt>
      <trkpt lat="47.97541" lon="4.50384">
        <ele>193.271543</ele>
        <time>2024-03-15T05:25:47.548Z</time>
      </trkpt>
      <trkpt lat="47.97545" lon="4.50333">
        <ele>192.451208</ele>
        <time>2024-03-15T05:25:53.817Z</time>
      </trkpt>
      <trkpt lat="47.97551" lon="4.50291">
        <ele>191.76234</ele>
        <time>2024-03-15T05:25:59.191Z</time>
      </trkpt>
      <trkpt lat="47.97566" lon="4.50241">
        <ele>190.872199</ele>
        <time>2024-03-15T05:26:06.419Z</time>
      </trkpt>
      <trkpt lat="47.97581" lon="4.50206">
        <ele>190.194647</ele>
        <time>2024-03-15T05:26:12.218Z</time>
      </trkpt>
      <trkpt lat="47.97586" lon="4.50181">
        <ele>189.85512</ele>
        <time>2024-03-15T05:26:15.896Z</time>
      </trkpt>
      <trkpt lat="47.97594" lon="4.50088">
        <ele>189.666801</ele>
        <time>2024-03-15T05:26:29.689Z</time>
      </trkpt>
      <trkpt lat="47.97529" lon="4.50052">
        <ele>189.459729</ele>
        <time>2024-03-15T05:26:44.943Z</time>
      </trkpt>
      <trkpt lat="47.97529" lon="4.50052">
        <ele>189.459729</ele>
        <time>2024-03-15T05:26:44.943Z</time>
      </trkpt>
      <trkpt lat="47.97484" lon="4.50036">
        <ele>189.335188</ele>
        <time>2024-03-15T05:26:55.187Z</time>
      </trkpt>
      <trkpt lat="47.97486" lon="4.50027">
        <ele>189.351675</ele>
        <time>2024-03-15T05:26:56.556Z</time>
      </trkpt>
      <trkpt lat="47.97498" lon="4.50011">
        <ele>189.392564</ele>
        <time>2024-03-15T05:27:00.022Z</time>
      </trkpt>
      <trkpt lat="47.97505" lon="4.50006">
        <ele>189.413656</ele>
        <time>2024-03-15T05:27:02.015Z</time>
      </trkpt>
      <trkpt lat="47.97547" lon="4.49998">
        <ele>189.524453</ele>
        <time>2024-03-15T05:27:12.185Z</time>
      </trkpt>
      <trkpt lat="47.97565" lon="4.49995">
        <ele>189.571358</ele>
        <time>2024-03-15T05:27:16.153Z</time>
      </trkpt>
      <trkpt lat="47.97596" lon="4.4999">
        <ele>189.651521</ele>
        <time>2024-03-15T05:27:23.462Z</time>
      </trkpt>
      <trkpt lat="47.97636" lon="4.4998">
        <ele>189.756789</ele>
        <time>2024-03-15T05:27:33.178Z</time>
      </trkpt>
      <trkpt lat="47.9766" lon="4.49975">
        <ele>189.828287</ele>
        <time>2024-03-15T05:27:39.307Z</time>
      </trkpt>
      <trkpt lat="47.97662" lon="4.49975">
        <ele>189.834484</ele>
        <time>2024-03-15T05:27:39.699Z</time>
      </trkpt>
      <trkpt lat="47.97666" lon="4.49974">
        <ele>189.849345</ele>
        <time>2024-03-15T05:27:40.654Z</time>
      </trkpt>
      <trkpt lat="47.97677" lon="4.49972">
        <ele>189.889734</ele>
        <time>2024-03-15T05:27:43.403Z</time>
      </trkpt>
      <trkpt lat="47.97689" lon="4.49969">
        <ele>189.934793</ele>
        <time>2024-03-15T05:27:46.768Z</time>
      </trkpt>
      <trkpt lat="47.97695" lon="4.49968">
        <ele>189.957663</ele>
        <time>2024-03-15T05:27:48.370Z</time>
      </trkpt>
      <trkpt lat="47.97709" lon="4.49966">
        <ele>190.00757</ele>
        <time>2024-03-15T05:27:51.761Z</time>
      </trkpt>
      <trkpt lat="47.97729" lon="4.49963">
        <ele>190.077712</ele>
        <time>2024-03-15T05:27:56.886Z</time>
      </trkpt>
      <trkpt lat="47.97746" lon="4.49958">
        <ele>190.14005</ele>
        <time>2024-03-15T05:28:01.192Z</time>
      </trkpt>
      <trkpt lat="47.97739" lon="4.49881">
        <ele>190.32638</ele>
        <time>2024-03-15T05:28:13.469Z</time>
      </trkpt>
      <trkpt lat="47.97735" lon="4.49843">
        <ele>190.419998</ele>
        <time>2024-03-15T05:28:19.280Z</time>
      </trkpt>
      <trkpt lat="47.97731" lon="4.49812">
        <ele>190.410582</ele>
        <time>2024-03-15T05:28:23.839Z</time>
      </trkpt>
      <trkpt lat="47.9775" lon="4.49808">
        <ele>190.369352</ele>
        <time>2024-03-15T05:28:28.174Z</time>
      </trkpt>
      <trkpt lat="47.97779" lon="4.49808">
        <ele>190.304221</ele>
        <time>2024-03-15T05:28:34.905Z</time>
      </trkpt>
      <trkpt lat="47.97795" lon="4.49809">
        <ele>190.267573</ele>
        <time>2024-03-15T05:28:38.394Z</time>
      </trkpt>
      <trkpt lat="47.97805" lon="4.49806">
        <ele>190.246217</ele>
        <time>2024-03-15T05:28:40.562Z</time>
      </trkpt>
      <trkpt lat="47.97814" lon="4.49789">
        <ele>190.214181</ele>
        <time>2024-03-15T05:28:43.706Z</time>
      </trkpt>
      <trkpt lat="47.97822" lon="4.49791">
        <ele>190.195893</ele>
        <time>2024-03-15T05:28:45.327Z</time>
      </trkpt>
      <trkpt lat="47.97831" lon="4.49793">
        <ele>190.174936</ele>
        <time>2024-03-15T05:28:47.197Z</time>
      </trkpt>
      <trkpt lat="47.97853" lon="4.4979">
        <ele>190.126106</ele>
        <time>2024-03-15T05:28:51.776Z</time>
      </trkpt>
      <trkpt lat="47.97865" lon="4.49788">
        <ele>190.098555</ele>
        <time>2024-03-15T05:28:54.245Z</time>
      </trkpt>
      <trkpt lat="47.97892" lon="4.4979">
        <ele>190.050387</ele>
        <time>2024-03-15T05:29:00.366Z</time>
      </trkpt>
      <trkpt lat="47.97903" lon="4.49796">
        <ele>190.110395</ele>
        <time>2024-03-15T05:29:02.901Z</time>
      </trkpt>
      <trkpt lat="47.97911" lon="4.49802">
        <ele>190.159099</ele>
        <time>2024-03-15T05:29:05.583Z</time>
      </trkpt>
      <trkpt lat="47.97897" lon="4.49709">
        <ele>190.48829</ele>
        <time>2024-03-15T05:29:21.013Z</time>
      </trkpt>
      <trkpt lat="47.97895" lon="4.49696">
        <ele>190.535253</ele>
        <time>2024-03-15T05:29:23.616Z</time>
      </trkpt>
      <trkpt lat="47.97894" lon="4.4969">
        <ele>190.557302</ele>
        <time>2024-03-15T05:29:24.745Z</time>
      </trkpt>
      <trkpt lat="47.9789" lon="4.49674">
        <ele>190.614731</ele>
        <time>2024-03-15T05:29:27.575Z</time>
      </trkpt>
      <trkpt lat="47.97887" lon="4.49667">
        <ele>190.646741</ele>
        <time>2024-03-15T05:29:29.066Z</time>
      </trkpt>
      <trkpt lat="47.97873" lon="4.49644">
        <ele>190.75341</ele>
        <time>2024-03-15T05:29:34.774Z</time>
      </trkpt>
      <trkpt lat="47.97866" lon="4.49622">
        <ele>190.839863</ele>
        <time>2024-03-15T05:29:38.858Z</time>
      </trkpt>
      <trkpt lat="47.97858" lon="4.49597">
        <ele>190.933563</ele>
        <time>2024-03-15T05:29:43.828Z</time>
      </trkpt>
      <trkpt lat="47.97853" lon="4.49582">
        <ele>190.996219</ele>
        <time>2024-03-15T05:29:46.693Z</time>
      </trkpt>
      <trkpt lat="47.97851" lon="4.49569">
        <ele>191.060061</ele>
        <time>2024-03-15T05:29:48.905Z</time>
      </trkpt>
      <trkpt lat="47.9785" lon="4.49563">
        <ele>191.090161</ele>
        <time>2024-03-15T05:29:50.068Z</time>
      </trkpt>
      <trkpt lat="47.97836" lon="4.49528">
        <ele>191.284815</ele>
        <time>2024-03-15T05:29:57.621Z</time>
      </trkpt>
      <trkpt lat="47.97837" lon="4.49523">
        <ele>191.310943</ele>
        <time>2024-03-15T05:29:58.628Z</time>
      </trkpt>
      <trkpt lat="47.97839" lon="4.49518">
        <ele>191.335485</ele>
        <time>2024-03-15T05:29:59.612Z</time>
      </trkpt>
      <trkpt lat="47.97878" lon="4.49406">
        <ele>191.933774</ele>
        <time>2024-03-15T05:30:22.533Z</time>
      </trkpt>
      <trkpt lat="47.97864" lon="4.49393">
        <ele>192.050216</ele>
        <time>2024-03-15T05:30:26.632Z</time>
      </trkpt>
      <trkpt lat="47.97859" lon="4.49392">
        <ele>192.084491</ele>
        <time>2024-03-15T05:30:27.788Z</time>
      </trkpt>
      <trkpt lat="47.97852" lon="4.49397">
        <ele>192.140446</ele>
        <time>2024-03-15T05:30:29.634Z</time>
      </trkpt>
      <trkpt lat="47.97747" lon="4.49488">
        <ele>192.665987</ele>
        <time>2024-03-15T05:30:59.193Z</time>
      </trkpt>
      <trkpt lat="47.97551" lon="4.49659">
        <ele>193.966718</ele>
        <time>2024-03-15T05:31:57.317Z</time>
      </trkpt>
      <trkpt lat="47.97525" lon="4.49671">
        <ele>194.151751</ele>
        <time>2024-03-15T05:32:05.129Z</time>
      </trkpt>
      <trkpt lat="47.97511" lon="4.49589">
        <ele>195.288674</ele>
        <time>2024-03-15T05:32:22.075Z</time>
      </trkpt>
      <trkpt lat="47.97508" lon="4.4957">
        <ele>195.546276</ele>
        <time>2024-03-15T05:32:25.870Z</time>
      </trkpt>
      <trkpt lat="47.97505" lon="4.4955">
        <ele>195.822105</ele>
        <time>2024-03-15T05:32:30.483Z</time>
      </trkpt>
      <trkpt lat="47.97497" lon="4.49499">
        <ele>196.535185</ele>
        <time>2024-03-15T05:32:41.931Z</time>
      </trkpt>
      <trkpt lat="47.97476" lon="4.49405">
        <ele>197.932343</ele>
        <time>2024-03-15T05:33:04.754Z</time>
      </trkpt>
      <trkpt lat="47.97407" lon="4.49218">
        <ele>203.027673</ele>
        <time>2024-03-15T05:34:01.416Z</time>
      </trkpt>
      <trkpt lat="47.97371" lon="4.49118">
        <ele>206.277706</ele>
        <time>2024-03-15T05:34:35.356Z</time>
      </trkpt>
      <trkpt lat="47.97348" lon="4.49071">
        <ele>208.143757</ele>
        <time>2024-03-15T05:34:53.647Z</time>
      </trkpt>
      <trkpt lat="47.97263" lon="4.48935">
        <ele>213.943481</ele>
        <time>2024-03-15T05:35:53.282Z</time>
      </trkpt>
      <trkpt lat="47.9719" lon="4.48819">
        <ele>218.298719</ele>
        <time>2024-03-15T05:36:38.517Z</time>
      </trkpt>
      <trkpt lat="47.97175" lon="4.48781">
        <ele>219.546649</ele>
        <time>2024-03-15T05:36:50.113Z</time>
      </trkpt>
      <trkpt lat="47.97159" lon="4.48742">
        <ele>220.900186</ele>
        <time>2024-03-15T05:37:01.557Z</time>
      </trkpt>
      <trkpt lat="47.97126" lon="4.48645">
        <ele>224.40682</ele>
        <time>2024-03-15T05:37:31.708Z</time>
      </trkpt>
      <trkpt lat="47.9711" lon="4.48583">
        <ele>226.537109</ele>
        <time>2024-03-15T05:37:52.177Z</time>
      </trkpt>
      <trkpt lat="47.97103" lon="4.48538">
        <ele>228.024127</ele>
        <time>2024-03-15T05:38:07.934Z</time>
      </trkpt>
      <trkpt lat="47.9709" lon="4.48386">
        <ele>235.910333</ele>
        <time>2024-03-15T05:39:09.183Z</time>
      </trkpt>
      <trkpt lat="47.97176" lon="4.48303">
        <ele>244.379315</ele>
        <time>2024-03-15T05:40:20.237Z</time>
      </trkpt>
      <trkpt lat="47.97177" lon="4.48226">
        <ele>249.115149</ele>
        <time>2024-03-15T05:40:56.352Z</time>
      </trkpt>
      <trkpt lat="47.97195" lon="4.48002">
        <ele>262.934278</ele>
        <time>2024-03-15T05:42:40.330Z</time>
      </trkpt>
      <trkpt lat="47.97163" lon="4.47575">
        <ele>287.652699</ele>
        <time>2024-03-15T05:45:55.826Z</time>
      </trkpt>
      <trkpt lat="47.9717" lon="4.4755">
        <ele>289.113996</ele>
        <time>2024-03-15T05:46:05.964Z</time>
      </trkpt>
      <trkpt lat="47.97158" lon="4.47368">
        <ele>295.970134</ele>
        <time>2024-03-15T05:47:27.049Z</time>
      </trkpt>
      <trkpt lat="47.97082" lon="4.46698">
        <ele>312.779802</ele>
        <time>2024-03-15T05:51:38.191Z</time>
      </trkpt>
      <trkpt lat="47.97094" lon="4.46686">
        <ele>312.924327</ele>
        <time>2024-03-15T05:51:45.408Z</time>
      </trkpt>
      <trkpt lat="47.9726" lon="4.46703">
        <ele>314.087781</ele>
        <time>2024-03-15T05:52:52.795Z</time>
      </trkpt>
      <trkpt lat="47.97397" lon="4.46831">
        <ele>310.18222</ele>
        <time>2024-03-15T05:53:43.623Z</time>
      </trkpt>
      <trkpt lat="47.97423" lon="4.46852">
        <ele>308.950627</ele>
        <time>2024-03-15T05:53:52.205Z</time>
      </trkpt>
      <trkpt lat="47.97502" lon="4.46153">
        <ele>288.406025</ele>
        <time>2024-03-15T05:56:11.014Z</time>
      </trkpt>
      <trkpt lat="47.97502" lon="4.46153">
        <ele>288.403246</ele>
        <time>2024-03-15T05:56:11.025Z</time>
      </trkpt>
      <trkpt lat="47.9755" lon="4.4582">
        <ele>282.867726</ele>
        <time>2024-03-15T05:57:21.425Z</time>
      </trkpt>
      <trkpt lat="47.97663" lon="4.4481">
        <ele>311.001599</ele>
        <time>2024-03-15T06:04:11.581Z</time>
      </trkpt>
      <trkpt lat="47.97692" lon="4.44793">
        <ele>312.017619</ele>
        <time>2024-03-15T06:04:26.298Z</time>
      </trkpt>
      <trkpt lat="47.97716" lon="4.44763">
        <ele>312.206721</ele>
        <time>2024-03-15T06:04:40.096Z</time>
      </trkpt>
      <trkpt lat="47.97784" lon="4.44724">
        <ele>312.641545</ele>
        <time>2024-03-15T06:05:08.220Z</time>
      </trkpt>
      <trkpt lat="47.97837" lon="4.44688">
        <ele>312.99168</ele>
        <time>2024-03-15T06:05:28.878Z</time>
      </trkpt>
      <trkpt lat="47.97939" lon="4.44653">
        <ele>312.896432</ele>
        <time>2024-03-15T06:06:08.689Z</time>
      </trkpt>
      <trkpt lat="47.98029" lon="4.44661">
        <ele>312.596575</ele>
        <time>2024-03-15T06:06:42.264Z</time>
      </trkpt>
      <trkpt lat="47.98102" lon="4.44643">
        <ele>309.612833</ele>
        <time>2024-03-15T06:07:06.338Z</time>
      </trkpt>
      <trkpt lat="47.98062" lon="4.44602">
        <ele>307.657881</ele>
        <time>2024-03-15T06:07:20.864Z</time>
      </trkpt>
      <trkpt lat="47.97873" lon="4.44016">
        <ele>277.24173</ele>
        <time>2024-03-15T06:09:17.626Z</time>
      </trkpt>
      <trkpt lat="47.97882" lon="4.44016">
        <ele>276.870804</ele>
        <time>2024-03-15T06:09:20.047Z</time>
      </trkpt>
      <trkpt lat="47.97999" lon="4.43848">
        <ele>270.243144</ele>
        <time>2024-03-15T06:10:09.182Z</time>
      </trkpt>
      <trkpt lat="47.98062" lon="4.43742">
        <ele>268.29851</ele>
        <time>2024-03-15T06:10:40.931Z</time>
      </trkpt>
      <trkpt lat="47.9816" lon="4.43694">
        <ele>266.009079</ele>
        <time>2024-03-15T06:11:14.630Z</time>
      </trkpt>
      <trkpt lat="47.98194" lon="4.43646">
        <ele>264.791753</ele>
        <time>2024-03-15T06:11:29.226Z</time>
      </trkpt>
      <trkpt lat="47.98239" lon="4.43498">
        <ele>262.01688</ele>
        <time>2024-03-15T06:12:03.024Z</time>
      </trkpt>
      <trkpt lat="47.98273" lon="4.4342">
        <ele>260.834113</ele>
        <time>2024-03-15T06:12:23.166Z</time>
      </trkpt>
      <trkpt lat="47.98318" lon="4.43412">
        <ele>259.990801</ele>
        <time>2024-03-15T06:12:38.020Z</time>
      </trkpt>
      <trkpt lat="47.98357" lon="4.43412">
        <ele>259.252571</ele>
        <time>2024-03-15T06:12:51.241Z</time>
      </trkpt>
      <trkpt lat="47.98433" lon="4.43434">
        <ele>257.532074</ele>
        <time>2024-03-15T06:13:17.517Z</time>
      </trkpt>
      <trkpt lat="47.98469" lon="4.43416">
        <ele>256.630616</ele>
        <time>2024-03-15T06:13:29.829Z</time>
      </trkpt>
      <trkpt lat="47.98513" lon="4.43337">
        <ele>254.999802</ele>
        <time>2024-03-15T06:13:51.271Z</time>
      </trkpt>
      <trkpt lat="47.98584" lon="4.43277">
        <ele>252.600517</ele>
        <time>2024-03-15T06:14:16.096Z</time>
      </trkpt>
      <trkpt lat="47.98618" lon="4.43195">
        <ele>250.564051</ele>
        <time>2024-03-15T06:14:35.711Z</time>
      </trkpt>
      <trkpt lat="47.98646" lon="4.43049">
        <ele>247.772193</ele>
        <time>2024-03-15T06:15:07.658Z</time>
      </trkpt>
      <trkpt lat="47.98692" lon="4.42915">
        <ele>245.45599</ele>
        <time>2024-03-15T06:15:40.076Z</time>
      </trkpt>
      <trkpt lat="47.9871" lon="4.42887">
        <ele>244.86921</ele>
        <time>2024-03-15T06:15:48.360Z</time>
      </trkpt>
      <trkpt lat="47.98712" lon="4.42841">
        <ele>244.515274</ele>
        <time>2024-03-15T06:15:58.564Z</time>
      </trkpt>
      <trkpt lat="47.98755" lon="4.42837">
        <ele>244.16266</ele>
        <time>2024-03-15T06:16:12.997Z</time>
      </trkpt>
      <trkpt lat="47.98798" lon="4.42862">
        <ele>243.778723</ele>
        <time>2024-03-15T06:16:29.570Z</time>
      </trkpt>
      <trkpt lat="47.98825" lon="4.42867">
        <ele>243.558645</ele>
        <time>2024-03-15T06:16:39.386Z</time>
      </trkpt>
      <trkpt lat="47.98864" lon="4.4282">
        <ele>243.208064</ele>
        <time>2024-03-15T06:16:57.800Z</time>
      </trkpt>
      <trkpt lat="47.98934" lon="4.42685">
        <ele>242.945575</ele>
        <time>2024-03-15T06:17:42.069Z</time>
      </trkpt>
      <trkpt lat="47.98998" lon="4.42601">
        <ele>242.049846</ele>
        <time>2024-03-15T06:18:11.794Z</time>
      </trkpt>
      <trkpt lat="47.99085" lon="4.42556">
        <ele>239.698095</ele>
        <time>2024-03-15T06:18:40.649Z</time>
      </trkpt>
      <trkpt lat="47.99174" lon="4.42559">
        <ele>237.34939</ele>
        <time>2024-03-15T06:19:07.459Z</time>
      </trkpt>
      <trkpt lat="47.9934" lon="4.42639">
        <ele>233.529738</ele>
        <time>2024-03-15T06:20:02.053Z</time>
      </trkpt>
      <trkpt lat="47.99403" lon="4.42645">
        <ele>234.338848</ele>
        <time>2024-03-15T06:20:25.449Z</time>
      </trkpt>
      <trkpt lat="47.99438" lon="4.42514">
        <ele>235.764984</ele>
        <time>2024-03-15T06:21:13.883Z</time>
      </trkpt>
      <trkpt lat="47.99382" lon="4.42387">
        <ele>243.393627</ele>
        <time>2024-03-15T06:22:25.770Z</time>
      </trkpt>
      <trkpt lat="47.99348" lon="4.4233">
        <ele>247.244272</ele>
        <time>2024-03-15T06:23:08.357Z</time>
      </trkpt>
      <trkpt lat="47.99288" lon="4.42259">
        <ele>254.499761</ele>
        <time>2024-03-15T06:24:16.933Z</time>
      </trkpt>
      <trkpt lat="47.99213" lon="4.42198">
        <ele>263.297451</ele>
        <time>2024-03-15T06:25:34.205Z</time>
      </trkpt>
      <trkpt lat="47.99154" lon="4.42199">
        <ele>269.165285</ele>
        <time>2024-03-15T06:26:26.869Z</time>
      </trkpt>
      <trkpt lat="47.99111" lon="4.42184">
        <ele>272.968561</ele>
        <time>2024-03-15T06:27:04.503Z</time>
      </trkpt>
      <trkpt lat="47.9898" lon="4.42071">
        <ele>285.025057</ele>
        <time>2024-03-15T06:29:01.800Z</time>
      </trkpt>
      <trkpt lat="47.98921" lon="4.42006">
        <ele>289.084703</ele>
        <time>2024-03-15T06:29:50.114Z</time>
      </trkpt>
      <trkpt lat="47.98898" lon="4.41975">
        <ele>290.814881</ele>
        <time>2024-03-15T06:30:09.189Z</time>
      </trkpt>
      <trkpt lat="47.98884" lon="4.41954">
        <ele>291.914615</ele>
        <time>2024-03-15T06:30:20.525Z</time>
      </trkpt>
      <trkpt lat="47.98855" lon="4.41928">
        <ele>293.438676</ele>
        <time>2024-03-15T06:30:39.238Z</time>
      </trkpt>
      <trkpt lat="47.98834" lon="4.41922">
        <ele>293.945899</ele>
        <time>2024-03-15T06:30:50.780Z</time>
      </trkpt>
      <trkpt lat="47.98822" lon="4.41898">
        <ele>294.411708</ele>
        <time>2024-03-15T06:31:00.793Z</time>
      </trkpt>
      <trkpt lat="47.98793" lon="4.41873">
        <ele>295.207103</ele>
        <time>2024-03-15T06:31:17.850Z</time>
      </trkpt>
      <trkpt lat="47.98784" lon="4.41843">
        <ele>295.71459</ele>
        <time>2024-03-15T06:31:28.345Z</time>
      </trkpt>
      <trkpt lat="47.98771" lon="4.41766">
        <ele>296.970665</ele>
        <time>2024-03-15T06:31:53.055Z</time>
      </trkpt>
      <trkpt lat="47.98769" lon="4.41754">
        <ele>297.167755</ele>
        <time>2024-03-15T06:31:56.941Z</time>
      </trkpt>
      <trkpt lat="47.98779" lon="4.4172">
        <ele>297.355018</ele>
        <time>2024-03-15T06:32:07.425Z</time>
      </trkpt>
      <trkpt lat="47.98788" lon="4.41667">
        <ele>297.259169</ele>
        <time>2024-03-15T06:32:21.838Z</time>
      </trkpt>
      <trkpt lat="47.98796" lon="4.41579">
        <ele>297.104992</ele>
        <time>2024-03-15T06:32:43.627Z</time>
      </trkpt>
      <trkpt lat="47.98797" lon="4.41531">
        <ele>297.021717</ele>
        <time>2024-03-15T06:32:54.978Z</time>
      </trkpt>
      <trkpt lat="47.98793" lon="4.4147">
        <ele>296.819214</ele>
        <time>2024-03-15T06:33:08.570Z</time>
      </trkpt>
      <trkpt lat="47.98786" lon="4.41429">
        <ele>296.151949</ele>
        <time>2024-03-15T06:33:17.912Z</time>
      </trkpt>
      <trkpt lat="47.98774" lon="4.41349">
        <ele>294.876319</ele>
        <time>2024-03-15T06:33:35.221Z</time>
      </trkpt>
      <trkpt lat="47.98773" lon="4.41286">
        <ele>293.902427</ele>
        <time>2024-03-15T06:33:48.288Z</time>
      </trkpt>
      <trkpt lat="47.98776" lon="4.41248">
        <ele>293.312268</ele>
        <time>2024-03-15T06:33:56.232Z</time>
      </trkpt>
      <trkpt lat="47.98718" lon="4.40852">
        <ele>287.795102</ele>
        <time>2024-03-15T06:35:23.761Z</time>
      </trkpt>
      <trkpt lat="47.98711" lon="4.40816">
        <ele>287.430072</ele>
        <time>2024-03-15T06:35:32.146Z</time>
      </trkpt>
      <trkpt lat="47.98656" lon="4.40702">
        <ele>286.222278</ele>
        <time>2024-03-15T06:36:04.279Z</time>
      </trkpt>
      <trkpt lat="47.98646" lon="4.40659">
        <ele>286.517098</ele>
        <time>2024-03-15T06:36:15.525Z</time>
      </trkpt>
      <trkpt lat="47.98641" lon="4.4061">
        <ele>286.83617</ele>
        <time>2024-03-15T06:36:28.805Z</time>
      </trkpt>
      <trkpt lat="47.98642" lon="4.40514">
        <ele>287.460377</ele>
        <time>2024-03-15T06:36:58.234Z</time>
      </trkpt>
      <trkpt lat="47.98639" lon="4.4038">
        <ele>288.387271</ele>
        <time>2024-03-15T06:37:39.887Z</time>
      </trkpt>
      <trkpt lat="47.98632" lon="4.40346">
        <ele>288.654777</ele>
        <time>2024-03-15T06:37:49.333Z</time>
      </trkpt>
      <trkpt lat="47.98609" lon="4.40287">
        <ele>289.159526</ele>
        <time>2024-03-15T06:38:09.115Z</time>
      </trkpt>
      <trkpt lat="47.98596" lon="4.40254">
        <ele>289.443769</ele>
        <time>2024-03-15T06:38:18.766Z</time>
      </trkpt>
      <trkpt lat="47.98589" lon="4.4024">
        <ele>289.574894</ele>
        <time>2024-03-15T06:38:24.377Z</time>
      </trkpt>
      <trkpt lat="47.98591" lon="4.40232">
        <ele>289.645271</ele>
        <time>2024-03-15T06:38:25.755Z</time>
      </trkpt>
      <trkpt lat="47.98597" lon="4.40221">
        <ele>289.750051</ele>
        <time>2024-03-15T06:38:27.821Z</time>
      </trkpt>
      <trkpt lat="47.98651" lon="4.40162">
        <ele>290.990578</ele>
        <time>2024-03-15T06:38:46.094Z</time>
      </trkpt>
      <trkpt lat="47.98702" lon="4.40133">
        <ele>292.104098</ele>
        <time>2024-03-15T06:39:01.903Z</time>
      </trkpt>
      <trkpt lat="47.98733" lon="4.40107">
        <ele>292.826884</ele>
        <time>2024-03-15T06:39:14.042Z</time>
      </trkpt>
      <trkpt lat="47.98762" lon="4.40078">
        <ele>293.531773</ele>
        <time>2024-03-15T06:39:28.520Z</time>
      </trkpt>
      <trkpt lat="47.98806" lon="4.40015">
        <ele>296.500122</ele>
        <time>2024-03-15T06:39:58.901Z</time>
      </trkpt>
      <trkpt lat="47.98829" lon="4.39978">
        <ele>298.161052</ele>
        <time>2024-03-15T06:40:16.895Z</time>
      </trkpt>
      <trkpt lat="47.98837" lon="4.39959">
        <ele>298.923768</ele>
        <time>2024-03-15T06:40:25.040Z</time>
      </trkpt>
      <trkpt lat="47.9884" lon="4.39946">
        <ele>299.395139</ele>
        <time>2024-03-15T06:40:30.463Z</time>
      </trkpt>
      <trkpt lat="47.98876" lon="4.3985">
        <ele>302.413047</ele>
        <time>2024-03-15T06:41:07.062Z</time>
      </trkpt>
      <trkpt lat="47.98929" lon="4.39757">
        <ele>302.036227</ele>
        <time>2024-03-15T06:41:32.672Z</time>
      </trkpt>
      <trkpt lat="47.98939" lon="4.3973">
        <ele>301.939861</ele>
        <time>2024-03-15T06:41:36.828Z</time>
      </trkpt>
      <trkpt lat="47.98944" lon="4.39706">
        <ele>301.863684</ele>
        <time>2024-03-15T06:41:39.886Z</time>
      </trkpt>
      <trkpt lat="47.98947" lon="4.39667">
        <ele>301.741767</ele>
        <time>2024-03-15T06:41:44.588Z</time>
      </trkpt>
      <trkpt lat="47.9895" lon="4.39596">
        <ele>299.586478</ele>
        <time>2024-03-15T06:41:52.500Z</time>
      </trkpt>
      <trkpt lat="47.98978" lon="4.395">
        <ele>293.822806</ele>
        <time>2024-03-15T06:42:03.311Z</time>
      </trkpt>
      <trkpt lat="47.99022" lon="4.39362">
        <ele>285.308156</ele>
        <time>2024-03-15T06:42:18.500Z</time>
      </trkpt>
      <trkpt lat="47.99048" lon="4.39291">
        <ele>280.808775</ele>
        <time>2024-03-15T06:42:26.568Z</time>
      </trkpt>
      <trkpt lat="47.99069" lon="4.39263">
        <ele>278.504557</ele>
        <time>2024-03-15T06:42:30.766Z</time>
      </trkpt>
      <trkpt lat="47.99119" lon="4.39209">
        <ele>273.279152</ele>
        <time>2024-03-15T06:42:40.472Z</time>
      </trkpt>
      <trkpt lat="47.99134" lon="4.39196">
        <ele>271.902931</ele>
        <time>2024-03-15T06:42:43.093Z</time>
      </trkpt>
      <trkpt lat="47.99142" lon="4.39177">
        <ele>271.280805</ele>
        <time>2024-03-15T06:42:45.541Z</time>
      </trkpt>
      <trkpt lat="47.99152" lon="4.39162">
        <ele>270.791447</ele>
        <time>2024-03-15T06:42:47.821Z</time>
      </trkpt>
      <trkpt lat="47.99191" lon="4.39021">
        <ele>267.252768</ele>
        <time>2024-03-15T06:43:05.991Z</time>
      </trkpt>
      <trkpt lat="47.99207" lon="4.38963">
        <ele>265.807633</ele>
        <time>2024-03-15T06:43:14.347Z</time>
      </trkpt>
      <trkpt lat="47.99235" lon="4.38874">
        <ele>264.372667</ele>
        <time>2024-03-15T06:43:27.769Z</time>
      </trkpt>
      <trkpt lat="47.99267" lon="4.38788">
        <ele>263.064681</ele>
        <time>2024-03-15T06:43:41.063Z</time>
      </trkpt>
      <trkpt lat="47.9933" lon="4.38599">
        <ele>258.181321</ele>
        <time>2024-03-15T06:44:06.328Z</time>
      </trkpt>
      <trkpt lat="47.99338" lon="4.38572">
        <ele>257.284958</ele>
        <time>2024-03-15T06:44:09.709Z</time>
      </trkpt>
      <trkpt lat="47.99362" lon="4.38523">
        <ele>255.477119</ele>
        <time>2024-03-15T06:44:16.486Z</time>
      </trkpt>
      <trkpt lat="47.99385" lon="4.38462">
        <ele>252.943293</ele>
        <time>2024-03-15T06:44:24.048Z</time>
      </trkpt>
      <trkpt lat="47.99401" lon="4.38395">
        <ele>248.961937</ele>
        <time>2024-03-15T06:44:31.576Z</time>
      </trkpt>
      <trkpt lat="47.99414" lon="4.38296">
        <ele>243.335975</ele>
        <time>2024-03-15T06:44:41.874Z</time>
      </trkpt>
      <trkpt lat="47.99436" lon="4.3821">
        <ele>237.890872</ele>
        <time>2024-03-15T06:44:51.085Z</time>
      </trkpt>
      <trkpt lat="47.99451" lon="4.38159">
        <ele>233.641816</ele>
        <time>2024-03-15T06:44:56.545Z</time>
      </trkpt>
      <trkpt lat="47.99453" lon="4.3805">
        <ele>225.363134</ele>
        <time>2024-03-15T06:45:07.091Z</time>
      </trkpt>
      <trkpt lat="47.99459" lon="4.38017">
        <ele>222.718652</ele>
        <time>2024-03-15T06:45:10.446Z</time>
      </trkpt>
      <trkpt lat="47.99461" lon="4.37991">
        <ele>220.721616</ele>
        <time>2024-03-15T06:45:12.994Z</time>
      </trkpt>
      <trkpt lat="47.9946" lon="4.37954">
        <ele>217.948858</ele>
        <time>2024-03-15T06:45:16.586Z</time>
      </trkpt>
      <trkpt lat="47.99458" lon="4.37936">
        <ele>216.746197</ele>
        <time>2024-03-15T06:45:18.351Z</time>
      </trkpt>
      <trkpt lat="47.99457" lon="4.37848">
        <ele>210.859557</ele>
        <time>2024-03-15T06:45:26.951Z</time>
      </trkpt>
      <trkpt lat="47.99458" lon="4.37657">
        <ele>198.957047</ele>
        <time>2024-03-15T06:45:46.300Z</time>
      </trkpt>
      <trkpt lat="47.99482" lon="4.37463">
        <ele>190.739746</ele>
        <time>2024-03-15T06:46:07.470Z</time>
      </trkpt>
      <trkpt lat="47.99496" lon="4.37333">
        <ele>187.202147</ele>
        <time>2024-03-15T06:46:22.891Z</time>
      </trkpt>
      <trkpt lat="47.99503" lon="4.37293">
        <ele>186.304623</ele>
        <time>2024-03-15T06:46:27.967Z</time>
      </trkpt>
      <trkpt lat="47.99529" lon="4.37196">
        <ele>184.079607</ele>
        <time>2024-03-15T06:46:40.862Z</time>
      </trkpt>
      <trkpt lat="47.99532" lon="4.3719">
        <ele>183.902551</ele>
        <time>2024-03-15T06:46:41.885Z</time>
      </trkpt>
      <trkpt lat="47.99539" lon="4.37187">
        <ele>183.682796</ele>
        <time>2024-03-15T06:46:43.148Z</time>
      </trkpt>
      <trkpt lat="47.99509" lon="4.37156">
        <ele>182.853988</ele>
        <time>2024-03-15T06:46:49.469Z</time>
      </trkpt>
      <trkpt lat="47.99528" lon="4.37081">
        <ele>181.719451</ele>
        <time>2024-03-15T06:46:59.321Z</time>
      </trkpt>
      <trkpt lat="47.99528" lon="4.37081">
        <ele>181.719451</ele>
        <time>2024-03-15T06:46:59.325Z</time>
      </trkpt>
      <trkpt lat="47.99529" lon="4.37035">
        <ele>181.077215</ele>
        <time>2024-03-15T06:47:04.968Z</time>
      </trkpt>
      <trkpt lat="47.99528" lon="4.37005">
        <ele>180.658874</ele>
        <time>2024-03-15T06:47:08.881Z</time>
      </trkpt>
      <trkpt lat="47.99525" lon="4.36938">
        <ele>179.711753</ele>
        <time>2024-03-15T06:47:17.677Z</time>
      </trkpt>
      <trkpt lat="47.995" lon="4.36906">
        <ele>179.865878</ele>
        <time>2024-03-15T06:47:24.963Z</time>
      </trkpt>
      <trkpt lat="47.99455" lon="4.36927">
        <ele>180.105336</ele>
        <time>2024-03-15T06:47:36.448Z</time>
      </trkpt>
      <trkpt lat="47.99443" lon="4.36944">
        <ele>180.188888</ele>
        <time>2024-03-15T06:47:41.784Z</time>
      </trkpt>
      <trkpt lat="47.99422" lon="4.36968">
        <ele>180.322032</ele>
        <time>2024-03-15T06:47:48.299Z</time>
      </trkpt>
      <trkpt lat="47.99394" lon="4.36987">
        <ele>180.479514</ele>
        <time>2024-03-15T06:47:56.797Z</time>
      </trkpt>
      <trkpt lat="47.99383" lon="4.36994">
        <ele>180.537879</ele>
        <time>2024-03-15T06:48:00.649Z</time>
      </trkpt>
      <trkpt lat="47.99377" lon="4.36999">
        <ele>180.573718</ele>
        <time>2024-03-15T06:48:02.743Z</time>
      </trkpt>
      <trkpt lat="47.99365" lon="4.3699">
        <ele>180.639231</ele>
        <time>2024-03-15T06:48:06.175Z</time>
      </trkpt>
      <trkpt lat="47.99353" lon="4.36978">
        <ele>180.712112</ele>
        <time>2024-03-15T06:48:10.691Z</time>
      </trkpt>
      <trkpt lat="47.99319" lon="4.36947">
        <ele>180.916497</ele>
        <time>2024-03-15T06:48:22.523Z</time>
      </trkpt>
      <trkpt lat="47.99283" lon="4.36907">
        <ele>181.144853</ele>
        <time>2024-03-15T06:48:34.047Z</time>
      </trkpt>
      <trkpt lat="47.99268" lon="4.36889">
        <ele>181.242073</ele>
        <time>2024-03-15T06:48:38.697Z</time>
      </trkpt>
      <trkpt lat="47.99258" lon="4.36877">
        <ele>181.308364</ele>
        <time>2024-03-15T06:48:41.945Z</time>
      </trkpt>
      <trkpt lat="47.99213" lon="4.36832">
        <ele>181.414818</ele>
        <time>2024-03-15T06:48:53.257Z</time>
      </trkpt>
      <trkpt lat="47.99192" lon="4.36797">
        <ele>181.076988</ele>
        <time>2024-03-15T06:48:59.375Z</time>
      </trkpt>
      <trkpt lat="47.99155" lon="4.36731">
        <ele>180.463477</ele>
        <time>2024-03-15T06:49:10.555Z</time>
      </trkpt>
      <trkpt lat="47.99143" lon="4.3671">
        <ele>180.266976</ele>
        <time>2024-03-15T06:49:14.179Z</time>
      </trkpt>
      <trkpt lat="47.99106" lon="4.36656">
        <ele>179.721441</ele>
        <time>2024-03-15T06:49:24.169Z</time>
      </trkpt>
      <trkpt lat="47.9909" lon="4.36637">
        <ele>179.492728</ele>
        <time>2024-03-15T06:49:28.435Z</time>
      </trkpt>
      <trkpt lat="47.99077" lon="4.36628">
        <ele>179.344014</ele>
        <time>2024-03-15T06:49:31.048Z</time>
      </trkpt>
      <trkpt lat="47.9902" lon="4.36588">
        <ele>178.648854</ele>
        <time>2024-03-15T06:49:43.643Z</time>
      </trkpt>
      <trkpt lat="47.99023" lon="4.36574">
        <ele>178.540801</ele>
        <time>2024-03-15T06:49:45.549Z</time>
      </trkpt>
      <trkpt lat="47.99027" lon="4.36553">
        <ele>178.382202</ele>
        <time>2024-03-15T06:49:48.370Z</time>
      </trkpt>
      <trkpt lat="47.99032" lon="4.3653">
        <ele>178.203025</ele>
        <time>2024-03-15T06:49:51.555Z</time>
      </trkpt>
      <trkpt lat="47.99035" lon="4.365">
        <ele>177.983829</ele>
        <time>2024-03-15T06:49:55.506Z</time>
      </trkpt>
      <trkpt lat="47.98957" lon="4.36397">
        <ele>177.368954</ele>
        <time>2024-03-15T06:50:15.944Z</time>
      </trkpt>
      <trkpt lat="47.98946" lon="4.36377">
        <ele>177.304674</ele>
        <time>2024-03-15T06:50:19.558Z</time>
      </trkpt>
      <trkpt lat="47.98944" lon="4.36368">
        <ele>177.280729</ele>
        <time>2024-03-15T06:50:20.841Z</time>
      </trkpt>
      <trkpt lat="47.98946" lon="4.36356">
        <ele>177.251094</ele>
        <time>2024-03-15T06:50:22.527Z</time>
      </trkpt>
      <trkpt lat="47.98954" lon="4.36337">
        <ele>177.19379</ele>
        <time>2024-03-15T06:50:26.095Z</time>
      </trkpt>
      <trkpt lat="47.98959" lon="4.36321">
        <ele>177.150147</ele>
        <time>2024-03-15T06:50:28.605Z</time>
      </trkpt>
      <trkpt lat="47.98959" lon="4.36267">
        <ele>177.014553</ele>
        <time>2024-03-15T06:50:37.321Z</time>
      </trkpt>
      <trkpt lat="47.98956" lon="4.36255">
        <ele>176.984471</ele>
        <time>2024-03-15T06:50:39.329Z</time>
      </trkpt>
      <trkpt lat="47.98951" lon="4.36247">
        <ele>177.022562</ele>
        <time>2024-03-15T06:50:41.530Z</time>
      </trkpt>
      <trkpt lat="47.98971" lon="4.36135">
        <ele>178.042799</ele>
        <time>2024-03-15T06:51:02.869Z</time>
      </trkpt>
      <trkpt lat="47.9894" lon="4.36122">
        <ele>178.461062</ele>
        <time>2024-03-15T06:51:11.919Z</time>
      </trkpt>
      <trkpt lat="47.98904" lon="4.36112">
        <ele>178.948584</ele>
        <time>2024-03-15T06:51:23.218Z</time>
      </trkpt>
      <trkpt lat="47.98916" lon="4.36034">
        <ele>180.023987</ele>
        <time>2024-03-15T06:51:40.613Z</time>
      </trkpt>
      <trkpt lat="47.98944" lon="4.35874">
        <ele>183.218921</ele>
        <time>2024-03-15T06:52:20.512Z</time>
      </trkpt>
      <trkpt lat="47.98946" lon="4.35859">
        <ele>183.512837</ele>
        <time>2024-03-15T06:52:24.221Z</time>
      </trkpt>
      <trkpt lat="47.9895" lon="4.3579">
        <ele>185.144358</ele>
        <time>2024-03-15T06:52:43.442Z</time>
      </trkpt>
      <trkpt lat="47.98947" lon="4.35787">
        <ele>185.33875</ele>
        <time>2024-03-15T06:52:45.068Z</time>
      </trkpt>
      <trkpt lat="47.98915" lon="4.35695">
        <ele>189.075485</ele>
        <time>2024-03-15T06:53:16.687Z</time>
      </trkpt>
      <trkpt lat="47.98905" lon="4.35648">
        <ele>190.849678</ele>
        <time>2024-03-15T06:53:33.030Z</time>
      </trkpt>
      <trkpt lat="47.98902" lon="4.35609">
        <ele>192.250412</ele>
        <time>2024-03-15T06:53:47.221Z</time>
      </trkpt>
      <trkpt lat="47.98896" lon="4.35561">
        <ele>194.017346</ele>
        <time>2024-03-15T06:54:05.747Z</time>
      </trkpt>
      <trkpt lat="47.9888" lon="4.35464">
        <ele>200.209038</ele>
        <time>2024-03-15T06:54:47.702Z</time>
      </trkpt>
      <trkpt lat="47.98849" lon="4.35475">
        <ele>203.168837</ele>
        <time>2024-03-15T06:55:14.140Z</time>
      </trkpt>
      <trkpt lat="47.98774" lon="4.3551">
        <ele>210.597069</ele>
        <time>2024-03-15T06:56:25.354Z</time>
      </trkpt>
      <trkpt lat="47.98743" lon="4.35476">
        <ele>214.963912</ele>
        <time>2024-03-15T06:57:02.234Z</time>
      </trkpt>
      <trkpt lat="47.98686" lon="4.35441">
        <ele>222.232802</ele>
        <time>2024-03-15T06:58:03.525Z</time>
      </trkpt>
      <trkpt lat="47.98657" lon="4.35395">
        <ele>227.178135</ele>
        <time>2024-03-15T06:58:45.408Z</time>
      </trkpt>
      <trkpt lat="47.98619" lon="4.35364">
        <ele>232.269765</ele>
        <time>2024-03-15T06:59:27.396Z</time>
      </trkpt>
      <trkpt lat="47.98587" lon="4.35321">
        <ele>235.704702</ele>
        <time>2024-03-15T07:00:06.068Z</time>
      </trkpt>
      <trkpt lat="47.98537" lon="4.35258">
        <ele>240.914167</ele>
        <time>2024-03-15T07:00:58.064Z</time>
      </trkpt>
      <trkpt lat="47.98495" lon="4.3518">
        <ele>246.290413</ele>
        <time>2024-03-15T07:01:43.679Z</time>
      </trkpt>
      <trkpt lat="47.98479" lon="4.35163">
        <ele>247.017404</ele>
        <time>2024-03-15T07:01:55.076Z</time>
      </trkpt>
      <trkpt lat="47.98465" lon="4.35133">
        <ele>247.685</ele>
        <time>2024-03-15T07:02:09.197Z</time>
      </trkpt>
      <trkpt lat="47.98444" lon="4.3511">
        <ele>248.396551</ele>
        <time>2024-03-15T07:02:23.023Z</time>
      </trkpt>
      <trkpt lat="47.98427" lon="4.35076">
        <ele>249.168809</ele>
        <time>2024-03-15T07:02:36.741Z</time>
      </trkpt>
      <trkpt lat="47.9835" lon="4.34918">
        <ele>252.138456</ele>
        <time>2024-03-15T07:03:34.932Z</time>
      </trkpt>
      <trkpt lat="47.98334" lon="4.34879">
        <ele>252.549019</ele>
        <time>2024-03-15T07:03:47.783Z</time>
      </trkpt>
      <trkpt lat="47.98316" lon="4.34826">
        <ele>253.091724</ele>
        <time>2024-03-15T07:04:04.892Z</time>
      </trkpt>
      <trkpt lat="47.98311" lon="4.34811">
        <ele>253.251843</ele>
        <time>2024-03-15T07:04:10.050Z</time>
      </trkpt>
      <trkpt lat="47.98286" lon="4.34729">
        <ele>254.0957</ele>
        <time>2024-03-15T07:04:36.484Z</time>
      </trkpt>
      <trkpt lat="47.98252" lon="4.34573">
        <ele>255.950323</ele>
        <time>2024-03-15T07:05:26.922Z</time>
      </trkpt>
      <trkpt lat="47.98239" lon="4.34499">
        <ele>256.810305</ele>
        <time>2024-03-15T07:05:50.128Z</time>
      </trkpt>
      <trkpt lat="47.98228" lon="4.34436">
        <ele>257.49517</ele>
        <time>2024-03-15T07:06:10.255Z</time>
      </trkpt>
      <trkpt lat="47.98224" lon="4.34392">
        <ele>257.943175</ele>
        <time>2024-03-15T07:06:23.545Z</time>
      </trkpt>
      <trkpt lat="47.9821" lon="4.34313">
        <ele>258.77846</ele>
        <time>2024-03-15T07:06:48.162Z</time>
      </trkpt>
      <trkpt lat="47.98196" lon="4.34259">
        <ele>259.370595</ele>
        <time>2024-03-15T07:07:05.472Z</time>
      </trkpt>
      <trkpt lat="47.98189" lon="4.34248">
        <ele>259.520501</ele>
        <time>2024-03-15T07:07:09.794Z</time>
      </trkpt>
      <trkpt lat="47.98179" lon="4.34244">
        <ele>259.689019</ele>
        <time>2024-03-15T07:07:14.803Z</time>
      </trkpt>
      <trkpt lat="47.98174" lon="4.34216">
        <ele>259.865286</ele>
        <time>2024-03-15T07:07:20.434Z</time>
      </trkpt>
      <trkpt lat="47.98166" lon="4.34162">
        <ele>260.14028</ele>
        <time>2024-03-15T07:07:31.061Z</time>
      </trkpt>
      <trkpt lat="47.98164" lon="4.34119">
        <ele>260.354416</ele>
        <time>2024-03-15T07:07:38.999Z</time>
      </trkpt>
      <trkpt lat="47.9818" lon="4.34023">
        <ele>260.849765</ele>
        <time>2024-03-15T07:07:55.554Z</time>
      </trkpt>
      <trkpt lat="47.98183" lon="4.3397">
        <ele>261.156371</ele>
        <time>2024-03-15T07:08:04.204Z</time>
      </trkpt>
      <trkpt lat="47.98182" lon="4.33923">
        <ele>261.818616</ele>
        <time>2024-03-15T07:08:12.542Z</time>
      </trkpt>
      <trkpt lat="47.98182" lon="4.33891">
        <ele>262.266622</ele>
        <time>2024-03-15T07:08:18.337Z</time>
      </trkpt>
      <trkpt lat="47.98194" lon="4.33851">
        <ele>262.873207</ele>
        <time>2024-03-15T07:08:26.718Z</time>
      </trkpt>
      <trkpt lat="47.98219" lon="4.33769">
        <ele>264.127055</ele>
        <time>2024-03-15T07:08:47.835Z</time>
      </trkpt>
      <trkpt lat="47.98219" lon="4.3375">
        <ele>264.383132</ele>
        <time>2024-03-15T07:08:52.637Z</time>
      </trkpt>
      <trkpt lat="47.98214" lon="4.33727">
        <ele>264.722461</ele>
        <time>2024-03-15T07:08:59.781Z</time>
      </trkpt>
      <trkpt lat="47.98207" lon="4.33703">
        <ele>265.524223</ele>
        <time>2024-03-15T07:09:07.447Z</time>
      </trkpt>
      <trkpt lat="47.98194" lon="4.33678">
        <ele>266.716614</ele>
        <time>2024-03-15T07:09:17.573Z</time>
      </trkpt>
      <trkpt lat="47.9819" lon="4.3363">
        <ele>268.51819</ele>
        <time>2024-03-15T07:09:33.249Z</time>
      </trkpt>
      <trkpt lat="47.9819" lon="4.33602">
        <ele>269.570607</ele>
        <time>2024-03-15T07:09:42.816Z</time>
      </trkpt>
      <trkpt lat="47.98193" lon="4.33572">
        <ele>270.751444</ele>
        <time>2024-03-15T07:09:53.573Z</time>
      </trkpt>
      <trkpt lat="47.982" lon="4.33548">
        <ele>271.707927</ele>
        <time>2024-03-15T07:10:02.227Z</time>
      </trkpt>
      <trkpt lat="47.98214" lon="4.33518">
        <ele>273.082233</ele>
        <time>2024-03-15T07:10:15.492Z</time>
      </trkpt>
      <trkpt lat="47.98234" lon="4.33474">
        <ele>275.111764</ele>
        <time>2024-03-15T07:10:35.589Z</time>
      </trkpt>
      <trkpt lat="47.98284" lon="4.33349">
        <ele>281.180266</ele>
        <time>2024-03-15T07:11:31.516Z</time>
      </trkpt>
      <trkpt lat="47.98304" lon="4.33298">
        <ele>283.632151</ele>
        <time>2024-03-15T07:11:51.711Z</time>
      </trkpt>
      <trkpt lat="47.98311" lon="4.33261">
        <ele>285.212405</ele>
        <time>2024-03-15T07:12:03.739Z</time>
      </trkpt>
      <trkpt lat="47.9831" lon="4.33243">
        <ele>285.953346</ele>
        <time>2024-03-15T07:12:09.558Z</time>
      </trkpt>
      <trkpt lat="47.98305" lon="4.33216">
        <ele>286.750436</ele>
        <time>2024-03-15T07:12:18.359Z</time>
      </trkpt>
      <trkpt lat="47.98297" lon="4.33171">
        <ele>288.001307</ele>
        <time>2024-03-15T07:12:33.511Z</time>
      </trkpt>
      <trkpt lat="47.98294" lon="4.33137">
        <ele>288.917341</ele>
        <time>2024-03-15T07:12:44.715Z</time>
      </trkpt>
      <trkpt lat="47.98296" lon="4.33108">
        <ele>289.688385</ele>
        <time>2024-03-15T07:12:53.602Z</time>
      </trkpt>
      <trkpt lat="47.98311" lon="4.33051">
        <ele>291.304669</ele>
        <time>2024-03-15T07:13:10.540Z</time>
      </trkpt>
      <trkpt lat="47.98325" lon="4.33015">
        <ele>292.424221</ele>
        <time>2024-03-15T07:13:20.455Z</time>
      </trkpt>
      <trkpt lat="47.98327" lon="4.33012">
        <ele>292.523883</ele>
        <time>2024-03-15T07:13:21.284Z</time>
      </trkpt>
      <trkpt lat="47.98341" lon="4.32986">
        <ele>293.338545</ele>
        <time>2024-03-15T07:13:28.608Z</time>
      </trkpt>
      <trkpt lat="47.98362" lon="4.32939">
        <ele>294.18902</ele>
        <time>2024-03-15T07:13:40.134Z</time>
      </trkpt>
      <trkpt lat="47.98368" lon="4.329">
        <ele>294.798112</ele>
        <time>2024-03-15T07:13:48.243Z</time>
      </trkpt>
      <trkpt lat="47.9837" lon="4.32869">
        <ele>295.275942</ele>
        <time>2024-03-15T07:13:54.814Z</time>
      </trkpt>
      <trkpt lat="47.98368" lon="4.3284">
        <ele>295.712565</ele>
        <time>2024-03-15T07:14:01.128Z</time>
      </trkpt>
      <trkpt lat="47.9836" lon="4.32762">
        <ele>296.911126</ele>
        <time>2024-03-15T07:14:19.077Z</time>
      </trkpt>
      <trkpt lat="47.98349" lon="4.32718">
        <ele>297.793061</ele>
        <time>2024-03-15T07:14:29.800Z</time>
      </trkpt>
      <trkpt lat="47.98288" lon="4.32591">
        <ele>301.457094</ele>
        <time>2024-03-15T07:15:14.032Z</time>
      </trkpt>
      <trkpt lat="47.98262" lon="4.32538">
        <ele>302.984195</ele>
        <time>2024-03-15T07:15:32.807Z</time>
      </trkpt>
      <trkpt lat="47.98199" lon="4.32473">
        <ele>303.481303</ele>
        <time>2024-03-15T07:16:00.489Z</time>
      </trkpt>
      <trkpt lat="47.98186" lon="4.32454">
        <ele>303.445587</ele>
        <time>2024-03-15T07:16:05.493Z</time>
      </trkpt>
      <trkpt lat="47.98121" lon="4.32315">
        <ele>302.681228</ele>
        <time>2024-03-15T07:16:26.640Z</time>
      </trkpt>
      <trkpt lat="47.98072" lon="4.32179">
        <ele>297.354717</ele>
        <time>2024-03-15T07:16:42.841Z</time>
      </trkpt>
      <trkpt lat="47.98064" lon="4.32149">
        <ele>296.235427</ele>
        <time>2024-03-15T07:16:46.123Z</time>
      </trkpt>
      <trkpt lat="47.98062" lon="4.32136">
        <ele>295.780895</ele>
        <time>2024-03-15T07:16:47.454Z</time>
      </trkpt>
      <trkpt lat="47.98065" lon="4.32108">
        <ele>294.814054</ele>
        <time>2024-03-15T07:16:52.671Z</time>
      </trkpt>
      <trkpt lat="47.98071" lon="4.32086">
        <ele>293.996623</ele>
        <time>2024-03-15T07:16:57.060Z</time>
      </trkpt>
      <trkpt lat="47.98097" lon="4.32018">
        <ele>291.733689</ele>
        <time>2024-03-15T07:17:11.819Z</time>
      </trkpt>
      <trkpt lat="47.981" lon="4.31977">
        <ele>290.527214</ele>
        <time>2024-03-15T07:17:19.828Z</time>
      </trkpt>
      <trkpt lat="47.98104" lon="4.31935">
        <ele>289.309751</ele>
        <time>2024-03-15T07:17:28.058Z</time>
      </trkpt>
      <trkpt lat="47.98135" lon="4.31784">
        <ele>285.504552</ele>
        <time>2024-03-15T07:18:00.944Z</time>
      </trkpt>
      <trkpt lat="47.98152" lon="4.31708">
        <ele>284.428534</ele>
        <time>2024-03-15T07:18:18.415Z</time>
      </trkpt>
      <trkpt lat="47.98183" lon="4.31599">
        <ele>282.846907</ele>
        <time>2024-03-15T07:18:44.745Z</time>
      </trkpt>
      <trkpt lat="47.982" lon="4.31543">
        <ele>281.727638</ele>
        <time>2024-03-15T07:18:58.736Z</time>
      </trkpt>
      <trkpt lat="47.98211" lon="4.31484">
        <ele>280.484698</ele>
        <time>2024-03-15T07:19:12.311Z</time>
      </trkpt>
      <trkpt lat="47.98219" lon="4.31457">
        <ele>279.897629</ele>
        <time>2024-03-15T07:19:18.368Z</time>
      </trkpt>
      <trkpt lat="47.98238" lon="4.31445">
        <ele>279.251645</ele>
        <time>2024-03-15T07:19:25.158Z</time>
      </trkpt>
      <trkpt lat="47.98258" lon="4.31426">
        <ele>278.543888</ele>
        <time>2024-03-15T07:19:32.259Z</time>
      </trkpt>
      <trkpt lat="47.98275" lon="4.31401">
        <ele>277.814026</ele>
        <time>2024-03-15T07:19:39.362Z</time>
      </trkpt>
      <trkpt lat="47.9833" lon="4.31359">
        <ele>273.791914</ele>
        <time>2024-03-15T07:19:56.924Z</time>
      </trkpt>
      <trkpt lat="47.9838" lon="4.31326">
        <ele>269.047681</ele>
        <time>2024-03-15T07:20:11.795Z</time>
      </trkpt>
      <trkpt lat="47.9839" lon="4.31304">
        <ele>267.517694</ele>
        <time>2024-03-15T07:20:16.454Z</time>
      </trkpt>
      <trkpt lat="47.98418" lon="4.31219">
        <ele>262.020568</ele>
        <time>2024-03-15T07:20:32.688Z</time>
      </trkpt>
      <trkpt lat="47.98532" lon="4.30997">
        <ele>236.915583</ele>
        <time>2024-03-15T07:21:18.463Z</time>
      </trkpt>
      <trkpt lat="47.98577" lon="4.30902">
        <ele>228.587753</ele>
        <time>2024-03-15T07:21:37.508Z</time>
      </trkpt>
      <trkpt lat="47.98657" lon="4.30715">
        <ele>216.115097</ele>
        <time>2024-03-15T07:22:16.395Z</time>
      </trkpt>
      <trkpt lat="47.98675" lon="4.3068">
        <ele>215.070149</ele>
        <time>2024-03-15T07:22:25.373Z</time>
      </trkpt>
      <trkpt lat="47.98724" lon="4.30603">
        <ele>212.571403</ele>
        <time>2024-03-15T07:22:48.433Z</time>
      </trkpt>
      <trkpt lat="47.98733" lon="4.30587">
        <ele>212.059103</ele>
        <time>2024-03-15T07:22:53.586Z</time>
      </trkpt>
      <trkpt lat="47.98768" lon="4.30531">
        <ele>212.812296</ele>
        <time>2024-03-15T07:23:08.836Z</time>
      </trkpt>
      <trkpt lat="47.98825" lon="4.30419">
        <ele>216.342993</ele>
        <time>2024-03-15T07:23:49.513Z</time>
      </trkpt>
      <trkpt lat="47.98839" lon="4.3039">
        <ele>217.244505</ele>
        <time>2024-03-15T07:24:02.092Z</time>
      </trkpt>
      <trkpt lat="47.98867" lon="4.30301">
        <ele>220.253078</ele>
        <time>2024-03-15T07:24:37.307Z</time>
      </trkpt>
      <trkpt lat="47.98907" lon="4.30206">
        <ele>224.118829</ele>
        <time>2024-03-15T07:25:18.924Z</time>
      </trkpt>
      <trkpt lat="47.99002" lon="4.30052">
        <ele>228.145379</ele>
        <time>2024-03-15T07:26:15.352Z</time>
      </trkpt>
      <trkpt lat="47.99063" lon="4.29948">
        <ele>228.981852</ele>
        <time>2024-03-15T07:26:35.323Z</time>
      </trkpt>
      <trkpt lat="47.99092" lon="4.299">
        <ele>228.924747</ele>
        <time>2024-03-15T07:26:43.726Z</time>
      </trkpt>
      <trkpt lat="47.99113" lon="4.29871">
        <ele>228.757584</ele>
        <time>2024-03-15T07:26:49.242Z</time>
      </trkpt>
      <trkpt lat="47.99159" lon="4.29827">
        <ele>228.443889</ele>
        <time>2024-03-15T07:27:00.215Z</time>
      </trkpt>
      <trkpt lat="47.99173" lon="4.29809">
        <ele>228.33055</ele>
        <time>2024-03-15T07:27:04.410Z</time>
      </trkpt>
      <trkpt lat="47.99196" lon="4.29769">
        <ele>228.128615</ele>
        <time>2024-03-15T07:27:12.741Z</time>
      </trkpt>
      <trkpt lat="47.99062" lon="4.29693">
        <ele>231.509871</ele>
        <time>2024-03-15T07:28:00.228Z</time>
      </trkpt>
      <trkpt lat="47.99047" lon="4.2965">
        <ele>232.360867</ele>
        <time>2024-03-15T07:28:14.448Z</time>
      </trkpt>
      <trkpt lat="47.99013" lon="4.29515">
        <ele>236.787192</ele>
        <time>2024-03-15T07:28:58.847Z</time>
      </trkpt>
      <trkpt lat="47.98939" lon="4.29265">
        <ele>246.493446</ele>
        <time>2024-03-15T07:30:31.149Z</time>
      </trkpt>
      <trkpt lat="47.98893" lon="4.29131">
        <ele>252.262023</ele>
        <time>2024-03-15T07:31:25.641Z</time>
      </trkpt>
      <trkpt lat="47.98873" lon="4.29084">
        <ele>254.050776</ele>
        <time>2024-03-15T07:31:44.250Z</time>
      </trkpt>
      <trkpt lat="47.98814" lon="4.28996">
        <ele>258.032579</ele>
        <time>2024-03-15T07:32:23.895Z</time>
      </trkpt>
      <trkpt lat="47.98796" lon="4.28975">
        <ele>259.107844</ele>
        <time>2024-03-15T07:32:33.629Z</time>
      </trkpt>
      <trkpt lat="47.98657" lon="4.28877">
        <ele>265.474103</ele>
        <time>2024-03-15T07:33:39.253Z</time>
      </trkpt>
      <trkpt lat="47.98562" lon="4.288">
        <ele>270.182118</ele>
        <time>2024-03-15T07:34:25.704Z</time>
      </trkpt>
      <trkpt lat="47.98496" lon="4.28777">
        <ele>273.491342</ele>
        <time>2024-03-15T07:34:58.246Z</time>
      </trkpt>
      <trkpt lat="47.98368" lon="4.28738">
        <ele>280.151668</ele>
        <time>2024-03-15T07:36:03.988Z</time>
      </trkpt>
      <trkpt lat="47.98307" lon="4.28705">
        <ele>283.626262</ele>
        <time>2024-03-15T07:36:46.383Z</time>
      </trkpt>
      <trkpt lat="47.98264" lon="4.28672">
        <ele>286.264781</ele>
        <time>2024-03-15T07:37:17.460Z</time>
      </trkpt>
      <trkpt lat="47.98216" lon="4.28623">
        <ele>288.841862</ele>
        <time>2024-03-15T07:37:52.181Z</time>
      </trkpt>
      <trkpt lat="47.98183" lon="4.28553">
        <ele>291.418401</ele>
        <time>2024-03-15T07:38:25.638Z</time>
      </trkpt>
      <trkpt lat="47.98143" lon="4.28464">
        <ele>294.649089</ele>
        <time>2024-03-15T07:39:07.021Z</time>
      </trkpt>
      <trkpt lat="47.98131" lon="4.28428">
        <ele>295.996684</ele>
        <time>2024-03-15T07:39:23.209Z</time>
      </trkpt>
      <trkpt lat="47.98079" lon="4.28309">
        <ele>300.692994</ele>
        <time>2024-03-15T07:40:22.289Z</time>
      </trkpt>
      <trkpt lat="47.98056" lon="4.28267">
        <ele>302.469222</ele>
        <time>2024-03-15T07:40:45.757Z</time>
      </trkpt>
      <trkpt lat="47.98034" lon="4.28239">
        <ele>303.722644</ele>
        <time>2024-03-15T07:41:04.996Z</time>
      </trkpt>
      <trkpt lat="47.97939" lon="4.28151">
        <ele>307.737566</ele>
        <time>2024-03-15T07:42:11.615Z</time>
      </trkpt>
      <trkpt lat="47.97925" lon="4.28128">
        <ele>308.462755</ele>
        <time>2024-03-15T07:42:21.651Z</time>
      </trkpt>
      <trkpt lat="47.97911" lon="4.28092">
        <ele>309.486228</ele>
        <time>2024-03-15T07:42:34.777Z</time>
      </trkpt>
      <trkpt lat="47.97896" lon="4.28041">
        <ele>308.781853</ele>
        <time>2024-03-15T07:42:49.363Z</time>
      </trkpt>
      <trkpt lat="47.97879" lon="4.28002">
        <ele>307.969853</ele>
        <time>2024-03-15T07:43:00.318Z</time>
      </trkpt>
      <trkpt lat="47.97759" lon="4.2776">
        <ele>298.734053</ele>
        <time>2024-03-15T07:43:59.341Z</time>
      </trkpt>
      <trkpt lat="47.97714" lon="4.27689">
        <ele>293.97606</ele>
        <time>2024-03-15T07:44:16.546Z</time>
      </trkpt>
      <trkpt lat="47.97689" lon="4.27639">
        <ele>290.189034</ele>
        <time>2024-03-15T07:44:27.151Z</time>
      </trkpt>
      <trkpt lat="47.97682" lon="4.2762">
        <ele>288.334736</ele>
        <time>2024-03-15T07:44:30.856Z</time>
      </trkpt>
      <trkpt lat="47.97665" lon="4.27574">
        <ele>283.864598</ele>
        <time>2024-03-15T07:44:39.557Z</time>
      </trkpt>
      <trkpt lat="47.97636" lon="4.27538">
        <ele>279.019023</ele>
        <time>2024-03-15T07:44:48.896Z</time>
      </trkpt>
      <trkpt lat="47.97602" lon="4.27516">
        <ele>274.317427</ele>
        <time>2024-03-15T07:44:57.915Z</time>
      </trkpt>
      <trkpt lat="47.97509" lon="4.27474">
        <ele>263.426103</ele>
        <time>2024-03-15T07:45:21.772Z</time>
      </trkpt>
      <trkpt lat="47.97446" lon="4.27415">
        <ele>255.995976</ele>
        <time>2024-03-15T07:45:40.876Z</time>
      </trkpt>
      <trkpt lat="47.97391" lon="4.27392">
        <ele>250.715526</ele>
        <time>2024-03-15T07:45:56.588Z</time>
      </trkpt>
      <trkpt lat="47.97358" lon="4.27374">
        <ele>249.398283</ele>
        <time>2024-03-15T07:46:06.822Z</time>
      </trkpt>
      <trkpt lat="47.97297" lon="4.27395">
        <ele>247.054136</ele>
        <time>2024-03-15T07:46:26.008Z</time>
      </trkpt>
      <trkpt lat="47.97287" lon="4.27393">
        <ele>246.653745</ele>
        <time>2024-03-15T07:46:29.342Z</time>
      </trkpt>
      <trkpt lat="47.97261" lon="4.27344">
        <ele>245.099639</ele>
        <time>2024-03-15T07:46:42.306Z</time>
      </trkpt>
      <trkpt lat="47.9724" lon="4.27279">
        <ele>243.418467</ele>
        <time>2024-03-15T07:46:57.220Z</time>
      </trkpt>
      <trkpt lat="47.97224" lon="4.27191">
        <ele>241.477047</ele>
        <time>2024-03-15T07:47:16.053Z</time>
      </trkpt>
      <trkpt lat="47.97151" lon="4.27028">
        <ele>238.183702</ele>
        <time>2024-03-15T07:47:56.224Z</time>
      </trkpt>
      <trkpt lat="47.97131" lon="4.26992">
        <ele>237.913383</ele>
        <time>2024-03-15T07:48:06.244Z</time>
      </trkpt>
      <trkpt lat="47.97051" lon="4.26855">
        <ele>237.28502</ele>
        <time>2024-03-15T07:48:52.056Z</time>
      </trkpt>
      <trkpt lat="47.97022" lon="4.26815">
        <ele>238.536549</ele>
        <time>2024-03-15T07:49:11.747Z</time>
      </trkpt>
      <trkpt lat="47.97003" lon="4.26799">
        <ele>239.219103</ele>
        <time>2024-03-15T07:49:23.084Z</time>
      </trkpt>
      <trkpt lat="47.96977" lon="4.26778">
        <ele>240.140256</ele>
        <time>2024-03-15T07:49:39.316Z</time>
      </trkpt>
      <trkpt lat="47.96928" lon="4.2676">
        <ele>241.731473</ele>
        <time>2024-03-15T07:50:08.269Z</time>
      </trkpt>
      <trkpt lat="47.96868" lon="4.26728">
        <ele>244.210641</ele>
        <time>2024-03-15T07:50:46.005Z</time>
      </trkpt>
      <trkpt lat="47.96871" lon="4.26679">
        <ele>245.706295</ele>
        <time>2024-03-15T07:51:01.141Z</time>
      </trkpt>
      <trkpt lat="47.96868" lon="4.26662">
        <ele>246.236043</ele>
        <time>2024-03-15T07:51:06.583Z</time>
      </trkpt>
      <trkpt lat="47.96865" lon="4.26649">
        <ele>246.650552</ele>
        <time>2024-03-15T07:51:10.534Z</time>
      </trkpt>
      <trkpt lat="47.96844" lon="4.26622">
        <ele>247.879902</ele>
        <time>2024-03-15T07:51:22.861Z</time>
      </trkpt>
      <trkpt lat="47.96806" lon="4.26577">
        <ele>250.051072</ele>
        <time>2024-03-15T07:51:44.445Z</time>
      </trkpt>
      <trkpt lat="47.96785" lon="4.26549">
        <ele>251.308407</ele>
        <time>2024-03-15T07:51:57.461Z</time>
      </trkpt>
      <trkpt lat="47.96704" lon="4.26439">
        <ele>256.060752</ele>
        <time>2024-03-15T07:52:45.211Z</time>
      </trkpt>
      <trkpt lat="47.96691" lon="4.26448">
        <ele>256.684148</ele>
        <time>2024-03-15T07:52:51.554Z</time>
      </trkpt>
      <trkpt lat="47.96586" lon="4.26541">
        <ele>261.066638</ele>
        <time>2024-03-15T07:53:45.083Z</time>
      </trkpt>
      <trkpt lat="47.96586" lon="4.26541">
        <ele>261.066638</ele>
        <time>2024-03-15T07:53:45.095Z</time>
      </trkpt>
      <trkpt lat="47.96527" lon="4.26577">
        <ele>263.076491</ele>
        <time>2024-03-15T07:54:08.761Z</time>
      </trkpt>
      <trkpt lat="47.96504" lon="4.26581">
        <ele>263.808456</ele>
        <time>2024-03-15T07:54:16.613Z</time>
      </trkpt>
      <trkpt lat="47.96497" lon="4.26506">
        <ele>264.000802</ele>
        <time>2024-03-15T07:54:32.578Z</time>
      </trkpt>
      <trkpt lat="47.96469" lon="4.26272">
        <ele>262.857098</ele>
        <time>2024-03-15T07:55:04.793Z</time>
      </trkpt>
      <trkpt lat="47.96449" lon="4.26154">
        <ele>261.515131</ele>
        <time>2024-03-15T07:55:30.496Z</time>
      </trkpt>
      <trkpt lat="47.96427" lon="4.26097">
        <ele>260.792945</ele>
        <time>2024-03-15T07:55:45.148Z</time>
      </trkpt>
      <trkpt lat="47.96407" lon="4.26039">
        <ele>260.154286</ele>
        <time>2024-03-15T07:56:00.166Z</time>
      </trkpt>
      <trkpt lat="47.96397" lon="4.25894">
        <ele>259.856171</ele>
        <time>2024-03-15T07:56:35.633Z</time>
      </trkpt>
      <trkpt lat="47.96396" lon="4.25815">
        <ele>259.693171</ele>
        <time>2024-03-15T07:56:56.458Z</time>
      </trkpt>
      <trkpt lat="47.96422" lon="4.25688">
        <ele>258.471425</ele>
        <time>2024-03-15T07:57:27.923Z</time>
      </trkpt>
      <trkpt lat="47.96415" lon="4.25518">
        <ele>256.470067</ele>
        <time>2024-03-15T07:58:04.089Z</time>
      </trkpt>
      <trkpt lat="47.96398" lon="4.25255">
        <ele>252.65685</ele>
        <time>2024-03-15T07:59:00.759Z</time>
      </trkpt>
      <trkpt lat="47.96395" lon="4.25145">
        <ele>252.177635</ele>
        <time>2024-03-15T07:59:26.269Z</time>
      </trkpt>
      <trkpt lat="47.96369" lon="4.25048">
        <ele>251.758089</ele>
        <time>2024-03-15T07:59:51.360Z</time>
      </trkpt>
      <trkpt lat="47.96365" lon="4.25006">
        <ele>251.588497</ele>
        <time>2024-03-15T08:00:01.977Z</time>
      </trkpt>
      <trkpt lat="47.96389" lon="4.24941">
        <ele>251.768451</ele>
        <time>2024-03-15T08:00:20.983Z</time>
      </trkpt>
      <trkpt lat="47.96381" lon="4.24883">
        <ele>252.016039</ele>
        <time>2024-03-15T08:00:36.903Z</time>
      </trkpt>
      <trkpt lat="47.96353" lon="4.24804">
        <ele>252.38804</ele>
        <time>2024-03-15T08:01:00.515Z</time>
      </trkpt>
      <trkpt lat="47.96228" lon="4.24491">
        <ele>255.852848</ele>
        <time>2024-03-15T08:02:47.568Z</time>
      </trkpt>
      <trkpt lat="47.96204" lon="4.24383">
        <ele>258.073639</ele>
        <time>2024-03-15T08:03:24.641Z</time>
      </trkpt>
      <trkpt lat="47.96212" lon="4.24213">
        <ele>262.280752</ele>
        <time>2024-03-15T08:04:28.760Z</time>
      </trkpt>
      <trkpt lat="47.9635" lon="4.23932">
        <ele>275.390617</ele>
        <time>2024-03-15T08:07:06.863Z</time>
      </trkpt>
      <trkpt lat="47.96477" lon="4.23615">
        <ele>287.785174</ele>
        <time>2024-03-15T08:09:43.071Z</time>
      </trkpt>
      <trkpt lat="47.96495" lon="4.23482">
        <ele>290.151622</ele>
        <time>2024-03-15T08:10:27.935Z</time>
      </trkpt>
      <trkpt lat="47.9648" lon="4.23357">
        <ele>291.680235</ele>
        <time>2024-03-15T08:11:02.737Z</time>
      </trkpt>
      <trkpt lat="47.96422" lon="4.232">
        <ele>295.265569</ele>
        <time>2024-03-15T08:11:57.597Z</time>
      </trkpt>
      <trkpt lat="47.96642" lon="4.22994">
        <ele>306.9457</ele>
        <time>2024-03-15T08:14:40.071Z</time>
      </trkpt>
      <trkpt lat="47.96591" lon="4.22927">
        <ele>309.728458</ele>
        <time>2024-03-15T08:15:12.045Z</time>
      </trkpt>
      <trkpt lat="47.96516" lon="4.22842">
        <ele>313.476226</ele>
        <time>2024-03-15T08:15:52.000Z</time>
      </trkpt>
      <trkpt lat="47.96485" lon="4.22818">
        <ele>314.692278</ele>
        <time>2024-03-15T08:16:04.478Z</time>
      </trkpt>
      <trkpt lat="47.96407" lon="4.22778">
        <ele>315.797269</ele>
        <time>2024-03-15T08:16:30.670Z</time>
      </trkpt>
      <trkpt lat="47.96371" lon="4.22754">
        <ele>316.324723</ele>
        <time>2024-03-15T08:16:42.035Z</time>
      </trkpt>
      <trkpt lat="47.96319" lon="4.2272">
        <ele>316.922604</ele>
        <time>2024-03-15T08:16:55.190Z</time>
      </trkpt>
      <trkpt lat="47.96292" lon="4.22695">
        <ele>316.282254</ele>
        <time>2024-03-15T08:17:01.658Z</time>
      </trkpt>
      <trkpt lat="47.96271" lon="4.22649">
        <ele>315.503305</ele>
        <time>2024-03-15T08:17:09.058Z</time>
      </trkpt>
      <trkpt lat="47.96265" lon="4.22631">
        <ele>315.244594</ele>
        <time>2024-03-15T08:17:11.472Z</time>
      </trkpt>
      <trkpt lat="47.96195" lon="4.22312">
        <ele>307.628947</ele>
        <time>2024-03-15T08:17:49.857Z</time>
      </trkpt>
      <trkpt lat="47.96166" lon="4.22145">
        <ele>300.329759</ele>
        <time>2024-03-15T08:18:07.172Z</time>
      </trkpt>
      <trkpt lat="47.96132" lon="4.21925">
        <ele>288.727107</ele>
        <time>2024-03-15T08:18:29.132Z</time>
      </trkpt>
      <trkpt lat="47.96129" lon="4.21872">
        <ele>286.048805</ele>
        <time>2024-03-15T08:18:34.445Z</time>
      </trkpt>
      <trkpt lat="47.9613" lon="4.21841">
        <ele>284.501915</ele>
        <time>2024-03-15T08:18:37.546Z</time>
      </trkpt>
      <trkpt lat="47.96141" lon="4.21784">
        <ele>281.57166</ele>
        <time>2024-03-15T08:18:43.487Z</time>
      </trkpt>
      <trkpt lat="47.96155" lon="4.21761">
        <ele>280.023488</ele>
        <time>2024-03-15T08:18:46.660Z</time>
      </trkpt>
      <trkpt lat="47.96206" lon="4.21699">
        <ele>275.678346</ele>
        <time>2024-03-15T08:18:56.751Z</time>
      </trkpt>
      <trkpt lat="47.96207" lon="4.21698">
        <ele>275.661038</ele>
        <time>2024-03-15T08:18:56.793Z</time>
      </trkpt>
      <trkpt lat="47.96277" lon="4.21606">
        <ele>269.916577</ele>
        <time>2024-03-15T08:19:11.229Z</time>
      </trkpt>
      <trkpt lat="47.96289" lon="4.21586">
        <ele>268.825761</ele>
        <time>2024-03-15T08:19:13.981Z</time>
      </trkpt>
      <trkpt lat="47.96299" lon="4.21559">
        <ele>267.585212</ele>
        <time>2024-03-15T08:19:17.106Z</time>
      </trkpt>
      <trkpt lat="47.96304" lon="4.21528">
        <ele>266.676125</ele>
        <time>2024-03-15T08:19:20.371Z</time>
      </trkpt>
      <trkpt lat="47.96307" lon="4.21439">
        <ele>264.427834</ele>
        <time>2024-03-15T08:19:29.727Z</time>
      </trkpt>
      <trkpt lat="47.96316" lon="4.21238">
        <ele>260.554685</ele>
        <time>2024-03-15T08:19:53.605Z</time>
      </trkpt>
      <trkpt lat="47.96315" lon="4.2118">
        <ele>260.576782</ele>
        <time>2024-03-15T08:20:02.311Z</time>
      </trkpt>
      <trkpt lat="47.9631" lon="4.21153">
        <ele>260.58725</ele>
        <time>2024-03-15T08:20:06.884Z</time>
      </trkpt>
      <trkpt lat="47.96287" lon="4.21055">
        <ele>260.626482</ele>
        <time>2024-03-15T08:20:25.392Z</time>
      </trkpt>
      <trkpt lat="47.9625" lon="4.20916">
        <ele>261.73953</ele>
        <time>2024-03-15T08:20:55.924Z</time>
      </trkpt>
      <trkpt lat="47.96231" lon="4.20863">
        <ele>262.295922</ele>
        <time>2024-03-15T08:21:07.705Z</time>
      </trkpt>
      <trkpt lat="47.96199" lon="4.208">
        <ele>263.040199</ele>
        <time>2024-03-15T08:21:22.873Z</time>
      </trkpt>
      <trkpt lat="47.96061" lon="4.20524">
        <ele>265.993676</ele>
        <time>2024-03-15T08:22:27.459Z</time>
      </trkpt>
      <trkpt lat="47.96036" lon="4.20473">
        <ele>266.731147</ele>
        <time>2024-03-15T08:22:40.099Z</time>
      </trkpt>
      <trkpt lat="47.95983" lon="4.20254">
        <ele>270.281015</ele>
        <time>2024-03-15T08:23:30.826Z</time>
      </trkpt>
      <trkpt lat="47.95917" lon="4.19965">
        <ele>277.953775</ele>
        <time>2024-03-15T08:24:53.946Z</time>
      </trkpt>
      <trkpt lat="47.95906" lon="4.19915">
        <ele>279.602543</ele>
        <time>2024-03-15T08:25:10.934Z</time>
      </trkpt>
      <trkpt lat="47.95897" lon="4.1986">
        <ele>281.356453</ele>
        <time>2024-03-15T08:25:29.696Z</time>
      </trkpt>
      <trkpt lat="47.95883" lon="4.19571">
        <ele>292.233034</ele>
        <time>2024-03-15T08:27:11.130Z</time>
      </trkpt>
      <trkpt lat="47.95876" lon="4.19501">
        <ele>293.95165</ele>
        <time>2024-03-15T08:27:32.989Z</time>
      </trkpt>
      <trkpt lat="47.95846" lon="4.19278">
        <ele>298.767409</ele>
        <time>2024-03-15T08:28:27.754Z</time>
      </trkpt>
      <trkpt lat="47.95824" lon="4.19066">
        <ele>301.529328</ele>
        <time>2024-03-15T08:29:09.978Z</time>
      </trkpt>
      <trkpt lat="47.95859" lon="4.18949">
        <ele>304.167757</ele>
        <time>2024-03-15T08:29:41.605Z</time>
      </trkpt>
      <trkpt lat="47.95867" lon="4.18894">
        <ele>305.489148</ele>
        <time>2024-03-15T08:29:56.685Z</time>
      </trkpt>
      <trkpt lat="47.95868" lon="4.18889">
        <ele>305.602477</ele>
        <time>2024-03-15T08:29:57.879Z</time>
      </trkpt>
      <trkpt lat="47.95857" lon="4.18854">
        <ele>306.511068</ele>
        <time>2024-03-15T08:30:08.776Z</time>
      </trkpt>
      <trkpt lat="47.95853" lon="4.18836">
        <ele>306.962518</ele>
        <time>2024-03-15T08:30:14.499Z</time>
      </trkpt>
      <trkpt lat="47.95853" lon="4.18787">
        <ele>308.101209</ele>
        <time>2024-03-15T08:30:29.085Z</time>
      </trkpt>
      <trkpt lat="47.95856" lon="4.18739">
        <ele>309.203827</ele>
        <time>2024-03-15T08:30:43.230Z</time>
      </trkpt>
      <trkpt lat="47.95863" lon="4.18731">
        <ele>309.508254</ele>
        <time>2024-03-15T08:30:46.812Z</time>
      </trkpt>
      <trkpt lat="47.95874" lon="4.18704">
        <ele>310.253589</ele>
        <time>2024-03-15T08:30:55.878Z</time>
      </trkpt>
      <trkpt lat="47.95878" lon="4.18681">
        <ele>310.794756</ele>
        <time>2024-03-15T08:31:02.453Z</time>
      </trkpt>
      <trkpt lat="47.95875" lon="4.18643">
        <ele>311.67063</ele>
        <time>2024-03-15T08:31:13.037Z</time>
      </trkpt>
      <trkpt lat="47.95878" lon="4.18606">
        <ele>312.547185</ele>
        <time>2024-03-15T08:31:22.989Z</time>
      </trkpt>
      <trkpt lat="47.95884" lon="4.18579">
        <ele>313.18885</ele>
        <time>2024-03-15T08:31:30.094Z</time>
      </trkpt>
      <trkpt lat="47.95889" lon="4.18534">
        <ele>314.239378</ele>
        <time>2024-03-15T08:31:40.352Z</time>
      </trkpt>
      <trkpt lat="47.95861" lon="4.18427">
        <ele>315.303651</ele>
        <time>2024-03-15T08:32:05.094Z</time>
      </trkpt>
      <trkpt lat="47.95777" lon="4.18254">
        <ele>316.444006</ele>
        <time>2024-03-15T08:32:41.634Z</time>
      </trkpt>
      <trkpt lat="47.95756" lon="4.1821">
        <ele>316.279185</ele>
        <time>2024-03-15T08:32:49.405Z</time>
      </trkpt>
      <trkpt lat="47.95731" lon="4.18141">
        <ele>316.037792</ele>
        <time>2024-03-15T08:33:00.287Z</time>
      </trkpt>
      <trkpt lat="47.95723" lon="4.18083">
        <ele>315.858095</ele>
        <time>2024-03-15T08:33:08.098Z</time>
      </trkpt>
      <trkpt lat="47.9572" lon="4.18016">
        <ele>315.355317</ele>
        <time>2024-03-15T08:33:16.848Z</time>
      </trkpt>
      <trkpt lat="47.95727" lon="4.17925">
        <ele>314.426377</ele>
        <time>2024-03-15T08:33:28.354Z</time>
      </trkpt>
      <trkpt lat="47.95762" lon="4.17699">
        <ele>312.301734</ele>
        <time>2024-03-15T08:33:57.619Z</time>
      </trkpt>
      <trkpt lat="47.95932" lon="4.1733">
        <ele>309.228266</ele>
        <time>2024-03-15T08:34:57.731Z</time>
      </trkpt>
      <trkpt lat="47.9595" lon="4.1721">
        <ele>308.296513</ele>
        <time>2024-03-15T08:35:13.894Z</time>
      </trkpt>
      <trkpt lat="47.95979" lon="4.17023">
        <ele>306.971669</ele>
        <time>2024-03-15T08:35:39.089Z</time>
      </trkpt>
      <trkpt lat="47.96014" lon="4.16722">
        <ele>305.587109</ele>
        <time>2024-03-15T08:36:20.938Z</time>
      </trkpt>
      <trkpt lat="47.96011" lon="4.16694">
        <ele>305.512969</ele>
        <time>2024-03-15T08:36:25.054Z</time>
      </trkpt>
      <trkpt lat="47.95999" lon="4.16555">
        <ele>305.153938</ele>
        <time>2024-03-15T08:36:45.320Z</time>
      </trkpt>
      <trkpt lat="47.96032" lon="4.16232">
        <ele>304.311692</ele>
        <time>2024-03-15T08:37:33.583Z</time>
      </trkpt>
      <trkpt lat="47.96037" lon="4.16127">
        <ele>303.092841</ele>
        <time>2024-03-15T08:37:46.981Z</time>
      </trkpt>
      <trkpt lat="47.9604" lon="4.15954">
        <ele>301.093</ele>
        <time>2024-03-15T08:38:07.135Z</time>
      </trkpt>
      <trkpt lat="47.96064" lon="4.15821">
        <ele>299.517965</ele>
        <time>2024-03-15T08:38:23.979Z</time>
      </trkpt>
      <trkpt lat="47.96061" lon="4.15778">
        <ele>299.020797</ele>
        <time>2024-03-15T08:38:29.909Z</time>
      </trkpt>
      <trkpt lat="47.96054" lon="4.15668">
        <ele>298.705667</ele>
        <time>2024-03-15T08:38:46.408Z</time>
      </trkpt>
      <trkpt lat="47.96039" lon="4.15538">
        <ele>298.744515</ele>
        <time>2024-03-15T08:39:09.032Z</time>
      </trkpt>
      <trkpt lat="47.96039" lon="4.15495">
        <ele>298.757266</ele>
        <time>2024-03-15T08:39:15.732Z</time>
      </trkpt>
      <trkpt lat="47.96044" lon="4.15416">
        <ele>297.72072</ele>
        <time>2024-03-15T08:39:26.647Z</time>
      </trkpt>
      <trkpt lat="47.96063" lon="4.15208">
        <ele>294.342902</ele>
        <time>2024-03-15T08:39:51.015Z</time>
      </trkpt>
      <trkpt lat="47.96058" lon="4.15072">
        <ele>290.530158</ele>
        <time>2024-03-15T08:40:05.884Z</time>
      </trkpt>
      <trkpt lat="47.96051" lon="4.14992">
        <ele>288.301183</ele>
        <time>2024-03-15T08:40:14.521Z</time>
      </trkpt>
      <trkpt lat="47.95953" lon="4.14772">
        <ele>280.91571</ele>
        <time>2024-03-15T08:41:06.618Z</time>
      </trkpt>
      <trkpt lat="47.95849" lon="4.14553">
        <ele>274.935463</ele>
        <time>2024-03-15T08:42:01.833Z</time>
      </trkpt>
      <trkpt lat="47.9583" lon="4.14446">
        <ele>272.179551</ele>
        <time>2024-03-15T08:42:25.620Z</time>
      </trkpt>
      <trkpt lat="47.95757" lon="4.14246">
        <ele>265.129706</ele>
        <time>2024-03-15T08:43:10.679Z</time>
      </trkpt>
      <trkpt lat="47.95734" lon="4.14146">
        <ele>258.65401</ele>
        <time>2024-03-15T08:43:29.450Z</time>
      </trkpt>
      <trkpt lat="47.95706" lon="4.14066">
        <ele>253.175057</ele>
        <time>2024-03-15T08:43:44.805Z</time>
      </trkpt>
      <trkpt lat="47.95672" lon="4.13986">
        <ele>246.538599</ele>
        <time>2024-03-15T08:44:00.767Z</time>
      </trkpt>
      <trkpt lat="47.95659" lon="4.13899">
        <ele>239.43729</ele>
        <time>2024-03-15T08:44:15.511Z</time>
      </trkpt>
      <trkpt lat="47.95664" lon="4.13853">
        <ele>235.664237</ele>
        <time>2024-03-15T08:44:23.326Z</time>
      </trkpt>
      <trkpt lat="47.95667" lon="4.13792">
        <ele>230.740805</ele>
        <time>2024-03-15T08:44:33.547Z</time>
      </trkpt>
      <trkpt lat="47.95669" lon="4.13755">
        <ele>227.982037</ele>
        <time>2024-03-15T08:44:39.814Z</time>
      </trkpt>
      <trkpt lat="47.95623" lon="4.13659">
        <ele>221.19598</ele>
        <time>2024-03-15T08:45:00.218Z</time>
      </trkpt>
      <trkpt lat="47.95614" lon="4.13636">
        <ele>219.603496</ele>
        <time>2024-03-15T08:45:05.079Z</time>
      </trkpt>
      <trkpt lat="47.95612" lon="4.13585">
        <ele>216.660488</ele>
        <time>2024-03-15T08:45:14.195Z</time>
      </trkpt>
      <trkpt lat="47.95641" lon="4.13473">
        <ele>211.893515</ele>
        <time>2024-03-15T08:45:27.144Z</time>
      </trkpt>
      <trkpt lat="47.95633" lon="4.1346">
        <ele>211.55804</ele>
        <time>2024-03-15T08:45:28.992Z</time>
      </trkpt>
      <trkpt lat="47.95602" lon="4.13428">
        <ele>210.391755</ele>
        <time>2024-03-15T08:45:35.919Z</time>
      </trkpt>
      <trkpt lat="47.95557" lon="4.13403">
        <ele>208.952577</ele>
        <time>2024-03-15T08:45:45.445Z</time>
      </trkpt>
      <trkpt lat="47.95573" lon="4.13343">
        <ele>207.625932</ele>
        <time>2024-03-15T08:45:53.955Z</time>
      </trkpt>
      <trkpt lat="47.95581" lon="4.13321">
        <ele>207.49662</ele>
        <time>2024-03-15T08:45:56.999Z</time>
      </trkpt>
      <trkpt lat="47.95567" lon="4.133">
        <ele>207.380956</ele>
        <time>2024-03-15T08:46:00.823Z</time>
      </trkpt>
      <trkpt lat="47.9553" lon="4.13236">
        <ele>207.045425</ele>
        <time>2024-03-15T08:46:12.425Z</time>
      </trkpt>
      <trkpt lat="47.95525" lon="4.1322">
        <ele>206.974762</ele>
        <time>2024-03-15T08:46:14.960Z</time>
      </trkpt>
      <trkpt lat="47.95535" lon="4.13173">
        <ele>206.777377</ele>
        <time>2024-03-15T08:46:22.114Z</time>
      </trkpt>
      <trkpt lat="47.95566" lon="4.13203">
        <ele>206.55553</ele>
        <time>2024-03-15T08:46:30.438Z</time>
      </trkpt>
      <trkpt lat="47.95567" lon="4.13203">
        <ele>206.551237</ele>
        <time>2024-03-15T08:46:30.603Z</time>
      </trkpt>
      <trkpt lat="47.95582" lon="4.13199">
        <ele>206.589246</ele>
        <time>2024-03-15T08:46:34.063Z</time>
      </trkpt>
      <trkpt lat="47.95619" lon="4.13155">
        <ele>206.941465</ele>
        <time>2024-03-15T08:46:45.159Z</time>
      </trkpt>
      <trkpt lat="47.95656" lon="4.13126">
        <ele>207.24942</ele>
        <time>2024-03-15T08:46:55.705Z</time>
      </trkpt>
      <trkpt lat="47.95668" lon="4.13101">
        <ele>207.398393</ele>
        <time>2024-03-15T08:47:01.186Z</time>
      </trkpt>
      <trkpt lat="47.95678" lon="4.13076">
        <ele>207.542789</ele>
        <time>2024-03-15T08:47:06.697Z</time>
      </trkpt>
      <trkpt lat="47.95675" lon="4.13074">
        <ele>207.562699</ele>
        <time>2024-03-15T08:47:07.485Z</time>
      </trkpt>
      <trkpt lat="47.9566" lon="4.1306">
        <ele>207.690524</ele>
        <time>2024-03-15T08:47:12.451Z</time>
      </trkpt>
      <trkpt lat="47.95625" lon="4.13031">
        <ele>208.480563</ele>
        <time>2024-03-15T08:47:25.163Z</time>
      </trkpt>
      <trkpt lat="47.95567" lon="4.12998">
        <ele>210.47195</ele>
        <time>2024-03-15T08:47:47.806Z</time>
      </trkpt>
      <trkpt lat="47.95497" lon="4.12946">
        <ele>212.956484</ele>
        <time>2024-03-15T08:48:18.703Z</time>
      </trkpt>
      <trkpt lat="47.95481" lon="4.12934">
        <ele>213.55082</ele>
        <time>2024-03-15T08:48:27.155Z</time>
      </trkpt>
      <trkpt lat="47.95453" lon="4.12913">
        <ele>215.36639</ele>
        <time>2024-03-15T08:48:40.900Z</time>
      </trkpt>
      <trkpt lat="47.95421" lon="4.12902">
        <ele>217.393663</ele>
        <time>2024-03-15T08:48:59.235Z</time>
      </trkpt>
      <trkpt lat="47.95356" lon="4.12901">
        <ele>221.328725</ele>
        <time>2024-03-15T08:49:38.162Z</time>
      </trkpt>
      <trkpt lat="47.95306" lon="4.12881">
        <ele>224.477852</ele>
        <time>2024-03-15T08:50:12.310Z</time>
      </trkpt>
      <trkpt lat="47.95141" lon="4.1278">
        <ele>238.54534</ele>
        <time>2024-03-15T08:52:18.527Z</time>
      </trkpt>
      <trkpt lat="47.95" lon="4.12683">
        <ele>248.432635</ele>
        <time>2024-03-15T08:53:52.890Z</time>
      </trkpt>
      <trkpt lat="47.94902" lon="4.12604">
        <ele>254.76062</ele>
        <time>2024-03-15T08:54:55.542Z</time>
      </trkpt>
      <trkpt lat="47.94831" lon="4.12551">
        <ele>259.102171</ele>
        <time>2024-03-15T08:55:41.180Z</time>
      </trkpt>
      <trkpt lat="47.94745" lon="4.12458">
        <ele>264.127577</ele>
        <time>2024-03-15T08:56:39.685Z</time>
      </trkpt>
      <trkpt lat="47.94668" lon="4.12409">
        <ele>267.981932</ele>
        <time>2024-03-15T08:57:21.477Z</time>
      </trkpt>
      <trkpt lat="47.94568" lon="4.1234">
        <ele>271.809235</ele>
        <time>2024-03-15T08:58:12.721Z</time>
      </trkpt>
      <trkpt lat="47.9452" lon="4.12288">
        <ele>273.828517</ele>
        <time>2024-03-15T08:58:39.763Z</time>
      </trkpt>
      <trkpt lat="47.94473" lon="4.12229">
        <ele>275.656244</ele>
        <time>2024-03-15T08:59:07.294Z</time>
      </trkpt>
      <trkpt lat="47.94415" lon="4.12163">
        <ele>277.749684</ele>
        <time>2024-03-15T08:59:39.832Z</time>
      </trkpt>
      <trkpt lat="47.94284" lon="4.1205">
        <ele>281.915638</ele>
        <time>2024-03-15T09:00:42.358Z</time>
      </trkpt>
      <trkpt lat="47.94261" lon="4.12022">
        <ele>282.711411</ele>
        <time>2024-03-15T09:00:55.049Z</time>
      </trkpt>
      <trkpt lat="47.94239" lon="4.11989">
        <ele>283.558131</ele>
        <time>2024-03-15T09:01:08.750Z</time>
      </trkpt>
      <trkpt lat="47.94226" lon="4.11974">
        <ele>284.010548</ele>
        <time>2024-03-15T09:01:15.040Z</time>
      </trkpt>
      <trkpt lat="47.94155" lon="4.11875">
        <ele>286.25354</ele>
        <time>2024-03-15T09:01:52.005Z</time>
      </trkpt>
      <trkpt lat="47.94044" lon="4.11791">
        <ele>288.028784</ele>
        <time>2024-03-15T09:02:31.004Z</time>
      </trkpt>
      <trkpt lat="47.93943" lon="4.1166">
        <ele>286.176278</ele>
        <time>2024-03-15T09:02:56.338Z</time>
      </trkpt>
      <trkpt lat="47.93828" lon="4.11482">
        <ele>279.819447</ele>
        <time>2024-03-15T09:03:23.179Z</time>
      </trkpt>
      <trkpt lat="47.93842" lon="4.11467">
        <ele>279.110247</ele>
        <time>2024-03-15T09:03:28.152Z</time>
      </trkpt>
      <trkpt lat="47.93865" lon="4.1145">
        <ele>278.1088</ele>
        <time>2024-03-15T09:03:35.488Z</time>
      </trkpt>
      <trkpt lat="47.9391" lon="4.11407">
        <ele>276.074387</ele>
        <time>2024-03-15T09:03:51.490Z</time>
      </trkpt>
      <trkpt lat="47.93919" lon="4.11393">
        <ele>275.575124</ele>
        <time>2024-03-15T09:03:55.451Z</time>
      </trkpt>
      <trkpt lat="47.9395" lon="4.11317">
        <ele>273.343001</ele>
        <time>2024-03-15T09:04:13.369Z</time>
      </trkpt>
      <trkpt lat="47.93951" lon="4.11317">
        <ele>273.334537</ele>
        <time>2024-03-15T09:04:13.432Z</time>
      </trkpt>
      <trkpt lat="47.93965" lon="4.1129">
        <ele>272.46618</ele>
        <time>2024-03-15T09:04:20.497Z</time>
      </trkpt>
      <trkpt lat="47.94023" lon="4.11233">
        <ele>270.143792</ele>
        <time>2024-03-15T09:04:41.810Z</time>
      </trkpt>
      <trkpt lat="47.9407" lon="4.11176">
        <ele>268.210092</ele>
        <time>2024-03-15T09:05:00.589Z</time>
      </trkpt>
      <trkpt lat="47.94084" lon="4.11167">
        <ele>267.721406</ele>
        <time>2024-03-15T09:05:05.326Z</time>
      </trkpt>
      <trkpt lat="47.94142" lon="4.10999">
        <ele>263.813446</ele>
        <time>2024-03-15T09:05:44.477Z</time>
      </trkpt>
      <trkpt lat="47.94155" lon="4.10975">
        <ele>263.208628</ele>
        <time>2024-03-15T09:05:50.698Z</time>
      </trkpt>
      <trkpt lat="47.9423" lon="4.10879">
        <ele>260.298475</ele>
        <time>2024-03-15T09:06:21.459Z</time>
      </trkpt>
      <trkpt lat="47.94251" lon="4.10846">
        <ele>259.526431</ele>
        <time>2024-03-15T09:06:30.942Z</time>
      </trkpt>
      <trkpt lat="47.94273" lon="4.10798">
        <ele>258.515485</ele>
        <time>2024-03-15T09:06:43.434Z</time>
      </trkpt>
      <trkpt lat="47.94306" lon="4.10708">
        <ele>256.760985</ele>
        <time>2024-03-15T09:07:05.166Z</time>
      </trkpt>
      <trkpt lat="47.94314" lon="4.10694">
        <ele>256.43029</ele>
        <time>2024-03-15T09:07:09.289Z</time>
      </trkpt>
      <trkpt lat="47.94354" lon="4.10651">
        <ele>255.33121</ele>
        <time>2024-03-15T09:07:24.853Z</time>
      </trkpt>
      <trkpt lat="47.9438" lon="4.10619">
        <ele>254.623234</ele>
        <time>2024-03-15T09:07:35.793Z</time>
      </trkpt>
      <trkpt lat="47.94398" lon="4.10574">
        <ele>253.887949</ele>
        <time>2024-03-15T09:07:47.216Z</time>
      </trkpt>
      <trkpt lat="47.94414" lon="4.10521">
        <ele>253.082325</ele>
        <time>2024-03-15T09:07:59.832Z</time>
      </trkpt>
      <trkpt lat="47.94428" lon="4.10482">
        <ele>252.46479</ele>
        <time>2024-03-15T09:08:09.533Z</time>
      </trkpt>
      <trkpt lat="47.94456" lon="4.10439">
        <ele>251.660746</ele>
        <time>2024-03-15T09:08:22.820Z</time>
      </trkpt>
      <trkpt lat="47.94495" lon="4.1041">
        <ele>250.821263</ele>
        <time>2024-03-15T09:08:36.944Z</time>
      </trkpt>
      <trkpt lat="47.94525" lon="4.10393">
        <ele>250.182034</ele>
        <time>2024-03-15T09:08:47.698Z</time>
      </trkpt>
      <trkpt lat="47.94556" lon="4.1039">
        <ele>249.582613</ele>
        <time>2024-03-15T09:08:57.708Z</time>
      </trkpt>
      <trkpt lat="47.94581" lon="4.10369">
        <ele>249.015343</ele>
        <time>2024-03-15T09:09:07.122Z</time>
      </trkpt>
      <trkpt lat="47.94636" lon="4.10292">
        <ele>247.404771</ele>
        <time>2024-03-15T09:09:31.204Z</time>
      </trkpt>
      <trkpt lat="47.94659" lon="4.1027">
        <ele>246.801674</ele>
        <time>2024-03-15T09:09:40.130Z</time>
      </trkpt>
      <trkpt lat="47.94649" lon="4.10255">
        <ele>246.491278</ele>
        <time>2024-03-15T09:09:44.578Z</time>
      </trkpt>
      <trkpt lat="47.94657" lon="4.10222">
        <ele>245.983121</ele>
        <time>2024-03-15T09:09:52.134Z</time>
      </trkpt>
      <trkpt lat="47.94673" lon="4.10184">
        <ele>245.312712</ele>
        <time>2024-03-15T09:10:02.004Z</time>
      </trkpt>
      <trkpt lat="47.94699" lon="4.10072">
        <ele>243.58335</ele>
        <time>2024-03-15T09:10:27.555Z</time>
      </trkpt>
      <trkpt lat="47.94708" lon="4.10005">
        <ele>242.579</ele>
        <time>2024-03-15T09:10:42.270Z</time>
      </trkpt>
      <trkpt lat="47.94711" lon="4.09943">
        <ele>241.675813</ele>
        <time>2024-03-15T09:10:55.621Z</time>
      </trkpt>
      <trkpt lat="47.94734" lon="4.09857">
        <ele>240.338114</ele>
        <time>2024-03-15T09:11:15.816Z</time>
      </trkpt>
      <trkpt lat="47.94789" lon="4.0976">
        <ele>238.593646</ele>
        <time>2024-03-15T09:11:43.088Z</time>
      </trkpt>
      <trkpt lat="47.94801" lon="4.0973">
        <ele>238.109793</ele>
        <time>2024-03-15T09:11:50.674Z</time>
      </trkpt>
      <trkpt lat="47.9482" lon="4.09648">
        <ele>236.96709</ele>
        <time>2024-03-15T09:12:09.823Z</time>
      </trkpt>
      <trkpt lat="47.94832" lon="4.09615">
        <ele>236.560214</ele>
        <time>2024-03-15T09:12:18.299Z</time>
      </trkpt>
      <trkpt lat="47.94857" lon="4.09568">
        <ele>235.925536</ele>
        <time>2024-03-15T09:12:31.635Z</time>
      </trkpt>
      <trkpt lat="47.94876" lon="4.09547">
        <ele>235.546034</ele>
        <time>2024-03-15T09:12:36.375Z</time>
      </trkpt>
      <trkpt lat="47.949" lon="4.09528">
        <ele>235.118103</ele>
        <time>2024-03-15T09:12:41.724Z</time>
      </trkpt>
      <trkpt lat="47.94924" lon="4.09518">
        <ele>234.715755</ele>
        <time>2024-03-15T09:12:46.725Z</time>
      </trkpt>
      <trkpt lat="47.94965" lon="4.09512">
        <ele>234.064404</ele>
        <time>2024-03-15T09:12:54.766Z</time>
      </trkpt>
      <trkpt lat="47.94996" lon="4.095">
        <ele>233.535531</ele>
        <time>2024-03-15T09:13:01.260Z</time>
      </trkpt>
      <trkpt lat="47.9502" lon="4.09483">
        <ele>233.111937</ele>
        <time>2024-03-15T09:13:06.426Z</time>
      </trkpt>
      <trkpt lat="47.95036" lon="4.09458">
        <ele>232.740447</ele>
        <time>2024-03-15T09:13:10.967Z</time>
      </trkpt>
      <trkpt lat="47.95048" lon="4.09423">
        <ele>232.315217</ele>
        <time>2024-03-15T09:13:16.153Z</time>
      </trkpt>
      <trkpt lat="47.9505" lon="4.09397">
        <ele>232.036531</ele>
        <time>2024-03-15T09:13:19.511Z</time>
      </trkpt>
      <trkpt lat="47.95044" lon="4.09349">
        <ele>231.508696</ele>
        <time>2024-03-15T09:13:25.875Z</time>
      </trkpt>
      <trkpt lat="47.95045" lon="4.09309">
        <ele>231.389826</ele>
        <time>2024-03-15T09:13:31.158Z</time>
      </trkpt>
      <trkpt lat="47.9505" lon="4.09278">
        <ele>231.396284</ele>
        <time>2024-03-15T09:13:35.616Z</time>
      </trkpt>
      <trkpt lat="47.95057" lon="4.09252">
        <ele>231.40215</ele>
        <time>2024-03-15T09:13:39.820Z</time>
      </trkpt>
      <trkpt lat="47.95081" lon="4.09217">
        <ele>231.412118</ele>
        <time>2024-03-15T09:13:47.653Z</time>
      </trkpt>
      <trkpt lat="47.95081" lon="4.09217">
        <ele>231.412118</ele>
        <time>2024-03-15T09:13:47.657Z</time>
      </trkpt>
      <trkpt lat="47.95104" lon="4.0919">
        <ele>231.420919</ele>
        <time>2024-03-15T09:13:55.479Z</time>
      </trkpt>
      <trkpt lat="47.9511" lon="4.09174">
        <ele>231.424656</ele>
        <time>2024-03-15T09:13:58.832Z</time>
      </trkpt>
      <trkpt lat="47.95092" lon="4.09127">
        <ele>231.435738</ele>
        <time>2024-03-15T09:14:08.779Z</time>
      </trkpt>
      <trkpt lat="47.95078" lon="4.09083">
        <ele>231.668147</ele>
        <time>2024-03-15T09:14:17.573Z</time>
      </trkpt>
      <trkpt lat="47.95072" lon="4.09049">
        <ele>231.904538</ele>
        <time>2024-03-15T09:14:24.080Z</time>
      </trkpt>
      <trkpt lat="47.95075" lon="4.08962">
        <ele>232.478736</ele>
        <time>2024-03-15T09:14:40.119Z</time>
      </trkpt>
      <trkpt lat="47.95094" lon="4.08864">
        <ele>233.155987</ele>
        <time>2024-03-15T09:14:59.318Z</time>
      </trkpt>
      <trkpt lat="47.95096" lon="4.08807">
        <ele>233.621144</ele>
        <time>2024-03-15T09:15:08.663Z</time>
      </trkpt>
      <trkpt lat="47.95096" lon="4.08689">
        <ele>234.619442</ele>
        <time>2024-03-15T09:15:28.937Z</time>
      </trkpt>
      <trkpt lat="47.95097" lon="4.08595">
        <ele>235.41453</ele>
        <time>2024-03-15T09:15:48.483Z</time>
      </trkpt>
      <trkpt lat="47.951" lon="4.08575">
        <ele>235.66515</ele>
        <time>2024-03-15T09:15:53.429Z</time>
      </trkpt>
      <trkpt lat="47.95094" lon="4.08556">
        <ele>235.969842</ele>
        <time>2024-03-15T09:16:00.343Z</time>
      </trkpt>
      <trkpt lat="47.95083" lon="4.08476">
        <ele>237.177542</ele>
        <time>2024-03-15T09:16:28.515Z</time>
      </trkpt>
      <trkpt lat="47.95071" lon="4.08407">
        <ele>238.227368</ele>
        <time>2024-03-15T09:16:52.483Z</time>
      </trkpt>
      <trkpt lat="47.95038" lon="4.08287">
        <ele>239.292789</ele>
        <time>2024-03-15T09:17:32.924Z</time>
      </trkpt>
      <trkpt lat="47.95039" lon="4.07969">
        <ele>237.318626</ele>
        <time>2024-03-15T09:18:45.398Z</time>
      </trkpt>
      <trkpt lat="47.95186" lon="4.07468">
        <ele>230.460214</ele>
        <time>2024-03-15T09:20:43.384Z</time>
      </trkpt>
      <trkpt lat="47.95239" lon="4.07306">
        <ele>229.074987</ele>
        <time>2024-03-15T09:21:25.836Z</time>
      </trkpt>
      <trkpt lat="47.95368" lon="4.07016">
        <ele>228.138492</ele>
        <time>2024-03-15T09:22:51.935Z</time>
      </trkpt>
      <trkpt lat="47.954" lon="4.06871">
        <ele>227.210465</ele>
        <time>2024-03-15T09:23:26.110Z</time>
      </trkpt>
      <trkpt lat="47.95408" lon="4.06818">
        <ele>226.993492</ele>
        <time>2024-03-15T09:23:38.380Z</time>
      </trkpt>
      <trkpt lat="47.9541" lon="4.06811">
        <ele>226.973002</ele>
        <time>2024-03-15T09:23:40.010Z</time>
      </trkpt>
      <trkpt lat="47.95462" lon="4.06689">
        <ele>226.571359</ele>
        <time>2024-03-15T09:24:13.259Z</time>
      </trkpt>
      <trkpt lat="47.9548" lon="4.06627">
        <ele>226.383217</ele>
        <time>2024-03-15T09:24:31.273Z</time>
      </trkpt>
      <trkpt lat="47.95503" lon="4.06535">
        <ele>228.18639</ele>
        <time>2024-03-15T09:25:02.357Z</time>
      </trkpt>
      <trkpt lat="47.95471" lon="4.06548">
        <ele>229.268214</ele>
        <time>2024-03-15T09:25:20.092Z</time>
      </trkpt>
      <trkpt lat="47.95445" lon="4.06548">
        <ele>230.090032</ele>
        <time>2024-03-15T09:25:34.441Z</time>
      </trkpt>
      <trkpt lat="47.95422" lon="4.06543">
        <ele>230.844103</ele>
        <time>2024-03-15T09:25:47.850Z</time>
      </trkpt>
      <trkpt lat="47.95384" lon="4.06522">
        <ele>232.162565</ele>
        <time>2024-03-15T09:26:11.904Z</time>
      </trkpt>
      <trkpt lat="47.95309" lon="4.06444">
        <ele>236.163094</ele>
        <time>2024-03-15T09:27:08.866Z</time>
      </trkpt>
      <trkpt lat="47.95271" lon="4.06423">
        <ele>237.960365</ele>
        <time>2024-03-15T09:27:33.991Z</time>
      </trkpt>
      <trkpt lat="47.95177" lon="4.06383">
        <ele>240.631112</ele>
        <time>2024-03-15T09:28:27.034Z</time>
      </trkpt>
      <trkpt lat="47.95138" lon="4.06375">
        <ele>241.062409</ele>
        <time>2024-03-15T09:28:44.646Z</time>
      </trkpt>
      <trkpt lat="47.95108" lon="4.06368">
        <ele>241.39949</ele>
        <time>2024-03-15T09:28:57.135Z</time>
      </trkpt>
      <trkpt lat="47.9506" lon="4.06371">
        <ele>241.921608</ele>
        <time>2024-03-15T09:29:14.281Z</time>
      </trkpt>
      <trkpt lat="47.95019" lon="4.06387">
        <ele>241.169595</ele>
        <time>2024-03-15T09:29:28.433Z</time>
      </trkpt>
      <trkpt lat="47.94978" lon="4.06408">
        <ele>239.870939</ele>
        <time>2024-03-15T09:29:42.048Z</time>
      </trkpt>
      <trkpt lat="47.94949" lon="4.06413">
        <ele>238.996085</ele>
        <time>2024-03-15T09:29:50.975Z</time>
      </trkpt>
      <trkpt lat="47.94923" lon="4.06409">
        <ele>238.218133</ele>
        <time>2024-03-15T09:29:58.839Z</time>
      </trkpt>
      <trkpt lat="47.94838" lon="4.06331">
        <ele>233.978164</ele>
        <time>2024-03-15T09:30:28.550Z</time>
      </trkpt>
      <trkpt lat="47.94792" lon="4.06293">
        <ele>231.105982</ele>
        <time>2024-03-15T09:30:43.443Z</time>
      </trkpt>
      <trkpt lat="47.94757" lon="4.06267">
        <ele>228.901862</ele>
        <time>2024-03-15T09:30:54.530Z</time>
      </trkpt>
      <trkpt lat="47.9469" lon="4.06228">
        <ele>224.937959</ele>
        <time>2024-03-15T09:31:13.906Z</time>
      </trkpt>
      <trkpt lat="47.94655" lon="4.0619">
        <ele>222.525859</ele>
        <time>2024-03-15T09:31:25.905Z</time>
      </trkpt>
      <trkpt lat="47.94588" lon="4.06098">
        <ele>217.467201</ele>
        <time>2024-03-15T09:31:51.755Z</time>
      </trkpt>
      <trkpt lat="47.9458" lon="4.06075">
        <ele>216.776523</ele>
        <time>2024-03-15T09:31:54.630Z</time>
      </trkpt>
      <trkpt lat="47.94569" lon="4.06051">
        <ele>217.045883</ele>
        <time>2024-03-15T09:31:57.923Z</time>
      </trkpt>
      <trkpt lat="47.94545" lon="4.06017">
        <ele>217.506597</ele>
        <time>2024-03-15T09:32:04.318Z</time>
      </trkpt>
      <trkpt lat="47.94464" lon="4.05942">
        <ele>218.823737</ele>
        <time>2024-03-15T09:32:38.487Z</time>
      </trkpt>
      <trkpt lat="47.94376" lon="4.05836">
        <ele>223.606407</ele>
        <time>2024-03-15T09:33:35.154Z</time>
      </trkpt>
      <trkpt lat="47.94303" lon="4.05742">
        <ele>228.612751</ele>
        <time>2024-03-15T09:34:23.540Z</time>
      </trkpt>
      <trkpt lat="47.9424" lon="4.05672">
        <ele>231.524306</ele>
        <time>2024-03-15T09:34:55.928Z</time>
      </trkpt>
      <trkpt lat="47.94205" lon="4.05645">
        <ele>232.991521</ele>
        <time>2024-03-15T09:35:10.703Z</time>
      </trkpt>
      <trkpt lat="47.94168" lon="4.05633">
        <ele>234.410359</ele>
        <time>2024-03-15T09:35:25.038Z</time>
      </trkpt>
      <trkpt lat="47.94129" lon="4.0563">
        <ele>235.960149</ele>
        <time>2024-03-15T09:35:39.980Z</time>
      </trkpt>
      <trkpt lat="47.94108" lon="4.05632">
        <ele>236.869315</ele>
        <time>2024-03-15T09:35:48.473Z</time>
      </trkpt>
      <trkpt lat="47.94078" lon="4.05636">
        <ele>238.186893</ele>
        <time>2024-03-15T09:36:01.103Z</time>
      </trkpt>
      <trkpt lat="47.93907" lon="4.05689">
        <ele>245.583387</ele>
        <time>2024-03-15T09:37:22.991Z</time>
      </trkpt>
      <trkpt lat="47.93871" lon="4.05691">
        <ele>247.005691</ele>
        <time>2024-03-15T09:37:38.350Z</time>
      </trkpt>
      <trkpt lat="47.93823" lon="4.05679">
        <ele>248.929118</ele>
        <time>2024-03-15T09:37:57.692Z</time>
      </trkpt>
      <trkpt lat="47.93716" lon="4.05621">
        <ele>252.386425</ele>
        <time>2024-03-15T09:38:38.771Z</time>
      </trkpt>
      <trkpt lat="47.9334" lon="4.05421">
        <ele>261.126957</ele>
        <time>2024-03-15T09:40:59.621Z</time>
      </trkpt>
      <trkpt lat="47.934" lon="4.05327">
        <ele>260.706587</ele>
        <time>2024-03-15T09:41:28.795Z</time>
      </trkpt>
      <trkpt lat="47.93435" lon="4.05293">
        <ele>259.031354</ele>
        <time>2024-03-15T09:41:41.564Z</time>
      </trkpt>
      <trkpt lat="47.93515" lon="4.05207">
        <ele>255.099977</ele>
        <time>2024-03-15T09:42:09.896Z</time>
      </trkpt>
      <trkpt lat="47.93587" lon="4.0516">
        <ele>251.103243</ele>
        <time>2024-03-15T09:42:32.169Z</time>
      </trkpt>
      <trkpt lat="47.93708" lon="4.04993">
        <ele>242.708531</ele>
        <time>2024-03-15T09:43:19.352Z</time>
      </trkpt>
      <trkpt lat="47.93753" lon="4.04915">
        <ele>239.46869</ele>
        <time>2024-03-15T09:43:39.616Z</time>
      </trkpt>
      <trkpt lat="47.93797" lon="4.04615">
        <ele>230.813135</ele>
        <time>2024-03-15T09:44:40.420Z</time>
      </trkpt>
      <trkpt lat="47.93797" lon="4.04615">
        <ele>230.813135</ele>
        <time>2024-03-15T09:44:40.426Z</time>
      </trkpt>
      <trkpt lat="47.93815" lon="4.04518">
        <ele>228.456616</ele>
        <time>2024-03-15T09:45:00.987Z</time>
      </trkpt>
      <trkpt lat="47.93844" lon="4.04457">
        <ele>226.98555</ele>
        <time>2024-03-15T09:45:16.403Z</time>
      </trkpt>
      <trkpt lat="47.94021" lon="4.04351">
        <ele>221.618493</ele>
        <time>2024-03-15T09:46:16.633Z</time>
      </trkpt>
      <trkpt lat="47.94056" lon="4.04338">
        <ele>220.663209</ele>
        <time>2024-03-15T09:46:27.950Z</time>
      </trkpt>
      <trkpt lat="47.94095" lon="4.04294">
        <ele>219.38917</ele>
        <time>2024-03-15T09:46:42.989Z</time>
      </trkpt>
      <trkpt lat="47.94179" lon="4.04148">
        <ele>217.439645</ele>
        <time>2024-03-15T09:47:24.330Z</time>
      </trkpt>
      <trkpt lat="47.94237" lon="4.041">
        <ele>216.951679</ele>
        <time>2024-03-15T09:47:49.398Z</time>
      </trkpt>
      <trkpt lat="47.94258" lon="4.04081">
        <ele>217.416211</ele>
        <time>2024-03-15T09:48:00.346Z</time>
      </trkpt>
      <trkpt lat="47.9427" lon="4.04077">
        <ele>217.645801</ele>
        <time>2024-03-15T09:48:05.482Z</time>
      </trkpt>
      <trkpt lat="47.94311" lon="4.0409">
        <ele>218.443332</ele>
        <time>2024-03-15T09:48:25.067Z</time>
      </trkpt>
      <trkpt lat="47.9436" lon="4.04064">
        <ele>219.45017</ele>
        <time>2024-03-15T09:48:51.240Z</time>
      </trkpt>
      <trkpt lat="47.94392" lon="4.04041">
        <ele>220.113434</ele>
        <time>2024-03-15T09:49:09.402Z</time>
      </trkpt>
      <trkpt lat="47.94374" lon="4.04015">
        <ele>220.739689</ele>
        <time>2024-03-15T09:49:22.610Z</time>
      </trkpt>
      <trkpt lat="47.94305" lon="4.03937">
        <ele>222.900047</ele>
        <time>2024-03-15T09:50:06.777Z</time>
      </trkpt>
      <trkpt lat="47.94204" lon="4.03806">
        <ele>225.867277</ele>
        <time>2024-03-15T09:51:09.614Z</time>
      </trkpt>
      <trkpt lat="47.94113" lon="4.03705">
        <ele>228.032982</ele>
        <time>2024-03-15T09:52:01.691Z</time>
      </trkpt>
      <trkpt lat="47.94016" lon="4.03613">
        <ele>230.401315</ele>
        <time>2024-03-15T09:52:57.347Z</time>
      </trkpt>
      <trkpt lat="47.93865" lon="4.03465">
        <ele>232.404836</ele>
        <time>2024-03-15T09:54:20.433Z</time>
      </trkpt>
      <trkpt lat="47.94106" lon="4.03062">
        <ele>229.539854</ele>
        <time>2024-03-15T09:56:21.498Z</time>
      </trkpt>
      <trkpt lat="47.94148" lon="4.02988">
        <ele>229.261357</ele>
        <time>2024-03-15T09:56:45.766Z</time>
      </trkpt>
      <trkpt lat="47.93822" lon="4.02669">
        <ele>240.253453</ele>
        <time>2024-03-15T10:00:15.099Z</time>
      </trkpt>
      <trkpt lat="47.93779" lon="4.02725">
        <ele>240.472109</ele>
        <time>2024-03-15T10:00:30.800Z</time>
      </trkpt>
      <trkpt lat="47.93778" lon="4.02708">
        <ele>240.517398</ele>
        <time>2024-03-15T10:00:35.210Z</time>
      </trkpt>
      <trkpt lat="47.9382" lon="4.02652">
        <ele>240.737033</ele>
        <time>2024-03-15T10:00:55.494Z</time>
      </trkpt>
      <trkpt lat="47.93711" lon="4.02295">
        <ele>234.825512</ele>
        <time>2024-03-15T10:02:18.210Z</time>
      </trkpt>
      <trkpt lat="47.93662" lon="4.02144">
        <ele>232.190443</ele>
        <time>2024-03-15T10:02:54.147Z</time>
      </trkpt>
      <trkpt lat="47.93637" lon="4.02096">
        <ele>231.268452</ele>
        <time>2024-03-15T10:03:07.470Z</time>
      </trkpt>
      <trkpt lat="47.93602" lon="4.02043">
        <ele>230.154913</ele>
        <time>2024-03-15T10:03:23.805Z</time>
      </trkpt>
      <trkpt lat="47.93597" lon="4.0203">
        <ele>229.927707</ele>
        <time>2024-03-15T10:03:27.153Z</time>
      </trkpt>
      <trkpt lat="47.93592" lon="4.01952">
        <ele>228.738739</ele>
        <time>2024-03-15T10:03:44.033Z</time>
      </trkpt>
      <trkpt lat="47.93651" lon="4.01957">
        <ele>227.329592</ele>
        <time>2024-03-15T10:04:02.528Z</time>
      </trkpt>
      <trkpt lat="47.93651" lon="4.01957">
        <ele>227.329592</ele>
        <time>2024-03-15T10:04:02.545Z</time>
      </trkpt>
      <trkpt lat="47.93675" lon="4.01986">
        <ele>226.52785</ele>
        <time>2024-03-15T10:04:12.293Z</time>
      </trkpt>
      <trkpt lat="47.93693" lon="4.0202">
        <ele>225.770547</ele>
        <time>2024-03-15T10:04:21.529Z</time>
      </trkpt>
      <trkpt lat="47.9371" lon="4.02028">
        <ele>225.304743</ele>
        <time>2024-03-15T10:04:27.332Z</time>
      </trkpt>
      <trkpt lat="47.93722" lon="4.02019">
        <ele>224.975679</ele>
        <time>2024-03-15T10:04:31.378Z</time>
      </trkpt>
      <trkpt lat="47.93744" lon="4.01972">
        <ele>223.967466</ele>
        <time>2024-03-15T10:04:43.853Z</time>
      </trkpt>
      <trkpt lat="47.93867" lon="4.0192">
        <ele>219.997939</ele>
        <time>2024-03-15T10:05:23.115Z</time>
      </trkpt>
      <trkpt lat="47.93829" lon="4.01842">
        <ele>217.905135</ele>
        <time>2024-03-15T10:05:42.860Z</time>
      </trkpt>
      <trkpt lat="47.93803" lon="4.01813">
        <ele>216.56058</ele>
        <time>2024-03-15T10:05:52.895Z</time>
      </trkpt>
      <trkpt lat="47.93725" lon="4.01753">
        <ele>212.569691</ele>
        <time>2024-03-15T10:06:18.589Z</time>
      </trkpt>
      <trkpt lat="47.93687" lon="4.01704">
        <ele>210.246185</ele>
        <time>2024-03-15T10:06:33.045Z</time>
      </trkpt>
      <trkpt lat="47.93681" lon="4.01685">
        <ele>209.593415</ele>
        <time>2024-03-15T10:06:37.077Z</time>
      </trkpt>
      <trkpt lat="47.93679" lon="4.01665">
        <ele>208.918441</ele>
        <time>2024-03-15T10:06:40.907Z</time>
      </trkpt>
      <trkpt lat="47.9368" lon="4.01632">
        <ele>207.735061</ele>
        <time>2024-03-15T10:06:47.027Z</time>
      </trkpt>
      <trkpt lat="47.93683" lon="4.01606">
        <ele>206.755455</ele>
        <time>2024-03-15T10:06:52.135Z</time>
      </trkpt>
      <trkpt lat="47.93709" lon="4.01484">
        <ele>202.047367</ele>
        <time>2024-03-15T10:07:16.463Z</time>
      </trkpt>
      <trkpt lat="47.93714" lon="4.01467">
        <ele>201.361639</ele>
        <time>2024-03-15T10:07:19.996Z</time>
      </trkpt>
      <trkpt lat="47.93776" lon="4.01417">
        <ele>198.543843</ele>
        <time>2024-03-15T10:07:39.939Z</time>
      </trkpt>
      <trkpt lat="47.93804" lon="4.01382">
        <ele>197.645225</ele>
        <time>2024-03-15T10:07:50.613Z</time>
      </trkpt>
      <trkpt lat="47.93812" lon="4.01348">
        <ele>197.053855</ele>
        <time>2024-03-15T10:07:58.011Z</time>
      </trkpt>
      <trkpt lat="47.93813" lon="4.01301">
        <ele>196.275968</ele>
        <time>2024-03-15T10:08:08.437Z</time>
      </trkpt>
      <trkpt lat="47.9381" lon="4.01259">
        <ele>195.568355</ele>
        <time>2024-03-15T10:08:18.701Z</time>
      </trkpt>
      <trkpt lat="47.93801" lon="4.01223">
        <ele>194.963741</ele>
        <time>2024-03-15T10:08:29.005Z</time>
      </trkpt>
      <trkpt lat="47.93783" lon="4.01189">
        <ele>195.450991</ele>
        <time>2024-03-15T10:08:41.699Z</time>
      </trkpt>
      <trkpt lat="47.9376" lon="4.01125">
        <ele>196.271448</ele>
        <time>2024-03-15T10:09:05.227Z</time>
      </trkpt>
      <trkpt lat="47.93761" lon="4.01024">
        <ele>197.398476</ele>
        <time>2024-03-15T10:09:37.639Z</time>
      </trkpt>
      <trkpt lat="47.93787" lon="4.0098">
        <ele>197.933318</ele>
        <time>2024-03-15T10:09:56.127Z</time>
      </trkpt>
      <trkpt lat="47.93818" lon="4.00953">
        <ele>197.730174</ele>
        <time>2024-03-15T10:10:12.004Z</time>
      </trkpt>
      <trkpt lat="47.93857" lon="4.00927">
        <ele>197.488009</ele>
        <time>2024-03-15T10:10:28.619Z</time>
      </trkpt>
      <trkpt lat="47.93941" lon="4.00896">
        <ele>197.000986</ele>
        <time>2024-03-15T10:10:57.170Z</time>
      </trkpt>
      <trkpt lat="47.94006" lon="4.00864">
        <ele>195.251564</ele>
        <time>2024-03-15T10:11:18.309Z</time>
      </trkpt>
      <trkpt lat="47.94054" lon="4.00819">
        <ele>193.603475</ele>
        <time>2024-03-15T10:11:36.035Z</time>
      </trkpt>
      <trkpt lat="47.94091" lon="4.00774">
        <ele>192.239075</ele>
        <time>2024-03-15T10:11:50.538Z</time>
      </trkpt>
      <trkpt lat="47.94097" lon="4.00759">
        <ele>191.897942</ele>
        <time>2024-03-15T10:11:54.123Z</time>
      </trkpt>
      <trkpt lat="47.94109" lon="4.00772">
        <ele>191.800454</ele>
        <time>2024-03-15T10:11:58.610Z</time>
      </trkpt>
      <trkpt lat="47.94133" lon="4.00719">
        <ele>191.896699</ele>
        <time>2024-03-15T10:12:12.224Z</time>
      </trkpt>
      <trkpt lat="47.94143" lon="4.00684">
        <ele>191.953368</ele>
        <time>2024-03-15T10:12:21.093Z</time>
      </trkpt>
      <trkpt lat="47.94163" lon="4.00649">
        <ele>192.02197</ele>
        <time>2024-03-15T10:12:33.188Z</time>
      </trkpt>
      <trkpt lat="47.94206" lon="4.00593">
        <ele>192.150722</ele>
        <time>2024-03-15T10:12:59.950Z</time>
      </trkpt>
      <trkpt lat="47.94212" lon="4.0059">
        <ele>192.164349</ele>
        <time>2024-03-15T10:13:03.029Z</time>
      </trkpt>
      <trkpt lat="47.94232" lon="4.0061">
        <ele>193.157513</ele>
        <time>2024-03-15T10:13:16.467Z</time>
      </trkpt>
      <trkpt lat="47.9428" lon="4.00677">
        <ele>196.913767</ele>
        <time>2024-03-15T10:13:57.415Z</time>
      </trkpt>
      <trkpt lat="47.94436" lon="4.00839">
        <ele>207.404741</ele>
        <time>2024-03-15T10:16:15.292Z</time>
      </trkpt>
      <trkpt lat="47.94588" lon="4.01003">
        <ele>213.114577</ele>
        <time>2024-03-15T10:17:57.974Z</time>
      </trkpt>
      <trkpt lat="47.94737" lon="4.00659">
        <ele>208.90774</ele>
        <time>2024-03-15T10:19:26.808Z</time>
      </trkpt>
      <trkpt lat="47.94861" lon="4.00377">
        <ele>196.87221</ele>
        <time>2024-03-15T10:20:30.834Z</time>
      </trkpt>
      <trkpt lat="47.94882" lon="4.00339">
        <ele>194.815218</ele>
        <time>2024-03-15T10:20:39.845Z</time>
      </trkpt>
      <trkpt lat="47.94923" lon="4.00279">
        <ele>191.258997</ele>
        <time>2024-03-15T10:20:55.561Z</time>
      </trkpt>
      <trkpt lat="47.94989" lon="4.00227">
        <ele>187.506472</ele>
        <time>2024-03-15T10:21:16.358Z</time>
      </trkpt>
      <trkpt lat="47.95037" lon="4.00231">
        <ele>185.369586</ele>
        <time>2024-03-15T10:21:30.369Z</time>
      </trkpt>
      <trkpt lat="47.95088" lon="4.00247">
        <ele>183.060126</ele>
        <time>2024-03-15T10:21:46.099Z</time>
      </trkpt>
      <trkpt lat="47.95094" lon="4.00264">
        <ele>182.484054</ele>
        <time>2024-03-15T10:21:50.116Z</time>
      </trkpt>
      <trkpt lat="47.95125" lon="4.00278">
        <ele>181.402164</ele>
        <time>2024-03-15T10:22:00.287Z</time>
      </trkpt>
      <trkpt lat="47.95213" lon="4.00344">
        <ele>179.710847</ele>
        <time>2024-03-15T10:22:31.992Z</time>
      </trkpt>
      <trkpt lat="47.95267" lon="4.00393">
        <ele>178.614242</ele>
        <time>2024-03-15T10:22:53.405Z</time>
      </trkpt>
      <trkpt lat="47.95273" lon="4.00358">
        <ele>178.927188</ele>
        <time>2024-03-15T10:23:02.216Z</time>
      </trkpt>
      <trkpt lat="47.9527" lon="4.00301">
        <ele>179.766646</ele>
        <time>2024-03-15T10:23:18.271Z</time>
      </trkpt>
      <trkpt lat="47.95269" lon="4.00294">
        <ele>179.866256</ele>
        <time>2024-03-15T10:23:20.291Z</time>
      </trkpt>
      <trkpt lat="47.95269" lon="4.00243">
        <ele>180.607423</ele>
        <time>2024-03-15T10:23:36.676Z</time>
      </trkpt>
      <trkpt lat="47.95265" lon="4.00234">
        <ele>180.763491</ele>
        <time>2024-03-15T10:23:40.281Z</time>
      </trkpt>
      <trkpt lat="47.95226" lon="4.00201">
        <ele>181.742858</ele>
        <time>2024-03-15T10:24:04.034Z</time>
      </trkpt>
      <trkpt lat="47.95199" lon="4.00083">
        <ele>184.665509</ele>
        <time>2024-03-15T10:24:53.935Z</time>
      </trkpt>
      <trkpt lat="47.95062" lon="3.99645">
        <ele>198.619716</ele>
        <time>2024-03-15T10:28:04.758Z</time>
      </trkpt>
      <trkpt lat="47.95005" lon="3.99458">
        <ele>204.062836</ele>
        <time>2024-03-15T10:29:20.186Z</time>
      </trkpt>
      <trkpt lat="47.95001" lon="3.99437">
        <ele>204.636106</ele>
        <time>2024-03-15T10:29:28.756Z</time>
      </trkpt>
      <trkpt lat="47.94991" lon="3.99353">
        <ele>207.442411</ele>
        <time>2024-03-15T10:30:03.857Z</time>
      </trkpt>
      <trkpt lat="47.94968" lon="3.99146">
        <ele>214.589576</ele>
        <time>2024-03-15T10:31:35.288Z</time>
      </trkpt>
      <trkpt lat="47.94999" lon="3.98991">
        <ele>218.642998</ele>
        <time>2024-03-15T10:32:40.294Z</time>
      </trkpt>
      <trkpt lat="47.95015" lon="3.98915">
        <ele>220.629994</ele>
        <time>2024-03-15T10:33:06.883Z</time>
      </trkpt>
      <trkpt lat="47.95011" lon="3.98816">
        <ele>221.129673</ele>
        <time>2024-03-15T10:33:35.965Z</time>
      </trkpt>
      <trkpt lat="47.95013" lon="3.9873">
        <ele>221.188479</ele>
        <time>2024-03-15T10:33:57.961Z</time>
      </trkpt>
      <trkpt lat="47.9502" lon="3.98689">
        <ele>221.217506</ele>
        <time>2024-03-15T10:34:07.859Z</time>
      </trkpt>
      <trkpt lat="47.9506" lon="3.98582">
        <ele>220.381228</ele>
        <time>2024-03-15T10:34:35.066Z</time>
      </trkpt>
      <trkpt lat="47.95066" lon="3.98548">
        <ele>219.887493</ele>
        <time>2024-03-15T10:34:42.705Z</time>
      </trkpt>
      <trkpt lat="47.95067" lon="3.98523">
        <ele>219.531219</ele>
        <time>2024-03-15T10:34:48.203Z</time>
      </trkpt>
      <trkpt lat="47.95065" lon="3.9849">
        <ele>219.077204</ele>
        <time>2024-03-15T10:34:55.153Z</time>
      </trkpt>
      <trkpt lat="47.95031" lon="3.98351">
        <ele>217.029486</ele>
        <time>2024-03-15T10:35:26.819Z</time>
      </trkpt>
      <trkpt lat="47.95019" lon="3.98294">
        <ele>216.223419</ele>
        <time>2024-03-15T10:35:39.833Z</time>
      </trkpt>
      <trkpt lat="47.95008" lon="3.98225">
        <ele>215.285071</ele>
        <time>2024-03-15T10:35:55.262Z</time>
      </trkpt>
      <trkpt lat="47.95034" lon="3.98083">
        <ele>213.26415</ele>
        <time>2024-03-15T10:36:27.970Z</time>
      </trkpt>
      <trkpt lat="47.95043" lon="3.98047">
        <ele>212.723671</ele>
        <time>2024-03-15T10:36:36.293Z</time>
      </trkpt>
      <trkpt lat="47.95038" lon="3.98">
        <ele>212.035319</ele>
        <time>2024-03-15T10:36:46.755Z</time>
      </trkpt>
      <trkpt lat="47.95024" lon="3.97938">
        <ele>211.094251</ele>
        <time>2024-03-15T10:37:00.851Z</time>
      </trkpt>
      <trkpt lat="47.94966" lon="3.97648">
        <ele>206.272493</ele>
        <time>2024-03-15T10:38:04.529Z</time>
      </trkpt>
      <trkpt lat="47.94935" lon="3.97478">
        <ele>204.773335</ele>
        <time>2024-03-15T10:38:43.955Z</time>
      </trkpt>
      <trkpt lat="47.94926" lon="3.9746">
        <ele>204.633373</ele>
        <time>2024-03-15T10:38:47.048Z</time>
      </trkpt>
      <trkpt lat="47.94927" lon="3.97447">
        <ele>204.545245</ele>
        <time>2024-03-15T10:38:49.053Z</time>
      </trkpt>
      <trkpt lat="47.94926" lon="3.97437">
        <ele>204.486632</ele>
        <time>2024-03-15T10:38:50.397Z</time>
      </trkpt>
      <trkpt lat="47.94923" lon="3.97411">
        <ele>204.316435</ele>
        <time>2024-03-15T10:38:54.305Z</time>
      </trkpt>
      <trkpt lat="47.9489" lon="3.97218">
        <ele>204.660198</ele>
        <time>2024-03-15T10:39:26.865Z</time>
      </trkpt>
      <trkpt lat="47.94877" lon="3.97126">
        <ele>205.13839</ele>
        <time>2024-03-15T10:39:46.009Z</time>
      </trkpt>
      <trkpt lat="47.94881" lon="3.97093">
        <ele>205.304806</ele>
        <time>2024-03-15T10:39:52.420Z</time>
      </trkpt>
      <trkpt lat="47.94896" lon="3.97073">
        <ele>205.52695</ele>
        <time>2024-03-15T10:39:58.799Z</time>
      </trkpt>
      <trkpt lat="47.94959" lon="3.97019">
        <ele>206.314557</ele>
        <time>2024-03-15T10:40:20.346Z</time>
      </trkpt>
      <trkpt lat="47.95048" lon="3.96947">
        <ele>207.158727</ele>
        <time>2024-03-15T10:40:49.062Z</time>
      </trkpt>
      <trkpt lat="47.95062" lon="3.96941">
        <ele>207.06653</ele>
        <time>2024-03-15T10:40:52.471Z</time>
      </trkpt>
      <trkpt lat="47.95112" lon="3.96921">
        <ele>206.720338</ele>
        <time>2024-03-15T10:41:03.840Z</time>
      </trkpt>
      <trkpt lat="47.95166" lon="3.9693">
        <ele>206.355964</ele>
        <time>2024-03-15T10:41:14.487Z</time>
      </trkpt>
      <trkpt lat="47.95206" lon="3.96951">
        <ele>206.065516</ele>
        <time>2024-03-15T10:41:22.755Z</time>
      </trkpt>
      <trkpt lat="47.95259" lon="3.97036">
        <ele>205.008301</ele>
        <time>2024-03-15T10:41:37.297Z</time>
      </trkpt>
      <trkpt lat="47.95273" lon="3.97052">
        <ele>204.758746</ele>
        <time>2024-03-15T10:41:40.702Z</time>
      </trkpt>
      <trkpt lat="47.95289" lon="3.97068">
        <ele>204.486304</ele>
        <time>2024-03-15T10:41:44.444Z</time>
      </trkpt>
      <trkpt lat="47.95335" lon="3.97103">
        <ele>203.774844</ele>
        <time>2024-03-15T10:41:54.268Z</time>
      </trkpt>
      <trkpt lat="47.9537" lon="3.97125">
        <ele>203.319784</ele>
        <time>2024-03-15T10:42:01.718Z</time>
      </trkpt>
      <trkpt lat="47.95458" lon="3.9717">
        <ele>202.337682</ele>
        <time>2024-03-15T10:42:20.345Z</time>
      </trkpt>
      <trkpt lat="47.95458" lon="3.9717">
        <ele>202.337682</ele>
        <time>2024-03-15T10:42:20.346Z</time>
      </trkpt>
      <trkpt lat="47.95474" lon="3.97182">
        <ele>202.140527</ele>
        <time>2024-03-15T10:42:24.063Z</time>
      </trkpt>
      <trkpt lat="47.95495" lon="3.97202">
        <ele>201.882634</ele>
        <time>2024-03-15T10:42:28.969Z</time>
      </trkpt>
      <trkpt lat="47.95537" lon="3.97202">
        <ele>201.279812</ele>
        <time>2024-03-15T10:42:37.513Z</time>
      </trkpt>
      <trkpt lat="47.95566" lon="3.97209">
        <ele>200.734364</ele>
        <time>2024-03-15T10:42:43.373Z</time>
      </trkpt>
      <trkpt lat="47.95585" lon="3.97222">
        <ele>200.331899</ele>
        <time>2024-03-15T10:42:47.614Z</time>
      </trkpt>
      <trkpt lat="47.95594" lon="3.97214">
        <ele>200.138729</ele>
        <time>2024-03-15T10:42:49.647Z</time>
      </trkpt>
      <trkpt lat="47.95657" lon="3.96872">
        <ele>194.928058</ele>
        <time>2024-03-15T10:43:34.477Z</time>
      </trkpt>
      <trkpt lat="47.95729" lon="3.96918">
        <ele>192.812443</ele>
        <time>2024-03-15T10:43:48.843Z</time>
      </trkpt>
      <trkpt lat="47.95818" lon="3.96957">
        <ele>190.058366</ele>
        <time>2024-03-15T10:44:05.491Z</time>
      </trkpt>
      <trkpt lat="47.95869" lon="3.96974">
        <ele>188.552222</ele>
        <time>2024-03-15T10:44:14.847Z</time>
      </trkpt>
      <trkpt lat="47.95943" lon="3.96989">
        <ele>187.447302</ele>
        <time>2024-03-15T10:44:28.862Z</time>
      </trkpt>
      <trkpt lat="47.96022" lon="3.97015">
        <ele>186.252997</ele>
        <time>2024-03-15T10:44:45.011Z</time>
      </trkpt>
      <trkpt lat="47.9607" lon="3.97027">
        <ele>186.401443</ele>
        <time>2024-03-15T10:44:56.931Z</time>
      </trkpt>
      <trkpt lat="47.96149" lon="3.97023">
        <ele>187.855855</ele>
        <time>2024-03-15T10:45:33.638Z</time>
      </trkpt>
      <trkpt lat="47.96321" lon="3.97022">
        <ele>191.518632</ele>
        <time>2024-03-15T10:47:02.792Z</time>
      </trkpt>
      <trkpt lat="47.96525" lon="3.97018">
        <ele>195.160593</ele>
        <time>2024-03-15T10:48:35.344Z</time>
      </trkpt>
      <trkpt lat="47.9689" lon="3.96995">
        <ele>197.825383</ele>
        <time>2024-03-15T10:51:06.051Z</time>
      </trkpt>
      <trkpt lat="47.96913" lon="3.96994">
        <ele>197.879429</ele>
        <time>2024-03-15T10:51:14.309Z</time>
      </trkpt>
      <trkpt lat="47.9721" lon="3.96805">
        <ele>194.364839</ele>
        <time>2024-03-15T10:53:03.213Z</time>
      </trkpt>
      <trkpt lat="47.97219" lon="3.96799">
        <ele>194.25825</ele>
        <time>2024-03-15T10:53:06.401Z</time>
      </trkpt>
      <trkpt lat="47.97429" lon="3.96669">
        <ele>192.409487</ele>
        <time>2024-03-15T10:54:26.651Z</time>
      </trkpt>
      <trkpt lat="47.9738" lon="3.96482">
        <ele>190.938907</ele>
        <time>2024-03-15T10:55:14.019Z</time>
      </trkpt>
      <trkpt lat="47.97333" lon="3.96306">
        <ele>188.687236</ele>
        <time>2024-03-15T10:55:55.100Z</time>
      </trkpt>
      <trkpt lat="47.97284" lon="3.96127">
        <ele>186.059568</ele>
        <time>2024-03-15T10:56:36.036Z</time>
      </trkpt>
      <trkpt lat="47.97278" lon="3.96111">
        <ele>185.960062</ele>
        <time>2024-03-15T10:56:40.059Z</time>
      </trkpt>
      <trkpt lat="47.97272" lon="3.96093">
        <ele>185.851914</ele>
        <time>2024-03-15T10:56:44.376Z</time>
      </trkpt>
      <trkpt lat="47.9723" lon="3.95931">
        <ele>184.907534</ele>
        <time>2024-03-15T10:57:25.659Z</time>
      </trkpt>
      <trkpt lat="47.97193" lon="3.95785">
        <ele>185.31234</ele>
        <time>2024-03-15T10:58:09.438Z</time>
      </trkpt>
      <trkpt lat="47.97186" lon="3.95756">
        <ele>185.439269</ele>
        <time>2024-03-15T10:58:18.418Z</time>
      </trkpt>
      <trkpt lat="47.97141" lon="3.95586">
        <ele>185.851735</ele>
        <time>2024-03-15T10:59:06.474Z</time>
      </trkpt>
      <trkpt lat="47.97132" lon="3.95549">
        <ele>185.845633</ele>
        <time>2024-03-15T10:59:15.988Z</time>
      </trkpt>
      <trkpt lat="47.97095" lon="3.9541">
        <ele>185.822203</ele>
        <time>2024-03-15T10:59:52.311Z</time>
      </trkpt>
      <trkpt lat="47.97085" lon="3.95374">
        <ele>185.786793</ele>
        <time>2024-03-15T11:00:01.792Z</time>
      </trkpt>
      <trkpt lat="47.97049" lon="3.95241">
        <ele>185.650726</ele>
        <time>2024-03-15T11:00:37.161Z</time>
      </trkpt>
      <trkpt lat="47.97036" lon="3.95193">
        <ele>185.601154</ele>
        <time>2024-03-15T11:00:50.189Z</time>
      </trkpt>
      <trkpt lat="47.97018" lon="3.95123">
        <ele>185.339298</ele>
        <time>2024-03-15T11:01:08.595Z</time>
      </trkpt>
      <trkpt lat="47.97062" lon="3.95119">
        <ele>184.95003</ele>
        <time>2024-03-15T11:01:17.656Z</time>
      </trkpt>
      <trkpt lat="47.97126" lon="3.95104">
        <ele>184.380064</ele>
        <time>2024-03-15T11:01:30.242Z</time>
      </trkpt>
      <trkpt lat="47.97187" lon="3.95083">
        <ele>183.940304</ele>
        <time>2024-03-15T11:01:42.388Z</time>
      </trkpt>
      <trkpt lat="47.97228" lon="3.95056">
        <ele>183.83256</ele>
        <time>2024-03-15T11:01:58.054Z</time>
      </trkpt>
      <trkpt lat="47.9727" lon="3.95029">
        <ele>183.724816</ele>
        <time>2024-03-15T11:02:14.040Z</time>
      </trkpt>
      <trkpt lat="47.97146" lon="3.94565">
        <ele>184.717472</ele>
        <time>2024-03-15T11:04:29.929Z</time>
      </trkpt>
      <trkpt lat="47.97124" lon="3.94482">
        <ele>184.595983</ele>
        <time>2024-03-15T11:04:50.935Z</time>
      </trkpt>
      <trkpt lat="47.97085" lon="3.94318">
        <ele>184.000997</ele>
        <time>2024-03-15T11:05:30.406Z</time>
      </trkpt>
      <trkpt lat="47.96986" lon="3.93898">
        <ele>182.988488</ele>
        <time>2024-03-15T11:07:18.908Z</time>
      </trkpt>
      <trkpt lat="47.97004" lon="3.93861">
        <ele>183.078035</ele>
        <time>2024-03-15T11:07:30.745Z</time>
      </trkpt>
      <trkpt lat="47.9707" lon="3.93671">
        <ele>183.517414</ele>
        <time>2024-03-15T11:08:26.576Z</time>
      </trkpt>
      <trkpt lat="47.97089" lon="3.93616">
        <ele>183.71494</ele>
        <time>2024-03-15T11:08:43.027Z</time>
      </trkpt>
      <trkpt lat="47.97121" lon="3.9354">
        <ele>184.001883</ele>
        <time>2024-03-15T11:09:07.189Z</time>
      </trkpt>
      <trkpt lat="47.97118" lon="3.93427">
        <ele>184.261523</ele>
        <time>2024-03-15T11:09:37.458Z</time>
      </trkpt>
      <trkpt lat="47.97114" lon="3.93367">
        <ele>183.992245</ele>
        <time>2024-03-15T11:09:52.697Z</time>
      </trkpt>
      <trkpt lat="47.97118" lon="3.93342">
        <ele>183.875397</ele>
        <time>2024-03-15T11:09:59.147Z</time>
      </trkpt>
      <trkpt lat="47.97152" lon="3.93352">
        <ele>183.647404</ele>
        <time>2024-03-15T11:10:11.557Z</time>
      </trkpt>
      <trkpt lat="47.97371" lon="3.93419">
        <ele>180.553435</ele>
        <time>2024-03-15T11:11:25.675Z</time>
      </trkpt>
      <trkpt lat="47.97471" lon="3.93449">
        <ele>178.775312</ele>
        <time>2024-03-15T11:11:58.587Z</time>
      </trkpt>
      <trkpt lat="47.97629" lon="3.93496">
        <ele>176.664026</ele>
        <time>2024-03-15T11:12:52.343Z</time>
      </trkpt>
      <trkpt lat="47.97716" lon="3.92893">
        <ele>175.710649</ele>
        <time>2024-03-15T11:15:23.088Z</time>
      </trkpt>
      <trkpt lat="47.97723" lon="3.92845">
        <ele>175.781574</ele>
        <time>2024-03-15T11:15:36.843Z</time>
      </trkpt>
      <trkpt lat="47.97557" lon="3.92764">
        <ele>176.341774</ele>
        <time>2024-03-15T11:16:21.241Z</time>
      </trkpt>
      <trkpt lat="47.9757" lon="3.92617">
        <ele>176.266047</ele>
        <time>2024-03-15T11:16:57.331Z</time>
      </trkpt>
      <trkpt lat="47.97584" lon="3.92443">
        <ele>175.613383</ele>
        <time>2024-03-15T11:17:38.283Z</time>
      </trkpt>
      <trkpt lat="47.97593" lon="3.92309">
        <ele>175.097602</ele>
        <time>2024-03-15T11:18:10.867Z</time>
      </trkpt>
      <trkpt lat="47.97595" lon="3.92278">
        <ele>174.974477</ele>
        <time>2024-03-15T11:18:18.516Z</time>
      </trkpt>
      <trkpt lat="47.97599" lon="3.92231">
        <ele>174.79344</ele>
        <time>2024-03-15T11:18:29.737Z</time>
      </trkpt>
      <trkpt lat="47.976" lon="3.92217">
        <ele>174.739749</ele>
        <time>2024-03-15T11:18:33.100Z</time>
      </trkpt>
      <trkpt lat="47.9766" lon="3.92161">
        <ele>174.041284</ele>
        <time>2024-03-15T11:18:57.756Z</time>
      </trkpt>
      <trkpt lat="47.97817" lon="3.91998">
        <ele>170.781348</ele>
        <time>2024-03-15T11:20:00.494Z</time>
      </trkpt>
      <trkpt lat="47.97959" lon="3.91877">
        <ele>167.530047</ele>
        <time>2024-03-15T11:20:53.254Z</time>
      </trkpt>
      <trkpt lat="47.97992" lon="3.91853">
        <ele>166.972305</ele>
        <time>2024-03-15T11:21:05.402Z</time>
      </trkpt>
      <trkpt lat="47.98007" lon="3.91841">
        <ele>166.711607</ele>
        <time>2024-03-15T11:21:11.162Z</time>
      </trkpt>
      <trkpt lat="47.98032" lon="3.91823">
        <ele>166.301039</ele>
        <time>2024-03-15T11:21:20.318Z</time>
      </trkpt>
      <trkpt lat="47.98086" lon="3.91782">
        <ele>165.388374</ele>
        <time>2024-03-15T11:21:41.144Z</time>
      </trkpt>
      <trkpt lat="47.98139" lon="3.91743">
        <ele>164.316942</ele>
        <time>2024-03-15T11:22:01.705Z</time>
      </trkpt>
      <trkpt lat="47.98172" lon="3.91718">
        <ele>163.621431</ele>
        <time>2024-03-15T11:22:13.807Z</time>
      </trkpt>
      <trkpt lat="47.98197" lon="3.91699">
        <ele>163.089872</ele>
        <time>2024-03-15T11:22:22.925Z</time>
      </trkpt>
      <trkpt lat="47.98257" lon="3.91655">
        <ele>161.821396</ele>
        <time>2024-03-15T11:22:44.081Z</time>
      </trkpt>
      <trkpt lat="47.98308" lon="3.91616">
        <ele>160.565483</ele>
        <time>2024-03-15T11:23:02.118Z</time>
      </trkpt>
      <trkpt lat="47.98316" lon="3.91611">
        <ele>160.376028</ele>
        <time>2024-03-15T11:23:04.929Z</time>
      </trkpt>
      <trkpt lat="47.98367" lon="3.91572">
        <ele>159.114097</ele>
        <time>2024-03-15T11:23:23.032Z</time>
      </trkpt>
      <trkpt lat="47.98422" lon="3.91531">
        <ele>157.795164</ele>
        <time>2024-03-15T11:23:43.073Z</time>
      </trkpt>
      <trkpt lat="47.98457" lon="3.91503">
        <ele>157.878614</ele>
        <time>2024-03-15T11:23:56.994Z</time>
      </trkpt>
      <trkpt lat="47.98479" lon="3.91485">
        <ele>157.9317</ele>
        <time>2024-03-15T11:24:06.355Z</time>
      </trkpt>
      <trkpt lat="47.98533" lon="3.91444">
        <ele>158.059073</ele>
        <time>2024-03-15T11:24:31.266Z</time>
      </trkpt>
      <trkpt lat="47.9859" lon="3.914">
        <ele>158.169774</ele>
        <time>2024-03-15T11:24:58.735Z</time>
      </trkpt>
      <trkpt lat="47.98643" lon="3.91361">
        <ele>158.166533</ele>
        <time>2024-03-15T11:25:22.509Z</time>
      </trkpt>
      <trkpt lat="47.98711" lon="3.9131">
        <ele>158.162323</ele>
        <time>2024-03-15T11:25:50.384Z</time>
      </trkpt>
      <trkpt lat="47.9876" lon="3.91274">
        <ele>157.864402</ele>
        <time>2024-03-15T11:26:09.106Z</time>
      </trkpt>
      <trkpt lat="47.98822" lon="3.91228">
        <ele>156.860001</ele>
        <time>2024-03-15T11:26:32.461Z</time>
      </trkpt>
      <trkpt lat="47.98883" lon="3.91182">
        <ele>155.872896</ele>
        <time>2024-03-15T11:26:55.056Z</time>
      </trkpt>
      <trkpt lat="47.98931" lon="3.91146">
        <ele>154.916766</ele>
        <time>2024-03-15T11:27:12.772Z</time>
      </trkpt>
      <trkpt lat="47.98977" lon="3.9111">
        <ele>153.888805</ele>
        <time>2024-03-15T11:27:29.678Z</time>
      </trkpt>
      <trkpt lat="47.99238" lon="3.90909">
        <ele>147.73655</ele>
        <time>2024-03-15T11:29:04.793Z</time>
      </trkpt>
      <trkpt lat="47.99258" lon="3.91055">
        <ele>145.370446</ele>
        <time>2024-03-15T11:29:36.880Z</time>
      </trkpt>
      <trkpt lat="47.99254" lon="3.91112">
        <ele>144.455545</ele>
        <time>2024-03-15T11:29:49.184Z</time>
      </trkpt>
      <trkpt lat="47.99252" lon="3.91289">
        <ele>140.788632</ele>
        <time>2024-03-15T11:30:25.914Z</time>
      </trkpt>
      <trkpt lat="47.99282" lon="3.91273">
        <ele>139.75712</ele>
        <time>2024-03-15T11:30:35.433Z</time>
      </trkpt>
      <trkpt lat="47.99306" lon="3.91269">
        <ele>138.954215</ele>
        <time>2024-03-15T11:30:42.829Z</time>
      </trkpt>
      <trkpt lat="47.99357" lon="3.91274">
        <ele>137.367967</ele>
        <time>2024-03-15T11:30:58.038Z</time>
      </trkpt>
      <trkpt lat="47.99431" lon="3.91269">
        <ele>135.137275</ele>
        <time>2024-03-15T11:31:20.787Z</time>
      </trkpt>
      <trkpt lat="47.99542" lon="3.91277">
        <ele>132.182688</ele>
        <time>2024-03-15T11:31:55.923Z</time>
      </trkpt>
      <trkpt lat="47.99629" lon="3.9127">
        <ele>130.797063</ele>
        <time>2024-03-15T11:32:24.670Z</time>
      </trkpt>
      <trkpt lat="47.99704" lon="3.91251">
        <ele>129.604808</ele>
        <time>2024-03-15T11:32:50.911Z</time>
      </trkpt>
      <trkpt lat="47.99765" lon="3.91211">
        <ele>128.723638</ele>
        <time>2024-03-15T11:33:14.180Z</time>
      </trkpt>
      <trkpt lat="47.9988" lon="3.91153">
        <ele>126.986547</ele>
        <time>2024-03-15T11:33:54.695Z</time>
      </trkpt>
      <trkpt lat="47.99899" lon="3.91142">
        <ele>126.56589</ele>
        <time>2024-03-15T11:34:01.340Z</time>
      </trkpt>
      <trkpt lat="47.9994" lon="3.91118">
        <ele>125.656609</ele>
        <time>2024-03-15T11:34:15.611Z</time>
      </trkpt>
      <trkpt lat="47.99956" lon="3.91112">
        <ele>125.334201</ele>
        <time>2024-03-15T11:34:20.639Z</time>
      </trkpt>
      <trkpt lat="48.00025" lon="3.91099">
        <ele>123.89402</ele>
        <time>2024-03-15T11:34:43.160Z</time>
      </trkpt>
      <trkpt lat="48.00034" lon="3.91098">
        <ele>123.710486</ele>
        <time>2024-03-15T11:34:46.017Z</time>
      </trkpt>
      <trkpt lat="48.00068" lon="3.91094">
        <ele>123.392212</ele>
        <time>2024-03-15T11:34:57.152Z</time>
      </trkpt>
      <trkpt lat="48.00094" lon="3.91096">
        <ele>123.173206</ele>
        <time>2024-03-15T11:35:05.529Z</time>
      </trkpt>
      <trkpt lat="48.00124" lon="3.91105">
        <ele>122.906332</ele>
        <time>2024-03-15T11:35:11.962Z</time>
      </trkpt>
      <trkpt lat="48.00142" lon="3.91116">
        <ele>122.74127</ele>
        <time>2024-03-15T11:35:16.161Z</time>
      </trkpt>
      <trkpt lat="48.00139" lon="3.91071">
        <ele>122.477848</ele>
        <time>2024-03-15T11:35:23.047Z</time>
      </trkpt>
      <trkpt lat="48.00138" lon="3.91063">
        <ele>122.43207</ele>
        <time>2024-03-15T11:35:24.411Z</time>
      </trkpt>
      <trkpt lat="48.00134" lon="3.90971">
        <ele>122.234705</ele>
        <time>2024-03-15T11:35:39.394Z</time>
      </trkpt>
      <trkpt lat="48.00133" lon="3.90844">
        <ele>122.58062</ele>
        <time>2024-03-15T11:36:01.753Z</time>
      </trkpt>
      <trkpt lat="48.0017" lon="3.90232">
        <ele>123.252986</ele>
        <time>2024-03-15T11:37:42.008Z</time>
      </trkpt>
      <trkpt lat="48.00171" lon="3.90175">
        <ele>122.961528</ele>
        <time>2024-03-15T11:37:49.964Z</time>
      </trkpt>
      <trkpt lat="48.00218" lon="3.90184">
        <ele>122.319828</ele>
        <time>2024-03-15T11:37:59.042Z</time>
      </trkpt>
      <trkpt lat="48.00329" lon="3.90225">
        <ele>120.796757</ele>
        <time>2024-03-15T11:38:20.491Z</time>
      </trkpt>
      <trkpt lat="48.00361" lon="3.90221">
        <ele>120.586491</ele>
        <time>2024-03-15T11:38:26.737Z</time>
      </trkpt>
      <trkpt lat="48.00378" lon="3.90211">
        <ele>120.469957</ele>
        <time>2024-03-15T11:38:30.326Z</time>
      </trkpt>
      <trkpt lat="48.0043" lon="3.90192">
        <ele>120.113693</ele>
        <time>2024-03-15T11:38:41.727Z</time>
      </trkpt>
      <trkpt lat="48.00446" lon="3.90169">
        <ele>119.969879</ele>
        <time>2024-03-15T11:38:48.239Z</time>
      </trkpt>
      <trkpt lat="48.00453" lon="3.90155">
        <ele>119.89261</ele>
        <time>2024-03-15T11:38:51.752Z</time>
      </trkpt>
      <trkpt lat="48.00463" lon="3.90145">
        <ele>119.81375</ele>
        <time>2024-03-15T11:38:55.226Z</time>
      </trkpt>
      <trkpt lat="48.00565" lon="3.90021">
        <ele>118.550352</ele>
        <time>2024-03-15T11:39:22.765Z</time>
      </trkpt>
      <trkpt lat="48.00707" lon="3.89883">
        <ele>116.219379</ele>
        <time>2024-03-15T11:39:53.984Z</time>
      </trkpt>
      <trkpt lat="48.00736" lon="3.89851">
        <ele>115.626969</ele>
        <time>2024-03-15T11:40:00.578Z</time>
      </trkpt>
      <trkpt lat="48.0075" lon="3.89821">
        <ele>115.219698</ele>
        <time>2024-03-15T11:40:05.271Z</time>
      </trkpt>
      <trkpt lat="48.00767" lon="3.8977">
        <ele>114.756715</ele>
        <time>2024-03-15T11:40:12.838Z</time>
      </trkpt>
      <trkpt lat="48.00803" lon="3.89637">
        <ele>114.435794</ele>
        <time>2024-03-15T11:40:33.377Z</time>
      </trkpt>
      <trkpt lat="48.00843" lon="3.89507">
        <ele>114.188171</ele>
        <time>2024-03-15T11:40:55.057Z</time>
      </trkpt>
      <trkpt lat="48.00853" lon="3.89477">
        <ele>114.178169</ele>
        <time>2024-03-15T11:41:00.089Z</time>
      </trkpt>
      <trkpt lat="48.00986" lon="3.89025">
        <ele>113.982991</ele>
        <time>2024-03-15T11:42:12.932Z</time>
      </trkpt>
      <trkpt lat="48.01007" lon="3.89011">
        <ele>113.962204</ele>
        <time>2024-03-15T11:42:18.071Z</time>
      </trkpt>
      <trkpt lat="48.01035" lon="3.89013">
        <ele>113.937575</ele>
        <time>2024-03-15T11:42:28.277Z</time>
      </trkpt>
      <trkpt lat="48.01095" lon="3.89005">
        <ele>113.88536</ele>
        <time>2024-03-15T11:42:50.050Z</time>
      </trkpt>
      <trkpt lat="48.01177" lon="3.88982">
        <ele>114.108659</ele>
        <time>2024-03-15T11:43:21.422Z</time>
      </trkpt>
      <trkpt lat="48.0123" lon="3.88973">
        <ele>114.527081</ele>
        <time>2024-03-15T11:43:41.724Z</time>
      </trkpt>
      <trkpt lat="48.01244" lon="3.88969">
        <ele>114.644887</ele>
        <time>2024-03-15T11:43:47.504Z</time>
      </trkpt>
      <trkpt lat="48.01566" lon="3.88716">
        <ele>119.891561</ele>
        <time>2024-03-15T11:46:29.359Z</time>
      </trkpt>
      <trkpt lat="48.01577" lon="3.88691">
        <ele>120.259177</ele>
        <time>2024-03-15T11:46:39.065Z</time>
      </trkpt>
      <trkpt lat="48.01596" lon="3.88607">
        <ele>121.356225</ele>
        <time>2024-03-15T11:47:08.535Z</time>
      </trkpt>
      <trkpt lat="48.01607" lon="3.88575">
        <ele>121.771337</ele>
        <time>2024-03-15T11:47:20.363Z</time>
      </trkpt>
      <trkpt lat="48.0163" lon="3.88537">
        <ele>122.368918</ele>
        <time>2024-03-15T11:47:37.030Z</time>
      </trkpt>
      <trkpt lat="48.01713" lon="3.88452">
        <ele>124.141236</ele>
        <time>2024-03-15T11:48:23.361Z</time>
      </trkpt>
      <trkpt lat="48.01723" lon="3.88447">
        <ele>124.328977</ele>
        <time>2024-03-15T11:48:27.850Z</time>
      </trkpt>
      <trkpt lat="48.01828" lon="3.88537">
        <ele>124.513122</ele>
        <time>2024-03-15T11:49:13.424Z</time>
      </trkpt>
      <trkpt lat="48.02005" lon="3.8867">
        <ele>124.301585</ele>
        <time>2024-03-15T11:50:24.243Z</time>
      </trkpt>
      <trkpt lat="48.02108" lon="3.88741">
        <ele>124.902571</ele>
        <time>2024-03-15T11:51:08.968Z</time>
      </trkpt>
      <trkpt lat="48.02521" lon="3.89043">
        <ele>129.989295</ele>
        <time>2024-03-15T11:54:26.525Z</time>
      </trkpt>
      <trkpt lat="48.02966" lon="3.89361">
        <ele>137.111559</ele>
        <time>2024-03-15T11:58:06.576Z</time>
      </trkpt>
      <trkpt lat="48.03215" lon="3.89544">
        <ele>140.019877</ele>
        <time>2024-03-15T12:00:03.490Z</time>
      </trkpt>
      <trkpt lat="48.03512" lon="3.89763">
        <ele>141.627194</ele>
        <time>2024-03-15T12:02:15.664Z</time>
      </trkpt>
      <trkpt lat="48.03587" lon="3.89814">
        <ele>140.999193</ele>
        <time>2024-03-15T12:02:44.334Z</time>
      </trkpt>
      <trkpt lat="48.03599" lon="3.89811">
        <ele>140.912097</ele>
        <time>2024-03-15T12:02:48.242Z</time>
      </trkpt>
      <trkpt lat="48.03613" lon="3.89808">
        <ele>140.801244</ele>
        <time>2024-03-15T12:02:53.232Z</time>
      </trkpt>
      <trkpt lat="48.03633" lon="3.8982">
        <ele>140.640201</ele>
        <time>2024-03-15T12:02:57.330Z</time>
      </trkpt>
      <trkpt lat="48.03644" lon="3.89829">
        <ele>140.544271</ele>
        <time>2024-03-15T12:02:59.815Z</time>
      </trkpt>
      <trkpt lat="48.03652" lon="3.89846">
        <ele>140.438105</ele>
        <time>2024-03-15T12:03:02.510Z</time>
      </trkpt>
      <trkpt lat="48.03656" lon="3.89871">
        <ele>140.322127</ele>
        <time>2024-03-15T12:03:05.906Z</time>
      </trkpt>
      <trkpt lat="48.0366" lon="3.89935">
        <ele>140.210689</ele>
        <time>2024-03-15T12:03:14.485Z</time>
      </trkpt>
      <trkpt lat="48.03665" lon="3.89974">
        <ele>140.140434</ele>
        <time>2024-03-15T12:03:20.161Z</time>
      </trkpt>
      <trkpt lat="48.03675" lon="3.90008">
        <ele>140.074942</ele>
        <time>2024-03-15T12:03:25.584Z</time>
      </trkpt>
      <trkpt lat="48.03729" lon="3.9016">
        <ele>140.137765</ele>
        <time>2024-03-15T12:03:51.649Z</time>
      </trkpt>
      <trkpt lat="48.03828" lon="3.90448">
        <ele>142.765031</ele>
        <time>2024-03-15T12:04:51.646Z</time>
      </trkpt>
      <trkpt lat="48.03855" lon="3.90527">
        <ele>143.946131</ele>
        <time>2024-03-15T12:05:11.568Z</time>
      </trkpt>
      <trkpt lat="48.03885" lon="3.90612">
        <ele>145.37294</ele>
        <time>2024-03-15T12:05:34.433Z</time>
      </trkpt>
      <trkpt lat="48.0391" lon="3.90666">
        <ele>146.808676</ele>
        <time>2024-03-15T12:05:51.296Z</time>
      </trkpt>
      <trkpt lat="48.03913" lon="3.90672">
        <ele>146.968591</ele>
        <time>2024-03-15T12:05:53.231Z</time>
      </trkpt>
      <trkpt lat="48.03922" lon="3.90692">
        <ele>147.480653</ele>
        <time>2024-03-15T12:05:59.378Z</time>
      </trkpt>
      <trkpt lat="48.03942" lon="3.90738">
        <ele>148.679083</ele>
        <time>2024-03-15T12:06:14.074Z</time>
      </trkpt>
      <trkpt lat="48.03974" lon="3.90817">
        <ele>150.671338</ele>
        <time>2024-03-15T12:06:38.575Z</time>
      </trkpt>
      <trkpt lat="48.03996" lon="3.90884">
        <ele>152.289042</ele>
        <time>2024-03-15T12:06:57.413Z</time>
      </trkpt>
      <trkpt lat="48.03998" lon="3.90891">
        <ele>152.448769</ele>
        <time>2024-03-15T12:06:59.220Z</time>
      </trkpt>
      <trkpt lat="48.04014" lon="3.90956">
        <ele>153.945272</ele>
        <time>2024-03-15T12:07:17.087Z</time>
      </trkpt>
      <trkpt lat="48.04015" lon="3.90959">
        <ele>154.026141</ele>
        <time>2024-03-15T12:07:18.024Z</time>
      </trkpt>
      <trkpt lat="48.04024" lon="3.90994">
        <ele>154.820436</ele>
        <time>2024-03-15T12:07:28.094Z</time>
      </trkpt>
      <trkpt lat="48.04034" lon="3.91028">
        <ele>155.623447</ele>
        <time>2024-03-15T12:07:37.988Z</time>
      </trkpt>
      <trkpt lat="48.04025" lon="3.91039">
        <ele>156.023823</ele>
        <time>2024-03-15T12:07:42.940Z</time>
      </trkpt>
      <trkpt lat="48.04028" lon="3.91051">
        <ele>156.306159</ele>
        <time>2024-03-15T12:07:46.275Z</time>
      </trkpt>
      <trkpt lat="48.0403" lon="3.91057">
        <ele>156.441584</ele>
        <time>2024-03-15T12:07:47.864Z</time>
      </trkpt>
      <trkpt lat="48.04045" lon="3.91105">
        <ele>157.073384</ele>
        <time>2024-03-15T12:08:01.423Z</time>
      </trkpt>
      <trkpt lat="48.04052" lon="3.91102">
        <ele>157.175559</ele>
        <time>2024-03-15T12:08:03.860Z</time>
      </trkpt>
      <trkpt lat="48.04066" lon="3.91089">
        <ele>157.43575</ele>
        <time>2024-03-15T12:08:09.418Z</time>
      </trkpt>
      <trkpt lat="48.04075" lon="3.91086">
        <ele>157.58895</ele>
        <time>2024-03-15T12:08:12.420Z</time>
      </trkpt>
      <trkpt lat="48.04085" lon="3.91088">
        <ele>157.752002</ele>
        <time>2024-03-15T12:08:15.785Z</time>
      </trkpt>
      <trkpt lat="48.04102" lon="3.91104">
        <ele>158.060687</ele>
        <time>2024-03-15T12:08:21.758Z</time>
      </trkpt>
      <trkpt lat="48.04112" lon="3.91118">
        <ele>158.284593</ele>
        <time>2024-03-15T12:08:25.785Z</time>
      </trkpt>
      <trkpt lat="48.04119" lon="3.91135">
        <ele>158.49039</ele>
        <time>2024-03-15T12:08:29.453Z</time>
      </trkpt>
      <trkpt lat="48.04127" lon="3.91161">
        <ele>158.797052</ele>
        <time>2024-03-15T12:08:34.521Z</time>
      </trkpt>
      <trkpt lat="48.04132" lon="3.91164">
        <ele>158.882489</ele>
        <time>2024-03-15T12:08:36.121Z</time>
      </trkpt>
      <trkpt lat="48.04135" lon="3.91179">
        <ele>159.05045</ele>
        <time>2024-03-15T12:08:39.003Z</time>
      </trkpt>
      <trkpt lat="48.04145" lon="3.91177">
        <ele>159.214095</ele>
        <time>2024-03-15T12:08:41.789Z</time>
      </trkpt>
      <trkpt lat="48.04162" lon="3.91165">
        <ele>159.33035</ele>
        <time>2024-03-15T12:08:46.382Z</time>
      </trkpt>
      <trkpt lat="48.04188" lon="3.91154">
        <ele>158.985186</ele>
        <time>2024-03-15T12:08:52.606Z</time>
      </trkpt>
      <trkpt lat="48.04149" lon="3.91035">
        <ele>157.844877</ele>
        <time>2024-03-15T12:09:09.750Z</time>
      </trkpt>
      <trkpt lat="48.04152" lon="3.91028">
        <ele>157.768524</ele>
        <time>2024-03-15T12:09:10.851Z</time>
      </trkpt>
      <trkpt lat="48.04153" lon="3.91024">
        <ele>157.738069</ele>
        <time>2024-03-15T12:09:11.267Z</time>
      </trkpt>
      <trkpt lat="48.0415" lon="3.91014">
        <ele>157.637759</ele>
        <time>2024-03-15T12:09:12.623Z</time>
      </trkpt>
      <trkpt lat="48.04141" lon="3.9101">
        <ele>157.52736</ele>
        <time>2024-03-15T12:09:14.170Z</time>
      </trkpt>
      <trkpt lat="48.04135" lon="3.91018">
        <ele>157.417718</ele>
        <time>2024-03-15T12:09:15.786Z</time>
      </trkpt>
      <trkpt lat="48.04109" lon="3.91009">
        <ele>157.059733</ele>
        <time>2024-03-15T12:09:20.407Z</time>
      </trkpt>
      <trkpt lat="48.04088" lon="3.91005">
        <ele>156.48172</ele>
        <time>2024-03-15T12:09:24.415Z</time>
      </trkpt>
      <trkpt lat="48.04039" lon="3.91028">
        <ele>155.148562</ele>
        <time>2024-03-15T12:09:33.436Z</time>
      </trkpt>
      <trkpt lat="48.04034" lon="3.91028">
        <ele>155.024819</ele>
        <time>2024-03-15T12:09:34.315Z</time>
      </trkpt>
      <trkpt lat="48.04024" lon="3.90994">
        <ele>154.372568</ele>
        <time>2024-03-15T12:09:38.691Z</time>
      </trkpt>
      <trkpt lat="48.04015" lon="3.90959">
        <ele>153.727395</ele>
        <time>2024-03-15T12:09:43.066Z</time>
      </trkpt>
      <trkpt lat="48.04014" lon="3.90956">
        <ele>153.661709</ele>
        <time>2024-03-15T12:09:43.515Z</time>
      </trkpt>
      <trkpt lat="48.03998" lon="3.90891">
        <ele>152.446164</ele>
        <time>2024-03-15T12:09:51.546Z</time>
      </trkpt>
      <trkpt lat="48.03996" lon="3.90884">
        <ele>152.303002</ele>
        <time>2024-03-15T12:09:52.384Z</time>
      </trkpt>
      <trkpt lat="48.03974" lon="3.90817">
        <ele>150.752219</ele>
        <time>2024-03-15T12:10:00.962Z</time>
      </trkpt>
      <trkpt lat="48.03942" lon="3.90738">
        <ele>148.846254</ele>
        <time>2024-03-15T12:10:11.339Z</time>
      </trkpt>
      <trkpt lat="48.03922" lon="3.90692">
        <ele>147.699732</ele>
        <time>2024-03-15T12:10:17.684Z</time>
      </trkpt>
      <trkpt lat="48.03913" lon="3.90672">
        <ele>147.209849</ele>
        <time>2024-03-15T12:10:20.464Z</time>
      </trkpt>
      <trkpt lat="48.0391" lon="3.90666">
        <ele>147.05686</ele>
        <time>2024-03-15T12:10:21.323Z</time>
      </trkpt>
      <trkpt lat="48.03885" lon="3.90612">
        <ele>146.08934</ele>
        <time>2024-03-15T12:10:29.314Z</time>
      </trkpt>
      <trkpt lat="48.03855" lon="3.90527">
        <ele>144.81915</ele>
        <time>2024-03-15T12:10:40.989Z</time>
      </trkpt>
      <trkpt lat="48.03877" lon="3.90511">
        <ele>144.331984</ele>
        <time>2024-03-15T12:10:45.795Z</time>
      </trkpt>
      <trkpt lat="48.03897" lon="3.90492">
        <ele>143.862611</ele>
        <time>2024-03-15T12:10:50.363Z</time>
      </trkpt>
      <trkpt lat="48.03934" lon="3.9045">
        <ele>142.9703</ele>
        <time>2024-03-15T12:10:59.515Z</time>
      </trkpt>
      <trkpt lat="48.03952" lon="3.90426">
        <ele>142.548048</ele>
        <time>2024-03-15T12:11:04.309Z</time>
      </trkpt>
      <trkpt lat="48.03972" lon="3.9038">
        <ele>141.901414</ele>
        <time>2024-03-15T12:11:11.724Z</time>
      </trkpt>
      <trkpt lat="48.03978" lon="3.90372">
        <ele>141.770489</ele>
        <time>2024-03-15T12:11:13.253Z</time>
      </trkpt>
      <trkpt lat="48.03982" lon="3.90371">
        <ele>141.686745</ele>
        <time>2024-03-15T12:11:14.227Z</time>
      </trkpt>
      <trkpt lat="48.04001" lon="3.90297">
        <ele>140.76298</ele>
        <time>2024-03-15T12:11:31.519Z</time>
      </trkpt>
      <trkpt lat="48.04009" lon="3.9025">
        <ele>140.194246</ele>
        <time>2024-03-15T12:11:41.989Z</time>
      </trkpt>
      <trkpt lat="48.0401" lon="3.90182">
        <ele>139.446434</ele>
        <time>2024-03-15T12:11:56.575Z</time>
      </trkpt>
      <trkpt lat="48.03994" lon="3.89917">
        <ele>137.323972</ele>
        <time>2024-03-15T12:12:56.057Z</time>
      </trkpt>
      <trkpt lat="48.04" lon="3.89883">
        <ele>137.424876</ele>
        <time>2024-03-15T12:13:04.707Z</time>
      </trkpt>
      <trkpt lat="48.04007" lon="3.89862">
        <ele>137.490288</ele>
        <time>2024-03-15T12:13:10.431Z</time>
      </trkpt>
      <trkpt lat="48.04022" lon="3.8984">
        <ele>137.581868</ele>
        <time>2024-03-15T12:13:18.820Z</time>
      </trkpt>
      <trkpt lat="48.04039" lon="3.89826">
        <ele>137.663236</ele>
        <time>2024-03-15T12:13:26.505Z</time>
      </trkpt>
      <trkpt lat="48.04145" lon="3.89774">
        <ele>139.362867</ele>
        <time>2024-03-15T12:14:18.619Z</time>
      </trkpt>
      <trkpt lat="48.04202" lon="3.89732">
        <ele>141.212801</ele>
        <time>2024-03-15T12:14:52.654Z</time>
      </trkpt>
      <trkpt lat="48.04234" lon="3.89713">
        <ele>142.23675</ele>
        <time>2024-03-15T12:15:11.945Z</time>
      </trkpt>
      <trkpt lat="48.04292" lon="3.89699">
        <ele>143.858942</ele>
        <time>2024-03-15T12:15:43.166Z</time>
      </trkpt>
      <trkpt lat="48.04333" lon="3.89683">
        <ele>144.970844</ele>
        <time>2024-03-15T12:16:05.401Z</time>
      </trkpt>
      <trkpt lat="48.04331" lon="3.89644">
        <ele>145.640456</ele>
        <time>2024-03-15T12:16:14.984Z</time>
      </trkpt>
      <trkpt lat="48.0434" lon="3.89636">
        <ele>145.905731</ele>
        <time>2024-03-15T12:16:20.056Z</time>
      </trkpt>
      <trkpt lat="48.04374" lon="3.89555">
        <ele>147.565523</ele>
        <time>2024-03-15T12:16:51.696Z</time>
      </trkpt>
      <trkpt lat="48.04386" lon="3.89543">
        <ele>147.857336</ele>
        <time>2024-03-15T12:16:58.164Z</time>
      </trkpt>
      <trkpt lat="48.04399" lon="3.8954">
        <ele>147.926241</ele>
        <time>2024-03-15T12:17:04.358Z</time>
      </trkpt>
      <trkpt lat="48.04484" lon="3.89542">
        <ele>148.358452</ele>
        <time>2024-03-15T12:17:38.831Z</time>
      </trkpt>
      <trkpt lat="48.0451" lon="3.89548">
        <ele>148.49312</ele>
        <time>2024-03-15T12:17:48.527Z</time>
      </trkpt>
      <trkpt lat="48.04555" lon="3.89567">
        <ele>148.732129</ele>
        <time>2024-03-15T12:18:05.515Z</time>
      </trkpt>
      <trkpt lat="48.04581" lon="3.89514">
        <ele>148.352063</ele>
        <time>2024-03-15T12:18:21.203Z</time>
      </trkpt>
      <trkpt lat="48.04645" lon="3.89456">
        <ele>147.563803</ele>
        <time>2024-03-15T12:18:46.619Z</time>
      </trkpt>
      <trkpt lat="48.04668" lon="3.89423">
        <ele>147.222332</ele>
        <time>2024-03-15T12:18:57.361Z</time>
      </trkpt>
      <trkpt lat="48.04804" lon="3.89166">
        <ele>144.229614</ele>
        <time>2024-03-15T12:20:11.252Z</time>
      </trkpt>
      <trkpt lat="48.0481" lon="3.89163">
        <ele>144.097933</ele>
        <time>2024-03-15T12:20:13.378Z</time>
      </trkpt>
      <trkpt lat="48.04815" lon="3.89169">
        <ele>143.958627</ele>
        <time>2024-03-15T12:20:15.562Z</time>
      </trkpt>
      <trkpt lat="48.04832" lon="3.89206">
        <ele>143.354074</ele>
        <time>2024-03-15T12:20:25.193Z</time>
      </trkpt>
      <trkpt lat="48.0492" lon="3.89407">
        <ele>140.484887</ele>
        <time>2024-03-15T12:21:16.704Z</time>
      </trkpt>
      <trkpt lat="48.04967" lon="3.89491">
        <ele>140.10714</ele>
        <time>2024-03-15T12:21:41.272Z</time>
      </trkpt>
      <trkpt lat="48.05028" lon="3.89612">
        <ele>140.231872</ele>
        <time>2024-03-15T12:22:22.644Z</time>
      </trkpt>
      <trkpt lat="48.05123" lon="3.89771">
        <ele>143.627187</ele>
        <time>2024-03-15T12:23:36.932Z</time>
      </trkpt>
      <trkpt lat="48.0518" lon="3.89921">
        <ele>145.157276</ele>
        <time>2024-03-15T12:24:31.586Z</time>
      </trkpt>
      <trkpt lat="48.05195" lon="3.89912">
        <ele>145.356031</ele>
        <time>2024-03-15T12:24:35.934Z</time>
      </trkpt>
      <trkpt lat="48.05233" lon="3.89892">
        <ele>145.832313</ele>
        <time>2024-03-15T12:24:45.714Z</time>
      </trkpt>
      <trkpt lat="48.05261" lon="3.89868">
        <ele>145.953856</ele>
        <time>2024-03-15T12:24:52.651Z</time>
      </trkpt>
      <trkpt lat="48.05514" lon="3.89513">
        <ele>139.765474</ele>
        <time>2024-03-15T12:25:57.209Z</time>
      </trkpt>
      <trkpt lat="48.05628" lon="3.89327">
        <ele>135.211763</ele>
        <time>2024-03-15T12:26:25.891Z</time>
      </trkpt>
      <trkpt lat="48.05342" lon="3.88634">
        <ele>129.786817</ele>
        <time>2024-03-15T12:28:14.403Z</time>
      </trkpt>
      <trkpt lat="48.05285" lon="3.88349">
        <ele>130.887535</ele>
        <time>2024-03-15T12:29:07.698Z</time>
      </trkpt>
      <trkpt lat="48.05238" lon="3.881">
        <ele>131.173844</ele>
        <time>2024-03-15T12:29:47.167Z</time>
      </trkpt>
      <trkpt lat="48.05192" lon="3.87857">
        <ele>130.472787</ele>
        <time>2024-03-15T12:30:22.945Z</time>
      </trkpt>
      <trkpt lat="48.05318" lon="3.87717">
        <ele>129.099183</ele>
        <time>2024-03-15T12:31:17.496Z</time>
      </trkpt>
      <trkpt lat="48.05343" lon="3.87696">
        <ele>128.835928</ele>
        <time>2024-03-15T12:31:27.435Z</time>
      </trkpt>
      <trkpt lat="48.0559" lon="3.8758">
        <ele>125.896042</ele>
        <time>2024-03-15T12:32:55.461Z</time>
      </trkpt>
      <trkpt lat="48.05843" lon="3.87467">
        <ele>124.025825</ele>
        <time>2024-03-15T12:34:27.835Z</time>
      </trkpt>
      <trkpt lat="48.05891" lon="3.87656">
        <ele>124.819662</ele>
        <time>2024-03-15T12:35:22.090Z</time>
      </trkpt>
      <trkpt lat="48.06142" lon="3.8747">
        <ele>128.31778</ele>
        <time>2024-03-15T12:37:23.471Z</time>
      </trkpt>
      <trkpt lat="48.06269" lon="3.87431">
        <ele>130.845784</ele>
        <time>2024-03-15T12:38:24.756Z</time>
      </trkpt>
      <trkpt lat="48.06318" lon="3.87431">
        <ele>132.949817</ele>
        <time>2024-03-15T12:38:49.018Z</time>
      </trkpt>
      <trkpt lat="48.06392" lon="3.87412">
        <ele>136.772529</ele>
        <time>2024-03-15T12:39:30.609Z</time>
      </trkpt>
      <trkpt lat="48.06407" lon="3.87415">
        <ele>137.597279</ele>
        <time>2024-03-15T12:39:40.540Z</time>
      </trkpt>
      <trkpt lat="48.06416" lon="3.8739">
        <ele>138.574407</ele>
        <time>2024-03-15T12:39:51.640Z</time>
      </trkpt>
      <trkpt lat="48.06439" lon="3.8736">
        <ele>140.137973</ele>
        <time>2024-03-15T12:40:10.955Z</time>
      </trkpt>
      <trkpt lat="48.06456" lon="3.87336">
        <ele>142.55256</ele>
        <time>2024-03-15T12:40:27.267Z</time>
      </trkpt>
      <trkpt lat="48.06456" lon="3.87336">
        <ele>142.55256</ele>
        <time>2024-03-15T12:40:27.282Z</time>
      </trkpt>
      <trkpt lat="48.06456" lon="3.87336">
        <ele>142.55256</ele>
        <time>2024-03-15T12:40:27.282Z</time>
      </trkpt>
      <trkpt lat="48.06498" lon="3.87344">
        <ele>147.250192</ele>
        <time>2024-03-15T12:40:38.196Z</time>
      </trkpt>
      <trkpt lat="48.06524" lon="3.87375">
        <ele>150.906832</ele>
        <time>2024-03-15T12:40:46.695Z</time>
      </trkpt>
      <trkpt lat="48.06611" lon="3.87403">
        <ele>160.712048</ele>
        <time>2024-03-15T12:41:09.949Z</time>
      </trkpt>
      <trkpt lat="48.06638" lon="3.8746">
        <ele>163.826751</ele>
        <time>2024-03-15T12:41:22.233Z</time>
      </trkpt>
      <trkpt lat="48.06657" lon="3.87452">
        <ele>165.151943</ele>
        <time>2024-03-15T12:41:27.451Z</time>
      </trkpt>
      <trkpt lat="48.06658" lon="3.87454">
        <ele>165.27011</ele>
        <time>2024-03-15T12:41:28.771Z</time>
      </trkpt>
      <trkpt lat="48.06664" lon="3.87469">
        <ele>166.025019</ele>
        <time>2024-03-15T12:41:36.327Z</time>
      </trkpt>
      <trkpt lat="48.06672" lon="3.87479">
        <ele>166.721659</ele>
        <time>2024-03-15T12:41:43.171Z</time>
      </trkpt>
      <trkpt lat="48.06705" lon="3.87456">
        <ele>169.148767</ele>
        <time>2024-03-15T12:42:00.960Z</time>
      </trkpt>
      <trkpt lat="48.06741" lon="3.87426">
        <ele>171.802265</ele>
        <time>2024-03-15T12:42:11.242Z</time>
      </trkpt>
      <trkpt lat="48.06741" lon="3.87426">
        <ele>171.802265</ele>
        <time>2024-03-15T12:42:11.255Z</time>
      </trkpt>
      <trkpt lat="48.06708" lon="3.87334">
        <ele>170.823429</ele>
        <time>2024-03-15T12:42:29.376Z</time>
      </trkpt>
      <trkpt lat="48.06675" lon="3.87241">
        <ele>169.169327</ele>
        <time>2024-03-15T12:42:47.502Z</time>
      </trkpt>
      <trkpt lat="48.06754" lon="3.87224">
        <ele>166.523893</ele>
        <time>2024-03-15T12:43:08.372Z</time>
      </trkpt>
      <trkpt lat="48.06834" lon="3.87206">
        <ele>162.824965</ele>
        <time>2024-03-15T12:43:29.264Z</time>
      </trkpt>
      <trkpt lat="48.06914" lon="3.87189">
        <ele>158.74964</ele>
        <time>2024-03-15T12:43:50.152Z</time>
      </trkpt>
      <trkpt lat="48.06879" lon="3.87092">
        <ele>153.49419</ele>
        <time>2024-03-15T12:44:09.260Z</time>
      </trkpt>
      <trkpt lat="48.06844" lon="3.86995">
        <ele>148.239515</ele>
        <time>2024-03-15T12:44:28.367Z</time>
      </trkpt>
      <trkpt lat="48.06899" lon="3.86966">
        <ele>145.254415</ele>
        <time>2024-03-15T12:44:43.408Z</time>
      </trkpt>
      <trkpt lat="48.06958" lon="3.86869">
        <ele>141.46838</ele>
        <time>2024-03-15T12:45:06.260Z</time>
      </trkpt>
      <trkpt lat="48.06923" lon="3.86766">
        <ele>138.79258</ele>
        <time>2024-03-15T12:45:26.224Z</time>
      </trkpt>
      <trkpt lat="48.0696" lon="3.86726">
        <ele>137.944727</ele>
        <time>2024-03-15T12:45:37.957Z</time>
      </trkpt>
      <trkpt lat="48.06997" lon="3.86686">
        <ele>137.097609</ele>
        <time>2024-03-15T12:45:49.679Z</time>
      </trkpt>
      <trkpt lat="48.07022" lon="3.86627">
        <ele>136.219905</ele>
        <time>2024-03-15T12:46:01.824Z</time>
      </trkpt>
      <trkpt lat="48.06967" lon="3.8657">
        <ele>135.616557</ele>
        <time>2024-03-15T12:46:18.989Z</time>
      </trkpt>
      <trkpt lat="48.06913" lon="3.86513">
        <ele>135.216185</ele>
        <time>2024-03-15T12:46:36.153Z</time>
      </trkpt>
      <trkpt lat="48.06945" lon="3.86401">
        <ele>134.803457</ele>
        <time>2024-03-15T12:46:57.250Z</time>
      </trkpt>
      <trkpt lat="48.06994" lon="3.86327">
        <ele>134.682463</ele>
        <time>2024-03-15T12:47:15.367Z</time>
      </trkpt>
      <trkpt lat="48.07017" lon="3.86237">
        <ele>134.571404</ele>
        <time>2024-03-15T12:47:31.997Z</time>
      </trkpt>
      <trkpt lat="48.07054" lon="3.86167">
        <ele>134.613295</ele>
        <time>2024-03-15T12:47:47.399Z</time>
      </trkpt>
      <trkpt lat="48.07101" lon="3.8615">
        <ele>134.746</ele>
        <time>2024-03-15T12:47:59.990Z</time>
      </trkpt>
      <trkpt lat="48.07105" lon="3.86171">
        <ele>134.785151</ele>
        <time>2024-03-15T12:48:02.932Z</time>
      </trkpt>
      <trkpt lat="48.07117" lon="3.86209">
        <ele>134.861272</ele>
        <time>2024-03-15T12:48:10.284Z</time>
      </trkpt>
      <trkpt lat="48.0716" lon="3.86298">
        <ele>135.282259</ele>
        <time>2024-03-15T12:48:30.901Z</time>
      </trkpt>
      <trkpt lat="48.07164" lon="3.86284">
        <ele>135.439932</ele>
        <time>2024-03-15T12:48:35.207Z</time>
      </trkpt>
      <trkpt lat="48.07189" lon="3.86137">
        <ele>137.045759</ele>
        <time>2024-03-15T12:49:21.350Z</time>
      </trkpt>
      <trkpt lat="48.07195" lon="3.86124">
        <ele>137.202423</ele>
        <time>2024-03-15T12:49:26.133Z</time>
      </trkpt>
      <trkpt lat="48.0722" lon="3.86045">
        <ele>137.915658</ele>
        <time>2024-03-15T12:49:53.891Z</time>
      </trkpt>
      <trkpt lat="48.0725" lon="3.85985">
        <ele>138.102499</ele>
        <time>2024-03-15T12:50:15.504Z</time>
      </trkpt>
      <trkpt lat="48.07283" lon="3.8594">
        <ele>138.27033</ele>
        <time>2024-03-15T12:50:32.616Z</time>
      </trkpt>
      <trkpt lat="48.07319" lon="3.85911">
        <ele>138.42462</ele>
        <time>2024-03-15T12:50:47.302Z</time>
      </trkpt>
      <trkpt lat="48.07348" lon="3.85895">
        <ele>138.473567</ele>
        <time>2024-03-15T12:50:58.193Z</time>
      </trkpt>
      <trkpt lat="48.07377" lon="3.85884">
        <ele>138.147661</ele>
        <time>2024-03-15T12:51:08.044Z</time>
      </trkpt>
      <trkpt lat="48.07381" lon="3.85864">
        <ele>137.989247</ele>
        <time>2024-03-15T12:51:12.757Z</time>
      </trkpt>
      <trkpt lat="48.07375" lon="3.85817">
        <ele>137.626775</ele>
        <time>2024-03-15T12:51:23.542Z</time>
      </trkpt>
      <trkpt lat="48.07376" lon="3.85812">
        <ele>137.590488</ele>
        <time>2024-03-15T12:51:24.594Z</time>
      </trkpt>
      <trkpt lat="48.07434" lon="3.85795">
        <ele>136.926346</ele>
        <time>2024-03-15T12:51:44.518Z</time>
      </trkpt>
      <trkpt lat="48.07476" lon="3.85742">
        <ele>136.48496</ele>
        <time>2024-03-15T12:52:03.596Z</time>
      </trkpt>
      <trkpt lat="48.07494" lon="3.8573">
        <ele>136.457416</ele>
        <time>2024-03-15T12:52:10.801Z</time>
      </trkpt>
      <trkpt lat="48.07531" lon="3.85717">
        <ele>136.405462</ele>
        <time>2024-03-15T12:52:24.609Z</time>
      </trkpt>
      <trkpt lat="48.07621" lon="3.85655">
        <ele>136.268524</ele>
        <time>2024-03-15T12:53:02.080Z</time>
      </trkpt>
      <trkpt lat="48.07699" lon="3.85577">
        <ele>136.148002</ele>
        <time>2024-03-15T12:53:36.914Z</time>
      </trkpt>
      <trkpt lat="48.07732" lon="3.85528">
        <ele>136.088157</ele>
        <time>2024-03-15T12:53:53.987Z</time>
      </trkpt>
      <trkpt lat="48.07752" lon="3.85499">
        <ele>136.053207</ele>
        <time>2024-03-15T12:54:03.786Z</time>
      </trkpt>
      <trkpt lat="48.07794" lon="3.85451">
        <ele>136.045556</ele>
        <time>2024-03-15T12:54:23.076Z</time>
      </trkpt>
      <trkpt lat="48.0781" lon="3.85426">
        <ele>136.055236</ele>
        <time>2024-03-15T12:54:31.292Z</time>
      </trkpt>
      <trkpt lat="48.07851" lon="3.85338">
        <ele>136.085996</ele>
        <time>2024-03-15T12:54:58.134Z</time>
      </trkpt>
      <trkpt lat="48.07902" lon="3.85262">
        <ele>136.418134</ele>
        <time>2024-03-15T12:55:26.639Z</time>
      </trkpt>
      <trkpt lat="48.07921" lon="3.85242">
        <ele>136.746383</ele>
        <time>2024-03-15T12:55:35.827Z</time>
      </trkpt>
      <trkpt lat="48.07954" lon="3.85217">
        <ele>137.250692</ele>
        <time>2024-03-15T12:55:50.486Z</time>
      </trkpt>
      <trkpt lat="48.08041" lon="3.85176">
        <ele>138.518597</ele>
        <time>2024-03-15T12:56:32.004Z</time>
      </trkpt>
      <trkpt lat="48.08066" lon="3.85167">
        <ele>139.308862</ele>
        <time>2024-03-15T12:56:45.192Z</time>
      </trkpt>
      <trkpt lat="48.08072" lon="3.85165">
        <ele>139.535878</ele>
        <time>2024-03-15T12:56:48.549Z</time>
      </trkpt>
      <trkpt lat="48.08086" lon="3.85168">
        <ele>140.044155</ele>
        <time>2024-03-15T12:56:56.125Z</time>
      </trkpt>
      <trkpt lat="48.08218" lon="3.85278">
        <ele>145.346791</ele>
        <time>2024-03-15T12:58:21.784Z</time>
      </trkpt>
      <trkpt lat="48.08262" lon="3.85295">
        <ele>146.719699</ele>
        <time>2024-03-15T12:58:48.759Z</time>
      </trkpt>
      <trkpt lat="48.08316" lon="3.85324">
        <ele>148.417524</ele>
        <time>2024-03-15T12:59:19.583Z</time>
      </trkpt>
      <trkpt lat="48.08408" lon="3.85389">
        <ele>150.720872</ele>
        <time>2024-03-15T13:00:06.186Z</time>
      </trkpt>
      <trkpt lat="48.08466" lon="3.85421">
        <ele>151.285651</ele>
        <time>2024-03-15T13:00:31.116Z</time>
      </trkpt>
      <trkpt lat="48.08476" lon="3.85423">
        <ele>151.381447</ele>
        <time>2024-03-15T13:00:35.452Z</time>
      </trkpt>
      <trkpt lat="48.08505" lon="3.85421">
        <ele>151.640455</ele>
        <time>2024-03-15T13:00:47.098Z</time>
      </trkpt>
      <trkpt lat="48.08547" lon="3.85395">
        <ele>152.030877</ele>
        <time>2024-03-15T13:01:05.945Z</time>
      </trkpt>
      <trkpt lat="48.08567" lon="3.85387">
        <ele>151.943483</ele>
        <time>2024-03-15T13:01:14.861Z</time>
      </trkpt>
      <trkpt lat="48.08691" lon="3.85363">
        <ele>151.411286</ele>
        <time>2024-03-15T13:01:58.723Z</time>
      </trkpt>
      <trkpt lat="48.08709" lon="3.85363">
        <ele>151.332373</ele>
        <time>2024-03-15T13:02:05.201Z</time>
      </trkpt>
      <trkpt lat="48.08687" lon="3.8526">
        <ele>150.677822</ele>
        <time>2024-03-15T13:02:30.118Z</time>
      </trkpt>
      <trkpt lat="48.08682" lon="3.85205">
        <ele>150.297296</ele>
        <time>2024-03-15T13:02:42.909Z</time>
      </trkpt>
      <trkpt lat="48.08689" lon="3.85188">
        <ele>150.167376</ele>
        <time>2024-03-15T13:02:47.138Z</time>
      </trkpt>
      <trkpt lat="48.08699" lon="3.85126">
        <ele>149.733543</ele>
        <time>2024-03-15T13:03:01.497Z</time>
      </trkpt>
      <trkpt lat="48.08729" lon="3.85068">
        <ele>149.62045</ele>
        <time>2024-03-15T13:03:11.680Z</time>
      </trkpt>
      <trkpt lat="48.08735" lon="3.8506">
        <ele>149.693168</ele>
        <time>2024-03-15T13:03:13.483Z</time>
      </trkpt>
      <trkpt lat="48.08729" lon="3.85047">
        <ele>149.778581</ele>
        <time>2024-03-15T13:03:15.689Z</time>
      </trkpt>
      <trkpt lat="48.0873" lon="3.85022">
        <ele>149.928094</ele>
        <time>2024-03-15T13:03:19.787Z</time>
      </trkpt>
      <trkpt lat="48.0879" lon="3.84759">
        <ele>152.123185</ele>
        <time>2024-03-15T13:04:17.691Z</time>
      </trkpt>
      <trkpt lat="48.08803" lon="3.84731">
        <ele>152.526322</ele>
        <time>2024-03-15T13:04:25.189Z</time>
      </trkpt>
      <trkpt lat="48.08827" lon="3.84703">
        <ele>153.080876</ele>
        <time>2024-03-15T13:04:35.383Z</time>
      </trkpt>
      <trkpt lat="48.08822" lon="3.8469">
        <ele>153.262972</ele>
        <time>2024-03-15T13:04:38.626Z</time>
      </trkpt>
      <trkpt lat="48.08836" lon="3.84678">
        <ele>153.543393</ele>
        <time>2024-03-15T13:04:43.762Z</time>
      </trkpt>
      <trkpt lat="48.08863" lon="3.84624">
        <ele>154.309095</ele>
        <time>2024-03-15T13:05:05.070Z</time>
      </trkpt>
      <trkpt lat="48.08886" lon="3.84576">
        <ele>154.650893</ele>
        <time>2024-03-15T13:05:22.841Z</time>
      </trkpt>
      <trkpt lat="48.08919" lon="3.84495">
        <ele>155.201878</ele>
        <time>2024-03-15T13:05:49.259Z</time>
      </trkpt>
      <trkpt lat="48.08944" lon="3.84431">
        <ele>155.63018</ele>
        <time>2024-03-15T13:06:08.484Z</time>
      </trkpt>
      <trkpt lat="48.08993" lon="3.84474">
        <ele>156.101576</ele>
        <time>2024-03-15T13:06:29.186Z</time>
      </trkpt>
      <trkpt lat="48.09135" lon="3.84616">
        <ele>157.95027</ele>
        <time>2024-03-15T13:07:40.262Z</time>
      </trkpt>
      <trkpt lat="48.09204" lon="3.84681">
        <ele>160.095014</ele>
        <time>2024-03-15T13:08:21.453Z</time>
      </trkpt>
      <trkpt lat="48.09222" lon="3.84699">
        <ele>160.656938</ele>
        <time>2024-03-15T13:08:32.643Z</time>
      </trkpt>
      <trkpt lat="48.09236" lon="3.84721">
        <ele>161.183355</ele>
        <time>2024-03-15T13:08:43.687Z</time>
      </trkpt>
      <trkpt lat="48.09273" lon="3.84651">
        <ele>162.979227</ele>
        <time>2024-03-15T13:09:17.043Z</time>
      </trkpt>
      <trkpt lat="48.09285" lon="3.84621">
        <ele>163.750629</ele>
        <time>2024-03-15T13:09:29.768Z</time>
      </trkpt>
      <trkpt lat="48.09361" lon="3.844">
        <ele>169.502265</ele>
        <time>2024-03-15T13:10:57.909Z</time>
      </trkpt>
      <trkpt lat="48.09386" lon="3.84329">
        <ele>171.586812</ele>
        <time>2024-03-15T13:11:27.853Z</time>
      </trkpt>
      <trkpt lat="48.09476" lon="3.84115">
        <ele>177.826969</ele>
        <time>2024-03-15T13:13:06.872Z</time>
      </trkpt>
      <trkpt lat="48.09511" lon="3.84004">
        <ele>180.705456</ele>
        <time>2024-03-15T13:13:52.048Z</time>
      </trkpt>
      <trkpt lat="48.09611" lon="3.83704">
        <ele>183.87895</ele>
        <time>2024-03-15T13:15:29.470Z</time>
      </trkpt>
      <trkpt lat="48.09637" lon="3.83635">
        <ele>183.946992</ele>
        <time>2024-03-15T13:15:49.923Z</time>
      </trkpt>
      <trkpt lat="48.09668" lon="3.83568">
        <ele>184.017513</ele>
        <time>2024-03-15T13:16:09.939Z</time>
      </trkpt>
      <trkpt lat="48.09679" lon="3.83531">
        <ele>184.05137</ele>
        <time>2024-03-15T13:16:19.310Z</time>
      </trkpt>
      <trkpt lat="48.09687" lon="3.83489">
        <ele>184.013164</ele>
        <time>2024-03-15T13:16:29.617Z</time>
      </trkpt>
      <trkpt lat="48.09885" lon="3.83669">
        <ele>183.739627</ele>
        <time>2024-03-15T13:17:51.799Z</time>
      </trkpt>
      <trkpt lat="48.09893" lon="3.83679">
        <ele>183.848478</ele>
        <time>2024-03-15T13:17:56.034Z</time>
      </trkpt>
      <trkpt lat="48.10097" lon="3.83869">
        <ele>186.447302</ele>
        <time>2024-03-15T13:19:50.094Z</time>
      </trkpt>
      <trkpt lat="48.10261" lon="3.84017">
        <ele>184.415523</ele>
        <time>2024-03-15T13:20:54.753Z</time>
      </trkpt>
      <trkpt lat="48.10308" lon="3.83932">
        <ele>182.905183</ele>
        <time>2024-03-15T13:21:16.961Z</time>
      </trkpt>
      <trkpt lat="48.10397" lon="3.83778">
        <ele>179.702532</ele>
        <time>2024-03-15T13:22:00.201Z</time>
      </trkpt>
      <trkpt lat="48.10523" lon="3.8356">
        <ele>179.244565</ele>
        <time>2024-03-15T13:23:10.949Z</time>
      </trkpt>
      <trkpt lat="48.10722" lon="3.83873">
        <ele>183.39779</ele>
        <time>2024-03-15T13:25:15.704Z</time>
      </trkpt>
      <trkpt lat="48.10806" lon="3.84012">
        <ele>186.905756</ele>
        <time>2024-03-15T13:26:23.396Z</time>
      </trkpt>
      <trkpt lat="48.10869" lon="3.84109">
        <ele>190.161678</ele>
        <time>2024-03-15T13:27:14.930Z</time>
      </trkpt>
      <trkpt lat="48.10887" lon="3.84136">
        <ele>191.07122</ele>
        <time>2024-03-15T13:27:28.984Z</time>
      </trkpt>
      <trkpt lat="48.10893" lon="3.8415">
        <ele>191.363617</ele>
        <time>2024-03-15T13:27:34.730Z</time>
      </trkpt>
      <trkpt lat="48.10985" lon="3.84055">
        <ele>194.336082</ele>
        <time>2024-03-15T13:28:33.504Z</time>
      </trkpt>
      <trkpt lat="48.11036" lon="3.83998">
        <ele>195.967319</ele>
        <time>2024-03-15T13:29:02.711Z</time>
      </trkpt>
      <trkpt lat="48.11086" lon="3.83941">
        <ele>196.934284</ele>
        <time>2024-03-15T13:29:29.391Z</time>
      </trkpt>
      <trkpt lat="48.11118" lon="3.83909">
        <ele>197.525672</ele>
        <time>2024-03-15T13:29:46.181Z</time>
      </trkpt>
      <trkpt lat="48.11125" lon="3.83908">
        <ele>197.630832</ele>
        <time>2024-03-15T13:29:48.281Z</time>
      </trkpt>
      <trkpt lat="48.11162" lon="3.83963">
        <ele>198.431614</ele>
        <time>2024-03-15T13:30:03.735Z</time>
      </trkpt>
      <trkpt lat="48.1125" lon="3.83884">
        <ele>201.569228</ele>
        <time>2024-03-15T13:30:39.626Z</time>
      </trkpt>
      <trkpt lat="48.11274" lon="3.8387">
        <ele>202.413722</ele>
        <time>2024-03-15T13:30:50.196Z</time>
      </trkpt>
      <trkpt lat="48.1133" lon="3.83847">
        <ele>204.344252</ele>
        <time>2024-03-15T13:31:16.699Z</time>
      </trkpt>
      <trkpt lat="48.11378" lon="3.83832">
        <ele>205.384224</ele>
        <time>2024-03-15T13:31:37.608Z</time>
      </trkpt>
      <trkpt lat="48.11428" lon="3.83826">
        <ele>206.374859</ele>
        <time>2024-03-15T13:31:57.707Z</time>
      </trkpt>
      <trkpt lat="48.11453" lon="3.83824">
        <ele>206.861729</ele>
        <time>2024-03-15T13:32:06.407Z</time>
      </trkpt>
      <trkpt lat="48.11552" lon="3.83814">
        <ele>206.831714</ele>
        <time>2024-03-15T13:32:26.831Z</time>
      </trkpt>
      <trkpt lat="48.11577" lon="3.83804">
        <ele>205.885614</ele>
        <time>2024-03-15T13:32:31.268Z</time>
      </trkpt>
      <trkpt lat="48.11601" lon="3.83783">
        <ele>204.904499</ele>
        <time>2024-03-15T13:32:35.687Z</time>
      </trkpt>
      <trkpt lat="48.11643" lon="3.83731">
        <ele>202.973971</ele>
        <time>2024-03-15T13:32:44.266Z</time>
      </trkpt>
      <trkpt lat="48.11661" lon="3.83713">
        <ele>202.196052</ele>
        <time>2024-03-15T13:32:47.747Z</time>
      </trkpt>
      <trkpt lat="48.11734" lon="3.83656">
        <ele>200.456655</ele>
        <time>2024-03-15T13:33:01.216Z</time>
      </trkpt>
      <trkpt lat="48.11784" lon="3.83606">
        <ele>199.357316</ele>
        <time>2024-03-15T13:33:12.362Z</time>
      </trkpt>
      <trkpt lat="48.11825" lon="3.83554">
        <ele>198.461675</ele>
        <time>2024-03-15T13:33:25.357Z</time>
      </trkpt>
      <trkpt lat="48.11951" lon="3.83324">
        <ele>203.329023</ele>
        <time>2024-03-15T13:34:35.614Z</time>
      </trkpt>
      <trkpt lat="48.11951" lon="3.83324">
        <ele>203.329023</ele>
        <time>2024-03-15T13:34:35.619Z</time>
      </trkpt>
      <trkpt lat="48.11996" lon="3.83253">
        <ele>205.442265</ele>
        <time>2024-03-15T13:35:01.933Z</time>
      </trkpt>
      <trkpt lat="48.12003" lon="3.83263">
        <ele>205.748075</ele>
        <time>2024-03-15T13:35:07.099Z</time>
      </trkpt>
      <trkpt lat="48.12106" lon="3.83664">
        <ele>213.116945</ele>
        <time>2024-03-15T13:37:39.388Z</time>
      </trkpt>
      <trkpt lat="48.12129" lon="3.83725">
        <ele>212.148733</ele>
        <time>2024-03-15T13:37:54.845Z</time>
      </trkpt>
      <trkpt lat="48.12153" lon="3.83803">
        <ele>210.946137</ele>
        <time>2024-03-15T13:38:12.666Z</time>
      </trkpt>
      <trkpt lat="48.12183" lon="3.8392">
        <ele>208.644624</ele>
        <time>2024-03-15T13:38:26.708Z</time>
      </trkpt>
      <trkpt lat="48.12189" lon="3.83958">
        <ele>207.65714</ele>
        <time>2024-03-15T13:38:30.877Z</time>
      </trkpt>
      <trkpt lat="48.12132" lon="3.83987">
        <ele>205.321577</ele>
        <time>2024-03-15T13:38:40.991Z</time>
      </trkpt>
      <trkpt lat="48.12156" lon="3.84054">
        <ele>203.357199</ele>
        <time>2024-03-15T13:38:49.808Z</time>
      </trkpt>
      <trkpt lat="48.12185" lon="3.84124">
        <ele>203.584645</ele>
        <time>2024-03-15T13:39:00.629Z</time>
      </trkpt>
      <trkpt lat="48.12339" lon="3.8441">
        <ele>210.141236</ele>
        <time>2024-03-15T13:40:30.423Z</time>
      </trkpt>
      <trkpt lat="48.12349" lon="3.84438">
        <ele>211.001138</ele>
        <time>2024-03-15T13:40:40.772Z</time>
      </trkpt>
      <trkpt lat="48.12358" lon="3.84474">
        <ele>212.049706</ele>
        <time>2024-03-15T13:40:53.596Z</time>
      </trkpt>
      <trkpt lat="48.12368" lon="3.84532">
        <ele>214.025591</ele>
        <time>2024-03-15T13:41:14.285Z</time>
      </trkpt>
      <trkpt lat="48.12372" lon="3.84575">
        <ele>215.88657</ele>
        <time>2024-03-15T13:41:29.568Z</time>
      </trkpt>
      <trkpt lat="48.12381" lon="3.84752">
        <ele>223.543286</ele>
        <time>2024-03-15T13:42:35.486Z</time>
      </trkpt>
      <trkpt lat="48.12384" lon="3.84902">
        <ele>229.853212</ele>
        <time>2024-03-15T13:43:31.344Z</time>
      </trkpt>
      <trkpt lat="48.12382" lon="3.84959">
        <ele>232.248835</ele>
        <time>2024-03-15T13:43:52.554Z</time>
      </trkpt>
      <trkpt lat="48.12376" lon="3.85042">
        <ele>235.710197</ele>
        <time>2024-03-15T13:44:21.369Z</time>
      </trkpt>
      <trkpt lat="48.12368" lon="3.85151">
        <ele>239.009448</ele>
        <time>2024-03-15T13:44:55.864Z</time>
      </trkpt>
      <trkpt lat="48.12371" lon="3.85216">
        <ele>240.936403</ele>
        <time>2024-03-15T13:45:14.507Z</time>
      </trkpt>
      <trkpt lat="48.12379" lon="3.85262">
        <ele>242.332406</ele>
        <time>2024-03-15T13:45:27.619Z</time>
      </trkpt>
      <trkpt lat="48.12385" lon="3.85276">
        <ele>242.810714</ele>
        <time>2024-03-15T13:45:32.042Z</time>
      </trkpt>
      <trkpt lat="48.12402" lon="3.85302">
        <ele>243.887521</ele>
        <time>2024-03-15T13:45:42.149Z</time>
      </trkpt>
      <trkpt lat="48.12428" lon="3.85331">
        <ele>245.227423</ele>
        <time>2024-03-15T13:45:55.167Z</time>
      </trkpt>
      <trkpt lat="48.12447" lon="3.85339">
        <ele>246.027415</ele>
        <time>2024-03-15T13:46:02.667Z</time>
      </trkpt>
      <trkpt lat="48.12466" lon="3.85339">
        <ele>246.805713</ele>
        <time>2024-03-15T13:46:10.159Z</time>
      </trkpt>
      <trkpt lat="48.12513" lon="3.85327">
        <ele>248.804717</ele>
        <time>2024-03-15T13:46:30.310Z</time>
      </trkpt>
      <trkpt lat="48.1253" lon="3.85329">
        <ele>249.486405</ele>
        <time>2024-03-15T13:46:37.640Z</time>
      </trkpt>
      <trkpt lat="48.12547" lon="3.85336">
        <ele>250.192263</ele>
        <time>2024-03-15T13:46:45.309Z</time>
      </trkpt>
      <trkpt lat="48.12588" lon="3.85365">
        <ele>252.337353</ele>
        <time>2024-03-15T13:47:06.861Z</time>
      </trkpt>
      <trkpt lat="48.12656" lon="3.85451">
        <ele>257.172377</ele>
        <time>2024-03-15T13:47:51.789Z</time>
      </trkpt>
      <trkpt lat="48.12682" lon="3.85471">
        <ele>258.746944</ele>
        <time>2024-03-15T13:48:06.766Z</time>
      </trkpt>
      <trkpt lat="48.12748" lon="3.85491">
        <ele>262.21083</ele>
        <time>2024-03-15T13:48:40.199Z</time>
      </trkpt>
      <trkpt lat="48.12785" lon="3.85499">
        <ele>263.987557</ele>
        <time>2024-03-15T13:48:58.061Z</time>
      </trkpt>
      <trkpt lat="48.12807" lon="3.8551">
        <ele>265.08951</ele>
        <time>2024-03-15T13:49:08.748Z</time>
      </trkpt>
      <trkpt lat="48.12831" lon="3.85533">
        <ele>266.403188</ele>
        <time>2024-03-15T13:49:21.204Z</time>
      </trkpt>
      <trkpt lat="48.12878" lon="3.85591">
        <ele>269.249042</ele>
        <time>2024-03-15T13:49:47.664Z</time>
      </trkpt>
      <trkpt lat="48.12912" lon="3.8564">
        <ele>271.114898</ele>
        <time>2024-03-15T13:50:08.167Z</time>
      </trkpt>
      <trkpt lat="48.1293" lon="3.85675">
        <ele>272.240832</ele>
        <time>2024-03-15T13:50:20.757Z</time>
      </trkpt>
      <trkpt lat="48.12944" lon="3.85725">
        <ele>273.625201</ele>
        <time>2024-03-15T13:50:36.043Z</time>
      </trkpt>
      <trkpt lat="48.12958" lon="3.85804">
        <ele>275.697088</ele>
        <time>2024-03-15T13:50:58.445Z</time>
      </trkpt>
      <trkpt lat="48.1297" lon="3.85834">
        <ele>276.501358</ele>
        <time>2024-03-15T13:51:07.838Z</time>
      </trkpt>
      <trkpt lat="48.12989" lon="3.85864">
        <ele>277.104747</ele>
        <time>2024-03-15T13:51:18.122Z</time>
      </trkpt>
      <trkpt lat="48.13006" lon="3.85901">
        <ele>277.744722</ele>
        <time>2024-03-15T13:51:28.191Z</time>
      </trkpt>
      <trkpt lat="48.13032" lon="3.85942">
        <ele>278.567854</ele>
        <time>2024-03-15T13:51:40.067Z</time>
      </trkpt>
      <trkpt lat="48.13049" lon="3.85965">
        <ele>279.060946</ele>
        <time>2024-03-15T13:51:47.539Z</time>
      </trkpt>
      <trkpt lat="48.13049" lon="3.85965">
        <ele>279.060946</ele>
        <time>2024-03-15T13:51:47.553Z</time>
      </trkpt>
      <trkpt lat="48.12995" lon="3.85929">
        <ele>280.294495</ele>
        <time>2024-03-15T13:52:02.649Z</time>
      </trkpt>
      <trkpt lat="48.12942" lon="3.85893">
        <ele>280.829951</ele>
        <time>2024-03-15T13:52:17.769Z</time>
      </trkpt>
      <trkpt lat="48.12914" lon="3.85895">
        <ele>281.084029</ele>
        <time>2024-03-15T13:52:24.944Z</time>
      </trkpt>
      <trkpt lat="48.12952" lon="3.85957">
        <ele>281.595084</ele>
        <time>2024-03-15T13:52:39.374Z</time>
      </trkpt>
      <trkpt lat="48.1299" lon="3.86018">
        <ele>281.763442</ele>
        <time>2024-03-15T13:52:53.816Z</time>
      </trkpt>
      <trkpt lat="48.13" lon="3.86141">
        <ele>281.16312</ele>
        <time>2024-03-15T13:53:15.119Z</time>
      </trkpt>
      <trkpt lat="48.13009" lon="3.86263">
        <ele>280.498939</ele>
        <time>2024-03-15T13:53:36.440Z</time>
      </trkpt>
      <trkpt lat="48.13052" lon="3.86352">
        <ele>279.180605</ele>
        <time>2024-03-15T13:53:55.206Z</time>
      </trkpt>
      <trkpt lat="48.13094" lon="3.8644">
        <ele>277.861213</ele>
        <time>2024-03-15T13:54:13.986Z</time>
      </trkpt>
      <trkpt lat="48.13137" lon="3.86528">
        <ele>277.197672</ele>
        <time>2024-03-15T13:54:32.734Z</time>
      </trkpt>
      <trkpt lat="48.13179" lon="3.86616">
        <ele>276.966973</ele>
        <time>2024-03-15T13:54:51.481Z</time>
      </trkpt>
      <trkpt lat="48.13258" lon="3.86573">
        <ele>276.88252</ele>
        <time>2024-03-15T13:55:13.048Z</time>
      </trkpt>
      <trkpt lat="48.13321" lon="3.86659">
        <ele>277.396352</ele>
        <time>2024-03-15T13:55:35.102Z</time>
      </trkpt>
      <trkpt lat="48.13384" lon="3.86745">
        <ele>277.904671</ele>
        <time>2024-03-15T13:55:57.156Z</time>
      </trkpt>
      <trkpt lat="48.13447" lon="3.86831">
        <ele>278.373112</ele>
        <time>2024-03-15T13:56:19.210Z</time>
      </trkpt>
      <trkpt lat="48.13511" lon="3.86917">
        <ele>278.822896</ele>
        <time>2024-03-15T13:56:41.272Z</time>
      </trkpt>
      <trkpt lat="48.13574" lon="3.87002">
        <ele>277.812645</ele>
        <time>2024-03-15T13:57:03.325Z</time>
      </trkpt>
      <trkpt lat="48.13637" lon="3.87088">
        <ele>276.802401</ele>
        <time>2024-03-15T13:57:25.381Z</time>
      </trkpt>
      <trkpt lat="48.137" lon="3.87174">
        <ele>274.779544</ele>
        <time>2024-03-15T13:57:47.446Z</time>
      </trkpt>
      <trkpt lat="48.13659" lon="3.87335">
        <ele>271.842586</ele>
        <time>2024-03-15T13:58:07.753Z</time>
      </trkpt>
      <trkpt lat="48.13633" lon="3.87436">
        <ele>269.60884</ele>
        <time>2024-03-15T13:58:20.694Z</time>
      </trkpt>
      <trkpt lat="48.13628" lon="3.87468">
        <ele>268.950806</ele>
        <time>2024-03-15T13:58:24.413Z</time>
      </trkpt>
      <trkpt lat="48.13626" lon="3.87509">
        <ele>268.098467</ele>
        <time>2024-03-15T13:58:29.161Z</time>
      </trkpt>
      <trkpt lat="48.13621" lon="3.87591">
        <ele>266.216682</ele>
        <time>2024-03-15T13:58:38.326Z</time>
      </trkpt>
      <trkpt lat="48.13623" lon="3.87663">
        <ele>263.729642</ele>
        <time>2024-03-15T13:58:46.100Z</time>
      </trkpt>
      <trkpt lat="48.13637" lon="3.87738">
        <ele>261.042057</ele>
        <time>2024-03-15T13:58:54.298Z</time>
      </trkpt>
      <trkpt lat="48.13664" lon="3.87834">
        <ele>257.425784</ele>
        <time>2024-03-15T13:59:05.069Z</time>
      </trkpt>
      <trkpt lat="48.13695" lon="3.87907">
        <ele>253.299736</ele>
        <time>2024-03-15T13:59:13.747Z</time>
      </trkpt>
      <trkpt lat="48.13695" lon="3.87923">
        <ele>252.513465</ele>
        <time>2024-03-15T13:59:15.369Z</time>
      </trkpt>
      <trkpt lat="48.13693" lon="3.87936">
        <ele>251.885103</ele>
        <time>2024-03-15T13:59:16.670Z</time>
      </trkpt>
      <trkpt lat="48.13687" lon="3.87949">
        <ele>251.11094</ele>
        <time>2024-03-15T13:59:18.270Z</time>
      </trkpt>
      <trkpt lat="48.1366" lon="3.87992">
        <ele>248.209223</ele>
        <time>2024-03-15T13:59:24.221Z</time>
      </trkpt>
      <trkpt lat="48.1364" lon="3.88039">
        <ele>245.551668</ele>
        <time>2024-03-15T13:59:29.589Z</time>
      </trkpt>
      <trkpt lat="48.13627" lon="3.88101">
        <ele>242.208685</ele>
        <time>2024-03-15T13:59:35.883Z</time>
      </trkpt>
      <trkpt lat="48.13617" lon="3.88169">
        <ele>238.501395</ele>
        <time>2024-03-15T13:59:42.656Z</time>
      </trkpt>
      <trkpt lat="48.13617" lon="3.88249">
        <ele>234.223221</ele>
        <time>2024-03-15T13:59:50.521Z</time>
      </trkpt>
      <trkpt lat="48.13611" lon="3.88271">
        <ele>232.987372</ele>
        <time>2024-03-15T13:59:52.805Z</time>
      </trkpt>
      <trkpt lat="48.13601" lon="3.88288">
        <ele>231.796149</ele>
        <time>2024-03-15T13:59:54.997Z</time>
      </trkpt>
      <trkpt lat="48.13586" lon="3.883">
        <ele>230.421402</ele>
        <time>2024-03-15T13:59:57.561Z</time>
      </trkpt>
      <trkpt lat="48.13518" lon="3.88334">
        <ele>226.543511</ele>
        <time>2024-03-15T14:00:08.449Z</time>
      </trkpt>
      <trkpt lat="48.13488" lon="3.88344">
        <ele>225.008675</ele>
        <time>2024-03-15T14:00:13.111Z</time>
      </trkpt>
      <trkpt lat="48.13469" lon="3.88347">
        <ele>223.981299</ele>
        <time>2024-03-15T14:00:16.319Z</time>
      </trkpt>
      <trkpt lat="48.13367" lon="3.88353">
        <ele>219.645336</ele>
        <time>2024-03-15T14:00:33.659Z</time>
      </trkpt>
      <trkpt lat="48.1325" lon="3.88397">
        <ele>216.285657</ele>
        <time>2024-03-15T14:00:54.875Z</time>
      </trkpt>
      <trkpt lat="48.13202" lon="3.88417">
        <ele>214.925739</ele>
        <time>2024-03-15T14:01:03.734Z</time>
      </trkpt>
      <trkpt lat="48.13224" lon="3.8853">
        <ele>212.821568</ele>
        <time>2024-03-15T14:01:28.523Z</time>
      </trkpt>
      <trkpt lat="48.1321" lon="3.88549">
        <ele>212.304335</ele>
        <time>2024-03-15T14:01:34.536Z</time>
      </trkpt>
      <trkpt lat="48.13175" lon="3.88618">
        <ele>210.761323</ele>
        <time>2024-03-15T14:01:52.485Z</time>
      </trkpt>
      <trkpt lat="48.13104" lon="3.88827">
        <ele>206.280448</ele>
        <time>2024-03-15T14:02:41.249Z</time>
      </trkpt>
      <trkpt lat="48.13055" lon="3.88927">
        <ele>204.103431</ele>
        <time>2024-03-15T14:03:07.314Z</time>
      </trkpt>
      <trkpt lat="48.13026" lon="3.88969">
        <ele>203.056939</ele>
        <time>2024-03-15T14:03:20.249Z</time>
      </trkpt>
      <trkpt lat="48.12931" lon="3.89034">
        <ele>200.471116</ele>
        <time>2024-03-15T14:03:53.127Z</time>
      </trkpt>
      <trkpt lat="48.12788" lon="3.8909">
        <ele>197.061014</ele>
        <time>2024-03-15T14:04:40.346Z</time>
      </trkpt>
      <trkpt lat="48.12701" lon="3.89086">
        <ele>196.710245</ele>
        <time>2024-03-15T14:05:09.285Z</time>
      </trkpt>
      <trkpt lat="48.12653" lon="3.89085">
        <ele>196.563937</ele>
        <time>2024-03-15T14:05:20.482Z</time>
      </trkpt>
      <trkpt lat="48.12626" lon="3.89089">
        <ele>196.482622</ele>
        <time>2024-03-15T14:05:28.223Z</time>
      </trkpt>
      <trkpt lat="48.12596" lon="3.89092">
        <ele>196.671875</ele>
        <time>2024-03-15T14:05:38.172Z</time>
      </trkpt>
      <trkpt lat="48.1263" lon="3.89113">
        <ele>197.772717</ele>
        <time>2024-03-15T14:05:51.092Z</time>
      </trkpt>
      <trkpt lat="48.12635" lon="3.89121">
        <ele>198.011652</ele>
        <time>2024-03-15T14:05:54.002Z</time>
      </trkpt>
      <trkpt lat="48.12665" lon="3.89188">
        <ele>199.652853</ele>
        <time>2024-03-15T14:06:14.916Z</time>
      </trkpt>
      <trkpt lat="48.12682" lon="3.89238">
        <ele>200.783532</ele>
        <time>2024-03-15T14:06:30.248Z</time>
      </trkpt>
      <trkpt lat="48.12698" lon="3.8934">
        <ele>202.571946</ele>
        <time>2024-03-15T14:07:00.948Z</time>
      </trkpt>
      <trkpt lat="48.12703" lon="3.89356">
        <ele>202.809183</ele>
        <time>2024-03-15T14:07:05.720Z</time>
      </trkpt>
      <trkpt lat="48.12718" lon="3.89377">
        <ele>203.226183</ele>
        <time>2024-03-15T14:07:14.870Z</time>
      </trkpt>
      <trkpt lat="48.12908" lon="3.89444">
        <ele>204.65567</ele>
        <time>2024-03-15T14:08:08.251Z</time>
      </trkpt>
      <trkpt lat="48.12885" lon="3.89588">
        <ele>203.610996</ele>
        <time>2024-03-15T14:08:26.436Z</time>
      </trkpt>
      <trkpt lat="48.12866" lon="3.89705">
        <ele>202.720221</ele>
        <time>2024-03-15T14:08:41.033Z</time>
      </trkpt>
      <trkpt lat="48.12821" lon="3.8989">
        <ele>203.400904</ele>
        <time>2024-03-15T14:09:10.540Z</time>
      </trkpt>
      <trkpt lat="48.12958" lon="3.8998">
        <ele>211.716953</ele>
        <time>2024-03-15T14:10:54.880Z</time>
      </trkpt>
      <trkpt lat="48.12966" lon="3.90003">
        <ele>213.779251</ele>
        <time>2024-03-15T14:11:10.337Z</time>
      </trkpt>
      <trkpt lat="48.12966" lon="3.90077">
        <ele>219.608136</ele>
        <time>2024-03-15T14:11:55.514Z</time>
      </trkpt>
      <trkpt lat="48.12973" lon="3.90105">
        <ele>222.036311</ele>
        <time>2024-03-15T14:12:15.754Z</time>
      </trkpt>
      <trkpt lat="48.12973" lon="3.90105">
        <ele>222.036311</ele>
        <time>2024-03-15T14:12:15.767Z</time>
      </trkpt>
      <trkpt lat="48.13108" lon="3.90361">
        <ele>249.456838</ele>
        <time>2024-03-15T14:16:06.337Z</time>
      </trkpt>
      <trkpt lat="48.13187" lon="3.90675">
        <ele>275.322884</ele>
        <time>2024-03-15T14:19:42.941Z</time>
      </trkpt>
      <trkpt lat="48.13202" lon="3.90713">
        <ele>276.970572</ele>
        <time>2024-03-15T14:20:04.573Z</time>
      </trkpt>
      <trkpt lat="48.13282" lon="3.90699">
        <ele>279.529316</ele>
        <time>2024-03-15T14:20:52.020Z</time>
      </trkpt>
      <trkpt lat="48.13354" lon="3.91457">
        <ele>279.148021</ele>
        <time>2024-03-15T14:23:52.645Z</time>
      </trkpt>
      <trkpt lat="48.1336" lon="3.91484">
        <ele>278.9881</ele>
        <time>2024-03-15T14:23:59.165Z</time>
      </trkpt>
      <trkpt lat="48.13369" lon="3.91495">
        <ele>278.88903</ele>
        <time>2024-03-15T14:24:03.180Z</time>
      </trkpt>
      <trkpt lat="48.13413" lon="3.91483">
        <ele>278.508282</ele>
        <time>2024-03-15T14:24:18.664Z</time>
      </trkpt>
      <trkpt lat="48.13421" lon="3.91491">
        <ele>278.427732</ele>
        <time>2024-03-15T14:24:21.941Z</time>
      </trkpt>
      <trkpt lat="48.13553" lon="3.91791">
        <ele>276.112306</ele>
        <time>2024-03-15T14:25:44.252Z</time>
      </trkpt>
      <trkpt lat="48.13563" lon="3.91816">
        <ele>275.986504</ele>
        <time>2024-03-15T14:25:51.361Z</time>
      </trkpt>
      <trkpt lat="48.13603" lon="3.91911">
        <ele>275.51623</ele>
        <time>2024-03-15T14:26:17.734Z</time>
      </trkpt>
      <trkpt lat="48.13626" lon="3.91958">
        <ele>275.272926</ele>
        <time>2024-03-15T14:26:31.469Z</time>
      </trkpt>
      <trkpt lat="48.13773" lon="3.92293">
        <ele>274.956472</ele>
        <time>2024-03-15T14:28:08.796Z</time>
      </trkpt>
      <trkpt lat="48.13792" lon="3.92328">
        <ele>275.077011</ele>
        <time>2024-03-15T14:28:20.403Z</time>
      </trkpt>
      <trkpt lat="48.13809" lon="3.92351">
        <ele>275.170877</ele>
        <time>2024-03-15T14:28:29.809Z</time>
      </trkpt>
      <trkpt lat="48.13894" lon="3.92436">
        <ele>276.013983</ele>
        <time>2024-03-15T14:29:13.869Z</time>
      </trkpt>
      <trkpt lat="48.13904" lon="3.92457">
        <ele>276.223078</ele>
        <time>2024-03-15T14:29:21.758Z</time>
      </trkpt>
      <trkpt lat="48.13952" lon="3.92612">
        <ele>277.567112</ele>
        <time>2024-03-15T14:30:11.018Z</time>
      </trkpt>
      <trkpt lat="48.13963" lon="3.92635">
        <ele>277.66795</ele>
        <time>2024-03-15T14:30:18.573Z</time>
      </trkpt>
      <trkpt lat="48.14003" lon="3.92671">
        <ele>277.927527</ele>
        <time>2024-03-15T14:30:38.001Z</time>
      </trkpt>
      <trkpt lat="48.14007" lon="3.92683">
        <ele>277.975604</ele>
        <time>2024-03-15T14:30:41.431Z</time>
      </trkpt>
      <trkpt lat="48.14004" lon="3.92695">
        <ele>278.024727</ele>
        <time>2024-03-15T14:30:44.940Z</time>
      </trkpt>
      <trkpt lat="48.14018" lon="3.92683">
        <ele>278.115723</ele>
        <time>2024-03-15T14:30:49.199Z</time>
      </trkpt>
      <trkpt lat="48.14055" lon="3.92668">
        <ele>278.326053</ele>
        <time>2024-03-15T14:30:58.408Z</time>
      </trkpt>
      <trkpt lat="48.14071" lon="3.92667">
        <ele>278.417002</ele>
        <time>2024-03-15T14:31:02.096Z</time>
      </trkpt>
      <trkpt lat="48.14099" lon="3.92673">
        <ele>278.508317</ele>
        <time>2024-03-15T14:31:08.526Z</time>
      </trkpt>
      <trkpt lat="48.14104" lon="3.92734">
        <ele>278.346651</ele>
        <time>2024-03-15T14:31:17.821Z</time>
      </trkpt>
      <trkpt lat="48.14121" lon="3.92945">
        <ele>277.624571</ele>
        <time>2024-03-15T14:31:48.848Z</time>
      </trkpt>
      <trkpt lat="48.14118" lon="3.92974">
        <ele>277.232492</ele>
        <time>2024-03-15T14:31:52.836Z</time>
      </trkpt>
      <trkpt lat="48.1411" lon="3.93016">
        <ele>276.625132</ele>
        <time>2024-03-15T14:31:58.850Z</time>
      </trkpt>
      <trkpt lat="48.1408" lon="3.93162">
        <ele>274.534311</ele>
        <time>2024-03-15T14:32:18.297Z</time>
      </trkpt>
      <trkpt lat="48.14076" lon="3.93376">
        <ele>267.916646</ele>
        <time>2024-03-15T14:33:00.506Z</time>
      </trkpt>
      <trkpt lat="48.14046" lon="3.93512">
        <ele>261.959534</ele>
        <time>2024-03-15T14:33:26.731Z</time>
      </trkpt>
      <trkpt lat="48.14016" lon="3.93597">
        <ele>256.87746</ele>
        <time>2024-03-15T14:33:43.929Z</time>
      </trkpt>
      <trkpt lat="48.13988" lon="3.93724">
        <ele>249.605057</ele>
        <time>2024-03-15T14:34:07.455Z</time>
      </trkpt>
      <trkpt lat="48.14027" lon="3.93753">
        <ele>245.468825</ele>
        <time>2024-03-15T14:34:18.775Z</time>
      </trkpt>
      <trkpt lat="48.14049" lon="3.93785">
        <ele>242.63296</ele>
        <time>2024-03-15T14:34:26.431Z</time>
      </trkpt>
      <trkpt lat="48.14054" lon="3.93808">
        <ele>241.093668</ele>
        <time>2024-03-15T14:34:30.594Z</time>
      </trkpt>
      <trkpt lat="48.14046" lon="3.93863">
        <ele>237.53956</ele>
        <time>2024-03-15T14:34:40.259Z</time>
      </trkpt>
      <trkpt lat="48.14045" lon="3.93865">
        <ele>237.389492</ele>
        <time>2024-03-15T14:34:40.665Z</time>
      </trkpt>
      <trkpt lat="48.14113" lon="3.93999">
        <ele>228.977527</ele>
        <time>2024-03-15T14:35:10.211Z</time>
      </trkpt>
      <trkpt lat="48.14137" lon="3.93949">
        <ele>226.321026</ele>
        <time>2024-03-15T14:35:21.320Z</time>
      </trkpt>
      <trkpt lat="48.14425" lon="3.94329">
        <ele>212.084818</ele>
        <time>2024-03-15T14:37:18.857Z</time>
      </trkpt>
      <trkpt lat="48.14713" lon="3.9471">
        <ele>205.571934</ele>
        <time>2024-03-15T14:39:25.518Z</time>
      </trkpt>
      <trkpt lat="48.14759" lon="3.94588">
        <ele>205.073356</ele>
        <time>2024-03-15T14:40:03.526Z</time>
      </trkpt>
      <trkpt lat="48.15009" lon="3.94825">
        <ele>203.044858</ele>
        <time>2024-03-15T14:41:47.301Z</time>
      </trkpt>
      <trkpt lat="48.15316" lon="3.95056">
        <ele>199.815429</ele>
        <time>2024-03-15T14:43:43.167Z</time>
      </trkpt>
      <trkpt lat="48.15564" lon="3.95255">
        <ele>209.169256</ele>
        <time>2024-03-15T14:46:20.800Z</time>
      </trkpt>
      <trkpt lat="48.15581" lon="3.95294">
        <ele>210.319568</ele>
        <time>2024-03-15T14:46:39.090Z</time>
      </trkpt>
      <trkpt lat="48.15598" lon="3.95347">
        <ele>211.773055</ele>
        <time>2024-03-15T14:47:01.070Z</time>
      </trkpt>
      <trkpt lat="48.15634" lon="3.95489">
        <ele>213.517147</ele>
        <time>2024-03-15T14:47:51.359Z</time>
      </trkpt>
      <trkpt lat="48.1567" lon="3.95621">
        <ele>214.833539</ele>
        <time>2024-03-15T14:48:28.805Z</time>
      </trkpt>
      <trkpt lat="48.15723" lon="3.95723">
        <ele>214.508011</ele>
        <time>2024-03-15T14:48:58.988Z</time>
      </trkpt>
      <trkpt lat="48.15861" lon="3.95835">
        <ele>214.218819</ele>
        <time>2024-03-15T14:49:55.656Z</time>
      </trkpt>
      <trkpt lat="48.16086" lon="3.95805">
        <ele>213.753576</ele>
        <time>2024-03-15T14:51:22.919Z</time>
      </trkpt>
      <trkpt lat="48.16096" lon="3.95959">
        <ele>212.610755</ele>
        <time>2024-03-15T14:51:57.028Z</time>
      </trkpt>
      <trkpt lat="48.16106" lon="3.96">
        <ele>211.974925</ele>
        <time>2024-03-15T14:52:06.084Z</time>
      </trkpt>
      <trkpt lat="48.1612" lon="3.96039">
        <ele>211.324939</ele>
        <time>2024-03-15T14:52:15.265Z</time>
      </trkpt>
      <trkpt lat="48.16192" lon="3.9611">
        <ele>209.433259</ele>
        <time>2024-03-15T14:52:42.934Z</time>
      </trkpt>
      <trkpt lat="48.16236" lon="3.96153">
        <ele>208.814166</ele>
        <time>2024-03-15T14:53:00.334Z</time>
      </trkpt>
      <trkpt lat="48.16292" lon="3.96188">
        <ele>208.093113</ele>
        <time>2024-03-15T14:53:12.774Z</time>
      </trkpt>
      <trkpt lat="48.16359" lon="3.96224">
        <ele>207.340694</ele>
        <time>2024-03-15T14:53:27.827Z</time>
      </trkpt>
      <trkpt lat="48.16364" lon="3.96229">
        <ele>207.35325</ele>
        <time>2024-03-15T14:53:29.119Z</time>
      </trkpt>
      <trkpt lat="48.16367" lon="3.96239">
        <ele>207.368088</ele>
        <time>2024-03-15T14:53:30.642Z</time>
      </trkpt>
      <trkpt lat="48.16371" lon="3.96264">
        <ele>207.403913</ele>
        <time>2024-03-15T14:53:34.589Z</time>
      </trkpt>
      <trkpt lat="48.16387" lon="3.96408">
        <ele>207.605234</ele>
        <time>2024-03-15T14:53:58.267Z</time>
      </trkpt>
      <trkpt lat="48.16388" lon="3.96452">
        <ele>207.664739</ele>
        <time>2024-03-15T14:54:05.769Z</time>
      </trkpt>
      <trkpt lat="48.16389" lon="3.96506">
        <ele>208.113124</ele>
        <time>2024-03-15T14:54:15.895Z</time>
      </trkpt>
      <trkpt lat="48.16393" lon="3.96557">
        <ele>208.830294</ele>
        <time>2024-03-15T14:54:26.220Z</time>
      </trkpt>
      <trkpt lat="48.16399" lon="3.96599">
        <ele>209.430627</ele>
        <time>2024-03-15T14:54:35.305Z</time>
      </trkpt>
      <trkpt lat="48.16406" lon="3.96621">
        <ele>209.769767</ele>
        <time>2024-03-15T14:54:41.012Z</time>
      </trkpt>
      <trkpt lat="48.16419" lon="3.96618">
        <ele>210.042782</ele>
        <time>2024-03-15T14:54:45.150Z</time>
      </trkpt>
      <trkpt lat="48.1646" lon="3.96615">
        <ele>210.900244</ele>
        <time>2024-03-15T14:55:00.037Z</time>
      </trkpt>
      <trkpt lat="48.16503" lon="3.96621">
        <ele>212.100019</ele>
        <time>2024-03-15T14:55:16.382Z</time>
      </trkpt>
      <trkpt lat="48.16504" lon="3.96629">
        <ele>212.336276</ele>
        <time>2024-03-15T14:55:18.804Z</time>
      </trkpt>
      <trkpt lat="48.1651" lon="3.9663">
        <ele>212.571826</ele>
        <time>2024-03-15T14:55:21.176Z</time>
      </trkpt>
      <trkpt lat="48.16513" lon="3.96622">
        <ele>212.808824</ele>
        <time>2024-03-15T14:55:23.280Z</time>
      </trkpt>
      <trkpt lat="48.16572" lon="3.96634">
        <ele>215.161522</ele>
        <time>2024-03-15T14:55:47.584Z</time>
      </trkpt>
      <trkpt lat="48.16623" lon="3.96635">
        <ele>217.199102</ele>
        <time>2024-03-15T14:56:09.580Z</time>
      </trkpt>
      <trkpt lat="48.16649" lon="3.96639">
        <ele>218.217733</ele>
        <time>2024-03-15T14:56:21.475Z</time>
      </trkpt>
      <trkpt lat="48.1676" lon="3.96675">
        <ele>225.371199</ele>
        <time>2024-03-15T14:57:20.678Z</time>
      </trkpt>
      <trkpt lat="48.16841" lon="3.96688">
        <ele>230.848781</ele>
        <time>2024-03-15T14:58:11.389Z</time>
      </trkpt>
      <trkpt lat="48.16867" lon="3.96687">
        <ele>233.203993</ele>
        <time>2024-03-15T14:58:27.471Z</time>
      </trkpt>
      <trkpt lat="48.16897" lon="3.96677">
        <ele>236.037671</ele>
        <time>2024-03-15T14:58:47.555Z</time>
      </trkpt>
      <trkpt lat="48.16924" lon="3.96675">
        <ele>238.549592</ele>
        <time>2024-03-15T14:59:05.996Z</time>
      </trkpt>
      <trkpt lat="48.16947" lon="3.9667">
        <ele>240.648351</ele>
        <time>2024-03-15T14:59:25.670Z</time>
      </trkpt>
      <trkpt lat="48.16973" lon="3.96705">
        <ele>243.90018</ele>
        <time>2024-03-15T14:59:56.107Z</time>
      </trkpt>
      <trkpt lat="48.17005" lon="3.96764">
        <ele>248.894964</ele>
        <time>2024-03-15T15:00:40.803Z</time>
      </trkpt>
      <trkpt lat="48.17042" lon="3.96862">
        <ele>257.221759</ele>
        <time>2024-03-15T15:01:49.932Z</time>
      </trkpt>
      <trkpt lat="48.17048" lon="3.96879">
        <ele>258.70875</ele>
        <time>2024-03-15T15:02:02.337Z</time>
      </trkpt>
      <trkpt lat="48.17068" lon="3.96989">
        <ele>267.12974</ele>
        <time>2024-03-15T15:03:16.351Z</time>
      </trkpt>
      <trkpt lat="48.17071" lon="3.97006">
        <ele>268.199768</ele>
        <time>2024-03-15T15:03:27.619Z</time>
      </trkpt>
      <trkpt lat="48.17095" lon="3.97123">
        <ele>275.755089</ele>
        <time>2024-03-15T15:04:41.324Z</time>
      </trkpt>
      <trkpt lat="48.17119" lon="3.97144">
        <ele>278.311017</ele>
        <time>2024-03-15T15:05:03.802Z</time>
      </trkpt>
      <trkpt lat="48.17159" lon="3.9718">
        <ele>282.731299</ele>
        <time>2024-03-15T15:05:39.766Z</time>
      </trkpt>
      <trkpt lat="48.17143" lon="3.97129">
        <ele>284.393465</ele>
        <time>2024-03-15T15:06:04.922Z</time>
      </trkpt>
      <trkpt lat="48.1718" lon="3.97112">
        <ele>285.54728</ele>
        <time>2024-03-15T15:06:27.297Z</time>
      </trkpt>
      <trkpt lat="48.17229" lon="3.97106">
        <ele>287.008669</ele>
        <time>2024-03-15T15:06:51.572Z</time>
      </trkpt>
      <trkpt lat="48.17429" lon="3.97109">
        <ele>288.97381</ele>
        <time>2024-03-15T15:08:09.882Z</time>
      </trkpt>
      <trkpt lat="48.17474" lon="3.97061">
        <ele>288.874338</ele>
        <time>2024-03-15T15:08:29.099Z</time>
      </trkpt>
      <trkpt lat="48.1749" lon="3.97056">
        <ele>288.698792</ele>
        <time>2024-03-15T15:08:34.608Z</time>
      </trkpt>
      <trkpt lat="48.17515" lon="3.97055">
        <ele>288.421015</ele>
        <time>2024-03-15T15:08:43.316Z</time>
      </trkpt>
      <trkpt lat="48.17606" lon="3.97062">
        <ele>287.42141</ele>
        <time>2024-03-15T15:09:14.291Z</time>
      </trkpt>
      <trkpt lat="48.17694" lon="3.97093">
        <ele>286.555209</ele>
        <time>2024-03-15T15:09:44.950Z</time>
      </trkpt>
      <trkpt lat="48.17798" lon="3.97085">
        <ele>285.626728</ele>
        <time>2024-03-15T15:10:21.732Z</time>
      </trkpt>
      <trkpt lat="48.17808" lon="3.9709">
        <ele>285.531873</ele>
        <time>2024-03-15T15:10:25.586Z</time>
      </trkpt>
      <trkpt lat="48.17926" lon="3.97108">
        <ele>283.805898</ele>
        <time>2024-03-15T15:11:06.538Z</time>
      </trkpt>
      <trkpt lat="48.17952" lon="3.97095">
        <ele>283.396193</ele>
        <time>2024-03-15T15:11:15.480Z</time>
      </trkpt>
      <trkpt lat="48.1804" lon="3.97049">
        <ele>281.467613</ele>
        <time>2024-03-15T15:11:44.806Z</time>
      </trkpt>
      <trkpt lat="48.18099" lon="3.97035">
        <ele>279.914624</ele>
        <time>2024-03-15T15:12:03.809Z</time>
      </trkpt>
      <trkpt lat="48.18184" lon="3.9703">
        <ele>277.907684</ele>
        <time>2024-03-15T15:12:30.412Z</time>
      </trkpt>
      <trkpt lat="48.18221" lon="3.97028">
        <ele>277.34954</ele>
        <time>2024-03-15T15:12:42.511Z</time>
      </trkpt>
      <trkpt lat="48.18274" lon="3.97027">
        <ele>276.555948</ele>
        <time>2024-03-15T15:13:00.330Z</time>
      </trkpt>
      <trkpt lat="48.18313" lon="3.97036">
        <ele>275.971494</ele>
        <time>2024-03-15T15:13:13.879Z</time>
      </trkpt>
      <trkpt lat="48.18336" lon="3.97044">
        <ele>275.614052</ele>
        <time>2024-03-15T15:13:22.325Z</time>
      </trkpt>
      <trkpt lat="48.18393" lon="3.97077">
        <ele>274.845976</ele>
        <time>2024-03-15T15:13:43.556Z</time>
      </trkpt>
      <trkpt lat="48.18461" lon="3.97123">
        <ele>273.924972</ele>
        <time>2024-03-15T15:14:09.129Z</time>
      </trkpt>
      <trkpt lat="48.18506" lon="3.97165">
        <ele>273.281505</ele>
        <time>2024-03-15T15:14:26.565Z</time>
      </trkpt>
      <trkpt lat="48.18539" lon="3.97204">
        <ele>272.482164</ele>
        <time>2024-03-15T15:14:40.589Z</time>
      </trkpt>
      <trkpt lat="48.18547" lon="3.97215">
        <ele>272.275787</ele>
        <time>2024-03-15T15:14:44.089Z</time>
      </trkpt>
      <trkpt lat="48.18577" lon="3.9727">
        <ele>271.355935</ele>
        <time>2024-03-15T15:14:59.568Z</time>
      </trkpt>
      <trkpt lat="48.1868" lon="3.97307">
        <ele>269.1992</ele>
        <time>2024-03-15T15:16:17.828Z</time>
      </trkpt>
      <trkpt lat="48.18826" lon="3.97312">
        <ele>265.739932</ele>
        <time>2024-03-15T15:18:04.925Z</time>
      </trkpt>
      <trkpt lat="48.18846" lon="3.97309">
        <ele>265.192447</ele>
        <time>2024-03-15T15:18:19.560Z</time>
      </trkpt>
      <trkpt lat="48.18884" lon="3.97304">
        <ele>264.023511</ele>
        <time>2024-03-15T15:18:47.324Z</time>
      </trkpt>
      <trkpt lat="48.18948" lon="3.97316">
        <ele>262.033849</ele>
        <time>2024-03-15T15:19:34.169Z</time>
      </trkpt>
      <trkpt lat="48.19028" lon="3.97342">
        <ele>259.442975</ele>
        <time>2024-03-15T15:20:32.236Z</time>
      </trkpt>
      <trkpt lat="48.19064" lon="3.97335">
        <ele>258.060319</ele>
        <time>2024-03-15T15:20:43.398Z</time>
      </trkpt>
      <trkpt lat="48.19217" lon="3.97212">
        <ele>251.453501</ele>
        <time>2024-03-15T15:21:35.383Z</time>
      </trkpt>
      <trkpt lat="48.19276" lon="3.97177">
        <ele>249.056225</ele>
        <time>2024-03-15T15:21:54.017Z</time>
      </trkpt>
      <trkpt lat="48.19322" lon="3.97114">
        <ele>246.657929</ele>
        <time>2024-03-15T15:22:12.837Z</time>
      </trkpt>
      <trkpt lat="48.19342" lon="3.97081">
        <ele>245.600423</ele>
        <time>2024-03-15T15:22:22.101Z</time>
      </trkpt>
      <trkpt lat="48.19358" lon="3.97059">
        <ele>244.906109</ele>
        <time>2024-03-15T15:22:28.427Z</time>
      </trkpt>
      <trkpt lat="48.19439" lon="3.96985">
        <ele>241.758891</ele>
        <time>2024-03-15T15:22:57.736Z</time>
      </trkpt>
      <trkpt lat="48.19543" lon="3.96931">
        <ele>238.063955</ele>
        <time>2024-03-15T15:23:31.398Z</time>
      </trkpt>
      <trkpt lat="48.19598" lon="3.96909">
        <ele>236.126147</ele>
        <time>2024-03-15T15:23:48.839Z</time>
      </trkpt>
      <trkpt lat="48.19641" lon="3.96903">
        <ele>234.675959</ele>
        <time>2024-03-15T15:24:01.874Z</time>
      </trkpt>
      <trkpt lat="48.19699" lon="3.96921">
        <ele>232.849585</ele>
        <time>2024-03-15T15:24:19.960Z</time>
      </trkpt>
      <trkpt lat="48.1978" lon="3.96936">
        <ele>230.385128</ele>
        <time>2024-03-15T15:24:45.324Z</time>
      </trkpt>
      <trkpt lat="48.19869" lon="3.96938">
        <ele>227.772473</ele>
        <time>2024-03-15T15:25:13.535Z</time>
      </trkpt>
      <trkpt lat="48.19942" lon="3.96916">
        <ele>225.706445</ele>
        <time>2024-03-15T15:25:36.828Z</time>
      </trkpt>
      <trkpt lat="48.20078" lon="3.96788">
        <ele>221.30103</ele>
        <time>2024-03-15T15:26:26.815Z</time>
      </trkpt>
      <trkpt lat="48.20097" lon="3.96773">
        <ele>220.732298</ele>
        <time>2024-03-15T15:26:33.340Z</time>
      </trkpt>
      <trkpt lat="48.20189" lon="3.96783">
        <ele>218.393523</ele>
        <time>2024-03-15T15:27:02.782Z</time>
      </trkpt>
      <trkpt lat="48.20246" lon="3.96796">
        <ele>217.168455</ele>
        <time>2024-03-15T15:27:21.376Z</time>
      </trkpt>
      <trkpt lat="48.20262" lon="3.96788">
        <ele>216.800082</ele>
        <time>2024-03-15T15:27:27.194Z</time>
      </trkpt>
      <trkpt lat="48.20329" lon="3.96804">
        <ele>215.369267</ele>
        <time>2024-03-15T15:27:49.416Z</time>
      </trkpt>
      <trkpt lat="48.20491" lon="3.96874">
        <ele>211.383861</ele>
        <time>2024-03-15T15:28:43.275Z</time>
      </trkpt>
      <trkpt lat="48.20552" lon="3.96902">
        <ele>209.620545</ele>
        <time>2024-03-15T15:29:03.349Z</time>
      </trkpt>
      <trkpt lat="48.20585" lon="3.96909">
        <ele>208.620956</ele>
        <time>2024-03-15T15:29:13.846Z</time>
      </trkpt>
      <trkpt lat="48.20595" lon="3.9691">
        <ele>208.340718</ele>
        <time>2024-03-15T15:29:16.767Z</time>
      </trkpt>
      <trkpt lat="48.20649" lon="3.9693">
        <ele>206.685164</ele>
        <time>2024-03-15T15:29:33.944Z</time>
      </trkpt>
      <trkpt lat="48.20778" lon="3.97003">
        <ele>202.500802</ele>
        <time>2024-03-15T15:30:16.392Z</time>
      </trkpt>
      <trkpt lat="48.20802" lon="3.97031">
        <ele>201.56638</ele>
        <time>2024-03-15T15:30:25.899Z</time>
      </trkpt>
      <trkpt lat="48.20817" lon="3.97056">
        <ele>200.898907</ele>
        <time>2024-03-15T15:30:32.759Z</time>
      </trkpt>
      <trkpt lat="48.20831" lon="3.97093">
        <ele>200.033717</ele>
        <time>2024-03-15T15:30:41.788Z</time>
      </trkpt>
      <trkpt lat="48.20858" lon="3.97148">
        <ele>198.502967</ele>
        <time>2024-03-15T15:30:56.151Z</time>
      </trkpt>
      <trkpt lat="48.20932" lon="3.97268">
        <ele>194.851403</ele>
        <time>2024-03-15T15:31:28.748Z</time>
      </trkpt>
      <trkpt lat="48.20947" lon="3.97299">
        <ele>193.982991</ele>
        <time>2024-03-15T15:31:36.668Z</time>
      </trkpt>
      <trkpt lat="48.20977" lon="3.97339">
        <ele>192.787447</ele>
        <time>2024-03-15T15:31:48.930Z</time>
      </trkpt>
      <trkpt lat="48.20991" lon="3.97354">
        <ele>192.267439</ele>
        <time>2024-03-15T15:31:54.404Z</time>
      </trkpt>
      <trkpt lat="48.21009" lon="3.97366">
        <ele>191.674265</ele>
        <time>2024-03-15T15:32:00.497Z</time>
      </trkpt>
      <trkpt lat="48.21038" lon="3.97368">
        <ele>190.808395</ele>
        <time>2024-03-15T15:32:09.522Z</time>
      </trkpt>
      <trkpt lat="48.21096" lon="3.97351">
        <ele>189.018455</ele>
        <time>2024-03-15T15:32:27.906Z</time>
      </trkpt>
      <trkpt lat="48.21163" lon="3.97328">
        <ele>187.054437</ele>
        <time>2024-03-15T15:32:49.536Z</time>
      </trkpt>
      <trkpt lat="48.21178" lon="3.97328">
        <ele>186.633112</ele>
        <time>2024-03-15T15:32:54.253Z</time>
      </trkpt>
      <trkpt lat="48.21213" lon="3.97332">
        <ele>185.635234</ele>
        <time>2024-03-15T15:33:05.609Z</time>
      </trkpt>
      <trkpt lat="48.21337" lon="3.97354">
        <ele>182.383211</ele>
        <time>2024-03-15T15:33:43.657Z</time>
      </trkpt>
      <trkpt lat="48.21442" lon="3.97361">
        <ele>179.945968</ele>
        <time>2024-03-15T15:34:17.498Z</time>
      </trkpt>
      <trkpt lat="48.21457" lon="3.97363">
        <ele>179.59962</ele>
        <time>2024-03-15T15:34:22.705Z</time>
      </trkpt>
      <trkpt lat="48.21468" lon="3.9738">
        <ele>179.301866</ele>
        <time>2024-03-15T15:34:28.273Z</time>
      </trkpt>
      <trkpt lat="48.21565" lon="3.97586">
        <ele>177.481683</ele>
        <time>2024-03-15T15:35:27.224Z</time>
      </trkpt>
      <trkpt lat="48.21651" lon="3.97775">
        <ele>174.425723</ele>
        <time>2024-03-15T15:36:15.845Z</time>
      </trkpt>
      <trkpt lat="48.21618" lon="3.97832">
        <ele>173.682931</ele>
        <time>2024-03-15T15:36:32.103Z</time>
      </trkpt>
      <trkpt lat="48.21517" lon="3.97999">
        <ele>173.205018</ele>
        <time>2024-03-15T15:37:27.379Z</time>
      </trkpt>
      <trkpt lat="48.21494" lon="3.98038">
        <ele>173.224059</ele>
        <time>2024-03-15T15:37:41.337Z</time>
      </trkpt>
      <trkpt lat="48.21491" lon="3.98049">
        <ele>173.246834</ele>
        <time>2024-03-15T15:37:45.802Z</time>
      </trkpt>
      <trkpt lat="48.21492" lon="3.98062">
        <ele>173.270513</ele>
        <time>2024-03-15T15:37:49.717Z</time>
      </trkpt>
      <trkpt lat="48.21513" lon="3.98126">
        <ele>173.400657</ele>
        <time>2024-03-15T15:38:09.008Z</time>
      </trkpt>
      <trkpt lat="48.21506" lon="3.98139">
        <ele>173.43064</ele>
        <time>2024-03-15T15:38:13.450Z</time>
      </trkpt>
      <trkpt lat="48.21459" lon="3.9818">
        <ele>173.579936</ele>
        <time>2024-03-15T15:38:34.418Z</time>
      </trkpt>
      <trkpt lat="48.21448" lon="3.98181">
        <ele>173.609025</ele>
        <time>2024-03-15T15:38:38.026Z</time>
      </trkpt>
      <trkpt lat="48.21434" lon="3.98161">
        <ele>173.665536</ele>
        <time>2024-03-15T15:38:44.938Z</time>
      </trkpt>
      <trkpt lat="48.21421" lon="3.98158">
        <ele>173.732554</ele>
        <time>2024-03-15T15:38:48.977Z</time>
      </trkpt>
      <trkpt lat="48.21376" lon="3.98172">
        <ele>173.965373</ele>
        <time>2024-03-15T15:39:04.682Z</time>
      </trkpt>
      <trkpt lat="48.21336" lon="3.98176">
        <ele>174.169491</ele>
        <time>2024-03-15T15:39:21.632Z</time>
      </trkpt>
      <trkpt lat="48.21281" lon="3.98169">
        <ele>174.454221</ele>
        <time>2024-03-15T15:39:46.899Z</time>
      </trkpt>
      <trkpt lat="48.21259" lon="3.98163">
        <ele>174.56809</ele>
        <time>2024-03-15T15:39:56.261Z</time>
      </trkpt>
      <trkpt lat="48.21215" lon="3.98143">
        <ele>175.797308</ele>
        <time>2024-03-15T15:40:16.130Z</time>
      </trkpt>
      <trkpt lat="48.21133" lon="3.98098">
        <ele>178.232553</ele>
        <time>2024-03-15T15:40:56.519Z</time>
      </trkpt>
      <trkpt lat="48.21083" lon="3.98067">
        <ele>179.972329</ele>
        <time>2024-03-15T15:41:29.617Z</time>
      </trkpt>
      <trkpt lat="48.21066" lon="3.9806">
        <ele>181.1507</ele>
        <time>2024-03-15T15:41:41.695Z</time>
      </trkpt>
      <trkpt lat="48.21056" lon="3.98063">
        <ele>181.839971</ele>
        <time>2024-03-15T15:41:48.683Z</time>
      </trkpt>
      <trkpt lat="48.21046" lon="3.98072">
        <ele>182.664649</ele>
        <time>2024-03-15T15:41:57.575Z</time>
      </trkpt>
      <trkpt lat="48.21035" lon="3.98087">
        <ele>183.680022</ele>
        <time>2024-03-15T15:42:08.161Z</time>
      </trkpt>
      <trkpt lat="48.21028" lon="3.98082">
        <ele>184.239758</ele>
        <time>2024-03-15T15:42:14.020Z</time>
      </trkpt>
      <trkpt lat="48.21023" lon="3.98073">
        <ele>184.810787</ele>
        <time>2024-03-15T15:42:20.230Z</time>
      </trkpt>
      <trkpt lat="48.20991" lon="3.98003">
        <ele>188.655385</ele>
        <time>2024-03-15T15:43:01.778Z</time>
      </trkpt>
      <trkpt lat="48.2098" lon="3.97964">
        <ele>190.607722</ele>
        <time>2024-03-15T15:43:23.168Z</time>
      </trkpt>
      <trkpt lat="48.20972" lon="3.97883">
        <ele>193.100849</ele>
        <time>2024-03-15T15:43:55.881Z</time>
      </trkpt>
      <trkpt lat="48.20964" lon="3.97851">
        <ele>193.878722</ele>
        <time>2024-03-15T15:44:09.459Z</time>
      </trkpt>
      <trkpt lat="48.2096" lon="3.97844">
        <ele>194.088655</ele>
        <time>2024-03-15T15:44:13.410Z</time>
      </trkpt>
      <trkpt lat="48.20952" lon="3.97837">
        <ele>194.386741</ele>
        <time>2024-03-15T15:44:18.747Z</time>
      </trkpt>
      <trkpt lat="48.20945" lon="3.97837">
        <ele>194.644889</ele>
        <time>2024-03-15T15:44:22.262Z</time>
      </trkpt>
      <trkpt lat="48.20952" lon="3.97807">
        <ele>195.372626</ele>
        <time>2024-03-15T15:44:35.142Z</time>
      </trkpt>
      <trkpt lat="48.20954" lon="3.97782">
        <ele>195.938549</ele>
        <time>2024-03-15T15:44:43.734Z</time>
      </trkpt>
      <trkpt lat="48.20955" lon="3.97768">
        <ele>196.266401</ele>
        <time>2024-03-15T15:44:47.708Z</time>
      </trkpt>
      <trkpt lat="48.2094" lon="3.97755">
        <ele>196.828291</ele>
        <time>2024-03-15T15:44:55.493Z</time>
      </trkpt>
      <trkpt lat="48.20955" lon="3.97768">
        <ele>197.390182</ele>
        <time>2024-03-15T15:45:00.888Z</time>
      </trkpt>
      <trkpt lat="48.20954" lon="3.97782">
        <ele>197.718034</ele>
        <time>2024-03-15T15:45:04.266Z</time>
      </trkpt>
      <trkpt lat="48.20952" lon="3.97807">
        <ele>197.443668</ele>
        <time>2024-03-15T15:45:09.467Z</time>
      </trkpt>
      <trkpt lat="48.20945" lon="3.97837">
        <ele>196.110207</ele>
        <time>2024-03-15T15:45:15.759Z</time>
      </trkpt>
      <trkpt lat="48.20952" lon="3.97837">
        <ele>195.637193</ele>
        <time>2024-03-15T15:45:16.961Z</time>
      </trkpt>
      <trkpt lat="48.2096" lon="3.97844">
        <ele>195.090999</ele>
        <time>2024-03-15T15:45:18.273Z</time>
      </trkpt>
      <trkpt lat="48.20964" lon="3.97851">
        <ele>194.70633</ele>
        <time>2024-03-15T15:45:19.169Z</time>
      </trkpt>
      <trkpt lat="48.20972" lon="3.97883">
        <ele>193.281003</ele>
        <time>2024-03-15T15:45:22.587Z</time>
      </trkpt>
      <trkpt lat="48.2098" lon="3.97964">
        <ele>189.902754</ele>
        <time>2024-03-15T15:45:30.653Z</time>
      </trkpt>
      <trkpt lat="48.20991" lon="3.98003">
        <ele>188.133253</ele>
        <time>2024-03-15T15:45:38.305Z</time>
      </trkpt>
      <trkpt lat="48.21023" lon="3.98073">
        <ele>184.863997</ele>
        <time>2024-03-15T15:45:53.486Z</time>
      </trkpt>
      <trkpt lat="48.21028" lon="3.98082">
        <ele>184.397758</ele>
        <time>2024-03-15T15:45:55.752Z</time>
      </trkpt>
      <trkpt lat="48.21035" lon="3.98087">
        <ele>183.94074</ele>
        <time>2024-03-15T15:45:57.966Z</time>
      </trkpt>
      <trkpt lat="48.21046" lon="3.98072">
        <ele>183.111698</ele>
        <time>2024-03-15T15:46:02.019Z</time>
      </trkpt>
      <trkpt lat="48.21056" lon="3.98063">
        <ele>182.438358</ele>
        <time>2024-03-15T15:46:05.282Z</time>
      </trkpt>
      <trkpt lat="48.21066" lon="3.9806">
        <ele>181.875575</ele>
        <time>2024-03-15T15:46:08.059Z</time>
      </trkpt>
      <trkpt lat="48.21083" lon="3.98067">
        <ele>180.913448</ele>
        <time>2024-03-15T15:46:12.809Z</time>
      </trkpt>
      <trkpt lat="48.21133" lon="3.98098">
        <ele>177.889057</ele>
        <time>2024-03-15T15:46:28.472Z</time>
      </trkpt>
      <trkpt lat="48.21215" lon="3.98143">
        <ele>175.632823</ele>
        <time>2024-03-15T15:46:57.313Z</time>
      </trkpt>
      <trkpt lat="48.21259" lon="3.98163">
        <ele>174.870078</ele>
        <time>2024-03-15T15:47:12.766Z</time>
      </trkpt>
      <trkpt lat="48.21281" lon="3.98169">
        <ele>174.497662</ele>
        <time>2024-03-15T15:47:20.491Z</time>
      </trkpt>
      <trkpt lat="48.21336" lon="3.98176">
        <ele>173.760798</ele>
        <time>2024-03-15T15:47:38.983Z</time>
      </trkpt>
      <trkpt lat="48.21376" lon="3.98172">
        <ele>173.776435</ele>
        <time>2024-03-15T15:47:52.691Z</time>
      </trkpt>
      <trkpt lat="48.21421" lon="3.98158">
        <ele>173.794271</ele>
        <time>2024-03-15T15:48:11.946Z</time>
      </trkpt>
      <trkpt lat="48.21434" lon="3.98161">
        <ele>173.799405</ele>
        <time>2024-03-15T15:48:18.889Z</time>
      </trkpt>
      <trkpt lat="48.21448" lon="3.98181">
        <ele>173.806994</ele>
        <time>2024-03-15T15:48:26.590Z</time>
      </trkpt>
      <trkpt lat="48.21459" lon="3.9818">
        <ele>173.811143</ele>
        <time>2024-03-15T15:48:31.180Z</time>
      </trkpt>
      <trkpt lat="48.21506" lon="3.98139">
        <ele>173.751888</ele>
        <time>2024-03-15T15:48:50.894Z</time>
      </trkpt>
      <trkpt lat="48.21513" lon="3.98126">
        <ele>173.695993</ele>
        <time>2024-03-15T15:48:54.753Z</time>
      </trkpt>
      <trkpt lat="48.21492" lon="3.98062">
        <ele>173.453376</ele>
        <time>2024-03-15T15:49:11.408Z</time>
      </trkpt>
      <trkpt lat="48.21491" lon="3.98049">
        <ele>173.409233</ele>
        <time>2024-03-15T15:49:14.280Z</time>
      </trkpt>
      <trkpt lat="48.21494" lon="3.98038">
        <ele>173.366775</ele>
        <time>2024-03-15T15:49:16.826Z</time>
      </trkpt>
      <trkpt lat="48.21517" lon="3.97999">
        <ele>173.192525</ele>
        <time>2024-03-15T15:49:28.726Z</time>
      </trkpt>
      <trkpt lat="48.21618" lon="3.97832">
        <ele>174.031125</ele>
        <time>2024-03-15T15:50:25.290Z</time>
      </trkpt>
      <trkpt lat="48.21651" lon="3.97775">
        <ele>174.633197</ele>
        <time>2024-03-15T15:50:49.860Z</time>
      </trkpt>
      <trkpt lat="48.21565" lon="3.97586">
        <ele>178.359507</ele>
        <time>2024-03-15T15:52:05.160Z</time>
      </trkpt>
      <trkpt lat="48.21468" lon="3.9738">
        <ele>184.740345</ele>
        <time>2024-03-15T15:53:37.142Z</time>
      </trkpt>
      <trkpt lat="48.21457" lon="3.97363">
        <ele>185.425849</ele>
        <time>2024-03-15T15:53:47.138Z</time>
      </trkpt>
      <trkpt lat="48.21453" lon="3.97344">
        <ele>186.002498</ele>
        <time>2024-03-15T15:53:55.213Z</time>
      </trkpt>
      <trkpt lat="48.21451" lon="3.97296">
        <ele>187.398768</ele>
        <time>2024-03-15T15:54:16.018Z</time>
      </trkpt>
      <trkpt lat="48.21453" lon="3.97264">
        <ele>188.529391</ele>
        <time>2024-03-15T15:54:30.761Z</time>
      </trkpt>
      <trkpt lat="48.2146" lon="3.97219">
        <ele>190.58526</ele>
        <time>2024-03-15T15:54:50.223Z</time>
      </trkpt>
      <trkpt lat="48.21473" lon="3.97184">
        <ele>192.32625</ele>
        <time>2024-03-15T15:55:08.104Z</time>
      </trkpt>
      <trkpt lat="48.21523" lon="3.97079">
        <ele>198.085401</ele>
        <time>2024-03-15T15:56:16.075Z</time>
      </trkpt>
      <trkpt lat="48.21531" lon="3.97064">
        <ele>198.876455</ele>
        <time>2024-03-15T15:56:23.635Z</time>
      </trkpt>
      <trkpt lat="48.21543" lon="3.97049">
        <ele>199.920875</ele>
        <time>2024-03-15T15:56:34.321Z</time>
      </trkpt>
      <trkpt lat="48.21573" lon="3.97023">
        <ele>201.911365</ele>
        <time>2024-03-15T15:56:55.951Z</time>
      </trkpt>
      <trkpt lat="48.2163" lon="3.96997">
        <ele>205.320528</ele>
        <time>2024-03-15T15:57:32.084Z</time>
      </trkpt>
      <trkpt lat="48.21661" lon="3.96988">
        <ele>207.122523</ele>
        <time>2024-03-15T15:57:52.753Z</time>
      </trkpt>
      <trkpt lat="48.21683" lon="3.96989">
        <ele>208.404096</ele>
        <time>2024-03-15T15:58:08.124Z</time>
      </trkpt>
      <trkpt lat="48.21734" lon="3.97001">
        <ele>211.043415</ele>
        <time>2024-03-15T15:58:45.102Z</time>
      </trkpt>
      <trkpt lat="48.21764" lon="3.96995">
        <ele>212.346884</ele>
        <time>2024-03-15T15:59:05.379Z</time>
      </trkpt>
      <trkpt lat="48.2178" lon="3.96986">
        <ele>213.078102</ele>
        <time>2024-03-15T15:59:16.079Z</time>
      </trkpt>
      <trkpt lat="48.21809" lon="3.96955">
        <ele>214.59956</ele>
        <time>2024-03-15T15:59:36.981Z</time>
      </trkpt>
      <trkpt lat="48.21828" lon="3.96928">
        <ele>215.695581</ele>
        <time>2024-03-15T15:59:50.848Z</time>
      </trkpt>
      <trkpt lat="48.21835" lon="3.96921">
        <ele>216.063205</ele>
        <time>2024-03-15T15:59:55.341Z</time>
      </trkpt>
      <trkpt lat="48.21852" lon="3.96893">
        <ele>217.158948</ele>
        <time>2024-03-15T16:00:04.761Z</time>
      </trkpt>
      <trkpt lat="48.21876" lon="3.96865">
        <ele>217.945362</ele>
        <time>2024-03-15T16:00:14.936Z</time>
      </trkpt>
      <trkpt lat="48.21915" lon="3.96832">
        <ele>218.240295</ele>
        <time>2024-03-15T16:00:28.778Z</time>
      </trkpt>
      <trkpt lat="48.21974" lon="3.96788">
        <ele>218.666216</ele>
        <time>2024-03-15T16:00:44.996Z</time>
      </trkpt>
      <trkpt lat="48.22076" lon="3.96716">
        <ele>218.76682</ele>
        <time>2024-03-15T16:01:10.051Z</time>
      </trkpt>
      <trkpt lat="48.22094" lon="3.96707">
        <ele>218.683205</ele>
        <time>2024-03-15T16:01:14.028Z</time>
      </trkpt>
      <trkpt lat="48.22104" lon="3.96705">
        <ele>218.638566</ele>
        <time>2024-03-15T16:01:16.132Z</time>
      </trkpt>
      <trkpt lat="48.2211" lon="3.96707">
        <ele>218.610214</ele>
        <time>2024-03-15T16:01:17.460Z</time>
      </trkpt>
      <trkpt lat="48.22115" lon="3.96708">
        <ele>218.585605</ele>
        <time>2024-03-15T16:01:18.645Z</time>
      </trkpt>
      <trkpt lat="48.22148" lon="3.96743">
        <ele>218.40282</ele>
        <time>2024-03-15T16:01:27.405Z</time>
      </trkpt>
      <trkpt lat="48.2227" lon="3.96666">
        <ele>217.847379</ele>
        <time>2024-03-15T16:01:56.691Z</time>
      </trkpt>
      <trkpt lat="48.22277" lon="3.96662">
        <ele>217.817848</ele>
        <time>2024-03-15T16:01:58.348Z</time>
      </trkpt>
      <trkpt lat="48.22307" lon="3.96643">
        <ele>217.68735</ele>
        <time>2024-03-15T16:02:05.248Z</time>
      </trkpt>
      <trkpt lat="48.2245" lon="3.96554">
        <ele>217.138302</ele>
        <time>2024-03-15T16:02:40.181Z</time>
      </trkpt>
      <trkpt lat="48.22523" lon="3.96525">
        <ele>216.883687</ele>
        <time>2024-03-15T16:02:56.945Z</time>
      </trkpt>
      <trkpt lat="48.2259" lon="3.96516">
        <ele>216.218535</ele>
        <time>2024-03-15T16:03:11.314Z</time>
      </trkpt>
      <trkpt lat="48.22658" lon="3.96512">
        <ele>215.549144</ele>
        <time>2024-03-15T16:03:25.309Z</time>
      </trkpt>
      <trkpt lat="48.22686" lon="3.96503">
        <ele>215.260909</ele>
        <time>2024-03-15T16:03:31.158Z</time>
      </trkpt>
      <trkpt lat="48.22715" lon="3.96489">
        <ele>214.856289</ele>
        <time>2024-03-15T16:03:37.297Z</time>
      </trkpt>
      <trkpt lat="48.22753" lon="3.96474">
        <ele>214.22548</ele>
        <time>2024-03-15T16:03:45.054Z</time>
      </trkpt>
      <trkpt lat="48.22772" lon="3.96473">
        <ele>213.918356</ele>
        <time>2024-03-15T16:03:48.816Z</time>
      </trkpt>
      <trkpt lat="48.22796" lon="3.96478">
        <ele>213.533229</ele>
        <time>2024-03-15T16:03:53.590Z</time>
      </trkpt>
      <trkpt lat="48.22801" lon="3.9648">
        <ele>213.449071</ele>
        <time>2024-03-15T16:03:54.587Z</time>
      </trkpt>
      <trkpt lat="48.22958" lon="3.96523">
        <ele>210.621213</ele>
        <time>2024-03-15T16:04:25.783Z</time>
      </trkpt>
      <trkpt lat="48.22984" lon="3.96526">
        <ele>210.123902</ele>
        <time>2024-03-15T16:04:30.839Z</time>
      </trkpt>
      <trkpt lat="48.23008" lon="3.96525">
        <ele>209.675726</ele>
        <time>2024-03-15T16:04:35.364Z</time>
      </trkpt>
      <trkpt lat="48.23027" lon="3.96518">
        <ele>209.297677</ele>
        <time>2024-03-15T16:04:39.169Z</time>
      </trkpt>
      <trkpt lat="48.23079" lon="3.96495">
        <ele>208.287145</ele>
        <time>2024-03-15T16:04:49.492Z</time>
      </trkpt>
      <trkpt lat="48.23169" lon="3.96444">
        <ele>206.495606</ele>
        <time>2024-03-15T16:05:07.946Z</time>
      </trkpt>
      <trkpt lat="48.23201" lon="3.9643">
        <ele>205.882823</ele>
        <time>2024-03-15T16:05:14.427Z</time>
      </trkpt>
      <trkpt lat="48.23265" lon="3.96409">
        <ele>205.54595</ele>
        <time>2024-03-15T16:05:27.641Z</time>
      </trkpt>
      <trkpt lat="48.23277" lon="3.96405">
        <ele>205.574399</ele>
        <time>2024-03-15T16:05:30.244Z</time>
      </trkpt>
      <trkpt lat="48.23308" lon="3.96383">
        <ele>205.653332</ele>
        <time>2024-03-15T16:05:37.853Z</time>
      </trkpt>
      <trkpt lat="48.23386" lon="3.96298">
        <ele>206.074557</ele>
        <time>2024-03-15T16:06:05.246Z</time>
      </trkpt>
      <trkpt lat="48.23402" lon="3.96402">
        <ele>208.798929</ele>
        <time>2024-03-15T16:06:42.221Z</time>
      </trkpt>
      <trkpt lat="48.23422" lon="3.9653">
        <ele>212.182531</ele>
        <time>2024-03-15T16:07:36.491Z</time>
      </trkpt>
      <trkpt lat="48.23435" lon="3.96575">
        <ele>213.308238</ele>
        <time>2024-03-15T16:07:57.257Z</time>
      </trkpt>
      <trkpt lat="48.23451" lon="3.96611">
        <ele>214.224172</ele>
        <time>2024-03-15T16:08:15.267Z</time>
      </trkpt>
      <trkpt lat="48.23515" lon="3.96711">
        <ele>217.102237</ele>
        <time>2024-03-15T16:09:05.569Z</time>
      </trkpt>
      <trkpt lat="48.23525" lon="3.96709">
        <ele>217.406397</ele>
        <time>2024-03-15T16:09:08.620Z</time>
      </trkpt>
      <trkpt lat="48.23548" lon="3.96764">
        <ele>218.253172</ele>
        <time>2024-03-15T16:09:20.759Z</time>
      </trkpt>
      <trkpt lat="48.23592" lon="3.96912">
        <ele>216.745688</ele>
        <time>2024-03-15T16:09:42.185Z</time>
      </trkpt>
      <trkpt lat="48.23621" lon="3.97091">
        <ele>213.579254</ele>
        <time>2024-03-15T16:10:03.148Z</time>
      </trkpt>
      <trkpt lat="48.23621" lon="3.97091">
        <ele>213.579254</ele>
        <time>2024-03-15T16:10:03.151Z</time>
      </trkpt>
      <trkpt lat="48.23665" lon="3.97285">
        <ele>208.199826</ele>
        <time>2024-03-15T16:10:25.598Z</time>
      </trkpt>
      <trkpt lat="48.23678" lon="3.97358">
        <ele>205.564204</ele>
        <time>2024-03-15T16:10:33.757Z</time>
      </trkpt>
      <trkpt lat="48.2374" lon="3.97778">
        <ele>189.51019</ele>
        <time>2024-03-15T16:11:18.073Z</time>
      </trkpt>
      <trkpt lat="48.2375" lon="3.97871">
        <ele>185.447305</ele>
        <time>2024-03-15T16:11:27.620Z</time>
      </trkpt>
      <trkpt lat="48.23758" lon="3.97981">
        <ele>180.647746</ele>
        <time>2024-03-15T16:11:38.750Z</time>
      </trkpt>
      <trkpt lat="48.23763" lon="3.97982">
        <ele>180.301688</ele>
        <time>2024-03-15T16:11:40.186Z</time>
      </trkpt>
      <trkpt lat="48.23766" lon="3.97988">
        <ele>179.998844</ele>
        <time>2024-03-15T16:11:41.452Z</time>
      </trkpt>
      <trkpt lat="48.23772" lon="3.98099">
        <ele>175.269529</ele>
        <time>2024-03-15T16:12:02.110Z</time>
      </trkpt>
      <trkpt lat="48.23775" lon="3.98136">
        <ele>173.682463</ele>
        <time>2024-03-15T16:12:09.060Z</time>
      </trkpt>
      <trkpt lat="48.2378" lon="3.98149">
        <ele>173.048974</ele>
        <time>2024-03-15T16:12:11.741Z</time>
      </trkpt>
      <trkpt lat="48.23795" lon="3.98048">
        <ele>168.67447</ele>
        <time>2024-03-15T16:12:30.711Z</time>
      </trkpt>
      <trkpt lat="48.23808" lon="3.98008">
        <ele>166.817227</ele>
        <time>2024-03-15T16:12:39.018Z</time>
      </trkpt>
      <trkpt lat="48.23825" lon="3.97975">
        <ele>165.729071</ele>
        <time>2024-03-15T16:12:46.937Z</time>
      </trkpt>
      <trkpt lat="48.23849" lon="3.9795">
        <ele>164.968842</ele>
        <time>2024-03-15T16:12:55.322Z</time>
      </trkpt>
      <trkpt lat="48.2387" lon="3.97935">
        <ele>164.35261</ele>
        <time>2024-03-15T16:13:02.268Z</time>
      </trkpt>
      <trkpt lat="48.24269" lon="3.97698">
        <ele>155.237316</ele>
        <time>2024-03-15T16:15:22.072Z</time>
      </trkpt>
      <trkpt lat="48.24584" lon="3.97512">
        <ele>159.45573</ele>
        <time>2024-03-15T16:17:51.025Z</time>
      </trkpt>
      <trkpt lat="48.24771" lon="3.97401">
        <ele>164.769433</ele>
        <time>2024-03-15T16:19:35.962Z</time>
      </trkpt>
      <trkpt lat="48.25018" lon="3.97236">
        <ele>176.226488</ele>
        <time>2024-03-15T16:21:55.355Z</time>
      </trkpt>
      <trkpt lat="48.2527" lon="3.97065">
        <ele>205.550762</ele>
        <time>2024-03-15T16:26:24.877Z</time>
      </trkpt>
      <trkpt lat="48.25199" lon="3.96803">
        <ele>226.152633</ele>
        <time>2024-03-15T16:29:19.087Z</time>
      </trkpt>
      <trkpt lat="48.2515" lon="3.96643">
        <ele>235.889155</ele>
        <time>2024-03-15T16:30:57.050Z</time>
      </trkpt>
      <trkpt lat="48.2513" lon="3.96568">
        <ele>240.044773</ele>
        <time>2024-03-15T16:31:36.909Z</time>
      </trkpt>
      <trkpt lat="48.25126" lon="3.96555">
        <ele>240.771818</ele>
        <time>2024-03-15T16:31:43.730Z</time>
      </trkpt>
      <trkpt lat="48.24989" lon="3.96318">
        <ele>248.300971</ele>
        <time>2024-03-15T16:33:36.338Z</time>
      </trkpt>
      <trkpt lat="48.25023" lon="3.96269">
        <ele>247.612726</ele>
        <time>2024-03-15T16:33:54.319Z</time>
      </trkpt>
      <trkpt lat="48.25175" lon="3.96043">
        <ele>243.920095</ele>
        <time>2024-03-15T16:35:01.090Z</time>
      </trkpt>
      <trkpt lat="48.25229" lon="3.95963">
        <ele>242.289739</ele>
        <time>2024-03-15T16:35:25.036Z</time>
      </trkpt>
      <trkpt lat="48.25236" lon="3.95984">
        <ele>241.960739</ele>
        <time>2024-03-15T16:35:30.144Z</time>
      </trkpt>
      <trkpt lat="48.25339" lon="3.96283">
        <ele>244.870249</ele>
        <time>2024-03-15T16:37:12.713Z</time>
      </trkpt>
      <trkpt lat="48.25401" lon="3.96448">
        <ele>246.874036</ele>
        <time>2024-03-15T16:38:14.254Z</time>
      </trkpt>
      <trkpt lat="48.25623" lon="3.96259">
        <ele>242.270046</ele>
        <time>2024-03-15T16:39:40.936Z</time>
      </trkpt>
      <trkpt lat="48.25676" lon="3.96396">
        <ele>237.313388</ele>
        <time>2024-03-15T16:40:10.478Z</time>
      </trkpt>
      <trkpt lat="48.25709" lon="3.96492">
        <ele>230.179152</ele>
        <time>2024-03-15T16:40:29.276Z</time>
      </trkpt>
      <trkpt lat="48.25737" lon="3.96556">
        <ele>224.701022</ele>
        <time>2024-03-15T16:40:42.242Z</time>
      </trkpt>
      <trkpt lat="48.25802" lon="3.96715">
        <ele>210.100477</ele>
        <time>2024-03-15T16:41:12.997Z</time>
      </trkpt>
      <trkpt lat="48.25841" lon="3.96796">
        <ele>201.498048</ele>
        <time>2024-03-15T16:41:29.251Z</time>
      </trkpt>
      <trkpt lat="48.25885" lon="3.96922">
        <ele>190.029303</ele>
        <time>2024-03-15T16:41:52.600Z</time>
      </trkpt>
      <trkpt lat="48.25989" lon="3.97236">
        <ele>166.676811</ele>
        <time>2024-03-15T16:42:52.484Z</time>
      </trkpt>
      <trkpt lat="48.26038" lon="3.97182">
        <ele>161.473858</ele>
        <time>2024-03-15T16:43:09.005Z</time>
      </trkpt>
      <trkpt lat="48.26144" lon="3.97096">
        <ele>155.112535</ele>
        <time>2024-03-15T16:43:43.259Z</time>
      </trkpt>
      <trkpt lat="48.26282" lon="3.96948">
        <ele>149.61856</ele>
        <time>2024-03-15T16:44:35.900Z</time>
      </trkpt>
      <trkpt lat="48.26359" lon="3.9686">
        <ele>147.683017</ele>
        <time>2024-03-15T16:45:08.597Z</time>
      </trkpt>
      <trkpt lat="48.26406" lon="3.96815">
        <ele>147.568578</ele>
        <time>2024-03-15T16:45:28.225Z</time>
      </trkpt>
      <trkpt lat="48.26484" lon="3.96722">
        <ele>147.361738</ele>
        <time>2024-03-15T16:46:05.290Z</time>
      </trkpt>
      <trkpt lat="48.26528" lon="3.96663">
        <ele>147.25917</ele>
        <time>2024-03-15T16:46:28.385Z</time>
      </trkpt>
      <trkpt lat="48.2653" lon="3.96644">
        <ele>147.239746</ele>
        <time>2024-03-15T16:46:33.218Z</time>
      </trkpt>
      <trkpt lat="48.26526" lon="3.96635">
        <ele>147.228787</ele>
        <time>2024-03-15T16:46:35.957Z</time>
      </trkpt>
      <trkpt lat="48.26444" lon="3.96513">
        <ele>147.050789</ele>
        <time>2024-03-15T16:47:18.141Z</time>
      </trkpt>
      <trkpt lat="48.26454" lon="3.96503">
        <ele>147.001201</ele>
        <time>2024-03-15T16:47:22.301Z</time>
      </trkpt>
      <trkpt lat="48.26556" lon="3.96624">
        <ele>145.374367</ele>
        <time>2024-03-15T16:47:47.854Z</time>
      </trkpt>
      <trkpt lat="48.2659" lon="3.96665">
        <ele>144.832365</ele>
        <time>2024-03-15T16:47:55.852Z</time>
      </trkpt>
      <trkpt lat="48.26689" lon="3.96784">
        <ele>142.473971</ele>
        <time>2024-03-15T16:48:19.328Z</time>
      </trkpt>
      <trkpt lat="48.2668" lon="3.96802">
        <ele>142.201083</ele>
        <time>2024-03-15T16:48:22.040Z</time>
      </trkpt>
      <trkpt lat="48.2669" lon="3.96815">
        <ele>141.942874</ele>
        <time>2024-03-15T16:48:26.514Z</time>
      </trkpt>
      <trkpt lat="48.26697" lon="3.96816">
        <ele>141.818498</ele>
        <time>2024-03-15T16:48:28.640Z</time>
      </trkpt>
      <trkpt lat="48.26756" lon="3.96879">
        <ele>140.702875</ele>
        <time>2024-03-15T16:48:52.167Z</time>
      </trkpt>
      <trkpt lat="48.26852" lon="3.97">
        <ele>138.935251</ele>
        <time>2024-03-15T16:49:34.478Z</time>
      </trkpt>
      <trkpt lat="48.26879" lon="3.97042">
        <ele>138.914676</ele>
        <time>2024-03-15T16:49:48.130Z</time>
      </trkpt>
      <trkpt lat="48.26886" lon="3.97033">
        <ele>138.923172</ele>
        <time>2024-03-15T16:49:51.578Z</time>
      </trkpt>
      <trkpt lat="48.27033" lon="3.96805">
        <ele>139.631411</ele>
        <time>2024-03-15T16:50:45.310Z</time>
      </trkpt>
      <trkpt lat="48.27004" lon="3.96762">
        <ele>139.943811</ele>
        <time>2024-03-15T16:50:56.790Z</time>
      </trkpt>
      <trkpt lat="48.26955" lon="3.96689">
        <ele>140.487067</ele>
        <time>2024-03-15T16:51:16.219Z</time>
      </trkpt>
      <trkpt lat="48.26912" lon="3.96623">
        <ele>141.055141</ele>
        <time>2024-03-15T16:51:41.921Z</time>
      </trkpt>
      <trkpt lat="48.26978" lon="3.96536">
        <ele>141.868151</ele>
        <time>2024-03-15T16:52:18.674Z</time>
      </trkpt>
      <trkpt lat="48.2704" lon="3.96455">
        <ele>142.50769</ele>
        <time>2024-03-15T16:52:52.573Z</time>
      </trkpt>
      <trkpt lat="48.27091" lon="3.96387">
        <ele>143.002251</ele>
        <time>2024-03-15T16:53:10.745Z</time>
      </trkpt>
      <trkpt lat="48.27085" lon="3.96374">
        <ele>143.084375</ele>
        <time>2024-03-15T16:53:13.685Z</time>
      </trkpt>
      <trkpt lat="48.27072" lon="3.96351">
        <ele>143.225491</ele>
        <time>2024-03-15T16:53:21.656Z</time>
      </trkpt>
      <trkpt lat="48.27078" lon="3.96339">
        <ele>143.296688</ele>
        <time>2024-03-15T16:53:25.695Z</time>
      </trkpt>
      <trkpt lat="48.27161" lon="3.96254">
        <ele>144.044538</ele>
        <time>2024-03-15T16:54:06.358Z</time>
      </trkpt>
      <trkpt lat="48.27474" lon="3.95936">
        <ele>147.859132</ele>
        <time>2024-03-15T16:56:40.926Z</time>
      </trkpt>
      <trkpt lat="48.27563" lon="3.95841">
        <ele>150.695386</ele>
        <time>2024-03-15T16:57:35.725Z</time>
      </trkpt>
      <trkpt lat="48.2768" lon="3.95742">
        <ele>156.890477</ele>
        <time>2024-03-15T16:59:00.164Z</time>
      </trkpt>
      <trkpt lat="48.27746" lon="3.95683">
        <ele>159.791208</ele>
        <time>2024-03-15T16:59:50.434Z</time>
      </trkpt>
      <trkpt lat="48.27772" lon="3.95657">
        <ele>160.922018</ele>
        <time>2024-03-15T17:00:08.430Z</time>
      </trkpt>
      <trkpt lat="48.27797" lon="3.95632">
        <ele>162.005577</ele>
        <time>2024-03-15T17:00:24.634Z</time>
      </trkpt>
      <trkpt lat="48.27808" lon="3.95624">
        <ele>162.442972</ele>
        <time>2024-03-15T17:00:31.344Z</time>
      </trkpt>
      <trkpt lat="48.27878" lon="3.9579">
        <ele>163.499417</ele>
        <time>2024-03-15T17:01:24.725Z</time>
      </trkpt>
      <trkpt lat="48.27908" lon="3.95854">
        <ele>163.257689</ele>
        <time>2024-03-15T17:01:41.895Z</time>
      </trkpt>
      <trkpt lat="48.27932" lon="3.95904">
        <ele>163.011166</ele>
        <time>2024-03-15T17:01:55.305Z</time>
      </trkpt>
      <trkpt lat="48.27967" lon="3.95966">
        <ele>161.958352</ele>
        <time>2024-03-15T17:02:12.941Z</time>
      </trkpt>
      <trkpt lat="48.28013" lon="3.96036">
        <ele>160.682186</ele>
        <time>2024-03-15T17:02:34.231Z</time>
      </trkpt>
      <trkpt lat="48.28059" lon="3.96098">
        <ele>159.491667</ele>
        <time>2024-03-15T17:02:54.289Z</time>
      </trkpt>
      <trkpt lat="48.28149" lon="3.96204">
        <ele>157.679069</ele>
        <time>2024-03-15T17:03:31.835Z</time>
      </trkpt>
      <trkpt lat="48.28199" lon="3.96247">
        <ele>156.755884</ele>
        <time>2024-03-15T17:03:51.570Z</time>
      </trkpt>
      <trkpt lat="48.28244" lon="3.96277">
        <ele>156.34116</ele>
        <time>2024-03-15T17:04:08.452Z</time>
      </trkpt>
      <trkpt lat="48.28286" lon="3.963">
        <ele>155.980666</ele>
        <time>2024-03-15T17:04:24.273Z</time>
      </trkpt>
      <trkpt lat="48.28312" lon="3.9631">
        <ele>155.765499</ele>
        <time>2024-03-15T17:04:33.829Z</time>
      </trkpt>
      <trkpt lat="48.28364" lon="3.96322">
        <ele>155.343808</ele>
        <time>2024-03-15T17:04:52.465Z</time>
      </trkpt>
      <trkpt lat="48.28496" lon="3.96336">
        <ele>153.715595</ele>
        <time>2024-03-15T17:05:37.599Z</time>
      </trkpt>
      <trkpt lat="48.2856" lon="3.9634">
        <ele>152.96159</ele>
        <time>2024-03-15T17:05:58.838Z</time>
      </trkpt>
      <trkpt lat="48.28602" lon="3.96352">
        <ele>152.743459</ele>
        <time>2024-03-15T17:06:13.335Z</time>
      </trkpt>
      <trkpt lat="48.28697" lon="3.96398">
        <ele>152.239504</ele>
        <time>2024-03-15T17:06:48.281Z</time>
      </trkpt>
      <trkpt lat="48.28706" lon="3.96404">
        <ele>152.186319</ele>
        <time>2024-03-15T17:06:52.150Z</time>
      </trkpt>
      <trkpt lat="48.28927" lon="3.96232">
        <ele>155.943425</ele>
        <time>2024-03-15T17:08:42.977Z</time>
      </trkpt>
      <trkpt lat="48.28927" lon="3.96223">
        <ele>156.112261</ele>
        <time>2024-03-15T17:08:46.100Z</time>
      </trkpt>
      <trkpt lat="48.28914" lon="3.96181">
        <ele>156.961836</ele>
        <time>2024-03-15T17:09:02.021Z</time>
      </trkpt>
      <trkpt lat="48.28911" lon="3.96164">
        <ele>157.271107</ele>
        <time>2024-03-15T17:09:07.927Z</time>
      </trkpt>
      <trkpt lat="48.28914" lon="3.96151">
        <ele>157.527689</ele>
        <time>2024-03-15T17:09:12.841Z</time>
      </trkpt>
      <trkpt lat="48.28918" lon="3.96145">
        <ele>157.687305</ele>
        <time>2024-03-15T17:09:15.872Z</time>
      </trkpt>
      <trkpt lat="48.2895" lon="3.96126">
        <ele>158.628143</ele>
        <time>2024-03-15T17:09:34.056Z</time>
      </trkpt>
      <trkpt lat="48.28954" lon="3.96115">
        <ele>158.865158</ele>
        <time>2024-03-15T17:09:38.586Z</time>
      </trkpt>
      <trkpt lat="48.28947" lon="3.96081">
        <ele>159.508696</ele>
        <time>2024-03-15T17:09:51.331Z</time>
      </trkpt>
      <trkpt lat="48.28903" lon="3.95932">
        <ele>164.352634</ele>
        <time>2024-03-15T17:10:53.567Z</time>
      </trkpt>
      <trkpt lat="48.28874" lon="3.95863">
        <ele>166.785498</ele>
        <time>2024-03-15T17:11:26.335Z</time>
      </trkpt>
      <trkpt lat="48.28976" lon="3.9579">
        <ele>174.20868</ele>
        <time>2024-03-15T17:12:43.112Z</time>
      </trkpt>
      <trkpt lat="48.2899" lon="3.95781">
        <ele>175.265269</ele>
        <time>2024-03-15T17:12:54.112Z</time>
      </trkpt>
      <trkpt lat="48.29065" lon="3.95728">
        <ele>181.370374</ele>
        <time>2024-03-15T17:13:57.753Z</time>
      </trkpt>
      <trkpt lat="48.29035" lon="3.95682">
        <ele>185.694764</ele>
        <time>2024-03-15T17:14:32.817Z</time>
      </trkpt>
      <trkpt lat="48.29137" lon="3.95598">
        <ele>197.426996</ele>
        <time>2024-03-15T17:16:00.165Z</time>
      </trkpt>
      <trkpt lat="48.29145" lon="3.95591">
        <ele>198.4587</ele>
        <time>2024-03-15T17:16:08.419Z</time>
      </trkpt>
      <trkpt lat="48.29201" lon="3.95549">
        <ele>206.531245</ele>
        <time>2024-03-15T17:17:02.967Z</time>
      </trkpt>
      <trkpt lat="48.29263" lon="3.95487">
        <ele>216.081711</ele>
        <time>2024-03-15T17:18:09.489Z</time>
      </trkpt>
      <trkpt lat="48.29293" lon="3.95461">
        <ele>220.471909</ele>
        <time>2024-03-15T17:18:39.861Z</time>
      </trkpt>
      <trkpt lat="48.29313" lon="3.95457">
        <ele>222.916209</ele>
        <time>2024-03-15T17:18:58.486Z</time>
      </trkpt>
      <trkpt lat="48.29377" lon="3.955">
        <ele>230.964531</ele>
        <time>2024-03-15T17:20:02.688Z</time>
      </trkpt>
      <trkpt lat="48.29394" lon="3.95538">
        <ele>234.505257</ele>
        <time>2024-03-15T17:20:28.103Z</time>
      </trkpt>
      <trkpt lat="48.294" lon="3.95536">
        <ele>235.205552</ele>
        <time>2024-03-15T17:20:33.152Z</time>
      </trkpt>
      <trkpt lat="48.2949" lon="3.95492">
        <ele>244.226586</ele>
        <time>2024-03-15T17:21:38.018Z</time>
      </trkpt>
      <trkpt lat="48.29529" lon="3.9566">
        <ele>251.296715</ele>
        <time>2024-03-15T17:22:40.695Z</time>
      </trkpt>
      <trkpt lat="48.29532" lon="3.95665">
        <ele>251.566312</ele>
        <time>2024-03-15T17:22:42.570Z</time>
      </trkpt>
      <trkpt lat="48.29614" lon="3.95677">
        <ele>254.332821</ele>
        <time>2024-03-15T17:23:11.408Z</time>
      </trkpt>
      <trkpt lat="48.29734" lon="3.95998">
        <ele>259.260762</ele>
        <time>2024-03-15T17:24:31.744Z</time>
      </trkpt>
      <trkpt lat="48.29857" lon="3.96241">
        <ele>261.341303</ele>
        <time>2024-03-15T17:25:32.173Z</time>
      </trkpt>
      <trkpt lat="48.29893" lon="3.96267">
        <ele>261.496756</ele>
        <time>2024-03-15T17:25:40.632Z</time>
      </trkpt>
      <trkpt lat="48.29907" lon="3.96299">
        <ele>261.151788</ele>
        <time>2024-03-15T17:25:45.730Z</time>
      </trkpt>
      <trkpt lat="48.30027" lon="3.96467">
        <ele>259.237458</ele>
        <time>2024-03-15T17:26:17.826Z</time>
      </trkpt>
      <trkpt lat="48.30029" lon="3.96481">
        <ele>259.276198</ele>
        <time>2024-03-15T17:26:19.948Z</time>
      </trkpt>
      <trkpt lat="48.30028" lon="3.96495">
        <ele>259.313778</ele>
        <time>2024-03-15T17:26:22.123Z</time>
      </trkpt>
      <trkpt lat="48.30089" lon="3.96529">
        <ele>259.567708</ele>
        <time>2024-03-15T17:26:37.086Z</time>
      </trkpt>
      <trkpt lat="48.30126" lon="3.96538">
        <ele>259.715838</ele>
        <time>2024-03-15T17:26:47.561Z</time>
      </trkpt>
      <trkpt lat="48.30169" lon="3.96534">
        <ele>259.908474</ele>
        <time>2024-03-15T17:27:00.874Z</time>
      </trkpt>
      <trkpt lat="48.30188" lon="3.96528">
        <ele>260.208025</ele>
        <time>2024-03-15T17:27:06.890Z</time>
      </trkpt>
      <trkpt lat="48.30202" lon="3.96587">
        <ele>260.867639</ele>
        <time>2024-03-15T17:27:20.511Z</time>
      </trkpt>
      <trkpt lat="48.30211" lon="3.96623">
        <ele>261.267579</ele>
        <time>2024-03-15T17:27:28.731Z</time>
      </trkpt>
      <trkpt lat="48.30247" lon="3.96712">
        <ele>262.356621</ele>
        <time>2024-03-15T17:27:50.753Z</time>
      </trkpt>
      <trkpt lat="48.30284" lon="3.96797">
        <ele>262.421402</ele>
        <time>2024-03-15T17:28:19.218Z</time>
      </trkpt>
      <trkpt lat="48.303" lon="3.96826">
        <ele>262.268214</ele>
        <time>2024-03-15T17:28:29.090Z</time>
      </trkpt>
      <trkpt lat="48.30335" lon="3.96851">
        <ele>262.034111</ele>
        <time>2024-03-15T17:28:43.136Z</time>
      </trkpt>
      <trkpt lat="48.3034" lon="3.96863">
        <ele>261.975988</ele>
        <time>2024-03-15T17:28:46.425Z</time>
      </trkpt>
      <trkpt lat="48.30338" lon="3.969">
        <ele>261.828877</ele>
        <time>2024-03-15T17:28:54.669Z</time>
      </trkpt>
      <trkpt lat="48.30344" lon="3.96925">
        <ele>261.72242</ele>
        <time>2024-03-15T17:29:00.402Z</time>
      </trkpt>
      <trkpt lat="48.3036" lon="3.96966">
        <ele>260.77925</ele>
        <time>2024-03-15T17:29:10.535Z</time>
      </trkpt>
      <trkpt lat="48.30375" lon="3.96994">
        <ele>259.282413</ele>
        <time>2024-03-15T17:29:17.510Z</time>
      </trkpt>
      <trkpt lat="48.30402" lon="3.97033">
        <ele>256.860947</ele>
        <time>2024-03-15T17:29:28.330Z</time>
      </trkpt>
      <trkpt lat="48.30437" lon="3.97092">
        <ele>253.440966</ele>
        <time>2024-03-15T17:29:42.754Z</time>
      </trkpt>
      <trkpt lat="48.30444" lon="3.97109">
        <ele>252.586235</ele>
        <time>2024-03-15T17:29:46.267Z</time>
      </trkpt>
      <trkpt lat="48.30449" lon="3.97131">
        <ele>251.61572</ele>
        <time>2024-03-15T17:29:50.226Z</time>
      </trkpt>
      <trkpt lat="48.3045" lon="3.97149">
        <ele>250.812565</ele>
        <time>2024-03-15T17:29:53.493Z</time>
      </trkpt>
      <trkpt lat="48.30447" lon="3.97161">
        <ele>250.269243</ele>
        <time>2024-03-15T17:29:55.675Z</time>
      </trkpt>
      <trkpt lat="48.30437" lon="3.97183">
        <ele>248.461877</ele>
        <time>2024-03-15T17:30:00.198Z</time>
      </trkpt>
      <trkpt lat="48.30431" lon="3.97207">
        <ele>246.531173</ele>
        <time>2024-03-15T17:30:04.540Z</time>
      </trkpt>
      <trkpt lat="48.30433" lon="3.97245">
        <ele>243.685702</ele>
        <time>2024-03-15T17:30:10.871Z</time>
      </trkpt>
      <trkpt lat="48.30436" lon="3.97271">
        <ele>241.651024</ele>
        <time>2024-03-15T17:30:15.363Z</time>
      </trkpt>
      <trkpt lat="48.30439" lon="3.97279">
        <ele>240.992912</ele>
        <time>2024-03-15T17:30:16.812Z</time>
      </trkpt>
      <trkpt lat="48.30463" lon="3.97356">
        <ele>234.540432</ele>
        <time>2024-03-15T17:30:30.951Z</time>
      </trkpt>
      <trkpt lat="48.30478" lon="3.97429">
        <ele>228.762402</ele>
        <time>2024-03-15T17:30:43.509Z</time>
      </trkpt>
      <trkpt lat="48.30499" lon="3.9751">
        <ele>221.910859</ele>
        <time>2024-03-15T17:30:57.942Z</time>
      </trkpt>
      <trkpt lat="48.30528" lon="3.97583">
        <ele>215.229147</ele>
        <time>2024-03-15T17:31:12.053Z</time>
      </trkpt>
      <trkpt lat="48.30555" lon="3.97644">
        <ele>209.387354</ele>
        <time>2024-03-15T17:31:24.453Z</time>
      </trkpt>
      <trkpt lat="48.30656" lon="3.97856">
        <ele>190.870941</ele>
        <time>2024-03-15T17:32:08.420Z</time>
      </trkpt>
      <trkpt lat="48.30667" lon="3.9789">
        <ele>188.385743</ele>
        <time>2024-03-15T17:32:14.958Z</time>
      </trkpt>
      <trkpt lat="48.3068" lon="3.97946">
        <ele>185.124635</ele>
        <time>2024-03-15T17:32:25.276Z</time>
      </trkpt>
      <trkpt lat="48.30702" lon="3.98062">
        <ele>178.56673</ele>
        <time>2024-03-15T17:32:46.412Z</time>
      </trkpt>
      <trkpt lat="48.3072" lon="3.98229">
        <ele>171.692824</ele>
        <time>2024-03-15T17:33:17.638Z</time>
      </trkpt>
      <trkpt lat="48.30726" lon="3.98501">
        <ele>165.052647</ele>
        <time>2024-03-15T17:34:13.072Z</time>
      </trkpt>
      <trkpt lat="48.30721" lon="3.98515">
        <ele>164.806728</ele>
        <time>2024-03-15T17:34:16.502Z</time>
      </trkpt>
      <trkpt lat="48.30572" lon="3.98588">
        <ele>161.791936</ele>
        <time>2024-03-15T17:35:08.274Z</time>
      </trkpt>
      <trkpt lat="48.30707" lon="3.9898">
        <ele>158.209017</ele>
        <time>2024-03-15T17:36:50.243Z</time>
      </trkpt>
      <trkpt lat="48.31096" lon="4.0011">
        <ele>133.773437</ele>
        <time>2024-03-15T17:41:12.810Z</time>
      </trkpt>
      <trkpt lat="48.31127" lon="4.00193">
        <ele>132.028713</ele>
        <time>2024-03-15T17:41:32.846Z</time>
      </trkpt>
      <trkpt lat="48.31136" lon="4.00214">
        <ele>131.67288</ele>
        <time>2024-03-15T17:41:37.974Z</time>
      </trkpt>
      <trkpt lat="48.31473" lon="4.00998">
        <ele>120.139783</ele>
        <time>2024-03-15T17:45:01.227Z</time>
      </trkpt>
      <trkpt lat="48.31473" lon="4.00999">
        <ele>120.131115</ele>
        <time>2024-03-15T17:45:01.428Z</time>
      </trkpt>
      <trkpt lat="48.31565" lon="4.01199">
        <ele>118.338302</ele>
        <time>2024-03-15T17:45:57.410Z</time>
      </trkpt>
      <trkpt lat="48.31568" lon="4.01222">
        <ele>118.222864</ele>
        <time>2024-03-15T17:46:02.874Z</time>
      </trkpt>
      <trkpt lat="48.31563" lon="4.01235">
        <ele>118.145713</ele>
        <time>2024-03-15T17:46:06.550Z</time>
      </trkpt>
      <trkpt lat="48.31255" lon="4.0167">
        <ele>115.226145</ele>
        <time>2024-03-15T17:48:35.360Z</time>
      </trkpt>
      <trkpt lat="48.31247" lon="4.01673">
        <ele>115.175984</ele>
        <time>2024-03-15T17:48:37.992Z</time>
      </trkpt>
      <trkpt lat="48.31379" lon="4.02065">
        <ele>113.612935</ele>
        <time>2024-03-15T17:50:22.247Z</time>
      </trkpt>
      <trkpt lat="48.31392" lon="4.02073">
        <ele>113.533864</ele>
        <time>2024-03-15T17:50:27.248Z</time>
      </trkpt>
      <trkpt lat="48.31912" lon="4.01985">
        <ele>110.008814</ele>
        <time>2024-03-15T17:53:31.618Z</time>
      </trkpt>
      <trkpt lat="48.32202" lon="4.0254">
        <ele>106.292271</ele>
        <time>2024-03-15T17:56:14.943Z</time>
      </trkpt>
      <trkpt lat="48.32238" lon="4.02599">
        <ele>106.25891</ele>
        <time>2024-03-15T17:56:34.045Z</time>
      </trkpt>
      <trkpt lat="48.32264" lon="4.02634">
        <ele>106.236665</ele>
        <time>2024-03-15T17:56:47.349Z</time>
      </trkpt>
      <trkpt lat="48.323" lon="4.02672">
        <ele>106.208944</ele>
        <time>2024-03-15T17:57:04.319Z</time>
      </trkpt>
      <trkpt lat="48.32339" lon="4.02581">
        <ele>106.756586</ele>
        <time>2024-03-15T17:57:33.288Z</time>
      </trkpt>
      <trkpt lat="48.32355" lon="4.02554">
        <ele>107.010704</ele>
        <time>2024-03-15T17:57:43.580Z</time>
      </trkpt>
      <trkpt lat="48.32488" lon="4.02395">
        <ele>108.705076</ele>
        <time>2024-03-15T17:58:57.773Z</time>
      </trkpt>
      <trkpt lat="48.32568" lon="4.02295">
        <ele>109.679698</ele>
        <time>2024-03-15T17:59:40.649Z</time>
      </trkpt>
      <trkpt lat="48.3259" lon="4.02271">
        <ele>109.76505</ele>
        <time>2024-03-15T17:59:51.341Z</time>
      </trkpt>
      <trkpt lat="48.32597" lon="4.02274">
        <ele>109.771416</ele>
        <time>2024-03-15T17:59:54.086Z</time>
      </trkpt>
      <trkpt lat="48.32688" lon="4.02446">
        <ele>109.898323</ele>
        <time>2024-03-15T18:00:48.429Z</time>
      </trkpt>
      <trkpt lat="48.32755" lon="4.02574">
        <ele>109.78714</ele>
        <time>2024-03-15T18:01:12.542Z</time>
      </trkpt>
      <trkpt lat="48.33017" lon="4.02274">
        <ele>109.809126</ele>
        <time>2024-03-15T18:02:30.349Z</time>
      </trkpt>
      <trkpt lat="48.33011" lon="4.0226">
        <ele>109.792319</ele>
        <time>2024-03-15T18:02:33.129Z</time>
      </trkpt>
      <trkpt lat="48.33017" lon="4.02258">
        <ele>109.782971</ele>
        <time>2024-03-15T18:02:34.581Z</time>
      </trkpt>
      <trkpt lat="48.33137" lon="4.02099">
        <ele>109.050322</ele>
        <time>2024-03-15T18:03:10.085Z</time>
      </trkpt>
      <trkpt lat="48.33151" lon="4.02078">
        <ele>108.881782</ele>
        <time>2024-03-15T18:03:14.059Z</time>
      </trkpt>
      <trkpt lat="48.33188" lon="4.02005">
        <ele>108.342964</ele>
        <time>2024-03-15T18:03:26.532Z</time>
      </trkpt>
      <trkpt lat="48.33211" lon="4.01977">
        <ele>108.089697</ele>
        <time>2024-03-15T18:03:32.448Z</time>
      </trkpt>
      <trkpt lat="48.33216" lon="4.01982">
        <ele>108.040058</ele>
        <time>2024-03-15T18:03:33.678Z</time>
      </trkpt>
      <trkpt lat="48.33228" lon="4.01984">
        <ele>107.945369</ele>
        <time>2024-03-15T18:03:36.061Z</time>
      </trkpt>
      <trkpt lat="48.33239" lon="4.01971">
        <ele>107.836267</ele>
        <time>2024-03-15T18:03:38.855Z</time>
      </trkpt>
      <trkpt lat="48.33241" lon="4.01957">
        <ele>107.76236</ele>
        <time>2024-03-15T18:03:40.789Z</time>
      </trkpt>
      <trkpt lat="48.33254" lon="4.01953">
        <ele>107.657913</ele>
        <time>2024-03-15T18:03:43.392Z</time>
      </trkpt>
      <trkpt lat="48.33266" lon="4.01956">
        <ele>107.563894</ele>
        <time>2024-03-15T18:03:45.792Z</time>
      </trkpt>
      <trkpt lat="48.33273" lon="4.01964">
        <ele>107.494396</ele>
        <time>2024-03-15T18:03:47.603Z</time>
      </trkpt>
      <trkpt lat="48.33287" lon="4.01991">
        <ele>107.321567</ele>
        <time>2024-03-15T18:03:51.934Z</time>
      </trkpt>
      <trkpt lat="48.33337" lon="4.0208">
        <ele>106.718023</ele>
        <time>2024-03-15T18:04:07.922Z</time>
      </trkpt>
      <trkpt lat="48.33341" lon="4.02088">
        <ele>106.67211</ele>
        <time>2024-03-15T18:04:09.487Z</time>
      </trkpt>
      <trkpt lat="48.33358" lon="4.02117">
        <ele>106.625418</ele>
        <time>2024-03-15T18:04:15.065Z</time>
      </trkpt>
      <trkpt lat="48.33379" lon="4.0215">
        <ele>106.570733</ele>
        <time>2024-03-15T18:04:21.868Z</time>
      </trkpt>
      <trkpt lat="48.33387" lon="4.02172">
        <ele>106.540289</ele>
        <time>2024-03-15T18:04:25.926Z</time>
      </trkpt>
      <trkpt lat="48.33388" lon="4.02183">
        <ele>106.5278</ele>
        <time>2024-03-15T18:04:27.631Z</time>
      </trkpt>
      <trkpt lat="48.33381" lon="4.02203">
        <ele>106.500201</ele>
        <time>2024-03-15T18:04:31.248Z</time>
      </trkpt>
      <trkpt lat="48.3337" lon="4.02227">
        <ele>106.465851</ele>
        <time>2024-03-15T18:04:35.716Z</time>
      </trkpt>
      <trkpt lat="48.33358" lon="4.02234">
        <ele>106.442275</ele>
        <time>2024-03-15T18:04:38.656Z</time>
      </trkpt>
      <trkpt lat="48.33353" lon="4.02233">
        <ele>106.432795</ele>
        <time>2024-03-15T18:04:39.791Z</time>
      </trkpt>
      <trkpt lat="48.33348" lon="4.02234">
        <ele>106.423817</ele>
        <time>2024-03-15T18:04:40.848Z</time>
      </trkpt>
      <trkpt lat="48.3334" lon="4.02242">
        <ele>106.406228</ele>
        <time>2024-03-15T18:04:42.966Z</time>
      </trkpt>
      <trkpt lat="48.33338" lon="4.02246">
        <ele>106.400415</ele>
        <time>2024-03-15T18:04:43.637Z</time>
      </trkpt>
      <trkpt lat="48.33336" lon="4.02255">
        <ele>106.389</ele>
        <time>2024-03-15T18:04:44.949Z</time>
      </trkpt>
      <trkpt lat="48.33336" lon="4.02263">
        <ele>106.379982</ele>
        <time>2024-03-15T18:04:45.975Z</time>
      </trkpt>
      <trkpt lat="48.3334" lon="4.02276">
        <ele>106.362135</ele>
        <time>2024-03-15T18:04:47.988Z</time>
      </trkpt>
      <trkpt lat="48.33348" lon="4.02285">
        <ele>106.31992</ele>
        <time>2024-03-15T18:04:50.011Z</time>
      </trkpt>
      <trkpt lat="48.33353" lon="4.02286">
        <ele>106.269189</ele>
        <time>2024-03-15T18:04:51.034Z</time>
      </trkpt>
      <trkpt lat="48.33358" lon="4.02285">
        <ele>106.216022</ele>
        <time>2024-03-15T18:04:52.071Z</time>
      </trkpt>
      <trkpt lat="48.33376" lon="4.02292">
        <ele>106.028725</ele>
        <time>2024-03-15T18:04:55.719Z</time>
      </trkpt>
      <trkpt lat="48.33383" lon="4.02304">
        <ele>105.918823</ele>
        <time>2024-03-15T18:04:57.931Z</time>
      </trkpt>
      <trkpt lat="48.33394" lon="4.02317">
        <ele>105.78007</ele>
        <time>2024-03-15T18:05:00.664Z</time>
      </trkpt>
      <trkpt lat="48.33404" lon="4.02337">
        <ele>105.610778</ele>
        <time>2024-03-15T18:05:04.011Z</time>
      </trkpt>
      <trkpt lat="48.33417" lon="4.02363">
        <ele>105.385646</ele>
        <time>2024-03-15T18:05:08.381Z</time>
      </trkpt>
      <trkpt lat="48.33424" lon="4.02376">
        <ele>105.278961</ele>
        <time>2024-03-15T18:05:10.450Z</time>
      </trkpt>
      <trkpt lat="48.33428" lon="4.02385">
        <ele>105.201574</ele>
        <time>2024-03-15T18:05:11.975Z</time>
      </trkpt>
      <trkpt lat="48.33436" lon="4.02415">
        <ele>104.98394</ele>
        <time>2024-03-15T18:05:16.062Z</time>
      </trkpt>
      <trkpt lat="48.33435" lon="4.02419">
        <ele>104.953569</ele>
        <time>2024-03-15T18:05:16.652Z</time>
      </trkpt>
      <trkpt lat="48.33437" lon="4.02429">
        <ele>104.887698</ele>
        <time>2024-03-15T18:05:17.912Z</time>
      </trkpt>
      <trkpt lat="48.33442" lon="4.02435">
        <ele>104.822641</ele>
        <time>2024-03-15T18:05:19.170Z</time>
      </trkpt>
      <trkpt lat="48.33447" lon="4.02436">
        <ele>104.766369</ele>
        <time>2024-03-15T18:05:20.217Z</time>
      </trkpt>
      <trkpt lat="48.33466" lon="4.02457">
        <ele>104.528598</ele>
        <time>2024-03-15T18:05:24.757Z</time>
      </trkpt>
      <trkpt lat="48.33502" lon="4.02525">
        <ele>103.89525</ele>
        <time>2024-03-15T18:05:36.034Z</time>
      </trkpt>
      <trkpt lat="48.33551" lon="4.02617">
        <ele>103.040639</ele>
        <time>2024-03-15T18:05:51.424Z</time>
      </trkpt>
      <trkpt lat="48.3363" lon="4.02758">
        <ele>101.935463</ele>
        <time>2024-03-15T18:06:16.273Z</time>
      </trkpt>
      <trkpt lat="48.33666" lon="4.0282">
        <ele>101.500779</ele>
        <time>2024-03-15T18:06:27.283Z</time>
      </trkpt>
      <trkpt lat="48.33744" lon="4.02995">
        <ele>100.394511</ele>
        <time>2024-03-15T18:06:55.591Z</time>
      </trkpt>
      <trkpt lat="48.33781" lon="4.03072">
        <ele>99.889248</ele>
        <time>2024-03-15T18:07:08.632Z</time>
      </trkpt>
      <trkpt lat="48.33823" lon="4.03149">
        <ele>99.312327</ele>
        <time>2024-03-15T18:07:21.980Z</time>
      </trkpt>
      <trkpt lat="48.33867" lon="4.03235">
        <ele>98.649875</ele>
        <time>2024-03-15T18:07:36.297Z</time>
      </trkpt>
      <trkpt lat="48.33921" lon="4.03348">
        <ele>98.053021</ele>
        <time>2024-03-15T18:07:54.760Z</time>
      </trkpt>
      <trkpt lat="48.33944" lon="4.03396">
        <ele>98.056421</ele>
        <time>2024-03-15T18:08:03.090Z</time>
      </trkpt>
      <trkpt lat="48.33974" lon="4.0346">
        <ele>98.060842</ele>
        <time>2024-03-15T18:08:14.888Z</time>
      </trkpt>
      <trkpt lat="48.34011" lon="4.03568">
        <ele>98.131522</ele>
        <time>2024-03-15T18:08:35.631Z</time>
      </trkpt>
      <trkpt lat="48.34022" lon="4.03601">
        <ele>98.210443</ele>
        <time>2024-03-15T18:08:42.006Z</time>
      </trkpt>
      <trkpt lat="48.34036" lon="4.03647">
        <ele>98.321443</ele>
        <time>2024-03-15T18:08:50.528Z</time>
      </trkpt>
      <trkpt lat="48.34048" lon="4.03682">
        <ele>98.407233</ele>
        <time>2024-03-15T18:08:56.642Z</time>
      </trkpt>
      <trkpt lat="48.34094" lon="4.03822">
        <ele>98.646551</ele>
        <time>2024-03-15T18:09:20.143Z</time>
      </trkpt>
      <trkpt lat="48.3411" lon="4.03866">
        <ele>98.635449</ele>
        <time>2024-03-15T18:09:27.684Z</time>
      </trkpt>
      <trkpt lat="48.3413" lon="4.03898">
        <ele>98.625762</ele>
        <time>2024-03-15T18:09:33.958Z</time>
      </trkpt>
      <trkpt lat="48.34145" lon="4.03912">
        <ele>98.620019</ele>
        <time>2024-03-15T18:09:37.785Z</time>
      </trkpt>
      <trkpt lat="48.34206" lon="4.03939">
        <ele>98.599279</ele>
        <time>2024-03-15T18:09:51.440Z</time>
      </trkpt>
      <trkpt lat="48.34223" lon="4.03953">
        <ele>98.650093</ele>
        <time>2024-03-15T18:09:55.829Z</time>
      </trkpt>
      <trkpt lat="48.34233" lon="4.03966">
        <ele>98.707168</ele>
        <time>2024-03-15T18:09:58.564Z</time>
      </trkpt>
      <trkpt lat="48.34238" lon="4.03973">
        <ele>98.738526</ele>
        <time>2024-03-15T18:10:00.310Z</time>
      </trkpt>
      <trkpt lat="48.34209" lon="4.04001">
        <ele>98.894772</ele>
        <time>2024-03-15T18:10:09.183Z</time>
      </trkpt>
      <trkpt lat="48.34135" lon="4.04054">
        <ele>99.273971</ele>
        <time>2024-03-15T18:10:30.610Z</time>
      </trkpt>
      <trkpt lat="48.34087" lon="4.041">
        <ele>99.499762</ele>
        <time>2024-03-15T18:10:43.980Z</time>
      </trkpt>
      <trkpt lat="48.33951" lon="4.04207">
        <ele>99.971605</ele>
        <time>2024-03-15T18:11:20.435Z</time>
      </trkpt>
      <trkpt lat="48.33868" lon="4.04287">
        <ele>100.12706</ele>
        <time>2024-03-15T18:11:43.415Z</time>
      </trkpt>
      <trkpt lat="48.33775" lon="4.04363">
        <ele>100.25521</ele>
        <time>2024-03-15T18:12:07.596Z</time>
      </trkpt>
      <trkpt lat="48.33674" lon="4.0445">
        <ele>100.252178</ele>
        <time>2024-03-15T18:12:33.298Z</time>
      </trkpt>
      <trkpt lat="48.33596" lon="4.04541">
        <ele>100.212441</ele>
        <time>2024-03-15T18:12:55.192Z</time>
      </trkpt>
      <trkpt lat="48.33582" lon="4.04557">
        <ele>100.20008</ele>
        <time>2024-03-15T18:12:59.260Z</time>
      </trkpt>
      <trkpt lat="48.33579" lon="4.0456">
        <ele>100.198187</ele>
        <time>2024-03-15T18:12:59.862Z</time>
      </trkpt>
      <trkpt lat="48.33575" lon="4.04569">
        <ele>100.193013</ele>
        <time>2024-03-15T18:13:01.546Z</time>
      </trkpt>
      <trkpt lat="48.33535" lon="4.04603">
        <ele>100.162026</ele>
        <time>2024-03-15T18:13:11.598Z</time>
      </trkpt>
      <trkpt lat="48.3353" lon="4.04599">
        <ele>100.15775</ele>
        <time>2024-03-15T18:13:12.988Z</time>
      </trkpt>
      <trkpt lat="48.33497" lon="4.04625">
        <ele>100.132356</ele>
        <time>2024-03-15T18:13:21.177Z</time>
      </trkpt>
      <trkpt lat="48.33285" lon="4.04808">
        <ele>99.672818</ele>
        <time>2024-03-15T18:14:13.416Z</time>
      </trkpt>
      <trkpt lat="48.33254" lon="4.04845">
        <ele>99.719383</ele>
        <time>2024-03-15T18:14:22.375Z</time>
      </trkpt>
      <trkpt lat="48.33049" lon="4.05016">
        <ele>100.550638</ele>
        <time>2024-03-15T18:15:20.430Z</time>
      </trkpt>
      <trkpt lat="48.32953" lon="4.05101">
        <ele>100.830173</ele>
        <time>2024-03-15T18:15:47.225Z</time>
      </trkpt>
      <trkpt lat="48.32949" lon="4.0512">
        <ele>100.853329</ele>
        <time>2024-03-15T18:15:50.137Z</time>
      </trkpt>
      <trkpt lat="48.3296" lon="4.05253">
        <ele>101.000002</ele>
        <time>2024-03-15T18:16:09.933Z</time>
      </trkpt>
      <trkpt lat="48.32961" lon="4.05291">
        <ele>101.000002</ele>
        <time>2024-03-15T18:16:15.466Z</time>
      </trkpt>
      <trkpt lat="48.32958" lon="4.05308">
        <ele>101.000002</ele>
        <time>2024-03-15T18:16:18.144Z</time>
      </trkpt>
      <trkpt lat="48.32925" lon="4.05402">
        <ele>101.000002</ele>
        <time>2024-03-15T18:16:33.966Z</time>
      </trkpt>
      <trkpt lat="48.32918" lon="4.05414">
        <ele>101.000002</ele>
        <time>2024-03-15T18:16:36.397Z</time>
      </trkpt>
      <trkpt lat="48.3283" lon="4.05451">
        <ele>101.043584</ele>
        <time>2024-03-15T18:16:56.520Z</time>
      </trkpt>
      <trkpt lat="48.32823" lon="4.05454">
        <ele>101.052575</ele>
        <time>2024-03-15T18:16:58.241Z</time>
      </trkpt>
      <trkpt lat="48.32819" lon="4.05461">
        <ele>101.059015</ele>
        <time>2024-03-15T18:16:59.480Z</time>
      </trkpt>
      <trkpt lat="48.32813" lon="4.05532">
        <ele>101.113878</ele>
        <time>2024-03-15T18:17:10.475Z</time>
      </trkpt>
      <trkpt lat="48.32806" lon="4.05673">
        <ele>101.228467</ele>
        <time>2024-03-15T18:17:32.484Z</time>
      </trkpt>
      <trkpt lat="48.32806" lon="4.05699">
        <ele>101.258268</ele>
        <time>2024-03-15T18:17:36.402Z</time>
      </trkpt>
      <trkpt lat="48.32803" lon="4.05713">
        <ele>101.274373</ele>
        <time>2024-03-15T18:17:38.539Z</time>
      </trkpt>
      <trkpt lat="48.32792" lon="4.05726">
        <ele>101.297358</ele>
        <time>2024-03-15T18:17:41.694Z</time>
      </trkpt>
      <trkpt lat="48.3275" lon="4.05729">
        <ele>101.368227</ele>
        <time>2024-03-15T18:17:51.234Z</time>
      </trkpt>
      <trkpt lat="48.32746" lon="4.05967">
        <ele>101.541026</ele>
        <time>2024-03-15T18:18:28.305Z</time>
      </trkpt>
      <trkpt lat="48.32741" lon="4.05987">
        <ele>101.546764</ele>
        <time>2024-03-15T18:18:31.366Z</time>
      </trkpt>
      <trkpt lat="48.32535" lon="4.06347">
        <ele>101.33246</ele>
        <time>2024-03-15T18:19:40.395Z</time>
      </trkpt>
      <trkpt lat="48.32528" lon="4.06354">
        <ele>101.330653</ele>
        <time>2024-03-15T18:19:42.369Z</time>
      </trkpt>
      <trkpt lat="48.32458" lon="4.06379">
        <ele>101.316451</ele>
        <time>2024-03-15T18:19:58.031Z</time>
      </trkpt>
      <trkpt lat="48.32261" lon="4.06527">
        <ele>101.632253</ele>
        <time>2024-03-15T18:20:49.351Z</time>
      </trkpt>
      <trkpt lat="48.32245" lon="4.06539">
        <ele>101.664733</ele>
        <time>2024-03-15T18:20:53.521Z</time>
      </trkpt>
      <trkpt lat="48.32205" lon="4.0657">
        <ele>101.736032</ele>
        <time>2024-03-15T18:21:03.763Z</time>
      </trkpt>
      <trkpt lat="48.32116" lon="4.0664">
        <ele>101.897263</ele>
        <time>2024-03-15T18:21:27.489Z</time>
      </trkpt>
      <trkpt lat="48.32072" lon="4.06489">
        <ele>102.132196</ele>
        <time>2024-03-15T18:21:53.762Z</time>
      </trkpt>
      <trkpt lat="48.32065" lon="4.06479">
        <ele>102.156019</ele>
        <time>2024-03-15T18:21:56.123Z</time>
      </trkpt>
      <trkpt lat="48.32061" lon="4.06479">
        <ele>102.164763</ele>
        <time>2024-03-15T18:21:57.039Z</time>
      </trkpt>
      <trkpt lat="48.32036" lon="4.06495">
        <ele>102.228713</ele>
        <time>2024-03-15T18:22:03.405Z</time>
      </trkpt>
      <trkpt lat="48.32013" lon="4.0651">
        <ele>102.287607</ele>
        <time>2024-03-15T18:22:09.261Z</time>
      </trkpt>
      <trkpt lat="48.32011" lon="4.06514">
        <ele>102.295584</ele>
        <time>2024-03-15T18:22:10.021Z</time>
      </trkpt>
      <trkpt lat="48.31993" lon="4.06534">
        <ele>102.348265</ele>
        <time>2024-03-15T18:22:15.106Z</time>
      </trkpt>
      <trkpt lat="48.31957" lon="4.06592">
        <ele>102.301547</ele>
        <time>2024-03-15T18:22:26.993Z</time>
      </trkpt>
      <trkpt lat="48.31932" lon="4.0662">
        <ele>102.252901</ele>
        <time>2024-03-15T18:22:34.418Z</time>
      </trkpt>
      <trkpt lat="48.31915" lon="4.06636">
        <ele>102.221566</ele>
        <time>2024-03-15T18:22:38.923Z</time>
      </trkpt>
      <trkpt lat="48.31879" lon="4.06655">
        <ele>102.162937</ele>
        <time>2024-03-15T18:22:47.018Z</time>
      </trkpt>
      <trkpt lat="48.31846" lon="4.06661">
        <ele>102.112279</ele>
        <time>2024-03-15T18:22:53.847Z</time>
      </trkpt>
      <trkpt lat="48.3181" lon="4.06665">
        <ele>102.014053</ele>
        <time>2024-03-15T18:23:01.288Z</time>
      </trkpt>
      <trkpt lat="48.31775" lon="4.06672">
        <ele>101.893407</ele>
        <time>2024-03-15T18:23:08.555Z</time>
      </trkpt>
      <trkpt lat="48.31751" lon="4.06685">
        <ele>101.804388</ele>
        <time>2024-03-15T18:23:13.966Z</time>
      </trkpt>
      <trkpt lat="48.31716" lon="4.06714">
        <ele>101.667494</ele>
        <time>2024-03-15T18:23:22.447Z</time>
      </trkpt>
      <trkpt lat="48.31664" lon="4.06763">
        <ele>101.480422</ele>
        <time>2024-03-15T18:23:35.928Z</time>
      </trkpt>
      <trkpt lat="48.31657" lon="4.06781">
        <ele>101.502222</ele>
        <time>2024-03-15T18:23:39.191Z</time>
      </trkpt>
      <trkpt lat="48.31653" lon="4.06798">
        <ele>101.51933</ele>
        <time>2024-03-15T18:23:41.753Z</time>
      </trkpt>
      <trkpt lat="48.31646" lon="4.06806">
        <ele>101.53164</ele>
        <time>2024-03-15T18:23:43.659Z</time>
      </trkpt>
      <trkpt lat="48.31637" lon="4.06808">
        <ele>101.5458</ele>
        <time>2024-03-15T18:23:45.813Z</time>
      </trkpt>
      <trkpt lat="48.31635" lon="4.06804">
        <ele>101.550975</ele>
        <time>2024-03-15T18:23:46.583Z</time>
      </trkpt>
      <trkpt lat="48.31634" lon="4.06801">
        <ele>101.554678</ele>
        <time>2024-03-15T18:23:47.173Z</time>
      </trkpt>
      <trkpt lat="48.31628" lon="4.068">
        <ele>101.563296</ele>
        <time>2024-03-15T18:23:48.506Z</time>
      </trkpt>
      <trkpt lat="48.31469" lon="4.06847">
        <ele>101.946979</ele>
        <time>2024-03-15T18:24:26.582Z</time>
      </trkpt>
      <trkpt lat="48.31444" lon="4.06802">
        <ele>102.132364</ele>
        <time>2024-03-15T18:24:36.033Z</time>
      </trkpt>
      <trkpt lat="48.31417" lon="4.06751">
        <ele>102.340474</ele>
        <time>2024-03-15T18:24:46.973Z</time>
      </trkpt>
      <trkpt lat="48.31414" lon="4.06755">
        <ele>102.359976</ele>
        <time>2024-03-15T18:24:48.023Z</time>
      </trkpt>
      <trkpt lat="48.31393" lon="4.0678">
        <ele>102.486222</ele>
        <time>2024-03-15T18:24:54.754Z</time>
      </trkpt>
      <trkpt lat="48.31409" lon="4.06808">
        <ele>102.601195</ele>
        <time>2024-03-15T18:25:01.212Z</time>
      </trkpt>
      <trkpt lat="48.31411" lon="4.06822">
        <ele>102.641217</ele>
        <time>2024-03-15T18:25:03.713Z</time>
      </trkpt>
      <trkpt lat="48.31498" lon="4.06975">
        <ele>103.182123</ele>
        <time>2024-03-15T18:25:36.428Z</time>
      </trkpt>
      <trkpt lat="48.31482" lon="4.06991">
        <ele>103.258495</ele>
        <time>2024-03-15T18:25:40.902Z</time>
      </trkpt>
      <trkpt lat="48.31449" lon="4.07017">
        <ele>103.343424</ele>
        <time>2024-03-15T18:25:49.449Z</time>
      </trkpt>
      <trkpt lat="48.3144" lon="4.0703">
        <ele>103.352525</ele>
        <time>2024-03-15T18:25:52.226Z</time>
      </trkpt>
      <trkpt lat="48.31436" lon="4.07043">
        <ele>103.35974</ele>
        <time>2024-03-15T18:25:54.401Z</time>
      </trkpt>
      <trkpt lat="48.31433" lon="4.07077">
        <ele>103.376574</ele>
        <time>2024-03-15T18:25:59.436Z</time>
      </trkpt>
      <trkpt lat="48.3142" lon="4.07128">
        <ele>103.403401</ele>
        <time>2024-03-15T18:26:07.449Z</time>
      </trkpt>
      <trkpt lat="48.31404" lon="4.0714">
        <ele>103.416557</ele>
        <time>2024-03-15T18:26:11.405Z</time>
      </trkpt>
      <trkpt lat="48.31396" lon="4.0714">
        <ele>103.422621</ele>
        <time>2024-03-15T18:26:13.163Z</time>
      </trkpt>
      <trkpt lat="48.31389" lon="4.07135">
        <ele>103.428153</ele>
        <time>2024-03-15T18:26:14.804Z</time>
      </trkpt>
      <trkpt lat="48.31378" lon="4.07118">
        <ele>103.439841</ele>
        <time>2024-03-15T18:26:18.343Z</time>
      </trkpt>
      <trkpt lat="48.31375" lon="4.07121">
        <ele>103.442566</ele>
        <time>2024-03-15T18:26:19.200Z</time>
      </trkpt>
      <trkpt lat="48.31364" lon="4.07133">
        <ele>103.453028</ele>
        <time>2024-03-15T18:26:22.333Z</time>
      </trkpt>
      <trkpt lat="48.31351" lon="4.07154">
        <ele>103.473998</ele>
        <time>2024-03-15T18:26:26.769Z</time>
      </trkpt>
      <trkpt lat="48.31342" lon="4.07197">
        <ele>103.525924</ele>
        <time>2024-03-15T18:26:33.842Z</time>
      </trkpt>
      <trkpt lat="48.31332" lon="4.07223">
        <ele>103.560002</ele>
        <time>2024-03-15T18:26:38.524Z</time>
      </trkpt>
      <trkpt lat="48.31311" lon="4.07236">
        <ele>103.598671</ele>
        <time>2024-03-15T18:26:43.678Z</time>
      </trkpt>
      <trkpt lat="48.31311" lon="4.07236">
        <ele>103.598671</ele>
        <time>2024-03-15T18:26:43.681Z</time>
      </trkpt>
      <trkpt lat="48.31265" lon="4.07246">
        <ele>103.679044</ele>
        <time>2024-03-15T18:26:54.162Z</time>
      </trkpt>
      <trkpt lat="48.31224" lon="4.07227">
        <ele>103.753736</ele>
        <time>2024-03-15T18:27:04.377Z</time>
      </trkpt>
      <trkpt lat="48.31182" lon="4.0723">
        <ele>103.723309</ele>
        <time>2024-03-15T18:27:14.520Z</time>
      </trkpt>
      <trkpt lat="48.31185" lon="4.07185">
        <ele>103.675553</ele>
        <time>2024-03-15T18:27:21.089Z</time>
      </trkpt>
      <trkpt lat="48.31184" lon="4.07139">
        <ele>103.625385</ele>
        <time>2024-03-15T18:27:27.781Z</time>
      </trkpt>
      <trkpt lat="48.31182" lon="4.0713">
        <ele>103.61529</ele>
        <time>2024-03-15T18:27:29.160Z</time>
      </trkpt>
      <trkpt lat="48.31176" lon="4.07117">
        <ele>103.598994</ele>
        <time>2024-03-15T18:27:31.312Z</time>
      </trkpt>
      <trkpt lat="48.31169" lon="4.07086">
        <ele>103.563601</ele>
        <time>2024-03-15T18:27:35.855Z</time>
      </trkpt>
      <trkpt lat="48.31153" lon="4.07039">
        <ele>103.506356</ele>
        <time>2024-03-15T18:27:43.235Z</time>
      </trkpt>
      <trkpt lat="48.31153" lon="4.07023">
        <ele>103.489486</ele>
        <time>2024-03-15T18:27:45.524Z</time>
      </trkpt>
      <trkpt lat="48.31156" lon="4.07011">
        <ele>103.474269</ele>
        <time>2024-03-15T18:27:47.368Z</time>
      </trkpt>
      <trkpt lat="48.31162" lon="4.07002">
        <ele>103.459661</ele>
        <time>2024-03-15T18:27:49.053Z</time>
      </trkpt>
      <trkpt lat="48.31149" lon="4.06902">
        <ele>103.337607</ele>
        <time>2024-03-15T18:28:03.815Z</time>
      </trkpt>
      <trkpt lat="48.31191" lon="4.06893">
        <ele>103.261042</ele>
        <time>2024-03-15T18:28:13.083Z</time>
      </trkpt>
      <trkpt lat="48.3125" lon="4.06879">
        <ele>103.165431</ele>
        <time>2024-03-15T18:28:26.090Z</time>
      </trkpt>
      <trkpt lat="48.31249" lon="4.06869">
        <ele>103.177853</ele>
        <time>2024-03-15T18:28:27.650Z</time>
      </trkpt>
      <trkpt lat="48.31262" lon="4.06864">
        <ele>103.201073</ele>
        <time>2024-03-15T18:28:30.718Z</time>
      </trkpt>
      <trkpt lat="48.31256" lon="4.0686">
        <ele>103.212601</ele>
        <time>2024-03-15T18:28:32.324Z</time>
      </trkpt>
      <trkpt lat="48.31183" lon="4.06645">
        <ele>103.47935</ele>
        <time>2024-03-15T18:29:11.758Z</time>
      </trkpt>
      <trkpt lat="48.31179" lon="4.06639">
        <ele>103.482928</ele>
        <time>2024-03-15T18:29:13.028Z</time>
      </trkpt>
      <trkpt lat="48.31171" lon="4.06636">
        <ele>103.48855</ele>
        <time>2024-03-15T18:29:15.028Z</time>
      </trkpt>
      <trkpt lat="48.31168" lon="4.06626">
        <ele>103.493917</ele>
        <time>2024-03-15T18:29:16.880Z</time>
      </trkpt>
      <trkpt lat="48.31163" lon="4.06612">
        <ele>103.501146</ele>
        <time>2024-03-15T18:29:19.351Z</time>
      </trkpt>
      <trkpt lat="48.3116" lon="4.06603">
        <ele>103.505503</ele>
        <time>2024-03-15T18:29:20.805Z</time>
      </trkpt>
      <trkpt lat="48.31136" lon="4.06626">
        <ele>103.52514</ele>
        <time>2024-03-15T18:29:27.475Z</time>
      </trkpt>
      <trkpt lat="48.31103" lon="4.06652">
        <ele>103.550571</ele>
        <time>2024-03-15T18:29:38.259Z</time>
      </trkpt>
      <trkpt lat="48.31003" lon="4.06738">
        <ele>103.556799</ele>
        <time>2024-03-15T18:30:03.839Z</time>
      </trkpt>
      <trkpt lat="48.3092" lon="4.06809">
        <ele>103.483771</ele>
        <time>2024-03-15T18:30:24.654Z</time>
      </trkpt>
      <trkpt lat="48.3092" lon="4.06809">
        <ele>103.483771</ele>
        <time>2024-03-15T18:30:24.656Z</time>
      </trkpt>
      <trkpt lat="48.30864" lon="4.06851">
        <ele>103.448107</ele>
        <time>2024-03-15T18:30:38.477Z</time>
      </trkpt>
      <trkpt lat="48.30841" lon="4.06862">
        <ele>103.440258</ele>
        <time>2024-03-15T18:30:44.029Z</time>
      </trkpt>
      <trkpt lat="48.30838" lon="4.06864">
        <ele>103.439249</ele>
        <time>2024-03-15T18:30:44.764Z</time>
      </trkpt>
      <trkpt lat="48.30837" lon="4.06872">
        <ele>103.437515</ele>
        <time>2024-03-15T18:30:45.966Z</time>
      </trkpt>
      <trkpt lat="48.30827" lon="4.06883">
        <ele>103.433557</ele>
        <time>2024-03-15T18:30:48.690Z</time>
      </trkpt>
      <trkpt lat="48.30831" lon="4.06897">
        <ele>103.430406</ele>
        <time>2024-03-15T18:30:50.923Z</time>
      </trkpt>
      <trkpt lat="48.30835" lon="4.06907">
        <ele>103.427932</ele>
        <time>2024-03-15T18:30:52.739Z</time>
      </trkpt>
      <trkpt lat="48.30841" lon="4.06921">
        <ele>103.424512</ele>
        <time>2024-03-15T18:30:55.106Z</time>
      </trkpt>
      <trkpt lat="48.30836" lon="4.06924">
        <ele>103.422763</ele>
        <time>2024-03-15T18:30:56.383Z</time>
      </trkpt>
      <trkpt lat="48.30798" lon="4.06949">
        <ele>103.409621</ele>
        <time>2024-03-15T18:31:05.616Z</time>
      </trkpt>
      <trkpt lat="48.30698" lon="4.07034">
        <ele>103.44539</ele>
        <time>2024-03-15T18:31:31.036Z</time>
      </trkpt>
      <trkpt lat="48.30688" lon="4.07043">
        <ele>103.452221</ele>
        <time>2024-03-15T18:31:33.810Z</time>
      </trkpt>
      <trkpt lat="48.30686" lon="4.07045">
        <ele>103.453353</ele>
        <time>2024-03-15T18:31:34.304Z</time>
      </trkpt>
      <trkpt lat="48.30638" lon="4.07085">
        <ele>103.483076</ele>
        <time>2024-03-15T18:31:47.071Z</time>
      </trkpt>
      <trkpt lat="48.30567" lon="4.07147">
        <ele>103.667723</ele>
        <time>2024-03-15T18:32:05.256Z</time>
      </trkpt>
      <trkpt lat="48.30534" lon="4.07175">
        <ele>103.784884</ele>
        <time>2024-03-15T18:32:14.341Z</time>
      </trkpt>
      <trkpt lat="48.30531" lon="4.0718">
        <ele>103.799197</ele>
        <time>2024-03-15T18:32:15.522Z</time>
      </trkpt>
      <trkpt lat="48.30523" lon="4.07188">
        <ele>103.82772</ele>
        <time>2024-03-15T18:32:17.793Z</time>
      </trkpt>
      <trkpt lat="48.30508" lon="4.07201">
        <ele>103.881243</ele>
        <time>2024-03-15T18:32:21.911Z</time>
      </trkpt>
      <trkpt lat="48.30505" lon="4.07203">
        <ele>103.890789</ele>
        <time>2024-03-15T18:32:22.685Z</time>
      </trkpt>
      <trkpt lat="48.30479" lon="4.07222">
        <ele>103.980382</ele>
        <time>2024-03-15T18:32:29.619Z</time>
      </trkpt>
      <trkpt lat="48.30445" lon="4.0725">
        <ele>104.18192</ele>
        <time>2024-03-15T18:32:39.080Z</time>
      </trkpt>
      <trkpt lat="48.30439" lon="4.07255">
        <ele>104.246679</ele>
        <time>2024-03-15T18:32:41.094Z</time>
      </trkpt>
      <trkpt lat="48.3038" lon="4.07306">
        <ele>104.819911</ele>
        <time>2024-03-15T18:32:58.543Z</time>
      </trkpt>
      <trkpt lat="48.30374" lon="4.07319">
        <ele>104.907971</ele>
        <time>2024-03-15T18:33:01.276Z</time>
      </trkpt>
      <trkpt lat="48.30369" lon="4.07324">
        <ele>104.954547</ele>
        <time>2024-03-15T18:33:02.704Z</time>
      </trkpt>
      <trkpt lat="48.30356" lon="4.07335">
        <ele>105.082326</ele>
        <time>2024-03-15T18:33:06.839Z</time>
      </trkpt>
      <trkpt lat="48.30317" lon="4.07368">
        <ele>105.462089</ele>
        <time>2024-03-15T18:33:19.863Z</time>
      </trkpt>
      <trkpt lat="48.30201" lon="4.07466">
        <ele>106.79821</ele>
        <time>2024-03-15T18:33:58.282Z</time>
      </trkpt>
      <trkpt lat="48.30199" lon="4.07469">
        <ele>106.829333</ele>
        <time>2024-03-15T18:33:59.132Z</time>
      </trkpt>
      <trkpt lat="48.30185" lon="4.0748">
        <ele>106.983618</ele>
        <time>2024-03-15T18:34:03.317Z</time>
      </trkpt>
      <trkpt lat="48.30184" lon="4.07487">
        <ele>107.035077</ele>
        <time>2024-03-15T18:34:04.654Z</time>
      </trkpt>
      <trkpt lat="48.30182" lon="4.07492">
        <ele>107.073685</ele>
        <time>2024-03-15T18:34:05.640Z</time>
      </trkpt>
      <trkpt lat="48.30182" lon="4.07495">
        <ele>107.096342</ele>
        <time>2024-03-15T18:34:06.249Z</time>
      </trkpt>
      <trkpt lat="48.30176" lon="4.07505">
        <ele>107.184902</ele>
        <time>2024-03-15T18:34:08.598Z</time>
      </trkpt>
      <trkpt lat="48.30171" lon="4.07511">
        <ele>107.248374</ele>
        <time>2024-03-15T18:34:10.349Z</time>
      </trkpt>
      <trkpt lat="48.30163" lon="4.07521">
        <ele>107.356091</ele>
        <time>2024-03-15T18:34:13.210Z</time>
      </trkpt>
      <trkpt lat="48.30155" lon="4.07514">
        <ele>107.41914</ele>
        <time>2024-03-15T18:34:16.932Z</time>
      </trkpt>
      <trkpt lat="48.30148" lon="4.07512">
        <ele>107.439361</ele>
        <time>2024-03-15T18:34:19.768Z</time>
      </trkpt>
      <trkpt lat="48.30144" lon="4.07514">
        <ele>107.450171</ele>
        <time>2024-03-15T18:34:21.349Z</time>
      </trkpt>
      <trkpt lat="48.30142" lon="4.07516">
        <ele>107.459102</ele>
        <time>2024-03-15T18:34:22.638Z</time>
      </trkpt>
      <trkpt lat="48.30104" lon="4.0755">
        <ele>107.581814</ele>
        <time>2024-03-15T18:34:39.788Z</time>
      </trkpt>
      <trkpt lat="48.30102" lon="4.07552">
        <ele>107.589621</ele>
        <time>2024-03-15T18:34:40.854Z</time>
      </trkpt>
      <trkpt lat="48.30076" lon="4.07575">
        <ele>107.674198</ele>
        <time>2024-03-15T18:34:52.435Z</time>
      </trkpt>
      <trkpt lat="48.3006" lon="4.07575">
        <ele>107.718417</ele>
        <time>2024-03-15T18:34:58.349Z</time>
      </trkpt>
      <trkpt lat="48.30036" lon="4.07601">
        <ele>107.80264</ele>
        <time>2024-03-15T18:35:09.849Z</time>
      </trkpt>
      <trkpt lat="48.30015" lon="4.07629">
        <ele>107.882245</ele>
        <time>2024-03-15T18:35:20.245Z</time>
      </trkpt>
      <trkpt lat="48.29977" lon="4.07681">
        <ele>107.845365</ele>
        <time>2024-03-15T18:35:38.958Z</time>
      </trkpt>
      <trkpt lat="48.29966" lon="4.07704">
        <ele>107.813512</ele>
        <time>2024-03-15T18:35:45.891Z</time>
      </trkpt>
      <trkpt lat="48.29964" lon="4.07706">
        <ele>107.810355</ele>
        <time>2024-03-15T18:35:46.592Z</time>
      </trkpt>
      <trkpt lat="48.29906" lon="4.07787">
        <ele>107.676861</ele>
        <time>2024-03-15T18:36:15.750Z</time>
      </trkpt>
      <trkpt lat="48.29904" lon="4.07789">
        <ele>107.673578</ele>
        <time>2024-03-15T18:36:16.462Z</time>
      </trkpt>
      <trkpt lat="48.29903" lon="4.0779">
        <ele>107.670766</ele>
        <time>2024-03-15T18:36:17.082Z</time>
      </trkpt>
      <trkpt lat="48.299" lon="4.07794">
        <ele>107.664672</ele>
        <time>2024-03-15T18:36:17.916Z</time>
      </trkpt>
      <trkpt lat="48.29839" lon="4.07881">
        <ele>107.533513</ele>
        <time>2024-03-15T18:36:36.988Z</time>
      </trkpt>
      <trkpt lat="48.29841" lon="4.07886">
        <ele>107.528865</ele>
        <time>2024-03-15T18:36:37.745Z</time>
      </trkpt>
      <trkpt lat="48.29858" lon="4.07935">
        <ele>107.473616</ele>
        <time>2024-03-15T18:36:46.032Z</time>
      </trkpt>
      <trkpt lat="48.29851" lon="4.07941">
        <ele>107.461323</ele>
        <time>2024-03-15T18:36:48.976Z</time>
      </trkpt>
      <trkpt lat="48.29842" lon="4.07948">
        <ele>107.446681</ele>
        <time>2024-03-15T18:36:52.557Z</time>
      </trkpt>
      <trkpt lat="48.29618" lon="4.0811">
        <ele>107.280782</ele>
        <time>2024-03-15T18:38:23.959Z</time>
      </trkpt>
      <trkpt lat="48.29553" lon="4.08159">
        <ele>107.611421</ele>
        <time>2024-03-15T18:38:51.950Z</time>
      </trkpt>
      <trkpt lat="48.29551" lon="4.0816">
        <ele>107.621004</ele>
        <time>2024-03-15T18:38:52.505Z</time>
      </trkpt>
      <trkpt lat="48.29549" lon="4.08153">
        <ele>107.645054</ele>
        <time>2024-03-15T18:38:53.868Z</time>
      </trkpt>
      <trkpt lat="48.29546" lon="4.08133">
        <ele>107.707119</ele>
        <time>2024-03-15T18:38:57.469Z</time>
      </trkpt>
      <trkpt lat="48.2954" lon="4.08112">
        <ele>107.77989</ele>
        <time>2024-03-15T18:39:01.317Z</time>
      </trkpt>
      <trkpt lat="48.29537" lon="4.08099">
        <ele>107.82119</ele>
        <time>2024-03-15T18:39:03.839Z</time>
      </trkpt>
      <trkpt lat="48.29536" lon="4.0809">
        <ele>107.848342</ele>
        <time>2024-03-15T18:39:05.523Z</time>
      </trkpt>
      <trkpt lat="48.29534" lon="4.08088">
        <ele>107.858639</ele>
        <time>2024-03-15T18:39:06.158Z</time>
      </trkpt>
      <trkpt lat="48.29534" lon="4.08067">
        <ele>107.92278</ele>
        <time>2024-03-15T18:39:09.604Z</time>
      </trkpt>
      <trkpt lat="48.29534" lon="4.08062">
        <ele>107.938355</ele>
        <time>2024-03-15T18:39:10.434Z</time>
      </trkpt>
      <trkpt lat="48.29535" lon="4.08039">
        <ele>108.006778</ele>
        <time>2024-03-15T18:39:14.534Z</time>
      </trkpt>
      <trkpt lat="48.29535" lon="4.08035">
        <ele>108.018697</ele>
        <time>2024-03-15T18:39:15.246Z</time>
      </trkpt>
      <trkpt lat="48.29535" lon="4.08005">
        <ele>108.117544</ele>
        <time>2024-03-15T18:39:19.997Z</time>
      </trkpt>
      <trkpt lat="48.29483" lon="4.07915">
        <ele>108.884601</ele>
        <time>2024-03-15T18:39:40.746Z</time>
      </trkpt>
      <trkpt lat="48.29459" lon="4.07874">
        <ele>109.232979</ele>
        <time>2024-03-15T18:39:51.113Z</time>
      </trkpt>
      <trkpt lat="48.29447" lon="4.07853">
        <ele>109.40995</ele>
        <time>2024-03-15T18:39:56.070Z</time>
      </trkpt>
      <trkpt lat="48.29443" lon="4.07846">
        <ele>109.469053</ele>
        <time>2024-03-15T18:39:57.859Z</time>
      </trkpt>
      <trkpt lat="48.29439" lon="4.0784">
        <ele>109.523006</ele>
        <time>2024-03-15T18:39:59.399Z</time>
      </trkpt>
      <trkpt lat="48.29437" lon="4.07835">
        <ele>109.561759</ele>
        <time>2024-03-15T18:40:00.471Z</time>
      </trkpt>
      <trkpt lat="48.29415" lon="4.07784">
        <ele>109.967261</ele>
        <time>2024-03-15T18:40:12.237Z</time>
      </trkpt>
      <trkpt lat="48.2942" lon="4.07777">
        <ele>110.040986</ele>
        <time>2024-03-15T18:40:14.027Z</time>
      </trkpt>
      <trkpt lat="48.29442" lon="4.07749">
        <ele>110.340575</ele>
        <time>2024-03-15T18:40:22.652Z</time>
      </trkpt>
      <trkpt lat="48.29445" lon="4.07746">
        <ele>110.380369</ele>
        <time>2024-03-15T18:40:23.599Z</time>
      </trkpt>
      <trkpt lat="48.29461" lon="4.07728">
        <ele>110.592661</ele>
        <time>2024-03-15T18:40:29.552Z</time>
      </trkpt>
      <trkpt lat="48.2948" lon="4.07701">
        <ele>110.858647</ele>
        <time>2024-03-15T18:40:36.602Z</time>
      </trkpt>
      <trkpt lat="48.29485" lon="4.07693">
        <ele>110.937859</ele>
        <time>2024-03-15T18:40:38.773Z</time>
      </trkpt>
      <trkpt lat="48.2953" lon="4.07628">
        <ele>111.589859</ele>
        <time>2024-03-15T18:40:56.812Z</time>
      </trkpt>
      <trkpt lat="48.29586" lon="4.07559">
        <ele>111.764935</ele>
        <time>2024-03-15T18:41:15.934Z</time>
      </trkpt>
      <trkpt lat="48.29593" lon="4.0755">
        <ele>111.771021</ele>
        <time>2024-03-15T18:41:18.018Z</time>
      </trkpt>
      <trkpt lat="48.296" lon="4.07541">
        <ele>111.777036</ele>
        <time>2024-03-15T18:41:20.007Z</time>
      </trkpt>
      <trkpt lat="48.29644" lon="4.0749">
        <ele>111.812942</ele>
        <time>2024-03-15T18:41:31.976Z</time>
      </trkpt>
      <trkpt lat="48.29648" lon="4.07485">
        <ele>111.816113</ele>
        <time>2024-03-15T18:41:33.062Z</time>
      </trkpt>
      <trkpt lat="48.2968" lon="4.0755">
        <ele>111.874344</ele>
        <time>2024-03-15T18:41:45.498Z</time>
      </trkpt>
      <trkpt lat="48.29684" lon="4.07557">
        <ele>111.891203</ele>
        <time>2024-03-15T18:41:47.232Z</time>
      </trkpt>
      <trkpt lat="48.29688" lon="4.07551">
        <ele>111.905478</ele>
        <time>2024-03-15T18:41:48.470Z</time>
      </trkpt>
      <trkpt lat="48.29716" lon="4.07513">
        <ele>112.002604</ele>
        <time>2024-03-15T18:41:56.981Z</time>
      </trkpt>
      <trkpt lat="48.29744" lon="4.07479">
        <ele>112.096635</ele>
        <time>2024-03-15T18:42:04.552Z</time>
      </trkpt>
      <trkpt lat="48.29751" lon="4.07471">
        <ele>112.118999</ele>
        <time>2024-03-15T18:42:06.438Z</time>
      </trkpt>
      <trkpt lat="48.29757" lon="4.07466">
        <ele>112.137786</ele>
        <time>2024-03-15T18:42:08.058Z</time>
      </trkpt>
      <trkpt lat="48.29811" lon="4.07412">
        <ele>112.306098</ele>
        <time>2024-03-15T18:42:23.745Z</time>
      </trkpt>
      <trkpt lat="48.29815" lon="4.07408">
        <ele>112.378001</ele>
        <time>2024-03-15T18:42:25.120Z</time>
      </trkpt>
      <trkpt lat="48.29822" lon="4.07401">
        <ele>112.522398</ele>
        <time>2024-03-15T18:42:27.652Z</time>
      </trkpt>
      <trkpt lat="48.29818" lon="4.07393">
        <ele>112.639983</ele>
        <time>2024-03-15T18:42:29.498Z</time>
      </trkpt>
      <trkpt lat="48.29794" lon="4.07346">
        <ele>113.3602</ele>
        <time>2024-03-15T18:42:43.138Z</time>
      </trkpt>
      <trkpt lat="48.29783" lon="4.07325">
        <ele>113.686561</ele>
        <time>2024-03-15T18:42:49.479Z</time>
      </trkpt>
      <trkpt lat="48.29774" lon="4.07314">
        <ele>113.895884</ele>
        <time>2024-03-15T18:42:53.930Z</time>
      </trkpt>
      <trkpt lat="48.29771" lon="4.07302">
        <ele>114.064677</ele>
        <time>2024-03-15T18:42:57.053Z</time>
      </trkpt>
      <trkpt lat="48.29748" lon="4.07256">
        <ele>114.755986</ele>
        <time>2024-03-15T18:43:09.137Z</time>
      </trkpt>
      <trkpt lat="48.29711" lon="4.07182">
        <ele>115.849199</ele>
        <time>2024-03-15T18:43:26.853Z</time>
      </trkpt>
      <trkpt lat="48.29706" lon="4.07173">
        <ele>115.968505</ele>
        <time>2024-03-15T18:43:29.283Z</time>
      </trkpt>
      <trkpt lat="48.2969" lon="4.07141">
        <ele>116.406528</ele>
        <time>2024-03-15T18:43:38.602Z</time>
      </trkpt>
      <trkpt lat="48.29656" lon="4.07062">
        <ele>117.406242</ele>
        <time>2024-03-15T18:44:00.003Z</time>
      </trkpt>
      <trkpt lat="48.2965" lon="4.07049">
        <ele>117.577776</ele>
        <time>2024-03-15T18:44:03.365Z</time>
      </trkpt>
      <trkpt lat="48.29631" lon="4.07">
        <ele>118.174451</ele>
        <time>2024-03-15T18:44:14.294Z</time>
      </trkpt>
      <trkpt lat="48.29606" lon="4.06936">
        <ele>118.611084</ele>
        <time>2024-03-15T18:44:27.037Z</time>
      </trkpt>
      <trkpt lat="48.29579" lon="4.06865">
        <ele>118.837756</ele>
        <time>2024-03-15T18:44:40.933Z</time>
      </trkpt>
      <trkpt lat="48.295" lon="4.06933">
        <ele>119.218102</ele>
        <time>2024-03-15T18:45:04.114Z</time>
      </trkpt>
      <trkpt lat="48.29495" lon="4.06937">
        <ele>119.230619</ele>
        <time>2024-03-15T18:45:05.370Z</time>
      </trkpt>
      <trkpt lat="48.29485" lon="4.06885">
        <ele>119.130031</ele>
        <time>2024-03-15T18:45:13.334Z</time>
      </trkpt>
      <trkpt lat="48.2948" lon="4.06824">
        <ele>119.015053</ele>
        <time>2024-03-15T18:45:22.295Z</time>
      </trkpt>
      <trkpt lat="48.29479" lon="4.06805">
        <ele>118.978167</ele>
        <time>2024-03-15T18:45:25.149Z</time>
      </trkpt>
      <trkpt lat="48.29491" lon="4.06809">
        <ele>118.942103</ele>
        <time>2024-03-15T18:45:27.976Z</time>
      </trkpt>
      <trkpt lat="48.29533" lon="4.06807">
        <ele>118.824959</ele>
        <time>2024-03-15T18:45:37.248Z</time>
      </trkpt>
      <trkpt lat="48.29656" lon="4.06736">
        <ele>118.255919</ele>
        <time>2024-03-15T18:46:06.225Z</time>
      </trkpt>
      <trkpt lat="48.29661" lon="4.06734">
        <ele>118.230202</ele>
        <time>2024-03-15T18:46:07.389Z</time>
      </trkpt>
      <trkpt lat="48.29666" lon="4.06731">
        <ele>118.204591</ele>
        <time>2024-03-15T18:46:08.483Z</time>
      </trkpt>
      <trkpt lat="48.2967" lon="4.06728">
        <ele>118.184192</ele>
        <time>2024-03-15T18:46:09.374Z</time>
      </trkpt>
      <trkpt lat="48.29706" lon="4.06709">
        <ele>117.996971</ele>
        <time>2024-03-15T18:46:17.762Z</time>
      </trkpt>
      <trkpt lat="48.29709" lon="4.06712">
        <ele>117.98067</ele>
        <time>2024-03-15T18:46:18.484Z</time>
      </trkpt>
      <trkpt lat="48.29719" lon="4.06741">
        <ele>117.874199</ele>
        <time>2024-03-15T18:46:23.431Z</time>
      </trkpt>
      <trkpt lat="48.29721" lon="4.06747">
        <ele>117.852437</ele>
        <time>2024-03-15T18:46:24.338Z</time>
      </trkpt>
      <trkpt lat="48.29726" lon="4.06743">
        <ele>117.794859</ele>
        <time>2024-03-15T18:46:25.448Z</time>
      </trkpt>
      <trkpt lat="48.2975" lon="4.06724">
        <ele>117.500885</ele>
        <time>2024-03-15T18:46:31.266Z</time>
      </trkpt>
      <trkpt lat="48.29756" lon="4.0672">
        <ele>117.427593</ele>
        <time>2024-03-15T18:46:32.718Z</time>
      </trkpt>
      <trkpt lat="48.29767" lon="4.06712">
        <ele>117.300282</ele>
        <time>2024-03-15T18:46:35.078Z</time>
      </trkpt>
      <trkpt lat="48.29768" lon="4.0671">
        <ele>117.279476</ele>
        <time>2024-03-15T18:46:35.446Z</time>
      </trkpt>
      <trkpt lat="48.29775" lon="4.06707">
        <ele>117.206377</ele>
        <time>2024-03-15T18:46:36.796Z</time>
      </trkpt>
      <trkpt lat="48.29772" lon="4.06694">
        <ele>117.107448</ele>
        <time>2024-03-15T18:46:38.662Z</time>
      </trkpt>
      <trkpt lat="48.29771" lon="4.0665">
        <ele>116.794573</ele>
        <time>2024-03-15T18:46:44.220Z</time>
      </trkpt>
      <trkpt lat="48.29772" lon="4.06631">
        <ele>116.662906</ele>
        <time>2024-03-15T18:46:46.605Z</time>
      </trkpt>
      <trkpt lat="48.29773" lon="4.06613">
        <ele>116.530781</ele>
        <time>2024-03-15T18:46:48.892Z</time>
      </trkpt>
      <trkpt lat="48.29769" lon="4.06594">
        <ele>116.387474</ele>
        <time>2024-03-15T18:46:51.400Z</time>
      </trkpt>
      <trkpt lat="48.29766" lon="4.06585">
        <ele>116.316867</ele>
        <time>2024-03-15T18:46:52.690Z</time>
      </trkpt>
      <trkpt lat="48.29763" lon="4.06577">
        <ele>116.255502</ele>
        <time>2024-03-15T18:46:53.754Z</time>
      </trkpt>
      <trkpt lat="48.29733" lon="4.06538">
        <ele>115.925928</ele>
        <time>2024-03-15T18:47:01.598Z</time>
      </trkpt>
      <trkpt lat="48.29717" lon="4.065">
        <ele>115.925928</ele>
        <time>2024-03-15T18:47:07.516Z</time>
      </trkpt>
      <trkpt lat="48.29714" lon="4.06496">
        <ele>115.925928</ele>
        <time>2024-03-15T18:47:08.256Z</time>
      </trkpt>
      <trkpt lat="48.29712" lon="4.06492">
        <ele>115.925928</ele>
        <time>2024-03-15T18:47:09.055Z</time>
      </trkpt>
      <trkpt lat="48.29707" lon="4.06476">
        <ele>115.925928</ele>
        <time>2024-03-15T18:47:11.273Z</time>
      </trkpt>
      <trkpt lat="48.29643" lon="4.06521">
        <ele>115.925928</ele>
        <time>2024-03-15T18:47:26.325Z</time>
      </trkpt>
      <trkpt lat="48.2964" lon="4.06526">
        <ele>115.925928</ele>
        <time>2024-03-15T18:47:27.154Z</time>
      </trkpt>
      <trkpt lat="48.29639" lon="4.06539">
        <ele>115.925928</ele>
        <time>2024-03-15T18:47:29.247Z</time>
      </trkpt>
      <trkpt lat="48.2963" lon="4.06545">
        <ele>115.925928</ele>
        <time>2024-03-15T18:47:31.615Z</time>
      </trkpt>
      <trkpt lat="48.29628" lon="4.06547">
        <ele>115.925928</ele>
        <time>2024-03-15T18:47:32.036Z</time>
      </trkpt>
      <trkpt lat="48.29614" lon="4.06556">
        <ele>115.925928</ele>
        <time>2024-03-15T18:47:35.058Z</time>
      </trkpt>
      <trkpt lat="48.29602" lon="4.06566">
        <ele>115.925928</ele>
        <time>2024-03-15T18:47:38.203Z</time>
      </trkpt>
      <trkpt lat="48.29599" lon="4.06574">
        <ele>115.925928</ele>
        <time>2024-03-15T18:47:39.921Z</time>
        <extensions>
          <visugpx:TrkExtension xmlns:visugpx="https://www.visugpx.com/editgpx/">
            <visugpx:node>1</visugpx:node>
            </visugpx:TrkExtension>
        </extensions>
      </trkpt>
    </trkseg>
  </trk>
  <trk>
    <name><![CDATA[47. Circuit de Champignol lez Mondeville-17237792]]></name>
    <extensions>
      <line xmlns="http://www.topografix.com/GPX/gpx_style/0/2">
        <color>00FF00</color>
        <width>4</width>
      </line>
    </extensions>
    <trkseg>
      <trkpt lat="48.13838" lon="4.67702">
        <ele>253</ele>
        <time>2024-07-03T07:54:09Z</time>
      </trkpt>
      <trkpt lat="48.13751" lon="4.67826">
        <ele>259</ele>
        <time>2024-07-03T07:54:30Z</time>
      </trkpt>
      <trkpt lat="48.13781" lon="4.67857">
        <ele>258</ele>
        <time>2024-07-03T07:54:37Z</time>
      </trkpt>
      <trkpt lat="48.13812" lon="4.67922">
        <ele>259</ele>
        <time>2024-07-03T07:54:46Z</time>
      </trkpt>
      <trkpt lat="48.13878" lon="4.68244">
        <ele>255</ele>
        <time>2024-07-03T07:55:26Z</time>
      </trkpt>
      <trkpt lat="48.13886" lon="4.68337">
        <ele>256</ele>
        <time>2024-07-03T07:55:37Z</time>
      </trkpt>
      <trkpt lat="48.13879" lon="4.68471">
        <ele>257</ele>
        <time>2024-07-03T07:55:53Z</time>
      </trkpt>
      <trkpt lat="48.13913" lon="4.68612">
        <ele>258</ele>
        <time>2024-07-03T07:56:11Z</time>
      </trkpt>
      <trkpt lat="48.13932" lon="4.68717">
        <ele>260</ele>
        <time>2024-07-03T07:56:24Z</time>
      </trkpt>
      <trkpt lat="48.13926" lon="4.68757">
        <ele>261</ele>
        <time>2024-07-03T07:56:29Z</time>
      </trkpt>
      <trkpt lat="48.13976" lon="4.68759">
        <ele>262</ele>
        <time>2024-07-03T07:56:38Z</time>
      </trkpt>
      <trkpt lat="48.13891" lon="4.69137">
        <ele>264</ele>
        <time>2024-07-03T07:57:25Z</time>
      </trkpt>
      <trkpt lat="48.13876" lon="4.69184">
        <ele>263</ele>
        <time>2024-07-03T07:57:31Z</time>
      </trkpt>
      <trkpt lat="48.13875" lon="4.69259">
        <ele>265</ele>
        <time>2024-07-03T07:57:40Z</time>
      </trkpt>
      <trkpt lat="48.13905" lon="4.69411">
        <ele>267</ele>
        <time>2024-07-03T07:57:59Z</time>
      </trkpt>
      <trkpt lat="48.13914" lon="4.69585">
        <ele>270</ele>
        <time>2024-07-03T07:58:20Z</time>
      </trkpt>
      <trkpt lat="48.1391" lon="4.69654">
        <ele>271</ele>
        <time>2024-07-03T07:58:28Z</time>
      </trkpt>
      <trkpt lat="48.13895" lon="4.6971">
        <ele>272</ele>
        <time>2024-07-03T07:58:35Z</time>
      </trkpt>
      <trkpt lat="48.13867" lon="4.69774">
        <ele>272</ele>
        <time>2024-07-03T07:58:44Z</time>
      </trkpt>
      <trkpt lat="48.13821" lon="4.69851">
        <ele>270</ele>
        <time>2024-07-03T07:58:57Z</time>
      </trkpt>
      <trkpt lat="48.13765" lon="4.69974">
        <ele>271</ele>
        <time>2024-07-03T07:59:14Z</time>
      </trkpt>
      <trkpt lat="48.13742" lon="4.70081">
        <ele>272</ele>
        <time>2024-07-03T07:59:28Z</time>
      </trkpt>
      <trkpt lat="48.13758" lon="4.70259">
        <ele>278</ele>
        <time>2024-07-03T07:59:49Z</time>
      </trkpt>
      <trkpt lat="48.13752" lon="4.70317">
        <ele>279</ele>
        <time>2024-07-03T07:59:56Z</time>
      </trkpt>
      <trkpt lat="48.13734" lon="4.70371">
        <ele>281</ele>
        <time>2024-07-03T08:00:03Z</time>
      </trkpt>
      <trkpt lat="48.13702" lon="4.7042">
        <ele>280</ele>
        <time>2024-07-03T08:00:11Z</time>
      </trkpt>
      <trkpt lat="48.1364" lon="4.70471">
        <ele>281</ele>
        <time>2024-07-03T08:00:24Z</time>
      </trkpt>
      <trkpt lat="48.13583" lon="4.70592">
        <ele>281</ele>
        <time>2024-07-03T08:00:41Z</time>
      </trkpt>
      <trkpt lat="48.13551" lon="4.70724">
        <ele>282</ele>
        <time>2024-07-03T08:00:58Z</time>
      </trkpt>
      <trkpt lat="48.13517" lon="4.70804">
        <ele>284</ele>
        <time>2024-07-03T08:01:09Z</time>
      </trkpt>
      <trkpt lat="48.13474" lon="4.70852">
        <ele>284</ele>
        <time>2024-07-03T08:01:19Z</time>
      </trkpt>
      <trkpt lat="48.13436" lon="4.70865">
        <ele>285</ele>
        <time>2024-07-03T08:01:26Z</time>
      </trkpt>
      <trkpt lat="48.13382" lon="4.70851">
        <ele>284</ele>
        <time>2024-07-03T08:01:36Z</time>
      </trkpt>
      <trkpt lat="48.13351" lon="4.70855">
        <ele>284</ele>
        <time>2024-07-03T08:01:41Z</time>
      </trkpt>
      <trkpt lat="48.1329" lon="4.70903">
        <ele>286</ele>
        <time>2024-07-03T08:01:53Z</time>
      </trkpt>
      <trkpt lat="48.13185" lon="4.71036">
        <ele>288</ele>
        <time>2024-07-03T08:02:18Z</time>
      </trkpt>
      <trkpt lat="48.13154" lon="4.71068">
        <ele>288</ele>
        <time>2024-07-03T08:02:25Z</time>
      </trkpt>
      <trkpt lat="48.13056" lon="4.71074">
        <ele>287</ele>
        <time>2024-07-03T08:02:42Z</time>
      </trkpt>
      <trkpt lat="48.1278" lon="4.71169">
        <ele>291</ele>
        <time>2024-07-03T08:03:32Z</time>
      </trkpt>
      <trkpt lat="48.12605" lon="4.71126">
        <ele>295</ele>
        <time>2024-07-03T08:04:04Z</time>
      </trkpt>
      <trkpt lat="48.12449" lon="4.71173">
        <ele>299</ele>
        <time>2024-07-03T08:04:32Z</time>
      </trkpt>
      <trkpt lat="48.12365" lon="4.71174">
        <ele>301</ele>
        <time>2024-07-03T08:04:47Z</time>
      </trkpt>
      <trkpt lat="48.12334" lon="4.71198">
        <ele>302</ele>
        <time>2024-07-03T08:04:53Z</time>
      </trkpt>
      <trkpt lat="48.123" lon="4.7131">
        <ele>309</ele>
        <time>2024-07-03T08:05:08Z</time>
      </trkpt>
      <trkpt lat="48.12265" lon="4.71448">
        <ele>312</ele>
        <time>2024-07-03T08:05:26Z</time>
      </trkpt>
      <trkpt lat="48.12208" lon="4.71638">
        <ele>319</ele>
        <time>2024-07-03T08:05:50Z</time>
      </trkpt>
      <trkpt lat="48.12205" lon="4.71662">
        <ele>320</ele>
        <time>2024-07-03T08:05:53Z</time>
      </trkpt>
      <trkpt lat="48.12138" lon="4.7163">
        <ele>319</ele>
        <time>2024-07-03T08:06:06Z</time>
      </trkpt>
      <trkpt lat="48.10908" lon="4.71125">
        <ele>338</ele>
        <time>2024-07-03T08:09:53Z</time>
      </trkpt>
      <trkpt lat="48.1066" lon="4.72147">
        <ele>317</ele>
        <time>2024-07-03T08:12:02Z</time>
      </trkpt>
      <trkpt lat="48.10674" lon="4.72242">
        <ele>313</ele>
        <time>2024-07-03T08:12:13Z</time>
      </trkpt>
      <trkpt lat="48.10695" lon="4.72417">
        <ele>307</ele>
        <time>2024-07-03T08:12:35Z</time>
      </trkpt>
      <trkpt lat="48.10703" lon="4.72534">
        <ele>304</ele>
        <time>2024-07-03T08:12:49Z</time>
      </trkpt>
      <trkpt lat="48.10662" lon="4.72127">
        <ele>319</ele>
        <time>2024-07-03T08:13:37Z</time>
      </trkpt>
      <trkpt lat="48.1091" lon="4.71126">
        <ele>338</ele>
        <time>2024-07-03T08:15:44Z</time>
      </trkpt>
      <trkpt lat="48.11016" lon="4.71154">
        <ele>340</ele>
        <time>2024-07-03T08:16:03Z</time>
      </trkpt>
      <trkpt lat="48.1104" lon="4.71161">
        <ele>339</ele>
        <time>2024-07-03T08:16:08Z</time>
      </trkpt>
      <trkpt lat="48.1108" lon="4.71181">
        <ele>338</ele>
        <time>2024-07-03T08:16:15Z</time>
      </trkpt>
      <trkpt lat="48.12136" lon="4.71601">
        <ele>319</ele>
        <time>2024-07-03T08:19:30Z</time>
      </trkpt>
      <trkpt lat="48.1218" lon="4.71398">
        <ele>315</ele>
        <time>2024-07-03T08:19:55Z</time>
      </trkpt>
      <trkpt lat="48.12222" lon="4.71247">
        <ele>311</ele>
        <time>2024-07-03T08:20:14Z</time>
      </trkpt>
      <trkpt lat="48.12226" lon="4.71175">
        <ele>309</ele>
        <time>2024-07-03T08:20:23Z</time>
      </trkpt>
      <trkpt lat="48.12188" lon="4.71084">
        <ele>307</ele>
        <time>2024-07-03T08:20:36Z</time>
      </trkpt>
      <trkpt lat="48.12139" lon="4.71023">
        <ele>302</ele>
        <time>2024-07-03T08:20:47Z</time>
      </trkpt>
      <trkpt lat="48.11997" lon="4.70931">
        <ele>300</ele>
        <time>2024-07-03T08:21:15Z</time>
      </trkpt>
      <trkpt lat="48.11774" lon="4.70818">
        <ele>304</ele>
        <time>2024-07-03T08:21:57Z</time>
      </trkpt>
      <trkpt lat="48.11605" lon="4.70709">
        <ele>307</ele>
        <time>2024-07-03T08:22:29Z</time>
      </trkpt>
      <trkpt lat="48.11496" lon="4.70635">
        <ele>307</ele>
        <time>2024-07-03T08:22:51Z</time>
      </trkpt>
      <trkpt lat="48.11386" lon="4.70535">
        <ele>311</ele>
        <time>2024-07-03T08:23:13Z</time>
      </trkpt>
      <trkpt lat="48.11234" lon="4.70445">
        <ele>313</ele>
        <time>2024-07-03T08:23:43Z</time>
      </trkpt>
      <trkpt lat="48.11072" lon="4.70391">
        <ele>317</ele>
        <time>2024-07-03T08:24:12Z</time>
      </trkpt>
      <trkpt lat="48.1099" lon="4.70358">
        <ele>317</ele>
        <time>2024-07-03T08:24:27Z</time>
      </trkpt>
      <trkpt lat="48.10889" lon="4.70359">
        <ele>318</ele>
        <time>2024-07-03T08:24:45Z</time>
      </trkpt>
      <trkpt lat="48.10795" lon="4.70365">
        <ele>319</ele>
        <time>2024-07-03T08:25:02Z</time>
      </trkpt>
      <trkpt lat="48.10661" lon="4.70432">
        <ele>320</ele>
        <time>2024-07-03T08:25:27Z</time>
      </trkpt>
      <trkpt lat="48.10622" lon="4.69377">
        <ele>336</ele>
        <time>2024-07-03T08:27:33Z</time>
      </trkpt>
      <trkpt lat="48.10595" lon="4.6937">
        <ele>336</ele>
        <time>2024-07-03T08:27:37Z</time>
      </trkpt>
      <trkpt lat="48.10563" lon="4.68551">
        <ele>330</ele>
        <time>2024-07-03T08:29:15Z</time>
      </trkpt>
      <trkpt lat="48.10938" lon="4.68578">
        <ele>322</ele>
        <time>2024-07-03T08:30:22Z</time>
      </trkpt>
      <trkpt lat="48.10966" lon="4.6842">
        <ele>321</ele>
        <time>2024-07-03T08:30:41Z</time>
      </trkpt>
      <trkpt lat="48.11297" lon="4.68393">
        <ele>324</ele>
        <time>2024-07-03T08:31:40Z</time>
      </trkpt>
      <trkpt lat="48.11306" lon="4.68441">
        <ele>326</ele>
        <time>2024-07-03T08:31:46Z</time>
      </trkpt>
      <trkpt lat="48.11358" lon="4.6839">
        <ele>325</ele>
        <time>2024-07-03T08:31:57Z</time>
      </trkpt>
      <trkpt lat="48.11439" lon="4.68357">
        <ele>324</ele>
        <time>2024-07-03T08:32:12Z</time>
      </trkpt>
      <trkpt lat="48.11486" lon="4.68298">
        <ele>319</ele>
        <time>2024-07-03T08:32:23Z</time>
      </trkpt>
      <trkpt lat="48.11683" lon="4.68127">
        <ele>316</ele>
        <time>2024-07-03T08:33:03Z</time>
      </trkpt>
      <trkpt lat="48.11711" lon="4.68123">
        <ele>314</ele>
        <time>2024-07-03T08:33:08Z</time>
      </trkpt>
      <trkpt lat="48.11752" lon="4.68088">
        <ele>311</ele>
        <time>2024-07-03T08:33:17Z</time>
      </trkpt>
      <trkpt lat="48.11841" lon="4.68041">
        <ele>305</ele>
        <time>2024-07-03T08:33:34Z</time>
      </trkpt>
      <trkpt lat="48.11919" lon="4.67976">
        <ele>299</ele>
        <time>2024-07-03T08:33:50Z</time>
      </trkpt>
      <trkpt lat="48.1206" lon="4.67917">
        <ele>294</ele>
        <time>2024-07-03T08:34:16Z</time>
      </trkpt>
      <trkpt lat="48.12141" lon="4.67841">
        <ele>292</ele>
        <time>2024-07-03T08:34:33Z</time>
      </trkpt>
      <trkpt lat="48.12226" lon="4.67814">
        <ele>289</ele>
        <time>2024-07-03T08:34:48Z</time>
      </trkpt>
      <trkpt lat="48.12308" lon="4.67826">
        <ele>287</ele>
        <time>2024-07-03T08:35:03Z</time>
      </trkpt>
      <trkpt lat="48.12343" lon="4.6764">
        <ele>282</ele>
        <time>2024-07-03T08:35:26Z</time>
      </trkpt>
      <trkpt lat="48.12404" lon="4.67412">
        <ele>278</ele>
        <time>2024-07-03T08:35:55Z</time>
      </trkpt>
      <trkpt lat="48.1245" lon="4.67012">
        <ele>275</ele>
        <time>2024-07-03T08:36:43Z</time>
      </trkpt>
      <trkpt lat="48.12489" lon="4.66823">
        <ele>271</ele>
        <time>2024-07-03T08:37:07Z</time>
      </trkpt>
      <trkpt lat="48.12539" lon="4.66835">
        <ele>272</ele>
        <time>2024-07-03T08:37:16Z</time>
      </trkpt>
      <trkpt lat="48.12622" lon="4.66936">
        <ele>278</ele>
        <time>2024-07-03T08:37:35Z</time>
      </trkpt>
      <trkpt lat="48.12662" lon="4.67015">
        <ele>281</ele>
        <time>2024-07-03T08:37:46Z</time>
      </trkpt>
      <trkpt lat="48.12711" lon="4.67096">
        <ele>284</ele>
        <time>2024-07-03T08:37:59Z</time>
      </trkpt>
      <trkpt lat="48.12841" lon="4.672">
        <ele>291</ele>
        <time>2024-07-03T08:38:26Z</time>
      </trkpt>
      <trkpt lat="48.12954" lon="4.67228">
        <ele>285</ele>
        <time>2024-07-03T08:38:46Z</time>
      </trkpt>
      <trkpt lat="48.13078" lon="4.67355">
        <ele>273</ele>
        <time>2024-07-03T08:39:13Z</time>
      </trkpt>
      <trkpt lat="48.13134" lon="4.67381">
        <ele>271</ele>
        <time>2024-07-03T08:39:23Z</time>
      </trkpt>
      <trkpt lat="48.13233" lon="4.67378">
        <ele>266</ele>
        <time>2024-07-03T08:39:41Z</time>
      </trkpt>
      <trkpt lat="48.13345" lon="4.67419">
        <ele>263</ele>
        <time>2024-07-03T08:40:01Z</time>
      </trkpt>
      <trkpt lat="48.13409" lon="4.67475">
        <ele>264</ele>
        <time>2024-07-03T08:40:14Z</time>
      </trkpt>
      <trkpt lat="48.13462" lon="4.67494">
        <ele>264</ele>
        <time>2024-07-03T08:40:24Z</time>
      </trkpt>
      <trkpt lat="48.13465" lon="4.67508">
        <ele>265</ele>
        <time>2024-07-03T08:40:26Z</time>
      </trkpt>
      <trkpt lat="48.13532" lon="4.67494">
        <ele>263</ele>
        <time>2024-07-03T08:40:38Z</time>
      </trkpt>
      <trkpt lat="48.13649" lon="4.67819">
        <ele>262</ele>
        <time>2024-07-03T08:41:22Z</time>
      </trkpt>
      <trkpt lat="48.13674" lon="4.67845">
        <ele>261</ele>
        <time>2024-07-03T08:41:27Z</time>
      </trkpt>
      <trkpt lat="48.13728" lon="4.6782">
        <ele>259</ele>
        <time>2024-07-03T08:41:37Z</time>
      </trkpt>
      <trkpt lat="48.13747" lon="4.6782">
        <ele>259</ele>
        <time>2024-07-03T08:41:41Z</time>
      </trkpt>
      <trkpt lat="48.13829" lon="4.67694">
        <ele>253</ele>
        <time>2024-07-03T08:42:01Z</time>
      </trkpt>
    </trkseg>
  </trk>
  <trk>
    <name><![CDATA[48. Circuit Benedicte Longchamp sur Aujon 37 KM-17237788]]></name>
    <extensions>
      <line xmlns="http://www.topografix.com/GPX/gpx_style/0/2">
        <color>FF0000</color>
        <width>4</width>
      </line>
    </extensions>
    <trkseg>
      <trkpt lat="48.15071" lon="4.83271">
        <ele>195</ele>
        <time>2024-07-03T08:05:47Z</time>
      </trkpt>
      <trkpt lat="48.15068" lon="4.83277">
        <ele>195</ele>
        <time>2024-07-03T08:05:48Z</time>
      </trkpt>
      <trkpt lat="48.15081" lon="4.83264">
        <ele>194</ele>
        <time>2024-07-03T08:05:51Z</time>
      </trkpt>
      <trkpt lat="48.15093" lon="4.83259">
        <ele>194</ele>
        <time>2024-07-03T08:05:53Z</time>
      </trkpt>
      <trkpt lat="48.15083" lon="4.83263">
        <ele>194</ele>
        <time>2024-07-03T08:05:55Z</time>
      </trkpt>
      <trkpt lat="48.15069" lon="4.83277">
        <ele>195</ele>
        <time>2024-07-03T08:05:58Z</time>
      </trkpt>
      <trkpt lat="48.15079" lon="4.83261">
        <ele>194</ele>
        <time>2024-07-03T08:06:00Z</time>
      </trkpt>
      <trkpt lat="48.15097" lon="4.83264">
        <ele>194</ele>
        <time>2024-07-03T08:06:04Z</time>
      </trkpt>
      <trkpt lat="48.15232" lon="4.83337">
        <ele>193</ele>
        <time>2024-07-03T08:06:29Z</time>
      </trkpt>
      <trkpt lat="48.1524" lon="4.83356">
        <ele>193</ele>
        <time>2024-07-03T08:06:32Z</time>
      </trkpt>
      <trkpt lat="48.15229" lon="4.83432">
        <ele>193</ele>
        <time>2024-07-03T08:06:41Z</time>
      </trkpt>
      <trkpt lat="48.15209" lon="4.83652">
        <ele>193</ele>
        <time>2024-07-03T08:07:07Z</time>
      </trkpt>
      <trkpt lat="48.15214" lon="4.83689">
        <ele>193</ele>
        <time>2024-07-03T08:07:12Z</time>
      </trkpt>
      <trkpt lat="48.15212" lon="4.83751">
        <ele>194</ele>
        <time>2024-07-03T08:07:19Z</time>
      </trkpt>
      <trkpt lat="48.15196" lon="4.83906">
        <ele>193</ele>
        <time>2024-07-03T08:07:38Z</time>
      </trkpt>
      <trkpt lat="48.15101" lon="4.84274">
        <ele>197</ele>
        <time>2024-07-03T08:08:25Z</time>
      </trkpt>
      <trkpt lat="48.14972" lon="4.84692">
        <ele>203</ele>
        <time>2024-07-03T08:09:19Z</time>
      </trkpt>
      <trkpt lat="48.14949" lon="4.84771">
        <ele>202</ele>
        <time>2024-07-03T08:09:30Z</time>
      </trkpt>
      <trkpt lat="48.14944" lon="4.84803">
        <ele>202</ele>
        <time>2024-07-03T08:09:33Z</time>
      </trkpt>
      <trkpt lat="48.14943" lon="4.84837">
        <ele>202</ele>
        <time>2024-07-03T08:09:37Z</time>
      </trkpt>
      <trkpt lat="48.14953" lon="4.84906">
        <ele>203</ele>
        <time>2024-07-03T08:09:46Z</time>
      </trkpt>
      <trkpt lat="48.15006" lon="4.8505">
        <ele>206</ele>
        <time>2024-07-03T08:10:05Z</time>
      </trkpt>
      <trkpt lat="48.15019" lon="4.85119">
        <ele>210</ele>
        <time>2024-07-03T08:10:14Z</time>
      </trkpt>
      <trkpt lat="48.15013" lon="4.85334">
        <ele>218</ele>
        <time>2024-07-03T08:10:39Z</time>
      </trkpt>
      <trkpt lat="48.15016" lon="4.85427">
        <ele>219</ele>
        <time>2024-07-03T08:10:51Z</time>
      </trkpt>
      <trkpt lat="48.15026" lon="4.85466">
        <ele>219</ele>
        <time>2024-07-03T08:10:55Z</time>
      </trkpt>
      <trkpt lat="48.15075" lon="4.85598">
        <ele>217</ele>
        <time>2024-07-03T08:11:13Z</time>
      </trkpt>
      <trkpt lat="48.15102" lon="4.85646">
        <ele>215</ele>
        <time>2024-07-03T08:11:21Z</time>
      </trkpt>
      <trkpt lat="48.15147" lon="4.857">
        <ele>215</ele>
        <time>2024-07-03T08:11:31Z</time>
      </trkpt>
      <trkpt lat="48.15366" lon="4.85883">
        <ele>211</ele>
        <time>2024-07-03T08:12:16Z</time>
      </trkpt>
      <trkpt lat="48.15433" lon="4.85934">
        <ele>210</ele>
        <time>2024-07-03T08:12:29Z</time>
      </trkpt>
      <trkpt lat="48.15475" lon="4.8595">
        <ele>211</ele>
        <time>2024-07-03T08:12:37Z</time>
      </trkpt>
      <trkpt lat="48.15564" lon="4.85969">
        <ele>213</ele>
        <time>2024-07-03T08:12:53Z</time>
      </trkpt>
      <trkpt lat="48.15592" lon="4.85979">
        <ele>212</ele>
        <time>2024-07-03T08:12:58Z</time>
      </trkpt>
      <trkpt lat="48.15675" lon="4.86024">
        <ele>212</ele>
        <time>2024-07-03T08:13:14Z</time>
      </trkpt>
      <trkpt lat="48.15796" lon="4.86075">
        <ele>213</ele>
        <time>2024-07-03T08:13:36Z</time>
      </trkpt>
      <trkpt lat="48.15841" lon="4.86107">
        <ele>213</ele>
        <time>2024-07-03T08:13:45Z</time>
      </trkpt>
      <trkpt lat="48.15897" lon="4.8616">
        <ele>212</ele>
        <time>2024-07-03T08:13:57Z</time>
      </trkpt>
      <trkpt lat="48.15941" lon="4.86195">
        <ele>212</ele>
        <time>2024-07-03T08:14:05Z</time>
      </trkpt>
      <trkpt lat="48.15987" lon="4.86217">
        <ele>213</ele>
        <time>2024-07-03T08:14:14Z</time>
      </trkpt>
      <trkpt lat="48.16123" lon="4.86258">
        <ele>218</ele>
        <time>2024-07-03T08:14:39Z</time>
      </trkpt>
      <trkpt lat="48.16207" lon="4.86309">
        <ele>221</ele>
        <time>2024-07-03T08:14:55Z</time>
      </trkpt>
      <trkpt lat="48.16299" lon="4.86372">
        <ele>221</ele>
        <time>2024-07-03T08:15:13Z</time>
      </trkpt>
      <trkpt lat="48.16447" lon="4.86494">
        <ele>217</ele>
        <time>2024-07-03T08:15:43Z</time>
      </trkpt>
      <trkpt lat="48.16499" lon="4.86546">
        <ele>219</ele>
        <time>2024-07-03T08:15:54Z</time>
      </trkpt>
      <trkpt lat="48.16548" lon="4.86623">
        <ele>221</ele>
        <time>2024-07-03T08:16:07Z</time>
      </trkpt>
      <trkpt lat="48.16645" lon="4.86795">
        <ele>215</ele>
        <time>2024-07-03T08:16:33Z</time>
      </trkpt>
      <trkpt lat="48.16721" lon="4.86775">
        <ele>221</ele>
        <time>2024-07-03T08:16:47Z</time>
      </trkpt>
      <trkpt lat="48.16789" lon="4.86766">
        <ele>227</ele>
        <time>2024-07-03T08:16:59Z</time>
      </trkpt>
      <trkpt lat="48.16818" lon="4.86758">
        <ele>230</ele>
        <time>2024-07-03T08:17:05Z</time>
      </trkpt>
      <trkpt lat="48.16832" lon="4.86723">
        <ele>232</ele>
        <time>2024-07-03T08:17:09Z</time>
      </trkpt>
      <trkpt lat="48.16842" lon="4.86681">
        <ele>235</ele>
        <time>2024-07-03T08:17:15Z</time>
      </trkpt>
      <trkpt lat="48.16843" lon="4.86653">
        <ele>236</ele>
        <time>2024-07-03T08:17:18Z</time>
      </trkpt>
      <trkpt lat="48.16839" lon="4.86627">
        <ele>236</ele>
        <time>2024-07-03T08:17:21Z</time>
      </trkpt>
      <trkpt lat="48.16846" lon="4.86568">
        <ele>240</ele>
        <time>2024-07-03T08:17:28Z</time>
      </trkpt>
      <trkpt lat="48.16863" lon="4.86522">
        <ele>242</ele>
        <time>2024-07-03T08:17:35Z</time>
      </trkpt>
      <trkpt lat="48.16882" lon="4.8649">
        <ele>243</ele>
        <time>2024-07-03T08:17:40Z</time>
      </trkpt>
      <trkpt lat="48.16932" lon="4.86434">
        <ele>243</ele>
        <time>2024-07-03T08:17:51Z</time>
      </trkpt>
      <trkpt lat="48.16993" lon="4.86386">
        <ele>248</ele>
        <time>2024-07-03T08:18:03Z</time>
      </trkpt>
      <trkpt lat="48.17034" lon="4.86347">
        <ele>252</ele>
        <time>2024-07-03T08:18:12Z</time>
      </trkpt>
      <trkpt lat="48.17131" lon="4.86209">
        <ele>257</ele>
        <time>2024-07-03T08:18:35Z</time>
      </trkpt>
      <trkpt lat="48.17167" lon="4.8619">
        <ele>256</ele>
        <time>2024-07-03T08:18:42Z</time>
      </trkpt>
      <trkpt lat="48.17226" lon="4.86182">
        <ele>256</ele>
        <time>2024-07-03T08:18:53Z</time>
      </trkpt>
      <trkpt lat="48.17247" lon="4.86167">
        <ele>254</ele>
        <time>2024-07-03T08:18:57Z</time>
      </trkpt>
      <trkpt lat="48.1727" lon="4.86122">
        <ele>258</ele>
        <time>2024-07-03T08:19:04Z</time>
      </trkpt>
      <trkpt lat="48.17293" lon="4.86032">
        <ele>261</ele>
        <time>2024-07-03T08:19:15Z</time>
      </trkpt>
      <trkpt lat="48.1731" lon="4.86">
        <ele>262</ele>
        <time>2024-07-03T08:19:20Z</time>
      </trkpt>
      <trkpt lat="48.17376" lon="4.85893">
        <ele>269</ele>
        <time>2024-07-03T08:19:37Z</time>
      </trkpt>
      <trkpt lat="48.17412" lon="4.85851">
        <ele>270</ele>
        <time>2024-07-03T08:19:45Z</time>
      </trkpt>
      <trkpt lat="48.1745" lon="4.85815">
        <ele>271</ele>
        <time>2024-07-03T08:19:53Z</time>
      </trkpt>
      <trkpt lat="48.17528" lon="4.85753">
        <ele>270</ele>
        <time>2024-07-03T08:20:09Z</time>
      </trkpt>
      <trkpt lat="48.17562" lon="4.85738">
        <ele>272</ele>
        <time>2024-07-03T08:20:15Z</time>
      </trkpt>
      <trkpt lat="48.17595" lon="4.85736">
        <ele>272</ele>
        <time>2024-07-03T08:20:21Z</time>
      </trkpt>
      <trkpt lat="48.17632" lon="4.85745">
        <ele>272</ele>
        <time>2024-07-03T08:20:28Z</time>
      </trkpt>
      <trkpt lat="48.17668" lon="4.85764">
        <ele>273</ele>
        <time>2024-07-03T08:20:35Z</time>
      </trkpt>
      <trkpt lat="48.17719" lon="4.85799">
        <ele>273</ele>
        <time>2024-07-03T08:20:45Z</time>
      </trkpt>
      <trkpt lat="48.17745" lon="4.85822">
        <ele>273</ele>
        <time>2024-07-03T08:20:50Z</time>
      </trkpt>
      <trkpt lat="48.1776" lon="4.85826">
        <ele>274</ele>
        <time>2024-07-03T08:20:53Z</time>
      </trkpt>
      <trkpt lat="48.1777" lon="4.85824">
        <ele>276</ele>
        <time>2024-07-03T08:20:55Z</time>
      </trkpt>
      <trkpt lat="48.17783" lon="4.85809">
        <ele>278</ele>
        <time>2024-07-03T08:20:57Z</time>
      </trkpt>
      <trkpt lat="48.17812" lon="4.85736">
        <ele>278</ele>
        <time>2024-07-03T08:21:08Z</time>
      </trkpt>
      <trkpt lat="48.17835" lon="4.85706">
        <ele>279</ele>
        <time>2024-07-03T08:21:13Z</time>
      </trkpt>
      <trkpt lat="48.17851" lon="4.85696">
        <ele>281</ele>
        <time>2024-07-03T08:21:16Z</time>
      </trkpt>
      <trkpt lat="48.17895" lon="4.85685">
        <ele>286</ele>
        <time>2024-07-03T08:21:24Z</time>
      </trkpt>
      <trkpt lat="48.17913" lon="4.85676">
        <ele>288</ele>
        <time>2024-07-03T08:21:27Z</time>
      </trkpt>
      <trkpt lat="48.17989" lon="4.85584">
        <ele>293</ele>
        <time>2024-07-03T08:21:45Z</time>
      </trkpt>
      <trkpt lat="48.18019" lon="4.85562">
        <ele>296</ele>
        <time>2024-07-03T08:21:51Z</time>
      </trkpt>
      <trkpt lat="48.18039" lon="4.85556">
        <ele>297</ele>
        <time>2024-07-03T08:21:54Z</time>
      </trkpt>
      <trkpt lat="48.18132" lon="4.85562">
        <ele>302</ele>
        <time>2024-07-03T08:22:11Z</time>
      </trkpt>
      <trkpt lat="48.18176" lon="4.85549">
        <ele>304</ele>
        <time>2024-07-03T08:22:19Z</time>
      </trkpt>
      <trkpt lat="48.182" lon="4.85528">
        <ele>304</ele>
        <time>2024-07-03T08:22:24Z</time>
      </trkpt>
      <trkpt lat="48.1829" lon="4.85403">
        <ele>305</ele>
        <time>2024-07-03T08:22:46Z</time>
      </trkpt>
      <trkpt lat="48.1831" lon="4.85391">
        <ele>306</ele>
        <time>2024-07-03T08:22:49Z</time>
      </trkpt>
      <trkpt lat="48.18337" lon="4.85392">
        <ele>307</ele>
        <time>2024-07-03T08:22:54Z</time>
      </trkpt>
      <trkpt lat="48.184" lon="4.85425">
        <ele>314</ele>
        <time>2024-07-03T08:23:06Z</time>
      </trkpt>
      <trkpt lat="48.18438" lon="4.85433">
        <ele>317</ele>
        <time>2024-07-03T08:23:13Z</time>
      </trkpt>
      <trkpt lat="48.18494" lon="4.85461">
        <ele>321</ele>
        <time>2024-07-03T08:23:23Z</time>
      </trkpt>
      <trkpt lat="48.18541" lon="4.85501">
        <ele>323</ele>
        <time>2024-07-03T08:23:33Z</time>
      </trkpt>
      <trkpt lat="48.18579" lon="4.85526">
        <ele>324</ele>
        <time>2024-07-03T08:23:40Z</time>
      </trkpt>
      <trkpt lat="48.18781" lon="4.85679">
        <ele>324</ele>
        <time>2024-07-03T08:24:21Z</time>
      </trkpt>
      <trkpt lat="48.18793" lon="4.85683">
        <ele>323</ele>
        <time>2024-07-03T08:24:23Z</time>
      </trkpt>
      <trkpt lat="48.18811" lon="4.8568">
        <ele>322</ele>
        <time>2024-07-03T08:24:26Z</time>
      </trkpt>
      <trkpt lat="48.18885" lon="4.85649">
        <ele>319</ele>
        <time>2024-07-03T08:24:40Z</time>
      </trkpt>
      <trkpt lat="48.18906" lon="4.85645">
        <ele>318</ele>
        <time>2024-07-03T08:24:44Z</time>
      </trkpt>
      <trkpt lat="48.18925" lon="4.85648">
        <ele>318</ele>
        <time>2024-07-03T08:24:47Z</time>
      </trkpt>
      <trkpt lat="48.18947" lon="4.85664">
        <ele>317</ele>
        <time>2024-07-03T08:24:51Z</time>
      </trkpt>
      <trkpt lat="48.18967" lon="4.85695">
        <ele>316</ele>
        <time>2024-07-03T08:24:56Z</time>
      </trkpt>
      <trkpt lat="48.18986" lon="4.85745">
        <ele>314</ele>
        <time>2024-07-03T08:25:03Z</time>
      </trkpt>
      <trkpt lat="48.19009" lon="4.85834">
        <ele>312</ele>
        <time>2024-07-03T08:25:15Z</time>
      </trkpt>
      <trkpt lat="48.1901" lon="4.85899">
        <ele>309</ele>
        <time>2024-07-03T08:25:22Z</time>
      </trkpt>
      <trkpt lat="48.18999" lon="4.85984">
        <ele>306</ele>
        <time>2024-07-03T08:25:33Z</time>
      </trkpt>
      <trkpt lat="48.19" lon="4.86094">
        <ele>305</ele>
        <time>2024-07-03T08:25:46Z</time>
      </trkpt>
      <trkpt lat="48.1901" lon="4.86179">
        <ele>298</ele>
        <time>2024-07-03T08:25:56Z</time>
      </trkpt>
      <trkpt lat="48.19011" lon="4.86254">
        <ele>293</ele>
        <time>2024-07-03T08:26:05Z</time>
      </trkpt>
      <trkpt lat="48.19029" lon="4.86276">
        <ele>295</ele>
        <time>2024-07-03T08:26:09Z</time>
      </trkpt>
      <trkpt lat="48.19068" lon="4.86278">
        <ele>297</ele>
        <time>2024-07-03T08:26:16Z</time>
      </trkpt>
      <trkpt lat="48.19111" lon="4.86266">
        <ele>297</ele>
        <time>2024-07-03T08:26:24Z</time>
      </trkpt>
      <trkpt lat="48.19235" lon="4.86205">
        <ele>302</ele>
        <time>2024-07-03T08:26:47Z</time>
      </trkpt>
      <trkpt lat="48.19256" lon="4.86198">
        <ele>303</ele>
        <time>2024-07-03T08:26:51Z</time>
      </trkpt>
      <trkpt lat="48.19288" lon="4.86191">
        <ele>303</ele>
        <time>2024-07-03T08:26:56Z</time>
      </trkpt>
      <trkpt lat="48.19371" lon="4.86184">
        <ele>305</ele>
        <time>2024-07-03T08:27:11Z</time>
      </trkpt>
      <trkpt lat="48.19413" lon="4.86173">
        <ele>306</ele>
        <time>2024-07-03T08:27:19Z</time>
      </trkpt>
      <trkpt lat="48.19486" lon="4.8614">
        <ele>311</ele>
        <time>2024-07-03T08:27:32Z</time>
      </trkpt>
      <trkpt lat="48.19543" lon="4.86134">
        <ele>314</ele>
        <time>2024-07-03T08:27:42Z</time>
      </trkpt>
      <trkpt lat="48.1958" lon="4.8614">
        <ele>316</ele>
        <time>2024-07-03T08:27:49Z</time>
      </trkpt>
      <trkpt lat="48.19615" lon="4.86159">
        <ele>317</ele>
        <time>2024-07-03T08:27:56Z</time>
      </trkpt>
      <trkpt lat="48.19775" lon="4.86291">
        <ele>322</ele>
        <time>2024-07-03T08:28:28Z</time>
      </trkpt>
      <trkpt lat="48.19788" lon="4.86291">
        <ele>322</ele>
        <time>2024-07-03T08:28:31Z</time>
      </trkpt>
      <trkpt lat="48.19801" lon="4.8628">
        <ele>321</ele>
        <time>2024-07-03T08:28:33Z</time>
      </trkpt>
      <trkpt lat="48.19812" lon="4.86253">
        <ele>320</ele>
        <time>2024-07-03T08:28:37Z</time>
      </trkpt>
      <trkpt lat="48.1981" lon="4.86234">
        <ele>320</ele>
        <time>2024-07-03T08:28:39Z</time>
      </trkpt>
      <trkpt lat="48.19694" lon="4.86002">
        <ele>320</ele>
        <time>2024-07-03T08:29:14Z</time>
      </trkpt>
      <trkpt lat="48.19669" lon="4.85965">
        <ele>320</ele>
        <time>2024-07-03T08:29:20Z</time>
      </trkpt>
      <trkpt lat="48.19639" lon="4.8593">
        <ele>320</ele>
        <time>2024-07-03T08:29:27Z</time>
      </trkpt>
      <trkpt lat="48.19503" lon="4.85799">
        <ele>317</ele>
        <time>2024-07-03T08:29:55Z</time>
      </trkpt>
      <trkpt lat="48.19478" lon="4.85784">
        <ele>317</ele>
        <time>2024-07-03T08:30:00Z</time>
      </trkpt>
      <trkpt lat="48.19436" lon="4.85749">
        <ele>318</ele>
        <time>2024-07-03T08:30:09Z</time>
      </trkpt>
      <trkpt lat="48.19089" lon="4.85499">
        <ele>318</ele>
        <time>2024-07-03T08:31:17Z</time>
      </trkpt>
      <trkpt lat="48.19075" lon="4.85485">
        <ele>318</ele>
        <time>2024-07-03T08:31:20Z</time>
      </trkpt>
      <trkpt lat="48.18894" lon="4.85354">
        <ele>321</ele>
        <time>2024-07-03T08:31:56Z</time>
      </trkpt>
      <trkpt lat="48.18857" lon="4.85323">
        <ele>321</ele>
        <time>2024-07-03T08:32:04Z</time>
      </trkpt>
      <trkpt lat="48.18833" lon="4.8531">
        <ele>322</ele>
        <time>2024-07-03T08:32:08Z</time>
      </trkpt>
      <trkpt lat="48.18675" lon="4.85195">
        <ele>326</ele>
        <time>2024-07-03T08:32:39Z</time>
      </trkpt>
      <trkpt lat="48.1842" lon="4.85002">
        <ele>329</ele>
        <time>2024-07-03T08:33:30Z</time>
      </trkpt>
      <trkpt lat="48.18391" lon="4.84984">
        <ele>329</ele>
        <time>2024-07-03T08:33:36Z</time>
      </trkpt>
      <trkpt lat="48.18296" lon="4.84944">
        <ele>329</ele>
        <time>2024-07-03T08:33:53Z</time>
      </trkpt>
      <trkpt lat="48.18233" lon="4.84924">
        <ele>327</ele>
        <time>2024-07-03T08:34:05Z</time>
      </trkpt>
      <trkpt lat="48.18203" lon="4.84906">
        <ele>326</ele>
        <time>2024-07-03T08:34:10Z</time>
      </trkpt>
      <trkpt lat="48.18183" lon="4.84887">
        <ele>326</ele>
        <time>2024-07-03T08:34:15Z</time>
      </trkpt>
      <trkpt lat="48.18131" lon="4.84809">
        <ele>328</ele>
        <time>2024-07-03T08:34:28Z</time>
      </trkpt>
      <trkpt lat="48.18023" lon="4.84705">
        <ele>327</ele>
        <time>2024-07-03T08:34:51Z</time>
      </trkpt>
      <trkpt lat="48.18001" lon="4.84671">
        <ele>326</ele>
        <time>2024-07-03T08:34:56Z</time>
      </trkpt>
      <trkpt lat="48.17818" lon="4.84192">
        <ele>325</ele>
        <time>2024-07-03T08:36:02Z</time>
      </trkpt>
      <trkpt lat="48.17801" lon="4.84155">
        <ele>326</ele>
        <time>2024-07-03T08:36:07Z</time>
      </trkpt>
      <trkpt lat="48.1777" lon="4.84109">
        <ele>326</ele>
        <time>2024-07-03T08:36:15Z</time>
      </trkpt>
      <trkpt lat="48.17796" lon="4.84028">
        <ele>325</ele>
        <time>2024-07-03T08:36:25Z</time>
      </trkpt>
      <trkpt lat="48.17858" lon="4.83868">
        <ele>327</ele>
        <time>2024-07-03T08:36:47Z</time>
      </trkpt>
      <trkpt lat="48.17892" lon="4.83812">
        <ele>327</ele>
        <time>2024-07-03T08:36:56Z</time>
      </trkpt>
      <trkpt lat="48.17922" lon="4.83752">
        <ele>329</ele>
        <time>2024-07-03T08:37:05Z</time>
      </trkpt>
      <trkpt lat="48.17936" lon="4.83731">
        <ele>330</ele>
        <time>2024-07-03T08:37:09Z</time>
      </trkpt>
      <trkpt lat="48.17965" lon="4.837">
        <ele>331</ele>
        <time>2024-07-03T08:37:15Z</time>
      </trkpt>
      <trkpt lat="48.17985" lon="4.83652">
        <ele>333</ele>
        <time>2024-07-03T08:37:22Z</time>
      </trkpt>
      <trkpt lat="48.18015" lon="4.83605">
        <ele>333</ele>
        <time>2024-07-03T08:37:30Z</time>
      </trkpt>
      <trkpt lat="48.18025" lon="4.83582">
        <ele>333</ele>
        <time>2024-07-03T08:37:33Z</time>
      </trkpt>
      <trkpt lat="48.18034" lon="4.83547">
        <ele>332</ele>
        <time>2024-07-03T08:37:37Z</time>
      </trkpt>
      <trkpt lat="48.18044" lon="4.83478">
        <ele>332</ele>
        <time>2024-07-03T08:37:46Z</time>
      </trkpt>
      <trkpt lat="48.18062" lon="4.8341">
        <ele>330</ele>
        <time>2024-07-03T08:37:54Z</time>
      </trkpt>
      <trkpt lat="48.18067" lon="4.83355">
        <ele>328</ele>
        <time>2024-07-03T08:38:01Z</time>
      </trkpt>
      <trkpt lat="48.18068" lon="4.83255">
        <ele>326</ele>
        <time>2024-07-03T08:38:13Z</time>
      </trkpt>
      <trkpt lat="48.18085" lon="4.832">
        <ele>324</ele>
        <time>2024-07-03T08:38:20Z</time>
      </trkpt>
      <trkpt lat="48.1811" lon="4.83159">
        <ele>320</ele>
        <time>2024-07-03T08:38:27Z</time>
      </trkpt>
      <trkpt lat="48.1813" lon="4.83141">
        <ele>319</ele>
        <time>2024-07-03T08:38:31Z</time>
      </trkpt>
      <trkpt lat="48.18206" lon="4.83042">
        <ele>314</ele>
        <time>2024-07-03T08:38:49Z</time>
      </trkpt>
      <trkpt lat="48.18247" lon="4.83">
        <ele>313</ele>
        <time>2024-07-03T08:38:58Z</time>
      </trkpt>
      <trkpt lat="48.18286" lon="4.82979">
        <ele>312</ele>
        <time>2024-07-03T08:39:05Z</time>
      </trkpt>
      <trkpt lat="48.18343" lon="4.82961">
        <ele>310</ele>
        <time>2024-07-03T08:39:15Z</time>
      </trkpt>
      <trkpt lat="48.18414" lon="4.82915">
        <ele>309</ele>
        <time>2024-07-03T08:39:29Z</time>
      </trkpt>
      <trkpt lat="48.18433" lon="4.82896">
        <ele>309</ele>
        <time>2024-07-03T08:39:33Z</time>
      </trkpt>
      <trkpt lat="48.18555" lon="4.82749">
        <ele>302</ele>
        <time>2024-07-03T08:40:01Z</time>
      </trkpt>
      <trkpt lat="48.18582" lon="4.82687">
        <ele>299</ele>
        <time>2024-07-03T08:40:10Z</time>
      </trkpt>
      <trkpt lat="48.18604" lon="4.8265">
        <ele>299</ele>
        <time>2024-07-03T08:40:16Z</time>
      </trkpt>
      <trkpt lat="48.1868" lon="4.82575">
        <ele>299</ele>
        <time>2024-07-03T08:40:32Z</time>
      </trkpt>
      <trkpt lat="48.18803" lon="4.82417">
        <ele>297</ele>
        <time>2024-07-03T08:41:01Z</time>
      </trkpt>
      <trkpt lat="48.18825" lon="4.82371">
        <ele>295</ele>
        <time>2024-07-03T08:41:07Z</time>
      </trkpt>
      <trkpt lat="48.18845" lon="4.82275">
        <ele>292</ele>
        <time>2024-07-03T08:41:19Z</time>
      </trkpt>
      <trkpt lat="48.18875" lon="4.82181">
        <ele>291</ele>
        <time>2024-07-03T08:41:32Z</time>
      </trkpt>
      <trkpt lat="48.18926" lon="4.82098">
        <ele>292</ele>
        <time>2024-07-03T08:41:45Z</time>
      </trkpt>
      <trkpt lat="48.18958" lon="4.81992">
        <ele>297</ele>
        <time>2024-07-03T08:41:59Z</time>
      </trkpt>
      <trkpt lat="48.1902" lon="4.81883">
        <ele>293</ele>
        <time>2024-07-03T08:42:16Z</time>
      </trkpt>
      <trkpt lat="48.1906" lon="4.81804">
        <ele>293</ele>
        <time>2024-07-03T08:42:28Z</time>
      </trkpt>
      <trkpt lat="48.19066" lon="4.81775">
        <ele>292</ele>
        <time>2024-07-03T08:42:31Z</time>
      </trkpt>
      <trkpt lat="48.19071" lon="4.81697">
        <ele>292</ele>
        <time>2024-07-03T08:42:40Z</time>
      </trkpt>
      <trkpt lat="48.19082" lon="4.81651">
        <ele>291</ele>
        <time>2024-07-03T08:42:46Z</time>
      </trkpt>
      <trkpt lat="48.19097" lon="4.81618">
        <ele>291</ele>
        <time>2024-07-03T08:42:51Z</time>
      </trkpt>
      <trkpt lat="48.19153" lon="4.81526">
        <ele>289</ele>
        <time>2024-07-03T08:43:06Z</time>
      </trkpt>
      <trkpt lat="48.1916" lon="4.81508">
        <ele>288</ele>
        <time>2024-07-03T08:43:08Z</time>
      </trkpt>
      <trkpt lat="48.19232" lon="4.81232">
        <ele>281</ele>
        <time>2024-07-03T08:43:43Z</time>
      </trkpt>
      <trkpt lat="48.19277" lon="4.81083">
        <ele>280</ele>
        <time>2024-07-03T08:44:03Z</time>
      </trkpt>
      <trkpt lat="48.19283" lon="4.80989">
        <ele>278</ele>
        <time>2024-07-03T08:44:14Z</time>
      </trkpt>
      <trkpt lat="48.19275" lon="4.80816">
        <ele>280</ele>
        <time>2024-07-03T08:44:35Z</time>
      </trkpt>
      <trkpt lat="48.19277" lon="4.80745">
        <ele>282</ele>
        <time>2024-07-03T08:44:43Z</time>
      </trkpt>
      <trkpt lat="48.19298" lon="4.80682">
        <ele>283</ele>
        <time>2024-07-03T08:44:51Z</time>
      </trkpt>
      <trkpt lat="48.19354" lon="4.80562">
        <ele>281</ele>
        <time>2024-07-03T08:45:09Z</time>
      </trkpt>
      <trkpt lat="48.19397" lon="4.80404">
        <ele>276</ele>
        <time>2024-07-03T08:45:29Z</time>
      </trkpt>
      <trkpt lat="48.19397" lon="4.80371">
        <ele>276</ele>
        <time>2024-07-03T08:45:33Z</time>
      </trkpt>
      <trkpt lat="48.19386" lon="4.80296">
        <ele>275</ele>
        <time>2024-07-03T08:45:42Z</time>
      </trkpt>
      <trkpt lat="48.19386" lon="4.8025">
        <ele>273</ele>
        <time>2024-07-03T08:45:47Z</time>
      </trkpt>
      <trkpt lat="48.19401" lon="4.80123">
        <ele>268</ele>
        <time>2024-07-03T08:46:03Z</time>
      </trkpt>
      <trkpt lat="48.19418" lon="4.80061">
        <ele>265</ele>
        <time>2024-07-03T08:46:11Z</time>
      </trkpt>
      <trkpt lat="48.19449" lon="4.80021">
        <ele>261</ele>
        <time>2024-07-03T08:46:18Z</time>
      </trkpt>
      <trkpt lat="48.19463" lon="4.79989">
        <ele>259</ele>
        <time>2024-07-03T08:46:23Z</time>
      </trkpt>
      <trkpt lat="48.19485" lon="4.7989">
        <ele>252</ele>
        <time>2024-07-03T08:46:35Z</time>
      </trkpt>
      <trkpt lat="48.19488" lon="4.79849">
        <ele>248</ele>
        <time>2024-07-03T08:46:40Z</time>
      </trkpt>
      <trkpt lat="48.19465" lon="4.79751">
        <ele>241</ele>
        <time>2024-07-03T08:46:52Z</time>
      </trkpt>
      <trkpt lat="48.19462" lon="4.79663">
        <ele>236</ele>
        <time>2024-07-03T08:47:03Z</time>
      </trkpt>
      <trkpt lat="48.19443" lon="4.79578">
        <ele>231</ele>
        <time>2024-07-03T08:47:13Z</time>
      </trkpt>
      <trkpt lat="48.19432" lon="4.79455">
        <ele>220</ele>
        <time>2024-07-03T08:47:28Z</time>
      </trkpt>
      <trkpt lat="48.19434" lon="4.79401">
        <ele>217</ele>
        <time>2024-07-03T08:47:34Z</time>
      </trkpt>
      <trkpt lat="48.19446" lon="4.79343">
        <ele>215</ele>
        <time>2024-07-03T08:47:42Z</time>
      </trkpt>
      <trkpt lat="48.19499" lon="4.79216">
        <ele>211</ele>
        <time>2024-07-03T08:47:59Z</time>
      </trkpt>
      <trkpt lat="48.19504" lon="4.79188">
        <ele>210</ele>
        <time>2024-07-03T08:48:03Z</time>
      </trkpt>
      <trkpt lat="48.19509" lon="4.79082">
        <ele>203</ele>
        <time>2024-07-03T08:48:15Z</time>
      </trkpt>
      <trkpt lat="48.1954" lon="4.78975">
        <ele>194</ele>
        <time>2024-07-03T08:48:29Z</time>
      </trkpt>
      <trkpt lat="48.19551" lon="4.78848">
        <ele>188</ele>
        <time>2024-07-03T08:48:44Z</time>
      </trkpt>
      <trkpt lat="48.1957" lon="4.78772">
        <ele>186</ele>
        <time>2024-07-03T08:48:54Z</time>
      </trkpt>
      <trkpt lat="48.19589" lon="4.7871">
        <ele>184</ele>
        <time>2024-07-03T08:49:02Z</time>
      </trkpt>
      <trkpt lat="48.19605" lon="4.78676">
        <ele>183</ele>
        <time>2024-07-03T08:49:07Z</time>
      </trkpt>
      <trkpt lat="48.19606" lon="4.78665">
        <ele>182</ele>
        <time>2024-07-03T08:49:08Z</time>
      </trkpt>
      <trkpt lat="48.19589" lon="4.78663">
        <ele>182</ele>
        <time>2024-07-03T08:49:11Z</time>
      </trkpt>
      <trkpt lat="48.19559" lon="4.78668">
        <ele>181</ele>
        <time>2024-07-03T08:49:17Z</time>
      </trkpt>
      <trkpt lat="48.19521" lon="4.78683">
        <ele>181</ele>
        <time>2024-07-03T08:49:24Z</time>
      </trkpt>
      <trkpt lat="48.19449" lon="4.78751">
        <ele>183</ele>
        <time>2024-07-03T08:49:39Z</time>
      </trkpt>
      <trkpt lat="48.19444" lon="4.78746">
        <ele>183</ele>
        <time>2024-07-03T08:49:40Z</time>
      </trkpt>
      <trkpt lat="48.19428" lon="4.78704">
        <ele>181</ele>
        <time>2024-07-03T08:49:46Z</time>
      </trkpt>
      <trkpt lat="48.19413" lon="4.78693">
        <ele>181</ele>
        <time>2024-07-03T08:49:49Z</time>
      </trkpt>
      <trkpt lat="48.19229" lon="4.78686">
        <ele>181</ele>
        <time>2024-07-03T08:50:21Z</time>
      </trkpt>
      <trkpt lat="48.19192" lon="4.78672">
        <ele>180</ele>
        <time>2024-07-03T08:50:28Z</time>
      </trkpt>
      <trkpt lat="48.19138" lon="4.78633">
        <ele>180</ele>
        <time>2024-07-03T08:50:39Z</time>
      </trkpt>
      <trkpt lat="48.19111" lon="4.78591">
        <ele>180</ele>
        <time>2024-07-03T08:50:46Z</time>
      </trkpt>
      <trkpt lat="48.19053" lon="4.7855">
        <ele>179</ele>
        <time>2024-07-03T08:50:57Z</time>
      </trkpt>
      <trkpt lat="48.19014" lon="4.78511">
        <ele>179</ele>
        <time>2024-07-03T08:51:06Z</time>
      </trkpt>
      <trkpt lat="48.18972" lon="4.78429">
        <ele>179</ele>
        <time>2024-07-03T08:51:18Z</time>
      </trkpt>
      <trkpt lat="48.18937" lon="4.78333">
        <ele>179</ele>
        <time>2024-07-03T08:51:31Z</time>
      </trkpt>
      <trkpt lat="48.18901" lon="4.78269">
        <ele>186</ele>
        <time>2024-07-03T08:51:41Z</time>
      </trkpt>
      <trkpt lat="48.18888" lon="4.78275">
        <ele>189</ele>
        <time>2024-07-03T08:51:43Z</time>
      </trkpt>
      <trkpt lat="48.18866" lon="4.78306">
        <ele>193</ele>
        <time>2024-07-03T08:51:48Z</time>
      </trkpt>
      <trkpt lat="48.18841" lon="4.78353">
        <ele>195</ele>
        <time>2024-07-03T08:51:56Z</time>
      </trkpt>
      <trkpt lat="48.18758" lon="4.78482">
        <ele>198</ele>
        <time>2024-07-03T08:52:17Z</time>
      </trkpt>
      <trkpt lat="48.18708" lon="4.78594">
        <ele>197</ele>
        <time>2024-07-03T08:52:33Z</time>
      </trkpt>
      <trkpt lat="48.18666" lon="4.78724">
        <ele>204</ele>
        <time>2024-07-03T08:52:50Z</time>
      </trkpt>
      <trkpt lat="48.18641" lon="4.78746">
        <ele>203</ele>
        <time>2024-07-03T08:52:55Z</time>
      </trkpt>
      <trkpt lat="48.18625" lon="4.78748">
        <ele>203</ele>
        <time>2024-07-03T08:52:58Z</time>
      </trkpt>
      <trkpt lat="48.18618" lon="4.78744">
        <ele>203</ele>
        <time>2024-07-03T08:52:59Z</time>
      </trkpt>
      <trkpt lat="48.18606" lon="4.78734">
        <ele>203</ele>
        <time>2024-07-03T08:53:02Z</time>
      </trkpt>
      <trkpt lat="48.18575" lon="4.78691">
        <ele>205</ele>
        <time>2024-07-03T08:53:09Z</time>
      </trkpt>
      <trkpt lat="48.18558" lon="4.78682">
        <ele>205</ele>
        <time>2024-07-03T08:53:13Z</time>
      </trkpt>
      <trkpt lat="48.18544" lon="4.7868">
        <ele>206</ele>
        <time>2024-07-03T08:53:15Z</time>
      </trkpt>
      <trkpt lat="48.18494" lon="4.78705">
        <ele>206</ele>
        <time>2024-07-03T08:53:24Z</time>
      </trkpt>
      <trkpt lat="48.18484" lon="4.78698">
        <ele>206</ele>
        <time>2024-07-03T08:53:26Z</time>
      </trkpt>
      <trkpt lat="48.18476" lon="4.78699">
        <ele>206</ele>
        <time>2024-07-03T08:53:28Z</time>
      </trkpt>
      <trkpt lat="48.18461" lon="4.78718">
        <ele>206</ele>
        <time>2024-07-03T08:53:31Z</time>
      </trkpt>
      <trkpt lat="48.18426" lon="4.78785">
        <ele>201</ele>
        <time>2024-07-03T08:53:41Z</time>
      </trkpt>
      <trkpt lat="48.18424" lon="4.78759">
        <ele>203</ele>
        <time>2024-07-03T08:53:44Z</time>
      </trkpt>
      <trkpt lat="48.18427" lon="4.78741">
        <ele>204</ele>
        <time>2024-07-03T08:53:47Z</time>
      </trkpt>
      <trkpt lat="48.18382" lon="4.78729">
        <ele>201</ele>
        <time>2024-07-03T08:53:55Z</time>
      </trkpt>
      <trkpt lat="48.18352" lon="4.78705">
        <ele>199</ele>
        <time>2024-07-03T08:54:01Z</time>
      </trkpt>
      <trkpt lat="48.18267" lon="4.78595">
        <ele>194</ele>
        <time>2024-07-03T08:54:21Z</time>
      </trkpt>
      <trkpt lat="48.1823" lon="4.78541">
        <ele>192</ele>
        <time>2024-07-03T08:54:30Z</time>
      </trkpt>
      <trkpt lat="48.18232" lon="4.7847">
        <ele>195</ele>
        <time>2024-07-03T08:54:38Z</time>
      </trkpt>
      <trkpt lat="48.18228" lon="4.78382">
        <ele>199</ele>
        <time>2024-07-03T08:54:49Z</time>
      </trkpt>
      <trkpt lat="48.18199" lon="4.78219">
        <ele>204</ele>
        <time>2024-07-03T08:55:09Z</time>
      </trkpt>
      <trkpt lat="48.18195" lon="4.78078">
        <ele>205</ele>
        <time>2024-07-03T08:55:26Z</time>
      </trkpt>
      <trkpt lat="48.18184" lon="4.77986">
        <ele>205</ele>
        <time>2024-07-03T08:55:37Z</time>
      </trkpt>
      <trkpt lat="48.18167" lon="4.77941">
        <ele>206</ele>
        <time>2024-07-03T08:55:43Z</time>
      </trkpt>
      <trkpt lat="48.18096" lon="4.77832">
        <ele>209</ele>
        <time>2024-07-03T08:56:01Z</time>
      </trkpt>
      <trkpt lat="48.1803" lon="4.777">
        <ele>212</ele>
        <time>2024-07-03T08:56:21Z</time>
      </trkpt>
      <trkpt lat="48.18002" lon="4.7762">
        <ele>210</ele>
        <time>2024-07-03T08:56:31Z</time>
      </trkpt>
      <trkpt lat="48.17966" lon="4.77464">
        <ele>217</ele>
        <time>2024-07-03T08:56:51Z</time>
      </trkpt>
      <trkpt lat="48.17928" lon="4.77381">
        <ele>214</ele>
        <time>2024-07-03T08:57:03Z</time>
      </trkpt>
      <trkpt lat="48.17886" lon="4.77262">
        <ele>217</ele>
        <time>2024-07-03T08:57:19Z</time>
      </trkpt>
      <trkpt lat="48.17822" lon="4.77101">
        <ele>217</ele>
        <time>2024-07-03T08:57:41Z</time>
      </trkpt>
      <trkpt lat="48.17805" lon="4.77037">
        <ele>222</ele>
        <time>2024-07-03T08:57:49Z</time>
      </trkpt>
      <trkpt lat="48.17793" lon="4.76968">
        <ele>224</ele>
        <time>2024-07-03T08:57:58Z</time>
      </trkpt>
      <trkpt lat="48.17767" lon="4.76733">
        <ele>223</ele>
        <time>2024-07-03T08:58:26Z</time>
      </trkpt>
      <trkpt lat="48.17742" lon="4.76618">
        <ele>223</ele>
        <time>2024-07-03T08:58:40Z</time>
      </trkpt>
      <trkpt lat="48.17711" lon="4.76562">
        <ele>224</ele>
        <time>2024-07-03T08:58:49Z</time>
      </trkpt>
      <trkpt lat="48.1764" lon="4.76479">
        <ele>221</ele>
        <time>2024-07-03T08:59:05Z</time>
      </trkpt>
      <trkpt lat="48.17625" lon="4.76446">
        <ele>222</ele>
        <time>2024-07-03T08:59:10Z</time>
      </trkpt>
      <trkpt lat="48.17611" lon="4.76268">
        <ele>228</ele>
        <time>2024-07-03T08:59:31Z</time>
      </trkpt>
      <trkpt lat="48.17612" lon="4.76215">
        <ele>230</ele>
        <time>2024-07-03T08:59:37Z</time>
      </trkpt>
      <trkpt lat="48.17626" lon="4.76072">
        <ele>235</ele>
        <time>2024-07-03T08:59:54Z</time>
      </trkpt>
      <trkpt lat="48.17628" lon="4.76003">
        <ele>236</ele>
        <time>2024-07-03T09:00:03Z</time>
      </trkpt>
      <trkpt lat="48.17624" lon="4.75938">
        <ele>237</ele>
        <time>2024-07-03T09:00:10Z</time>
      </trkpt>
      <trkpt lat="48.17595" lon="4.75793">
        <ele>236</ele>
        <time>2024-07-03T09:00:28Z</time>
      </trkpt>
      <trkpt lat="48.17562" lon="4.75674">
        <ele>241</ele>
        <time>2024-07-03T09:00:44Z</time>
      </trkpt>
      <trkpt lat="48.17549" lon="4.75599">
        <ele>244</ele>
        <time>2024-07-03T09:00:53Z</time>
      </trkpt>
      <trkpt lat="48.17527" lon="4.75366">
        <ele>244</ele>
        <time>2024-07-03T09:01:21Z</time>
      </trkpt>
      <trkpt lat="48.17528" lon="4.75132">
        <ele>251</ele>
        <time>2024-07-03T09:01:48Z</time>
      </trkpt>
      <trkpt lat="48.17523" lon="4.75046">
        <ele>252</ele>
        <time>2024-07-03T09:01:59Z</time>
      </trkpt>
      <trkpt lat="48.17519" lon="4.75012">
        <ele>251</ele>
        <time>2024-07-03T09:02:03Z</time>
      </trkpt>
      <trkpt lat="48.17492" lon="4.74896">
        <ele>251</ele>
        <time>2024-07-03T09:02:17Z</time>
      </trkpt>
      <trkpt lat="48.17479" lon="4.74801">
        <ele>253</ele>
        <time>2024-07-03T09:02:29Z</time>
      </trkpt>
      <trkpt lat="48.17479" lon="4.74756">
        <ele>253</ele>
        <time>2024-07-03T09:02:34Z</time>
      </trkpt>
      <trkpt lat="48.17491" lon="4.74613">
        <ele>257</ele>
        <time>2024-07-03T09:02:51Z</time>
      </trkpt>
      <trkpt lat="48.17491" lon="4.74541">
        <ele>260</ele>
        <time>2024-07-03T09:03:00Z</time>
      </trkpt>
      <trkpt lat="48.17486" lon="4.74495">
        <ele>263</ele>
        <time>2024-07-03T09:03:05Z</time>
      </trkpt>
      <trkpt lat="48.17472" lon="4.74428">
        <ele>265</ele>
        <time>2024-07-03T09:03:14Z</time>
      </trkpt>
      <trkpt lat="48.17439" lon="4.74328">
        <ele>267</ele>
        <time>2024-07-03T09:03:27Z</time>
      </trkpt>
      <trkpt lat="48.17432" lon="4.74327">
        <ele>267</ele>
        <time>2024-07-03T09:03:28Z</time>
      </trkpt>
      <trkpt lat="48.17419" lon="4.74339">
        <ele>267</ele>
        <time>2024-07-03T09:03:31Z</time>
      </trkpt>
      <trkpt lat="48.16962" lon="4.74862">
        <ele>272</ele>
        <time>2024-07-03T09:05:13Z</time>
      </trkpt>
      <trkpt lat="48.16661" lon="4.75192">
        <ele>288</ele>
        <time>2024-07-03T09:06:20Z</time>
      </trkpt>
      <trkpt lat="48.1661" lon="4.75255">
        <ele>289</ele>
        <time>2024-07-03T09:06:31Z</time>
      </trkpt>
      <trkpt lat="48.16585" lon="4.75279">
        <ele>289</ele>
        <time>2024-07-03T09:06:37Z</time>
      </trkpt>
      <trkpt lat="48.16281" lon="4.75623">
        <ele>293</ele>
        <time>2024-07-03T09:07:44Z</time>
      </trkpt>
      <trkpt lat="48.16138" lon="4.75777">
        <ele>287</ele>
        <time>2024-07-03T09:08:16Z</time>
      </trkpt>
      <trkpt lat="48.16065" lon="4.75746">
        <ele>286</ele>
        <time>2024-07-03T09:08:29Z</time>
      </trkpt>
      <trkpt lat="48.15853" lon="4.75637">
        <ele>291</ele>
        <time>2024-07-03T09:09:09Z</time>
      </trkpt>
      <trkpt lat="48.15824" lon="4.75647">
        <ele>291</ele>
        <time>2024-07-03T09:09:14Z</time>
      </trkpt>
      <trkpt lat="48.15744" lon="4.75703">
        <ele>291</ele>
        <time>2024-07-03T09:09:30Z</time>
      </trkpt>
      <trkpt lat="48.15732" lon="4.75715">
        <ele>291</ele>
        <time>2024-07-03T09:09:33Z</time>
      </trkpt>
      <trkpt lat="48.15717" lon="4.75736">
        <ele>291</ele>
        <time>2024-07-03T09:09:36Z</time>
      </trkpt>
      <trkpt lat="48.15709" lon="4.75755">
        <ele>291</ele>
        <time>2024-07-03T09:09:39Z</time>
      </trkpt>
      <trkpt lat="48.15667" lon="4.75926">
        <ele>288</ele>
        <time>2024-07-03T09:10:01Z</time>
      </trkpt>
      <trkpt lat="48.15651" lon="4.75965">
        <ele>288</ele>
        <time>2024-07-03T09:10:06Z</time>
      </trkpt>
      <trkpt lat="48.15636" lon="4.75983">
        <ele>288</ele>
        <time>2024-07-03T09:10:09Z</time>
      </trkpt>
      <trkpt lat="48.15569" lon="4.76042">
        <ele>286</ele>
        <time>2024-07-03T09:10:23Z</time>
      </trkpt>
      <trkpt lat="48.15557" lon="4.76061">
        <ele>285</ele>
        <time>2024-07-03T09:10:26Z</time>
      </trkpt>
      <trkpt lat="48.15543" lon="4.76097">
        <ele>284</ele>
        <time>2024-07-03T09:10:31Z</time>
      </trkpt>
      <trkpt lat="48.15538" lon="4.76137">
        <ele>283</ele>
        <time>2024-07-03T09:10:36Z</time>
      </trkpt>
      <trkpt lat="48.1554" lon="4.7619">
        <ele>281</ele>
        <time>2024-07-03T09:10:42Z</time>
      </trkpt>
      <trkpt lat="48.15536" lon="4.76261">
        <ele>279</ele>
        <time>2024-07-03T09:10:51Z</time>
      </trkpt>
      <trkpt lat="48.15555" lon="4.76381">
        <ele>272</ele>
        <time>2024-07-03T09:11:06Z</time>
      </trkpt>
      <trkpt lat="48.15556" lon="4.76415">
        <ele>270</ele>
        <time>2024-07-03T09:11:10Z</time>
      </trkpt>
      <trkpt lat="48.15562" lon="4.76424">
        <ele>270</ele>
        <time>2024-07-03T09:11:11Z</time>
      </trkpt>
      <trkpt lat="48.15555" lon="4.76439">
        <ele>270</ele>
        <time>2024-07-03T09:11:13Z</time>
      </trkpt>
      <trkpt lat="48.15535" lon="4.7646">
        <ele>269</ele>
        <time>2024-07-03T09:11:18Z</time>
      </trkpt>
      <trkpt lat="48.15515" lon="4.7647">
        <ele>268</ele>
        <time>2024-07-03T09:11:21Z</time>
      </trkpt>
      <trkpt lat="48.15358" lon="4.76519">
        <ele>260</ele>
        <time>2024-07-03T09:11:50Z</time>
      </trkpt>
      <trkpt lat="48.15322" lon="4.76528">
        <ele>260</ele>
        <time>2024-07-03T09:11:56Z</time>
      </trkpt>
      <trkpt lat="48.15273" lon="4.76534">
        <ele>260</ele>
        <time>2024-07-03T09:12:05Z</time>
      </trkpt>
      <trkpt lat="48.15243" lon="4.7655">
        <ele>260</ele>
        <time>2024-07-03T09:12:11Z</time>
      </trkpt>
      <trkpt lat="48.15213" lon="4.76582">
        <ele>261</ele>
        <time>2024-07-03T09:12:17Z</time>
      </trkpt>
      <trkpt lat="48.15182" lon="4.76662">
        <ele>254</ele>
        <time>2024-07-03T09:12:28Z</time>
      </trkpt>
      <trkpt lat="48.15125" lon="4.76745">
        <ele>251</ele>
        <time>2024-07-03T09:12:42Z</time>
      </trkpt>
      <trkpt lat="48.15083" lon="4.76786">
        <ele>250</ele>
        <time>2024-07-03T09:12:51Z</time>
      </trkpt>
      <trkpt lat="48.15033" lon="4.76824">
        <ele>252</ele>
        <time>2024-07-03T09:13:01Z</time>
      </trkpt>
      <trkpt lat="48.14991" lon="4.76876">
        <ele>247</ele>
        <time>2024-07-03T09:13:11Z</time>
      </trkpt>
      <trkpt lat="48.14968" lon="4.76893">
        <ele>244</ele>
        <time>2024-07-03T09:13:16Z</time>
      </trkpt>
      <trkpt lat="48.14936" lon="4.769">
        <ele>242</ele>
        <time>2024-07-03T09:13:21Z</time>
      </trkpt>
      <trkpt lat="48.14845" lon="4.76879">
        <ele>238</ele>
        <time>2024-07-03T09:13:38Z</time>
      </trkpt>
      <trkpt lat="48.14805" lon="4.76882">
        <ele>235</ele>
        <time>2024-07-03T09:13:45Z</time>
      </trkpt>
      <trkpt lat="48.14718" lon="4.76919">
        <ele>226</ele>
        <time>2024-07-03T09:14:01Z</time>
      </trkpt>
      <trkpt lat="48.14657" lon="4.76929">
        <ele>218</ele>
        <time>2024-07-03T09:14:12Z</time>
      </trkpt>
      <trkpt lat="48.14559" lon="4.77363">
        <ele>216</ele>
        <time>2024-07-03T09:15:06Z</time>
      </trkpt>
      <trkpt lat="48.14613" lon="4.77846">
        <ele>209</ele>
        <time>2024-07-03T09:16:04Z</time>
      </trkpt>
      <trkpt lat="48.14588" lon="4.77898">
        <ele>201</ele>
        <time>2024-07-03T09:16:12Z</time>
      </trkpt>
      <trkpt lat="48.14515" lon="4.77927">
        <ele>195</ele>
        <time>2024-07-03T09:16:25Z</time>
      </trkpt>
      <trkpt lat="48.1443" lon="4.77935">
        <ele>197</ele>
        <time>2024-07-03T09:16:41Z</time>
      </trkpt>
      <trkpt lat="48.14394" lon="4.78105">
        <ele>203</ele>
        <time>2024-07-03T09:17:02Z</time>
      </trkpt>
      <trkpt lat="48.14422" lon="4.7825">
        <ele>204</ele>
        <time>2024-07-03T09:17:20Z</time>
      </trkpt>
      <trkpt lat="48.14546" lon="4.78631">
        <ele>196</ele>
        <time>2024-07-03T09:18:10Z</time>
      </trkpt>
      <trkpt lat="48.14512" lon="4.78848">
        <ele>209</ele>
        <time>2024-07-03T09:18:37Z</time>
      </trkpt>
      <trkpt lat="48.14538" lon="4.78854">
        <ele>202</ele>
        <time>2024-07-03T09:18:41Z</time>
      </trkpt>
      <trkpt lat="48.14525" lon="4.78967">
        <ele>197</ele>
        <time>2024-07-03T09:18:55Z</time>
      </trkpt>
      <trkpt lat="48.14483" lon="4.78972">
        <ele>200</ele>
        <time>2024-07-03T09:19:02Z</time>
      </trkpt>
      <trkpt lat="48.14272" lon="4.78982">
        <ele>200</ele>
        <time>2024-07-03T09:19:40Z</time>
      </trkpt>
      <trkpt lat="48.14029" lon="4.78898">
        <ele>208</ele>
        <time>2024-07-03T09:20:24Z</time>
      </trkpt>
      <trkpt lat="48.13463" lon="4.78967">
        <ele>199</ele>
        <time>2024-07-03T09:22:05Z</time>
      </trkpt>
      <trkpt lat="48.13092" lon="4.78917">
        <ele>200</ele>
        <time>2024-07-03T09:23:12Z</time>
      </trkpt>
      <trkpt lat="48.12879" lon="4.78941">
        <ele>196</ele>
        <time>2024-07-03T09:23:50Z</time>
      </trkpt>
      <trkpt lat="48.12604" lon="4.78742">
        <ele>200</ele>
        <time>2024-07-03T09:24:44Z</time>
      </trkpt>
      <trkpt lat="48.12316" lon="4.7863">
        <ele>205</ele>
        <time>2024-07-03T09:25:37Z</time>
      </trkpt>
      <trkpt lat="48.12177" lon="4.78654">
        <ele>202</ele>
        <time>2024-07-03T09:26:02Z</time>
      </trkpt>
      <trkpt lat="48.12168" lon="4.78976">
        <ele>197</ele>
        <time>2024-07-03T09:26:40Z</time>
      </trkpt>
      <trkpt lat="48.12013" lon="4.79099">
        <ele>198</ele>
        <time>2024-07-03T09:27:11Z</time>
      </trkpt>
      <trkpt lat="48.12027" lon="4.79355">
        <ele>192</ele>
        <time>2024-07-03T09:27:42Z</time>
      </trkpt>
      <trkpt lat="48.11923" lon="4.79456">
        <ele>192</ele>
        <time>2024-07-03T09:28:04Z</time>
      </trkpt>
      <trkpt lat="48.11727" lon="4.79488">
        <ele>192</ele>
        <time>2024-07-03T09:28:39Z</time>
      </trkpt>
      <trkpt lat="48.117" lon="4.79704">
        <ele>192</ele>
        <time>2024-07-03T09:29:05Z</time>
      </trkpt>
      <trkpt lat="48.11592" lon="4.79767">
        <ele>194</ele>
        <time>2024-07-03T09:29:26Z</time>
      </trkpt>
      <trkpt lat="48.11584" lon="4.80002">
        <ele>206</ele>
        <time>2024-07-03T09:29:54Z</time>
      </trkpt>
      <trkpt lat="48.12542" lon="4.79958">
        <ele>217</ele>
        <time>2024-07-03T09:32:44Z</time>
      </trkpt>
      <trkpt lat="48.13968" lon="4.804">
        <ele>204</ele>
        <time>2024-07-03T09:37:03Z</time>
      </trkpt>
      <trkpt lat="48.14305" lon="4.80412">
        <ele>207</ele>
        <time>2024-07-03T09:38:03Z</time>
      </trkpt>
      <trkpt lat="48.147" lon="4.82827">
        <ele>207</ele>
        <time>2024-07-03T09:42:58Z</time>
      </trkpt>
      <trkpt lat="48.15146" lon="4.83254">
        <ele>193</ele>
        <time>2024-07-03T09:44:33Z</time>
      </trkpt>
      <trkpt lat="48.15071" lon="4.83271">
        <ele>195</ele>
        <time>2024-07-03T09:44:46Z</time>
      </trkpt>
    </trkseg>
  </trk>
  <trk>
    <name><![CDATA[49. Circuit de la Barsurauboise-17237781]]></name>
    <extensions>
      <line xmlns="http://www.topografix.com/GPX/gpx_style/0/2">
        <color>00FFFF</color>
        <width>4</width>
      </line>
    </extensions>
    <trkseg>
      <trkpt lat="48.2333" lon="4.70644">
        <ele>170</ele>
        <time>2024-07-03T08:06:24Z</time>
      </trkpt>
      <trkpt lat="48.23317" lon="4.70664">
        <ele>170</ele>
        <time>2024-07-03T08:06:27Z</time>
      </trkpt>
      <trkpt lat="48.23303" lon="4.70692">
        <ele>170</ele>
        <time>2024-07-03T08:06:31Z</time>
      </trkpt>
      <trkpt lat="48.2335" lon="4.70738">
        <ele>169</ele>
        <time>2024-07-03T08:06:41Z</time>
      </trkpt>
      <trkpt lat="48.23362" lon="4.70707">
        <ele>169</ele>
        <time>2024-07-03T08:06:46Z</time>
      </trkpt>
      <trkpt lat="48.23395" lon="4.70741">
        <ele>168</ele>
        <time>2024-07-03T08:06:53Z</time>
      </trkpt>
      <trkpt lat="48.23411" lon="4.70749">
        <ele>167</ele>
        <time>2024-07-03T08:06:56Z</time>
      </trkpt>
      <trkpt lat="48.23457" lon="4.70749">
        <ele>166</ele>
        <time>2024-07-03T08:07:04Z</time>
      </trkpt>
      <trkpt lat="48.23461" lon="4.70683">
        <ele>166</ele>
        <time>2024-07-03T08:07:12Z</time>
      </trkpt>
      <trkpt lat="48.23465" lon="4.70655">
        <ele>165</ele>
        <time>2024-07-03T08:07:15Z</time>
      </trkpt>
      <trkpt lat="48.23476" lon="4.70617">
        <ele>165</ele>
        <time>2024-07-03T08:07:20Z</time>
      </trkpt>
      <trkpt lat="48.23491" lon="4.70582">
        <ele>164</ele>
        <time>2024-07-03T08:07:25Z</time>
      </trkpt>
      <trkpt lat="48.23516" lon="4.70512">
        <ele>164</ele>
        <time>2024-07-03T08:07:35Z</time>
      </trkpt>
      <trkpt lat="48.23594" lon="4.70604">
        <ele>163</ele>
        <time>2024-07-03T08:07:52Z</time>
      </trkpt>
      <trkpt lat="48.23611" lon="4.7062">
        <ele>164</ele>
        <time>2024-07-03T08:07:56Z</time>
      </trkpt>
      <trkpt lat="48.23715" lon="4.70699">
        <ele>164</ele>
        <time>2024-07-03T08:08:16Z</time>
      </trkpt>
      <trkpt lat="48.23741" lon="4.70722">
        <ele>164</ele>
        <time>2024-07-03T08:08:22Z</time>
      </trkpt>
      <trkpt lat="48.23747" lon="4.70724">
        <ele>164</ele>
        <time>2024-07-03T08:08:23Z</time>
      </trkpt>
      <trkpt lat="48.23766" lon="4.70746">
        <ele>164</ele>
        <time>2024-07-03T08:08:27Z</time>
      </trkpt>
      <trkpt lat="48.23779" lon="4.70769">
        <ele>163</ele>
        <time>2024-07-03T08:08:31Z</time>
      </trkpt>
      <trkpt lat="48.23777" lon="4.70774">
        <ele>163</ele>
        <time>2024-07-03T08:08:31Z</time>
      </trkpt>
      <trkpt lat="48.23779" lon="4.70769">
        <ele>163</ele>
        <time>2024-07-03T08:08:32Z</time>
      </trkpt>
      <trkpt lat="48.23803" lon="4.70839">
        <ele>162</ele>
        <time>2024-07-03T08:08:41Z</time>
      </trkpt>
      <trkpt lat="48.23825" lon="4.70925">
        <ele>161</ele>
        <time>2024-07-03T08:08:52Z</time>
      </trkpt>
      <trkpt lat="48.23834" lon="4.70944">
        <ele>161</ele>
        <time>2024-07-03T08:08:55Z</time>
      </trkpt>
      <trkpt lat="48.23929" lon="4.71073">
        <ele>161</ele>
        <time>2024-07-03T08:09:18Z</time>
      </trkpt>
      <trkpt lat="48.23937" lon="4.7108">
        <ele>161</ele>
        <time>2024-07-03T08:09:20Z</time>
      </trkpt>
      <trkpt lat="48.23964" lon="4.71157">
        <ele>165</ele>
        <time>2024-07-03T08:09:30Z</time>
      </trkpt>
      <trkpt lat="48.24265" lon="4.71446">
        <ele>186</ele>
        <time>2024-07-03T08:10:33Z</time>
      </trkpt>
      <trkpt lat="48.24328" lon="4.71484">
        <ele>190</ele>
        <time>2024-07-03T08:10:46Z</time>
      </trkpt>
      <trkpt lat="48.24359" lon="4.71509">
        <ele>192</ele>
        <time>2024-07-03T08:10:52Z</time>
      </trkpt>
      <trkpt lat="48.24616" lon="4.71814">
        <ele>211</ele>
        <time>2024-07-03T08:11:50Z</time>
      </trkpt>
      <trkpt lat="48.24644" lon="4.71841">
        <ele>213</ele>
        <time>2024-07-03T08:11:56Z</time>
      </trkpt>
      <trkpt lat="48.24729" lon="4.71938">
        <ele>216</ele>
        <time>2024-07-03T08:12:15Z</time>
      </trkpt>
      <trkpt lat="48.24774" lon="4.71985">
        <ele>220</ele>
        <time>2024-07-03T08:12:25Z</time>
      </trkpt>
      <trkpt lat="48.24822" lon="4.72016">
        <ele>224</ele>
        <time>2024-07-03T08:12:34Z</time>
      </trkpt>
      <trkpt lat="48.24888" lon="4.72026">
        <ele>232</ele>
        <time>2024-07-03T08:12:46Z</time>
      </trkpt>
      <trkpt lat="48.24932" lon="4.72068">
        <ele>240</ele>
        <time>2024-07-03T08:12:55Z</time>
      </trkpt>
      <trkpt lat="48.24936" lon="4.72083">
        <ele>241</ele>
        <time>2024-07-03T08:12:57Z</time>
      </trkpt>
      <trkpt lat="48.24935" lon="4.72116">
        <ele>243</ele>
        <time>2024-07-03T08:13:01Z</time>
      </trkpt>
      <trkpt lat="48.24945" lon="4.72121">
        <ele>245</ele>
        <time>2024-07-03T08:13:03Z</time>
      </trkpt>
      <trkpt lat="48.24967" lon="4.72164">
        <ele>251</ele>
        <time>2024-07-03T08:13:09Z</time>
      </trkpt>
      <trkpt lat="48.24977" lon="4.7219">
        <ele>255</ele>
        <time>2024-07-03T08:13:13Z</time>
      </trkpt>
      <trkpt lat="48.24982" lon="4.72206">
        <ele>256</ele>
        <time>2024-07-03T08:13:15Z</time>
      </trkpt>
      <trkpt lat="48.24989" lon="4.72284">
        <ele>261</ele>
        <time>2024-07-03T08:13:24Z</time>
      </trkpt>
      <trkpt lat="48.24993" lon="4.72302">
        <ele>262</ele>
        <time>2024-07-03T08:13:27Z</time>
      </trkpt>
      <trkpt lat="48.2503" lon="4.72383">
        <ele>269</ele>
        <time>2024-07-03T08:13:38Z</time>
      </trkpt>
      <trkpt lat="48.2506" lon="4.72412">
        <ele>272</ele>
        <time>2024-07-03T08:13:44Z</time>
      </trkpt>
      <trkpt lat="48.25108" lon="4.72444">
        <ele>276</ele>
        <time>2024-07-03T08:13:54Z</time>
      </trkpt>
      <trkpt lat="48.2512" lon="4.72446">
        <ele>277</ele>
        <time>2024-07-03T08:13:56Z</time>
      </trkpt>
      <trkpt lat="48.25143" lon="4.72886">
        <ele>275</ele>
        <time>2024-07-03T08:14:48Z</time>
      </trkpt>
      <trkpt lat="48.25152" lon="4.72959">
        <ele>273</ele>
        <time>2024-07-03T08:14:57Z</time>
      </trkpt>
      <trkpt lat="48.25173" lon="4.73015">
        <ele>274</ele>
        <time>2024-07-03T08:15:05Z</time>
      </trkpt>
      <trkpt lat="48.25212" lon="4.7307">
        <ele>273</ele>
        <time>2024-07-03T08:15:14Z</time>
      </trkpt>
      <trkpt lat="48.25231" lon="4.73085">
        <ele>273</ele>
        <time>2024-07-03T08:15:18Z</time>
      </trkpt>
      <trkpt lat="48.25258" lon="4.73118">
        <ele>274</ele>
        <time>2024-07-03T08:15:24Z</time>
      </trkpt>
      <trkpt lat="48.25287" lon="4.73159">
        <ele>274</ele>
        <time>2024-07-03T08:15:31Z</time>
      </trkpt>
      <trkpt lat="48.25321" lon="4.73192">
        <ele>272</ele>
        <time>2024-07-03T08:15:39Z</time>
      </trkpt>
      <trkpt lat="48.25381" lon="4.73225">
        <ele>270</ele>
        <time>2024-07-03T08:15:50Z</time>
      </trkpt>
      <trkpt lat="48.25456" lon="4.73331">
        <ele>258</ele>
        <time>2024-07-03T08:16:08Z</time>
      </trkpt>
      <trkpt lat="48.25499" lon="4.73284">
        <ele>260</ele>
        <time>2024-07-03T08:16:18Z</time>
      </trkpt>
      <trkpt lat="48.25522" lon="4.73278">
        <ele>260</ele>
        <time>2024-07-03T08:16:22Z</time>
      </trkpt>
      <trkpt lat="48.25537" lon="4.73281">
        <ele>259</ele>
        <time>2024-07-03T08:16:25Z</time>
      </trkpt>
      <trkpt lat="48.2556" lon="4.73306">
        <ele>256</ele>
        <time>2024-07-03T08:16:30Z</time>
      </trkpt>
      <trkpt lat="48.25646" lon="4.73449">
        <ele>232</ele>
        <time>2024-07-03T08:16:52Z</time>
      </trkpt>
      <trkpt lat="48.25649" lon="4.73486">
        <ele>229</ele>
        <time>2024-07-03T08:16:57Z</time>
      </trkpt>
      <trkpt lat="48.25667" lon="4.73541">
        <ele>225</ele>
        <time>2024-07-03T08:17:04Z</time>
      </trkpt>
      <trkpt lat="48.25701" lon="4.73594">
        <ele>224</ele>
        <time>2024-07-03T08:17:13Z</time>
      </trkpt>
      <trkpt lat="48.25716" lon="4.73607">
        <ele>223</ele>
        <time>2024-07-03T08:17:16Z</time>
      </trkpt>
      <trkpt lat="48.25722" lon="4.73594">
        <ele>224</ele>
        <time>2024-07-03T08:17:18Z</time>
      </trkpt>
      <trkpt lat="48.25733" lon="4.73582">
        <ele>225</ele>
        <time>2024-07-03T08:17:20Z</time>
      </trkpt>
      <trkpt lat="48.25797" lon="4.73645">
        <ele>226</ele>
        <time>2024-07-03T08:17:34Z</time>
      </trkpt>
      <trkpt lat="48.25921" lon="4.73748">
        <ele>231</ele>
        <time>2024-07-03T08:17:59Z</time>
      </trkpt>
      <trkpt lat="48.25952" lon="4.73768">
        <ele>231</ele>
        <time>2024-07-03T08:18:05Z</time>
      </trkpt>
      <trkpt lat="48.25963" lon="4.73898">
        <ele>224</ele>
        <time>2024-07-03T08:18:21Z</time>
      </trkpt>
      <trkpt lat="48.26001" lon="4.73923">
        <ele>225</ele>
        <time>2024-07-03T08:18:28Z</time>
      </trkpt>
      <trkpt lat="48.26001" lon="4.7394">
        <ele>223</ele>
        <time>2024-07-03T08:18:30Z</time>
      </trkpt>
      <trkpt lat="48.26074" lon="4.74227">
        <ele>210</ele>
        <time>2024-07-03T08:19:06Z</time>
      </trkpt>
      <trkpt lat="48.26092" lon="4.7428">
        <ele>208</ele>
        <time>2024-07-03T08:19:13Z</time>
      </trkpt>
      <trkpt lat="48.26095" lon="4.74329">
        <ele>208</ele>
        <time>2024-07-03T08:19:19Z</time>
      </trkpt>
      <trkpt lat="48.26101" lon="4.74345">
        <ele>207</ele>
        <time>2024-07-03T08:19:21Z</time>
      </trkpt>
      <trkpt lat="48.26143" lon="4.74391">
        <ele>206</ele>
        <time>2024-07-03T08:19:31Z</time>
      </trkpt>
      <trkpt lat="48.26149" lon="4.74417">
        <ele>206</ele>
        <time>2024-07-03T08:19:34Z</time>
      </trkpt>
      <trkpt lat="48.26172" lon="4.74409">
        <ele>206</ele>
        <time>2024-07-03T08:19:38Z</time>
      </trkpt>
      <trkpt lat="48.26209" lon="4.74405">
        <ele>207</ele>
        <time>2024-07-03T08:19:45Z</time>
      </trkpt>
      <trkpt lat="48.2626" lon="4.74408">
        <ele>209</ele>
        <time>2024-07-03T08:19:54Z</time>
      </trkpt>
      <trkpt lat="48.26257" lon="4.74419">
        <ele>208</ele>
        <time>2024-07-03T08:19:55Z</time>
      </trkpt>
      <trkpt lat="48.26217" lon="4.74498">
        <ele>206</ele>
        <time>2024-07-03T08:20:07Z</time>
      </trkpt>
      <trkpt lat="48.26206" lon="4.74531">
        <ele>206</ele>
        <time>2024-07-03T08:20:11Z</time>
      </trkpt>
      <trkpt lat="48.26205" lon="4.7455">
        <ele>206</ele>
        <time>2024-07-03T08:20:14Z</time>
      </trkpt>
      <trkpt lat="48.26208" lon="4.7457">
        <ele>206</ele>
        <time>2024-07-03T08:20:16Z</time>
      </trkpt>
      <trkpt lat="48.26213" lon="4.74658">
        <ele>204</ele>
        <time>2024-07-03T08:20:26Z</time>
      </trkpt>
      <trkpt lat="48.26212" lon="4.74886">
        <ele>201</ele>
        <time>2024-07-03T08:20:53Z</time>
      </trkpt>
      <trkpt lat="48.26207" lon="4.74922">
        <ele>201</ele>
        <time>2024-07-03T08:20:58Z</time>
      </trkpt>
      <trkpt lat="48.26169" lon="4.74993">
        <ele>202</ele>
        <time>2024-07-03T08:21:09Z</time>
      </trkpt>
      <trkpt lat="48.26064" lon="4.75149">
        <ele>218</ele>
        <time>2024-07-03T08:21:35Z</time>
      </trkpt>
      <trkpt lat="48.26033" lon="4.75219">
        <ele>223</ele>
        <time>2024-07-03T08:21:45Z</time>
      </trkpt>
      <trkpt lat="48.25994" lon="4.75342">
        <ele>230</ele>
        <time>2024-07-03T08:22:01Z</time>
      </trkpt>
      <trkpt lat="48.25987" lon="4.75386">
        <ele>232</ele>
        <time>2024-07-03T08:22:06Z</time>
      </trkpt>
      <trkpt lat="48.25963" lon="4.75489">
        <ele>237</ele>
        <time>2024-07-03T08:22:19Z</time>
      </trkpt>
      <trkpt lat="48.2596" lon="4.75547">
        <ele>238</ele>
        <time>2024-07-03T08:22:26Z</time>
      </trkpt>
      <trkpt lat="48.2597" lon="4.75771">
        <ele>238</ele>
        <time>2024-07-03T08:22:53Z</time>
      </trkpt>
      <trkpt lat="48.25981" lon="4.75843">
        <ele>236</ele>
        <time>2024-07-03T08:23:01Z</time>
      </trkpt>
      <trkpt lat="48.25997" lon="4.75906">
        <ele>232</ele>
        <time>2024-07-03T08:23:09Z</time>
      </trkpt>
      <trkpt lat="48.26024" lon="4.75944">
        <ele>232</ele>
        <time>2024-07-03T08:23:16Z</time>
      </trkpt>
      <trkpt lat="48.26041" lon="4.75976">
        <ele>231</ele>
        <time>2024-07-03T08:23:21Z</time>
      </trkpt>
      <trkpt lat="48.26062" lon="4.76048">
        <ele>226</ele>
        <time>2024-07-03T08:23:30Z</time>
      </trkpt>
      <trkpt lat="48.26208" lon="4.76159">
        <ele>235</ele>
        <time>2024-07-03T08:23:59Z</time>
      </trkpt>
      <trkpt lat="48.26235" lon="4.76196">
        <ele>238</ele>
        <time>2024-07-03T08:24:06Z</time>
      </trkpt>
      <trkpt lat="48.26253" lon="4.76271">
        <ele>241</ele>
        <time>2024-07-03T08:24:15Z</time>
      </trkpt>
      <trkpt lat="48.26219" lon="4.76602">
        <ele>268</ele>
        <time>2024-07-03T08:24:55Z</time>
      </trkpt>
      <trkpt lat="48.26215" lon="4.76622">
        <ele>271</ele>
        <time>2024-07-03T08:24:57Z</time>
      </trkpt>
      <trkpt lat="48.26204" lon="4.76622">
        <ele>271</ele>
        <time>2024-07-03T08:24:59Z</time>
      </trkpt>
      <trkpt lat="48.26112" lon="4.76584">
        <ele>268</ele>
        <time>2024-07-03T08:25:16Z</time>
      </trkpt>
      <trkpt lat="48.26095" lon="4.76587">
        <ele>270</ele>
        <time>2024-07-03T08:25:19Z</time>
      </trkpt>
      <trkpt lat="48.26079" lon="4.76606">
        <ele>273</ele>
        <time>2024-07-03T08:25:23Z</time>
      </trkpt>
      <trkpt lat="48.26037" lon="4.76682">
        <ele>274</ele>
        <time>2024-07-03T08:25:35Z</time>
      </trkpt>
      <trkpt lat="48.26029" lon="4.76716">
        <ele>274</ele>
        <time>2024-07-03T08:25:39Z</time>
      </trkpt>
      <trkpt lat="48.26022" lon="4.7677">
        <ele>275</ele>
        <time>2024-07-03T08:25:46Z</time>
      </trkpt>
      <trkpt lat="48.26018" lon="4.76863">
        <ele>275</ele>
        <time>2024-07-03T08:25:57Z</time>
      </trkpt>
      <trkpt lat="48.25995" lon="4.7697">
        <ele>270</ele>
        <time>2024-07-03T08:26:10Z</time>
      </trkpt>
      <trkpt lat="48.2602" lon="4.77065">
        <ele>276</ele>
        <time>2024-07-03T08:26:22Z</time>
      </trkpt>
      <trkpt lat="48.26031" lon="4.772">
        <ele>278</ele>
        <time>2024-07-03T08:26:38Z</time>
      </trkpt>
      <trkpt lat="48.26059" lon="4.77316">
        <ele>282</ele>
        <time>2024-07-03T08:26:53Z</time>
      </trkpt>
      <trkpt lat="48.26067" lon="4.77341">
        <ele>283</ele>
        <time>2024-07-03T08:26:56Z</time>
      </trkpt>
      <trkpt lat="48.26081" lon="4.77351">
        <ele>286</ele>
        <time>2024-07-03T08:26:59Z</time>
      </trkpt>
      <trkpt lat="48.26106" lon="4.77375">
        <ele>288</ele>
        <time>2024-07-03T08:27:04Z</time>
      </trkpt>
      <trkpt lat="48.26111" lon="4.77455">
        <ele>282</ele>
        <time>2024-07-03T08:27:14Z</time>
      </trkpt>
      <trkpt lat="48.2613" lon="4.77604">
        <ele>273</ele>
        <time>2024-07-03T08:27:32Z</time>
      </trkpt>
      <trkpt lat="48.26158" lon="4.77767">
        <ele>263</ele>
        <time>2024-07-03T08:27:51Z</time>
      </trkpt>
      <trkpt lat="48.2617" lon="4.77861">
        <ele>256</ele>
        <time>2024-07-03T08:28:03Z</time>
      </trkpt>
      <trkpt lat="48.26174" lon="4.78037">
        <ele>244</ele>
        <time>2024-07-03T08:28:24Z</time>
      </trkpt>
      <trkpt lat="48.26182" lon="4.78124">
        <ele>240</ele>
        <time>2024-07-03T08:28:34Z</time>
      </trkpt>
      <trkpt lat="48.26214" lon="4.78256">
        <ele>234</ele>
        <time>2024-07-03T08:28:51Z</time>
      </trkpt>
      <trkpt lat="48.26217" lon="4.7829">
        <ele>232</ele>
        <time>2024-07-03T08:28:55Z</time>
      </trkpt>
      <trkpt lat="48.26191" lon="4.78269">
        <ele>232</ele>
        <time>2024-07-03T08:29:00Z</time>
      </trkpt>
      <trkpt lat="48.2619" lon="4.78277">
        <ele>232</ele>
        <time>2024-07-03T08:29:01Z</time>
      </trkpt>
      <trkpt lat="48.26206" lon="4.78329">
        <ele>229</ele>
        <time>2024-07-03T08:29:08Z</time>
      </trkpt>
      <trkpt lat="48.26201" lon="4.78361">
        <ele>227</ele>
        <time>2024-07-03T08:29:12Z</time>
      </trkpt>
      <trkpt lat="48.26008" lon="4.78489">
        <ele>219</ele>
        <time>2024-07-03T08:29:49Z</time>
      </trkpt>
      <trkpt lat="48.25844" lon="4.78565">
        <ele>215</ele>
        <time>2024-07-03T08:30:20Z</time>
      </trkpt>
      <trkpt lat="48.25806" lon="4.78596">
        <ele>214</ele>
        <time>2024-07-03T08:30:27Z</time>
      </trkpt>
      <trkpt lat="48.25815" lon="4.7859">
        <ele>215</ele>
        <time>2024-07-03T08:30:29Z</time>
      </trkpt>
      <trkpt lat="48.25802" lon="4.78886">
        <ele>221</ele>
        <time>2024-07-03T08:31:04Z</time>
      </trkpt>
      <trkpt lat="48.25804" lon="4.79117">
        <ele>221</ele>
        <time>2024-07-03T08:31:32Z</time>
      </trkpt>
      <trkpt lat="48.25802" lon="4.79146">
        <ele>221</ele>
        <time>2024-07-03T08:31:35Z</time>
      </trkpt>
      <trkpt lat="48.25797" lon="4.79172">
        <ele>221</ele>
        <time>2024-07-03T08:31:38Z</time>
      </trkpt>
      <trkpt lat="48.25801" lon="4.79145">
        <ele>221</ele>
        <time>2024-07-03T08:31:42Z</time>
      </trkpt>
      <trkpt lat="48.25684" lon="4.79471">
        <ele>223</ele>
        <time>2024-07-03T08:32:25Z</time>
      </trkpt>
      <trkpt lat="48.25206" lon="4.79773">
        <ele>250</ele>
        <time>2024-07-03T08:33:58Z</time>
      </trkpt>
      <trkpt lat="48.2495" lon="4.79545">
        <ele>269</ele>
        <time>2024-07-03T08:34:51Z</time>
      </trkpt>
      <trkpt lat="48.24835" lon="4.79804">
        <ele>284</ele>
        <time>2024-07-03T08:35:28Z</time>
      </trkpt>
      <trkpt lat="48.24809" lon="4.80071">
        <ele>286</ele>
        <time>2024-07-03T08:36:00Z</time>
      </trkpt>
      <trkpt lat="48.24622" lon="4.804">
        <ele>301</ele>
        <time>2024-07-03T08:36:51Z</time>
      </trkpt>
      <trkpt lat="48.24481" lon="4.80521">
        <ele>306</ele>
        <time>2024-07-03T08:37:20Z</time>
      </trkpt>
      <trkpt lat="48.24457" lon="4.8056">
        <ele>306</ele>
        <time>2024-07-03T08:37:26Z</time>
      </trkpt>
      <trkpt lat="48.24442" lon="4.80592">
        <ele>305</ele>
        <time>2024-07-03T08:37:31Z</time>
      </trkpt>
      <trkpt lat="48.24417" lon="4.80688">
        <ele>302</ele>
        <time>2024-07-03T08:37:43Z</time>
      </trkpt>
      <trkpt lat="48.24395" lon="4.80827">
        <ele>297</ele>
        <time>2024-07-03T08:38:00Z</time>
      </trkpt>
      <trkpt lat="48.24385" lon="4.8098">
        <ele>293</ele>
        <time>2024-07-03T08:38:18Z</time>
      </trkpt>
      <trkpt lat="48.24379" lon="4.81026">
        <ele>293</ele>
        <time>2024-07-03T08:38:24Z</time>
      </trkpt>
      <trkpt lat="48.24361" lon="4.81064">
        <ele>291</ele>
        <time>2024-07-03T08:38:29Z</time>
      </trkpt>
      <trkpt lat="48.24327" lon="4.81116">
        <ele>289</ele>
        <time>2024-07-03T08:38:38Z</time>
      </trkpt>
      <trkpt lat="48.24317" lon="4.8114">
        <ele>289</ele>
        <time>2024-07-03T08:38:41Z</time>
      </trkpt>
      <trkpt lat="48.2431" lon="4.81166">
        <ele>289</ele>
        <time>2024-07-03T08:38:44Z</time>
      </trkpt>
      <trkpt lat="48.24305" lon="4.81226">
        <ele>287</ele>
        <time>2024-07-03T08:38:52Z</time>
      </trkpt>
      <trkpt lat="48.2431" lon="4.81265">
        <ele>286</ele>
        <time>2024-07-03T08:38:56Z</time>
      </trkpt>
      <trkpt lat="48.24326" lon="4.81329">
        <ele>285</ele>
        <time>2024-07-03T08:39:04Z</time>
      </trkpt>
      <trkpt lat="48.2442" lon="4.81616">
        <ele>279</ele>
        <time>2024-07-03T08:39:42Z</time>
      </trkpt>
      <trkpt lat="48.24429" lon="4.81653">
        <ele>277</ele>
        <time>2024-07-03T08:39:47Z</time>
      </trkpt>
      <trkpt lat="48.24431" lon="4.81698">
        <ele>274</ele>
        <time>2024-07-03T08:39:52Z</time>
      </trkpt>
      <trkpt lat="48.24428" lon="4.81719">
        <ele>272</ele>
        <time>2024-07-03T08:39:55Z</time>
      </trkpt>
      <trkpt lat="48.24419" lon="4.8174">
        <ele>271</ele>
        <time>2024-07-03T08:39:58Z</time>
      </trkpt>
      <trkpt lat="48.24404" lon="4.81761">
        <ele>268</ele>
        <time>2024-07-03T08:40:01Z</time>
      </trkpt>
      <trkpt lat="48.24366" lon="4.81788">
        <ele>265</ele>
        <time>2024-07-03T08:40:09Z</time>
      </trkpt>
      <trkpt lat="48.24187" lon="4.81841">
        <ele>258</ele>
        <time>2024-07-03T08:40:41Z</time>
      </trkpt>
      <trkpt lat="48.2417" lon="4.8185">
        <ele>256</ele>
        <time>2024-07-03T08:40:45Z</time>
      </trkpt>
      <trkpt lat="48.24156" lon="4.81863">
        <ele>255</ele>
        <time>2024-07-03T08:40:48Z</time>
      </trkpt>
      <trkpt lat="48.24144" lon="4.8188">
        <ele>253</ele>
        <time>2024-07-03T08:40:50Z</time>
      </trkpt>
      <trkpt lat="48.24136" lon="4.81899">
        <ele>252</ele>
        <time>2024-07-03T08:40:53Z</time>
      </trkpt>
      <trkpt lat="48.2413" lon="4.81925">
        <ele>250</ele>
        <time>2024-07-03T08:40:56Z</time>
      </trkpt>
      <trkpt lat="48.24128" lon="4.81946">
        <ele>250</ele>
        <time>2024-07-03T08:40:59Z</time>
      </trkpt>
      <trkpt lat="48.24132" lon="4.8199">
        <ele>248</ele>
        <time>2024-07-03T08:41:04Z</time>
      </trkpt>
      <trkpt lat="48.24134" lon="4.82065">
        <ele>245</ele>
        <time>2024-07-03T08:41:13Z</time>
      </trkpt>
      <trkpt lat="48.24071" lon="4.82096">
        <ele>242</ele>
        <time>2024-07-03T08:41:25Z</time>
      </trkpt>
      <trkpt lat="48.24117" lon="4.82263">
        <ele>241</ele>
        <time>2024-07-03T08:41:46Z</time>
      </trkpt>
      <trkpt lat="48.2397" lon="4.8304">
        <ele>244</ele>
        <time>2024-07-03T08:43:22Z</time>
      </trkpt>
      <trkpt lat="48.23718" lon="4.83559">
        <ele>241</ele>
        <time>2024-07-03T08:44:38Z</time>
      </trkpt>
      <trkpt lat="48.2349" lon="4.83938">
        <ele>256</ele>
        <time>2024-07-03T08:45:39Z</time>
      </trkpt>
      <trkpt lat="48.2325" lon="4.8436">
        <ele>269</ele>
        <time>2024-07-03T08:46:44Z</time>
      </trkpt>
      <trkpt lat="48.23103" lon="4.84904">
        <ele>291</ele>
        <time>2024-07-03T08:47:54Z</time>
      </trkpt>
      <trkpt lat="48.23054" lon="4.85924">
        <ele>321</ele>
        <time>2024-07-03T08:49:55Z</time>
      </trkpt>
      <trkpt lat="48.22989" lon="4.86468">
        <ele>335</ele>
        <time>2024-07-03T08:51:01Z</time>
      </trkpt>
      <trkpt lat="48.2277" lon="4.87214">
        <ele>340</ele>
        <time>2024-07-03T08:52:37Z</time>
      </trkpt>
      <trkpt lat="48.22264" lon="4.87745">
        <ele>363</ele>
        <time>2024-07-03T08:54:27Z</time>
      </trkpt>
      <trkpt lat="48.22233" lon="4.87827">
        <ele>359</ele>
        <time>2024-07-03T08:54:38Z</time>
      </trkpt>
      <trkpt lat="48.22246" lon="4.88163">
        <ele>361</ele>
        <time>2024-07-03T08:55:18Z</time>
      </trkpt>
      <trkpt lat="48.22264" lon="4.88353">
        <ele>357</ele>
        <time>2024-07-03T08:55:41Z</time>
      </trkpt>
      <trkpt lat="48.2225" lon="4.8847">
        <ele>356</ele>
        <time>2024-07-03T08:55:55Z</time>
      </trkpt>
      <trkpt lat="48.22173" lon="4.88498">
        <ele>355</ele>
        <time>2024-07-03T08:56:09Z</time>
      </trkpt>
      <trkpt lat="48.22147" lon="4.88571">
        <ele>354</ele>
        <time>2024-07-03T08:56:19Z</time>
      </trkpt>
      <trkpt lat="48.21994" lon="4.88524">
        <ele>355</ele>
        <time>2024-07-03T08:56:47Z</time>
      </trkpt>
      <trkpt lat="48.21896" lon="4.88488">
        <ele>359</ele>
        <time>2024-07-03T08:57:05Z</time>
      </trkpt>
      <trkpt lat="48.21774" lon="4.8846">
        <ele>359</ele>
        <time>2024-07-03T08:57:27Z</time>
      </trkpt>
      <trkpt lat="48.21697" lon="4.88431">
        <ele>352</ele>
        <time>2024-07-03T08:57:41Z</time>
      </trkpt>
      <trkpt lat="48.21649" lon="4.88409">
        <ele>349</ele>
        <time>2024-07-03T08:57:50Z</time>
      </trkpt>
      <trkpt lat="48.21608" lon="4.88386">
        <ele>346</ele>
        <time>2024-07-03T08:57:58Z</time>
      </trkpt>
      <trkpt lat="48.21389" lon="4.8821">
        <ele>338</ele>
        <time>2024-07-03T08:58:42Z</time>
      </trkpt>
      <trkpt lat="48.21358" lon="4.88197">
        <ele>338</ele>
        <time>2024-07-03T08:58:47Z</time>
      </trkpt>
      <trkpt lat="48.21035" lon="4.88085">
        <ele>329</ele>
        <time>2024-07-03T08:59:46Z</time>
      </trkpt>
      <trkpt lat="48.19788" lon="4.862">
        <ele>320</ele>
        <time>2024-07-03T09:05:01Z</time>
      </trkpt>
      <trkpt lat="48.19412" lon="4.85745">
        <ele>319</ele>
        <time>2024-07-03T09:06:27Z</time>
      </trkpt>
      <trkpt lat="48.18009" lon="4.84673">
        <ele>327</ele>
        <time>2024-07-03T09:11:07Z</time>
      </trkpt>
      <trkpt lat="48.17775" lon="4.84086">
        <ele>326</ele>
        <time>2024-07-03T09:12:29Z</time>
      </trkpt>
      <trkpt lat="48.17971" lon="4.83671">
        <ele>333</ele>
        <time>2024-07-03T09:13:29Z</time>
      </trkpt>
      <trkpt lat="48.18089" lon="4.83189">
        <ele>323</ele>
        <time>2024-07-03T09:14:30Z</time>
      </trkpt>
      <trkpt lat="48.18466" lon="4.82868">
        <ele>308</ele>
        <time>2024-07-03T09:15:47Z</time>
      </trkpt>
      <trkpt lat="48.18824" lon="4.82368">
        <ele>295</ele>
        <time>2024-07-03T09:17:14Z</time>
      </trkpt>
      <trkpt lat="48.18878" lon="4.82175">
        <ele>291</ele>
        <time>2024-07-03T09:17:39Z</time>
      </trkpt>
      <trkpt lat="48.18925" lon="4.82108">
        <ele>292</ele>
        <time>2024-07-03T09:17:50Z</time>
      </trkpt>
      <trkpt lat="48.18954" lon="4.81987">
        <ele>297</ele>
        <time>2024-07-03T09:18:06Z</time>
      </trkpt>
      <trkpt lat="48.19017" lon="4.81888">
        <ele>293</ele>
        <time>2024-07-03T09:18:22Z</time>
      </trkpt>
      <trkpt lat="48.19064" lon="4.81779">
        <ele>292</ele>
        <time>2024-07-03T09:18:37Z</time>
      </trkpt>
      <trkpt lat="48.19079" lon="4.81654">
        <ele>292</ele>
        <time>2024-07-03T09:18:52Z</time>
      </trkpt>
      <trkpt lat="48.19159" lon="4.81514">
        <ele>288</ele>
        <time>2024-07-03T09:19:14Z</time>
      </trkpt>
      <trkpt lat="48.19277" lon="4.8109">
        <ele>280</ele>
        <time>2024-07-03T09:20:09Z</time>
      </trkpt>
      <trkpt lat="48.19282" lon="4.80991">
        <ele>278</ele>
        <time>2024-07-03T09:20:21Z</time>
      </trkpt>
      <trkpt lat="48.19281" lon="4.80737">
        <ele>282</ele>
        <time>2024-07-03T09:20:51Z</time>
      </trkpt>
      <trkpt lat="48.19357" lon="4.80558">
        <ele>281</ele>
        <time>2024-07-03T09:21:16Z</time>
      </trkpt>
      <trkpt lat="48.19396" lon="4.80391">
        <ele>276</ele>
        <time>2024-07-03T09:21:37Z</time>
      </trkpt>
      <trkpt lat="48.19384" lon="4.80251">
        <ele>273</ele>
        <time>2024-07-03T09:21:54Z</time>
      </trkpt>
      <trkpt lat="48.19401" lon="4.80108">
        <ele>268</ele>
        <time>2024-07-03T09:22:11Z</time>
      </trkpt>
      <trkpt lat="48.1945" lon="4.80011">
        <ele>261</ele>
        <time>2024-07-03T09:22:25Z</time>
      </trkpt>
      <trkpt lat="48.19487" lon="4.79851">
        <ele>248</ele>
        <time>2024-07-03T09:22:45Z</time>
      </trkpt>
      <trkpt lat="48.19432" lon="4.79409">
        <ele>217</ele>
        <time>2024-07-03T09:23:39Z</time>
      </trkpt>
      <trkpt lat="48.19499" lon="4.79208">
        <ele>211</ele>
        <time>2024-07-03T09:24:05Z</time>
      </trkpt>
      <trkpt lat="48.19532" lon="4.78991">
        <ele>195</ele>
        <time>2024-07-03T09:24:32Z</time>
      </trkpt>
      <trkpt lat="48.19555" lon="4.78814">
        <ele>187</ele>
        <time>2024-07-03T09:24:53Z</time>
      </trkpt>
      <trkpt lat="48.19601" lon="4.78673">
        <ele>183</ele>
        <time>2024-07-03T09:25:12Z</time>
      </trkpt>
      <trkpt lat="48.19522" lon="4.78683">
        <ele>181</ele>
        <time>2024-07-03T09:25:26Z</time>
      </trkpt>
      <trkpt lat="48.19444" lon="4.7875">
        <ele>183</ele>
        <time>2024-07-03T09:25:42Z</time>
      </trkpt>
      <trkpt lat="48.19409" lon="4.78687">
        <ele>181</ele>
        <time>2024-07-03T09:25:52Z</time>
      </trkpt>
      <trkpt lat="48.19227" lon="4.78684">
        <ele>181</ele>
        <time>2024-07-03T09:26:24Z</time>
      </trkpt>
      <trkpt lat="48.19133" lon="4.78642">
        <ele>179</ele>
        <time>2024-07-03T09:26:41Z</time>
      </trkpt>
      <trkpt lat="48.19013" lon="4.78506">
        <ele>179</ele>
        <time>2024-07-03T09:27:08Z</time>
      </trkpt>
      <trkpt lat="48.18896" lon="4.78269">
        <ele>187</ele>
        <time>2024-07-03T09:27:43Z</time>
      </trkpt>
      <trkpt lat="48.18761" lon="4.78477">
        <ele>197</ele>
        <time>2024-07-03T09:28:18Z</time>
      </trkpt>
      <trkpt lat="48.18641" lon="4.78744">
        <ele>203</ele>
        <time>2024-07-03T09:28:56Z</time>
      </trkpt>
      <trkpt lat="48.18624" lon="4.7875">
        <ele>203</ele>
        <time>2024-07-03T09:28:59Z</time>
      </trkpt>
      <trkpt lat="48.18607" lon="4.78734">
        <ele>203</ele>
        <time>2024-07-03T09:29:02Z</time>
      </trkpt>
      <trkpt lat="48.18575" lon="4.78692">
        <ele>205</ele>
        <time>2024-07-03T09:29:10Z</time>
      </trkpt>
      <trkpt lat="48.18545" lon="4.7868">
        <ele>206</ele>
        <time>2024-07-03T09:29:15Z</time>
      </trkpt>
      <trkpt lat="48.18494" lon="4.78705">
        <ele>206</ele>
        <time>2024-07-03T09:29:25Z</time>
      </trkpt>
      <trkpt lat="48.18484" lon="4.78699">
        <ele>206</ele>
        <time>2024-07-03T09:29:27Z</time>
      </trkpt>
      <trkpt lat="48.18473" lon="4.78701">
        <ele>206</ele>
        <time>2024-07-03T09:29:29Z</time>
      </trkpt>
      <trkpt lat="48.18425" lon="4.7878">
        <ele>202</ele>
        <time>2024-07-03T09:29:42Z</time>
      </trkpt>
      <trkpt lat="48.18407" lon="4.78732">
        <ele>204</ele>
        <time>2024-07-03T09:29:48Z</time>
      </trkpt>
      <trkpt lat="48.1836" lon="4.78713">
        <ele>199</ele>
        <time>2024-07-03T09:29:57Z</time>
      </trkpt>
      <trkpt lat="48.1823" lon="4.78543">
        <ele>191</ele>
        <time>2024-07-03T09:30:27Z</time>
      </trkpt>
      <trkpt lat="48.18198" lon="4.78201">
        <ele>204</ele>
        <time>2024-07-03T09:31:08Z</time>
      </trkpt>
      <trkpt lat="48.1818" lon="4.77978">
        <ele>205</ele>
        <time>2024-07-03T09:31:35Z</time>
      </trkpt>
      <trkpt lat="48.18038" lon="4.77717">
        <ele>212</ele>
        <time>2024-07-03T09:32:15Z</time>
      </trkpt>
      <trkpt lat="48.17964" lon="4.77469">
        <ele>216</ele>
        <time>2024-07-03T09:32:47Z</time>
      </trkpt>
      <trkpt lat="48.17805" lon="4.77041">
        <ele>222</ele>
        <time>2024-07-03T09:33:45Z</time>
      </trkpt>
      <trkpt lat="48.17757" lon="4.76687">
        <ele>222</ele>
        <time>2024-07-03T09:34:28Z</time>
      </trkpt>
      <trkpt lat="48.17736" lon="4.76614">
        <ele>223</ele>
        <time>2024-07-03T09:34:38Z</time>
      </trkpt>
      <trkpt lat="48.17638" lon="4.76474">
        <ele>221</ele>
        <time>2024-07-03T09:35:02Z</time>
      </trkpt>
      <trkpt lat="48.17623" lon="4.76401">
        <ele>224</ele>
        <time>2024-07-03T09:35:11Z</time>
      </trkpt>
      <trkpt lat="48.17627" lon="4.75963">
        <ele>237</ele>
        <time>2024-07-03T09:36:03Z</time>
      </trkpt>
      <trkpt lat="48.17552" lon="4.75603">
        <ele>244</ele>
        <time>2024-07-03T09:36:48Z</time>
      </trkpt>
      <trkpt lat="48.17436" lon="4.74341">
        <ele>267</ele>
        <time>2024-07-03T09:39:19Z</time>
      </trkpt>
      <trkpt lat="48.16476" lon="4.75394">
        <ele>290</ele>
        <time>2024-07-03T09:42:50Z</time>
      </trkpt>
      <trkpt lat="48.16138" lon="4.75775">
        <ele>287</ele>
        <time>2024-07-03T09:44:06Z</time>
      </trkpt>
      <trkpt lat="48.16001" lon="4.7571">
        <ele>287</ele>
        <time>2024-07-03T09:44:31Z</time>
      </trkpt>
      <trkpt lat="48.15853" lon="4.75636">
        <ele>291</ele>
        <time>2024-07-03T09:44:59Z</time>
      </trkpt>
      <trkpt lat="48.15785" lon="4.75673">
        <ele>291</ele>
        <time>2024-07-03T09:45:12Z</time>
      </trkpt>
      <trkpt lat="48.15715" lon="4.75735">
        <ele>291</ele>
        <time>2024-07-03T09:45:26Z</time>
      </trkpt>
      <trkpt lat="48.1565" lon="4.75973">
        <ele>288</ele>
        <time>2024-07-03T09:45:57Z</time>
      </trkpt>
      <trkpt lat="48.15589" lon="4.76022">
        <ele>287</ele>
        <time>2024-07-03T09:46:09Z</time>
      </trkpt>
      <trkpt lat="48.15552" lon="4.76071">
        <ele>285</ele>
        <time>2024-07-03T09:46:18Z</time>
      </trkpt>
      <trkpt lat="48.15536" lon="4.76254">
        <ele>279</ele>
        <time>2024-07-03T09:46:40Z</time>
      </trkpt>
      <trkpt lat="48.15561" lon="4.76425">
        <ele>270</ele>
        <time>2024-07-03T09:47:01Z</time>
      </trkpt>
      <trkpt lat="48.15531" lon="4.76461">
        <ele>269</ele>
        <time>2024-07-03T09:47:07Z</time>
      </trkpt>
      <trkpt lat="48.15438" lon="4.76496">
        <ele>263</ele>
        <time>2024-07-03T09:47:25Z</time>
      </trkpt>
      <trkpt lat="48.15253" lon="4.76544">
        <ele>260</ele>
        <time>2024-07-03T09:47:58Z</time>
      </trkpt>
      <trkpt lat="48.15223" lon="4.76573">
        <ele>261</ele>
        <time>2024-07-03T09:48:04Z</time>
      </trkpt>
      <trkpt lat="48.15141" lon="4.76717">
        <ele>253</ele>
        <time>2024-07-03T09:48:27Z</time>
      </trkpt>
      <trkpt lat="48.15069" lon="4.76791">
        <ele>251</ele>
        <time>2024-07-03T09:48:42Z</time>
      </trkpt>
      <trkpt lat="48.14941" lon="4.7691">
        <ele>241</ele>
        <time>2024-07-03T09:49:09Z</time>
      </trkpt>
      <trkpt lat="48.14662" lon="4.76929">
        <ele>219</ele>
        <time>2024-07-03T09:49:59Z</time>
      </trkpt>
      <trkpt lat="48.14564" lon="4.77338">
        <ele>217</ele>
        <time>2024-07-03T09:50:50Z</time>
      </trkpt>
      <trkpt lat="48.14596" lon="4.77865">
        <ele>203</ele>
        <time>2024-07-03T09:51:53Z</time>
      </trkpt>
      <trkpt lat="48.14433" lon="4.77927">
        <ele>197</ele>
        <time>2024-07-03T09:52:23Z</time>
      </trkpt>
      <trkpt lat="48.14394" lon="4.7808">
        <ele>202</ele>
        <time>2024-07-03T09:52:43Z</time>
      </trkpt>
      <trkpt lat="48.14169" lon="4.77319">
        <ele>224</ele>
        <time>2024-07-03T09:54:21Z</time>
      </trkpt>
      <trkpt lat="48.13804" lon="4.76442">
        <ele>231</ele>
        <time>2024-07-03T09:56:24Z</time>
      </trkpt>
      <trkpt lat="48.13775" lon="4.75909">
        <ele>234</ele>
        <time>2024-07-03T09:57:28Z</time>
      </trkpt>
      <trkpt lat="48.13608" lon="4.75399">
        <ele>241</ele>
        <time>2024-07-03T09:58:35Z</time>
      </trkpt>
      <trkpt lat="48.13562" lon="4.753">
        <ele>240</ele>
        <time>2024-07-03T09:58:49Z</time>
      </trkpt>
      <trkpt lat="48.13488" lon="4.75177">
        <ele>242</ele>
        <time>2024-07-03T09:59:09Z</time>
      </trkpt>
      <trkpt lat="48.13462" lon="4.75116">
        <ele>243</ele>
        <time>2024-07-03T09:59:18Z</time>
      </trkpt>
      <trkpt lat="48.1345" lon="4.75056">
        <ele>243</ele>
        <time>2024-07-03T09:59:25Z</time>
      </trkpt>
      <trkpt lat="48.1344" lon="4.74984">
        <ele>243</ele>
        <time>2024-07-03T09:59:34Z</time>
      </trkpt>
      <trkpt lat="48.13439" lon="4.74894">
        <ele>244</ele>
        <time>2024-07-03T09:59:45Z</time>
      </trkpt>
      <trkpt lat="48.13429" lon="4.7481">
        <ele>244</ele>
        <time>2024-07-03T09:59:55Z</time>
      </trkpt>
      <trkpt lat="48.13412" lon="4.74755">
        <ele>245</ele>
        <time>2024-07-03T10:00:02Z</time>
      </trkpt>
      <trkpt lat="48.13365" lon="4.74673">
        <ele>249</ele>
        <time>2024-07-03T10:00:15Z</time>
      </trkpt>
      <trkpt lat="48.13248" lon="4.74574">
        <ele>243</ele>
        <time>2024-07-03T10:00:39Z</time>
      </trkpt>
      <trkpt lat="48.1319" lon="4.74318">
        <ele>250</ele>
        <time>2024-07-03T10:01:11Z</time>
      </trkpt>
      <trkpt lat="48.13066" lon="4.74198">
        <ele>255</ele>
        <time>2024-07-03T10:01:37Z</time>
      </trkpt>
      <trkpt lat="48.12995" lon="4.74001">
        <ele>259</ele>
        <time>2024-07-03T10:02:04Z</time>
      </trkpt>
      <trkpt lat="48.12879" lon="4.73915">
        <ele>260</ele>
        <time>2024-07-03T10:02:27Z</time>
      </trkpt>
      <trkpt lat="48.1281" lon="4.73766">
        <ele>256</ele>
        <time>2024-07-03T10:02:48Z</time>
      </trkpt>
      <trkpt lat="48.12657" lon="4.73707">
        <ele>257</ele>
        <time>2024-07-03T10:03:16Z</time>
      </trkpt>
      <trkpt lat="48.12565" lon="4.73644">
        <ele>262</ele>
        <time>2024-07-03T10:03:34Z</time>
      </trkpt>
      <trkpt lat="48.12486" lon="4.73521">
        <ele>270</ele>
        <time>2024-07-03T10:03:54Z</time>
      </trkpt>
      <trkpt lat="48.12298" lon="4.73356">
        <ele>270</ele>
        <time>2024-07-03T10:04:33Z</time>
      </trkpt>
      <trkpt lat="48.12079" lon="4.73298">
        <ele>275</ele>
        <time>2024-07-03T10:05:13Z</time>
      </trkpt>
      <trkpt lat="48.12015" lon="4.73266">
        <ele>273</ele>
        <time>2024-07-03T10:05:25Z</time>
      </trkpt>
      <trkpt lat="48.11953" lon="4.73191">
        <ele>271</ele>
        <time>2024-07-03T10:05:39Z</time>
      </trkpt>
      <trkpt lat="48.11899" lon="4.73119">
        <ele>272</ele>
        <time>2024-07-03T10:05:52Z</time>
      </trkpt>
      <trkpt lat="48.11862" lon="4.73084">
        <ele>274</ele>
        <time>2024-07-03T10:06:00Z</time>
      </trkpt>
      <trkpt lat="48.11835" lon="4.73066">
        <ele>276</ele>
        <time>2024-07-03T10:06:05Z</time>
      </trkpt>
      <trkpt lat="48.11754" lon="4.73024">
        <ele>276</ele>
        <time>2024-07-03T10:06:20Z</time>
      </trkpt>
      <trkpt lat="48.11702" lon="4.73001">
        <ele>280</ele>
        <time>2024-07-03T10:06:30Z</time>
      </trkpt>
      <trkpt lat="48.11543" lon="4.72911">
        <ele>288</ele>
        <time>2024-07-03T10:07:00Z</time>
      </trkpt>
      <trkpt lat="48.11338" lon="4.7286">
        <ele>290</ele>
        <time>2024-07-03T10:07:37Z</time>
      </trkpt>
      <trkpt lat="48.11266" lon="4.72827">
        <ele>294</ele>
        <time>2024-07-03T10:07:50Z</time>
      </trkpt>
      <trkpt lat="48.11103" lon="4.7282">
        <ele>294</ele>
        <time>2024-07-03T10:08:19Z</time>
      </trkpt>
      <trkpt lat="48.10654" lon="4.72508">
        <ele>306</ele>
        <time>2024-07-03T10:09:48Z</time>
      </trkpt>
      <trkpt lat="48.10642" lon="4.72476">
        <ele>306</ele>
        <time>2024-07-03T10:09:52Z</time>
      </trkpt>
      <trkpt lat="48.1061" lon="4.72334">
        <ele>311</ele>
        <time>2024-07-03T10:10:10Z</time>
      </trkpt>
      <trkpt lat="48.10576" lon="4.72318">
        <ele>312</ele>
        <time>2024-07-03T10:10:16Z</time>
      </trkpt>
      <trkpt lat="48.10506" lon="4.7217">
        <ele>322</ele>
        <time>2024-07-03T10:10:38Z</time>
      </trkpt>
      <trkpt lat="48.10476" lon="4.71998">
        <ele>327</ele>
        <time>2024-07-03T10:10:59Z</time>
      </trkpt>
      <trkpt lat="48.10231" lon="4.71743">
        <ele>341</ele>
        <time>2024-07-03T10:11:52Z</time>
      </trkpt>
      <trkpt lat="48.10108" lon="4.71057">
        <ele>341</ele>
        <time>2024-07-03T10:13:16Z</time>
      </trkpt>
      <trkpt lat="48.10029" lon="4.70646">
        <ele>335</ele>
        <time>2024-07-03T10:14:07Z</time>
      </trkpt>
      <trkpt lat="48.10016" lon="4.70529">
        <ele>333</ele>
        <time>2024-07-03T10:14:21Z</time>
      </trkpt>
      <trkpt lat="48.0997" lon="4.70417">
        <ele>326</ele>
        <time>2024-07-03T10:14:37Z</time>
      </trkpt>
      <trkpt lat="48.09705" lon="4.70428">
        <ele>332</ele>
        <time>2024-07-03T10:15:24Z</time>
      </trkpt>
      <trkpt lat="48.09614" lon="4.70458">
        <ele>337</ele>
        <time>2024-07-03T10:15:40Z</time>
      </trkpt>
      <trkpt lat="48.09486" lon="4.7066">
        <ele>335</ele>
        <time>2024-07-03T10:16:14Z</time>
      </trkpt>
      <trkpt lat="48.09343" lon="4.70694">
        <ele>335</ele>
        <time>2024-07-03T10:16:39Z</time>
      </trkpt>
      <trkpt lat="48.08978" lon="4.70608">
        <ele>344</ele>
        <time>2024-07-03T10:17:45Z</time>
      </trkpt>
      <trkpt lat="48.08864" lon="4.70522">
        <ele>347</ele>
        <time>2024-07-03T10:18:08Z</time>
      </trkpt>
      <trkpt lat="48.0874" lon="4.70738">
        <ele>347</ele>
        <time>2024-07-03T10:18:42Z</time>
      </trkpt>
      <trkpt lat="48.08683" lon="4.70704">
        <ele>346</ele>
        <time>2024-07-03T10:18:53Z</time>
      </trkpt>
      <trkpt lat="48.08537" lon="4.70759">
        <ele>348</ele>
        <time>2024-07-03T10:19:19Z</time>
      </trkpt>
      <trkpt lat="48.08333" lon="4.70756">
        <ele>351</ele>
        <time>2024-07-03T10:19:56Z</time>
      </trkpt>
      <trkpt lat="48.08266" lon="4.70667">
        <ele>353</ele>
        <time>2024-07-03T10:20:12Z</time>
      </trkpt>
      <trkpt lat="48.08035" lon="4.71167">
        <ele>365</ele>
        <time>2024-07-03T10:21:24Z</time>
      </trkpt>
      <trkpt lat="48.07724" lon="4.70888">
        <ele>361</ele>
        <time>2024-07-03T10:22:28Z</time>
      </trkpt>
      <trkpt lat="48.077" lon="4.70884">
        <ele>361</ele>
        <time>2024-07-03T10:22:33Z</time>
      </trkpt>
      <trkpt lat="48.06705" lon="4.69911">
        <ele>345</ele>
        <time>2024-07-03T10:26:04Z</time>
      </trkpt>
      <trkpt lat="48.06668" lon="4.69909">
        <ele>345</ele>
        <time>2024-07-03T10:26:11Z</time>
      </trkpt>
      <trkpt lat="48.06334" lon="4.69681">
        <ele>335</ele>
        <time>2024-07-03T10:27:16Z</time>
      </trkpt>
      <trkpt lat="48.06105" lon="4.69893">
        <ele>346</ele>
        <time>2024-07-03T10:28:04Z</time>
      </trkpt>
      <trkpt lat="48.06077" lon="4.69953">
        <ele>348</ele>
        <time>2024-07-03T10:28:13Z</time>
      </trkpt>
      <trkpt lat="48.05784" lon="4.70245">
        <ele>328</ele>
        <time>2024-07-03T10:29:15Z</time>
      </trkpt>
      <trkpt lat="48.05774" lon="4.70299">
        <ele>327</ele>
        <time>2024-07-03T10:29:22Z</time>
      </trkpt>
      <trkpt lat="48.05753" lon="4.70349">
        <ele>326</ele>
        <time>2024-07-03T10:29:29Z</time>
      </trkpt>
      <trkpt lat="48.05752" lon="4.70356">
        <ele>326</ele>
        <time>2024-07-03T10:29:30Z</time>
      </trkpt>
      <trkpt lat="48.05553" lon="4.70061">
        <ele>314</ele>
        <time>2024-07-03T10:30:20Z</time>
      </trkpt>
      <trkpt lat="48.0551" lon="4.69773">
        <ele>310</ele>
        <time>2024-07-03T10:30:55Z</time>
      </trkpt>
      <trkpt lat="48.0526" lon="4.69124">
        <ele>291</ele>
        <time>2024-07-03T10:32:24Z</time>
      </trkpt>
      <trkpt lat="48.04987" lon="4.68869">
        <ele>279</ele>
        <time>2024-07-03T10:33:21Z</time>
      </trkpt>
      <trkpt lat="48.04954" lon="4.68651">
        <ele>275</ele>
        <time>2024-07-03T10:33:48Z</time>
      </trkpt>
      <trkpt lat="48.04875" lon="4.6845">
        <ele>276</ele>
        <time>2024-07-03T10:34:15Z</time>
      </trkpt>
      <trkpt lat="48.04698" lon="4.68244">
        <ele>271</ele>
        <time>2024-07-03T10:34:55Z</time>
      </trkpt>
      <trkpt lat="48.04639" lon="4.6811">
        <ele>264</ele>
        <time>2024-07-03T10:35:14Z</time>
      </trkpt>
      <trkpt lat="48.04627" lon="4.68026">
        <ele>260</ele>
        <time>2024-07-03T10:35:25Z</time>
      </trkpt>
      <trkpt lat="48.04638" lon="4.67993">
        <ele>262</ele>
        <time>2024-07-03T10:35:29Z</time>
      </trkpt>
      <trkpt lat="48.04605" lon="4.679">
        <ele>266</ele>
        <time>2024-07-03T10:35:42Z</time>
      </trkpt>
      <trkpt lat="48.04456" lon="4.67689">
        <ele>261</ele>
        <time>2024-07-03T10:36:18Z</time>
      </trkpt>
      <trkpt lat="48.04377" lon="4.67573">
        <ele>257</ele>
        <time>2024-07-03T10:36:38Z</time>
      </trkpt>
      <trkpt lat="48.04257" lon="4.67068">
        <ele>249</ele>
        <time>2024-07-03T10:37:42Z</time>
      </trkpt>
      <trkpt lat="48.04257" lon="4.66988">
        <ele>248</ele>
        <time>2024-07-03T10:37:51Z</time>
      </trkpt>
      <trkpt lat="48.04249" lon="4.66889">
        <ele>248</ele>
        <time>2024-07-03T10:38:03Z</time>
      </trkpt>
      <trkpt lat="48.04253" lon="4.66878">
        <ele>248</ele>
        <time>2024-07-03T10:38:04Z</time>
      </trkpt>
      <trkpt lat="48.04623" lon="4.67013">
        <ele>297</ele>
        <time>2024-07-03T10:39:12Z</time>
      </trkpt>
      <trkpt lat="48.0478" lon="4.67241">
        <ele>309</ele>
        <time>2024-07-03T10:39:51Z</time>
      </trkpt>
      <trkpt lat="48.04813" lon="4.67268">
        <ele>311</ele>
        <time>2024-07-03T10:39:58Z</time>
      </trkpt>
      <trkpt lat="48.04861" lon="4.67281">
        <ele>315</ele>
        <time>2024-07-03T10:40:06Z</time>
      </trkpt>
      <trkpt lat="48.05151" lon="4.6723">
        <ele>326</ele>
        <time>2024-07-03T10:40:58Z</time>
      </trkpt>
      <trkpt lat="48.05364" lon="4.67243">
        <ele>328</ele>
        <time>2024-07-03T10:41:36Z</time>
      </trkpt>
      <trkpt lat="48.05931" lon="4.66882">
        <ele>360</ele>
        <time>2024-07-03T10:43:26Z</time>
      </trkpt>
      <trkpt lat="48.06498" lon="4.65326">
        <ele>339</ele>
        <time>2024-07-03T10:46:57Z</time>
      </trkpt>
      <trkpt lat="48.06484" lon="4.64858">
        <ele>331</ele>
        <time>2024-07-03T10:47:52Z</time>
      </trkpt>
      <trkpt lat="48.06826" lon="4.63484">
        <ele>316</ele>
        <time>2024-07-03T10:50:47Z</time>
      </trkpt>
      <trkpt lat="48.06838" lon="4.63336">
        <ele>315</ele>
        <time>2024-07-03T10:51:04Z</time>
      </trkpt>
      <trkpt lat="48.06805" lon="4.63313">
        <ele>314</ele>
        <time>2024-07-03T10:51:11Z</time>
      </trkpt>
      <trkpt lat="48.06955" lon="4.6301">
        <ele>313</ele>
        <time>2024-07-03T10:51:56Z</time>
      </trkpt>
      <trkpt lat="48.06495" lon="4.62427">
        <ele>329</ele>
        <time>2024-07-03T10:53:43Z</time>
      </trkpt>
      <trkpt lat="48.0645" lon="4.62105">
        <ele>330</ele>
        <time>2024-07-03T10:54:22Z</time>
      </trkpt>
      <trkpt lat="48.06725" lon="4.62059">
        <ele>315</ele>
        <time>2024-07-03T10:55:11Z</time>
      </trkpt>
      <trkpt lat="48.07267" lon="4.61206">
        <ele>304</ele>
        <time>2024-07-03T10:57:31Z</time>
      </trkpt>
      <trkpt lat="48.07747" lon="4.60481">
        <ele>306</ele>
        <time>2024-07-03T10:59:33Z</time>
      </trkpt>
      <trkpt lat="48.07767" lon="4.60505">
        <ele>305</ele>
        <time>2024-07-03T10:59:37Z</time>
      </trkpt>
      <trkpt lat="48.07865" lon="4.60334">
        <ele>313</ele>
        <time>2024-07-03T11:00:04Z</time>
      </trkpt>
      <trkpt lat="48.08046" lon="4.60471">
        <ele>312</ele>
        <time>2024-07-03T11:00:40Z</time>
      </trkpt>
      <trkpt lat="48.08113" lon="4.60393">
        <ele>315</ele>
        <time>2024-07-03T11:00:55Z</time>
      </trkpt>
      <trkpt lat="48.08248" lon="4.60305">
        <ele>317</ele>
        <time>2024-07-03T11:01:21Z</time>
      </trkpt>
      <trkpt lat="48.08392" lon="4.60093">
        <ele>318</ele>
        <time>2024-07-03T11:01:57Z</time>
      </trkpt>
      <trkpt lat="48.08547" lon="4.59799">
        <ele>314</ele>
        <time>2024-07-03T11:02:42Z</time>
      </trkpt>
      <trkpt lat="48.08606" lon="4.59672">
        <ele>313</ele>
        <time>2024-07-03T11:03:00Z</time>
      </trkpt>
      <trkpt lat="48.0865" lon="4.59616">
        <ele>312</ele>
        <time>2024-07-03T11:03:11Z</time>
      </trkpt>
      <trkpt lat="48.0885" lon="4.59341">
        <ele>318</ele>
        <time>2024-07-03T11:03:59Z</time>
      </trkpt>
      <trkpt lat="48.09023" lon="4.59123">
        <ele>319</ele>
        <time>2024-07-03T11:04:39Z</time>
      </trkpt>
      <trkpt lat="48.09097" lon="4.58994">
        <ele>320</ele>
        <time>2024-07-03T11:04:59Z</time>
      </trkpt>
      <trkpt lat="48.09134" lon="4.58919">
        <ele>323</ele>
        <time>2024-07-03T11:05:10Z</time>
      </trkpt>
      <trkpt lat="48.09144" lon="4.58892">
        <ele>324</ele>
        <time>2024-07-03T11:05:14Z</time>
      </trkpt>
      <trkpt lat="48.09146" lon="4.58864">
        <ele>325</ele>
        <time>2024-07-03T11:05:17Z</time>
      </trkpt>
      <trkpt lat="48.09134" lon="4.58769">
        <ele>326</ele>
        <time>2024-07-03T11:05:29Z</time>
      </trkpt>
      <trkpt lat="48.09138" lon="4.5868">
        <ele>329</ele>
        <time>2024-07-03T11:05:40Z</time>
      </trkpt>
      <trkpt lat="48.09156" lon="4.58571">
        <ele>333</ele>
        <time>2024-07-03T11:05:53Z</time>
      </trkpt>
      <trkpt lat="48.09213" lon="4.58369">
        <ele>340</ele>
        <time>2024-07-03T11:06:19Z</time>
      </trkpt>
      <trkpt lat="48.09245" lon="4.58214">
        <ele>341</ele>
        <time>2024-07-03T11:06:38Z</time>
      </trkpt>
      <trkpt lat="48.09259" lon="4.58129">
        <ele>341</ele>
        <time>2024-07-03T11:06:49Z</time>
      </trkpt>
      <trkpt lat="48.09269" lon="4.58101">
        <ele>342</ele>
        <time>2024-07-03T11:06:52Z</time>
      </trkpt>
      <trkpt lat="48.09282" lon="4.5809">
        <ele>342</ele>
        <time>2024-07-03T11:06:55Z</time>
      </trkpt>
      <trkpt lat="48.09244" lon="4.57786">
        <ele>340</ele>
        <time>2024-07-03T11:07:32Z</time>
      </trkpt>
      <trkpt lat="48.09107" lon="4.57262">
        <ele>336</ele>
        <time>2024-07-03T11:08:39Z</time>
      </trkpt>
      <trkpt lat="48.09112" lon="4.57184">
        <ele>337</ele>
        <time>2024-07-03T11:08:48Z</time>
      </trkpt>
      <trkpt lat="48.09383" lon="4.57128">
        <ele>337</ele>
        <time>2024-07-03T11:09:37Z</time>
      </trkpt>
      <trkpt lat="48.10082" lon="4.57144">
        <ele>257</ele>
        <time>2024-07-03T11:11:41Z</time>
      </trkpt>
      <trkpt lat="48.10088" lon="4.57137">
        <ele>257</ele>
        <time>2024-07-03T11:11:42Z</time>
      </trkpt>
      <trkpt lat="48.101" lon="4.5716">
        <ele>259</ele>
        <time>2024-07-03T11:11:46Z</time>
      </trkpt>
      <trkpt lat="48.10116" lon="4.57212">
        <ele>262</ele>
        <time>2024-07-03T11:11:53Z</time>
      </trkpt>
      <trkpt lat="48.10172" lon="4.57318">
        <ele>268</ele>
        <time>2024-07-03T11:12:09Z</time>
      </trkpt>
      <trkpt lat="48.10189" lon="4.57376">
        <ele>271</ele>
        <time>2024-07-03T11:12:16Z</time>
      </trkpt>
      <trkpt lat="48.10194" lon="4.57417">
        <ele>273</ele>
        <time>2024-07-03T11:12:21Z</time>
      </trkpt>
      <trkpt lat="48.10194" lon="4.57503">
        <ele>275</ele>
        <time>2024-07-03T11:12:31Z</time>
      </trkpt>
      <trkpt lat="48.10185" lon="4.5762">
        <ele>277</ele>
        <time>2024-07-03T11:12:45Z</time>
      </trkpt>
      <trkpt lat="48.10186" lon="4.57641">
        <ele>278</ele>
        <time>2024-07-03T11:12:48Z</time>
      </trkpt>
      <trkpt lat="48.10193" lon="4.57663">
        <ele>280</ele>
        <time>2024-07-03T11:12:51Z</time>
      </trkpt>
      <trkpt lat="48.10238" lon="4.57743">
        <ele>286</ele>
        <time>2024-07-03T11:13:03Z</time>
      </trkpt>
      <trkpt lat="48.1025" lon="4.57785">
        <ele>287</ele>
        <time>2024-07-03T11:13:09Z</time>
      </trkpt>
      <trkpt lat="48.10266" lon="4.57878">
        <ele>286</ele>
        <time>2024-07-03T11:13:20Z</time>
      </trkpt>
      <trkpt lat="48.10271" lon="4.57893">
        <ele>286</ele>
        <time>2024-07-03T11:13:22Z</time>
      </trkpt>
      <trkpt lat="48.10281" lon="4.57902">
        <ele>288</ele>
        <time>2024-07-03T11:13:24Z</time>
      </trkpt>
      <trkpt lat="48.10293" lon="4.57904">
        <ele>290</ele>
        <time>2024-07-03T11:13:26Z</time>
      </trkpt>
      <trkpt lat="48.10308" lon="4.57894">
        <ele>294</ele>
        <time>2024-07-03T11:13:29Z</time>
      </trkpt>
      <trkpt lat="48.10316" lon="4.5788">
        <ele>296</ele>
        <time>2024-07-03T11:13:31Z</time>
      </trkpt>
      <trkpt lat="48.10315" lon="4.57857">
        <ele>297</ele>
        <time>2024-07-03T11:13:34Z</time>
      </trkpt>
      <trkpt lat="48.10303" lon="4.57765">
        <ele>298</ele>
        <time>2024-07-03T11:13:45Z</time>
      </trkpt>
      <trkpt lat="48.10309" lon="4.5769">
        <ele>300</ele>
        <time>2024-07-03T11:13:54Z</time>
      </trkpt>
      <trkpt lat="48.10319" lon="4.57614">
        <ele>301</ele>
        <time>2024-07-03T11:14:03Z</time>
      </trkpt>
      <trkpt lat="48.10348" lon="4.57534">
        <ele>304</ele>
        <time>2024-07-03T11:14:14Z</time>
      </trkpt>
      <trkpt lat="48.10411" lon="4.57437">
        <ele>313</ele>
        <time>2024-07-03T11:14:30Z</time>
      </trkpt>
      <trkpt lat="48.10461" lon="4.5728">
        <ele>315</ele>
        <time>2024-07-03T11:14:51Z</time>
      </trkpt>
      <trkpt lat="48.10476" lon="4.5726">
        <ele>317</ele>
        <time>2024-07-03T11:14:55Z</time>
      </trkpt>
      <trkpt lat="48.10495" lon="4.57257">
        <ele>319</ele>
        <time>2024-07-03T11:14:58Z</time>
      </trkpt>
      <trkpt lat="48.10655" lon="4.57366">
        <ele>333</ele>
        <time>2024-07-03T11:15:29Z</time>
      </trkpt>
      <trkpt lat="48.10686" lon="4.57375">
        <ele>333</ele>
        <time>2024-07-03T11:15:35Z</time>
      </trkpt>
      <trkpt lat="48.11082" lon="4.57533">
        <ele>327</ele>
        <time>2024-07-03T11:16:48Z</time>
      </trkpt>
      <trkpt lat="48.11118" lon="4.5754">
        <ele>328</ele>
        <time>2024-07-03T11:16:54Z</time>
      </trkpt>
      <trkpt lat="48.11338" lon="4.57746">
        <ele>333</ele>
        <time>2024-07-03T11:17:40Z</time>
      </trkpt>
      <trkpt lat="48.11327" lon="4.5776">
        <ele>333</ele>
        <time>2024-07-03T11:17:43Z</time>
      </trkpt>
      <trkpt lat="48.11615" lon="4.57416">
        <ele>330</ele>
        <time>2024-07-03T11:18:49Z</time>
      </trkpt>
      <trkpt lat="48.11758" lon="4.56638">
        <ele>328</ele>
        <time>2024-07-03T11:20:24Z</time>
      </trkpt>
      <trkpt lat="48.11766" lon="4.56629">
        <ele>329</ele>
        <time>2024-07-03T11:20:26Z</time>
      </trkpt>
      <trkpt lat="48.11882" lon="4.56647">
        <ele>333</ele>
        <time>2024-07-03T11:20:47Z</time>
      </trkpt>
      <trkpt lat="48.1201" lon="4.56554">
        <ele>332</ele>
        <time>2024-07-03T11:21:12Z</time>
      </trkpt>
      <trkpt lat="48.12066" lon="4.56546">
        <ele>330</ele>
        <time>2024-07-03T11:21:22Z</time>
      </trkpt>
      <trkpt lat="48.12356" lon="4.56599">
        <ele>327</ele>
        <time>2024-07-03T11:22:14Z</time>
      </trkpt>
      <trkpt lat="48.12559" lon="4.56578">
        <ele>324</ele>
        <time>2024-07-03T11:22:50Z</time>
      </trkpt>
      <trkpt lat="48.12778" lon="4.56616">
        <ele>327</ele>
        <time>2024-07-03T11:23:30Z</time>
      </trkpt>
      <trkpt lat="48.13174" lon="4.56716">
        <ele>310</ele>
        <time>2024-07-03T11:24:41Z</time>
      </trkpt>
      <trkpt lat="48.13517" lon="4.56642">
        <ele>296</ele>
        <time>2024-07-03T11:25:43Z</time>
      </trkpt>
      <trkpt lat="48.13783" lon="4.56789">
        <ele>256</ele>
        <time>2024-07-03T11:26:33Z</time>
      </trkpt>
      <trkpt lat="48.13967" lon="4.56927">
        <ele>245</ele>
        <time>2024-07-03T11:27:10Z</time>
      </trkpt>
      <trkpt lat="48.13975" lon="4.5693">
        <ele>245</ele>
        <time>2024-07-03T11:27:11Z</time>
      </trkpt>
      <trkpt lat="48.14002" lon="4.56929">
        <ele>244</ele>
        <time>2024-07-03T11:27:16Z</time>
      </trkpt>
      <trkpt lat="48.1408" lon="4.56916">
        <ele>238</ele>
        <time>2024-07-03T11:27:30Z</time>
      </trkpt>
      <trkpt lat="48.14184" lon="4.56918">
        <ele>233</ele>
        <time>2024-07-03T11:27:49Z</time>
      </trkpt>
      <trkpt lat="48.14254" lon="4.56886">
        <ele>229</ele>
        <time>2024-07-03T11:28:02Z</time>
      </trkpt>
      <trkpt lat="48.14287" lon="4.56863">
        <ele>228</ele>
        <time>2024-07-03T11:28:08Z</time>
      </trkpt>
      <trkpt lat="48.14549" lon="4.56959">
        <ele>230</ele>
        <time>2024-07-03T11:28:56Z</time>
      </trkpt>
      <trkpt lat="48.14644" lon="4.57486">
        <ele>256</ele>
        <time>2024-07-03T11:30:01Z</time>
      </trkpt>
      <trkpt lat="48.14752" lon="4.5777">
        <ele>271</ele>
        <time>2024-07-03T11:30:40Z</time>
      </trkpt>
      <trkpt lat="48.14887" lon="4.58115">
        <ele>296</ele>
        <time>2024-07-03T11:31:27Z</time>
      </trkpt>
      <trkpt lat="48.14996" lon="4.58561">
        <ele>296</ele>
        <time>2024-07-03T11:32:24Z</time>
      </trkpt>
      <trkpt lat="48.1506" lon="4.58558">
        <ele>299</ele>
        <time>2024-07-03T11:32:35Z</time>
      </trkpt>
      <trkpt lat="48.15081" lon="4.58568">
        <ele>299</ele>
        <time>2024-07-03T11:32:39Z</time>
      </trkpt>
      <trkpt lat="48.15102" lon="4.58602">
        <ele>300</ele>
        <time>2024-07-03T11:32:44Z</time>
      </trkpt>
      <trkpt lat="48.15114" lon="4.58617">
        <ele>300</ele>
        <time>2024-07-03T11:32:47Z</time>
      </trkpt>
      <trkpt lat="48.15179" lon="4.58661">
        <ele>303</ele>
        <time>2024-07-03T11:33:00Z</time>
      </trkpt>
      <trkpt lat="48.15298" lon="4.5873">
        <ele>305</ele>
        <time>2024-07-03T11:33:23Z</time>
      </trkpt>
      <trkpt lat="48.15358" lon="4.58776">
        <ele>305</ele>
        <time>2024-07-03T11:33:35Z</time>
      </trkpt>
      <trkpt lat="48.15387" lon="4.58807">
        <ele>304</ele>
        <time>2024-07-03T11:33:41Z</time>
      </trkpt>
      <trkpt lat="48.15445" lon="4.58887">
        <ele>306</ele>
        <time>2024-07-03T11:33:55Z</time>
      </trkpt>
      <trkpt lat="48.15464" lon="4.58919">
        <ele>307</ele>
        <time>2024-07-03T11:34:00Z</time>
      </trkpt>
      <trkpt lat="48.15531" lon="4.59048">
        <ele>312</ele>
        <time>2024-07-03T11:34:19Z</time>
      </trkpt>
      <trkpt lat="48.15623" lon="4.59194">
        <ele>311</ele>
        <time>2024-07-03T11:34:43Z</time>
      </trkpt>
      <trkpt lat="48.15849" lon="4.59797">
        <ele>309</ele>
        <time>2024-07-03T11:36:05Z</time>
      </trkpt>
      <trkpt lat="48.16309" lon="4.60183">
        <ele>311</ele>
        <time>2024-07-03T11:37:39Z</time>
      </trkpt>
      <trkpt lat="48.16634" lon="4.60872">
        <ele>289</ele>
        <time>2024-07-03T11:39:19Z</time>
      </trkpt>
      <trkpt lat="48.16958" lon="4.61196">
        <ele>240</ele>
        <time>2024-07-03T11:40:29Z</time>
      </trkpt>
      <trkpt lat="48.1701" lon="4.61239">
        <ele>236</ele>
        <time>2024-07-03T11:40:39Z</time>
      </trkpt>
      <trkpt lat="48.17027" lon="4.61249">
        <ele>234</ele>
        <time>2024-07-03T11:40:42Z</time>
      </trkpt>
      <trkpt lat="48.1708" lon="4.61291">
        <ele>228</ele>
        <time>2024-07-03T11:40:53Z</time>
      </trkpt>
      <trkpt lat="48.17121" lon="4.61561">
        <ele>219</ele>
        <time>2024-07-03T11:41:26Z</time>
      </trkpt>
      <trkpt lat="48.1711" lon="4.61637">
        <ele>218</ele>
        <time>2024-07-03T11:41:35Z</time>
      </trkpt>
      <trkpt lat="48.1713" lon="4.61656">
        <ele>217</ele>
        <time>2024-07-03T11:41:39Z</time>
      </trkpt>
      <trkpt lat="48.17149" lon="4.61682">
        <ele>217</ele>
        <time>2024-07-03T11:41:44Z</time>
      </trkpt>
      <trkpt lat="48.17188" lon="4.61692">
        <ele>218</ele>
        <time>2024-07-03T11:41:51Z</time>
      </trkpt>
      <trkpt lat="48.17212" lon="4.61695">
        <ele>219</ele>
        <time>2024-07-03T11:41:55Z</time>
      </trkpt>
      <trkpt lat="48.17228" lon="4.61689">
        <ele>219</ele>
        <time>2024-07-03T11:41:58Z</time>
      </trkpt>
      <trkpt lat="48.17242" lon="4.61674">
        <ele>220</ele>
        <time>2024-07-03T11:42:01Z</time>
      </trkpt>
      <trkpt lat="48.17367" lon="4.61459">
        <ele>227</ele>
        <time>2024-07-03T11:42:35Z</time>
      </trkpt>
      <trkpt lat="48.17574" lon="4.61569">
        <ele>244</ele>
        <time>2024-07-03T11:43:14Z</time>
      </trkpt>
      <trkpt lat="48.17831" lon="4.61632">
        <ele>281</ele>
        <time>2024-07-03T11:44:00Z</time>
      </trkpt>
      <trkpt lat="48.1796" lon="4.61781">
        <ele>294</ele>
        <time>2024-07-03T11:44:29Z</time>
      </trkpt>
      <trkpt lat="48.18157" lon="4.61856">
        <ele>308</ele>
        <time>2024-07-03T11:45:06Z</time>
      </trkpt>
      <trkpt lat="48.18322" lon="4.61845">
        <ele>304</ele>
        <time>2024-07-03T11:45:35Z</time>
      </trkpt>
      <trkpt lat="48.18514" lon="4.61779">
        <ele>290</ele>
        <time>2024-07-03T11:46:10Z</time>
      </trkpt>
      <trkpt lat="48.18743" lon="4.6187">
        <ele>286</ele>
        <time>2024-07-03T11:46:52Z</time>
      </trkpt>
      <trkpt lat="48.1908" lon="4.61928">
        <ele>277</ele>
        <time>2024-07-03T11:47:53Z</time>
      </trkpt>
      <trkpt lat="48.19275" lon="4.62141">
        <ele>264</ele>
        <time>2024-07-03T11:48:35Z</time>
      </trkpt>
      <trkpt lat="48.19517" lon="4.62252">
        <ele>249</ele>
        <time>2024-07-03T11:49:20Z</time>
      </trkpt>
      <trkpt lat="48.19629" lon="4.62371">
        <ele>224</ele>
        <time>2024-07-03T11:49:45Z</time>
      </trkpt>
      <trkpt lat="48.19803" lon="4.62355">
        <ele>210</ele>
        <time>2024-07-03T11:50:16Z</time>
      </trkpt>
      <trkpt lat="48.2006" lon="4.6243">
        <ele>197</ele>
        <time>2024-07-03T11:51:03Z</time>
      </trkpt>
      <trkpt lat="48.2019" lon="4.62336">
        <ele>201</ele>
        <time>2024-07-03T11:51:28Z</time>
      </trkpt>
      <trkpt lat="48.20261" lon="4.62352">
        <ele>200</ele>
        <time>2024-07-03T11:51:41Z</time>
      </trkpt>
      <trkpt lat="48.20307" lon="4.62124">
        <ele>199</ele>
        <time>2024-07-03T11:52:09Z</time>
      </trkpt>
      <trkpt lat="48.20354" lon="4.6206">
        <ele>203</ele>
        <time>2024-07-03T11:52:21Z</time>
      </trkpt>
      <trkpt lat="48.20468" lon="4.62106">
        <ele>208</ele>
        <time>2024-07-03T11:52:42Z</time>
      </trkpt>
      <trkpt lat="48.20455" lon="4.61907">
        <ele>226</ele>
        <time>2024-07-03T11:53:05Z</time>
      </trkpt>
      <trkpt lat="48.20538" lon="4.61891">
        <ele>234</ele>
        <time>2024-07-03T11:53:20Z</time>
      </trkpt>
      <trkpt lat="48.20593" lon="4.61509">
        <ele>252</ele>
        <time>2024-07-03T11:54:06Z</time>
      </trkpt>
      <trkpt lat="48.20749" lon="4.61126">
        <ele>258</ele>
        <time>2024-07-03T11:55:00Z</time>
      </trkpt>
      <trkpt lat="48.20763" lon="4.60958">
        <ele>259</ele>
        <time>2024-07-03T11:55:20Z</time>
      </trkpt>
      <trkpt lat="48.20875" lon="4.60933">
        <ele>260</ele>
        <time>2024-07-03T11:55:40Z</time>
      </trkpt>
      <trkpt lat="48.20916" lon="4.60863">
        <ele>260</ele>
        <time>2024-07-03T11:55:51Z</time>
      </trkpt>
      <trkpt lat="48.20966" lon="4.60818">
        <ele>259</ele>
        <time>2024-07-03T11:56:01Z</time>
      </trkpt>
      <trkpt lat="48.21014" lon="4.60744">
        <ele>255</ele>
        <time>2024-07-03T11:56:14Z</time>
      </trkpt>
      <trkpt lat="48.21046" lon="4.60666">
        <ele>250</ele>
        <time>2024-07-03T11:56:24Z</time>
      </trkpt>
      <trkpt lat="48.21098" lon="4.60573">
        <ele>244</ele>
        <time>2024-07-03T11:56:39Z</time>
      </trkpt>
      <trkpt lat="48.21157" lon="4.60516">
        <ele>239</ele>
        <time>2024-07-03T11:56:51Z</time>
      </trkpt>
      <trkpt lat="48.21212" lon="4.60481">
        <ele>232</ele>
        <time>2024-07-03T11:57:02Z</time>
      </trkpt>
      <trkpt lat="48.2128" lon="4.60446">
        <ele>223</ele>
        <time>2024-07-03T11:57:15Z</time>
      </trkpt>
      <trkpt lat="48.21513" lon="4.60134">
        <ele>205</ele>
        <time>2024-07-03T11:58:10Z</time>
      </trkpt>
      <trkpt lat="48.21695" lon="4.61096">
        <ele>209</ele>
        <time>2024-07-03T12:00:09Z</time>
      </trkpt>
      <trkpt lat="48.21715" lon="4.61296">
        <ele>214</ele>
        <time>2024-07-03T12:00:33Z</time>
      </trkpt>
      <trkpt lat="48.21732" lon="4.614">
        <ele>213</ele>
        <time>2024-07-03T12:00:46Z</time>
      </trkpt>
      <trkpt lat="48.21768" lon="4.61556">
        <ele>213</ele>
        <time>2024-07-03T12:01:05Z</time>
      </trkpt>
      <trkpt lat="48.21773" lon="4.61649">
        <ele>212</ele>
        <time>2024-07-03T12:01:16Z</time>
      </trkpt>
      <trkpt lat="48.21793" lon="4.61778">
        <ele>211</ele>
        <time>2024-07-03T12:01:32Z</time>
      </trkpt>
      <trkpt lat="48.21814" lon="4.61862">
        <ele>208</ele>
        <time>2024-07-03T12:01:43Z</time>
      </trkpt>
      <trkpt lat="48.21888" lon="4.62014">
        <ele>201</ele>
        <time>2024-07-03T12:02:05Z</time>
      </trkpt>
      <trkpt lat="48.21901" lon="4.62028">
        <ele>200</ele>
        <time>2024-07-03T12:02:08Z</time>
      </trkpt>
      <trkpt lat="48.22018" lon="4.62094">
        <ele>197</ele>
        <time>2024-07-03T12:02:30Z</time>
      </trkpt>
      <trkpt lat="48.22108" lon="4.6212">
        <ele>197</ele>
        <time>2024-07-03T12:02:46Z</time>
      </trkpt>
      <trkpt lat="48.22181" lon="4.62117">
        <ele>198</ele>
        <time>2024-07-03T12:02:59Z</time>
      </trkpt>
      <trkpt lat="48.22365" lon="4.62038">
        <ele>203</ele>
        <time>2024-07-03T12:03:33Z</time>
      </trkpt>
      <trkpt lat="48.22502" lon="4.61949">
        <ele>208</ele>
        <time>2024-07-03T12:04:00Z</time>
      </trkpt>
      <trkpt lat="48.2257" lon="4.619">
        <ele>209</ele>
        <time>2024-07-03T12:04:13Z</time>
      </trkpt>
      <trkpt lat="48.22706" lon="4.61848">
        <ele>195</ele>
        <time>2024-07-03T12:04:38Z</time>
      </trkpt>
      <trkpt lat="48.22689" lon="4.61968">
        <ele>183</ele>
        <time>2024-07-03T12:04:53Z</time>
      </trkpt>
      <trkpt lat="48.2267" lon="4.62059">
        <ele>179</ele>
        <time>2024-07-03T12:05:04Z</time>
      </trkpt>
      <trkpt lat="48.22608" lon="4.62541">
        <ele>176</ele>
        <time>2024-07-03T12:06:02Z</time>
      </trkpt>
      <trkpt lat="48.22605" lon="4.62583">
        <ele>177</ele>
        <time>2024-07-03T12:06:07Z</time>
      </trkpt>
      <trkpt lat="48.22563" lon="4.62621">
        <ele>177</ele>
        <time>2024-07-03T12:06:16Z</time>
      </trkpt>
      <trkpt lat="48.22603" lon="4.62604">
        <ele>177</ele>
        <time>2024-07-03T12:06:23Z</time>
      </trkpt>
      <trkpt lat="48.22596" lon="4.62741">
        <ele>178</ele>
        <time>2024-07-03T12:06:40Z</time>
      </trkpt>
      <trkpt lat="48.22599" lon="4.63155">
        <ele>211</ele>
        <time>2024-07-03T12:07:29Z</time>
      </trkpt>
      <trkpt lat="48.22659" lon="4.63395">
        <ele>234</ele>
        <time>2024-07-03T12:07:59Z</time>
      </trkpt>
      <trkpt lat="48.22723" lon="4.63579">
        <ele>251</ele>
        <time>2024-07-03T12:08:24Z</time>
      </trkpt>
      <trkpt lat="48.22737" lon="4.63634">
        <ele>255</ele>
        <time>2024-07-03T12:08:31Z</time>
      </trkpt>
      <trkpt lat="48.22697" lon="4.6384">
        <ele>268</ele>
        <time>2024-07-03T12:08:56Z</time>
      </trkpt>
      <trkpt lat="48.22466" lon="4.64292">
        <ele>284</ele>
        <time>2024-07-03T12:10:04Z</time>
      </trkpt>
      <trkpt lat="48.22376" lon="4.64625">
        <ele>293</ele>
        <time>2024-07-03T12:10:46Z</time>
      </trkpt>
      <trkpt lat="48.22333" lon="4.648">
        <ele>289</ele>
        <time>2024-07-03T12:11:08Z</time>
      </trkpt>
      <trkpt lat="48.22303" lon="4.64969">
        <ele>279</ele>
        <time>2024-07-03T12:11:29Z</time>
      </trkpt>
      <trkpt lat="48.22262" lon="4.65234">
        <ele>283</ele>
        <time>2024-07-03T12:12:01Z</time>
      </trkpt>
      <trkpt lat="48.22263" lon="4.65224">
        <ele>282</ele>
        <time>2024-07-03T12:12:03Z</time>
      </trkpt>
      <trkpt lat="48.22247" lon="4.65384">
        <ele>292</ele>
        <time>2024-07-03T12:12:22Z</time>
      </trkpt>
      <trkpt lat="48.2214" lon="4.66">
        <ele>297</ele>
        <time>2024-07-03T12:13:37Z</time>
      </trkpt>
      <trkpt lat="48.22149" lon="4.66132">
        <ele>293</ele>
        <time>2024-07-03T12:13:53Z</time>
      </trkpt>
      <trkpt lat="48.22165" lon="4.66255">
        <ele>298</ele>
        <time>2024-07-03T12:14:08Z</time>
      </trkpt>
      <trkpt lat="48.22179" lon="4.66441">
        <ele>308</ele>
        <time>2024-07-03T12:14:30Z</time>
      </trkpt>
      <trkpt lat="48.22218" lon="4.66545">
        <ele>309</ele>
        <time>2024-07-03T12:14:44Z</time>
      </trkpt>
      <trkpt lat="48.22361" lon="4.66841">
        <ele>303</ele>
        <time>2024-07-03T12:15:27Z</time>
      </trkpt>
      <trkpt lat="48.22478" lon="4.67152">
        <ele>308</ele>
        <time>2024-07-03T12:16:10Z</time>
      </trkpt>
      <trkpt lat="48.22746" lon="4.67654">
        <ele>303</ele>
        <time>2024-07-03T12:17:26Z</time>
      </trkpt>
      <trkpt lat="48.22802" lon="4.67996">
        <ele>295</ele>
        <time>2024-07-03T12:18:08Z</time>
      </trkpt>
      <trkpt lat="48.22824" lon="4.68164">
        <ele>279</ele>
        <time>2024-07-03T12:18:28Z</time>
      </trkpt>
      <trkpt lat="48.22844" lon="4.68178">
        <ele>277</ele>
        <time>2024-07-03T12:18:32Z</time>
      </trkpt>
      <trkpt lat="48.22902" lon="4.68147">
        <ele>280</ele>
        <time>2024-07-03T12:18:43Z</time>
      </trkpt>
      <trkpt lat="48.22925" lon="4.68155">
        <ele>279</ele>
        <time>2024-07-03T12:18:47Z</time>
      </trkpt>
      <trkpt lat="48.22945" lon="4.68182">
        <ele>277</ele>
        <time>2024-07-03T12:18:52Z</time>
      </trkpt>
      <trkpt lat="48.22981" lon="4.68291">
        <ele>265</ele>
        <time>2024-07-03T12:19:06Z</time>
      </trkpt>
      <trkpt lat="48.22998" lon="4.68454">
        <ele>248</ele>
        <time>2024-07-03T12:19:26Z</time>
      </trkpt>
      <trkpt lat="48.22995" lon="4.68512">
        <ele>239</ele>
        <time>2024-07-03T12:19:33Z</time>
      </trkpt>
      <trkpt lat="48.23016" lon="4.68635">
        <ele>226</ele>
        <time>2024-07-03T12:19:48Z</time>
      </trkpt>
      <trkpt lat="48.23033" lon="4.68792">
        <ele>207</ele>
        <time>2024-07-03T12:20:07Z</time>
      </trkpt>
      <trkpt lat="48.23049" lon="4.68871">
        <ele>198</ele>
        <time>2024-07-03T12:20:17Z</time>
      </trkpt>
      <trkpt lat="48.23066" lon="4.68927">
        <ele>191</ele>
        <time>2024-07-03T12:20:24Z</time>
      </trkpt>
      <trkpt lat="48.23082" lon="4.68964">
        <ele>188</ele>
        <time>2024-07-03T12:20:29Z</time>
      </trkpt>
      <trkpt lat="48.23096" lon="4.68988">
        <ele>184</ele>
        <time>2024-07-03T12:20:33Z</time>
      </trkpt>
      <trkpt lat="48.23144" lon="4.69056">
        <ele>177</ele>
        <time>2024-07-03T12:20:45Z</time>
      </trkpt>
      <trkpt lat="48.23157" lon="4.69085">
        <ele>174</ele>
        <time>2024-07-03T12:20:49Z</time>
      </trkpt>
      <trkpt lat="48.23172" lon="4.6915">
        <ele>172</ele>
        <time>2024-07-03T12:20:57Z</time>
      </trkpt>
      <trkpt lat="48.23146" lon="4.69246">
        <ele>171</ele>
        <time>2024-07-03T12:21:09Z</time>
      </trkpt>
      <trkpt lat="48.2314" lon="4.69281">
        <ele>171</ele>
        <time>2024-07-03T12:21:13Z</time>
      </trkpt>
      <trkpt lat="48.23137" lon="4.69375">
        <ele>171</ele>
        <time>2024-07-03T12:21:25Z</time>
      </trkpt>
      <trkpt lat="48.23143" lon="4.69466">
        <ele>171</ele>
        <time>2024-07-03T12:21:35Z</time>
      </trkpt>
      <trkpt lat="48.23157" lon="4.69568">
        <ele>169</ele>
        <time>2024-07-03T12:21:48Z</time>
      </trkpt>
      <trkpt lat="48.23157" lon="4.69588">
        <ele>168</ele>
        <time>2024-07-03T12:21:50Z</time>
      </trkpt>
      <trkpt lat="48.23141" lon="4.69723">
        <ele>167</ele>
        <time>2024-07-03T12:22:06Z</time>
      </trkpt>
      <trkpt lat="48.23123" lon="4.69791">
        <ele>166</ele>
        <time>2024-07-03T12:22:15Z</time>
      </trkpt>
      <trkpt lat="48.23082" lon="4.69854">
        <ele>166</ele>
        <time>2024-07-03T12:22:26Z</time>
      </trkpt>
      <trkpt lat="48.23079" lon="4.69862">
        <ele>166</ele>
        <time>2024-07-03T12:22:27Z</time>
      </trkpt>
      <trkpt lat="48.23069" lon="4.69936">
        <ele>166</ele>
        <time>2024-07-03T12:22:36Z</time>
      </trkpt>
      <trkpt lat="48.23005" lon="4.70179">
        <ele>171</ele>
        <time>2024-07-03T12:23:07Z</time>
      </trkpt>
      <trkpt lat="48.22981" lon="4.70308">
        <ele>170</ele>
        <time>2024-07-03T12:23:22Z</time>
      </trkpt>
      <trkpt lat="48.22982" lon="4.70322">
        <ele>170</ele>
        <time>2024-07-03T12:23:24Z</time>
      </trkpt>
      <trkpt lat="48.2303" lon="4.70388">
        <ele>167</ele>
        <time>2024-07-03T12:23:36Z</time>
      </trkpt>
      <trkpt lat="48.23059" lon="4.70418">
        <ele>166</ele>
        <time>2024-07-03T12:23:42Z</time>
      </trkpt>
      <trkpt lat="48.23066" lon="4.70422">
        <ele>166</ele>
        <time>2024-07-03T12:23:43Z</time>
      </trkpt>
      <trkpt lat="48.2314" lon="4.70442">
        <ele>167</ele>
        <time>2024-07-03T12:23:57Z</time>
      </trkpt>
      <trkpt lat="48.23202" lon="4.70498">
        <ele>168</ele>
        <time>2024-07-03T12:24:09Z</time>
      </trkpt>
      <trkpt lat="48.23291" lon="4.70593">
        <ele>170</ele>
        <time>2024-07-03T12:24:29Z</time>
      </trkpt>
      <trkpt lat="48.2333" lon="4.70644">
        <ele>170</ele>
        <time>2024-07-03T12:24:38Z</time>
        <extensions>
          <visugpx:TrkExtension xmlns:visugpx="https://www.visugpx.com/editgpx/">
            <visugpx:node>1</visugpx:node>
            </visugpx:TrkExtension>
        </extensions>
      </trkpt>
    </trkseg>
  </trk>
  <trk>
    <name><![CDATA[45. Circuit de Bayel-17237801]]></name>
    <extensions>
      <line xmlns="http://www.topografix.com/GPX/gpx_style/0/2">
        <color>009dff</color>
        <width>4</width>
      </line>
    </extensions>
    <trkseg>
      <trkpt lat="48.19563" lon="4.77592">
        <ele>195</ele>
        <time>2024-07-03T07:53:40Z</time>
      </trkpt>
      <trkpt lat="48.19566" lon="4.77592">
        <ele>195</ele>
        <time>2024-07-03T07:53:41Z</time>
      </trkpt>
      <trkpt lat="48.1957" lon="4.77588">
        <ele>195</ele>
        <time>2024-07-03T07:53:41Z</time>
      </trkpt>
      <trkpt lat="48.19573" lon="4.77579">
        <ele>194</ele>
        <time>2024-07-03T07:53:43Z</time>
      </trkpt>
      <trkpt lat="48.19573" lon="4.77574">
        <ele>194</ele>
        <time>2024-07-03T07:53:43Z</time>
      </trkpt>
      <trkpt lat="48.19588" lon="4.77573">
        <ele>194</ele>
        <time>2024-07-03T07:53:46Z</time>
      </trkpt>
      <trkpt lat="48.19597" lon="4.7757">
        <ele>194</ele>
        <time>2024-07-03T07:53:47Z</time>
      </trkpt>
      <trkpt lat="48.19625" lon="4.77556">
        <ele>195</ele>
        <time>2024-07-03T07:53:53Z</time>
      </trkpt>
      <trkpt lat="48.1965" lon="4.77549">
        <ele>195</ele>
        <time>2024-07-03T07:53:57Z</time>
      </trkpt>
      <trkpt lat="48.19666" lon="4.7755">
        <ele>195</ele>
        <time>2024-07-03T07:54:00Z</time>
      </trkpt>
      <trkpt lat="48.19683" lon="4.77558">
        <ele>195</ele>
        <time>2024-07-03T07:54:03Z</time>
      </trkpt>
      <trkpt lat="48.19725" lon="4.77567">
        <ele>195</ele>
        <time>2024-07-03T07:54:11Z</time>
      </trkpt>
      <trkpt lat="48.1974" lon="4.77574">
        <ele>195</ele>
        <time>2024-07-03T07:54:14Z</time>
      </trkpt>
      <trkpt lat="48.19766" lon="4.77581">
        <ele>195</ele>
        <time>2024-07-03T07:54:18Z</time>
      </trkpt>
      <trkpt lat="48.19851" lon="4.77692">
        <ele>192</ele>
        <time>2024-07-03T07:54:38Z</time>
      </trkpt>
      <trkpt lat="48.19875" lon="4.7771">
        <ele>190</ele>
        <time>2024-07-03T07:54:43Z</time>
      </trkpt>
      <trkpt lat="48.19884" lon="4.77727">
        <ele>190</ele>
        <time>2024-07-03T07:54:46Z</time>
      </trkpt>
      <trkpt lat="48.1989" lon="4.7775">
        <ele>189</ele>
        <time>2024-07-03T07:54:49Z</time>
      </trkpt>
      <trkpt lat="48.1989" lon="4.7776">
        <ele>189</ele>
        <time>2024-07-03T07:54:50Z</time>
      </trkpt>
      <trkpt lat="48.19874" lon="4.77812">
        <ele>186</ele>
        <time>2024-07-03T07:54:57Z</time>
      </trkpt>
      <trkpt lat="48.19868" lon="4.77827">
        <ele>185</ele>
        <time>2024-07-03T07:54:59Z</time>
      </trkpt>
      <trkpt lat="48.19853" lon="4.77852">
        <ele>183</ele>
        <time>2024-07-03T07:55:03Z</time>
      </trkpt>
      <trkpt lat="48.1982" lon="4.77889">
        <ele>182</ele>
        <time>2024-07-03T07:55:10Z</time>
      </trkpt>
      <trkpt lat="48.19817" lon="4.77898">
        <ele>182</ele>
        <time>2024-07-03T07:55:11Z</time>
      </trkpt>
      <trkpt lat="48.19818" lon="4.77964">
        <ele>179</ele>
        <time>2024-07-03T07:55:19Z</time>
      </trkpt>
      <trkpt lat="48.19811" lon="4.78077">
        <ele>175</ele>
        <time>2024-07-03T07:55:33Z</time>
      </trkpt>
      <trkpt lat="48.19805" lon="4.78091">
        <ele>175</ele>
        <time>2024-07-03T07:55:34Z</time>
      </trkpt>
      <trkpt lat="48.198" lon="4.78097">
        <ele>175</ele>
        <time>2024-07-03T07:55:36Z</time>
      </trkpt>
      <trkpt lat="48.19778" lon="4.78108">
        <ele>175</ele>
        <time>2024-07-03T07:55:40Z</time>
      </trkpt>
      <trkpt lat="48.19764" lon="4.78119">
        <ele>175</ele>
        <time>2024-07-03T07:55:43Z</time>
      </trkpt>
      <trkpt lat="48.1975" lon="4.78134">
        <ele>175</ele>
        <time>2024-07-03T07:55:46Z</time>
      </trkpt>
      <trkpt lat="48.19742" lon="4.78146">
        <ele>175</ele>
        <time>2024-07-03T07:55:48Z</time>
      </trkpt>
      <trkpt lat="48.19732" lon="4.78167">
        <ele>175</ele>
        <time>2024-07-03T07:55:51Z</time>
      </trkpt>
      <trkpt lat="48.19726" lon="4.78204">
        <ele>176</ele>
        <time>2024-07-03T07:55:55Z</time>
      </trkpt>
      <trkpt lat="48.19726" lon="4.78217">
        <ele>176</ele>
        <time>2024-07-03T07:55:57Z</time>
      </trkpt>
      <trkpt lat="48.19734" lon="4.78287">
        <ele>177</ele>
        <time>2024-07-03T07:56:05Z</time>
      </trkpt>
      <trkpt lat="48.19745" lon="4.78355">
        <ele>178</ele>
        <time>2024-07-03T07:56:13Z</time>
      </trkpt>
      <trkpt lat="48.1975" lon="4.78383">
        <ele>178</ele>
        <time>2024-07-03T07:56:17Z</time>
      </trkpt>
      <trkpt lat="48.19767" lon="4.78454">
        <ele>178</ele>
        <time>2024-07-03T07:56:26Z</time>
      </trkpt>
      <trkpt lat="48.19777" lon="4.78516">
        <ele>178</ele>
        <time>2024-07-03T07:56:33Z</time>
      </trkpt>
      <trkpt lat="48.19783" lon="4.7854">
        <ele>178</ele>
        <time>2024-07-03T07:56:36Z</time>
      </trkpt>
      <trkpt lat="48.19781" lon="4.78557">
        <ele>179</ele>
        <time>2024-07-03T07:56:39Z</time>
      </trkpt>
      <trkpt lat="48.19781" lon="4.78584">
        <ele>179</ele>
        <time>2024-07-03T07:56:42Z</time>
      </trkpt>
      <trkpt lat="48.19783" lon="4.78603">
        <ele>179</ele>
        <time>2024-07-03T07:56:44Z</time>
      </trkpt>
      <trkpt lat="48.19782" lon="4.78626">
        <ele>180</ele>
        <time>2024-07-03T07:56:47Z</time>
      </trkpt>
      <trkpt lat="48.19777" lon="4.78636">
        <ele>180</ele>
        <time>2024-07-03T07:56:48Z</time>
      </trkpt>
      <trkpt lat="48.19761" lon="4.78644">
        <ele>181</ele>
        <time>2024-07-03T07:56:51Z</time>
      </trkpt>
      <trkpt lat="48.19695" lon="4.78645">
        <ele>183</ele>
        <time>2024-07-03T07:57:03Z</time>
      </trkpt>
      <trkpt lat="48.19665" lon="4.78643">
        <ele>183</ele>
        <time>2024-07-03T07:57:08Z</time>
      </trkpt>
      <trkpt lat="48.19649" lon="4.78646">
        <ele>183</ele>
        <time>2024-07-03T07:57:11Z</time>
      </trkpt>
      <trkpt lat="48.19615" lon="4.78663">
        <ele>183</ele>
        <time>2024-07-03T07:57:18Z</time>
      </trkpt>
      <trkpt lat="48.19608" lon="4.78677">
        <ele>183</ele>
        <time>2024-07-03T07:57:20Z</time>
      </trkpt>
      <trkpt lat="48.19583" lon="4.78738">
        <ele>185</ele>
        <time>2024-07-03T07:57:28Z</time>
      </trkpt>
      <trkpt lat="48.19566" lon="4.78794">
        <ele>186</ele>
        <time>2024-07-03T07:57:35Z</time>
      </trkpt>
      <trkpt lat="48.1955" lon="4.78856">
        <ele>188</ele>
        <time>2024-07-03T07:57:43Z</time>
      </trkpt>
      <trkpt lat="48.19547" lon="4.7889">
        <ele>190</ele>
        <time>2024-07-03T07:57:47Z</time>
      </trkpt>
      <trkpt lat="48.19547" lon="4.78913">
        <ele>190</ele>
        <time>2024-07-03T07:57:50Z</time>
      </trkpt>
      <trkpt lat="48.19541" lon="4.78968">
        <ele>194</ele>
        <time>2024-07-03T07:57:57Z</time>
      </trkpt>
      <trkpt lat="48.19534" lon="4.78992">
        <ele>195</ele>
        <time>2024-07-03T07:58:00Z</time>
      </trkpt>
      <trkpt lat="48.19509" lon="4.79061">
        <ele>201</ele>
        <time>2024-07-03T07:58:09Z</time>
      </trkpt>
      <trkpt lat="48.19507" lon="4.79072">
        <ele>201</ele>
        <time>2024-07-03T07:58:10Z</time>
      </trkpt>
      <trkpt lat="48.19505" lon="4.79098">
        <ele>204</ele>
        <time>2024-07-03T07:58:14Z</time>
      </trkpt>
      <trkpt lat="48.19505" lon="4.79173">
        <ele>210</ele>
        <time>2024-07-03T07:58:22Z</time>
      </trkpt>
      <trkpt lat="48.19499" lon="4.79212">
        <ele>211</ele>
        <time>2024-07-03T07:58:27Z</time>
      </trkpt>
      <trkpt lat="48.19492" lon="4.79231">
        <ele>212</ele>
        <time>2024-07-03T07:58:30Z</time>
      </trkpt>
      <trkpt lat="48.19469" lon="4.79272">
        <ele>213</ele>
        <time>2024-07-03T07:58:36Z</time>
      </trkpt>
      <trkpt lat="48.19458" lon="4.79302">
        <ele>214</ele>
        <time>2024-07-03T07:58:40Z</time>
      </trkpt>
      <trkpt lat="48.1945" lon="4.79329">
        <ele>215</ele>
        <time>2024-07-03T07:58:44Z</time>
      </trkpt>
      <trkpt lat="48.19432" lon="4.79406">
        <ele>217</ele>
        <time>2024-07-03T07:58:53Z</time>
      </trkpt>
      <trkpt lat="48.1943" lon="4.79427">
        <ele>218</ele>
        <time>2024-07-03T07:58:56Z</time>
      </trkpt>
      <trkpt lat="48.1943" lon="4.7945">
        <ele>220</ele>
        <time>2024-07-03T07:58:59Z</time>
      </trkpt>
      <trkpt lat="48.19439" lon="4.7951">
        <ele>225</ele>
        <time>2024-07-03T07:59:06Z</time>
      </trkpt>
      <trkpt lat="48.19441" lon="4.79566">
        <ele>230</ele>
        <time>2024-07-03T07:59:13Z</time>
      </trkpt>
      <trkpt lat="48.19444" lon="4.79589">
        <ele>231</ele>
        <time>2024-07-03T07:59:15Z</time>
      </trkpt>
      <trkpt lat="48.19461" lon="4.7965">
        <ele>235</ele>
        <time>2024-07-03T07:59:23Z</time>
      </trkpt>
      <trkpt lat="48.19463" lon="4.79663">
        <ele>236</ele>
        <time>2024-07-03T07:59:25Z</time>
      </trkpt>
      <trkpt lat="48.19464" lon="4.7969">
        <ele>238</ele>
        <time>2024-07-03T07:59:28Z</time>
      </trkpt>
      <trkpt lat="48.19462" lon="4.79709">
        <ele>239</ele>
        <time>2024-07-03T07:59:30Z</time>
      </trkpt>
      <trkpt lat="48.19464" lon="4.79749">
        <ele>241</ele>
        <time>2024-07-03T07:59:35Z</time>
      </trkpt>
      <trkpt lat="48.19489" lon="4.79839">
        <ele>247</ele>
        <time>2024-07-03T07:59:47Z</time>
      </trkpt>
      <trkpt lat="48.19489" lon="4.79874">
        <ele>250</ele>
        <time>2024-07-03T07:59:51Z</time>
      </trkpt>
      <trkpt lat="48.19457" lon="4.80006">
        <ele>260</ele>
        <time>2024-07-03T08:00:07Z</time>
      </trkpt>
      <trkpt lat="48.19441" lon="4.80028">
        <ele>262</ele>
        <time>2024-07-03T08:00:11Z</time>
      </trkpt>
      <trkpt lat="48.19424" lon="4.80045">
        <ele>264</ele>
        <time>2024-07-03T08:00:15Z</time>
      </trkpt>
      <trkpt lat="48.19417" lon="4.80057">
        <ele>265</ele>
        <time>2024-07-03T08:00:17Z</time>
      </trkpt>
      <trkpt lat="48.19412" lon="4.80071">
        <ele>266</ele>
        <time>2024-07-03T08:00:19Z</time>
      </trkpt>
      <trkpt lat="48.19398" lon="4.80137">
        <ele>269</ele>
        <time>2024-07-03T08:00:27Z</time>
      </trkpt>
      <trkpt lat="48.19389" lon="4.80193">
        <ele>271</ele>
        <time>2024-07-03T08:00:34Z</time>
      </trkpt>
      <trkpt lat="48.19386" lon="4.80242">
        <ele>273</ele>
        <time>2024-07-03T08:00:40Z</time>
      </trkpt>
      <trkpt lat="48.19388" lon="4.80308">
        <ele>275</ele>
        <time>2024-07-03T08:00:47Z</time>
      </trkpt>
      <trkpt lat="48.19396" lon="4.80366">
        <ele>276</ele>
        <time>2024-07-03T08:00:54Z</time>
      </trkpt>
      <trkpt lat="48.19398" lon="4.8039">
        <ele>276</ele>
        <time>2024-07-03T08:00:57Z</time>
      </trkpt>
      <trkpt lat="48.19397" lon="4.804">
        <ele>276</ele>
        <time>2024-07-03T08:00:59Z</time>
      </trkpt>
      <trkpt lat="48.19376" lon="4.80465">
        <ele>279</ele>
        <time>2024-07-03T08:01:07Z</time>
      </trkpt>
      <trkpt lat="48.19357" lon="4.80551">
        <ele>281</ele>
        <time>2024-07-03T08:01:18Z</time>
      </trkpt>
      <trkpt lat="48.19339" lon="4.80594">
        <ele>282</ele>
        <time>2024-07-03T08:01:24Z</time>
      </trkpt>
      <trkpt lat="48.19285" lon="4.80711">
        <ele>283</ele>
        <time>2024-07-03T08:01:41Z</time>
      </trkpt>
      <trkpt lat="48.19278" lon="4.80737">
        <ele>282</ele>
        <time>2024-07-03T08:01:44Z</time>
      </trkpt>
      <trkpt lat="48.19276" lon="4.80749">
        <ele>282</ele>
        <time>2024-07-03T08:01:46Z</time>
      </trkpt>
      <trkpt lat="48.19275" lon="4.80778">
        <ele>281</ele>
        <time>2024-07-03T08:01:49Z</time>
      </trkpt>
      <trkpt lat="48.19283" lon="4.8097">
        <ele>278</ele>
        <time>2024-07-03T08:02:12Z</time>
      </trkpt>
      <trkpt lat="48.19283" lon="4.81001">
        <ele>278</ele>
        <time>2024-07-03T08:02:15Z</time>
      </trkpt>
      <trkpt lat="48.19281" lon="4.81043">
        <ele>279</ele>
        <time>2024-07-03T08:02:20Z</time>
      </trkpt>
      <trkpt lat="48.19277" lon="4.81081">
        <ele>280</ele>
        <time>2024-07-03T08:02:25Z</time>
      </trkpt>
      <trkpt lat="48.19265" lon="4.81129">
        <ele>280</ele>
        <time>2024-07-03T08:02:31Z</time>
      </trkpt>
      <trkpt lat="48.19236" lon="4.81215">
        <ele>280</ele>
        <time>2024-07-03T08:02:43Z</time>
      </trkpt>
      <trkpt lat="48.19185" lon="4.81417">
        <ele>286</ele>
        <time>2024-07-03T08:03:08Z</time>
      </trkpt>
      <trkpt lat="48.19158" lon="4.81506">
        <ele>288</ele>
        <time>2024-07-03T08:03:20Z</time>
      </trkpt>
      <trkpt lat="48.19141" lon="4.81543">
        <ele>289</ele>
        <time>2024-07-03T08:03:25Z</time>
      </trkpt>
      <trkpt lat="48.19098" lon="4.81614">
        <ele>290</ele>
        <time>2024-07-03T08:03:36Z</time>
      </trkpt>
      <trkpt lat="48.19084" lon="4.81642">
        <ele>291</ele>
        <time>2024-07-03T08:03:41Z</time>
      </trkpt>
      <trkpt lat="48.19078" lon="4.81658">
        <ele>292</ele>
        <time>2024-07-03T08:03:43Z</time>
      </trkpt>
      <trkpt lat="48.19072" lon="4.81689">
        <ele>292</ele>
        <time>2024-07-03T08:03:47Z</time>
      </trkpt>
      <trkpt lat="48.19066" lon="4.81769">
        <ele>292</ele>
        <time>2024-07-03T08:03:56Z</time>
      </trkpt>
      <trkpt lat="48.19062" lon="4.81792">
        <ele>293</ele>
        <time>2024-07-03T08:03:59Z</time>
      </trkpt>
      <trkpt lat="48.19056" lon="4.81809">
        <ele>293</ele>
        <time>2024-07-03T08:04:01Z</time>
      </trkpt>
      <trkpt lat="48.19038" lon="4.81848">
        <ele>293</ele>
        <time>2024-07-03T08:04:07Z</time>
      </trkpt>
      <trkpt lat="48.18989" lon="4.81932">
        <ele>294</ele>
        <time>2024-07-03T08:04:20Z</time>
      </trkpt>
      <trkpt lat="48.18964" lon="4.8198">
        <ele>296</ele>
        <time>2024-07-03T08:04:27Z</time>
      </trkpt>
      <trkpt lat="48.18952" lon="4.8201">
        <ele>297</ele>
        <time>2024-07-03T08:04:31Z</time>
      </trkpt>
      <trkpt lat="48.18933" lon="4.82073">
        <ele>294</ele>
        <time>2024-07-03T08:04:40Z</time>
      </trkpt>
      <trkpt lat="48.18923" lon="4.821">
        <ele>292</ele>
        <time>2024-07-03T08:04:43Z</time>
      </trkpt>
      <trkpt lat="48.18891" lon="4.82152">
        <ele>292</ele>
        <time>2024-07-03T08:04:52Z</time>
      </trkpt>
      <trkpt lat="48.18879" lon="4.82175">
        <ele>291</ele>
        <time>2024-07-03T08:04:55Z</time>
      </trkpt>
      <trkpt lat="48.18864" lon="4.8221">
        <ele>291</ele>
        <time>2024-07-03T08:05:00Z</time>
      </trkpt>
      <trkpt lat="48.18845" lon="4.82273">
        <ele>291</ele>
        <time>2024-07-03T08:05:08Z</time>
      </trkpt>
      <trkpt lat="48.1883" lon="4.82344">
        <ele>294</ele>
        <time>2024-07-03T08:05:17Z</time>
      </trkpt>
      <trkpt lat="48.18816" lon="4.82393">
        <ele>296</ele>
        <time>2024-07-03T08:05:24Z</time>
      </trkpt>
      <trkpt lat="48.18807" lon="4.8241">
        <ele>297</ele>
        <time>2024-07-03T08:05:26Z</time>
      </trkpt>
      <trkpt lat="48.1879" lon="4.82433">
        <ele>298</ele>
        <time>2024-07-03T08:05:30Z</time>
      </trkpt>
      <trkpt lat="48.1866" lon="4.82596">
        <ele>300</ele>
        <time>2024-07-03T08:06:00Z</time>
      </trkpt>
      <trkpt lat="48.18607" lon="4.82644">
        <ele>299</ele>
        <time>2024-07-03T08:06:11Z</time>
      </trkpt>
      <trkpt lat="48.18595" lon="4.8266">
        <ele>299</ele>
        <time>2024-07-03T08:06:14Z</time>
      </trkpt>
      <trkpt lat="48.18569" lon="4.82711">
        <ele>300</ele>
        <time>2024-07-03T08:06:22Z</time>
      </trkpt>
      <trkpt lat="48.18557" lon="4.82743">
        <ele>301</ele>
        <time>2024-07-03T08:06:26Z</time>
      </trkpt>
      <trkpt lat="48.18546" lon="4.8276">
        <ele>302</ele>
        <time>2024-07-03T08:06:29Z</time>
      </trkpt>
      <trkpt lat="48.18519" lon="4.82794">
        <ele>304</ele>
        <time>2024-07-03T08:06:35Z</time>
      </trkpt>
      <trkpt lat="48.18502" lon="4.82812">
        <ele>305</ele>
        <time>2024-07-03T08:06:39Z</time>
      </trkpt>
      <trkpt lat="48.18424" lon="4.82904">
        <ele>309</ele>
        <time>2024-07-03T08:06:57Z</time>
      </trkpt>
      <trkpt lat="48.18402" lon="4.82924">
        <ele>309</ele>
        <time>2024-07-03T08:07:01Z</time>
      </trkpt>
      <trkpt lat="48.1838" lon="4.82937">
        <ele>310</ele>
        <time>2024-07-03T08:07:05Z</time>
      </trkpt>
      <trkpt lat="48.18371" lon="4.82946">
        <ele>310</ele>
        <time>2024-07-03T08:07:07Z</time>
      </trkpt>
      <trkpt lat="48.18358" lon="4.82953">
        <ele>310</ele>
        <time>2024-07-03T08:07:10Z</time>
      </trkpt>
      <trkpt lat="48.18346" lon="4.82958">
        <ele>310</ele>
        <time>2024-07-03T08:07:12Z</time>
      </trkpt>
      <trkpt lat="48.18332" lon="4.82961">
        <ele>311</ele>
        <time>2024-07-03T08:07:14Z</time>
      </trkpt>
      <trkpt lat="48.1832" lon="4.82967">
        <ele>311</ele>
        <time>2024-07-03T08:07:17Z</time>
      </trkpt>
      <trkpt lat="48.18278" lon="4.82982">
        <ele>312</ele>
        <time>2024-07-03T08:07:24Z</time>
      </trkpt>
      <trkpt lat="48.18245" lon="4.82998">
        <ele>313</ele>
        <time>2024-07-03T08:07:31Z</time>
      </trkpt>
      <trkpt lat="48.18236" lon="4.83005">
        <ele>313</ele>
        <time>2024-07-03T08:07:32Z</time>
      </trkpt>
      <trkpt lat="48.18228" lon="4.83012">
        <ele>314</ele>
        <time>2024-07-03T08:07:34Z</time>
      </trkpt>
      <trkpt lat="48.1821" lon="4.83035">
        <ele>314</ele>
        <time>2024-07-03T08:07:38Z</time>
      </trkpt>
      <trkpt lat="48.18202" lon="4.8305">
        <ele>314</ele>
        <time>2024-07-03T08:07:41Z</time>
      </trkpt>
      <trkpt lat="48.1819" lon="4.83058">
        <ele>315</ele>
        <time>2024-07-03T08:07:43Z</time>
      </trkpt>
      <trkpt lat="48.18173" lon="4.83083">
        <ele>316</ele>
        <time>2024-07-03T08:07:47Z</time>
      </trkpt>
      <trkpt lat="48.18156" lon="4.83103">
        <ele>317</ele>
        <time>2024-07-03T08:07:51Z</time>
      </trkpt>
      <trkpt lat="48.18149" lon="4.83115">
        <ele>317</ele>
        <time>2024-07-03T08:07:53Z</time>
      </trkpt>
      <trkpt lat="48.18094" lon="4.83181">
        <ele>322</ele>
        <time>2024-07-03T08:08:05Z</time>
      </trkpt>
      <trkpt lat="48.18081" lon="4.83208">
        <ele>324</ele>
        <time>2024-07-03T08:08:09Z</time>
      </trkpt>
      <trkpt lat="48.18069" lon="4.83257">
        <ele>326</ele>
        <time>2024-07-03T08:08:16Z</time>
      </trkpt>
      <trkpt lat="48.18067" lon="4.83271">
        <ele>326</ele>
        <time>2024-07-03T08:08:17Z</time>
      </trkpt>
      <trkpt lat="48.18068" lon="4.83359">
        <ele>328</ele>
        <time>2024-07-03T08:08:28Z</time>
      </trkpt>
      <trkpt lat="48.18067" lon="4.83382">
        <ele>329</ele>
        <time>2024-07-03T08:08:30Z</time>
      </trkpt>
      <trkpt lat="48.18064" lon="4.83404">
        <ele>330</ele>
        <time>2024-07-03T08:08:33Z</time>
      </trkpt>
      <trkpt lat="48.18058" lon="4.83431">
        <ele>331</ele>
        <time>2024-07-03T08:08:36Z</time>
      </trkpt>
      <trkpt lat="48.18052" lon="4.83449">
        <ele>331</ele>
        <time>2024-07-03T08:08:39Z</time>
      </trkpt>
      <trkpt lat="48.18044" lon="4.83485">
        <ele>332</ele>
        <time>2024-07-03T08:08:43Z</time>
      </trkpt>
      <trkpt lat="48.18039" lon="4.8354">
        <ele>332</ele>
        <time>2024-07-03T08:08:50Z</time>
      </trkpt>
      <trkpt lat="48.18032" lon="4.83566">
        <ele>332</ele>
        <time>2024-07-03T08:08:53Z</time>
      </trkpt>
      <trkpt lat="48.18014" lon="4.83601">
        <ele>333</ele>
        <time>2024-07-03T08:08:58Z</time>
      </trkpt>
      <trkpt lat="48.17994" lon="4.83628">
        <ele>333</ele>
        <time>2024-07-03T08:09:03Z</time>
      </trkpt>
      <trkpt lat="48.17985" lon="4.83647">
        <ele>333</ele>
        <time>2024-07-03T08:09:06Z</time>
      </trkpt>
      <trkpt lat="48.17974" lon="4.83678">
        <ele>332</ele>
        <time>2024-07-03T08:09:10Z</time>
      </trkpt>
      <trkpt lat="48.17957" lon="4.83706">
        <ele>331</ele>
        <time>2024-07-03T08:09:15Z</time>
      </trkpt>
      <trkpt lat="48.17934" lon="4.83733">
        <ele>330</ele>
        <time>2024-07-03T08:09:20Z</time>
      </trkpt>
      <trkpt lat="48.17866" lon="4.83848">
        <ele>327</ele>
        <time>2024-07-03T08:09:38Z</time>
      </trkpt>
      <trkpt lat="48.17852" lon="4.83881">
        <ele>327</ele>
        <time>2024-07-03T08:09:43Z</time>
      </trkpt>
      <trkpt lat="48.17801" lon="4.8402">
        <ele>325</ele>
        <time>2024-07-03T08:10:02Z</time>
      </trkpt>
      <trkpt lat="48.17771" lon="4.8411">
        <ele>326</ele>
        <time>2024-07-03T08:10:14Z</time>
      </trkpt>
      <trkpt lat="48.17737" lon="4.84079">
        <ele>324</ele>
        <time>2024-07-03T08:10:21Z</time>
      </trkpt>
      <trkpt lat="48.17682" lon="4.84024">
        <ele>322</ele>
        <time>2024-07-03T08:10:32Z</time>
      </trkpt>
      <trkpt lat="48.17663" lon="4.84014">
        <ele>322</ele>
        <time>2024-07-03T08:10:36Z</time>
      </trkpt>
      <trkpt lat="48.1763" lon="4.84003">
        <ele>322</ele>
        <time>2024-07-03T08:10:42Z</time>
      </trkpt>
      <trkpt lat="48.17416" lon="4.83958">
        <ele>315</ele>
        <time>2024-07-03T08:11:20Z</time>
      </trkpt>
      <trkpt lat="48.17373" lon="4.83951">
        <ele>313</ele>
        <time>2024-07-03T08:11:28Z</time>
      </trkpt>
      <trkpt lat="48.17309" lon="4.83836">
        <ele>306</ele>
        <time>2024-07-03T08:11:46Z</time>
      </trkpt>
      <trkpt lat="48.17302" lon="4.83811">
        <ele>306</ele>
        <time>2024-07-03T08:11:49Z</time>
      </trkpt>
      <trkpt lat="48.173" lon="4.83789">
        <ele>305</ele>
        <time>2024-07-03T08:11:52Z</time>
      </trkpt>
      <trkpt lat="48.17302" lon="4.83759">
        <ele>305</ele>
        <time>2024-07-03T08:11:55Z</time>
      </trkpt>
      <trkpt lat="48.17311" lon="4.83716">
        <ele>304</ele>
        <time>2024-07-03T08:12:01Z</time>
      </trkpt>
      <trkpt lat="48.17324" lon="4.83668">
        <ele>302</ele>
        <time>2024-07-03T08:12:07Z</time>
      </trkpt>
      <trkpt lat="48.17334" lon="4.83642">
        <ele>301</ele>
        <time>2024-07-03T08:12:10Z</time>
      </trkpt>
      <trkpt lat="48.17399" lon="4.83517">
        <ele>295</ele>
        <time>2024-07-03T08:12:29Z</time>
      </trkpt>
      <trkpt lat="48.17415" lon="4.83489">
        <ele>293</ele>
        <time>2024-07-03T08:12:34Z</time>
      </trkpt>
      <trkpt lat="48.17422" lon="4.83468">
        <ele>293</ele>
        <time>2024-07-03T08:12:36Z</time>
      </trkpt>
      <trkpt lat="48.17421" lon="4.83446">
        <ele>292</ele>
        <time>2024-07-03T08:12:39Z</time>
      </trkpt>
      <trkpt lat="48.17417" lon="4.83434">
        <ele>291</ele>
        <time>2024-07-03T08:12:41Z</time>
      </trkpt>
      <trkpt lat="48.17393" lon="4.83405">
        <ele>292</ele>
        <time>2024-07-03T08:12:46Z</time>
      </trkpt>
      <trkpt lat="48.17361" lon="4.83362">
        <ele>290</ele>
        <time>2024-07-03T08:12:54Z</time>
      </trkpt>
      <trkpt lat="48.17353" lon="4.83342">
        <ele>288</ele>
        <time>2024-07-03T08:12:56Z</time>
      </trkpt>
      <trkpt lat="48.17348" lon="4.83321">
        <ele>286</ele>
        <time>2024-07-03T08:12:59Z</time>
      </trkpt>
      <trkpt lat="48.17334" lon="4.83197">
        <ele>279</ele>
        <time>2024-07-03T08:13:14Z</time>
      </trkpt>
      <trkpt lat="48.17322" lon="4.83134">
        <ele>279</ele>
        <time>2024-07-03T08:13:22Z</time>
      </trkpt>
      <trkpt lat="48.17284" lon="4.83038">
        <ele>275</ele>
        <time>2024-07-03T08:13:35Z</time>
      </trkpt>
      <trkpt lat="48.17277" lon="4.83007">
        <ele>273</ele>
        <time>2024-07-03T08:13:39Z</time>
      </trkpt>
      <trkpt lat="48.17264" lon="4.8282">
        <ele>271</ele>
        <time>2024-07-03T08:14:01Z</time>
      </trkpt>
      <trkpt lat="48.17264" lon="4.82793">
        <ele>271</ele>
        <time>2024-07-03T08:14:04Z</time>
      </trkpt>
      <trkpt lat="48.17265" lon="4.82757">
        <ele>270</ele>
        <time>2024-07-03T08:14:09Z</time>
      </trkpt>
      <trkpt lat="48.17272" lon="4.82713">
        <ele>270</ele>
        <time>2024-07-03T08:14:14Z</time>
      </trkpt>
      <trkpt lat="48.17279" lon="4.82677">
        <ele>269</ele>
        <time>2024-07-03T08:14:19Z</time>
      </trkpt>
      <trkpt lat="48.17283" lon="4.82664">
        <ele>268</ele>
        <time>2024-07-03T08:14:20Z</time>
      </trkpt>
      <trkpt lat="48.17285" lon="4.82619">
        <ele>267</ele>
        <time>2024-07-03T08:14:26Z</time>
      </trkpt>
      <trkpt lat="48.17269" lon="4.82487">
        <ele>265</ele>
        <time>2024-07-03T08:14:42Z</time>
      </trkpt>
      <trkpt lat="48.1726" lon="4.82428">
        <ele>264</ele>
        <time>2024-07-03T08:14:49Z</time>
      </trkpt>
      <trkpt lat="48.1724" lon="4.82335">
        <ele>259</ele>
        <time>2024-07-03T08:15:00Z</time>
      </trkpt>
      <trkpt lat="48.17227" lon="4.82293">
        <ele>260</ele>
        <time>2024-07-03T08:15:06Z</time>
      </trkpt>
      <trkpt lat="48.17214" lon="4.82259">
        <ele>259</ele>
        <time>2024-07-03T08:15:10Z</time>
      </trkpt>
      <trkpt lat="48.172" lon="4.8223">
        <ele>257</ele>
        <time>2024-07-03T08:15:15Z</time>
      </trkpt>
      <trkpt lat="48.17187" lon="4.82193">
        <ele>256</ele>
        <time>2024-07-03T08:15:20Z</time>
      </trkpt>
      <trkpt lat="48.17173" lon="4.8212">
        <ele>254</ele>
        <time>2024-07-03T08:15:29Z</time>
      </trkpt>
      <trkpt lat="48.17161" lon="4.82039">
        <ele>254</ele>
        <time>2024-07-03T08:15:38Z</time>
      </trkpt>
      <trkpt lat="48.17141" lon="4.81928">
        <ele>256</ele>
        <time>2024-07-03T08:15:52Z</time>
      </trkpt>
      <trkpt lat="48.17132" lon="4.81891">
        <ele>257</ele>
        <time>2024-07-03T08:15:57Z</time>
      </trkpt>
      <trkpt lat="48.1707" lon="4.8171">
        <ele>253</ele>
        <time>2024-07-03T08:16:21Z</time>
      </trkpt>
      <trkpt lat="48.17055" lon="4.81662">
        <ele>254</ele>
        <time>2024-07-03T08:16:27Z</time>
      </trkpt>
      <trkpt lat="48.17048" lon="4.8163">
        <ele>254</ele>
        <time>2024-07-03T08:16:31Z</time>
      </trkpt>
      <trkpt lat="48.17046" lon="4.81605">
        <ele>253</ele>
        <time>2024-07-03T08:16:34Z</time>
      </trkpt>
      <trkpt lat="48.17042" lon="4.81479">
        <ele>245</ele>
        <time>2024-07-03T08:16:49Z</time>
      </trkpt>
      <trkpt lat="48.17037" lon="4.81453">
        <ele>243</ele>
        <time>2024-07-03T08:16:52Z</time>
      </trkpt>
      <trkpt lat="48.17031" lon="4.81435">
        <ele>242</ele>
        <time>2024-07-03T08:16:55Z</time>
      </trkpt>
      <trkpt lat="48.16998" lon="4.81368">
        <ele>238</ele>
        <time>2024-07-03T08:17:05Z</time>
      </trkpt>
      <trkpt lat="48.16943" lon="4.8125">
        <ele>241</ele>
        <time>2024-07-03T08:17:22Z</time>
      </trkpt>
      <trkpt lat="48.16872" lon="4.81117">
        <ele>244</ele>
        <time>2024-07-03T08:17:42Z</time>
      </trkpt>
      <trkpt lat="48.16863" lon="4.81096">
        <ele>243</ele>
        <time>2024-07-03T08:17:45Z</time>
      </trkpt>
      <trkpt lat="48.16852" lon="4.8105">
        <ele>242</ele>
        <time>2024-07-03T08:17:51Z</time>
      </trkpt>
      <trkpt lat="48.16848" lon="4.81009">
        <ele>241</ele>
        <time>2024-07-03T08:17:56Z</time>
      </trkpt>
      <trkpt lat="48.16848" lon="4.8098">
        <ele>240</ele>
        <time>2024-07-03T08:17:59Z</time>
      </trkpt>
      <trkpt lat="48.16854" lon="4.80708">
        <ele>235</ele>
        <time>2024-07-03T08:18:31Z</time>
      </trkpt>
      <trkpt lat="48.16852" lon="4.806">
        <ele>233</ele>
        <time>2024-07-03T08:18:44Z</time>
      </trkpt>
      <trkpt lat="48.16846" lon="4.80508">
        <ele>231</ele>
        <time>2024-07-03T08:18:55Z</time>
      </trkpt>
      <trkpt lat="48.16847" lon="4.80476">
        <ele>232</ele>
        <time>2024-07-03T08:18:59Z</time>
      </trkpt>
      <trkpt lat="48.1685" lon="4.80449">
        <ele>232</ele>
        <time>2024-07-03T08:19:02Z</time>
      </trkpt>
      <trkpt lat="48.16858" lon="4.80419">
        <ele>232</ele>
        <time>2024-07-03T08:19:06Z</time>
      </trkpt>
      <trkpt lat="48.16903" lon="4.80328">
        <ele>230</ele>
        <time>2024-07-03T08:19:20Z</time>
      </trkpt>
      <trkpt lat="48.16924" lon="4.80275">
        <ele>230</ele>
        <time>2024-07-03T08:19:27Z</time>
      </trkpt>
      <trkpt lat="48.16972" lon="4.80149">
        <ele>228</ele>
        <time>2024-07-03T08:19:44Z</time>
      </trkpt>
      <trkpt lat="48.16986" lon="4.80105">
        <ele>226</ele>
        <time>2024-07-03T08:19:50Z</time>
      </trkpt>
      <trkpt lat="48.16991" lon="4.80083">
        <ele>225</ele>
        <time>2024-07-03T08:19:53Z</time>
      </trkpt>
      <trkpt lat="48.16994" lon="4.80058">
        <ele>224</ele>
        <time>2024-07-03T08:19:56Z</time>
      </trkpt>
      <trkpt lat="48.16988" lon="4.79952">
        <ele>222</ele>
        <time>2024-07-03T08:20:08Z</time>
      </trkpt>
      <trkpt lat="48.16986" lon="4.79857">
        <ele>221</ele>
        <time>2024-07-03T08:20:20Z</time>
      </trkpt>
      <trkpt lat="48.17001" lon="4.79791">
        <ele>218</ele>
        <time>2024-07-03T08:20:28Z</time>
      </trkpt>
      <trkpt lat="48.17032" lon="4.79697">
        <ele>221</ele>
        <time>2024-07-03T08:20:40Z</time>
      </trkpt>
      <trkpt lat="48.17037" lon="4.79673">
        <ele>220</ele>
        <time>2024-07-03T08:20:43Z</time>
      </trkpt>
      <trkpt lat="48.17037" lon="4.79637">
        <ele>220</ele>
        <time>2024-07-03T08:20:47Z</time>
      </trkpt>
      <trkpt lat="48.17027" lon="4.7958">
        <ele>219</ele>
        <time>2024-07-03T08:20:54Z</time>
      </trkpt>
      <trkpt lat="48.16988" lon="4.79387">
        <ele>211</ele>
        <time>2024-07-03T08:21:18Z</time>
      </trkpt>
      <trkpt lat="48.16986" lon="4.79363">
        <ele>211</ele>
        <time>2024-07-03T08:21:21Z</time>
      </trkpt>
      <trkpt lat="48.16987" lon="4.79341">
        <ele>211</ele>
        <time>2024-07-03T08:21:24Z</time>
      </trkpt>
      <trkpt lat="48.16991" lon="4.79318">
        <ele>210</ele>
        <time>2024-07-03T08:21:27Z</time>
      </trkpt>
      <trkpt lat="48.16998" lon="4.79293">
        <ele>209</ele>
        <time>2024-07-03T08:21:30Z</time>
      </trkpt>
      <trkpt lat="48.17011" lon="4.79259">
        <ele>211</ele>
        <time>2024-07-03T08:21:35Z</time>
      </trkpt>
      <trkpt lat="48.17031" lon="4.79219">
        <ele>212</ele>
        <time>2024-07-03T08:21:41Z</time>
      </trkpt>
      <trkpt lat="48.17038" lon="4.79191">
        <ele>211</ele>
        <time>2024-07-03T08:21:44Z</time>
      </trkpt>
      <trkpt lat="48.17044" lon="4.79165">
        <ele>211</ele>
        <time>2024-07-03T08:21:47Z</time>
      </trkpt>
      <trkpt lat="48.17052" lon="4.79062">
        <ele>208</ele>
        <time>2024-07-03T08:22:00Z</time>
      </trkpt>
      <trkpt lat="48.17056" lon="4.79045">
        <ele>208</ele>
        <time>2024-07-03T08:22:02Z</time>
      </trkpt>
      <trkpt lat="48.1706" lon="4.79031">
        <ele>208</ele>
        <time>2024-07-03T08:22:04Z</time>
      </trkpt>
      <trkpt lat="48.17069" lon="4.79012">
        <ele>208</ele>
        <time>2024-07-03T08:22:06Z</time>
      </trkpt>
      <trkpt lat="48.17084" lon="4.78988">
        <ele>206</ele>
        <time>2024-07-03T08:22:10Z</time>
      </trkpt>
      <trkpt lat="48.17152" lon="4.78908">
        <ele>205</ele>
        <time>2024-07-03T08:22:26Z</time>
      </trkpt>
      <trkpt lat="48.1717" lon="4.78882">
        <ele>204</ele>
        <time>2024-07-03T08:22:30Z</time>
      </trkpt>
      <trkpt lat="48.1718" lon="4.7886">
        <ele>204</ele>
        <time>2024-07-03T08:22:33Z</time>
      </trkpt>
      <trkpt lat="48.17207" lon="4.78741">
        <ele>204</ele>
        <time>2024-07-03T08:22:48Z</time>
      </trkpt>
      <trkpt lat="48.17219" lon="4.78701">
        <ele>205</ele>
        <time>2024-07-03T08:22:53Z</time>
      </trkpt>
      <trkpt lat="48.17231" lon="4.78662">
        <ele>204</ele>
        <time>2024-07-03T08:22:58Z</time>
      </trkpt>
      <trkpt lat="48.17246" lon="4.78632">
        <ele>202</ele>
        <time>2024-07-03T08:23:03Z</time>
      </trkpt>
      <trkpt lat="48.17259" lon="4.78614">
        <ele>202</ele>
        <time>2024-07-03T08:23:06Z</time>
      </trkpt>
      <trkpt lat="48.17274" lon="4.78602">
        <ele>201</ele>
        <time>2024-07-03T08:23:09Z</time>
      </trkpt>
      <trkpt lat="48.17293" lon="4.78592">
        <ele>199</ele>
        <time>2024-07-03T08:23:13Z</time>
      </trkpt>
      <trkpt lat="48.17337" lon="4.78573">
        <ele>197</ele>
        <time>2024-07-03T08:23:21Z</time>
      </trkpt>
      <trkpt lat="48.17353" lon="4.78561">
        <ele>197</ele>
        <time>2024-07-03T08:23:24Z</time>
      </trkpt>
      <trkpt lat="48.17377" lon="4.78523">
        <ele>194</ele>
        <time>2024-07-03T08:23:30Z</time>
      </trkpt>
      <trkpt lat="48.17399" lon="4.7848">
        <ele>188</ele>
        <time>2024-07-03T08:23:37Z</time>
      </trkpt>
      <trkpt lat="48.17423" lon="4.78499">
        <ele>189</ele>
        <time>2024-07-03T08:23:41Z</time>
      </trkpt>
      <trkpt lat="48.17476" lon="4.78519">
        <ele>191</ele>
        <time>2024-07-03T08:23:51Z</time>
      </trkpt>
      <trkpt lat="48.17505" lon="4.78536">
        <ele>193</ele>
        <time>2024-07-03T08:23:57Z</time>
      </trkpt>
      <trkpt lat="48.17585" lon="4.78592">
        <ele>193</ele>
        <time>2024-07-03T08:24:12Z</time>
      </trkpt>
      <trkpt lat="48.17686" lon="4.78659">
        <ele>191</ele>
        <time>2024-07-03T08:24:32Z</time>
      </trkpt>
      <trkpt lat="48.17752" lon="4.78698">
        <ele>184</ele>
        <time>2024-07-03T08:24:45Z</time>
      </trkpt>
      <trkpt lat="48.17834" lon="4.78755">
        <ele>181</ele>
        <time>2024-07-03T08:25:01Z</time>
      </trkpt>
      <trkpt lat="48.17922" lon="4.78819">
        <ele>180</ele>
        <time>2024-07-03T08:25:18Z</time>
      </trkpt>
      <trkpt lat="48.1804" lon="4.789">
        <ele>180</ele>
        <time>2024-07-03T08:25:41Z</time>
      </trkpt>
      <trkpt lat="48.18055" lon="4.78913">
        <ele>181</ele>
        <time>2024-07-03T08:25:44Z</time>
      </trkpt>
      <trkpt lat="48.18067" lon="4.78926">
        <ele>181</ele>
        <time>2024-07-03T08:25:47Z</time>
      </trkpt>
      <trkpt lat="48.18095" lon="4.78972">
        <ele>180</ele>
        <time>2024-07-03T08:25:54Z</time>
      </trkpt>
      <trkpt lat="48.18106" lon="4.78985">
        <ele>180</ele>
        <time>2024-07-03T08:25:57Z</time>
      </trkpt>
      <trkpt lat="48.18132" lon="4.79002">
        <ele>179</ele>
        <time>2024-07-03T08:26:02Z</time>
      </trkpt>
      <trkpt lat="48.18153" lon="4.7902">
        <ele>179</ele>
        <time>2024-07-03T08:26:06Z</time>
      </trkpt>
      <trkpt lat="48.18173" lon="4.79053">
        <ele>180</ele>
        <time>2024-07-03T08:26:12Z</time>
      </trkpt>
      <trkpt lat="48.18204" lon="4.79113">
        <ele>180</ele>
        <time>2024-07-03T08:26:21Z</time>
      </trkpt>
      <trkpt lat="48.18215" lon="4.7913">
        <ele>179</ele>
        <time>2024-07-03T08:26:23Z</time>
      </trkpt>
      <trkpt lat="48.18264" lon="4.79193">
        <ele>179</ele>
        <time>2024-07-03T08:26:35Z</time>
      </trkpt>
      <trkpt lat="48.1829" lon="4.79237">
        <ele>178</ele>
        <time>2024-07-03T08:26:42Z</time>
      </trkpt>
      <trkpt lat="48.18309" lon="4.79275">
        <ele>178</ele>
        <time>2024-07-03T08:26:47Z</time>
      </trkpt>
      <trkpt lat="48.18313" lon="4.7929">
        <ele>178</ele>
        <time>2024-07-03T08:26:49Z</time>
      </trkpt>
      <trkpt lat="48.18313" lon="4.79309">
        <ele>178</ele>
        <time>2024-07-03T08:26:52Z</time>
      </trkpt>
      <trkpt lat="48.18311" lon="4.79318">
        <ele>178</ele>
        <time>2024-07-03T08:26:53Z</time>
      </trkpt>
      <trkpt lat="48.18334" lon="4.79296">
        <ele>178</ele>
        <time>2024-07-03T08:26:58Z</time>
      </trkpt>
      <trkpt lat="48.18358" lon="4.79288">
        <ele>178</ele>
        <time>2024-07-03T08:27:02Z</time>
      </trkpt>
      <trkpt lat="48.18389" lon="4.79285">
        <ele>178</ele>
        <time>2024-07-03T08:27:07Z</time>
      </trkpt>
      <trkpt lat="48.18397" lon="4.79282">
        <ele>178</ele>
        <time>2024-07-03T08:27:09Z</time>
      </trkpt>
      <trkpt lat="48.18404" lon="4.79271">
        <ele>178</ele>
        <time>2024-07-03T08:27:11Z</time>
      </trkpt>
      <trkpt lat="48.18421" lon="4.79234">
        <ele>179</ele>
        <time>2024-07-03T08:27:16Z</time>
      </trkpt>
      <trkpt lat="48.1844" lon="4.79198">
        <ele>181</ele>
        <time>2024-07-03T08:27:22Z</time>
      </trkpt>
      <trkpt lat="48.18452" lon="4.79184">
        <ele>182</ele>
        <time>2024-07-03T08:27:24Z</time>
      </trkpt>
      <trkpt lat="48.18464" lon="4.79177">
        <ele>183</ele>
        <time>2024-07-03T08:27:27Z</time>
      </trkpt>
      <trkpt lat="48.18474" lon="4.79175">
        <ele>183</ele>
        <time>2024-07-03T08:27:28Z</time>
      </trkpt>
      <trkpt lat="48.18485" lon="4.79178">
        <ele>184</ele>
        <time>2024-07-03T08:27:30Z</time>
      </trkpt>
      <trkpt lat="48.18498" lon="4.79191">
        <ele>184</ele>
        <time>2024-07-03T08:27:33Z</time>
      </trkpt>
      <trkpt lat="48.18513" lon="4.79213">
        <ele>184</ele>
        <time>2024-07-03T08:27:37Z</time>
      </trkpt>
      <trkpt lat="48.18521" lon="4.79215">
        <ele>184</ele>
        <time>2024-07-03T08:27:38Z</time>
      </trkpt>
      <trkpt lat="48.18524" lon="4.79214">
        <ele>184</ele>
        <time>2024-07-03T08:27:39Z</time>
      </trkpt>
      <trkpt lat="48.18529" lon="4.7921">
        <ele>184</ele>
        <time>2024-07-03T08:27:40Z</time>
      </trkpt>
      <trkpt lat="48.18534" lon="4.79202">
        <ele>184</ele>
        <time>2024-07-03T08:27:41Z</time>
      </trkpt>
      <trkpt lat="48.18539" lon="4.79182">
        <ele>185</ele>
        <time>2024-07-03T08:27:44Z</time>
      </trkpt>
      <trkpt lat="48.18542" lon="4.79151">
        <ele>186</ele>
        <time>2024-07-03T08:27:47Z</time>
      </trkpt>
      <trkpt lat="48.18539" lon="4.7913">
        <ele>187</ele>
        <time>2024-07-03T08:27:50Z</time>
      </trkpt>
      <trkpt lat="48.1853" lon="4.79119">
        <ele>188</ele>
        <time>2024-07-03T08:27:52Z</time>
      </trkpt>
      <trkpt lat="48.18507" lon="4.79108">
        <ele>189</ele>
        <time>2024-07-03T08:27:56Z</time>
      </trkpt>
      <trkpt lat="48.18499" lon="4.79103">
        <ele>190</ele>
        <time>2024-07-03T08:27:58Z</time>
      </trkpt>
      <trkpt lat="48.18492" lon="4.79096">
        <ele>190</ele>
        <time>2024-07-03T08:27:59Z</time>
      </trkpt>
      <trkpt lat="48.18457" lon="4.79009">
        <ele>192</ele>
        <time>2024-07-03T08:28:11Z</time>
      </trkpt>
      <trkpt lat="48.18446" lon="4.78973">
        <ele>194</ele>
        <time>2024-07-03T08:28:16Z</time>
      </trkpt>
      <trkpt lat="48.18433" lon="4.78918">
        <ele>196</ele>
        <time>2024-07-03T08:28:23Z</time>
      </trkpt>
      <trkpt lat="48.18429" lon="4.78881">
        <ele>198</ele>
        <time>2024-07-03T08:28:27Z</time>
      </trkpt>
      <trkpt lat="48.1843" lon="4.78845">
        <ele>199</ele>
        <time>2024-07-03T08:28:32Z</time>
      </trkpt>
      <trkpt lat="48.18439" lon="4.78792">
        <ele>201</ele>
        <time>2024-07-03T08:28:38Z</time>
      </trkpt>
      <trkpt lat="48.18448" lon="4.78793">
        <ele>201</ele>
        <time>2024-07-03T08:28:40Z</time>
      </trkpt>
      <trkpt lat="48.18458" lon="4.78789">
        <ele>202</ele>
        <time>2024-07-03T08:28:42Z</time>
      </trkpt>
      <trkpt lat="48.18465" lon="4.78778">
        <ele>202</ele>
        <time>2024-07-03T08:28:43Z</time>
      </trkpt>
      <trkpt lat="48.18488" lon="4.78703">
        <ele>206</ele>
        <time>2024-07-03T08:28:53Z</time>
      </trkpt>
      <trkpt lat="48.18492" lon="4.78704">
        <ele>206</ele>
        <time>2024-07-03T08:28:54Z</time>
      </trkpt>
      <trkpt lat="48.185" lon="4.78703">
        <ele>206</ele>
        <time>2024-07-03T08:28:55Z</time>
      </trkpt>
      <trkpt lat="48.1853" lon="4.78683">
        <ele>206</ele>
        <time>2024-07-03T08:29:01Z</time>
      </trkpt>
      <trkpt lat="48.18542" lon="4.7868">
        <ele>206</ele>
        <time>2024-07-03T08:29:03Z</time>
      </trkpt>
      <trkpt lat="48.18552" lon="4.78682">
        <ele>205</ele>
        <time>2024-07-03T08:29:05Z</time>
      </trkpt>
      <trkpt lat="48.18565" lon="4.78688">
        <ele>205</ele>
        <time>2024-07-03T08:29:08Z</time>
      </trkpt>
      <trkpt lat="48.18577" lon="4.78697">
        <ele>204</ele>
        <time>2024-07-03T08:29:10Z</time>
      </trkpt>
      <trkpt lat="48.18608" lon="4.78737">
        <ele>203</ele>
        <time>2024-07-03T08:29:17Z</time>
      </trkpt>
      <trkpt lat="48.18617" lon="4.78744">
        <ele>203</ele>
        <time>2024-07-03T08:29:19Z</time>
      </trkpt>
      <trkpt lat="48.18626" lon="4.78748">
        <ele>203</ele>
        <time>2024-07-03T08:29:21Z</time>
      </trkpt>
      <trkpt lat="48.18643" lon="4.78748">
        <ele>203</ele>
        <time>2024-07-03T08:29:24Z</time>
      </trkpt>
      <trkpt lat="48.18653" lon="4.78746">
        <ele>203</ele>
        <time>2024-07-03T08:29:26Z</time>
      </trkpt>
      <trkpt lat="48.18659" lon="4.78742">
        <ele>203</ele>
        <time>2024-07-03T08:29:27Z</time>
      </trkpt>
      <trkpt lat="48.18729" lon="4.78525">
        <ele>198</ele>
        <time>2024-07-03T08:29:55Z</time>
      </trkpt>
      <trkpt lat="48.18758" lon="4.78461">
        <ele>199</ele>
        <time>2024-07-03T08:30:05Z</time>
      </trkpt>
      <trkpt lat="48.18791" lon="4.78411">
        <ele>196</ele>
        <time>2024-07-03T08:30:13Z</time>
      </trkpt>
      <trkpt lat="48.18833" lon="4.78363">
        <ele>195</ele>
        <time>2024-07-03T08:30:22Z</time>
      </trkpt>
      <trkpt lat="48.18845" lon="4.78347">
        <ele>195</ele>
        <time>2024-07-03T08:30:25Z</time>
      </trkpt>
      <trkpt lat="48.18866" lon="4.78317">
        <ele>192</ele>
        <time>2024-07-03T08:30:30Z</time>
      </trkpt>
      <trkpt lat="48.189" lon="4.78262">
        <ele>186</ele>
        <time>2024-07-03T08:30:39Z</time>
      </trkpt>
      <trkpt lat="48.18901" lon="4.78256">
        <ele>186</ele>
        <time>2024-07-03T08:30:40Z</time>
      </trkpt>
      <trkpt lat="48.18933" lon="4.78175">
        <ele>186</ele>
        <time>2024-07-03T08:30:51Z</time>
      </trkpt>
      <trkpt lat="48.18944" lon="4.78139">
        <ele>188</ele>
        <time>2024-07-03T08:30:56Z</time>
      </trkpt>
      <trkpt lat="48.18954" lon="4.78113">
        <ele>188</ele>
        <time>2024-07-03T08:30:59Z</time>
      </trkpt>
      <trkpt lat="48.18982" lon="4.78059">
        <ele>188</ele>
        <time>2024-07-03T08:31:07Z</time>
      </trkpt>
      <trkpt lat="48.18998" lon="4.78035">
        <ele>188</ele>
        <time>2024-07-03T08:31:11Z</time>
      </trkpt>
      <trkpt lat="48.19051" lon="4.77966">
        <ele>186</ele>
        <time>2024-07-03T08:31:24Z</time>
      </trkpt>
      <trkpt lat="48.19082" lon="4.7792">
        <ele>186</ele>
        <time>2024-07-03T08:31:32Z</time>
      </trkpt>
      <trkpt lat="48.19122" lon="4.77875">
        <ele>189</ele>
        <time>2024-07-03T08:31:41Z</time>
      </trkpt>
      <trkpt lat="48.19168" lon="4.77837">
        <ele>189</ele>
        <time>2024-07-03T08:31:50Z</time>
      </trkpt>
      <trkpt lat="48.19187" lon="4.77827">
        <ele>189</ele>
        <time>2024-07-03T08:31:54Z</time>
      </trkpt>
      <trkpt lat="48.19201" lon="4.77823">
        <ele>189</ele>
        <time>2024-07-03T08:31:56Z</time>
      </trkpt>
      <trkpt lat="48.19211" lon="4.77821">
        <ele>189</ele>
        <time>2024-07-03T08:31:58Z</time>
      </trkpt>
      <trkpt lat="48.19303" lon="4.77815">
        <ele>186</ele>
        <time>2024-07-03T08:32:14Z</time>
      </trkpt>
      <trkpt lat="48.19355" lon="4.77818">
        <ele>186</ele>
        <time>2024-07-03T08:32:24Z</time>
      </trkpt>
      <trkpt lat="48.19409" lon="4.77831">
        <ele>186</ele>
        <time>2024-07-03T08:32:33Z</time>
      </trkpt>
      <trkpt lat="48.19448" lon="4.77845">
        <ele>186</ele>
        <time>2024-07-03T08:32:40Z</time>
      </trkpt>
      <trkpt lat="48.19482" lon="4.77863">
        <ele>186</ele>
        <time>2024-07-03T08:32:47Z</time>
      </trkpt>
      <trkpt lat="48.19571" lon="4.7792">
        <ele>185</ele>
        <time>2024-07-03T08:33:04Z</time>
      </trkpt>
      <trkpt lat="48.19604" lon="4.77935">
        <ele>185</ele>
        <time>2024-07-03T08:33:10Z</time>
      </trkpt>
      <trkpt lat="48.19638" lon="4.77939">
        <ele>185</ele>
        <time>2024-07-03T08:33:16Z</time>
      </trkpt>
      <trkpt lat="48.19683" lon="4.77947">
        <ele>184</ele>
        <time>2024-07-03T08:33:24Z</time>
      </trkpt>
      <trkpt lat="48.19708" lon="4.77959">
        <ele>181</ele>
        <time>2024-07-03T08:33:29Z</time>
      </trkpt>
      <trkpt lat="48.1972" lon="4.77968">
        <ele>180</ele>
        <time>2024-07-03T08:33:31Z</time>
      </trkpt>
      <trkpt lat="48.19737" lon="4.77975">
        <ele>179</ele>
        <time>2024-07-03T08:33:34Z</time>
      </trkpt>
      <trkpt lat="48.19763" lon="4.77975">
        <ele>179</ele>
        <time>2024-07-03T08:33:39Z</time>
      </trkpt>
      <trkpt lat="48.19818" lon="4.77964">
        <ele>179</ele>
        <time>2024-07-03T08:33:49Z</time>
      </trkpt>
      <trkpt lat="48.19817" lon="4.77898">
        <ele>182</ele>
        <time>2024-07-03T08:33:57Z</time>
      </trkpt>
      <trkpt lat="48.1982" lon="4.77889">
        <ele>182</ele>
        <time>2024-07-03T08:33:58Z</time>
      </trkpt>
      <trkpt lat="48.19853" lon="4.77852">
        <ele>183</ele>
        <time>2024-07-03T08:34:05Z</time>
      </trkpt>
      <trkpt lat="48.19868" lon="4.77827">
        <ele>185</ele>
        <time>2024-07-03T08:34:09Z</time>
      </trkpt>
      <trkpt lat="48.19874" lon="4.77812">
        <ele>186</ele>
        <time>2024-07-03T08:34:11Z</time>
      </trkpt>
      <trkpt lat="48.1989" lon="4.7776">
        <ele>189</ele>
        <time>2024-07-03T08:34:18Z</time>
      </trkpt>
      <trkpt lat="48.1989" lon="4.7775">
        <ele>189</ele>
        <time>2024-07-03T08:34:19Z</time>
      </trkpt>
      <trkpt lat="48.19884" lon="4.77727">
        <ele>190</ele>
        <time>2024-07-03T08:34:22Z</time>
      </trkpt>
      <trkpt lat="48.19875" lon="4.7771">
        <ele>190</ele>
        <time>2024-07-03T08:34:25Z</time>
      </trkpt>
      <trkpt lat="48.19851" lon="4.77692">
        <ele>192</ele>
        <time>2024-07-03T08:34:30Z</time>
      </trkpt>
      <trkpt lat="48.19766" lon="4.77581">
        <ele>195</ele>
        <time>2024-07-03T08:34:50Z</time>
      </trkpt>
      <trkpt lat="48.1974" lon="4.77574">
        <ele>195</ele>
        <time>2024-07-03T08:34:54Z</time>
      </trkpt>
      <trkpt lat="48.19725" lon="4.77567">
        <ele>195</ele>
        <time>2024-07-03T08:34:57Z</time>
      </trkpt>
      <trkpt lat="48.19683" lon="4.77558">
        <ele>195</ele>
        <time>2024-07-03T08:35:05Z</time>
      </trkpt>
      <trkpt lat="48.19666" lon="4.7755">
        <ele>195</ele>
        <time>2024-07-03T08:35:08Z</time>
      </trkpt>
      <trkpt lat="48.1965" lon="4.77549">
        <ele>195</ele>
        <time>2024-07-03T08:35:11Z</time>
      </trkpt>
      <trkpt lat="48.19625" lon="4.77556">
        <ele>195</ele>
        <time>2024-07-03T08:35:15Z</time>
      </trkpt>
      <trkpt lat="48.19597" lon="4.7757">
        <ele>194</ele>
        <time>2024-07-03T08:35:21Z</time>
      </trkpt>
      <trkpt lat="48.19588" lon="4.77573">
        <ele>194</ele>
        <time>2024-07-03T08:35:22Z</time>
      </trkpt>
      <trkpt lat="48.19573" lon="4.77574">
        <ele>194</ele>
        <time>2024-07-03T08:35:25Z</time>
      </trkpt>
      <trkpt lat="48.19573" lon="4.77579">
        <ele>194</ele>
        <time>2024-07-03T08:35:25Z</time>
      </trkpt>
      <trkpt lat="48.1957" lon="4.77588">
        <ele>195</ele>
        <time>2024-07-03T08:35:27Z</time>
      </trkpt>
      <trkpt lat="48.19566" lon="4.77592">
        <ele>195</ele>
        <time>2024-07-03T08:35:27Z</time>
      </trkpt>
      <trkpt lat="48.19564" lon="4.77592">
        <ele>195</ele>
        <time>2024-07-03T08:35:28Z</time>
      </trkpt>
    </trkseg>
  </trk>
  <trk>
    <name><![CDATA[44. Circuit de Colombe le sec et Colombe la fosse-17237809]]></name>
    <extensions>
      <line xmlns="http://www.topografix.com/GPX/gpx_style/0/2">
        <color>00ff11</color>
        <width>4</width>
      </line>
    </extensions>
    <trkseg>
      <trkpt lat="48.26354" lon="4.79035">
        <ele>231</ele>
        <time>2024-07-03T07:51:54Z</time>
      </trkpt>
      <trkpt lat="48.26424" lon="4.78936">
        <ele>228</ele>
        <time>2024-07-03T07:52:11Z</time>
      </trkpt>
      <trkpt lat="48.26474" lon="4.78695">
        <ele>235</ele>
        <time>2024-07-03T07:52:41Z</time>
      </trkpt>
      <trkpt lat="48.26748" lon="4.78589">
        <ele>265</ele>
        <time>2024-07-03T07:53:31Z</time>
      </trkpt>
      <trkpt lat="48.27084" lon="4.78482">
        <ele>320</ele>
        <time>2024-07-03T07:54:32Z</time>
      </trkpt>
      <trkpt lat="48.26789" lon="4.77745">
        <ele>314</ele>
        <time>2024-07-03T07:56:14Z</time>
      </trkpt>
      <trkpt lat="48.26417" lon="4.77181">
        <ele>312</ele>
        <time>2024-07-03T07:57:48Z</time>
      </trkpt>
      <trkpt lat="48.2631" lon="4.77008">
        <ele>303</ele>
        <time>2024-07-03T07:58:16Z</time>
      </trkpt>
      <trkpt lat="48.26167" lon="4.76752">
        <ele>290</ele>
        <time>2024-07-03T07:58:56Z</time>
      </trkpt>
      <trkpt lat="48.26172" lon="4.7667">
        <ele>281</ele>
        <time>2024-07-03T07:59:06Z</time>
      </trkpt>
      <trkpt lat="48.26094" lon="4.766">
        <ele>272</ele>
        <time>2024-07-03T07:59:22Z</time>
      </trkpt>
      <trkpt lat="48.26028" lon="4.76694">
        <ele>272</ele>
        <time>2024-07-03T07:59:38Z</time>
      </trkpt>
      <trkpt lat="48.26017" lon="4.76869">
        <ele>275</ele>
        <time>2024-07-03T07:59:59Z</time>
      </trkpt>
      <trkpt lat="48.25997" lon="4.76974">
        <ele>270</ele>
        <time>2024-07-03T08:00:12Z</time>
      </trkpt>
      <trkpt lat="48.26021" lon="4.77069">
        <ele>276</ele>
        <time>2024-07-03T08:00:24Z</time>
      </trkpt>
      <trkpt lat="48.26034" lon="4.77203">
        <ele>279</ele>
        <time>2024-07-03T08:00:40Z</time>
      </trkpt>
      <trkpt lat="48.26062" lon="4.77324">
        <ele>283</ele>
        <time>2024-07-03T08:00:55Z</time>
      </trkpt>
      <trkpt lat="48.26102" lon="4.7738">
        <ele>287</ele>
        <time>2024-07-03T08:01:05Z</time>
      </trkpt>
      <trkpt lat="48.26215" lon="4.78284">
        <ele>232</ele>
        <time>2024-07-03T08:02:54Z</time>
      </trkpt>
      <trkpt lat="48.26191" lon="4.78275">
        <ele>232</ele>
        <time>2024-07-03T08:02:58Z</time>
      </trkpt>
      <trkpt lat="48.26208" lon="4.78349">
        <ele>228</ele>
        <time>2024-07-03T08:03:07Z</time>
      </trkpt>
      <trkpt lat="48.26053" lon="4.78435">
        <ele>222</ele>
        <time>2024-07-03T08:03:37Z</time>
      </trkpt>
      <trkpt lat="48.25979" lon="4.78518">
        <ele>217</ele>
        <time>2024-07-03T08:03:53Z</time>
      </trkpt>
      <trkpt lat="48.2578" lon="4.78604">
        <ele>214</ele>
        <time>2024-07-03T08:04:30Z</time>
      </trkpt>
      <trkpt lat="48.25713" lon="4.78579">
        <ele>212</ele>
        <time>2024-07-03T08:04:42Z</time>
      </trkpt>
      <trkpt lat="48.25646" lon="4.78533">
        <ele>213</ele>
        <time>2024-07-03T08:04:55Z</time>
      </trkpt>
      <trkpt lat="48.25488" lon="4.78501">
        <ele>217</ele>
        <time>2024-07-03T08:05:24Z</time>
      </trkpt>
      <trkpt lat="48.25562" lon="4.78893">
        <ele>229</ele>
        <time>2024-07-03T08:06:12Z</time>
      </trkpt>
      <trkpt lat="48.25579" lon="4.78993">
        <ele>227</ele>
        <time>2024-07-03T08:06:24Z</time>
      </trkpt>
      <trkpt lat="48.25584" lon="4.79038">
        <ele>226</ele>
        <time>2024-07-03T08:06:30Z</time>
      </trkpt>
      <trkpt lat="48.25562" lon="4.79163">
        <ele>228</ele>
        <time>2024-07-03T08:06:45Z</time>
      </trkpt>
      <trkpt lat="48.25532" lon="4.79297">
        <ele>233</ele>
        <time>2024-07-03T08:07:02Z</time>
      </trkpt>
      <trkpt lat="48.25529" lon="4.79363">
        <ele>233</ele>
        <time>2024-07-03T08:07:10Z</time>
      </trkpt>
      <trkpt lat="48.25518" lon="4.79467">
        <ele>231</ele>
        <time>2024-07-03T08:07:22Z</time>
      </trkpt>
      <trkpt lat="48.2552" lon="4.79557">
        <ele>232</ele>
        <time>2024-07-03T08:07:33Z</time>
      </trkpt>
      <trkpt lat="48.25513" lon="4.79561">
        <ele>233</ele>
        <time>2024-07-03T08:07:34Z</time>
      </trkpt>
      <trkpt lat="48.25516" lon="4.79574">
        <ele>233</ele>
        <time>2024-07-03T08:07:36Z</time>
      </trkpt>
      <trkpt lat="48.25513" lon="4.79596">
        <ele>234</ele>
        <time>2024-07-03T08:07:38Z</time>
      </trkpt>
      <trkpt lat="48.25525" lon="4.79615">
        <ele>235</ele>
        <time>2024-07-03T08:07:41Z</time>
      </trkpt>
      <trkpt lat="48.25502" lon="4.79622">
        <ele>237</ele>
        <time>2024-07-03T08:07:46Z</time>
      </trkpt>
      <trkpt lat="48.25512" lon="4.79658">
        <ele>239</ele>
        <time>2024-07-03T08:07:50Z</time>
      </trkpt>
      <trkpt lat="48.25526" lon="4.79756">
        <ele>242</ele>
        <time>2024-07-03T08:08:02Z</time>
      </trkpt>
      <trkpt lat="48.2555" lon="4.79744">
        <ele>240</ele>
        <time>2024-07-03T08:08:07Z</time>
      </trkpt>
      <trkpt lat="48.25551" lon="4.79758">
        <ele>241</ele>
        <time>2024-07-03T08:08:08Z</time>
      </trkpt>
      <trkpt lat="48.25619" lon="4.79749">
        <ele>236</ele>
        <time>2024-07-03T08:08:20Z</time>
      </trkpt>
      <trkpt lat="48.2564" lon="4.79758">
        <ele>234</ele>
        <time>2024-07-03T08:08:24Z</time>
      </trkpt>
      <trkpt lat="48.25658" lon="4.79798">
        <ele>233</ele>
        <time>2024-07-03T08:08:30Z</time>
      </trkpt>
      <trkpt lat="48.25676" lon="4.79865">
        <ele>232</ele>
        <time>2024-07-03T08:08:39Z</time>
      </trkpt>
      <trkpt lat="48.25689" lon="4.80044">
        <ele>231</ele>
        <time>2024-07-03T08:09:00Z</time>
      </trkpt>
      <trkpt lat="48.25708" lon="4.80048">
        <ele>230</ele>
        <time>2024-07-03T08:09:03Z</time>
      </trkpt>
      <trkpt lat="48.25744" lon="4.80084">
        <ele>228</ele>
        <time>2024-07-03T08:09:11Z</time>
      </trkpt>
      <trkpt lat="48.25777" lon="4.80108">
        <ele>229</ele>
        <time>2024-07-03T08:09:18Z</time>
      </trkpt>
      <trkpt lat="48.25862" lon="4.80109">
        <ele>232</ele>
        <time>2024-07-03T08:09:33Z</time>
      </trkpt>
      <trkpt lat="48.25858" lon="4.8003">
        <ele>233</ele>
        <time>2024-07-03T08:09:42Z</time>
      </trkpt>
      <trkpt lat="48.25854" lon="4.79868">
        <ele>231</ele>
        <time>2024-07-03T08:10:01Z</time>
      </trkpt>
      <trkpt lat="48.26023" lon="4.79861">
        <ele>261</ele>
        <time>2024-07-03T08:10:31Z</time>
      </trkpt>
      <trkpt lat="48.26054" lon="4.79741">
        <ele>268</ele>
        <time>2024-07-03T08:10:47Z</time>
      </trkpt>
      <trkpt lat="48.26074" lon="4.79572">
        <ele>268</ele>
        <time>2024-07-03T08:11:07Z</time>
      </trkpt>
      <trkpt lat="48.26066" lon="4.79298">
        <ele>261</ele>
        <time>2024-07-03T08:11:39Z</time>
      </trkpt>
      <trkpt lat="48.26169" lon="4.7919">
        <ele>257</ele>
        <time>2024-07-03T08:12:02Z</time>
      </trkpt>
      <trkpt lat="48.26318" lon="4.79169">
        <ele>244</ele>
        <time>2024-07-03T08:12:28Z</time>
      </trkpt>
      <trkpt lat="48.26354" lon="4.79035">
        <ele>231</ele>
        <time>2024-07-03T08:12:46Z</time>
      </trkpt>
    </trkseg>
  </trk>
  <trk>
    <name><![CDATA[40. Circuit de Bar sur Aube gaston cheq-17237813]]></name>
    <extensions>
      <line xmlns="http://www.topografix.com/GPX/gpx_style/0/2">
        <color>15a6e5</color>
        <width>4</width>
      </line>
    </extensions>
    <trkseg>
      <trkpt lat="48.23597" lon="4.70212">
        <ele>163</ele>
        <time>2024-07-03T07:51:24Z</time>
      </trkpt>
      <trkpt lat="48.23633" lon="4.70255">
        <ele>162</ele>
        <time>2024-07-03T07:51:32Z</time>
      </trkpt>
      <trkpt lat="48.2356" lon="4.70353">
        <ele>164</ele>
        <time>2024-07-03T07:51:50Z</time>
      </trkpt>
      <trkpt lat="48.23537" lon="4.70387">
        <ele>164</ele>
        <time>2024-07-03T07:51:55Z</time>
      </trkpt>
      <trkpt lat="48.23532" lon="4.70417">
        <ele>164</ele>
        <time>2024-07-03T07:51:59Z</time>
      </trkpt>
      <trkpt lat="48.23516" lon="4.70418">
        <ele>165</ele>
        <time>2024-07-03T07:52:02Z</time>
      </trkpt>
      <trkpt lat="48.235" lon="4.70445">
        <ele>165</ele>
        <time>2024-07-03T07:52:06Z</time>
      </trkpt>
      <trkpt lat="48.23514" lon="4.70508">
        <ele>165</ele>
        <time>2024-07-03T07:52:14Z</time>
      </trkpt>
      <trkpt lat="48.23583" lon="4.70592">
        <ele>163</ele>
        <time>2024-07-03T07:52:30Z</time>
      </trkpt>
      <trkpt lat="48.23611" lon="4.70622">
        <ele>164</ele>
        <time>2024-07-03T07:52:36Z</time>
      </trkpt>
      <trkpt lat="48.23749" lon="4.70726">
        <ele>164</ele>
        <time>2024-07-03T07:53:03Z</time>
      </trkpt>
      <trkpt lat="48.23774" lon="4.70758">
        <ele>163</ele>
        <time>2024-07-03T07:53:09Z</time>
      </trkpt>
      <trkpt lat="48.23797" lon="4.70821">
        <ele>162</ele>
        <time>2024-07-03T07:53:18Z</time>
      </trkpt>
      <trkpt lat="48.23815" lon="4.70883">
        <ele>162</ele>
        <time>2024-07-03T07:53:26Z</time>
      </trkpt>
      <trkpt lat="48.23825" lon="4.70928">
        <ele>161</ele>
        <time>2024-07-03T07:53:31Z</time>
      </trkpt>
      <trkpt lat="48.23893" lon="4.71028">
        <ele>160</ele>
        <time>2024-07-03T07:53:48Z</time>
      </trkpt>
      <trkpt lat="48.23941" lon="4.71087">
        <ele>162</ele>
        <time>2024-07-03T07:53:59Z</time>
      </trkpt>
      <trkpt lat="48.23956" lon="4.71146">
        <ele>165</ele>
        <time>2024-07-03T07:54:07Z</time>
      </trkpt>
      <trkpt lat="48.23982" lon="4.71169">
        <ele>167</ele>
        <time>2024-07-03T07:54:12Z</time>
      </trkpt>
      <trkpt lat="48.24068" lon="4.71257">
        <ele>169</ele>
        <time>2024-07-03T07:54:31Z</time>
      </trkpt>
      <trkpt lat="48.24115" lon="4.713">
        <ele>171</ele>
        <time>2024-07-03T07:54:41Z</time>
      </trkpt>
      <trkpt lat="48.24265" lon="4.71447">
        <ele>186</ele>
        <time>2024-07-03T07:55:12Z</time>
      </trkpt>
      <trkpt lat="48.24296" lon="4.71468">
        <ele>188</ele>
        <time>2024-07-03T07:55:18Z</time>
      </trkpt>
      <trkpt lat="48.24335" lon="4.71486">
        <ele>191</ele>
        <time>2024-07-03T07:55:26Z</time>
      </trkpt>
      <trkpt lat="48.24359" lon="4.71507">
        <ele>192</ele>
        <time>2024-07-03T07:55:31Z</time>
      </trkpt>
      <trkpt lat="48.24394" lon="4.71546">
        <ele>195</ele>
        <time>2024-07-03T07:55:38Z</time>
      </trkpt>
      <trkpt lat="48.24428" lon="4.71595">
        <ele>198</ele>
        <time>2024-07-03T07:55:47Z</time>
      </trkpt>
      <trkpt lat="48.24558" lon="4.71754">
        <ele>207</ele>
        <time>2024-07-03T07:56:17Z</time>
      </trkpt>
      <trkpt lat="48.2462" lon="4.71818">
        <ele>211</ele>
        <time>2024-07-03T07:56:30Z</time>
      </trkpt>
      <trkpt lat="48.24649" lon="4.71844">
        <ele>213</ele>
        <time>2024-07-03T07:56:36Z</time>
      </trkpt>
      <trkpt lat="48.24755" lon="4.71971">
        <ele>218</ele>
        <time>2024-07-03T07:57:00Z</time>
      </trkpt>
      <trkpt lat="48.24792" lon="4.72001">
        <ele>222</ele>
        <time>2024-07-03T07:57:08Z</time>
      </trkpt>
      <trkpt lat="48.24831" lon="4.72021">
        <ele>224</ele>
        <time>2024-07-03T07:57:15Z</time>
      </trkpt>
      <trkpt lat="48.2491" lon="4.7204">
        <ele>236</ele>
        <time>2024-07-03T07:57:29Z</time>
      </trkpt>
      <trkpt lat="48.24924" lon="4.72057">
        <ele>238</ele>
        <time>2024-07-03T07:57:32Z</time>
      </trkpt>
      <trkpt lat="48.24946" lon="4.72124">
        <ele>245</ele>
        <time>2024-07-03T07:57:41Z</time>
      </trkpt>
      <trkpt lat="48.24969" lon="4.72167">
        <ele>252</ele>
        <time>2024-07-03T07:57:48Z</time>
      </trkpt>
      <trkpt lat="48.24979" lon="4.72191">
        <ele>255</ele>
        <time>2024-07-03T07:57:51Z</time>
      </trkpt>
      <trkpt lat="48.24989" lon="4.72276">
        <ele>261</ele>
        <time>2024-07-03T07:58:01Z</time>
      </trkpt>
      <trkpt lat="48.25007" lon="4.7234">
        <ele>265</ele>
        <time>2024-07-03T07:58:10Z</time>
      </trkpt>
      <trkpt lat="48.25045" lon="4.72394">
        <ele>270</ele>
        <time>2024-07-03T07:58:19Z</time>
      </trkpt>
      <trkpt lat="48.25076" lon="4.72424">
        <ele>273</ele>
        <time>2024-07-03T07:58:25Z</time>
      </trkpt>
      <trkpt lat="48.25105" lon="4.72441">
        <ele>276</ele>
        <time>2024-07-03T07:58:31Z</time>
      </trkpt>
      <trkpt lat="48.25121" lon="4.72448">
        <ele>277</ele>
        <time>2024-07-03T07:58:34Z</time>
      </trkpt>
      <trkpt lat="48.25126" lon="4.72492">
        <ele>276</ele>
        <time>2024-07-03T07:58:39Z</time>
      </trkpt>
      <trkpt lat="48.25141" lon="4.72881">
        <ele>275</ele>
        <time>2024-07-03T07:59:25Z</time>
      </trkpt>
      <trkpt lat="48.25148" lon="4.72943">
        <ele>273</ele>
        <time>2024-07-03T07:59:33Z</time>
      </trkpt>
      <trkpt lat="48.2517" lon="4.73003">
        <ele>274</ele>
        <time>2024-07-03T07:59:41Z</time>
      </trkpt>
      <trkpt lat="48.25197" lon="4.7305">
        <ele>273</ele>
        <time>2024-07-03T07:59:48Z</time>
      </trkpt>
      <trkpt lat="48.25218" lon="4.73072">
        <ele>273</ele>
        <time>2024-07-03T07:59:53Z</time>
      </trkpt>
      <trkpt lat="48.2524" lon="4.73092">
        <ele>273</ele>
        <time>2024-07-03T07:59:58Z</time>
      </trkpt>
      <trkpt lat="48.25272" lon="4.73137">
        <ele>274</ele>
        <time>2024-07-03T08:00:05Z</time>
      </trkpt>
      <trkpt lat="48.25319" lon="4.73191">
        <ele>272</ele>
        <time>2024-07-03T08:00:16Z</time>
      </trkpt>
      <trkpt lat="48.25381" lon="4.73223">
        <ele>270</ele>
        <time>2024-07-03T08:00:27Z</time>
      </trkpt>
      <trkpt lat="48.25401" lon="4.7325">
        <ele>268</ele>
        <time>2024-07-03T08:00:32Z</time>
      </trkpt>
      <trkpt lat="48.25456" lon="4.73333">
        <ele>258</ele>
        <time>2024-07-03T08:00:46Z</time>
      </trkpt>
      <trkpt lat="48.25468" lon="4.73321">
        <ele>259</ele>
        <time>2024-07-03T08:00:49Z</time>
      </trkpt>
      <trkpt lat="48.25484" lon="4.73298">
        <ele>260</ele>
        <time>2024-07-03T08:00:53Z</time>
      </trkpt>
      <trkpt lat="48.25498" lon="4.73288">
        <ele>260</ele>
        <time>2024-07-03T08:00:55Z</time>
      </trkpt>
      <trkpt lat="48.25511" lon="4.7328">
        <ele>260</ele>
        <time>2024-07-03T08:00:58Z</time>
      </trkpt>
      <trkpt lat="48.25527" lon="4.73274">
        <ele>261</ele>
        <time>2024-07-03T08:01:01Z</time>
      </trkpt>
      <trkpt lat="48.25538" lon="4.73282">
        <ele>259</ele>
        <time>2024-07-03T08:01:03Z</time>
      </trkpt>
      <trkpt lat="48.25598" lon="4.73348">
        <ele>248</ele>
        <time>2024-07-03T08:01:16Z</time>
      </trkpt>
      <trkpt lat="48.25624" lon="4.734">
        <ele>239</ele>
        <time>2024-07-03T08:01:24Z</time>
      </trkpt>
      <trkpt lat="48.2565" lon="4.73462">
        <ele>231</ele>
        <time>2024-07-03T08:01:33Z</time>
      </trkpt>
      <trkpt lat="48.25655" lon="4.73486">
        <ele>229</ele>
        <time>2024-07-03T08:01:36Z</time>
      </trkpt>
      <trkpt lat="48.25672" lon="4.73546">
        <ele>225</ele>
        <time>2024-07-03T08:01:43Z</time>
      </trkpt>
      <trkpt lat="48.25683" lon="4.7357">
        <ele>224</ele>
        <time>2024-07-03T08:01:47Z</time>
      </trkpt>
      <trkpt lat="48.25705" lon="4.73596">
        <ele>224</ele>
        <time>2024-07-03T08:01:52Z</time>
      </trkpt>
      <trkpt lat="48.25717" lon="4.73602">
        <ele>224</ele>
        <time>2024-07-03T08:01:54Z</time>
      </trkpt>
      <trkpt lat="48.25737" lon="4.73584">
        <ele>225</ele>
        <time>2024-07-03T08:01:58Z</time>
      </trkpt>
      <trkpt lat="48.25745" lon="4.73593">
        <ele>225</ele>
        <time>2024-07-03T08:02:00Z</time>
      </trkpt>
      <trkpt lat="48.2585" lon="4.73687">
        <ele>228</ele>
        <time>2024-07-03T08:02:22Z</time>
      </trkpt>
      <trkpt lat="48.25955" lon="4.73771">
        <ele>231</ele>
        <time>2024-07-03T08:02:43Z</time>
      </trkpt>
      <trkpt lat="48.25964" lon="4.73899">
        <ele>224</ele>
        <time>2024-07-03T08:02:58Z</time>
      </trkpt>
      <trkpt lat="48.26004" lon="4.73926">
        <ele>224</ele>
        <time>2024-07-03T08:03:06Z</time>
      </trkpt>
      <trkpt lat="48.26005" lon="4.73945">
        <ele>223</ele>
        <time>2024-07-03T08:03:08Z</time>
      </trkpt>
      <trkpt lat="48.26015" lon="4.73988">
        <ele>220</ele>
        <time>2024-07-03T08:03:14Z</time>
      </trkpt>
      <trkpt lat="48.26077" lon="4.74233">
        <ele>209</ele>
        <time>2024-07-03T08:03:45Z</time>
      </trkpt>
      <trkpt lat="48.26095" lon="4.74282">
        <ele>208</ele>
        <time>2024-07-03T08:03:51Z</time>
      </trkpt>
      <trkpt lat="48.26098" lon="4.74322">
        <ele>208</ele>
        <time>2024-07-03T08:03:56Z</time>
      </trkpt>
      <trkpt lat="48.26102" lon="4.74347">
        <ele>207</ele>
        <time>2024-07-03T08:03:59Z</time>
      </trkpt>
      <trkpt lat="48.26137" lon="4.74381">
        <ele>206</ele>
        <time>2024-07-03T08:04:06Z</time>
      </trkpt>
      <trkpt lat="48.26151" lon="4.74413">
        <ele>206</ele>
        <time>2024-07-03T08:04:11Z</time>
      </trkpt>
      <trkpt lat="48.26159" lon="4.74416">
        <ele>206</ele>
        <time>2024-07-03T08:04:12Z</time>
      </trkpt>
      <trkpt lat="48.26177" lon="4.7441">
        <ele>206</ele>
        <time>2024-07-03T08:04:16Z</time>
      </trkpt>
      <trkpt lat="48.262" lon="4.74405">
        <ele>207</ele>
        <time>2024-07-03T08:04:20Z</time>
      </trkpt>
      <trkpt lat="48.26224" lon="4.74406">
        <ele>208</ele>
        <time>2024-07-03T08:04:24Z</time>
      </trkpt>
      <trkpt lat="48.2625" lon="4.74411">
        <ele>208</ele>
        <time>2024-07-03T08:04:29Z</time>
      </trkpt>
      <trkpt lat="48.26263" lon="4.74407">
        <ele>209</ele>
        <time>2024-07-03T08:04:31Z</time>
      </trkpt>
      <trkpt lat="48.26259" lon="4.74425">
        <ele>208</ele>
        <time>2024-07-03T08:04:33Z</time>
      </trkpt>
      <trkpt lat="48.26245" lon="4.74447">
        <ele>208</ele>
        <time>2024-07-03T08:04:37Z</time>
      </trkpt>
      <trkpt lat="48.26213" lon="4.74505">
        <ele>206</ele>
        <time>2024-07-03T08:04:46Z</time>
      </trkpt>
      <trkpt lat="48.26208" lon="4.74533">
        <ele>206</ele>
        <time>2024-07-03T08:04:49Z</time>
      </trkpt>
      <trkpt lat="48.26214" lon="4.74633">
        <ele>205</ele>
        <time>2024-07-03T08:05:01Z</time>
      </trkpt>
      <trkpt lat="48.26214" lon="4.74781">
        <ele>204</ele>
        <time>2024-07-03T08:05:19Z</time>
      </trkpt>
      <trkpt lat="48.26189" lon="4.74792">
        <ele>203</ele>
        <time>2024-07-03T08:05:23Z</time>
      </trkpt>
      <trkpt lat="48.26215" lon="4.74791">
        <ele>203</ele>
        <time>2024-07-03T08:05:28Z</time>
      </trkpt>
      <trkpt lat="48.26214" lon="4.74871">
        <ele>202</ele>
        <time>2024-07-03T08:05:38Z</time>
      </trkpt>
      <trkpt lat="48.26208" lon="4.74917">
        <ele>201</ele>
        <time>2024-07-03T08:05:43Z</time>
      </trkpt>
      <trkpt lat="48.26195" lon="4.7495">
        <ele>201</ele>
        <time>2024-07-03T08:05:48Z</time>
      </trkpt>
      <trkpt lat="48.26177" lon="4.74985">
        <ele>202</ele>
        <time>2024-07-03T08:05:53Z</time>
      </trkpt>
      <trkpt lat="48.26057" lon="4.75158">
        <ele>219</ele>
        <time>2024-07-03T08:06:23Z</time>
      </trkpt>
      <trkpt lat="48.25997" lon="4.75332">
        <ele>229</ele>
        <time>2024-07-03T08:06:46Z</time>
      </trkpt>
      <trkpt lat="48.25969" lon="4.75469">
        <ele>236</ele>
        <time>2024-07-03T08:07:03Z</time>
      </trkpt>
      <trkpt lat="48.25965" lon="4.75502">
        <ele>238</ele>
        <time>2024-07-03T08:07:07Z</time>
      </trkpt>
      <trkpt lat="48.25963" lon="4.75561">
        <ele>239</ele>
        <time>2024-07-03T08:07:14Z</time>
      </trkpt>
      <trkpt lat="48.2597" lon="4.75744">
        <ele>239</ele>
        <time>2024-07-03T08:07:35Z</time>
      </trkpt>
      <trkpt lat="48.25977" lon="4.75812">
        <ele>237</ele>
        <time>2024-07-03T08:07:44Z</time>
      </trkpt>
      <trkpt lat="48.25984" lon="4.75855">
        <ele>235</ele>
        <time>2024-07-03T08:07:49Z</time>
      </trkpt>
      <trkpt lat="48.25996" lon="4.75901">
        <ele>232</ele>
        <time>2024-07-03T08:07:55Z</time>
      </trkpt>
      <trkpt lat="48.26009" lon="4.75924">
        <ele>232</ele>
        <time>2024-07-03T08:07:58Z</time>
      </trkpt>
      <trkpt lat="48.26035" lon="4.75954">
        <ele>233</ele>
        <time>2024-07-03T08:08:04Z</time>
      </trkpt>
      <trkpt lat="48.26042" lon="4.75972">
        <ele>232</ele>
        <time>2024-07-03T08:08:06Z</time>
      </trkpt>
      <trkpt lat="48.26052" lon="4.7601">
        <ele>229</ele>
        <time>2024-07-03T08:08:11Z</time>
      </trkpt>
      <trkpt lat="48.26063" lon="4.76039">
        <ele>227</ele>
        <time>2024-07-03T08:08:15Z</time>
      </trkpt>
      <trkpt lat="48.26074" lon="4.76056">
        <ele>226</ele>
        <time>2024-07-03T08:08:18Z</time>
      </trkpt>
      <trkpt lat="48.26118" lon="4.7608">
        <ele>227</ele>
        <time>2024-07-03T08:08:26Z</time>
      </trkpt>
      <trkpt lat="48.26183" lon="4.76133">
        <ele>232</ele>
        <time>2024-07-03T08:08:40Z</time>
      </trkpt>
      <trkpt lat="48.26222" lon="4.76172">
        <ele>236</ele>
        <time>2024-07-03T08:08:48Z</time>
      </trkpt>
      <trkpt lat="48.26238" lon="4.76192">
        <ele>238</ele>
        <time>2024-07-03T08:08:52Z</time>
      </trkpt>
      <trkpt lat="48.26251" lon="4.76236">
        <ele>240</ele>
        <time>2024-07-03T08:08:57Z</time>
      </trkpt>
      <trkpt lat="48.26254" lon="4.7627">
        <ele>242</ele>
        <time>2024-07-03T08:09:01Z</time>
      </trkpt>
      <trkpt lat="48.26245" lon="4.764">
        <ele>247</ele>
        <time>2024-07-03T08:09:17Z</time>
      </trkpt>
      <trkpt lat="48.26233" lon="4.76527">
        <ele>258</ele>
        <time>2024-07-03T08:09:32Z</time>
      </trkpt>
      <trkpt lat="48.26219" lon="4.76625">
        <ele>271</ele>
        <time>2024-07-03T08:09:44Z</time>
      </trkpt>
      <trkpt lat="48.26213" lon="4.76627">
        <ele>271</ele>
        <time>2024-07-03T08:09:45Z</time>
      </trkpt>
      <trkpt lat="48.26156" lon="4.76604">
        <ele>270</ele>
        <time>2024-07-03T08:09:56Z</time>
      </trkpt>
      <trkpt lat="48.26132" lon="4.7659">
        <ele>268</ele>
        <time>2024-07-03T08:10:00Z</time>
      </trkpt>
      <trkpt lat="48.26113" lon="4.76581">
        <ele>268</ele>
        <time>2024-07-03T08:10:04Z</time>
      </trkpt>
      <trkpt lat="48.26092" lon="4.76587">
        <ele>270</ele>
        <time>2024-07-03T08:10:07Z</time>
      </trkpt>
      <trkpt lat="48.26084" lon="4.76605">
        <ele>274</ele>
        <time>2024-07-03T08:10:10Z</time>
      </trkpt>
      <trkpt lat="48.26047" lon="4.76657">
        <ele>274</ele>
        <time>2024-07-03T08:10:19Z</time>
      </trkpt>
      <trkpt lat="48.26031" lon="4.76714">
        <ele>274</ele>
        <time>2024-07-03T08:10:26Z</time>
      </trkpt>
      <trkpt lat="48.26023" lon="4.76785">
        <ele>275</ele>
        <time>2024-07-03T08:10:35Z</time>
      </trkpt>
      <trkpt lat="48.26021" lon="4.76842">
        <ele>276</ele>
        <time>2024-07-03T08:10:42Z</time>
      </trkpt>
      <trkpt lat="48.26017" lon="4.76886">
        <ele>276</ele>
        <time>2024-07-03T08:10:47Z</time>
      </trkpt>
      <trkpt lat="48.25997" lon="4.76947">
        <ele>271</ele>
        <time>2024-07-03T08:10:55Z</time>
      </trkpt>
      <trkpt lat="48.26" lon="4.76984">
        <ele>271</ele>
        <time>2024-07-03T08:10:59Z</time>
      </trkpt>
      <trkpt lat="48.26018" lon="4.77045">
        <ele>275</ele>
        <time>2024-07-03T08:11:07Z</time>
      </trkpt>
      <trkpt lat="48.26026" lon="4.77111">
        <ele>277</ele>
        <time>2024-07-03T08:11:15Z</time>
      </trkpt>
      <trkpt lat="48.26029" lon="4.77157">
        <ele>278</ele>
        <time>2024-07-03T08:11:21Z</time>
      </trkpt>
      <trkpt lat="48.26036" lon="4.77222">
        <ele>279</ele>
        <time>2024-07-03T08:11:29Z</time>
      </trkpt>
      <trkpt lat="48.26057" lon="4.77288">
        <ele>283</ele>
        <time>2024-07-03T08:11:37Z</time>
      </trkpt>
      <trkpt lat="48.26065" lon="4.77328">
        <ele>283</ele>
        <time>2024-07-03T08:11:42Z</time>
      </trkpt>
      <trkpt lat="48.26075" lon="4.77349">
        <ele>284</ele>
        <time>2024-07-03T08:11:45Z</time>
      </trkpt>
      <trkpt lat="48.26086" lon="4.77355">
        <ele>286</ele>
        <time>2024-07-03T08:11:47Z</time>
      </trkpt>
      <trkpt lat="48.26107" lon="4.77381">
        <ele>288</ele>
        <time>2024-07-03T08:11:52Z</time>
      </trkpt>
      <trkpt lat="48.26129" lon="4.77583">
        <ele>275</ele>
        <time>2024-07-03T08:12:16Z</time>
      </trkpt>
      <trkpt lat="48.26161" lon="4.77779">
        <ele>262</ele>
        <time>2024-07-03T08:12:40Z</time>
      </trkpt>
      <trkpt lat="48.26173" lon="4.7789">
        <ele>254</ele>
        <time>2024-07-03T08:12:54Z</time>
      </trkpt>
      <trkpt lat="48.26172" lon="4.77962">
        <ele>248</ele>
        <time>2024-07-03T08:13:02Z</time>
      </trkpt>
      <trkpt lat="48.26183" lon="4.78108">
        <ele>241</ele>
        <time>2024-07-03T08:13:20Z</time>
      </trkpt>
      <trkpt lat="48.26222" lon="4.7829">
        <ele>232</ele>
        <time>2024-07-03T08:13:42Z</time>
      </trkpt>
      <trkpt lat="48.26192" lon="4.78271">
        <ele>232</ele>
        <time>2024-07-03T08:13:48Z</time>
      </trkpt>
      <trkpt lat="48.26197" lon="4.78295">
        <ele>231</ele>
        <time>2024-07-03T08:13:51Z</time>
      </trkpt>
      <trkpt lat="48.26211" lon="4.78345">
        <ele>228</ele>
        <time>2024-07-03T08:13:57Z</time>
      </trkpt>
      <trkpt lat="48.2621" lon="4.78355">
        <ele>227</ele>
        <time>2024-07-03T08:13:59Z</time>
      </trkpt>
      <trkpt lat="48.26203" lon="4.78361">
        <ele>227</ele>
        <time>2024-07-03T08:14:00Z</time>
      </trkpt>
      <trkpt lat="48.2605" lon="4.78442">
        <ele>221</ele>
        <time>2024-07-03T08:14:29Z</time>
      </trkpt>
      <trkpt lat="48.26033" lon="4.78457">
        <ele>221</ele>
        <time>2024-07-03T08:14:32Z</time>
      </trkpt>
      <trkpt lat="48.2601" lon="4.78496">
        <ele>218</ele>
        <time>2024-07-03T08:14:39Z</time>
      </trkpt>
      <trkpt lat="48.25953" lon="4.78542">
        <ele>216</ele>
        <time>2024-07-03T08:14:50Z</time>
      </trkpt>
      <trkpt lat="48.2587" lon="4.78569">
        <ele>215</ele>
        <time>2024-07-03T08:15:05Z</time>
      </trkpt>
      <trkpt lat="48.25818" lon="4.7859">
        <ele>215</ele>
        <time>2024-07-03T08:15:15Z</time>
      </trkpt>
      <trkpt lat="48.25811" lon="4.78596">
        <ele>215</ele>
        <time>2024-07-03T08:15:16Z</time>
      </trkpt>
      <trkpt lat="48.25776" lon="4.786">
        <ele>213</ele>
        <time>2024-07-03T08:15:22Z</time>
      </trkpt>
      <trkpt lat="48.25733" lon="4.78595">
        <ele>213</ele>
        <time>2024-07-03T08:15:30Z</time>
      </trkpt>
      <trkpt lat="48.25711" lon="4.78582">
        <ele>212</ele>
        <time>2024-07-03T08:15:34Z</time>
      </trkpt>
      <trkpt lat="48.25677" lon="4.78549">
        <ele>212</ele>
        <time>2024-07-03T08:15:42Z</time>
      </trkpt>
      <trkpt lat="48.25653" lon="4.78536">
        <ele>213</ele>
        <time>2024-07-03T08:15:46Z</time>
      </trkpt>
      <trkpt lat="48.25568" lon="4.78512">
        <ele>213</ele>
        <time>2024-07-03T08:16:01Z</time>
      </trkpt>
      <trkpt lat="48.25487" lon="4.78497">
        <ele>217</ele>
        <time>2024-07-03T08:16:16Z</time>
      </trkpt>
      <trkpt lat="48.2549" lon="4.78485">
        <ele>217</ele>
        <time>2024-07-03T08:16:17Z</time>
      </trkpt>
      <trkpt lat="48.25486" lon="4.78468">
        <ele>217</ele>
        <time>2024-07-03T08:16:20Z</time>
      </trkpt>
      <trkpt lat="48.25497" lon="4.78463">
        <ele>216</ele>
        <time>2024-07-03T08:16:22Z</time>
      </trkpt>
      <trkpt lat="48.25496" lon="4.7844">
        <ele>216</ele>
        <time>2024-07-03T08:16:24Z</time>
      </trkpt>
      <trkpt lat="48.25511" lon="4.78418">
        <ele>214</ele>
        <time>2024-07-03T08:16:28Z</time>
      </trkpt>
      <trkpt lat="48.25532" lon="4.78363">
        <ele>214</ele>
        <time>2024-07-03T08:16:36Z</time>
      </trkpt>
      <trkpt lat="48.25477" lon="4.78496">
        <ele>218</ele>
        <time>2024-07-03T08:16:54Z</time>
      </trkpt>
      <trkpt lat="48.25446" lon="4.78504">
        <ele>220</ele>
        <time>2024-07-03T08:17:00Z</time>
      </trkpt>
      <trkpt lat="48.25385" lon="4.78515">
        <ele>224</ele>
        <time>2024-07-03T08:17:11Z</time>
      </trkpt>
      <trkpt lat="48.25308" lon="4.78547">
        <ele>232</ele>
        <time>2024-07-03T08:17:25Z</time>
      </trkpt>
      <trkpt lat="48.25282" lon="4.78544">
        <ele>236</ele>
        <time>2024-07-03T08:17:30Z</time>
      </trkpt>
      <trkpt lat="48.25203" lon="4.78499">
        <ele>248</ele>
        <time>2024-07-03T08:17:45Z</time>
      </trkpt>
      <trkpt lat="48.25156" lon="4.78496">
        <ele>254</ele>
        <time>2024-07-03T08:17:53Z</time>
      </trkpt>
      <trkpt lat="48.25113" lon="4.78497">
        <ele>257</ele>
        <time>2024-07-03T08:18:01Z</time>
      </trkpt>
      <trkpt lat="48.25076" lon="4.78499">
        <ele>259</ele>
        <time>2024-07-03T08:18:07Z</time>
      </trkpt>
      <trkpt lat="48.2503" lon="4.78504">
        <ele>257</ele>
        <time>2024-07-03T08:18:15Z</time>
      </trkpt>
      <trkpt lat="48.2505" lon="4.78363">
        <ele>258</ele>
        <time>2024-07-03T08:18:32Z</time>
      </trkpt>
      <trkpt lat="48.25054" lon="4.78297">
        <ele>260</ele>
        <time>2024-07-03T08:18:40Z</time>
      </trkpt>
      <trkpt lat="48.25054" lon="4.78253">
        <ele>260</ele>
        <time>2024-07-03T08:18:46Z</time>
      </trkpt>
      <trkpt lat="48.25049" lon="4.78115">
        <ele>275</ele>
        <time>2024-07-03T08:19:02Z</time>
      </trkpt>
      <trkpt lat="48.25042" lon="4.78093">
        <ele>279</ele>
        <time>2024-07-03T08:19:05Z</time>
      </trkpt>
      <trkpt lat="48.25023" lon="4.78016">
        <ele>292</ele>
        <time>2024-07-03T08:19:15Z</time>
      </trkpt>
      <trkpt lat="48.25008" lon="4.77972">
        <ele>299</ele>
        <time>2024-07-03T08:19:20Z</time>
      </trkpt>
      <trkpt lat="48.24975" lon="4.77821">
        <ele>312</ele>
        <time>2024-07-03T08:19:39Z</time>
      </trkpt>
      <trkpt lat="48.24988" lon="4.77695">
        <ele>314</ele>
        <time>2024-07-03T08:19:54Z</time>
      </trkpt>
      <trkpt lat="48.24981" lon="4.77664">
        <ele>315</ele>
        <time>2024-07-03T08:19:58Z</time>
      </trkpt>
      <trkpt lat="48.24967" lon="4.77642">
        <ele>316</ele>
        <time>2024-07-03T08:20:02Z</time>
      </trkpt>
      <trkpt lat="48.24925" lon="4.77611">
        <ele>320</ele>
        <time>2024-07-03T08:20:10Z</time>
      </trkpt>
      <trkpt lat="48.24899" lon="4.77573">
        <ele>321</ele>
        <time>2024-07-03T08:20:17Z</time>
      </trkpt>
      <trkpt lat="48.24881" lon="4.77512">
        <ele>321</ele>
        <time>2024-07-03T08:20:25Z</time>
      </trkpt>
      <trkpt lat="48.24883" lon="4.77461">
        <ele>320</ele>
        <time>2024-07-03T08:20:31Z</time>
      </trkpt>
      <trkpt lat="48.2489" lon="4.77383">
        <ele>319</ele>
        <time>2024-07-03T08:20:40Z</time>
      </trkpt>
      <trkpt lat="48.2488" lon="4.77292">
        <ele>318</ele>
        <time>2024-07-03T08:20:51Z</time>
      </trkpt>
      <trkpt lat="48.24851" lon="4.7719">
        <ele>316</ele>
        <time>2024-07-03T08:21:04Z</time>
      </trkpt>
      <trkpt lat="48.24802" lon="4.77081">
        <ele>308</ele>
        <time>2024-07-03T08:21:20Z</time>
      </trkpt>
      <trkpt lat="48.24771" lon="4.77058">
        <ele>304</ele>
        <time>2024-07-03T08:21:26Z</time>
      </trkpt>
      <trkpt lat="48.24757" lon="4.76975">
        <ele>308</ele>
        <time>2024-07-03T08:21:36Z</time>
      </trkpt>
      <trkpt lat="48.24733" lon="4.76883">
        <ele>308</ele>
        <time>2024-07-03T08:21:48Z</time>
      </trkpt>
      <trkpt lat="48.24711" lon="4.76781">
        <ele>307</ele>
        <time>2024-07-03T08:22:00Z</time>
      </trkpt>
      <trkpt lat="48.24662" lon="4.76666">
        <ele>312</ele>
        <time>2024-07-03T08:22:16Z</time>
      </trkpt>
      <trkpt lat="48.24609" lon="4.76571">
        <ele>315</ele>
        <time>2024-07-03T08:22:31Z</time>
      </trkpt>
      <trkpt lat="48.24563" lon="4.76514">
        <ele>315</ele>
        <time>2024-07-03T08:22:42Z</time>
      </trkpt>
      <trkpt lat="48.24464" lon="4.76349">
        <ele>316</ele>
        <time>2024-07-03T08:23:08Z</time>
      </trkpt>
      <trkpt lat="48.24415" lon="4.76253">
        <ele>317</ele>
        <time>2024-07-03T08:23:22Z</time>
      </trkpt>
      <trkpt lat="48.24359" lon="4.76089">
        <ele>312</ele>
        <time>2024-07-03T08:23:44Z</time>
      </trkpt>
      <trkpt lat="48.2433" lon="4.76027">
        <ele>306</ele>
        <time>2024-07-03T08:23:53Z</time>
      </trkpt>
      <trkpt lat="48.24301" lon="4.75952">
        <ele>298</ele>
        <time>2024-07-03T08:24:03Z</time>
      </trkpt>
      <trkpt lat="48.24297" lon="4.7586">
        <ele>293</ele>
        <time>2024-07-03T08:24:14Z</time>
      </trkpt>
      <trkpt lat="48.24292" lon="4.75836">
        <ele>290</ele>
        <time>2024-07-03T08:24:17Z</time>
      </trkpt>
      <trkpt lat="48.24276" lon="4.759">
        <ele>289</ele>
        <time>2024-07-03T08:24:25Z</time>
      </trkpt>
      <trkpt lat="48.24274" lon="4.75939">
        <ele>290</ele>
        <time>2024-07-03T08:24:30Z</time>
      </trkpt>
      <trkpt lat="48.24286" lon="4.76144">
        <ele>290</ele>
        <time>2024-07-03T08:24:54Z</time>
      </trkpt>
      <trkpt lat="48.24296" lon="4.76223">
        <ele>289</ele>
        <time>2024-07-03T08:25:04Z</time>
      </trkpt>
      <trkpt lat="48.24308" lon="4.76256">
        <ele>291</ele>
        <time>2024-07-03T08:25:08Z</time>
      </trkpt>
      <trkpt lat="48.24384" lon="4.76394">
        <ele>297</ele>
        <time>2024-07-03T08:25:30Z</time>
      </trkpt>
      <trkpt lat="48.2448" lon="4.76562">
        <ele>296</ele>
        <time>2024-07-03T08:25:56Z</time>
      </trkpt>
      <trkpt lat="48.24505" lon="4.76611">
        <ele>293</ele>
        <time>2024-07-03T08:26:03Z</time>
      </trkpt>
      <trkpt lat="48.2446" lon="4.76615">
        <ele>281</ele>
        <time>2024-07-03T08:26:11Z</time>
      </trkpt>
      <trkpt lat="48.24317" lon="4.76621">
        <ele>254</ele>
        <time>2024-07-03T08:26:37Z</time>
      </trkpt>
      <trkpt lat="48.2428" lon="4.76651">
        <ele>247</ele>
        <time>2024-07-03T08:26:44Z</time>
      </trkpt>
      <trkpt lat="48.24245" lon="4.76674">
        <ele>241</ele>
        <time>2024-07-03T08:26:51Z</time>
      </trkpt>
      <trkpt lat="48.2422" lon="4.76639">
        <ele>243</ele>
        <time>2024-07-03T08:26:57Z</time>
      </trkpt>
      <trkpt lat="48.24162" lon="4.76543">
        <ele>245</ele>
        <time>2024-07-03T08:27:12Z</time>
      </trkpt>
      <trkpt lat="48.24142" lon="4.76503">
        <ele>244</ele>
        <time>2024-07-03T08:27:18Z</time>
      </trkpt>
      <trkpt lat="48.24128" lon="4.7651">
        <ele>242</ele>
        <time>2024-07-03T08:27:21Z</time>
      </trkpt>
      <trkpt lat="48.24094" lon="4.76539">
        <ele>236</ele>
        <time>2024-07-03T08:27:28Z</time>
      </trkpt>
      <trkpt lat="48.24087" lon="4.76509">
        <ele>236</ele>
        <time>2024-07-03T08:27:32Z</time>
      </trkpt>
      <trkpt lat="48.24087" lon="4.76465">
        <ele>239</ele>
        <time>2024-07-03T08:27:37Z</time>
      </trkpt>
      <trkpt lat="48.24098" lon="4.76412">
        <ele>243</ele>
        <time>2024-07-03T08:27:43Z</time>
      </trkpt>
      <trkpt lat="48.24108" lon="4.76381">
        <ele>247</ele>
        <time>2024-07-03T08:27:48Z</time>
      </trkpt>
      <trkpt lat="48.24005" lon="4.75725">
        <ele>250</ele>
        <time>2024-07-03T08:29:07Z</time>
      </trkpt>
      <trkpt lat="48.23972" lon="4.75649">
        <ele>249</ele>
        <time>2024-07-03T08:29:18Z</time>
      </trkpt>
      <trkpt lat="48.23892" lon="4.75497">
        <ele>247</ele>
        <time>2024-07-03T08:29:41Z</time>
      </trkpt>
      <trkpt lat="48.23869" lon="4.75524">
        <ele>244</ele>
        <time>2024-07-03T08:29:46Z</time>
      </trkpt>
      <trkpt lat="48.23857" lon="4.75542">
        <ele>242</ele>
        <time>2024-07-03T08:29:49Z</time>
      </trkpt>
      <trkpt lat="48.23847" lon="4.75472">
        <ele>244</ele>
        <time>2024-07-03T08:29:58Z</time>
      </trkpt>
      <trkpt lat="48.23832" lon="4.75395">
        <ele>245</ele>
        <time>2024-07-03T08:30:07Z</time>
      </trkpt>
      <trkpt lat="48.23796" lon="4.75269">
        <ele>247</ele>
        <time>2024-07-03T08:30:24Z</time>
      </trkpt>
      <trkpt lat="48.23757" lon="4.75155">
        <ele>246</ele>
        <time>2024-07-03T08:30:39Z</time>
      </trkpt>
      <trkpt lat="48.23718" lon="4.75019">
        <ele>246</ele>
        <time>2024-07-03T08:30:56Z</time>
      </trkpt>
      <trkpt lat="48.23673" lon="4.74916">
        <ele>245</ele>
        <time>2024-07-03T08:31:11Z</time>
      </trkpt>
      <trkpt lat="48.23656" lon="4.74836">
        <ele>242</ele>
        <time>2024-07-03T08:31:21Z</time>
      </trkpt>
      <trkpt lat="48.23608" lon="4.7472">
        <ele>236</ele>
        <time>2024-07-03T08:31:37Z</time>
      </trkpt>
      <trkpt lat="48.23585" lon="4.74671">
        <ele>232</ele>
        <time>2024-07-03T08:31:44Z</time>
      </trkpt>
      <trkpt lat="48.23578" lon="4.74559">
        <ele>225</ele>
        <time>2024-07-03T08:31:58Z</time>
      </trkpt>
      <trkpt lat="48.23575" lon="4.74438">
        <ele>219</ele>
        <time>2024-07-03T08:32:12Z</time>
      </trkpt>
      <trkpt lat="48.23573" lon="4.74421">
        <ele>218</ele>
        <time>2024-07-03T08:32:14Z</time>
      </trkpt>
      <trkpt lat="48.23564" lon="4.74413">
        <ele>218</ele>
        <time>2024-07-03T08:32:16Z</time>
      </trkpt>
      <trkpt lat="48.23535" lon="4.74377">
        <ele>218</ele>
        <time>2024-07-03T08:32:22Z</time>
      </trkpt>
      <trkpt lat="48.23472" lon="4.74244">
        <ele>216</ele>
        <time>2024-07-03T08:32:42Z</time>
      </trkpt>
      <trkpt lat="48.2346" lon="4.74211">
        <ele>215</ele>
        <time>2024-07-03T08:32:46Z</time>
      </trkpt>
      <trkpt lat="48.23404" lon="4.74104">
        <ele>214</ele>
        <time>2024-07-03T08:33:02Z</time>
      </trkpt>
      <trkpt lat="48.23373" lon="4.74013">
        <ele>210</ele>
        <time>2024-07-03T08:33:15Z</time>
      </trkpt>
      <trkpt lat="48.23365" lon="4.73953">
        <ele>206</ele>
        <time>2024-07-03T08:33:22Z</time>
      </trkpt>
      <trkpt lat="48.23371" lon="4.7388">
        <ele>201</ele>
        <time>2024-07-03T08:33:30Z</time>
      </trkpt>
      <trkpt lat="48.23379" lon="4.73821">
        <ele>197</ele>
        <time>2024-07-03T08:33:38Z</time>
      </trkpt>
      <trkpt lat="48.23381" lon="4.73724">
        <ele>192</ele>
        <time>2024-07-03T08:33:49Z</time>
      </trkpt>
      <trkpt lat="48.23373" lon="4.73679">
        <ele>190</ele>
        <time>2024-07-03T08:33:55Z</time>
      </trkpt>
      <trkpt lat="48.23321" lon="4.73538">
        <ele>189</ele>
        <time>2024-07-03T08:34:14Z</time>
      </trkpt>
      <trkpt lat="48.23272" lon="4.7334">
        <ele>188</ele>
        <time>2024-07-03T08:34:39Z</time>
      </trkpt>
      <trkpt lat="48.23243" lon="4.73182">
        <ele>186</ele>
        <time>2024-07-03T08:34:58Z</time>
      </trkpt>
      <trkpt lat="48.23233" lon="4.72975">
        <ele>184</ele>
        <time>2024-07-03T08:35:23Z</time>
      </trkpt>
      <trkpt lat="48.23235" lon="4.72777">
        <ele>181</ele>
        <time>2024-07-03T08:35:46Z</time>
      </trkpt>
      <trkpt lat="48.23234" lon="4.72685">
        <ele>181</ele>
        <time>2024-07-03T08:35:57Z</time>
      </trkpt>
      <trkpt lat="48.23229" lon="4.72566">
        <ele>178</ele>
        <time>2024-07-03T08:36:11Z</time>
      </trkpt>
      <trkpt lat="48.23229" lon="4.72445">
        <ele>176</ele>
        <time>2024-07-03T08:36:26Z</time>
      </trkpt>
      <trkpt lat="48.23241" lon="4.72316">
        <ele>174</ele>
        <time>2024-07-03T08:36:41Z</time>
      </trkpt>
      <trkpt lat="48.23249" lon="4.72185">
        <ele>174</ele>
        <time>2024-07-03T08:36:57Z</time>
      </trkpt>
      <trkpt lat="48.23247" lon="4.72131">
        <ele>174</ele>
        <time>2024-07-03T08:37:03Z</time>
      </trkpt>
      <trkpt lat="48.2324" lon="4.72091">
        <ele>174</ele>
        <time>2024-07-03T08:37:08Z</time>
      </trkpt>
      <trkpt lat="48.232" lon="4.71984">
        <ele>172</ele>
        <time>2024-07-03T08:37:23Z</time>
      </trkpt>
      <trkpt lat="48.23192" lon="4.71913">
        <ele>170</ele>
        <time>2024-07-03T08:37:31Z</time>
      </trkpt>
      <trkpt lat="48.23178" lon="4.71849">
        <ele>169</ele>
        <time>2024-07-03T08:37:39Z</time>
      </trkpt>
      <trkpt lat="48.2315" lon="4.71753">
        <ele>170</ele>
        <time>2024-07-03T08:37:51Z</time>
      </trkpt>
      <trkpt lat="48.23144" lon="4.71711">
        <ele>170</ele>
        <time>2024-07-03T08:37:57Z</time>
      </trkpt>
      <trkpt lat="48.23189" lon="4.71679">
        <ele>170</ele>
        <time>2024-07-03T08:38:05Z</time>
      </trkpt>
      <trkpt lat="48.23227" lon="4.71631">
        <ele>169</ele>
        <time>2024-07-03T08:38:14Z</time>
      </trkpt>
      <trkpt lat="48.23247" lon="4.71615">
        <ele>169</ele>
        <time>2024-07-03T08:38:18Z</time>
      </trkpt>
      <trkpt lat="48.23257" lon="4.71539">
        <ele>168</ele>
        <time>2024-07-03T08:38:27Z</time>
      </trkpt>
      <trkpt lat="48.23264" lon="4.71524">
        <ele>168</ele>
        <time>2024-07-03T08:38:30Z</time>
      </trkpt>
      <trkpt lat="48.2326" lon="4.71497">
        <ele>168</ele>
        <time>2024-07-03T08:38:33Z</time>
      </trkpt>
      <trkpt lat="48.23262" lon="4.71465">
        <ele>167</ele>
        <time>2024-07-03T08:38:37Z</time>
      </trkpt>
      <trkpt lat="48.23271" lon="4.71419">
        <ele>166</ele>
        <time>2024-07-03T08:38:42Z</time>
      </trkpt>
      <trkpt lat="48.233" lon="4.71236">
        <ele>164</ele>
        <time>2024-07-03T08:39:05Z</time>
      </trkpt>
      <trkpt lat="48.2331" lon="4.71187">
        <ele>165</ele>
        <time>2024-07-03T08:39:11Z</time>
      </trkpt>
      <trkpt lat="48.23318" lon="4.7113">
        <ele>165</ele>
        <time>2024-07-03T08:39:18Z</time>
      </trkpt>
      <trkpt lat="48.23306" lon="4.71114">
        <ele>165</ele>
        <time>2024-07-03T08:39:21Z</time>
      </trkpt>
      <trkpt lat="48.23253" lon="4.7111">
        <ele>165</ele>
        <time>2024-07-03T08:39:30Z</time>
      </trkpt>
      <trkpt lat="48.23254" lon="4.7104">
        <ele>165</ele>
        <time>2024-07-03T08:39:38Z</time>
      </trkpt>
      <trkpt lat="48.23272" lon="4.70979">
        <ele>166</ele>
        <time>2024-07-03T08:39:46Z</time>
      </trkpt>
      <trkpt lat="48.23298" lon="4.70939">
        <ele>166</ele>
        <time>2024-07-03T08:39:53Z</time>
      </trkpt>
      <trkpt lat="48.23317" lon="4.70898">
        <ele>167</ele>
        <time>2024-07-03T08:39:59Z</time>
      </trkpt>
      <trkpt lat="48.23297" lon="4.70878">
        <ele>168</ele>
        <time>2024-07-03T08:40:03Z</time>
      </trkpt>
      <trkpt lat="48.23311" lon="4.70849">
        <ele>168</ele>
        <time>2024-07-03T08:40:07Z</time>
      </trkpt>
      <trkpt lat="48.23326" lon="4.70829">
        <ele>168</ele>
        <time>2024-07-03T08:40:11Z</time>
      </trkpt>
      <trkpt lat="48.23337" lon="4.70796">
        <ele>168</ele>
        <time>2024-07-03T08:40:15Z</time>
      </trkpt>
      <trkpt lat="48.23334" lon="4.70784">
        <ele>169</ele>
        <time>2024-07-03T08:40:17Z</time>
      </trkpt>
      <trkpt lat="48.23351" lon="4.70743">
        <ele>169</ele>
        <time>2024-07-03T08:40:22Z</time>
      </trkpt>
      <trkpt lat="48.23304" lon="4.70695">
        <ele>170</ele>
        <time>2024-07-03T08:40:33Z</time>
      </trkpt>
      <trkpt lat="48.23305" lon="4.70679">
        <ele>170</ele>
        <time>2024-07-03T08:40:34Z</time>
      </trkpt>
      <trkpt lat="48.23371" lon="4.70594">
        <ele>169</ele>
        <time>2024-07-03T08:40:50Z</time>
      </trkpt>
      <trkpt lat="48.23397" lon="4.70575">
        <ele>168</ele>
        <time>2024-07-03T08:40:55Z</time>
      </trkpt>
      <trkpt lat="48.23408" lon="4.70573">
        <ele>168</ele>
        <time>2024-07-03T08:40:57Z</time>
      </trkpt>
      <trkpt lat="48.23405" lon="4.70568">
        <ele>168</ele>
        <time>2024-07-03T08:40:58Z</time>
      </trkpt>
      <trkpt lat="48.23508" lon="4.70403">
        <ele>165</ele>
        <time>2024-07-03T08:41:25Z</time>
      </trkpt>
      <trkpt lat="48.23597" lon="4.70283">
        <ele>163</ele>
        <time>2024-07-03T08:41:46Z</time>
      </trkpt>
      <trkpt lat="48.2361" lon="4.7027">
        <ele>163</ele>
        <time>2024-07-03T08:41:49Z</time>
      </trkpt>
      <trkpt lat="48.23593" lon="4.7022">
        <ele>163</ele>
        <time>2024-07-03T08:41:55Z</time>
      </trkpt>
    </trkseg>
  </trk>
  <trk>
    <name><![CDATA[39. Parcours du camp romain-17237818]]></name>
    <extensions>
      <line xmlns="http://www.topografix.com/GPX/gpx_style/0/2">
        <color>f10909</color>
        <width>4</width>
      </line>
    </extensions>
    <trkseg>
      <trkpt lat="48.21931" lon="4.69874">
        <ele>311</ele>
        <time>2024-07-03T07:50:42Z</time>
      </trkpt>
      <trkpt lat="48.21838" lon="4.69907">
        <ele>314</ele>
        <time>2024-07-03T07:50:59Z</time>
      </trkpt>
      <trkpt lat="48.21818" lon="4.69796">
        <ele>320</ele>
        <time>2024-07-03T07:51:13Z</time>
      </trkpt>
      <trkpt lat="48.21829" lon="4.69686">
        <ele>317</ele>
        <time>2024-07-03T07:51:26Z</time>
      </trkpt>
      <trkpt lat="48.21825" lon="4.69678">
        <ele>317</ele>
        <time>2024-07-03T07:51:27Z</time>
      </trkpt>
      <trkpt lat="48.21674" lon="4.69662">
        <ele>321</ele>
        <time>2024-07-03T07:51:54Z</time>
      </trkpt>
      <trkpt lat="48.21599" lon="4.69653">
        <ele>319</ele>
        <time>2024-07-03T07:52:07Z</time>
      </trkpt>
      <trkpt lat="48.21528" lon="4.69683">
        <ele>319</ele>
        <time>2024-07-03T07:52:20Z</time>
      </trkpt>
      <trkpt lat="48.21393" lon="4.69823">
        <ele>324</ele>
        <time>2024-07-03T07:52:50Z</time>
      </trkpt>
      <trkpt lat="48.2136" lon="4.69835">
        <ele>324</ele>
        <time>2024-07-03T07:52:56Z</time>
      </trkpt>
      <trkpt lat="48.21302" lon="4.69845">
        <ele>325</ele>
        <time>2024-07-03T07:53:06Z</time>
      </trkpt>
      <trkpt lat="48.21271" lon="4.69836">
        <ele>326</ele>
        <time>2024-07-03T07:53:12Z</time>
      </trkpt>
      <trkpt lat="48.21165" lon="4.69871">
        <ele>333</ele>
        <time>2024-07-03T07:53:31Z</time>
      </trkpt>
      <trkpt lat="48.20988" lon="4.69851">
        <ele>338</ele>
        <time>2024-07-03T07:54:03Z</time>
      </trkpt>
      <trkpt lat="48.20846" lon="4.69883">
        <ele>341</ele>
        <time>2024-07-03T07:54:28Z</time>
      </trkpt>
      <trkpt lat="48.2068" lon="4.6996">
        <ele>341</ele>
        <time>2024-07-03T07:54:59Z</time>
      </trkpt>
      <trkpt lat="48.20576" lon="4.69961">
        <ele>338</ele>
        <time>2024-07-03T07:55:18Z</time>
      </trkpt>
      <trkpt lat="48.20454" lon="4.69953">
        <ele>341</ele>
        <time>2024-07-03T07:55:39Z</time>
      </trkpt>
      <trkpt lat="48.19967" lon="4.69869">
        <ele>350</ele>
        <time>2024-07-03T07:57:07Z</time>
      </trkpt>
      <trkpt lat="48.19629" lon="4.69951">
        <ele>343</ele>
        <time>2024-07-03T07:58:07Z</time>
      </trkpt>
      <trkpt lat="48.19371" lon="4.70078">
        <ele>338</ele>
        <time>2024-07-03T07:58:56Z</time>
      </trkpt>
      <trkpt lat="48.19293" lon="4.70096">
        <ele>337</ele>
        <time>2024-07-03T07:59:10Z</time>
      </trkpt>
      <trkpt lat="48.19201" lon="4.69815">
        <ele>328</ele>
        <time>2024-07-03T07:59:47Z</time>
      </trkpt>
      <trkpt lat="48.19152" lon="4.69688">
        <ele>313</ele>
        <time>2024-07-03T08:00:04Z</time>
      </trkpt>
      <trkpt lat="48.19074" lon="4.69537">
        <ele>293</ele>
        <time>2024-07-03T08:00:27Z</time>
      </trkpt>
      <trkpt lat="48.19087" lon="4.69365">
        <ele>285</ele>
        <time>2024-07-03T08:00:48Z</time>
      </trkpt>
      <trkpt lat="48.18905" lon="4.69207">
        <ele>304</ele>
        <time>2024-07-03T08:01:25Z</time>
      </trkpt>
      <trkpt lat="48.18816" lon="4.68619">
        <ele>343</ele>
        <time>2024-07-03T08:02:36Z</time>
      </trkpt>
      <trkpt lat="48.18798" lon="4.68526">
        <ele>347</ele>
        <time>2024-07-03T08:02:48Z</time>
      </trkpt>
      <trkpt lat="48.1883" lon="4.68448">
        <ele>346</ele>
        <time>2024-07-03T08:02:59Z</time>
      </trkpt>
      <trkpt lat="48.18802" lon="4.68313">
        <ele>344</ele>
        <time>2024-07-03T08:03:16Z</time>
      </trkpt>
      <trkpt lat="48.18908" lon="4.68192">
        <ele>341</ele>
        <time>2024-07-03T08:03:39Z</time>
      </trkpt>
      <trkpt lat="48.18924" lon="4.6817">
        <ele>341</ele>
        <time>2024-07-03T08:03:43Z</time>
      </trkpt>
      <trkpt lat="48.18853" lon="4.68012">
        <ele>331</ele>
        <time>2024-07-03T08:04:06Z</time>
      </trkpt>
      <trkpt lat="48.18775" lon="4.67923">
        <ele>328</ele>
        <time>2024-07-03T08:04:23Z</time>
      </trkpt>
      <trkpt lat="48.18683" lon="4.67676">
        <ele>325</ele>
        <time>2024-07-03T08:04:57Z</time>
      </trkpt>
      <trkpt lat="48.18766" lon="4.67456">
        <ele>302</ele>
        <time>2024-07-03T08:05:27Z</time>
      </trkpt>
      <trkpt lat="48.18766" lon="4.67329">
        <ele>287</ele>
        <time>2024-07-03T08:05:42Z</time>
      </trkpt>
      <trkpt lat="48.18719" lon="4.67165">
        <ele>269</ele>
        <time>2024-07-03T08:06:03Z</time>
      </trkpt>
      <trkpt lat="48.18709" lon="4.67051">
        <ele>258</ele>
        <time>2024-07-03T08:06:17Z</time>
      </trkpt>
      <trkpt lat="48.18597" lon="4.66757">
        <ele>244</ele>
        <time>2024-07-03T08:06:57Z</time>
      </trkpt>
      <trkpt lat="48.18417" lon="4.66765">
        <ele>243</ele>
        <time>2024-07-03T08:07:29Z</time>
      </trkpt>
      <trkpt lat="48.18287" lon="4.66774">
        <ele>242</ele>
        <time>2024-07-03T08:07:52Z</time>
      </trkpt>
      <trkpt lat="48.18107" lon="4.66879">
        <ele>245</ele>
        <time>2024-07-03T08:08:26Z</time>
      </trkpt>
      <trkpt lat="48.18266" lon="4.66509">
        <ele>248</ele>
        <time>2024-07-03T08:09:19Z</time>
      </trkpt>
      <trkpt lat="48.18189" lon="4.66441">
        <ele>253</ele>
        <time>2024-07-03T08:09:34Z</time>
      </trkpt>
      <trkpt lat="48.17904" lon="4.66241">
        <ele>302</ele>
        <time>2024-07-03T08:10:30Z</time>
      </trkpt>
      <trkpt lat="48.17845" lon="4.66191">
        <ele>311</ele>
        <time>2024-07-03T08:10:43Z</time>
      </trkpt>
      <trkpt lat="48.17631" lon="4.65955">
        <ele>324</ele>
        <time>2024-07-03T08:11:30Z</time>
      </trkpt>
      <trkpt lat="48.17536" lon="4.65823">
        <ele>319</ele>
        <time>2024-07-03T08:11:53Z</time>
      </trkpt>
      <trkpt lat="48.17391" lon="4.6555">
        <ele>299</ele>
        <time>2024-07-03T08:12:34Z</time>
      </trkpt>
      <trkpt lat="48.17384" lon="4.65541">
        <ele>297</ele>
        <time>2024-07-03T08:12:36Z</time>
      </trkpt>
      <trkpt lat="48.17486" lon="4.65319">
        <ele>302</ele>
        <time>2024-07-03T08:13:08Z</time>
      </trkpt>
      <trkpt lat="48.17467" lon="4.6508">
        <ele>297</ele>
        <time>2024-07-03T08:13:36Z</time>
      </trkpt>
      <trkpt lat="48.17685" lon="4.65161">
        <ele>312</ele>
        <time>2024-07-03T08:14:16Z</time>
      </trkpt>
      <trkpt lat="48.18089" lon="4.65302">
        <ele>302</ele>
        <time>2024-07-03T08:15:30Z</time>
      </trkpt>
      <trkpt lat="48.18295" lon="4.65322">
        <ele>286</ele>
        <time>2024-07-03T08:16:07Z</time>
      </trkpt>
      <trkpt lat="48.18372" lon="4.65261">
        <ele>271</ele>
        <time>2024-07-03T08:16:22Z</time>
      </trkpt>
      <trkpt lat="48.18574" lon="4.65136">
        <ele>237</ele>
        <time>2024-07-03T08:17:01Z</time>
      </trkpt>
      <trkpt lat="48.18447" lon="4.64888">
        <ele>235</ele>
        <time>2024-07-03T08:17:38Z</time>
      </trkpt>
      <trkpt lat="48.18405" lon="4.64744">
        <ele>237</ele>
        <time>2024-07-03T08:17:57Z</time>
      </trkpt>
      <trkpt lat="48.18614" lon="4.64673">
        <ele>219</ele>
        <time>2024-07-03T08:18:35Z</time>
      </trkpt>
      <trkpt lat="48.18854" lon="4.64692">
        <ele>217</ele>
        <time>2024-07-03T08:19:18Z</time>
      </trkpt>
      <trkpt lat="48.18862" lon="4.6462">
        <ele>218</ele>
        <time>2024-07-03T08:19:27Z</time>
      </trkpt>
      <trkpt lat="48.18855" lon="4.6454">
        <ele>218</ele>
        <time>2024-07-03T08:19:36Z</time>
      </trkpt>
      <trkpt lat="48.18859" lon="4.64356">
        <ele>220</ele>
        <time>2024-07-03T08:19:58Z</time>
      </trkpt>
      <trkpt lat="48.18906" lon="4.63951">
        <ele>217</ele>
        <time>2024-07-03T08:20:47Z</time>
      </trkpt>
      <trkpt lat="48.18921" lon="4.6385">
        <ele>215</ele>
        <time>2024-07-03T08:20:59Z</time>
      </trkpt>
      <trkpt lat="48.18952" lon="4.63741">
        <ele>215</ele>
        <time>2024-07-03T08:21:13Z</time>
      </trkpt>
      <trkpt lat="48.18995" lon="4.63628">
        <ele>216</ele>
        <time>2024-07-03T08:21:29Z</time>
      </trkpt>
      <trkpt lat="48.19027" lon="4.6357">
        <ele>215</ele>
        <time>2024-07-03T08:21:37Z</time>
      </trkpt>
      <trkpt lat="48.19047" lon="4.63545">
        <ele>215</ele>
        <time>2024-07-03T08:21:42Z</time>
      </trkpt>
      <trkpt lat="48.19064" lon="4.63558">
        <ele>217</ele>
        <time>2024-07-03T08:21:45Z</time>
      </trkpt>
      <trkpt lat="48.19089" lon="4.63601">
        <ele>222</ele>
        <time>2024-07-03T08:21:52Z</time>
      </trkpt>
      <trkpt lat="48.19095" lon="4.63637">
        <ele>225</ele>
        <time>2024-07-03T08:21:57Z</time>
      </trkpt>
      <trkpt lat="48.19121" lon="4.63641">
        <ele>226</ele>
        <time>2024-07-03T08:22:01Z</time>
      </trkpt>
      <trkpt lat="48.19133" lon="4.63647">
        <ele>227</ele>
        <time>2024-07-03T08:22:04Z</time>
      </trkpt>
      <trkpt lat="48.19209" lon="4.63731">
        <ele>238</ele>
        <time>2024-07-03T08:22:20Z</time>
      </trkpt>
      <trkpt lat="48.19238" lon="4.63715">
        <ele>237</ele>
        <time>2024-07-03T08:22:26Z</time>
      </trkpt>
      <trkpt lat="48.19277" lon="4.63706">
        <ele>236</ele>
        <time>2024-07-03T08:22:33Z</time>
      </trkpt>
      <trkpt lat="48.19437" lon="4.63688">
        <ele>233</ele>
        <time>2024-07-03T08:23:01Z</time>
      </trkpt>
      <trkpt lat="48.19446" lon="4.63682">
        <ele>232</ele>
        <time>2024-07-03T08:23:03Z</time>
      </trkpt>
      <trkpt lat="48.19445" lon="4.6365">
        <ele>229</ele>
        <time>2024-07-03T08:23:07Z</time>
      </trkpt>
      <trkpt lat="48.1945" lon="4.63638">
        <ele>228</ele>
        <time>2024-07-03T08:23:09Z</time>
      </trkpt>
      <trkpt lat="48.19513" lon="4.63605">
        <ele>225</ele>
        <time>2024-07-03T08:23:21Z</time>
      </trkpt>
      <trkpt lat="48.19605" lon="4.63591">
        <ele>224</ele>
        <time>2024-07-03T08:23:37Z</time>
      </trkpt>
      <trkpt lat="48.1973" lon="4.63554">
        <ele>225</ele>
        <time>2024-07-03T08:24:00Z</time>
      </trkpt>
      <trkpt lat="48.19806" lon="4.63538">
        <ele>222</ele>
        <time>2024-07-03T08:24:13Z</time>
      </trkpt>
      <trkpt lat="48.19892" lon="4.63535">
        <ele>220</ele>
        <time>2024-07-03T08:24:29Z</time>
      </trkpt>
      <trkpt lat="48.19917" lon="4.63467">
        <ele>215</ele>
        <time>2024-07-03T08:24:38Z</time>
      </trkpt>
      <trkpt lat="48.19925" lon="4.63456">
        <ele>215</ele>
        <time>2024-07-03T08:24:40Z</time>
      </trkpt>
      <trkpt lat="48.19941" lon="4.63449">
        <ele>213</ele>
        <time>2024-07-03T08:24:43Z</time>
      </trkpt>
      <trkpt lat="48.20035" lon="4.63434">
        <ele>212</ele>
        <time>2024-07-03T08:25:00Z</time>
      </trkpt>
      <trkpt lat="48.20047" lon="4.63421">
        <ele>211</ele>
        <time>2024-07-03T08:25:02Z</time>
      </trkpt>
      <trkpt lat="48.20044" lon="4.63329">
        <ele>208</ele>
        <time>2024-07-03T08:25:13Z</time>
      </trkpt>
      <trkpt lat="48.20015" lon="4.63106">
        <ele>197</ele>
        <time>2024-07-03T08:25:40Z</time>
      </trkpt>
      <trkpt lat="48.20018" lon="4.6309">
        <ele>196</ele>
        <time>2024-07-03T08:25:42Z</time>
      </trkpt>
      <trkpt lat="48.20118" lon="4.6305">
        <ele>197</ele>
        <time>2024-07-03T08:26:00Z</time>
      </trkpt>
      <trkpt lat="48.20196" lon="4.63029">
        <ele>198</ele>
        <time>2024-07-03T08:26:15Z</time>
      </trkpt>
      <trkpt lat="48.2025" lon="4.63027">
        <ele>199</ele>
        <time>2024-07-03T08:26:24Z</time>
      </trkpt>
      <trkpt lat="48.20282" lon="4.63032">
        <ele>200</ele>
        <time>2024-07-03T08:26:30Z</time>
      </trkpt>
      <trkpt lat="48.20293" lon="4.63026">
        <ele>199</ele>
        <time>2024-07-03T08:26:32Z</time>
      </trkpt>
      <trkpt lat="48.20325" lon="4.63019">
        <ele>199</ele>
        <time>2024-07-03T08:26:38Z</time>
      </trkpt>
      <trkpt lat="48.20489" lon="4.63007">
        <ele>194</ele>
        <time>2024-07-03T08:27:07Z</time>
      </trkpt>
      <trkpt lat="48.20589" lon="4.62986">
        <ele>191</ele>
        <time>2024-07-03T08:27:25Z</time>
      </trkpt>
      <trkpt lat="48.20657" lon="4.62962">
        <ele>191</ele>
        <time>2024-07-03T08:27:37Z</time>
      </trkpt>
      <trkpt lat="48.20732" lon="4.62917">
        <ele>189</ele>
        <time>2024-07-03T08:27:52Z</time>
      </trkpt>
      <trkpt lat="48.20781" lon="4.63042">
        <ele>191</ele>
        <time>2024-07-03T08:28:09Z</time>
      </trkpt>
      <trkpt lat="48.20837" lon="4.63165">
        <ele>192</ele>
        <time>2024-07-03T08:28:27Z</time>
      </trkpt>
      <trkpt lat="48.2092" lon="4.6337">
        <ele>196</ele>
        <time>2024-07-03T08:28:55Z</time>
      </trkpt>
      <trkpt lat="48.2091" lon="4.63456">
        <ele>197</ele>
        <time>2024-07-03T08:29:05Z</time>
      </trkpt>
      <trkpt lat="48.2092" lon="4.63469">
        <ele>198</ele>
        <time>2024-07-03T08:29:08Z</time>
      </trkpt>
      <trkpt lat="48.20927" lon="4.63493">
        <ele>200</ele>
        <time>2024-07-03T08:29:11Z</time>
      </trkpt>
      <trkpt lat="48.20938" lon="4.63558">
        <ele>203</ele>
        <time>2024-07-03T08:29:19Z</time>
      </trkpt>
      <trkpt lat="48.20959" lon="4.63644">
        <ele>208</ele>
        <time>2024-07-03T08:29:30Z</time>
      </trkpt>
      <trkpt lat="48.20982" lon="4.63716">
        <ele>212</ele>
        <time>2024-07-03T08:29:39Z</time>
      </trkpt>
      <trkpt lat="48.2101" lon="4.63858">
        <ele>215</ele>
        <time>2024-07-03T08:29:57Z</time>
      </trkpt>
      <trkpt lat="48.20992" lon="4.63919">
        <ele>211</ele>
        <time>2024-07-03T08:30:05Z</time>
      </trkpt>
      <trkpt lat="48.20981" lon="4.64008">
        <ele>213</ele>
        <time>2024-07-03T08:30:15Z</time>
      </trkpt>
      <trkpt lat="48.20985" lon="4.64011">
        <ele>213</ele>
        <time>2024-07-03T08:30:16Z</time>
      </trkpt>
      <trkpt lat="48.20996" lon="4.64003">
        <ele>214</ele>
        <time>2024-07-03T08:30:18Z</time>
      </trkpt>
      <trkpt lat="48.21046" lon="4.63983">
        <ele>217</ele>
        <time>2024-07-03T08:30:27Z</time>
      </trkpt>
      <trkpt lat="48.21064" lon="4.63986">
        <ele>219</ele>
        <time>2024-07-03T08:30:31Z</time>
      </trkpt>
      <trkpt lat="48.21121" lon="4.63989">
        <ele>224</ele>
        <time>2024-07-03T08:30:41Z</time>
      </trkpt>
      <trkpt lat="48.21164" lon="4.63999">
        <ele>227</ele>
        <time>2024-07-03T08:30:49Z</time>
      </trkpt>
      <trkpt lat="48.21353" lon="4.64092">
        <ele>248</ele>
        <time>2024-07-03T08:31:24Z</time>
      </trkpt>
      <trkpt lat="48.21449" lon="4.64143">
        <ele>262</ele>
        <time>2024-07-03T08:31:42Z</time>
      </trkpt>
      <trkpt lat="48.21484" lon="4.64165">
        <ele>265</ele>
        <time>2024-07-03T08:31:49Z</time>
      </trkpt>
      <trkpt lat="48.21506" lon="4.64181">
        <ele>269</ele>
        <time>2024-07-03T08:31:53Z</time>
      </trkpt>
      <trkpt lat="48.21538" lon="4.64217">
        <ele>275</ele>
        <time>2024-07-03T08:32:00Z</time>
      </trkpt>
      <trkpt lat="48.21585" lon="4.64298">
        <ele>279</ele>
        <time>2024-07-03T08:32:13Z</time>
      </trkpt>
      <trkpt lat="48.21603" lon="4.64315">
        <ele>282</ele>
        <time>2024-07-03T08:32:17Z</time>
      </trkpt>
      <trkpt lat="48.21622" lon="4.64346">
        <ele>284</ele>
        <time>2024-07-03T08:32:22Z</time>
      </trkpt>
      <trkpt lat="48.21669" lon="4.64377">
        <ele>288</ele>
        <time>2024-07-03T08:32:31Z</time>
      </trkpt>
      <trkpt lat="48.21718" lon="4.64432">
        <ele>291</ele>
        <time>2024-07-03T08:32:42Z</time>
      </trkpt>
      <trkpt lat="48.21761" lon="4.64507">
        <ele>294</ele>
        <time>2024-07-03T08:32:54Z</time>
      </trkpt>
      <trkpt lat="48.21909" lon="4.64571">
        <ele>302</ele>
        <time>2024-07-03T08:33:21Z</time>
      </trkpt>
      <trkpt lat="48.22053" lon="4.64518">
        <ele>298</ele>
        <time>2024-07-03T08:33:47Z</time>
      </trkpt>
      <trkpt lat="48.22155" lon="4.64534">
        <ele>297</ele>
        <time>2024-07-03T08:34:06Z</time>
      </trkpt>
      <trkpt lat="48.22371" lon="4.64649">
        <ele>294</ele>
        <time>2024-07-03T08:34:46Z</time>
      </trkpt>
      <trkpt lat="48.22192" lon="4.65754">
        <ele>306</ele>
        <time>2024-07-03T08:37:01Z</time>
      </trkpt>
      <trkpt lat="48.22132" lon="4.66088">
        <ele>293</ele>
        <time>2024-07-03T08:37:42Z</time>
      </trkpt>
      <trkpt lat="48.22214" lon="4.6653">
        <ele>309</ele>
        <time>2024-07-03T08:38:37Z</time>
      </trkpt>
      <trkpt lat="48.22406" lon="4.66952">
        <ele>302</ele>
        <time>2024-07-03T08:39:37Z</time>
      </trkpt>
      <trkpt lat="48.22731" lon="4.67686">
        <ele>303</ele>
        <time>2024-07-03T08:41:22Z</time>
      </trkpt>
      <trkpt lat="48.22823" lon="4.68214">
        <ele>267</ele>
        <time>2024-07-03T08:42:26Z</time>
      </trkpt>
      <trkpt lat="48.22927" lon="4.68178">
        <ele>275</ele>
        <time>2024-07-03T08:42:45Z</time>
      </trkpt>
      <trkpt lat="48.22988" lon="4.68358">
        <ele>258</ele>
        <time>2024-07-03T08:43:09Z</time>
      </trkpt>
      <trkpt lat="48.23041" lon="4.68814">
        <ele>205</ele>
        <time>2024-07-03T08:44:04Z</time>
      </trkpt>
      <trkpt lat="48.23163" lon="4.69158">
        <ele>172</ele>
        <time>2024-07-03T08:44:50Z</time>
      </trkpt>
      <trkpt lat="48.23139" lon="4.69265">
        <ele>171</ele>
        <time>2024-07-03T08:45:04Z</time>
      </trkpt>
      <trkpt lat="48.23151" lon="4.69542">
        <ele>169</ele>
        <time>2024-07-03T08:45:37Z</time>
      </trkpt>
      <trkpt lat="48.23154" lon="4.69577">
        <ele>168</ele>
        <time>2024-07-03T08:45:41Z</time>
      </trkpt>
      <trkpt lat="48.23132" lon="4.69729">
        <ele>167</ele>
        <time>2024-07-03T08:45:59Z</time>
      </trkpt>
      <trkpt lat="48.23071" lon="4.69923">
        <ele>165</ele>
        <time>2024-07-03T08:46:25Z</time>
      </trkpt>
      <trkpt lat="48.22973" lon="4.70317">
        <ele>171</ele>
        <time>2024-07-03T08:47:14Z</time>
      </trkpt>
      <trkpt lat="48.22442" lon="4.69909">
        <ele>253</ele>
        <time>2024-07-03T08:49:01Z</time>
      </trkpt>
      <trkpt lat="48.21967" lon="4.69879">
        <ele>312</ele>
        <time>2024-07-03T08:50:25Z</time>
      </trkpt>
    </trkseg>
  </trk>
  <trk>
    <name><![CDATA[38. Petit circuit de camp romain-17237834]]></name>
    <extensions>
      <line xmlns="http://www.topografix.com/GPX/gpx_style/0/2">
        <color>07da15</color>
        <width>4</width>
      </line>
    </extensions>
    <trkseg>
      <trkpt lat="48.21956" lon="4.69885">
        <ele>311</ele>
        <time>2024-07-03T07:48:08Z</time>
      </trkpt>
      <trkpt lat="48.21927" lon="4.69889">
        <ele>309</ele>
        <time>2024-07-03T07:48:15Z</time>
      </trkpt>
      <trkpt lat="48.21904" lon="4.699">
        <ele>309</ele>
        <time>2024-07-03T07:48:20Z</time>
      </trkpt>
      <trkpt lat="48.21843" lon="4.69907">
        <ele>314</ele>
        <time>2024-07-03T07:48:35Z</time>
      </trkpt>
      <trkpt lat="48.21828" lon="4.69854">
        <ele>319</ele>
        <time>2024-07-03T07:48:44Z</time>
      </trkpt>
      <trkpt lat="48.21821" lon="4.698">
        <ele>320</ele>
        <time>2024-07-03T07:48:52Z</time>
      </trkpt>
      <trkpt lat="48.2183" lon="4.69711">
        <ele>318</ele>
        <time>2024-07-03T07:49:06Z</time>
      </trkpt>
      <trkpt lat="48.21831" lon="4.69682">
        <ele>317</ele>
        <time>2024-07-03T07:49:11Z</time>
      </trkpt>
      <trkpt lat="48.21827" lon="4.69674">
        <ele>317</ele>
        <time>2024-07-03T07:49:12Z</time>
      </trkpt>
      <trkpt lat="48.21821" lon="4.69671">
        <ele>317</ele>
        <time>2024-07-03T07:49:14Z</time>
      </trkpt>
      <trkpt lat="48.21796" lon="4.69674">
        <ele>318</ele>
        <time>2024-07-03T07:49:20Z</time>
      </trkpt>
      <trkpt lat="48.21765" lon="4.69672">
        <ele>319</ele>
        <time>2024-07-03T07:49:27Z</time>
      </trkpt>
      <trkpt lat="48.21698" lon="4.69656">
        <ele>320</ele>
        <time>2024-07-03T07:49:43Z</time>
      </trkpt>
      <trkpt lat="48.21612" lon="4.6965">
        <ele>319</ele>
        <time>2024-07-03T07:50:03Z</time>
      </trkpt>
      <trkpt lat="48.21568" lon="4.69661">
        <ele>319</ele>
        <time>2024-07-03T07:50:13Z</time>
      </trkpt>
      <trkpt lat="48.21521" lon="4.69687">
        <ele>319</ele>
        <time>2024-07-03T07:50:25Z</time>
      </trkpt>
      <trkpt lat="48.21455" lon="4.69757">
        <ele>320</ele>
        <time>2024-07-03T07:50:44Z</time>
      </trkpt>
      <trkpt lat="48.21424" lon="4.69798">
        <ele>321</ele>
        <time>2024-07-03T07:50:53Z</time>
      </trkpt>
      <trkpt lat="48.21379" lon="4.69834">
        <ele>324</ele>
        <time>2024-07-03T07:51:05Z</time>
      </trkpt>
      <trkpt lat="48.21367" lon="4.69839">
        <ele>324</ele>
        <time>2024-07-03T07:51:08Z</time>
      </trkpt>
      <trkpt lat="48.21348" lon="4.69843">
        <ele>324</ele>
        <time>2024-07-03T07:51:13Z</time>
      </trkpt>
      <trkpt lat="48.21311" lon="4.69841">
        <ele>324</ele>
        <time>2024-07-03T07:51:21Z</time>
      </trkpt>
      <trkpt lat="48.21295" lon="4.69844">
        <ele>325</ele>
        <time>2024-07-03T07:51:25Z</time>
      </trkpt>
      <trkpt lat="48.21268" lon="4.69839">
        <ele>326</ele>
        <time>2024-07-03T07:51:32Z</time>
      </trkpt>
      <trkpt lat="48.21231" lon="4.69848">
        <ele>329</ele>
        <time>2024-07-03T07:51:40Z</time>
      </trkpt>
      <trkpt lat="48.2119" lon="4.69873">
        <ele>331</ele>
        <time>2024-07-03T07:51:51Z</time>
      </trkpt>
      <trkpt lat="48.21149" lon="4.69879">
        <ele>333</ele>
        <time>2024-07-03T07:52:00Z</time>
      </trkpt>
      <trkpt lat="48.21104" lon="4.6987">
        <ele>336</ele>
        <time>2024-07-03T07:52:11Z</time>
      </trkpt>
      <trkpt lat="48.21061" lon="4.69867">
        <ele>337</ele>
        <time>2024-07-03T07:52:21Z</time>
      </trkpt>
      <trkpt lat="48.21005" lon="4.69852">
        <ele>338</ele>
        <time>2024-07-03T07:52:34Z</time>
      </trkpt>
      <trkpt lat="48.20984" lon="4.69851">
        <ele>338</ele>
        <time>2024-07-03T07:52:39Z</time>
      </trkpt>
      <trkpt lat="48.20962" lon="4.69853">
        <ele>338</ele>
        <time>2024-07-03T07:52:44Z</time>
      </trkpt>
      <trkpt lat="48.20874" lon="4.69874">
        <ele>340</ele>
        <time>2024-07-03T07:53:05Z</time>
      </trkpt>
      <trkpt lat="48.20845" lon="4.69885">
        <ele>341</ele>
        <time>2024-07-03T07:53:12Z</time>
      </trkpt>
      <trkpt lat="48.20843" lon="4.69882">
        <ele>341</ele>
        <time>2024-07-03T07:53:13Z</time>
      </trkpt>
      <trkpt lat="48.20919" lon="4.69524">
        <ele>344</ele>
        <time>2024-07-03T07:54:11Z</time>
      </trkpt>
      <trkpt lat="48.20934" lon="4.69488">
        <ele>345</ele>
        <time>2024-07-03T07:54:18Z</time>
      </trkpt>
      <trkpt lat="48.20975" lon="4.69414">
        <ele>348</ele>
        <time>2024-07-03T07:54:33Z</time>
      </trkpt>
      <trkpt lat="48.21013" lon="4.69401">
        <ele>350</ele>
        <time>2024-07-03T07:54:42Z</time>
      </trkpt>
      <trkpt lat="48.21036" lon="4.69406">
        <ele>351</ele>
        <time>2024-07-03T07:54:47Z</time>
      </trkpt>
      <trkpt lat="48.21075" lon="4.69429">
        <ele>352</ele>
        <time>2024-07-03T07:54:57Z</time>
      </trkpt>
      <trkpt lat="48.21124" lon="4.69411">
        <ele>352</ele>
        <time>2024-07-03T07:55:09Z</time>
      </trkpt>
      <trkpt lat="48.2114" lon="4.69392">
        <ele>351</ele>
        <time>2024-07-03T07:55:14Z</time>
      </trkpt>
      <trkpt lat="48.21142" lon="4.69334">
        <ele>351</ele>
        <time>2024-07-03T07:55:23Z</time>
      </trkpt>
      <trkpt lat="48.21176" lon="4.69306">
        <ele>347</ele>
        <time>2024-07-03T07:55:32Z</time>
      </trkpt>
      <trkpt lat="48.2121" lon="4.69776">
        <ele>332</ele>
        <time>2024-07-03T07:56:45Z</time>
      </trkpt>
      <trkpt lat="48.21219" lon="4.69803">
        <ele>330</ele>
        <time>2024-07-03T07:56:50Z</time>
      </trkpt>
      <trkpt lat="48.21244" lon="4.69822">
        <ele>328</ele>
        <time>2024-07-03T07:56:57Z</time>
      </trkpt>
      <trkpt lat="48.2133" lon="4.6984">
        <ele>323</ele>
        <time>2024-07-03T07:57:17Z</time>
      </trkpt>
      <trkpt lat="48.21388" lon="4.6982">
        <ele>323</ele>
        <time>2024-07-03T07:57:31Z</time>
      </trkpt>
      <trkpt lat="48.21579" lon="4.69656">
        <ele>319</ele>
        <time>2024-07-03T07:58:22Z</time>
      </trkpt>
      <trkpt lat="48.21731" lon="4.69657">
        <ele>320</ele>
        <time>2024-07-03T07:58:58Z</time>
      </trkpt>
      <trkpt lat="48.21872" lon="4.69701">
        <ele>315</ele>
        <time>2024-07-03T07:59:31Z</time>
      </trkpt>
      <trkpt lat="48.21934" lon="4.69691">
        <ele>310</ele>
        <time>2024-07-03T07:59:46Z</time>
      </trkpt>
      <trkpt lat="48.21956" lon="4.69885">
        <ele>311</ele>
        <time>2024-07-03T08:00:16Z</time>
      </trkpt>
    </trkseg>
  </trk>
  <trk>
    <name><![CDATA[37. Circuit de Baroville, avec point de vue-17237848]]></name>
    <extensions>
      <line xmlns="http://www.topografix.com/GPX/gpx_style/0/2">
        <color>ff0f0f</color>
        <width>4</width>
      </line>
    </extensions>
    <trkseg>
      <trkpt lat="48.19224" lon="4.72246">
        <ele>220</ele>
        <time>2024-07-03T07:46:18Z</time>
      </trkpt>
      <trkpt lat="48.19236" lon="4.72228">
        <ele>219</ele>
        <time>2024-07-03T07:46:21Z</time>
      </trkpt>
      <trkpt lat="48.19118" lon="4.72346">
        <ele>227</ele>
        <time>2024-07-03T07:46:46Z</time>
      </trkpt>
      <trkpt lat="48.1902" lon="4.72439">
        <ele>232</ele>
        <time>2024-07-03T07:47:07Z</time>
      </trkpt>
      <trkpt lat="48.19028" lon="4.72472">
        <ele>233</ele>
        <time>2024-07-03T07:47:11Z</time>
      </trkpt>
      <trkpt lat="48.19005" lon="4.72439">
        <ele>233</ele>
        <time>2024-07-03T07:47:17Z</time>
      </trkpt>
      <trkpt lat="48.19001" lon="4.72473">
        <ele>234</ele>
        <time>2024-07-03T07:47:21Z</time>
      </trkpt>
      <trkpt lat="48.18918" lon="4.7258">
        <ele>251</ele>
        <time>2024-07-03T07:47:40Z</time>
      </trkpt>
      <trkpt lat="48.18842" lon="4.72687">
        <ele>261</ele>
        <time>2024-07-03T07:47:59Z</time>
      </trkpt>
      <trkpt lat="48.18809" lon="4.726">
        <ele>264</ele>
        <time>2024-07-03T07:48:11Z</time>
      </trkpt>
      <trkpt lat="48.18788" lon="4.72572">
        <ele>266</ele>
        <time>2024-07-03T07:48:16Z</time>
      </trkpt>
      <trkpt lat="48.18758" lon="4.72557">
        <ele>271</ele>
        <time>2024-07-03T07:48:21Z</time>
      </trkpt>
      <trkpt lat="48.18689" lon="4.72478">
        <ele>283</ele>
        <time>2024-07-03T07:48:37Z</time>
      </trkpt>
      <trkpt lat="48.18618" lon="4.72437">
        <ele>290</ele>
        <time>2024-07-03T07:48:50Z</time>
      </trkpt>
      <trkpt lat="48.18525" lon="4.72372">
        <ele>294</ele>
        <time>2024-07-03T07:49:09Z</time>
      </trkpt>
      <trkpt lat="48.18542" lon="4.72295">
        <ele>298</ele>
        <time>2024-07-03T07:49:18Z</time>
      </trkpt>
      <trkpt lat="48.18527" lon="4.72154">
        <ele>302</ele>
        <time>2024-07-03T07:49:35Z</time>
      </trkpt>
      <trkpt lat="48.18511" lon="4.72106">
        <ele>301</ele>
        <time>2024-07-03T07:49:41Z</time>
      </trkpt>
      <trkpt lat="48.18472" lon="4.72058">
        <ele>301</ele>
        <time>2024-07-03T07:49:50Z</time>
      </trkpt>
      <trkpt lat="48.18361" lon="4.71996">
        <ele>303</ele>
        <time>2024-07-03T07:50:12Z</time>
      </trkpt>
      <trkpt lat="48.18288" lon="4.72026">
        <ele>305</ele>
        <time>2024-07-03T07:50:25Z</time>
      </trkpt>
      <trkpt lat="48.18111" lon="4.71904">
        <ele>315</ele>
        <time>2024-07-03T07:51:00Z</time>
      </trkpt>
      <trkpt lat="48.18124" lon="4.71878">
        <ele>313</ele>
        <time>2024-07-03T07:51:04Z</time>
      </trkpt>
      <trkpt lat="48.18124" lon="4.71839">
        <ele>314</ele>
        <time>2024-07-03T07:51:08Z</time>
      </trkpt>
      <trkpt lat="48.18112" lon="4.71691">
        <ele>308</ele>
        <time>2024-07-03T07:51:26Z</time>
      </trkpt>
      <trkpt lat="48.18166" lon="4.71482">
        <ele>288</ele>
        <time>2024-07-03T07:51:52Z</time>
      </trkpt>
      <trkpt lat="48.18414" lon="4.71369">
        <ele>245</ele>
        <time>2024-07-03T07:52:39Z</time>
      </trkpt>
      <trkpt lat="48.18546" lon="4.71344">
        <ele>237</ele>
        <time>2024-07-03T07:53:02Z</time>
      </trkpt>
      <trkpt lat="48.18618" lon="4.71368">
        <ele>237</ele>
        <time>2024-07-03T07:53:15Z</time>
      </trkpt>
      <trkpt lat="48.18804" lon="4.71529">
        <ele>233</ele>
        <time>2024-07-03T07:53:54Z</time>
      </trkpt>
      <trkpt lat="48.18936" lon="4.71607">
        <ele>229</ele>
        <time>2024-07-03T07:54:19Z</time>
      </trkpt>
      <trkpt lat="48.1919" lon="4.71891">
        <ele>222</ele>
        <time>2024-07-03T07:55:15Z</time>
      </trkpt>
      <trkpt lat="48.19266" lon="4.71823">
        <ele>226</ele>
        <time>2024-07-03T07:55:31Z</time>
      </trkpt>
      <trkpt lat="48.193" lon="4.71789">
        <ele>230</ele>
        <time>2024-07-03T07:55:38Z</time>
      </trkpt>
      <trkpt lat="48.19337" lon="4.7181">
        <ele>232</ele>
        <time>2024-07-03T07:55:45Z</time>
      </trkpt>
      <trkpt lat="48.19362" lon="4.71723">
        <ele>240</ele>
        <time>2024-07-03T07:55:56Z</time>
      </trkpt>
      <trkpt lat="48.19406" lon="4.71462">
        <ele>263</ele>
        <time>2024-07-03T07:56:28Z</time>
      </trkpt>
      <trkpt lat="48.19378" lon="4.70141">
        <ele>336</ele>
        <time>2024-07-03T07:59:05Z</time>
      </trkpt>
      <trkpt lat="48.19411" lon="4.71039">
        <ele>306</ele>
        <time>2024-07-03T08:00:52Z</time>
      </trkpt>
      <trkpt lat="48.19405" lon="4.71441">
        <ele>265</ele>
        <time>2024-07-03T08:01:40Z</time>
      </trkpt>
      <trkpt lat="48.19482" lon="4.71335">
        <ele>275</ele>
        <time>2024-07-03T08:01:58Z</time>
      </trkpt>
      <trkpt lat="48.19559" lon="4.7152">
        <ele>270</ele>
        <time>2024-07-03T08:02:24Z</time>
      </trkpt>
      <trkpt lat="48.19589" lon="4.71567">
        <ele>270</ele>
        <time>2024-07-03T08:02:32Z</time>
      </trkpt>
      <trkpt lat="48.19711" lon="4.7174">
        <ele>267</ele>
        <time>2024-07-03T08:03:02Z</time>
      </trkpt>
      <trkpt lat="48.19772" lon="4.7193">
        <ele>258</ele>
        <time>2024-07-03T08:03:27Z</time>
      </trkpt>
      <trkpt lat="48.19771" lon="4.71965">
        <ele>255</ele>
        <time>2024-07-03T08:03:31Z</time>
      </trkpt>
      <trkpt lat="48.19666" lon="4.72">
        <ele>251</ele>
        <time>2024-07-03T08:03:50Z</time>
      </trkpt>
      <trkpt lat="48.19579" lon="4.72051">
        <ele>238</ele>
        <time>2024-07-03T08:04:06Z</time>
      </trkpt>
      <trkpt lat="48.19419" lon="4.72104">
        <ele>225</ele>
        <time>2024-07-03T08:04:36Z</time>
      </trkpt>
      <trkpt lat="48.19361" lon="4.72141">
        <ele>222</ele>
        <time>2024-07-03T08:04:47Z</time>
      </trkpt>
      <trkpt lat="48.19349" lon="4.72143">
        <ele>222</ele>
        <time>2024-07-03T08:04:49Z</time>
      </trkpt>
      <trkpt lat="48.19231" lon="4.72205">
        <ele>219</ele>
        <time>2024-07-03T08:05:11Z</time>
      </trkpt>
      <trkpt lat="48.18536" lon="4.7303">
        <ele>241</ele>
        <time>2024-07-03T08:07:49Z</time>
      </trkpt>
      <trkpt lat="48.18255" lon="4.7341">
        <ele>244</ele>
        <time>2024-07-03T08:08:56Z</time>
      </trkpt>
      <trkpt lat="48.1797" lon="4.73728">
        <ele>256</ele>
        <time>2024-07-03T08:09:59Z</time>
      </trkpt>
      <trkpt lat="48.17916" lon="4.73802">
        <ele>268</ele>
        <time>2024-07-03T08:10:12Z</time>
      </trkpt>
      <trkpt lat="48.17879" lon="4.73862">
        <ele>282</ele>
        <time>2024-07-03T08:10:22Z</time>
      </trkpt>
      <trkpt lat="48.17767" lon="4.73958">
        <ele>295</ele>
        <time>2024-07-03T08:10:45Z</time>
      </trkpt>
      <trkpt lat="48.17525" lon="4.74176">
        <ele>271</ele>
        <time>2024-07-03T08:11:35Z</time>
      </trkpt>
    </trkseg>
  </trk>
  <trk>
    <name><![CDATA[36. Circuit de Couvignon Bergère-17237868]]></name>
    <extensions>
      <line xmlns="http://www.topografix.com/GPX/gpx_style/0/2">
        <color>ef0606</color>
        <width>4</width>
      </line>
    </extensions>
    <trkseg>
      <trkpt lat="48.20779" lon="4.64939">
        <ele>209</ele>
        <time>2024-07-03T07:45:04Z</time>
      </trkpt>
      <trkpt lat="48.20775" lon="4.64949">
        <ele>209</ele>
        <time>2024-07-03T07:45:05Z</time>
      </trkpt>
      <trkpt lat="48.20754" lon="4.64983">
        <ele>209</ele>
        <time>2024-07-03T07:45:11Z</time>
      </trkpt>
      <trkpt lat="48.20695" lon="4.64986">
        <ele>212</ele>
        <time>2024-07-03T07:45:21Z</time>
      </trkpt>
      <trkpt lat="48.20694" lon="4.64974">
        <ele>212</ele>
        <time>2024-07-03T07:45:23Z</time>
      </trkpt>
      <trkpt lat="48.20636" lon="4.64952">
        <ele>219</ele>
        <time>2024-07-03T07:45:33Z</time>
      </trkpt>
      <trkpt lat="48.20595" lon="4.64922">
        <ele>225</ele>
        <time>2024-07-03T07:45:42Z</time>
      </trkpt>
      <trkpt lat="48.20584" lon="4.64905">
        <ele>227</ele>
        <time>2024-07-03T07:45:44Z</time>
      </trkpt>
      <trkpt lat="48.20564" lon="4.64856">
        <ele>232</ele>
        <time>2024-07-03T07:45:51Z</time>
      </trkpt>
      <trkpt lat="48.20542" lon="4.64838">
        <ele>236</ele>
        <time>2024-07-03T07:45:56Z</time>
      </trkpt>
      <trkpt lat="48.20507" lon="4.64804">
        <ele>243</ele>
        <time>2024-07-03T07:46:03Z</time>
      </trkpt>
      <trkpt lat="48.20375" lon="4.64751">
        <ele>268</ele>
        <time>2024-07-03T07:46:27Z</time>
      </trkpt>
      <trkpt lat="48.20339" lon="4.6476">
        <ele>273</ele>
        <time>2024-07-03T07:46:34Z</time>
      </trkpt>
      <trkpt lat="48.20298" lon="4.64756">
        <ele>277</ele>
        <time>2024-07-03T07:46:41Z</time>
      </trkpt>
      <trkpt lat="48.20138" lon="4.64727">
        <ele>288</ele>
        <time>2024-07-03T07:47:10Z</time>
      </trkpt>
      <trkpt lat="48.19894" lon="4.64719">
        <ele>293</ele>
        <time>2024-07-03T07:47:53Z</time>
      </trkpt>
      <trkpt lat="48.19873" lon="4.64726">
        <ele>294</ele>
        <time>2024-07-03T07:47:57Z</time>
      </trkpt>
      <trkpt lat="48.19861" lon="4.64737">
        <ele>294</ele>
        <time>2024-07-03T07:48:00Z</time>
      </trkpt>
      <trkpt lat="48.19836" lon="4.6481">
        <ele>296</ele>
        <time>2024-07-03T07:48:09Z</time>
      </trkpt>
      <trkpt lat="48.19807" lon="4.64912">
        <ele>298</ele>
        <time>2024-07-03T07:48:23Z</time>
      </trkpt>
      <trkpt lat="48.19757" lon="4.65015">
        <ele>299</ele>
        <time>2024-07-03T07:48:38Z</time>
      </trkpt>
      <trkpt lat="48.19823" lon="4.65187">
        <ele>291</ele>
        <time>2024-07-03T07:49:01Z</time>
      </trkpt>
      <trkpt lat="48.19886" lon="4.65327">
        <ele>285</ele>
        <time>2024-07-03T07:49:21Z</time>
      </trkpt>
      <trkpt lat="48.19942" lon="4.65431">
        <ele>282</ele>
        <time>2024-07-03T07:49:37Z</time>
      </trkpt>
      <trkpt lat="48.19981" lon="4.65518">
        <ele>281</ele>
        <time>2024-07-03T07:49:49Z</time>
      </trkpt>
      <trkpt lat="48.20062" lon="4.65709">
        <ele>272</ele>
        <time>2024-07-03T07:50:16Z</time>
      </trkpt>
      <trkpt lat="48.20082" lon="4.65734">
        <ele>269</ele>
        <time>2024-07-03T07:50:21Z</time>
      </trkpt>
      <trkpt lat="48.201" lon="4.65744">
        <ele>267</ele>
        <time>2024-07-03T07:50:24Z</time>
      </trkpt>
      <trkpt lat="48.20125" lon="4.65768">
        <ele>263</ele>
        <time>2024-07-03T07:50:30Z</time>
      </trkpt>
      <trkpt lat="48.20141" lon="4.65793">
        <ele>260</ele>
        <time>2024-07-03T07:50:34Z</time>
      </trkpt>
      <trkpt lat="48.20146" lon="4.65806">
        <ele>258</ele>
        <time>2024-07-03T07:50:36Z</time>
      </trkpt>
      <trkpt lat="48.20141" lon="4.65812">
        <ele>259</ele>
        <time>2024-07-03T07:50:37Z</time>
      </trkpt>
      <trkpt lat="48.20072" lon="4.65822">
        <ele>266</ele>
        <time>2024-07-03T07:50:49Z</time>
      </trkpt>
      <trkpt lat="48.20048" lon="4.65821">
        <ele>268</ele>
        <time>2024-07-03T07:50:53Z</time>
      </trkpt>
      <trkpt lat="48.2" lon="4.65803">
        <ele>273</ele>
        <time>2024-07-03T07:51:02Z</time>
      </trkpt>
      <trkpt lat="48.19958" lon="4.65806">
        <ele>277</ele>
        <time>2024-07-03T07:51:10Z</time>
      </trkpt>
      <trkpt lat="48.19934" lon="4.65817">
        <ele>280</ele>
        <time>2024-07-03T07:51:14Z</time>
      </trkpt>
      <trkpt lat="48.19858" lon="4.6587">
        <ele>287</ele>
        <time>2024-07-03T07:51:29Z</time>
      </trkpt>
      <trkpt lat="48.19836" lon="4.65892">
        <ele>289</ele>
        <time>2024-07-03T07:51:34Z</time>
      </trkpt>
      <trkpt lat="48.19808" lon="4.6593">
        <ele>291</ele>
        <time>2024-07-03T07:51:40Z</time>
      </trkpt>
      <trkpt lat="48.19768" lon="4.65962">
        <ele>294</ele>
        <time>2024-07-03T07:51:48Z</time>
      </trkpt>
      <trkpt lat="48.19679" lon="4.66006">
        <ele>299</ele>
        <time>2024-07-03T07:52:05Z</time>
      </trkpt>
      <trkpt lat="48.196" lon="4.66027">
        <ele>304</ele>
        <time>2024-07-03T07:52:19Z</time>
      </trkpt>
      <trkpt lat="48.19576" lon="4.66041">
        <ele>305</ele>
        <time>2024-07-03T07:52:24Z</time>
      </trkpt>
      <trkpt lat="48.19519" lon="4.66112">
        <ele>309</ele>
        <time>2024-07-03T07:52:37Z</time>
      </trkpt>
      <trkpt lat="48.19486" lon="4.66169">
        <ele>311</ele>
        <time>2024-07-03T07:52:46Z</time>
      </trkpt>
      <trkpt lat="48.19464" lon="4.6619">
        <ele>312</ele>
        <time>2024-07-03T07:52:51Z</time>
      </trkpt>
      <trkpt lat="48.19457" lon="4.66204">
        <ele>313</ele>
        <time>2024-07-03T07:52:53Z</time>
      </trkpt>
      <trkpt lat="48.19454" lon="4.66224">
        <ele>313</ele>
        <time>2024-07-03T07:52:55Z</time>
      </trkpt>
      <trkpt lat="48.19448" lon="4.66237">
        <ele>314</ele>
        <time>2024-07-03T07:52:57Z</time>
      </trkpt>
      <trkpt lat="48.19363" lon="4.66207">
        <ele>312</ele>
        <time>2024-07-03T07:53:13Z</time>
      </trkpt>
      <trkpt lat="48.19269" lon="4.65952">
        <ele>286</ele>
        <time>2024-07-03T07:53:47Z</time>
      </trkpt>
      <trkpt lat="48.19135" lon="4.65827">
        <ele>271</ele>
        <time>2024-07-03T07:54:15Z</time>
      </trkpt>
      <trkpt lat="48.18925" lon="4.65892">
        <ele>283</ele>
        <time>2024-07-03T07:54:53Z</time>
      </trkpt>
      <trkpt lat="48.1881" lon="4.66015">
        <ele>281</ele>
        <time>2024-07-03T07:55:19Z</time>
      </trkpt>
      <trkpt lat="48.18772" lon="4.6614">
        <ele>285</ele>
        <time>2024-07-03T07:55:35Z</time>
      </trkpt>
      <trkpt lat="48.18747" lon="4.66349">
        <ele>279</ele>
        <time>2024-07-03T07:56:00Z</time>
      </trkpt>
      <trkpt lat="48.18796" lon="4.66502">
        <ele>288</ele>
        <time>2024-07-03T07:56:20Z</time>
      </trkpt>
      <trkpt lat="48.18717" lon="4.66613">
        <ele>269</ele>
        <time>2024-07-03T07:56:39Z</time>
      </trkpt>
      <trkpt lat="48.18682" lon="4.66673">
        <ele>258</ele>
        <time>2024-07-03T07:56:49Z</time>
      </trkpt>
      <trkpt lat="48.18637" lon="4.6673">
        <ele>249</ele>
        <time>2024-07-03T07:56:59Z</time>
      </trkpt>
      <trkpt lat="48.18625" lon="4.6674">
        <ele>247</ele>
        <time>2024-07-03T07:57:02Z</time>
      </trkpt>
      <trkpt lat="48.18417" lon="4.66765">
        <ele>243</ele>
        <time>2024-07-03T07:57:39Z</time>
      </trkpt>
      <trkpt lat="48.18107" lon="4.66879">
        <ele>245</ele>
        <time>2024-07-03T07:58:36Z</time>
      </trkpt>
      <trkpt lat="48.18266" lon="4.66509">
        <ele>248</ele>
        <time>2024-07-03T07:59:28Z</time>
      </trkpt>
      <trkpt lat="48.18189" lon="4.66441">
        <ele>253</ele>
        <time>2024-07-03T07:59:44Z</time>
      </trkpt>
      <trkpt lat="48.17904" lon="4.66241">
        <ele>302</ele>
        <time>2024-07-03T08:00:40Z</time>
      </trkpt>
      <trkpt lat="48.17845" lon="4.66191">
        <ele>311</ele>
        <time>2024-07-03T08:00:52Z</time>
      </trkpt>
      <trkpt lat="48.17631" lon="4.65955">
        <ele>324</ele>
        <time>2024-07-03T08:01:39Z</time>
      </trkpt>
      <trkpt lat="48.17536" lon="4.65823">
        <ele>319</ele>
        <time>2024-07-03T08:02:02Z</time>
      </trkpt>
      <trkpt lat="48.17391" lon="4.6555">
        <ele>299</ele>
        <time>2024-07-03T08:02:44Z</time>
      </trkpt>
      <trkpt lat="48.17384" lon="4.65541">
        <ele>297</ele>
        <time>2024-07-03T08:02:45Z</time>
      </trkpt>
      <trkpt lat="48.17486" lon="4.65319">
        <ele>302</ele>
        <time>2024-07-03T08:03:17Z</time>
      </trkpt>
      <trkpt lat="48.17467" lon="4.6508">
        <ele>297</ele>
        <time>2024-07-03T08:03:46Z</time>
      </trkpt>
      <trkpt lat="48.17685" lon="4.65161">
        <ele>312</ele>
        <time>2024-07-03T08:04:26Z</time>
      </trkpt>
      <trkpt lat="48.18089" lon="4.65302">
        <ele>302</ele>
        <time>2024-07-03T08:05:40Z</time>
      </trkpt>
      <trkpt lat="48.18295" lon="4.65322">
        <ele>286</ele>
        <time>2024-07-03T08:06:16Z</time>
      </trkpt>
      <trkpt lat="48.18372" lon="4.65261">
        <ele>271</ele>
        <time>2024-07-03T08:06:32Z</time>
      </trkpt>
      <trkpt lat="48.18558" lon="4.6514">
        <ele>239</ele>
        <time>2024-07-03T08:07:08Z</time>
      </trkpt>
      <trkpt lat="48.18447" lon="4.64888">
        <ele>235</ele>
        <time>2024-07-03T08:07:44Z</time>
      </trkpt>
      <trkpt lat="48.18405" lon="4.64744">
        <ele>237</ele>
        <time>2024-07-03T08:08:02Z</time>
      </trkpt>
      <trkpt lat="48.18614" lon="4.64673">
        <ele>219</ele>
        <time>2024-07-03T08:08:41Z</time>
      </trkpt>
      <trkpt lat="48.18854" lon="4.64692">
        <ele>217</ele>
        <time>2024-07-03T08:09:23Z</time>
      </trkpt>
      <trkpt lat="48.18862" lon="4.6462">
        <ele>218</ele>
        <time>2024-07-03T08:09:32Z</time>
      </trkpt>
      <trkpt lat="48.18855" lon="4.6454">
        <ele>218</ele>
        <time>2024-07-03T08:09:42Z</time>
      </trkpt>
      <trkpt lat="48.18859" lon="4.64356">
        <ele>220</ele>
        <time>2024-07-03T08:10:03Z</time>
      </trkpt>
      <trkpt lat="48.18906" lon="4.63951">
        <ele>217</ele>
        <time>2024-07-03T08:10:52Z</time>
      </trkpt>
      <trkpt lat="48.18921" lon="4.6385">
        <ele>215</ele>
        <time>2024-07-03T08:11:04Z</time>
      </trkpt>
      <trkpt lat="48.18952" lon="4.63741">
        <ele>215</ele>
        <time>2024-07-03T08:11:18Z</time>
      </trkpt>
      <trkpt lat="48.18995" lon="4.63628">
        <ele>216</ele>
        <time>2024-07-03T08:11:34Z</time>
      </trkpt>
      <trkpt lat="48.19027" lon="4.6357">
        <ele>215</ele>
        <time>2024-07-03T08:11:43Z</time>
      </trkpt>
      <trkpt lat="48.19047" lon="4.63545">
        <ele>215</ele>
        <time>2024-07-03T08:11:47Z</time>
      </trkpt>
      <trkpt lat="48.19064" lon="4.63558">
        <ele>217</ele>
        <time>2024-07-03T08:11:51Z</time>
      </trkpt>
      <trkpt lat="48.19082" lon="4.63587">
        <ele>220</ele>
        <time>2024-07-03T08:11:56Z</time>
      </trkpt>
      <trkpt lat="48.19089" lon="4.63601">
        <ele>222</ele>
        <time>2024-07-03T08:11:58Z</time>
      </trkpt>
      <trkpt lat="48.19095" lon="4.63637">
        <ele>225</ele>
        <time>2024-07-03T08:12:02Z</time>
      </trkpt>
      <trkpt lat="48.19121" lon="4.63641">
        <ele>226</ele>
        <time>2024-07-03T08:12:07Z</time>
      </trkpt>
      <trkpt lat="48.19133" lon="4.63647">
        <ele>227</ele>
        <time>2024-07-03T08:12:09Z</time>
      </trkpt>
      <trkpt lat="48.19209" lon="4.63731">
        <ele>238</ele>
        <time>2024-07-03T08:12:26Z</time>
      </trkpt>
      <trkpt lat="48.19238" lon="4.63715">
        <ele>237</ele>
        <time>2024-07-03T08:12:31Z</time>
      </trkpt>
      <trkpt lat="48.19277" lon="4.63706">
        <ele>236</ele>
        <time>2024-07-03T08:12:38Z</time>
      </trkpt>
      <trkpt lat="48.19437" lon="4.63688">
        <ele>233</ele>
        <time>2024-07-03T08:13:07Z</time>
      </trkpt>
      <trkpt lat="48.19446" lon="4.63682">
        <ele>232</ele>
        <time>2024-07-03T08:13:09Z</time>
      </trkpt>
      <trkpt lat="48.19445" lon="4.6365">
        <ele>229</ele>
        <time>2024-07-03T08:13:12Z</time>
      </trkpt>
      <trkpt lat="48.1945" lon="4.63638">
        <ele>228</ele>
        <time>2024-07-03T08:13:14Z</time>
      </trkpt>
      <trkpt lat="48.19513" lon="4.63605">
        <ele>225</ele>
        <time>2024-07-03T08:13:26Z</time>
      </trkpt>
      <trkpt lat="48.19605" lon="4.63591">
        <ele>224</ele>
        <time>2024-07-03T08:13:42Z</time>
      </trkpt>
      <trkpt lat="48.1973" lon="4.63554">
        <ele>225</ele>
        <time>2024-07-03T08:14:05Z</time>
      </trkpt>
      <trkpt lat="48.19806" lon="4.63538">
        <ele>222</ele>
        <time>2024-07-03T08:14:19Z</time>
      </trkpt>
      <trkpt lat="48.19892" lon="4.63535">
        <ele>220</ele>
        <time>2024-07-03T08:14:34Z</time>
      </trkpt>
      <trkpt lat="48.19917" lon="4.63467">
        <ele>215</ele>
        <time>2024-07-03T08:14:43Z</time>
      </trkpt>
      <trkpt lat="48.19925" lon="4.63456">
        <ele>215</ele>
        <time>2024-07-03T08:14:45Z</time>
      </trkpt>
      <trkpt lat="48.19941" lon="4.63449">
        <ele>213</ele>
        <time>2024-07-03T08:14:48Z</time>
      </trkpt>
      <trkpt lat="48.20035" lon="4.63434">
        <ele>212</ele>
        <time>2024-07-03T08:15:05Z</time>
      </trkpt>
      <trkpt lat="48.20047" lon="4.63421">
        <ele>211</ele>
        <time>2024-07-03T08:15:08Z</time>
      </trkpt>
      <trkpt lat="48.20044" lon="4.63329">
        <ele>208</ele>
        <time>2024-07-03T08:15:18Z</time>
      </trkpt>
      <trkpt lat="48.20015" lon="4.63106">
        <ele>197</ele>
        <time>2024-07-03T08:15:45Z</time>
      </trkpt>
      <trkpt lat="48.20018" lon="4.6309">
        <ele>196</ele>
        <time>2024-07-03T08:15:47Z</time>
      </trkpt>
      <trkpt lat="48.20118" lon="4.6305">
        <ele>197</ele>
        <time>2024-07-03T08:16:06Z</time>
      </trkpt>
      <trkpt lat="48.20196" lon="4.63029">
        <ele>198</ele>
        <time>2024-07-03T08:16:20Z</time>
      </trkpt>
      <trkpt lat="48.2025" lon="4.63027">
        <ele>199</ele>
        <time>2024-07-03T08:16:29Z</time>
      </trkpt>
      <trkpt lat="48.20282" lon="4.63032">
        <ele>200</ele>
        <time>2024-07-03T08:16:35Z</time>
      </trkpt>
      <trkpt lat="48.20293" lon="4.63026">
        <ele>199</ele>
        <time>2024-07-03T08:16:37Z</time>
      </trkpt>
      <trkpt lat="48.20325" lon="4.63019">
        <ele>199</ele>
        <time>2024-07-03T08:16:43Z</time>
      </trkpt>
      <trkpt lat="48.20489" lon="4.63007">
        <ele>194</ele>
        <time>2024-07-03T08:17:12Z</time>
      </trkpt>
      <trkpt lat="48.20589" lon="4.62986">
        <ele>191</ele>
        <time>2024-07-03T08:17:30Z</time>
      </trkpt>
      <trkpt lat="48.20657" lon="4.62962">
        <ele>191</ele>
        <time>2024-07-03T08:17:43Z</time>
      </trkpt>
      <trkpt lat="48.20732" lon="4.62917">
        <ele>189</ele>
        <time>2024-07-03T08:17:57Z</time>
      </trkpt>
      <trkpt lat="48.20781" lon="4.63042">
        <ele>191</ele>
        <time>2024-07-03T08:18:14Z</time>
      </trkpt>
      <trkpt lat="48.20837" lon="4.63165">
        <ele>192</ele>
        <time>2024-07-03T08:18:32Z</time>
      </trkpt>
      <trkpt lat="48.2092" lon="4.6337">
        <ele>196</ele>
        <time>2024-07-03T08:19:00Z</time>
      </trkpt>
      <trkpt lat="48.2091" lon="4.63456">
        <ele>197</ele>
        <time>2024-07-03T08:19:11Z</time>
      </trkpt>
      <trkpt lat="48.2092" lon="4.63469">
        <ele>198</ele>
        <time>2024-07-03T08:19:13Z</time>
      </trkpt>
      <trkpt lat="48.20927" lon="4.63493">
        <ele>200</ele>
        <time>2024-07-03T08:19:16Z</time>
      </trkpt>
      <trkpt lat="48.20938" lon="4.63558">
        <ele>203</ele>
        <time>2024-07-03T08:19:24Z</time>
      </trkpt>
      <trkpt lat="48.20959" lon="4.63644">
        <ele>208</ele>
        <time>2024-07-03T08:19:35Z</time>
      </trkpt>
      <trkpt lat="48.20982" lon="4.63716">
        <ele>212</ele>
        <time>2024-07-03T08:19:44Z</time>
      </trkpt>
      <trkpt lat="48.2101" lon="4.63858">
        <ele>215</ele>
        <time>2024-07-03T08:20:02Z</time>
      </trkpt>
      <trkpt lat="48.20992" lon="4.63919">
        <ele>211</ele>
        <time>2024-07-03T08:20:10Z</time>
      </trkpt>
      <trkpt lat="48.20981" lon="4.64008">
        <ele>213</ele>
        <time>2024-07-03T08:20:21Z</time>
      </trkpt>
      <trkpt lat="48.20985" lon="4.64011">
        <ele>213</ele>
        <time>2024-07-03T08:20:21Z</time>
      </trkpt>
      <trkpt lat="48.20996" lon="4.64003">
        <ele>214</ele>
        <time>2024-07-03T08:20:24Z</time>
      </trkpt>
      <trkpt lat="48.21046" lon="4.63983">
        <ele>217</ele>
        <time>2024-07-03T08:20:33Z</time>
      </trkpt>
      <trkpt lat="48.21064" lon="4.63986">
        <ele>219</ele>
        <time>2024-07-03T08:20:36Z</time>
      </trkpt>
      <trkpt lat="48.21121" lon="4.63989">
        <ele>224</ele>
        <time>2024-07-03T08:20:46Z</time>
      </trkpt>
      <trkpt lat="48.21164" lon="4.63999">
        <ele>227</ele>
        <time>2024-07-03T08:20:54Z</time>
      </trkpt>
      <trkpt lat="48.21353" lon="4.64092">
        <ele>248</ele>
        <time>2024-07-03T08:21:29Z</time>
      </trkpt>
      <trkpt lat="48.21449" lon="4.64143">
        <ele>262</ele>
        <time>2024-07-03T08:21:47Z</time>
      </trkpt>
      <trkpt lat="48.21484" lon="4.64165">
        <ele>265</ele>
        <time>2024-07-03T08:21:54Z</time>
      </trkpt>
      <trkpt lat="48.21506" lon="4.64181">
        <ele>269</ele>
        <time>2024-07-03T08:21:59Z</time>
      </trkpt>
      <trkpt lat="48.21538" lon="4.64217">
        <ele>275</ele>
        <time>2024-07-03T08:22:06Z</time>
      </trkpt>
      <trkpt lat="48.21585" lon="4.64298">
        <ele>279</ele>
        <time>2024-07-03T08:22:18Z</time>
      </trkpt>
      <trkpt lat="48.21603" lon="4.64315">
        <ele>282</ele>
        <time>2024-07-03T08:22:22Z</time>
      </trkpt>
      <trkpt lat="48.21622" lon="4.64346">
        <ele>284</ele>
        <time>2024-07-03T08:22:27Z</time>
      </trkpt>
      <trkpt lat="48.21669" lon="4.64377">
        <ele>288</ele>
        <time>2024-07-03T08:22:36Z</time>
      </trkpt>
      <trkpt lat="48.21718" lon="4.64432">
        <ele>291</ele>
        <time>2024-07-03T08:22:47Z</time>
      </trkpt>
      <trkpt lat="48.21761" lon="4.64507">
        <ele>294</ele>
        <time>2024-07-03T08:22:59Z</time>
      </trkpt>
      <trkpt lat="48.21761" lon="4.64528">
        <ele>294</ele>
        <time>2024-07-03T08:23:01Z</time>
      </trkpt>
      <trkpt lat="48.21724" lon="4.64574">
        <ele>292</ele>
        <time>2024-07-03T08:23:10Z</time>
      </trkpt>
      <trkpt lat="48.21707" lon="4.64631">
        <ele>292</ele>
        <time>2024-07-03T08:23:17Z</time>
      </trkpt>
      <trkpt lat="48.2165" lon="4.64606">
        <ele>290</ele>
        <time>2024-07-03T08:23:28Z</time>
      </trkpt>
      <trkpt lat="48.216" lon="4.64595">
        <ele>289</ele>
        <time>2024-07-03T08:23:37Z</time>
      </trkpt>
      <trkpt lat="48.21355" lon="4.64561">
        <ele>284</ele>
        <time>2024-07-03T08:24:21Z</time>
      </trkpt>
      <trkpt lat="48.21338" lon="4.64559">
        <ele>284</ele>
        <time>2024-07-03T08:24:24Z</time>
      </trkpt>
      <trkpt lat="48.21327" lon="4.64562">
        <ele>284</ele>
        <time>2024-07-03T08:24:26Z</time>
      </trkpt>
      <trkpt lat="48.21318" lon="4.64576">
        <ele>283</ele>
        <time>2024-07-03T08:24:28Z</time>
      </trkpt>
      <trkpt lat="48.21312" lon="4.64629">
        <ele>282</ele>
        <time>2024-07-03T08:24:34Z</time>
      </trkpt>
      <trkpt lat="48.21305" lon="4.64646">
        <ele>281</ele>
        <time>2024-07-03T08:24:37Z</time>
      </trkpt>
      <trkpt lat="48.21245" lon="4.64712">
        <ele>273</ele>
        <time>2024-07-03T08:24:50Z</time>
      </trkpt>
      <trkpt lat="48.21199" lon="4.64745">
        <ele>263</ele>
        <time>2024-07-03T08:24:59Z</time>
      </trkpt>
      <trkpt lat="48.21179" lon="4.64754">
        <ele>258</ele>
        <time>2024-07-03T08:25:03Z</time>
      </trkpt>
      <trkpt lat="48.2113" lon="4.64751">
        <ele>247</ele>
        <time>2024-07-03T08:25:12Z</time>
      </trkpt>
      <trkpt lat="48.21104" lon="4.6474">
        <ele>242</ele>
        <time>2024-07-03T08:25:16Z</time>
      </trkpt>
      <trkpt lat="48.21097" lon="4.64727">
        <ele>242</ele>
        <time>2024-07-03T08:25:18Z</time>
      </trkpt>
      <trkpt lat="48.21063" lon="4.6473">
        <ele>233</ele>
        <time>2024-07-03T08:25:24Z</time>
      </trkpt>
      <trkpt lat="48.21" lon="4.64763">
        <ele>218</ele>
        <time>2024-07-03T08:25:36Z</time>
      </trkpt>
      <trkpt lat="48.20784" lon="4.64807">
        <ele>207</ele>
        <time>2024-07-03T08:26:15Z</time>
      </trkpt>
      <trkpt lat="48.20781" lon="4.64839">
        <ele>208</ele>
        <time>2024-07-03T08:26:19Z</time>
      </trkpt>
      <trkpt lat="48.20802" lon="4.64857">
        <ele>207</ele>
        <time>2024-07-03T08:26:23Z</time>
      </trkpt>
      <trkpt lat="48.20808" lon="4.64882">
        <ele>207</ele>
        <time>2024-07-03T08:26:26Z</time>
      </trkpt>
      <trkpt lat="48.20797" lon="4.64915">
        <ele>208</ele>
        <time>2024-07-03T08:26:31Z</time>
      </trkpt>
      <trkpt lat="48.20782" lon="4.64935">
        <ele>208</ele>
        <time>2024-07-03T08:26:34Z</time>
      </trkpt>
    </trkseg>
  </trk>
  <trk>
    <name><![CDATA[35. Circuit Bar sur Aube, Ste Germaine-17237877]]></name>
    <extensions>
      <line xmlns="http://www.topografix.com/GPX/gpx_style/0/2">
        <color>0aa7f5</color>
        <width>4</width>
      </line>
    </extensions>
    <trkseg>
      <trkpt lat="48.21917" lon="4.69905">
        <ele>307</ele>
        <time>2024-07-03T07:43:30Z</time>
      </trkpt>
      <trkpt lat="48.21837" lon="4.69903">
        <ele>315</ele>
        <time>2024-07-03T07:43:44Z</time>
      </trkpt>
      <trkpt lat="48.21825" lon="4.69803">
        <ele>320</ele>
        <time>2024-07-03T07:43:56Z</time>
      </trkpt>
      <trkpt lat="48.21828" lon="4.69672">
        <ele>316</ele>
        <time>2024-07-03T07:44:12Z</time>
      </trkpt>
      <trkpt lat="48.21772" lon="4.69683">
        <ele>319</ele>
        <time>2024-07-03T07:44:22Z</time>
      </trkpt>
      <trkpt lat="48.21654" lon="4.69666">
        <ele>321</ele>
        <time>2024-07-03T07:44:43Z</time>
      </trkpt>
      <trkpt lat="48.21573" lon="4.69667">
        <ele>320</ele>
        <time>2024-07-03T07:44:57Z</time>
      </trkpt>
      <trkpt lat="48.21517" lon="4.69698">
        <ele>319</ele>
        <time>2024-07-03T07:45:08Z</time>
      </trkpt>
      <trkpt lat="48.21481" lon="4.69746">
        <ele>321</ele>
        <time>2024-07-03T07:45:17Z</time>
      </trkpt>
      <trkpt lat="48.21424" lon="4.69806">
        <ele>322</ele>
        <time>2024-07-03T07:45:29Z</time>
      </trkpt>
      <trkpt lat="48.2138" lon="4.69834">
        <ele>324</ele>
        <time>2024-07-03T07:45:37Z</time>
      </trkpt>
      <trkpt lat="48.21318" lon="4.69849">
        <ele>324</ele>
        <time>2024-07-03T07:45:49Z</time>
      </trkpt>
      <trkpt lat="48.21276" lon="4.69847">
        <ele>326</ele>
        <time>2024-07-03T07:45:56Z</time>
      </trkpt>
      <trkpt lat="48.21115" lon="4.69872">
        <ele>335</ele>
        <time>2024-07-03T07:46:25Z</time>
      </trkpt>
      <trkpt lat="48.20972" lon="4.69851">
        <ele>338</ele>
        <time>2024-07-03T07:46:50Z</time>
      </trkpt>
      <trkpt lat="48.20839" lon="4.69885">
        <ele>341</ele>
        <time>2024-07-03T07:47:14Z</time>
      </trkpt>
      <trkpt lat="48.20735" lon="4.69925">
        <ele>342</ele>
        <time>2024-07-03T07:47:34Z</time>
      </trkpt>
      <trkpt lat="48.20679" lon="4.69964">
        <ele>341</ele>
        <time>2024-07-03T07:47:45Z</time>
      </trkpt>
      <trkpt lat="48.204" lon="4.69952">
        <ele>343</ele>
        <time>2024-07-03T07:48:34Z</time>
      </trkpt>
      <trkpt lat="48.2021" lon="4.69911">
        <ele>345</ele>
        <time>2024-07-03T07:49:08Z</time>
      </trkpt>
      <trkpt lat="48.19953" lon="4.69865">
        <ele>350</ele>
        <time>2024-07-03T07:49:54Z</time>
      </trkpt>
      <trkpt lat="48.19836" lon="4.69899">
        <ele>349</ele>
        <time>2024-07-03T07:50:16Z</time>
      </trkpt>
      <trkpt lat="48.19678" lon="4.69908">
        <ele>343</ele>
        <time>2024-07-03T07:50:44Z</time>
      </trkpt>
      <trkpt lat="48.1951" lon="4.69981">
        <ele>341</ele>
        <time>2024-07-03T07:51:15Z</time>
      </trkpt>
      <trkpt lat="48.19378" lon="4.70066">
        <ele>338</ele>
        <time>2024-07-03T07:51:40Z</time>
      </trkpt>
      <trkpt lat="48.19318" lon="4.70081">
        <ele>337</ele>
        <time>2024-07-03T07:51:51Z</time>
      </trkpt>
      <trkpt lat="48.19282" lon="4.69876">
        <ele>333</ele>
        <time>2024-07-03T07:52:16Z</time>
      </trkpt>
      <trkpt lat="48.19251" lon="4.69776">
        <ele>326</ele>
        <time>2024-07-03T07:52:29Z</time>
      </trkpt>
      <trkpt lat="48.1919" lon="4.69668">
        <ele>316</ele>
        <time>2024-07-03T07:52:46Z</time>
      </trkpt>
      <trkpt lat="48.19076" lon="4.69497">
        <ele>291</ele>
        <time>2024-07-03T07:53:15Z</time>
      </trkpt>
      <trkpt lat="48.19083" lon="4.69411">
        <ele>288</ele>
        <time>2024-07-03T07:53:25Z</time>
      </trkpt>
      <trkpt lat="48.19095" lon="4.69346">
        <ele>284</ele>
        <time>2024-07-03T07:53:33Z</time>
      </trkpt>
      <trkpt lat="48.19053" lon="4.6932">
        <ele>287</ele>
        <time>2024-07-03T07:53:41Z</time>
      </trkpt>
      <trkpt lat="48.19015" lon="4.69312">
        <ele>293</ele>
        <time>2024-07-03T07:53:48Z</time>
      </trkpt>
      <trkpt lat="48.18928" lon="4.69248">
        <ele>299</ele>
        <time>2024-07-03T07:54:05Z</time>
      </trkpt>
      <trkpt lat="48.189" lon="4.69196">
        <ele>305</ele>
        <time>2024-07-03T07:54:13Z</time>
      </trkpt>
      <trkpt lat="48.18893" lon="4.69075">
        <ele>316</ele>
        <time>2024-07-03T07:54:28Z</time>
      </trkpt>
      <trkpt lat="48.18871" lon="4.68952">
        <ele>324</ele>
        <time>2024-07-03T07:54:43Z</time>
      </trkpt>
      <trkpt lat="48.18844" lon="4.68739">
        <ele>334</ele>
        <time>2024-07-03T07:55:09Z</time>
      </trkpt>
      <trkpt lat="48.18813" lon="4.68632">
        <ele>343</ele>
        <time>2024-07-03T07:55:22Z</time>
      </trkpt>
      <trkpt lat="48.18796" lon="4.68525">
        <ele>347</ele>
        <time>2024-07-03T07:55:35Z</time>
      </trkpt>
      <trkpt lat="48.18807" lon="4.68479">
        <ele>347</ele>
        <time>2024-07-03T07:55:41Z</time>
      </trkpt>
      <trkpt lat="48.18832" lon="4.68449">
        <ele>346</ele>
        <time>2024-07-03T07:55:47Z</time>
      </trkpt>
      <trkpt lat="48.18803" lon="4.68315">
        <ele>344</ele>
        <time>2024-07-03T07:56:04Z</time>
      </trkpt>
      <trkpt lat="48.19153" lon="4.67907">
        <ele>334</ele>
        <time>2024-07-03T07:57:23Z</time>
      </trkpt>
      <trkpt lat="48.19173" lon="4.67877">
        <ele>335</ele>
        <time>2024-07-03T07:57:28Z</time>
      </trkpt>
      <trkpt lat="48.19185" lon="4.67834">
        <ele>334</ele>
        <time>2024-07-03T07:57:33Z</time>
      </trkpt>
      <trkpt lat="48.19206" lon="4.67786">
        <ele>335</ele>
        <time>2024-07-03T07:57:40Z</time>
      </trkpt>
      <trkpt lat="48.19221" lon="4.67719">
        <ele>335</ele>
        <time>2024-07-03T07:57:48Z</time>
      </trkpt>
      <trkpt lat="48.19229" lon="4.675">
        <ele>334</ele>
        <time>2024-07-03T07:58:14Z</time>
      </trkpt>
      <trkpt lat="48.19257" lon="4.67254">
        <ele>333</ele>
        <time>2024-07-03T07:58:44Z</time>
      </trkpt>
      <trkpt lat="48.19335" lon="4.67089">
        <ele>334</ele>
        <time>2024-07-03T07:59:08Z</time>
      </trkpt>
      <trkpt lat="48.19477" lon="4.6717">
        <ele>326</ele>
        <time>2024-07-03T07:59:35Z</time>
      </trkpt>
      <trkpt lat="48.19602" lon="4.67307">
        <ele>317</ele>
        <time>2024-07-03T08:00:02Z</time>
      </trkpt>
      <trkpt lat="48.19708" lon="4.67468">
        <ele>308</ele>
        <time>2024-07-03T08:00:29Z</time>
      </trkpt>
      <trkpt lat="48.19743" lon="4.67535">
        <ele>303</ele>
        <time>2024-07-03T08:00:39Z</time>
      </trkpt>
      <trkpt lat="48.19762" lon="4.67557">
        <ele>301</ele>
        <time>2024-07-03T08:00:44Z</time>
      </trkpt>
      <trkpt lat="48.19863" lon="4.6765">
        <ele>291</ele>
        <time>2024-07-03T08:01:05Z</time>
      </trkpt>
      <trkpt lat="48.19991" lon="4.67788">
        <ele>278</ele>
        <time>2024-07-03T08:01:33Z</time>
      </trkpt>
      <trkpt lat="48.2009" lon="4.68004">
        <ele>267</ele>
        <time>2024-07-03T08:02:04Z</time>
      </trkpt>
      <trkpt lat="48.20066" lon="4.68126">
        <ele>265</ele>
        <time>2024-07-03T08:02:19Z</time>
      </trkpt>
      <trkpt lat="48.20023" lon="4.68251">
        <ele>265</ele>
        <time>2024-07-03T08:02:36Z</time>
      </trkpt>
      <trkpt lat="48.19955" lon="4.68361">
        <ele>265</ele>
        <time>2024-07-03T08:02:53Z</time>
      </trkpt>
      <trkpt lat="48.19947" lon="4.68401">
        <ele>264</ele>
        <time>2024-07-03T08:02:58Z</time>
      </trkpt>
      <trkpt lat="48.20161" lon="4.68215">
        <ele>249</ele>
        <time>2024-07-03T08:03:42Z</time>
      </trkpt>
      <trkpt lat="48.2022" lon="4.68186">
        <ele>246</ele>
        <time>2024-07-03T08:03:53Z</time>
      </trkpt>
      <trkpt lat="48.20278" lon="4.68151">
        <ele>246</ele>
        <time>2024-07-03T08:04:05Z</time>
      </trkpt>
      <trkpt lat="48.20305" lon="4.68122">
        <ele>246</ele>
        <time>2024-07-03T08:04:10Z</time>
      </trkpt>
      <trkpt lat="48.20372" lon="4.68202">
        <ele>248</ele>
        <time>2024-07-03T08:04:26Z</time>
      </trkpt>
      <trkpt lat="48.20428" lon="4.68301">
        <ele>255</ele>
        <time>2024-07-03T08:04:41Z</time>
      </trkpt>
      <trkpt lat="48.20528" lon="4.68402">
        <ele>277</ele>
        <time>2024-07-03T08:05:03Z</time>
      </trkpt>
      <trkpt lat="48.20585" lon="4.68498">
        <ele>292</ele>
        <time>2024-07-03T08:05:18Z</time>
      </trkpt>
      <trkpt lat="48.20625" lon="4.68519">
        <ele>302</ele>
        <time>2024-07-03T08:05:25Z</time>
      </trkpt>
      <trkpt lat="48.2076" lon="4.68511">
        <ele>314</ele>
        <time>2024-07-03T08:05:49Z</time>
      </trkpt>
      <trkpt lat="48.20815" lon="4.68574">
        <ele>324</ele>
        <time>2024-07-03T08:06:02Z</time>
      </trkpt>
      <trkpt lat="48.20914" lon="4.68704">
        <ele>332</ele>
        <time>2024-07-03T08:06:25Z</time>
      </trkpt>
      <trkpt lat="48.20934" lon="4.68727">
        <ele>332</ele>
        <time>2024-07-03T08:06:30Z</time>
      </trkpt>
      <trkpt lat="48.20993" lon="4.68844">
        <ele>333</ele>
        <time>2024-07-03T08:06:47Z</time>
      </trkpt>
      <trkpt lat="48.2095" lon="4.68877">
        <ele>335</ele>
        <time>2024-07-03T08:06:56Z</time>
      </trkpt>
      <trkpt lat="48.20919" lon="4.68822">
        <ele>336</ele>
        <time>2024-07-03T08:07:04Z</time>
      </trkpt>
      <trkpt lat="48.20877" lon="4.68842">
        <ele>337</ele>
        <time>2024-07-03T08:07:12Z</time>
      </trkpt>
      <trkpt lat="48.20877" lon="4.68894">
        <ele>337</ele>
        <time>2024-07-03T08:07:18Z</time>
      </trkpt>
      <trkpt lat="48.20856" lon="4.68924">
        <ele>338</ele>
        <time>2024-07-03T08:07:23Z</time>
      </trkpt>
      <trkpt lat="48.20843" lon="4.69175">
        <ele>345</ele>
        <time>2024-07-03T08:07:53Z</time>
      </trkpt>
      <trkpt lat="48.20787" lon="4.6921">
        <ele>347</ele>
        <time>2024-07-03T08:08:04Z</time>
      </trkpt>
      <trkpt lat="48.20803" lon="4.6927">
        <ele>347</ele>
        <time>2024-07-03T08:08:12Z</time>
      </trkpt>
      <trkpt lat="48.20873" lon="4.69424">
        <ele>347</ele>
        <time>2024-07-03T08:08:34Z</time>
      </trkpt>
      <trkpt lat="48.20909" lon="4.69521">
        <ele>345</ele>
        <time>2024-07-03T08:08:47Z</time>
      </trkpt>
      <trkpt lat="48.20983" lon="4.69396">
        <ele>348</ele>
        <time>2024-07-03T08:09:07Z</time>
      </trkpt>
      <trkpt lat="48.20996" lon="4.69361">
        <ele>349</ele>
        <time>2024-07-03T08:09:11Z</time>
      </trkpt>
      <trkpt lat="48.2104" lon="4.69339">
        <ele>352</ele>
        <time>2024-07-03T08:09:20Z</time>
      </trkpt>
      <trkpt lat="48.21135" lon="4.69255">
        <ele>347</ele>
        <time>2024-07-03T08:09:39Z</time>
      </trkpt>
      <trkpt lat="48.21155" lon="4.69277">
        <ele>347</ele>
        <time>2024-07-03T08:09:44Z</time>
      </trkpt>
      <trkpt lat="48.2118" lon="4.6928">
        <ele>346</ele>
        <time>2024-07-03T08:09:48Z</time>
      </trkpt>
      <trkpt lat="48.21196" lon="4.69453">
        <ele>345</ele>
        <time>2024-07-03T08:10:09Z</time>
      </trkpt>
      <trkpt lat="48.21207" lon="4.6976">
        <ele>333</ele>
        <time>2024-07-03T08:10:45Z</time>
      </trkpt>
      <trkpt lat="48.21219" lon="4.69794">
        <ele>331</ele>
        <time>2024-07-03T08:10:50Z</time>
      </trkpt>
      <trkpt lat="48.21267" lon="4.69829">
        <ele>326</ele>
        <time>2024-07-03T08:10:59Z</time>
      </trkpt>
      <trkpt lat="48.2133" lon="4.69838">
        <ele>323</ele>
        <time>2024-07-03T08:11:11Z</time>
      </trkpt>
      <trkpt lat="48.21398" lon="4.69816">
        <ele>323</ele>
        <time>2024-07-03T08:11:23Z</time>
      </trkpt>
      <trkpt lat="48.2146" lon="4.69758">
        <ele>320</ele>
        <time>2024-07-03T08:11:36Z</time>
      </trkpt>
      <trkpt lat="48.21514" lon="4.69685">
        <ele>318</ele>
        <time>2024-07-03T08:11:49Z</time>
      </trkpt>
      <trkpt lat="48.21572" lon="4.69654">
        <ele>319</ele>
        <time>2024-07-03T08:12:00Z</time>
      </trkpt>
      <trkpt lat="48.21654" lon="4.6965">
        <ele>320</ele>
        <time>2024-07-03T08:12:15Z</time>
      </trkpt>
      <trkpt lat="48.21756" lon="4.69674">
        <ele>320</ele>
        <time>2024-07-03T08:12:33Z</time>
      </trkpt>
      <trkpt lat="48.21823" lon="4.69669">
        <ele>317</ele>
        <time>2024-07-03T08:12:45Z</time>
      </trkpt>
      <trkpt lat="48.21871" lon="4.69697">
        <ele>315</ele>
        <time>2024-07-03T08:12:54Z</time>
      </trkpt>
      <trkpt lat="48.21932" lon="4.69682">
        <ele>309</ele>
        <time>2024-07-03T08:13:05Z</time>
      </trkpt>
      <trkpt lat="48.21917" lon="4.69905">
        <ele>307</ele>
        <time>2024-07-03T08:13:32Z</time>
      </trkpt>
    </trkseg>
  </trk>
  <trk>
    <name><![CDATA[34. Circuit bleu, Spoy-17237881]]></name>
    <extensions>
      <line xmlns="http://www.topografix.com/GPX/gpx_style/0/2">
        <color>1581f4</color>
        <width>4</width>
      </line>
    </extensions>
    <trkseg>
      <trkpt lat="48.22816" lon="4.61984">
        <ele>178</ele>
        <time>2024-07-03T07:42:36Z</time>
      </trkpt>
      <trkpt lat="48.22803" lon="4.61924">
        <ele>182</ele>
        <time>2024-07-03T07:42:43Z</time>
      </trkpt>
      <trkpt lat="48.22778" lon="4.61841">
        <ele>189</ele>
        <time>2024-07-03T07:42:54Z</time>
      </trkpt>
      <trkpt lat="48.22713" lon="4.6185">
        <ele>194</ele>
        <time>2024-07-03T07:43:06Z</time>
      </trkpt>
      <trkpt lat="48.22565" lon="4.61905">
        <ele>208</ele>
        <time>2024-07-03T07:43:33Z</time>
      </trkpt>
      <trkpt lat="48.22391" lon="4.62016">
        <ele>206</ele>
        <time>2024-07-03T07:44:07Z</time>
      </trkpt>
      <trkpt lat="48.22177" lon="4.62119">
        <ele>198</ele>
        <time>2024-07-03T07:44:47Z</time>
      </trkpt>
      <trkpt lat="48.2216" lon="4.62122">
        <ele>197</ele>
        <time>2024-07-03T07:44:50Z</time>
      </trkpt>
      <trkpt lat="48.22116" lon="4.6212">
        <ele>197</ele>
        <time>2024-07-03T07:44:58Z</time>
      </trkpt>
      <trkpt lat="48.22092" lon="4.62106">
        <ele>199</ele>
        <time>2024-07-03T07:45:02Z</time>
      </trkpt>
      <trkpt lat="48.22055" lon="4.62097">
        <ele>199</ele>
        <time>2024-07-03T07:45:09Z</time>
      </trkpt>
      <trkpt lat="48.21993" lon="4.62074">
        <ele>199</ele>
        <time>2024-07-03T07:45:20Z</time>
      </trkpt>
      <trkpt lat="48.21919" lon="4.62035">
        <ele>201</ele>
        <time>2024-07-03T07:45:34Z</time>
      </trkpt>
      <trkpt lat="48.21902" lon="4.62023">
        <ele>201</ele>
        <time>2024-07-03T07:45:37Z</time>
      </trkpt>
      <trkpt lat="48.21876" lon="4.61987">
        <ele>204</ele>
        <time>2024-07-03T07:45:44Z</time>
      </trkpt>
      <trkpt lat="48.21818" lon="4.61861">
        <ele>209</ele>
        <time>2024-07-03T07:46:02Z</time>
      </trkpt>
      <trkpt lat="48.21789" lon="4.61749">
        <ele>212</ele>
        <time>2024-07-03T07:46:16Z</time>
      </trkpt>
      <trkpt lat="48.21766" lon="4.61561">
        <ele>212</ele>
        <time>2024-07-03T07:46:39Z</time>
      </trkpt>
      <trkpt lat="48.21718" lon="4.61328">
        <ele>213</ele>
        <time>2024-07-03T07:47:08Z</time>
      </trkpt>
      <trkpt lat="48.21704" lon="4.61223">
        <ele>212</ele>
        <time>2024-07-03T07:47:20Z</time>
      </trkpt>
      <trkpt lat="48.21698" lon="4.61109">
        <ele>210</ele>
        <time>2024-07-03T07:47:34Z</time>
      </trkpt>
      <trkpt lat="48.217" lon="4.61099">
        <ele>210</ele>
        <time>2024-07-03T07:47:35Z</time>
      </trkpt>
      <trkpt lat="48.2171" lon="4.6109">
        <ele>212</ele>
        <time>2024-07-03T07:47:37Z</time>
      </trkpt>
      <trkpt lat="48.21789" lon="4.61053">
        <ele>229</ele>
        <time>2024-07-03T07:47:52Z</time>
      </trkpt>
      <trkpt lat="48.2179" lon="4.61027">
        <ele>230</ele>
        <time>2024-07-03T07:47:55Z</time>
      </trkpt>
      <trkpt lat="48.2177" lon="4.60963">
        <ele>232</ele>
        <time>2024-07-03T07:48:03Z</time>
      </trkpt>
      <trkpt lat="48.21777" lon="4.60947">
        <ele>235</ele>
        <time>2024-07-03T07:48:06Z</time>
      </trkpt>
      <trkpt lat="48.21804" lon="4.6093">
        <ele>240</ele>
        <time>2024-07-03T07:48:11Z</time>
      </trkpt>
      <trkpt lat="48.21866" lon="4.60901">
        <ele>250</ele>
        <time>2024-07-03T07:48:22Z</time>
      </trkpt>
      <trkpt lat="48.21919" lon="4.6098">
        <ele>254</ele>
        <time>2024-07-03T07:48:36Z</time>
      </trkpt>
      <trkpt lat="48.2193" lon="4.60986">
        <ele>255</ele>
        <time>2024-07-03T07:48:38Z</time>
      </trkpt>
      <trkpt lat="48.21966" lon="4.60993">
        <ele>258</ele>
        <time>2024-07-03T07:48:44Z</time>
      </trkpt>
      <trkpt lat="48.22236" lon="4.60953">
        <ele>272</ele>
        <time>2024-07-03T07:49:33Z</time>
      </trkpt>
      <trkpt lat="48.22346" lon="4.60917">
        <ele>269</ele>
        <time>2024-07-03T07:49:53Z</time>
      </trkpt>
      <trkpt lat="48.22372" lon="4.60905">
        <ele>267</ele>
        <time>2024-07-03T07:49:57Z</time>
      </trkpt>
      <trkpt lat="48.22379" lon="4.60904">
        <ele>267</ele>
        <time>2024-07-03T07:49:59Z</time>
      </trkpt>
      <trkpt lat="48.22386" lon="4.6091">
        <ele>266</ele>
        <time>2024-07-03T07:50:00Z</time>
      </trkpt>
      <trkpt lat="48.22494" lon="4.61159">
        <ele>247</ele>
        <time>2024-07-03T07:50:35Z</time>
      </trkpt>
      <trkpt lat="48.22509" lon="4.61203">
        <ele>245</ele>
        <time>2024-07-03T07:50:41Z</time>
      </trkpt>
      <trkpt lat="48.22535" lon="4.61321">
        <ele>239</ele>
        <time>2024-07-03T07:50:56Z</time>
      </trkpt>
      <trkpt lat="48.22549" lon="4.61367">
        <ele>236</ele>
        <time>2024-07-03T07:51:02Z</time>
      </trkpt>
      <trkpt lat="48.22638" lon="4.61559">
        <ele>219</ele>
        <time>2024-07-03T07:51:30Z</time>
      </trkpt>
      <trkpt lat="48.22656" lon="4.61642">
        <ele>215</ele>
        <time>2024-07-03T07:51:40Z</time>
      </trkpt>
      <trkpt lat="48.22698" lon="4.61745">
        <ele>205</ele>
        <time>2024-07-03T07:51:54Z</time>
      </trkpt>
      <trkpt lat="48.22704" lon="4.61768">
        <ele>202</ele>
        <time>2024-07-03T07:51:57Z</time>
      </trkpt>
      <trkpt lat="48.2271" lon="4.61825">
        <ele>197</ele>
        <time>2024-07-03T07:52:04Z</time>
      </trkpt>
      <trkpt lat="48.22723" lon="4.61835">
        <ele>194</ele>
        <time>2024-07-03T07:52:07Z</time>
      </trkpt>
      <trkpt lat="48.22768" lon="4.61829">
        <ele>190</ele>
        <time>2024-07-03T07:52:15Z</time>
      </trkpt>
      <trkpt lat="48.22782" lon="4.61835">
        <ele>190</ele>
        <time>2024-07-03T07:52:17Z</time>
      </trkpt>
      <trkpt lat="48.22803" lon="4.61902">
        <ele>184</ele>
        <time>2024-07-03T07:52:26Z</time>
      </trkpt>
      <trkpt lat="48.22811" lon="4.61942">
        <ele>181</ele>
        <time>2024-07-03T07:52:31Z</time>
      </trkpt>
      <trkpt lat="48.22801" lon="4.61957">
        <ele>180</ele>
        <time>2024-07-03T07:52:34Z</time>
      </trkpt>
      <trkpt lat="48.2282" lon="4.61991">
        <ele>178</ele>
        <time>2024-07-03T07:52:39Z</time>
      </trkpt>
    </trkseg>
  </trk>
  <trk>
    <name><![CDATA[33. Circuit sur étang, Spoy-17237885]]></name>
    <extensions>
      <line xmlns="http://www.topografix.com/GPX/gpx_style/0/2">
        <color>00FF00</color>
        <width>4</width>
      </line>
    </extensions>
    <trkseg>
      <trkpt lat="48.22809" lon="4.6199">
        <ele>178</ele>
        <time>2024-07-03T07:40:10Z</time>
      </trkpt>
      <trkpt lat="48.22671" lon="4.62079">
        <ele>178</ele>
        <time>2024-07-03T07:40:37Z</time>
      </trkpt>
      <trkpt lat="48.22614" lon="4.62522">
        <ele>176</ele>
        <time>2024-07-03T07:41:30Z</time>
      </trkpt>
      <trkpt lat="48.22603" lon="4.62628">
        <ele>177</ele>
        <time>2024-07-03T07:41:43Z</time>
      </trkpt>
      <trkpt lat="48.22598" lon="4.62757">
        <ele>179</ele>
        <time>2024-07-03T07:41:58Z</time>
      </trkpt>
      <trkpt lat="48.22583" lon="4.62968">
        <ele>194</ele>
        <time>2024-07-03T07:42:23Z</time>
      </trkpt>
      <trkpt lat="48.22588" lon="4.63056">
        <ele>201</ele>
        <time>2024-07-03T07:42:34Z</time>
      </trkpt>
      <trkpt lat="48.22642" lon="4.63324">
        <ele>231</ele>
        <time>2024-07-03T07:43:07Z</time>
      </trkpt>
      <trkpt lat="48.22658" lon="4.63385">
        <ele>234</ele>
        <time>2024-07-03T07:43:15Z</time>
      </trkpt>
      <trkpt lat="48.22718" lon="4.6355">
        <ele>249</ele>
        <time>2024-07-03T07:43:37Z</time>
      </trkpt>
      <trkpt lat="48.22733" lon="4.63604">
        <ele>253</ele>
        <time>2024-07-03T07:43:44Z</time>
      </trkpt>
      <trkpt lat="48.22736" lon="4.63637">
        <ele>255</ele>
        <time>2024-07-03T07:43:48Z</time>
      </trkpt>
      <trkpt lat="48.22728" lon="4.63719">
        <ele>261</ele>
        <time>2024-07-03T07:43:58Z</time>
      </trkpt>
      <trkpt lat="48.22703" lon="4.63814">
        <ele>267</ele>
        <time>2024-07-03T07:44:10Z</time>
      </trkpt>
      <trkpt lat="48.22681" lon="4.63868">
        <ele>269</ele>
        <time>2024-07-03T07:44:17Z</time>
      </trkpt>
      <trkpt lat="48.22679" lon="4.63876">
        <ele>269</ele>
        <time>2024-07-03T07:44:18Z</time>
      </trkpt>
      <trkpt lat="48.22684" lon="4.63883">
        <ele>270</ele>
        <time>2024-07-03T07:44:20Z</time>
      </trkpt>
      <trkpt lat="48.22696" lon="4.63873">
        <ele>269</ele>
        <time>2024-07-03T07:44:22Z</time>
      </trkpt>
      <trkpt lat="48.22748" lon="4.63759">
        <ele>263</ele>
        <time>2024-07-03T07:44:38Z</time>
      </trkpt>
      <trkpt lat="48.22762" lon="4.63711">
        <ele>261</ele>
        <time>2024-07-03T07:44:45Z</time>
      </trkpt>
      <trkpt lat="48.22771" lon="4.6363">
        <ele>258</ele>
        <time>2024-07-03T07:44:54Z</time>
      </trkpt>
      <trkpt lat="48.22772" lon="4.63551">
        <ele>258</ele>
        <time>2024-07-03T07:45:04Z</time>
      </trkpt>
      <trkpt lat="48.22766" lon="4.63463">
        <ele>259</ele>
        <time>2024-07-03T07:45:14Z</time>
      </trkpt>
      <trkpt lat="48.22732" lon="4.63282">
        <ele>254</ele>
        <time>2024-07-03T07:45:37Z</time>
      </trkpt>
      <trkpt lat="48.22733" lon="4.63264">
        <ele>254</ele>
        <time>2024-07-03T07:45:39Z</time>
      </trkpt>
      <trkpt lat="48.22741" lon="4.6324">
        <ele>256</ele>
        <time>2024-07-03T07:45:42Z</time>
      </trkpt>
      <trkpt lat="48.22781" lon="4.63177">
        <ele>259</ele>
        <time>2024-07-03T07:45:52Z</time>
      </trkpt>
      <trkpt lat="48.22886" lon="4.62983">
        <ele>253</ele>
        <time>2024-07-03T07:46:22Z</time>
      </trkpt>
      <trkpt lat="48.22982" lon="4.6287">
        <ele>245</ele>
        <time>2024-07-03T07:46:44Z</time>
      </trkpt>
      <trkpt lat="48.23034" lon="4.62816">
        <ele>241</ele>
        <time>2024-07-03T07:46:55Z</time>
      </trkpt>
      <trkpt lat="48.2316" lon="4.62719">
        <ele>230</ele>
        <time>2024-07-03T07:47:20Z</time>
      </trkpt>
      <trkpt lat="48.23184" lon="4.62712">
        <ele>228</ele>
        <time>2024-07-03T07:47:24Z</time>
      </trkpt>
      <trkpt lat="48.2329" lon="4.62705">
        <ele>220</ele>
        <time>2024-07-03T07:47:43Z</time>
      </trkpt>
      <trkpt lat="48.23297" lon="4.62698">
        <ele>219</ele>
        <time>2024-07-03T07:47:45Z</time>
      </trkpt>
      <trkpt lat="48.233" lon="4.62682">
        <ele>216</ele>
        <time>2024-07-03T07:47:47Z</time>
      </trkpt>
      <trkpt lat="48.23297" lon="4.62641">
        <ele>211</ele>
        <time>2024-07-03T07:47:52Z</time>
      </trkpt>
      <trkpt lat="48.23273" lon="4.62561">
        <ele>204</ele>
        <time>2024-07-03T07:48:02Z</time>
      </trkpt>
      <trkpt lat="48.23273" lon="4.62548">
        <ele>202</ele>
        <time>2024-07-03T07:48:03Z</time>
      </trkpt>
      <trkpt lat="48.23292" lon="4.62475">
        <ele>190</ele>
        <time>2024-07-03T07:48:13Z</time>
      </trkpt>
      <trkpt lat="48.23292" lon="4.62456">
        <ele>188</ele>
        <time>2024-07-03T07:48:15Z</time>
      </trkpt>
      <trkpt lat="48.23285" lon="4.62432">
        <ele>186</ele>
        <time>2024-07-03T07:48:18Z</time>
      </trkpt>
      <trkpt lat="48.2325" lon="4.62374">
        <ele>182</ele>
        <time>2024-07-03T07:48:27Z</time>
      </trkpt>
      <trkpt lat="48.2324" lon="4.62341">
        <ele>178</ele>
        <time>2024-07-03T07:48:32Z</time>
      </trkpt>
      <trkpt lat="48.23211" lon="4.62281">
        <ele>175</ele>
        <time>2024-07-03T07:48:40Z</time>
      </trkpt>
      <trkpt lat="48.23179" lon="4.62188">
        <ele>174</ele>
        <time>2024-07-03T07:48:53Z</time>
      </trkpt>
      <trkpt lat="48.23161" lon="4.62179">
        <ele>175</ele>
        <time>2024-07-03T07:48:56Z</time>
      </trkpt>
      <trkpt lat="48.23096" lon="4.62189">
        <ele>174</ele>
        <time>2024-07-03T07:49:08Z</time>
      </trkpt>
      <trkpt lat="48.23069" lon="4.62186">
        <ele>174</ele>
        <time>2024-07-03T07:49:13Z</time>
      </trkpt>
      <trkpt lat="48.23016" lon="4.6213">
        <ele>174</ele>
        <time>2024-07-03T07:49:24Z</time>
      </trkpt>
      <trkpt lat="48.22938" lon="4.62028">
        <ele>174</ele>
        <time>2024-07-03T07:49:43Z</time>
      </trkpt>
      <trkpt lat="48.22918" lon="4.62012">
        <ele>174</ele>
        <time>2024-07-03T07:49:47Z</time>
      </trkpt>
      <trkpt lat="48.22887" lon="4.62005">
        <ele>175</ele>
        <time>2024-07-03T07:49:52Z</time>
      </trkpt>
      <trkpt lat="48.22876" lon="4.61957">
        <ele>177</ele>
        <time>2024-07-03T07:49:58Z</time>
      </trkpt>
      <trkpt lat="48.22875" lon="4.61947">
        <ele>177</ele>
        <time>2024-07-03T07:49:59Z</time>
      </trkpt>
      <trkpt lat="48.22844" lon="4.61961">
        <ele>178</ele>
        <time>2024-07-03T07:50:05Z</time>
      </trkpt>
      <trkpt lat="48.22822" lon="4.61977">
        <ele>178</ele>
        <time>2024-07-03T07:50:10Z</time>
      </trkpt>
      <trkpt lat="48.22816" lon="4.61984">
        <ele>178</ele>
        <time>2024-07-03T07:50:11Z</time>
      </trkpt>
    </trkseg>
  </trk>
  <trk>
    <name><![CDATA[32. Circuit de Bar sur Aube Gaston Bachelard-17237890]]></name>
    <extensions>
      <line xmlns="http://www.topografix.com/GPX/gpx_style/0/2">
        <color>FF0000</color>
        <width>4</width>
      </line>
    </extensions>
    <trkseg>
      <trkpt lat="48.21939" lon="4.69876">
        <ele>311</ele>
        <time>2024-07-03T07:39:48Z</time>
      </trkpt>
      <trkpt lat="48.21889" lon="4.69692">
        <ele>313</ele>
        <time>2024-07-03T07:40:12Z</time>
      </trkpt>
      <trkpt lat="48.21877" lon="4.69694">
        <ele>314</ele>
        <time>2024-07-03T07:40:14Z</time>
      </trkpt>
      <trkpt lat="48.21864" lon="4.69691">
        <ele>315</ele>
        <time>2024-07-03T07:40:16Z</time>
      </trkpt>
      <trkpt lat="48.21835" lon="4.69675">
        <ele>316</ele>
        <time>2024-07-03T07:40:22Z</time>
      </trkpt>
      <trkpt lat="48.21814" lon="4.6967">
        <ele>317</ele>
        <time>2024-07-03T07:40:25Z</time>
      </trkpt>
      <trkpt lat="48.21781" lon="4.69671">
        <ele>319</ele>
        <time>2024-07-03T07:40:31Z</time>
      </trkpt>
      <trkpt lat="48.2168" lon="4.69652">
        <ele>320</ele>
        <time>2024-07-03T07:40:49Z</time>
      </trkpt>
      <trkpt lat="48.21636" lon="4.69648">
        <ele>319</ele>
        <time>2024-07-03T07:40:57Z</time>
      </trkpt>
      <trkpt lat="48.21614" lon="4.69649">
        <ele>319</ele>
        <time>2024-07-03T07:41:01Z</time>
      </trkpt>
      <trkpt lat="48.2158" lon="4.69655">
        <ele>319</ele>
        <time>2024-07-03T07:41:07Z</time>
      </trkpt>
      <trkpt lat="48.21555" lon="4.69664">
        <ele>319</ele>
        <time>2024-07-03T07:41:12Z</time>
      </trkpt>
      <trkpt lat="48.2153" lon="4.69678">
        <ele>319</ele>
        <time>2024-07-03T07:41:16Z</time>
      </trkpt>
      <trkpt lat="48.21512" lon="4.69692">
        <ele>319</ele>
        <time>2024-07-03T07:41:20Z</time>
      </trkpt>
      <trkpt lat="48.21443" lon="4.69776">
        <ele>320</ele>
        <time>2024-07-03T07:41:36Z</time>
      </trkpt>
      <trkpt lat="48.21419" lon="4.69801">
        <ele>322</ele>
        <time>2024-07-03T07:41:41Z</time>
      </trkpt>
      <trkpt lat="48.21383" lon="4.69827">
        <ele>324</ele>
        <time>2024-07-03T07:41:48Z</time>
      </trkpt>
      <trkpt lat="48.21347" lon="4.69839">
        <ele>324</ele>
        <time>2024-07-03T07:41:55Z</time>
      </trkpt>
      <trkpt lat="48.21307" lon="4.69844">
        <ele>325</ele>
        <time>2024-07-03T07:42:02Z</time>
      </trkpt>
      <trkpt lat="48.21291" lon="4.69843">
        <ele>325</ele>
        <time>2024-07-03T07:42:05Z</time>
      </trkpt>
      <trkpt lat="48.21269" lon="4.69833">
        <ele>326</ele>
        <time>2024-07-03T07:42:09Z</time>
      </trkpt>
      <trkpt lat="48.21243" lon="4.6984">
        <ele>328</ele>
        <time>2024-07-03T07:42:14Z</time>
      </trkpt>
      <trkpt lat="48.21216" lon="4.69855">
        <ele>330</ele>
        <time>2024-07-03T07:42:19Z</time>
      </trkpt>
      <trkpt lat="48.2118" lon="4.6987">
        <ele>332</ele>
        <time>2024-07-03T07:42:25Z</time>
      </trkpt>
      <trkpt lat="48.21155" lon="4.69873">
        <ele>333</ele>
        <time>2024-07-03T07:42:30Z</time>
      </trkpt>
      <trkpt lat="48.21123" lon="4.69872">
        <ele>335</ele>
        <time>2024-07-03T07:42:35Z</time>
      </trkpt>
      <trkpt lat="48.21052" lon="4.6986">
        <ele>337</ele>
        <time>2024-07-03T07:42:48Z</time>
      </trkpt>
      <trkpt lat="48.21015" lon="4.69851">
        <ele>337</ele>
        <time>2024-07-03T07:42:55Z</time>
      </trkpt>
      <trkpt lat="48.20973" lon="4.69851">
        <ele>338</ele>
        <time>2024-07-03T07:43:02Z</time>
      </trkpt>
      <trkpt lat="48.20949" lon="4.69854">
        <ele>338</ele>
        <time>2024-07-03T07:43:07Z</time>
      </trkpt>
      <trkpt lat="48.20922" lon="4.6986">
        <ele>337</ele>
        <time>2024-07-03T07:43:11Z</time>
      </trkpt>
      <trkpt lat="48.20837" lon="4.69889">
        <ele>341</ele>
        <time>2024-07-03T07:43:27Z</time>
      </trkpt>
      <trkpt lat="48.20825" lon="4.69891">
        <ele>342</ele>
        <time>2024-07-03T07:43:29Z</time>
      </trkpt>
      <trkpt lat="48.20795" lon="4.69903">
        <ele>342</ele>
        <time>2024-07-03T07:43:35Z</time>
      </trkpt>
      <trkpt lat="48.2078" lon="4.69903">
        <ele>342</ele>
        <time>2024-07-03T07:43:37Z</time>
      </trkpt>
      <trkpt lat="48.20766" lon="4.69898">
        <ele>343</ele>
        <time>2024-07-03T07:43:40Z</time>
      </trkpt>
      <trkpt lat="48.20752" lon="4.69902">
        <ele>343</ele>
        <time>2024-07-03T07:43:42Z</time>
      </trkpt>
      <trkpt lat="48.20747" lon="4.69904">
        <ele>343</ele>
        <time>2024-07-03T07:43:43Z</time>
      </trkpt>
      <trkpt lat="48.20736" lon="4.69915">
        <ele>342</ele>
        <time>2024-07-03T07:43:46Z</time>
      </trkpt>
      <trkpt lat="48.20728" lon="4.69927">
        <ele>342</ele>
        <time>2024-07-03T07:43:48Z</time>
      </trkpt>
      <trkpt lat="48.20722" lon="4.69929">
        <ele>342</ele>
        <time>2024-07-03T07:43:49Z</time>
      </trkpt>
      <trkpt lat="48.20692" lon="4.6995">
        <ele>341</ele>
        <time>2024-07-03T07:43:55Z</time>
      </trkpt>
      <trkpt lat="48.20666" lon="4.69955">
        <ele>340</ele>
        <time>2024-07-03T07:43:59Z</time>
      </trkpt>
      <trkpt lat="48.2054" lon="4.69956">
        <ele>339</ele>
        <time>2024-07-03T07:44:22Z</time>
      </trkpt>
      <trkpt lat="48.20481" lon="4.6996">
        <ele>340</ele>
        <time>2024-07-03T07:44:32Z</time>
      </trkpt>
      <trkpt lat="48.20387" lon="4.69953">
        <ele>343</ele>
        <time>2024-07-03T07:44:49Z</time>
      </trkpt>
      <trkpt lat="48.20316" lon="4.69932">
        <ele>345</ele>
        <time>2024-07-03T07:45:02Z</time>
      </trkpt>
      <trkpt lat="48.20227" lon="4.69901">
        <ele>344</ele>
        <time>2024-07-03T07:45:18Z</time>
      </trkpt>
      <trkpt lat="48.19996" lon="4.69868">
        <ele>349</ele>
        <time>2024-07-03T07:45:59Z</time>
      </trkpt>
      <trkpt lat="48.19957" lon="4.69868">
        <ele>350</ele>
        <time>2024-07-03T07:46:06Z</time>
      </trkpt>
      <trkpt lat="48.19843" lon="4.69894">
        <ele>349</ele>
        <time>2024-07-03T07:46:27Z</time>
      </trkpt>
      <trkpt lat="48.19686" lon="4.69907">
        <ele>343</ele>
        <time>2024-07-03T07:46:55Z</time>
      </trkpt>
      <trkpt lat="48.19586" lon="4.69956">
        <ele>343</ele>
        <time>2024-07-03T07:47:14Z</time>
      </trkpt>
      <trkpt lat="48.19509" lon="4.69978">
        <ele>341</ele>
        <time>2024-07-03T07:47:28Z</time>
      </trkpt>
      <trkpt lat="48.19388" lon="4.70056">
        <ele>338</ele>
        <time>2024-07-03T07:47:51Z</time>
      </trkpt>
      <trkpt lat="48.19348" lon="4.70073">
        <ele>337</ele>
        <time>2024-07-03T07:47:58Z</time>
      </trkpt>
      <trkpt lat="48.19323" lon="4.70078">
        <ele>337</ele>
        <time>2024-07-03T07:48:03Z</time>
      </trkpt>
      <trkpt lat="48.19297" lon="4.69941">
        <ele>335</ele>
        <time>2024-07-03T07:48:20Z</time>
      </trkpt>
      <trkpt lat="48.1927" lon="4.69823">
        <ele>330</ele>
        <time>2024-07-03T07:48:35Z</time>
      </trkpt>
      <trkpt lat="48.19253" lon="4.69772">
        <ele>326</ele>
        <time>2024-07-03T07:48:41Z</time>
      </trkpt>
      <trkpt lat="48.1923" lon="4.69729">
        <ele>324</ele>
        <time>2024-07-03T07:48:48Z</time>
      </trkpt>
      <trkpt lat="48.19179" lon="4.69646">
        <ele>314</ele>
        <time>2024-07-03T07:49:01Z</time>
      </trkpt>
      <trkpt lat="48.19075" lon="4.69492">
        <ele>291</ele>
        <time>2024-07-03T07:49:27Z</time>
      </trkpt>
      <trkpt lat="48.19087" lon="4.69394">
        <ele>287</ele>
        <time>2024-07-03T07:49:39Z</time>
      </trkpt>
      <trkpt lat="48.19102" lon="4.69338">
        <ele>284</ele>
        <time>2024-07-03T07:49:46Z</time>
      </trkpt>
      <trkpt lat="48.1905" lon="4.69318">
        <ele>288</ele>
        <time>2024-07-03T07:49:56Z</time>
      </trkpt>
      <trkpt lat="48.19012" lon="4.69309">
        <ele>294</ele>
        <time>2024-07-03T07:50:03Z</time>
      </trkpt>
      <trkpt lat="48.18974" lon="4.69285">
        <ele>298</ele>
        <time>2024-07-03T07:50:10Z</time>
      </trkpt>
      <trkpt lat="48.18924" lon="4.69243">
        <ele>299</ele>
        <time>2024-07-03T07:50:20Z</time>
      </trkpt>
      <trkpt lat="48.18904" lon="4.69198">
        <ele>305</ele>
        <time>2024-07-03T07:50:27Z</time>
      </trkpt>
      <trkpt lat="48.18897" lon="4.69083">
        <ele>315</ele>
        <time>2024-07-03T07:50:40Z</time>
      </trkpt>
      <trkpt lat="48.18868" lon="4.68914">
        <ele>326</ele>
        <time>2024-07-03T07:51:01Z</time>
      </trkpt>
      <trkpt lat="48.18857" lon="4.6881">
        <ele>328</ele>
        <time>2024-07-03T07:51:13Z</time>
      </trkpt>
      <trkpt lat="48.18845" lon="4.68741">
        <ele>333</ele>
        <time>2024-07-03T07:51:22Z</time>
      </trkpt>
      <trkpt lat="48.18805" lon="4.6859">
        <ele>344</ele>
        <time>2024-07-03T07:51:41Z</time>
      </trkpt>
      <trkpt lat="48.18797" lon="4.68523">
        <ele>347</ele>
        <time>2024-07-03T07:51:49Z</time>
      </trkpt>
      <trkpt lat="48.18801" lon="4.68501">
        <ele>347</ele>
        <time>2024-07-03T07:51:52Z</time>
      </trkpt>
      <trkpt lat="48.1881" lon="4.68472">
        <ele>347</ele>
        <time>2024-07-03T07:51:56Z</time>
      </trkpt>
      <trkpt lat="48.18832" lon="4.68446">
        <ele>346</ele>
        <time>2024-07-03T07:52:01Z</time>
      </trkpt>
      <trkpt lat="48.18802" lon="4.68314">
        <ele>344</ele>
        <time>2024-07-03T07:52:17Z</time>
      </trkpt>
      <trkpt lat="48.18898" lon="4.68199">
        <ele>341</ele>
        <time>2024-07-03T07:52:39Z</time>
      </trkpt>
      <trkpt lat="48.18921" lon="4.68162">
        <ele>340</ele>
        <time>2024-07-03T07:52:45Z</time>
      </trkpt>
      <trkpt lat="48.18852" lon="4.68017">
        <ele>332</ele>
        <time>2024-07-03T07:53:06Z</time>
      </trkpt>
      <trkpt lat="48.18784" lon="4.67939">
        <ele>328</ele>
        <time>2024-07-03T07:53:22Z</time>
      </trkpt>
      <trkpt lat="48.18685" lon="4.67681">
        <ele>325</ele>
        <time>2024-07-03T07:53:57Z</time>
      </trkpt>
      <trkpt lat="48.18755" lon="4.67456">
        <ele>306</ele>
        <time>2024-07-03T07:54:26Z</time>
      </trkpt>
      <trkpt lat="48.18764" lon="4.67329">
        <ele>287</ele>
        <time>2024-07-03T07:54:41Z</time>
      </trkpt>
      <trkpt lat="48.18659" lon="4.66879">
        <ele>249</ele>
        <time>2024-07-03T07:55:38Z</time>
      </trkpt>
      <trkpt lat="48.18657" lon="4.66881">
        <ele>249</ele>
        <time>2024-07-03T07:55:38Z</time>
      </trkpt>
      <trkpt lat="48.18613" lon="4.66805">
        <ele>246</ele>
        <time>2024-07-03T07:55:50Z</time>
      </trkpt>
      <trkpt lat="48.18601" lon="4.66778">
        <ele>245</ele>
        <time>2024-07-03T07:55:54Z</time>
      </trkpt>
      <trkpt lat="48.18593" lon="4.66746">
        <ele>243</ele>
        <time>2024-07-03T07:55:58Z</time>
      </trkpt>
      <trkpt lat="48.18542" lon="4.66768">
        <ele>243</ele>
        <time>2024-07-03T07:56:08Z</time>
      </trkpt>
      <trkpt lat="48.1847" lon="4.66777">
        <ele>244</ele>
        <time>2024-07-03T07:56:21Z</time>
      </trkpt>
      <trkpt lat="48.18411" lon="4.66764">
        <ele>243</ele>
        <time>2024-07-03T07:56:31Z</time>
      </trkpt>
      <trkpt lat="48.1841" lon="4.66756">
        <ele>242</ele>
        <time>2024-07-03T07:56:32Z</time>
      </trkpt>
      <trkpt lat="48.18385" lon="4.66734">
        <ele>240</ele>
        <time>2024-07-03T07:56:37Z</time>
      </trkpt>
      <trkpt lat="48.18361" lon="4.6665">
        <ele>239</ele>
        <time>2024-07-03T07:56:48Z</time>
      </trkpt>
      <trkpt lat="48.18361" lon="4.66641">
        <ele>240</ele>
        <time>2024-07-03T07:56:49Z</time>
      </trkpt>
      <trkpt lat="48.18376" lon="4.66604">
        <ele>239</ele>
        <time>2024-07-03T07:56:54Z</time>
      </trkpt>
      <trkpt lat="48.18378" lon="4.66594">
        <ele>239</ele>
        <time>2024-07-03T07:56:56Z</time>
      </trkpt>
      <trkpt lat="48.18378" lon="4.66573">
        <ele>239</ele>
        <time>2024-07-03T07:56:58Z</time>
      </trkpt>
      <trkpt lat="48.18369" lon="4.66537">
        <ele>241</ele>
        <time>2024-07-03T07:57:03Z</time>
      </trkpt>
      <trkpt lat="48.18325" lon="4.66529">
        <ele>245</ele>
        <time>2024-07-03T07:57:11Z</time>
      </trkpt>
      <trkpt lat="48.18279" lon="4.665">
        <ele>248</ele>
        <time>2024-07-03T07:57:19Z</time>
      </trkpt>
      <trkpt lat="48.18205" lon="4.66448">
        <ele>252</ele>
        <time>2024-07-03T07:57:34Z</time>
      </trkpt>
      <trkpt lat="48.18115" lon="4.66376">
        <ele>262</ele>
        <time>2024-07-03T07:57:52Z</time>
      </trkpt>
      <trkpt lat="48.18101" lon="4.66367">
        <ele>265</ele>
        <time>2024-07-03T07:57:55Z</time>
      </trkpt>
      <trkpt lat="48.18058" lon="4.66329">
        <ele>274</ele>
        <time>2024-07-03T07:58:04Z</time>
      </trkpt>
      <trkpt lat="48.18019" lon="4.66327">
        <ele>281</ele>
        <time>2024-07-03T07:58:11Z</time>
      </trkpt>
      <trkpt lat="48.17997" lon="4.6632">
        <ele>285</ele>
        <time>2024-07-03T07:58:15Z</time>
      </trkpt>
      <trkpt lat="48.17931" lon="4.66267">
        <ele>298</ele>
        <time>2024-07-03T07:58:28Z</time>
      </trkpt>
      <trkpt lat="48.17917" lon="4.66259">
        <ele>301</ele>
        <time>2024-07-03T07:58:31Z</time>
      </trkpt>
      <trkpt lat="48.17895" lon="4.66252">
        <ele>304</ele>
        <time>2024-07-03T07:58:35Z</time>
      </trkpt>
      <trkpt lat="48.17872" lon="4.66236">
        <ele>306</ele>
        <time>2024-07-03T07:58:39Z</time>
      </trkpt>
      <trkpt lat="48.17812" lon="4.66159">
        <ele>315</ele>
        <time>2024-07-03T07:58:53Z</time>
      </trkpt>
      <trkpt lat="48.17736" lon="4.66051">
        <ele>322</ele>
        <time>2024-07-03T07:59:12Z</time>
      </trkpt>
      <trkpt lat="48.17557" lon="4.65853">
        <ele>321</ele>
        <time>2024-07-03T07:59:51Z</time>
      </trkpt>
      <trkpt lat="48.17546" lon="4.65837">
        <ele>320</ele>
        <time>2024-07-03T07:59:54Z</time>
      </trkpt>
      <trkpt lat="48.1753" lon="4.65809">
        <ele>319</ele>
        <time>2024-07-03T07:59:58Z</time>
      </trkpt>
      <trkpt lat="48.17502" lon="4.65741">
        <ele>318</ele>
        <time>2024-07-03T08:00:08Z</time>
      </trkpt>
      <trkpt lat="48.17479" lon="4.657">
        <ele>315</ele>
        <time>2024-07-03T08:00:14Z</time>
      </trkpt>
      <trkpt lat="48.17454" lon="4.65646">
        <ele>312</ele>
        <time>2024-07-03T08:00:22Z</time>
      </trkpt>
      <trkpt lat="48.17447" lon="4.65634">
        <ele>311</ele>
        <time>2024-07-03T08:00:24Z</time>
      </trkpt>
      <trkpt lat="48.17427" lon="4.65611">
        <ele>308</ele>
        <time>2024-07-03T08:00:28Z</time>
      </trkpt>
      <trkpt lat="48.1741" lon="4.65582">
        <ele>305</ele>
        <time>2024-07-03T08:00:33Z</time>
      </trkpt>
      <trkpt lat="48.17386" lon="4.65525">
        <ele>297</ele>
        <time>2024-07-03T08:00:41Z</time>
      </trkpt>
      <trkpt lat="48.17376" lon="4.65507">
        <ele>294</ele>
        <time>2024-07-03T08:00:44Z</time>
      </trkpt>
      <trkpt lat="48.17332" lon="4.65463">
        <ele>282</ele>
        <time>2024-07-03T08:00:53Z</time>
      </trkpt>
      <trkpt lat="48.17229" lon="4.65375">
        <ele>264</ele>
        <time>2024-07-03T08:01:14Z</time>
      </trkpt>
      <trkpt lat="48.17197" lon="4.65345">
        <ele>259</ele>
        <time>2024-07-03T08:01:21Z</time>
      </trkpt>
      <trkpt lat="48.1717" lon="4.65328">
        <ele>255</ele>
        <time>2024-07-03T08:01:26Z</time>
      </trkpt>
      <trkpt lat="48.17125" lon="4.65307">
        <ele>247</ele>
        <time>2024-07-03T08:01:35Z</time>
      </trkpt>
      <trkpt lat="48.17086" lon="4.65275">
        <ele>240</ele>
        <time>2024-07-03T08:01:43Z</time>
      </trkpt>
      <trkpt lat="48.17056" lon="4.65244">
        <ele>235</ele>
        <time>2024-07-03T08:01:49Z</time>
      </trkpt>
      <trkpt lat="48.17052" lon="4.65237">
        <ele>234</ele>
        <time>2024-07-03T08:01:50Z</time>
      </trkpt>
      <trkpt lat="48.17012" lon="4.65242">
        <ele>230</ele>
        <time>2024-07-03T08:01:57Z</time>
      </trkpt>
      <trkpt lat="48.17013" lon="4.65161">
        <ele>228</ele>
        <time>2024-07-03T08:02:07Z</time>
      </trkpt>
      <trkpt lat="48.17021" lon="4.65058">
        <ele>226</ele>
        <time>2024-07-03T08:02:19Z</time>
      </trkpt>
      <trkpt lat="48.17024" lon="4.65045">
        <ele>226</ele>
        <time>2024-07-03T08:02:21Z</time>
      </trkpt>
      <trkpt lat="48.17014" lon="4.65034">
        <ele>225</ele>
        <time>2024-07-03T08:02:23Z</time>
      </trkpt>
      <trkpt lat="48.17007" lon="4.64996">
        <ele>224</ele>
        <time>2024-07-03T08:02:28Z</time>
      </trkpt>
      <trkpt lat="48.16994" lon="4.64976">
        <ele>223</ele>
        <time>2024-07-03T08:02:31Z</time>
      </trkpt>
      <trkpt lat="48.16937" lon="4.64926">
        <ele>223</ele>
        <time>2024-07-03T08:02:43Z</time>
      </trkpt>
      <trkpt lat="48.16907" lon="4.64888">
        <ele>224</ele>
        <time>2024-07-03T08:02:50Z</time>
      </trkpt>
      <trkpt lat="48.16897" lon="4.64871">
        <ele>225</ele>
        <time>2024-07-03T08:02:52Z</time>
      </trkpt>
      <trkpt lat="48.16863" lon="4.64793">
        <ele>226</ele>
        <time>2024-07-03T08:03:04Z</time>
      </trkpt>
      <trkpt lat="48.16842" lon="4.64758">
        <ele>226</ele>
        <time>2024-07-03T08:03:09Z</time>
      </trkpt>
      <trkpt lat="48.16791" lon="4.64684">
        <ele>228</ele>
        <time>2024-07-03T08:03:22Z</time>
      </trkpt>
      <trkpt lat="48.16781" lon="4.64655">
        <ele>228</ele>
        <time>2024-07-03T08:03:26Z</time>
      </trkpt>
      <trkpt lat="48.16777" lon="4.64626">
        <ele>229</ele>
        <time>2024-07-03T08:03:29Z</time>
      </trkpt>
      <trkpt lat="48.16774" lon="4.64554">
        <ele>229</ele>
        <time>2024-07-03T08:03:38Z</time>
      </trkpt>
      <trkpt lat="48.16783" lon="4.6445">
        <ele>232</ele>
        <time>2024-07-03T08:03:50Z</time>
      </trkpt>
      <trkpt lat="48.16793" lon="4.64394">
        <ele>233</ele>
        <time>2024-07-03T08:03:57Z</time>
      </trkpt>
      <trkpt lat="48.16812" lon="4.64318">
        <ele>233</ele>
        <time>2024-07-03T08:04:07Z</time>
      </trkpt>
      <trkpt lat="48.16817" lon="4.6429">
        <ele>232</ele>
        <time>2024-07-03T08:04:10Z</time>
      </trkpt>
      <trkpt lat="48.16819" lon="4.64258">
        <ele>231</ele>
        <time>2024-07-03T08:04:14Z</time>
      </trkpt>
      <trkpt lat="48.16814" lon="4.64209">
        <ele>232</ele>
        <time>2024-07-03T08:04:20Z</time>
      </trkpt>
      <trkpt lat="48.16808" lon="4.64185">
        <ele>233</ele>
        <time>2024-07-03T08:04:23Z</time>
      </trkpt>
      <trkpt lat="48.16793" lon="4.64145">
        <ele>234</ele>
        <time>2024-07-03T08:04:28Z</time>
      </trkpt>
      <trkpt lat="48.16759" lon="4.64072">
        <ele>234</ele>
        <time>2024-07-03T08:04:39Z</time>
      </trkpt>
      <trkpt lat="48.16743" lon="4.64023">
        <ele>234</ele>
        <time>2024-07-03T08:04:45Z</time>
      </trkpt>
      <trkpt lat="48.16735" lon="4.6398">
        <ele>235</ele>
        <time>2024-07-03T08:04:51Z</time>
      </trkpt>
      <trkpt lat="48.16727" lon="4.63901">
        <ele>238</ele>
        <time>2024-07-03T08:05:00Z</time>
      </trkpt>
      <trkpt lat="48.16725" lon="4.63855">
        <ele>241</ele>
        <time>2024-07-03T08:05:06Z</time>
      </trkpt>
      <trkpt lat="48.1673" lon="4.63797">
        <ele>244</ele>
        <time>2024-07-03T08:05:13Z</time>
      </trkpt>
      <trkpt lat="48.16769" lon="4.63594">
        <ele>249</ele>
        <time>2024-07-03T08:05:38Z</time>
      </trkpt>
      <trkpt lat="48.16775" lon="4.6354">
        <ele>249</ele>
        <time>2024-07-03T08:05:44Z</time>
      </trkpt>
      <trkpt lat="48.1678" lon="4.63414">
        <ele>246</ele>
        <time>2024-07-03T08:05:59Z</time>
      </trkpt>
      <trkpt lat="48.16772" lon="4.63269">
        <ele>237</ele>
        <time>2024-07-03T08:06:16Z</time>
      </trkpt>
      <trkpt lat="48.16765" lon="4.63188">
        <ele>232</ele>
        <time>2024-07-03T08:06:26Z</time>
      </trkpt>
      <trkpt lat="48.16793" lon="4.63092">
        <ele>228</ele>
        <time>2024-07-03T08:06:38Z</time>
      </trkpt>
      <trkpt lat="48.16803" lon="4.63047">
        <ele>226</ele>
        <time>2024-07-03T08:06:44Z</time>
      </trkpt>
      <trkpt lat="48.16816" lon="4.62956">
        <ele>224</ele>
        <time>2024-07-03T08:06:55Z</time>
      </trkpt>
      <trkpt lat="48.16849" lon="4.62797">
        <ele>223</ele>
        <time>2024-07-03T08:07:15Z</time>
      </trkpt>
      <trkpt lat="48.16852" lon="4.62771">
        <ele>223</ele>
        <time>2024-07-03T08:07:18Z</time>
      </trkpt>
      <trkpt lat="48.16856" lon="4.62701">
        <ele>221</ele>
        <time>2024-07-03T08:07:26Z</time>
      </trkpt>
      <trkpt lat="48.16856" lon="4.62655">
        <ele>219</ele>
        <time>2024-07-03T08:07:32Z</time>
      </trkpt>
      <trkpt lat="48.16844" lon="4.62532">
        <ele>215</ele>
        <time>2024-07-03T08:07:47Z</time>
      </trkpt>
      <trkpt lat="48.16842" lon="4.62446">
        <ele>215</ele>
        <time>2024-07-03T08:07:57Z</time>
      </trkpt>
      <trkpt lat="48.16864" lon="4.62428">
        <ele>214</ele>
        <time>2024-07-03T08:08:01Z</time>
      </trkpt>
      <trkpt lat="48.16874" lon="4.62415">
        <ele>213</ele>
        <time>2024-07-03T08:08:04Z</time>
      </trkpt>
      <trkpt lat="48.16955" lon="4.62253">
        <ele>213</ele>
        <time>2024-07-03T08:08:28Z</time>
      </trkpt>
      <trkpt lat="48.1697" lon="4.62219">
        <ele>212</ele>
        <time>2024-07-03T08:08:32Z</time>
      </trkpt>
      <trkpt lat="48.16975" lon="4.622">
        <ele>212</ele>
        <time>2024-07-03T08:08:35Z</time>
      </trkpt>
      <trkpt lat="48.16974" lon="4.62188">
        <ele>212</ele>
        <time>2024-07-03T08:08:36Z</time>
      </trkpt>
      <trkpt lat="48.16958" lon="4.62173">
        <ele>212</ele>
        <time>2024-07-03T08:08:40Z</time>
      </trkpt>
      <trkpt lat="48.1691" lon="4.62149">
        <ele>212</ele>
        <time>2024-07-03T08:08:49Z</time>
      </trkpt>
      <trkpt lat="48.16891" lon="4.6213">
        <ele>212</ele>
        <time>2024-07-03T08:08:53Z</time>
      </trkpt>
      <trkpt lat="48.16878" lon="4.62109">
        <ele>213</ele>
        <time>2024-07-03T08:08:56Z</time>
      </trkpt>
      <trkpt lat="48.16874" lon="4.62093">
        <ele>213</ele>
        <time>2024-07-03T08:08:58Z</time>
      </trkpt>
      <trkpt lat="48.16875" lon="4.62081">
        <ele>214</ele>
        <time>2024-07-03T08:09:00Z</time>
      </trkpt>
      <trkpt lat="48.16883" lon="4.62065">
        <ele>214</ele>
        <time>2024-07-03T08:09:02Z</time>
      </trkpt>
      <trkpt lat="48.16909" lon="4.62032">
        <ele>217</ele>
        <time>2024-07-03T08:09:08Z</time>
      </trkpt>
      <trkpt lat="48.16941" lon="4.61984">
        <ele>218</ele>
        <time>2024-07-03T08:09:16Z</time>
      </trkpt>
      <trkpt lat="48.1696" lon="4.61942">
        <ele>218</ele>
        <time>2024-07-03T08:09:22Z</time>
      </trkpt>
      <trkpt lat="48.1698" lon="4.61884">
        <ele>218</ele>
        <time>2024-07-03T08:09:30Z</time>
      </trkpt>
      <trkpt lat="48.16997" lon="4.61819">
        <ele>219</ele>
        <time>2024-07-03T08:09:38Z</time>
      </trkpt>
      <trkpt lat="48.17" lon="4.61806">
        <ele>219</ele>
        <time>2024-07-03T08:09:40Z</time>
      </trkpt>
      <trkpt lat="48.16999" lon="4.61788">
        <ele>220</ele>
        <time>2024-07-03T08:09:42Z</time>
      </trkpt>
      <trkpt lat="48.17063" lon="4.61746">
        <ele>217</ele>
        <time>2024-07-03T08:09:54Z</time>
      </trkpt>
      <trkpt lat="48.17078" lon="4.61731">
        <ele>216</ele>
        <time>2024-07-03T08:09:58Z</time>
      </trkpt>
      <trkpt lat="48.17101" lon="4.6166">
        <ele>217</ele>
        <time>2024-07-03T08:10:07Z</time>
      </trkpt>
      <trkpt lat="48.17108" lon="4.61649">
        <ele>217</ele>
        <time>2024-07-03T08:10:09Z</time>
      </trkpt>
      <trkpt lat="48.17118" lon="4.61647">
        <ele>217</ele>
        <time>2024-07-03T08:10:11Z</time>
      </trkpt>
      <trkpt lat="48.17127" lon="4.61652">
        <ele>217</ele>
        <time>2024-07-03T08:10:12Z</time>
      </trkpt>
      <trkpt lat="48.17147" lon="4.61679">
        <ele>217</ele>
        <time>2024-07-03T08:10:17Z</time>
      </trkpt>
      <trkpt lat="48.17161" lon="4.61686">
        <ele>217</ele>
        <time>2024-07-03T08:10:20Z</time>
      </trkpt>
      <trkpt lat="48.17207" lon="4.61698">
        <ele>219</ele>
        <time>2024-07-03T08:10:28Z</time>
      </trkpt>
      <trkpt lat="48.1723" lon="4.61687">
        <ele>220</ele>
        <time>2024-07-03T08:10:32Z</time>
      </trkpt>
      <trkpt lat="48.17243" lon="4.61672">
        <ele>220</ele>
        <time>2024-07-03T08:10:35Z</time>
      </trkpt>
      <trkpt lat="48.17281" lon="4.61603">
        <ele>222</ele>
        <time>2024-07-03T08:10:46Z</time>
      </trkpt>
      <trkpt lat="48.17304" lon="4.61567">
        <ele>223</ele>
        <time>2024-07-03T08:10:52Z</time>
      </trkpt>
      <trkpt lat="48.17335" lon="4.61527">
        <ele>224</ele>
        <time>2024-07-03T08:10:59Z</time>
      </trkpt>
      <trkpt lat="48.17358" lon="4.61491">
        <ele>226</ele>
        <time>2024-07-03T08:11:05Z</time>
      </trkpt>
      <trkpt lat="48.17372" lon="4.61462">
        <ele>227</ele>
        <time>2024-07-03T08:11:09Z</time>
      </trkpt>
      <trkpt lat="48.1739" lon="4.61469">
        <ele>229</ele>
        <time>2024-07-03T08:11:12Z</time>
      </trkpt>
      <trkpt lat="48.17439" lon="4.61471">
        <ele>234</ele>
        <time>2024-07-03T08:11:21Z</time>
      </trkpt>
      <trkpt lat="48.17456" lon="4.61478">
        <ele>235</ele>
        <time>2024-07-03T08:11:24Z</time>
      </trkpt>
      <trkpt lat="48.17478" lon="4.61495">
        <ele>237</ele>
        <time>2024-07-03T08:11:29Z</time>
      </trkpt>
      <trkpt lat="48.17503" lon="4.61521">
        <ele>239</ele>
        <time>2024-07-03T08:11:34Z</time>
      </trkpt>
      <trkpt lat="48.17529" lon="4.61553">
        <ele>241</ele>
        <time>2024-07-03T08:11:40Z</time>
      </trkpt>
      <trkpt lat="48.1754" lon="4.61561">
        <ele>241</ele>
        <time>2024-07-03T08:11:42Z</time>
      </trkpt>
      <trkpt lat="48.1756" lon="4.61569">
        <ele>243</ele>
        <time>2024-07-03T08:11:46Z</time>
      </trkpt>
      <trkpt lat="48.17655" lon="4.61582">
        <ele>255</ele>
        <time>2024-07-03T08:12:03Z</time>
      </trkpt>
      <trkpt lat="48.17717" lon="4.61598">
        <ele>264</ele>
        <time>2024-07-03T08:12:14Z</time>
      </trkpt>
      <trkpt lat="48.17838" lon="4.61634">
        <ele>282</ele>
        <time>2024-07-03T08:12:36Z</time>
      </trkpt>
      <trkpt lat="48.17855" lon="4.61648">
        <ele>284</ele>
        <time>2024-07-03T08:12:40Z</time>
      </trkpt>
      <trkpt lat="48.1787" lon="4.61687">
        <ele>285</ele>
        <time>2024-07-03T08:12:45Z</time>
      </trkpt>
      <trkpt lat="48.17886" lon="4.61713">
        <ele>286</ele>
        <time>2024-07-03T08:12:49Z</time>
      </trkpt>
      <trkpt lat="48.17925" lon="4.61756">
        <ele>288</ele>
        <time>2024-07-03T08:12:58Z</time>
      </trkpt>
      <trkpt lat="48.17974" lon="4.61788">
        <ele>296</ele>
        <time>2024-07-03T08:13:07Z</time>
      </trkpt>
      <trkpt lat="48.18073" lon="4.61818">
        <ele>305</ele>
        <time>2024-07-03T08:13:25Z</time>
      </trkpt>
      <trkpt lat="48.18131" lon="4.61825">
        <ele>307</ele>
        <time>2024-07-03T08:13:36Z</time>
      </trkpt>
      <trkpt lat="48.18191" lon="4.61797">
        <ele>310</ele>
        <time>2024-07-03T08:13:47Z</time>
      </trkpt>
      <trkpt lat="48.18249" lon="4.61778">
        <ele>310</ele>
        <time>2024-07-03T08:13:57Z</time>
      </trkpt>
      <trkpt lat="48.18329" lon="4.61781">
        <ele>306</ele>
        <time>2024-07-03T08:14:11Z</time>
      </trkpt>
      <trkpt lat="48.18377" lon="4.61772">
        <ele>301</ele>
        <time>2024-07-03T08:14:20Z</time>
      </trkpt>
      <trkpt lat="48.18402" lon="4.61754">
        <ele>300</ele>
        <time>2024-07-03T08:14:25Z</time>
      </trkpt>
      <trkpt lat="48.18425" lon="4.61725">
        <ele>299</ele>
        <time>2024-07-03T08:14:30Z</time>
      </trkpt>
      <trkpt lat="48.18445" lon="4.61711">
        <ele>299</ele>
        <time>2024-07-03T08:14:34Z</time>
      </trkpt>
      <trkpt lat="48.18465" lon="4.61708">
        <ele>299</ele>
        <time>2024-07-03T08:14:38Z</time>
      </trkpt>
      <trkpt lat="48.18483" lon="4.61717">
        <ele>297</ele>
        <time>2024-07-03T08:14:41Z</time>
      </trkpt>
      <trkpt lat="48.18559" lon="4.6178">
        <ele>292</ele>
        <time>2024-07-03T08:14:57Z</time>
      </trkpt>
      <trkpt lat="48.18675" lon="4.61836">
        <ele>289</ele>
        <time>2024-07-03T08:15:18Z</time>
      </trkpt>
      <trkpt lat="48.18721" lon="4.61862">
        <ele>286</ele>
        <time>2024-07-03T08:15:27Z</time>
      </trkpt>
      <trkpt lat="48.18761" lon="4.61873">
        <ele>285</ele>
        <time>2024-07-03T08:15:34Z</time>
      </trkpt>
      <trkpt lat="48.1885" lon="4.61874">
        <ele>283</ele>
        <time>2024-07-03T08:15:50Z</time>
      </trkpt>
      <trkpt lat="48.18883" lon="4.61881">
        <ele>282</ele>
        <time>2024-07-03T08:15:56Z</time>
      </trkpt>
      <trkpt lat="48.18924" lon="4.61897">
        <ele>281</ele>
        <time>2024-07-03T08:16:04Z</time>
      </trkpt>
      <trkpt lat="48.18975" lon="4.61909">
        <ele>281</ele>
        <time>2024-07-03T08:16:13Z</time>
      </trkpt>
      <trkpt lat="48.1906" lon="4.61917">
        <ele>278</ele>
        <time>2024-07-03T08:16:28Z</time>
      </trkpt>
      <trkpt lat="48.19069" lon="4.61921">
        <ele>278</ele>
        <time>2024-07-03T08:16:30Z</time>
      </trkpt>
      <trkpt lat="48.19077" lon="4.6193">
        <ele>277</ele>
        <time>2024-07-03T08:16:31Z</time>
      </trkpt>
      <trkpt lat="48.1911" lon="4.61998">
        <ele>273</ele>
        <time>2024-07-03T08:16:41Z</time>
      </trkpt>
      <trkpt lat="48.19127" lon="4.62022">
        <ele>271</ele>
        <time>2024-07-03T08:16:46Z</time>
      </trkpt>
      <trkpt lat="48.1916" lon="4.62051">
        <ele>270</ele>
        <time>2024-07-03T08:16:52Z</time>
      </trkpt>
      <trkpt lat="48.19207" lon="4.62079">
        <ele>269</ele>
        <time>2024-07-03T08:17:01Z</time>
      </trkpt>
      <trkpt lat="48.19276" lon="4.6214">
        <ele>264</ele>
        <time>2024-07-03T08:17:16Z</time>
      </trkpt>
      <trkpt lat="48.19311" lon="4.62157">
        <ele>264</ele>
        <time>2024-07-03T08:17:22Z</time>
      </trkpt>
      <trkpt lat="48.19366" lon="4.62192">
        <ele>261</ele>
        <time>2024-07-03T08:17:33Z</time>
      </trkpt>
      <trkpt lat="48.19399" lon="4.62208">
        <ele>259</ele>
        <time>2024-07-03T08:17:39Z</time>
      </trkpt>
      <trkpt lat="48.19445" lon="4.6222">
        <ele>256</ele>
        <time>2024-07-03T08:17:47Z</time>
      </trkpt>
      <trkpt lat="48.19504" lon="4.62249">
        <ele>251</ele>
        <time>2024-07-03T08:17:58Z</time>
      </trkpt>
      <trkpt lat="48.19549" lon="4.62275">
        <ele>244</ele>
        <time>2024-07-03T08:18:07Z</time>
      </trkpt>
      <trkpt lat="48.19574" lon="4.62301">
        <ele>239</ele>
        <time>2024-07-03T08:18:12Z</time>
      </trkpt>
      <trkpt lat="48.19582" lon="4.62314">
        <ele>236</ele>
        <time>2024-07-03T08:18:14Z</time>
      </trkpt>
      <trkpt lat="48.19598" lon="4.62331">
        <ele>233</ele>
        <time>2024-07-03T08:18:18Z</time>
      </trkpt>
      <trkpt lat="48.19624" lon="4.62352">
        <ele>227</ele>
        <time>2024-07-03T08:18:23Z</time>
      </trkpt>
      <trkpt lat="48.19639" lon="4.62361">
        <ele>224</ele>
        <time>2024-07-03T08:18:26Z</time>
      </trkpt>
      <trkpt lat="48.19672" lon="4.62365">
        <ele>220</ele>
        <time>2024-07-03T08:18:32Z</time>
      </trkpt>
      <trkpt lat="48.19707" lon="4.62361">
        <ele>217</ele>
        <time>2024-07-03T08:18:38Z</time>
      </trkpt>
      <trkpt lat="48.19766" lon="4.6234">
        <ele>213</ele>
        <time>2024-07-03T08:18:49Z</time>
      </trkpt>
      <trkpt lat="48.19792" lon="4.62339">
        <ele>212</ele>
        <time>2024-07-03T08:18:54Z</time>
      </trkpt>
      <trkpt lat="48.1982" lon="4.62345">
        <ele>210</ele>
        <time>2024-07-03T08:18:59Z</time>
      </trkpt>
      <trkpt lat="48.1988" lon="4.62368">
        <ele>206</ele>
        <time>2024-07-03T08:19:10Z</time>
      </trkpt>
      <trkpt lat="48.19986" lon="4.62404">
        <ele>202</ele>
        <time>2024-07-03T08:19:29Z</time>
      </trkpt>
      <trkpt lat="48.20018" lon="4.62409">
        <ele>200</ele>
        <time>2024-07-03T08:19:35Z</time>
      </trkpt>
      <trkpt lat="48.20047" lon="4.62425">
        <ele>198</ele>
        <time>2024-07-03T08:19:40Z</time>
      </trkpt>
      <trkpt lat="48.20054" lon="4.62432">
        <ele>197</ele>
        <time>2024-07-03T08:19:42Z</time>
      </trkpt>
      <trkpt lat="48.20066" lon="4.6243">
        <ele>196</ele>
        <time>2024-07-03T08:19:44Z</time>
      </trkpt>
      <trkpt lat="48.20069" lon="4.62423">
        <ele>196</ele>
        <time>2024-07-03T08:19:45Z</time>
      </trkpt>
      <trkpt lat="48.20098" lon="4.62398">
        <ele>196</ele>
        <time>2024-07-03T08:19:51Z</time>
      </trkpt>
      <trkpt lat="48.20162" lon="4.62357">
        <ele>201</ele>
        <time>2024-07-03T08:20:03Z</time>
      </trkpt>
      <trkpt lat="48.20194" lon="4.62333">
        <ele>201</ele>
        <time>2024-07-03T08:20:10Z</time>
      </trkpt>
      <trkpt lat="48.20207" lon="4.62363">
        <ele>201</ele>
        <time>2024-07-03T08:20:14Z</time>
      </trkpt>
      <trkpt lat="48.2023" lon="4.62371">
        <ele>200</ele>
        <time>2024-07-03T08:20:18Z</time>
      </trkpt>
      <trkpt lat="48.20238" lon="4.62368">
        <ele>200</ele>
        <time>2024-07-03T08:20:19Z</time>
      </trkpt>
      <trkpt lat="48.2025" lon="4.62356">
        <ele>200</ele>
        <time>2024-07-03T08:20:22Z</time>
      </trkpt>
      <trkpt lat="48.20273" lon="4.62342">
        <ele>199</ele>
        <time>2024-07-03T08:20:26Z</time>
      </trkpt>
      <trkpt lat="48.20279" lon="4.62336">
        <ele>199</ele>
        <time>2024-07-03T08:20:28Z</time>
      </trkpt>
      <trkpt lat="48.20287" lon="4.62333">
        <ele>199</ele>
        <time>2024-07-03T08:20:29Z</time>
      </trkpt>
      <trkpt lat="48.20289" lon="4.62311">
        <ele>199</ele>
        <time>2024-07-03T08:20:32Z</time>
      </trkpt>
      <trkpt lat="48.20288" lon="4.62205">
        <ele>199</ele>
        <time>2024-07-03T08:20:44Z</time>
      </trkpt>
      <trkpt lat="48.20294" lon="4.62156">
        <ele>199</ele>
        <time>2024-07-03T08:20:50Z</time>
      </trkpt>
      <trkpt lat="48.20307" lon="4.62129">
        <ele>199</ele>
        <time>2024-07-03T08:20:54Z</time>
      </trkpt>
      <trkpt lat="48.20328" lon="4.62095">
        <ele>200</ele>
        <time>2024-07-03T08:21:00Z</time>
      </trkpt>
      <trkpt lat="48.20351" lon="4.62066">
        <ele>202</ele>
        <time>2024-07-03T08:21:05Z</time>
      </trkpt>
      <trkpt lat="48.2037" lon="4.62061">
        <ele>204</ele>
        <time>2024-07-03T08:21:09Z</time>
      </trkpt>
      <trkpt lat="48.20391" lon="4.62068">
        <ele>205</ele>
        <time>2024-07-03T08:21:12Z</time>
      </trkpt>
      <trkpt lat="48.20428" lon="4.62095">
        <ele>206</ele>
        <time>2024-07-03T08:21:20Z</time>
      </trkpt>
      <trkpt lat="48.20449" lon="4.62103">
        <ele>207</ele>
        <time>2024-07-03T08:21:24Z</time>
      </trkpt>
      <trkpt lat="48.2047" lon="4.62105">
        <ele>208</ele>
        <time>2024-07-03T08:21:27Z</time>
      </trkpt>
      <trkpt lat="48.20488" lon="4.62102">
        <ele>210</ele>
        <time>2024-07-03T08:21:31Z</time>
      </trkpt>
      <trkpt lat="48.20459" lon="4.61992">
        <ele>218</ele>
        <time>2024-07-03T08:21:45Z</time>
      </trkpt>
      <trkpt lat="48.20448" lon="4.61937">
        <ele>222</ele>
        <time>2024-07-03T08:21:51Z</time>
      </trkpt>
      <trkpt lat="48.20448" lon="4.61906">
        <ele>225</ele>
        <time>2024-07-03T08:21:55Z</time>
      </trkpt>
      <trkpt lat="48.20463" lon="4.61911">
        <ele>227</ele>
        <time>2024-07-03T08:21:58Z</time>
      </trkpt>
      <trkpt lat="48.20497" lon="4.61915">
        <ele>231</ele>
        <time>2024-07-03T08:22:04Z</time>
      </trkpt>
      <trkpt lat="48.20527" lon="4.61913">
        <ele>232</ele>
        <time>2024-07-03T08:22:09Z</time>
      </trkpt>
      <trkpt lat="48.20551" lon="4.61898">
        <ele>233</ele>
        <time>2024-07-03T08:22:14Z</time>
      </trkpt>
      <trkpt lat="48.20562" lon="4.61882">
        <ele>235</ele>
        <time>2024-07-03T08:22:17Z</time>
      </trkpt>
      <trkpt lat="48.20567" lon="4.61863">
        <ele>237</ele>
        <time>2024-07-03T08:22:19Z</time>
      </trkpt>
      <trkpt lat="48.20568" lon="4.61783">
        <ele>244</ele>
        <time>2024-07-03T08:22:28Z</time>
      </trkpt>
      <trkpt lat="48.20583" lon="4.61704">
        <ele>248</ele>
        <time>2024-07-03T08:22:38Z</time>
      </trkpt>
      <trkpt lat="48.20592" lon="4.61608">
        <ele>250</ele>
        <time>2024-07-03T08:22:50Z</time>
      </trkpt>
      <trkpt lat="48.20594" lon="4.61563">
        <ele>251</ele>
        <time>2024-07-03T08:22:55Z</time>
      </trkpt>
      <trkpt lat="48.20598" lon="4.61524">
        <ele>252</ele>
        <time>2024-07-03T08:23:00Z</time>
      </trkpt>
      <trkpt lat="48.20605" lon="4.61486">
        <ele>252</ele>
        <time>2024-07-03T08:23:04Z</time>
      </trkpt>
      <trkpt lat="48.2062" lon="4.61429">
        <ele>253</ele>
        <time>2024-07-03T08:23:12Z</time>
      </trkpt>
      <trkpt lat="48.20624" lon="4.61423">
        <ele>252</ele>
        <time>2024-07-03T08:23:13Z</time>
      </trkpt>
      <trkpt lat="48.20628" lon="4.61422">
        <ele>252</ele>
        <time>2024-07-03T08:23:13Z</time>
      </trkpt>
      <trkpt lat="48.20643" lon="4.61428">
        <ele>252</ele>
        <time>2024-07-03T08:23:16Z</time>
      </trkpt>
      <trkpt lat="48.20666" lon="4.61341">
        <ele>252</ele>
        <time>2024-07-03T08:23:27Z</time>
      </trkpt>
      <trkpt lat="48.20737" lon="4.61158">
        <ele>258</ele>
        <time>2024-07-03T08:23:52Z</time>
      </trkpt>
      <trkpt lat="48.20756" lon="4.60941">
        <ele>259</ele>
        <time>2024-07-03T08:24:18Z</time>
      </trkpt>
      <trkpt lat="48.20824" lon="4.60956">
        <ele>259</ele>
        <time>2024-07-03T08:24:31Z</time>
      </trkpt>
      <trkpt lat="48.20832" lon="4.60956">
        <ele>259</ele>
        <time>2024-07-03T08:24:32Z</time>
      </trkpt>
      <trkpt lat="48.2084" lon="4.60951">
        <ele>259</ele>
        <time>2024-07-03T08:24:33Z</time>
      </trkpt>
      <trkpt lat="48.20866" lon="4.60918">
        <ele>260</ele>
        <time>2024-07-03T08:24:40Z</time>
      </trkpt>
      <trkpt lat="48.20968" lon="4.6081">
        <ele>258</ele>
        <time>2024-07-03T08:25:02Z</time>
      </trkpt>
      <trkpt lat="48.20996" lon="4.60773">
        <ele>256</ele>
        <time>2024-07-03T08:25:08Z</time>
      </trkpt>
      <trkpt lat="48.2101" lon="4.60751">
        <ele>255</ele>
        <time>2024-07-03T08:25:12Z</time>
      </trkpt>
      <trkpt lat="48.21022" lon="4.60726">
        <ele>254</ele>
        <time>2024-07-03T08:25:16Z</time>
      </trkpt>
      <trkpt lat="48.21057" lon="4.60644">
        <ele>249</ele>
        <time>2024-07-03T08:25:27Z</time>
      </trkpt>
      <trkpt lat="48.21083" lon="4.60603">
        <ele>244</ele>
        <time>2024-07-03T08:25:34Z</time>
      </trkpt>
      <trkpt lat="48.21122" lon="4.60549">
        <ele>243</ele>
        <time>2024-07-03T08:25:43Z</time>
      </trkpt>
      <trkpt lat="48.21157" lon="4.60514">
        <ele>239</ele>
        <time>2024-07-03T08:25:51Z</time>
      </trkpt>
      <trkpt lat="48.21184" lon="4.60496">
        <ele>235</ele>
        <time>2024-07-03T08:25:56Z</time>
      </trkpt>
      <trkpt lat="48.21267" lon="4.60452">
        <ele>226</ele>
        <time>2024-07-03T08:26:12Z</time>
      </trkpt>
      <trkpt lat="48.21293" lon="4.60435">
        <ele>221</ele>
        <time>2024-07-03T08:26:17Z</time>
      </trkpt>
      <trkpt lat="48.21319" lon="4.60415">
        <ele>216</ele>
        <time>2024-07-03T08:26:22Z</time>
      </trkpt>
      <trkpt lat="48.21332" lon="4.60399">
        <ele>214</ele>
        <time>2024-07-03T08:26:25Z</time>
      </trkpt>
      <trkpt lat="48.21341" lon="4.60382">
        <ele>213</ele>
        <time>2024-07-03T08:26:28Z</time>
      </trkpt>
      <trkpt lat="48.21371" lon="4.60279">
        <ele>210</ele>
        <time>2024-07-03T08:26:41Z</time>
      </trkpt>
      <trkpt lat="48.21398" lon="4.60221">
        <ele>207</ele>
        <time>2024-07-03T08:26:49Z</time>
      </trkpt>
      <trkpt lat="48.21428" lon="4.60183">
        <ele>207</ele>
        <time>2024-07-03T08:26:56Z</time>
      </trkpt>
      <trkpt lat="48.21458" lon="4.60149">
        <ele>207</ele>
        <time>2024-07-03T08:27:03Z</time>
      </trkpt>
      <trkpt lat="48.21473" lon="4.60138">
        <ele>206</ele>
        <time>2024-07-03T08:27:06Z</time>
      </trkpt>
      <trkpt lat="48.21517" lon="4.60121">
        <ele>206</ele>
        <time>2024-07-03T08:27:14Z</time>
      </trkpt>
      <trkpt lat="48.21539" lon="4.60116">
        <ele>209</ele>
        <time>2024-07-03T08:27:18Z</time>
      </trkpt>
      <trkpt lat="48.21537" lon="4.6021">
        <ele>206</ele>
        <time>2024-07-03T08:27:29Z</time>
      </trkpt>
      <trkpt lat="48.2154" lon="4.60238">
        <ele>206</ele>
        <time>2024-07-03T08:27:32Z</time>
      </trkpt>
      <trkpt lat="48.21557" lon="4.60327">
        <ele>204</ele>
        <time>2024-07-03T08:27:43Z</time>
      </trkpt>
      <trkpt lat="48.21583" lon="4.60425">
        <ele>201</ele>
        <time>2024-07-03T08:27:56Z</time>
      </trkpt>
      <trkpt lat="48.21605" lon="4.60526">
        <ele>202</ele>
        <time>2024-07-03T08:28:09Z</time>
      </trkpt>
      <trkpt lat="48.2163" lon="4.60736">
        <ele>210</ele>
        <time>2024-07-03T08:28:34Z</time>
      </trkpt>
      <trkpt lat="48.21648" lon="4.60862">
        <ele>212</ele>
        <time>2024-07-03T08:28:49Z</time>
      </trkpt>
      <trkpt lat="48.21659" lon="4.60926">
        <ele>212</ele>
        <time>2024-07-03T08:28:57Z</time>
      </trkpt>
      <trkpt lat="48.21699" lon="4.61099">
        <ele>210</ele>
        <time>2024-07-03T08:29:19Z</time>
      </trkpt>
      <trkpt lat="48.21705" lon="4.612">
        <ele>212</ele>
        <time>2024-07-03T08:29:31Z</time>
      </trkpt>
      <trkpt lat="48.21718" lon="4.61313">
        <ele>214</ele>
        <time>2024-07-03T08:29:44Z</time>
      </trkpt>
      <trkpt lat="48.21726" lon="4.61364">
        <ele>213</ele>
        <time>2024-07-03T08:29:51Z</time>
      </trkpt>
      <trkpt lat="48.21764" lon="4.61537">
        <ele>213</ele>
        <time>2024-07-03T08:30:12Z</time>
      </trkpt>
      <trkpt lat="48.21772" lon="4.61584">
        <ele>213</ele>
        <time>2024-07-03T08:30:18Z</time>
      </trkpt>
      <trkpt lat="48.21779" lon="4.61676">
        <ele>213</ele>
        <time>2024-07-03T08:30:29Z</time>
      </trkpt>
      <trkpt lat="48.21795" lon="4.6177">
        <ele>212</ele>
        <time>2024-07-03T08:30:40Z</time>
      </trkpt>
      <trkpt lat="48.21804" lon="4.61814">
        <ele>211</ele>
        <time>2024-07-03T08:30:46Z</time>
      </trkpt>
      <trkpt lat="48.21822" lon="4.6187">
        <ele>209</ele>
        <time>2024-07-03T08:30:53Z</time>
      </trkpt>
      <trkpt lat="48.21858" lon="4.61949">
        <ele>206</ele>
        <time>2024-07-03T08:31:05Z</time>
      </trkpt>
      <trkpt lat="48.21893" lon="4.62018">
        <ele>201</ele>
        <time>2024-07-03T08:31:15Z</time>
      </trkpt>
      <trkpt lat="48.21907" lon="4.62031">
        <ele>201</ele>
        <time>2024-07-03T08:31:18Z</time>
      </trkpt>
      <trkpt lat="48.21934" lon="4.62049">
        <ele>200</ele>
        <time>2024-07-03T08:31:23Z</time>
      </trkpt>
      <trkpt lat="48.22021" lon="4.62093">
        <ele>197</ele>
        <time>2024-07-03T08:31:39Z</time>
      </trkpt>
      <trkpt lat="48.22094" lon="4.62113">
        <ele>198</ele>
        <time>2024-07-03T08:31:53Z</time>
      </trkpt>
      <trkpt lat="48.22126" lon="4.62118">
        <ele>198</ele>
        <time>2024-07-03T08:31:58Z</time>
      </trkpt>
      <trkpt lat="48.2217" lon="4.62118">
        <ele>198</ele>
        <time>2024-07-03T08:32:06Z</time>
      </trkpt>
      <trkpt lat="48.22187" lon="4.62114">
        <ele>198</ele>
        <time>2024-07-03T08:32:09Z</time>
      </trkpt>
      <trkpt lat="48.22224" lon="4.62099">
        <ele>200</ele>
        <time>2024-07-03T08:32:16Z</time>
      </trkpt>
      <trkpt lat="48.22265" lon="4.62078">
        <ele>201</ele>
        <time>2024-07-03T08:32:24Z</time>
      </trkpt>
      <trkpt lat="48.22365" lon="4.62033">
        <ele>204</ele>
        <time>2024-07-03T08:32:42Z</time>
      </trkpt>
      <trkpt lat="48.22432" lon="4.61993">
        <ele>207</ele>
        <time>2024-07-03T08:32:55Z</time>
      </trkpt>
      <trkpt lat="48.22468" lon="4.61975">
        <ele>207</ele>
        <time>2024-07-03T08:33:02Z</time>
      </trkpt>
      <trkpt lat="48.22562" lon="4.61904">
        <ele>209</ele>
        <time>2024-07-03T08:33:21Z</time>
      </trkpt>
      <trkpt lat="48.22604" lon="4.61884">
        <ele>207</ele>
        <time>2024-07-03T08:33:28Z</time>
      </trkpt>
      <trkpt lat="48.22708" lon="4.61845">
        <ele>195</ele>
        <time>2024-07-03T08:33:47Z</time>
      </trkpt>
      <trkpt lat="48.22654" lon="4.62207">
        <ele>177</ele>
        <time>2024-07-03T08:34:31Z</time>
      </trkpt>
      <trkpt lat="48.22609" lon="4.62538">
        <ele>176</ele>
        <time>2024-07-03T08:35:11Z</time>
      </trkpt>
      <trkpt lat="48.22596" lon="4.62771">
        <ele>179</ele>
        <time>2024-07-03T08:35:39Z</time>
      </trkpt>
      <trkpt lat="48.2258" lon="4.6297">
        <ele>194</ele>
        <time>2024-07-03T08:36:03Z</time>
      </trkpt>
      <trkpt lat="48.22592" lon="4.63077">
        <ele>204</ele>
        <time>2024-07-03T08:36:16Z</time>
      </trkpt>
      <trkpt lat="48.22643" lon="4.63331">
        <ele>231</ele>
        <time>2024-07-03T08:36:47Z</time>
      </trkpt>
      <trkpt lat="48.22669" lon="4.63421">
        <ele>236</ele>
        <time>2024-07-03T08:36:59Z</time>
      </trkpt>
      <trkpt lat="48.22729" lon="4.63589">
        <ele>252</ele>
        <time>2024-07-03T08:37:21Z</time>
      </trkpt>
      <trkpt lat="48.22734" lon="4.6362">
        <ele>254</ele>
        <time>2024-07-03T08:37:25Z</time>
      </trkpt>
      <trkpt lat="48.22731" lon="4.63686">
        <ele>258</ele>
        <time>2024-07-03T08:37:33Z</time>
      </trkpt>
      <trkpt lat="48.22727" lon="4.63715">
        <ele>260</ele>
        <time>2024-07-03T08:37:37Z</time>
      </trkpt>
      <trkpt lat="48.22703" lon="4.63811">
        <ele>266</ele>
        <time>2024-07-03T08:37:49Z</time>
      </trkpt>
      <trkpt lat="48.22675" lon="4.63881">
        <ele>270</ele>
        <time>2024-07-03T08:37:58Z</time>
      </trkpt>
      <trkpt lat="48.22654" lon="4.63924">
        <ele>271</ele>
        <time>2024-07-03T08:38:05Z</time>
      </trkpt>
      <trkpt lat="48.22591" lon="4.64035">
        <ele>277</ele>
        <time>2024-07-03T08:38:22Z</time>
      </trkpt>
      <trkpt lat="48.22532" lon="4.64158">
        <ele>281</ele>
        <time>2024-07-03T08:38:40Z</time>
      </trkpt>
      <trkpt lat="48.22489" lon="4.64241">
        <ele>283</ele>
        <time>2024-07-03T08:38:52Z</time>
      </trkpt>
      <trkpt lat="48.2247" lon="4.64293">
        <ele>284</ele>
        <time>2024-07-03T08:38:59Z</time>
      </trkpt>
      <trkpt lat="48.22428" lon="4.64432">
        <ele>287</ele>
        <time>2024-07-03T08:39:18Z</time>
      </trkpt>
      <trkpt lat="48.22346" lon="4.64746">
        <ele>293</ele>
        <time>2024-07-03T08:39:58Z</time>
      </trkpt>
      <trkpt lat="48.22332" lon="4.64816">
        <ele>288</ele>
        <time>2024-07-03T08:40:06Z</time>
      </trkpt>
      <trkpt lat="48.22296" lon="4.65032">
        <ele>278</ele>
        <time>2024-07-03T08:40:33Z</time>
      </trkpt>
      <trkpt lat="48.22248" lon="4.65356">
        <ele>291</ele>
        <time>2024-07-03T08:41:12Z</time>
      </trkpt>
      <trkpt lat="48.22216" lon="4.65533">
        <ele>302</ele>
        <time>2024-07-03T08:41:34Z</time>
      </trkpt>
      <trkpt lat="48.22152" lon="4.65934">
        <ele>300</ele>
        <time>2024-07-03T08:42:23Z</time>
      </trkpt>
      <trkpt lat="48.22143" lon="4.66006">
        <ele>296</ele>
        <time>2024-07-03T08:42:31Z</time>
      </trkpt>
      <trkpt lat="48.22147" lon="4.66081">
        <ele>293</ele>
        <time>2024-07-03T08:42:40Z</time>
      </trkpt>
      <trkpt lat="48.22165" lon="4.66266">
        <ele>299</ele>
        <time>2024-07-03T08:43:02Z</time>
      </trkpt>
      <trkpt lat="48.22174" lon="4.66399">
        <ele>306</ele>
        <time>2024-07-03T08:43:18Z</time>
      </trkpt>
      <trkpt lat="48.22185" lon="4.66454">
        <ele>308</ele>
        <time>2024-07-03T08:43:25Z</time>
      </trkpt>
      <trkpt lat="48.22218" lon="4.66547">
        <ele>310</ele>
        <time>2024-07-03T08:43:38Z</time>
      </trkpt>
      <trkpt lat="48.22322" lon="4.66746">
        <ele>306</ele>
        <time>2024-07-03T08:44:07Z</time>
      </trkpt>
      <trkpt lat="48.22352" lon="4.66812">
        <ele>303</ele>
        <time>2024-07-03T08:44:17Z</time>
      </trkpt>
      <trkpt lat="48.22468" lon="4.67115">
        <ele>306</ele>
        <time>2024-07-03T08:44:58Z</time>
      </trkpt>
      <trkpt lat="48.22507" lon="4.67209">
        <ele>310</ele>
        <time>2024-07-03T08:45:12Z</time>
      </trkpt>
      <trkpt lat="48.22634" lon="4.67443">
        <ele>309</ele>
        <time>2024-07-03T08:45:47Z</time>
      </trkpt>
      <trkpt lat="48.22695" lon="4.67561">
        <ele>308</ele>
        <time>2024-07-03T08:46:05Z</time>
      </trkpt>
      <trkpt lat="48.22717" lon="4.67596">
        <ele>306</ele>
        <time>2024-07-03T08:46:11Z</time>
      </trkpt>
      <trkpt lat="48.22744" lon="4.67654">
        <ele>303</ele>
        <time>2024-07-03T08:46:19Z</time>
      </trkpt>
      <trkpt lat="48.22752" lon="4.67679">
        <ele>303</ele>
        <time>2024-07-03T08:46:22Z</time>
      </trkpt>
      <trkpt lat="48.22783" lon="4.67864">
        <ele>300</ele>
        <time>2024-07-03T08:46:45Z</time>
      </trkpt>
      <trkpt lat="48.2282" lon="4.68126">
        <ele>283</ele>
        <time>2024-07-03T08:47:17Z</time>
      </trkpt>
      <trkpt lat="48.22825" lon="4.68146">
        <ele>281</ele>
        <time>2024-07-03T08:47:19Z</time>
      </trkpt>
      <trkpt lat="48.2283" lon="4.68159">
        <ele>280</ele>
        <time>2024-07-03T08:47:21Z</time>
      </trkpt>
      <trkpt lat="48.22838" lon="4.68169">
        <ele>279</ele>
        <time>2024-07-03T08:47:23Z</time>
      </trkpt>
      <trkpt lat="48.22846" lon="4.68174">
        <ele>278</ele>
        <time>2024-07-03T08:47:24Z</time>
      </trkpt>
      <trkpt lat="48.22855" lon="4.68174">
        <ele>277</ele>
        <time>2024-07-03T08:47:26Z</time>
      </trkpt>
      <trkpt lat="48.22866" lon="4.6817">
        <ele>278</ele>
        <time>2024-07-03T08:47:28Z</time>
      </trkpt>
      <trkpt lat="48.22888" lon="4.68153">
        <ele>280</ele>
        <time>2024-07-03T08:47:32Z</time>
      </trkpt>
      <trkpt lat="48.22904" lon="4.68146">
        <ele>280</ele>
        <time>2024-07-03T08:47:35Z</time>
      </trkpt>
      <trkpt lat="48.22918" lon="4.68146">
        <ele>280</ele>
        <time>2024-07-03T08:47:38Z</time>
      </trkpt>
      <trkpt lat="48.22933" lon="4.68154">
        <ele>280</ele>
        <time>2024-07-03T08:47:41Z</time>
      </trkpt>
      <trkpt lat="48.22956" lon="4.68198">
        <ele>275</ele>
        <time>2024-07-03T08:47:47Z</time>
      </trkpt>
      <trkpt lat="48.22973" lon="4.68251">
        <ele>269</ele>
        <time>2024-07-03T08:47:54Z</time>
      </trkpt>
      <trkpt lat="48.22993" lon="4.6837">
        <ele>258</ele>
        <time>2024-07-03T08:48:09Z</time>
      </trkpt>
      <trkpt lat="48.22997" lon="4.68425">
        <ele>252</ele>
        <time>2024-07-03T08:48:15Z</time>
      </trkpt>
      <trkpt lat="48.22997" lon="4.68488">
        <ele>243</ele>
        <time>2024-07-03T08:48:23Z</time>
      </trkpt>
      <trkpt lat="48.23" lon="4.68525">
        <ele>238</ele>
        <time>2024-07-03T08:48:27Z</time>
      </trkpt>
      <trkpt lat="48.2302" lon="4.6864">
        <ele>227</ele>
        <time>2024-07-03T08:48:41Z</time>
      </trkpt>
      <trkpt lat="48.23035" lon="4.68807">
        <ele>205</ele>
        <time>2024-07-03T08:49:01Z</time>
      </trkpt>
      <trkpt lat="48.23042" lon="4.68843">
        <ele>202</ele>
        <time>2024-07-03T08:49:06Z</time>
      </trkpt>
      <trkpt lat="48.23069" lon="4.68935">
        <ele>191</ele>
        <time>2024-07-03T08:49:18Z</time>
      </trkpt>
      <trkpt lat="48.23091" lon="4.6898">
        <ele>185</ele>
        <time>2024-07-03T08:49:24Z</time>
      </trkpt>
      <trkpt lat="48.23143" lon="4.69058">
        <ele>177</ele>
        <time>2024-07-03T08:49:37Z</time>
      </trkpt>
      <trkpt lat="48.23158" lon="4.6904">
        <ele>178</ele>
        <time>2024-07-03T08:49:41Z</time>
      </trkpt>
      <trkpt lat="48.23171" lon="4.69142">
        <ele>172</ele>
        <time>2024-07-03T08:49:53Z</time>
      </trkpt>
      <trkpt lat="48.23174" lon="4.6915">
        <ele>172</ele>
        <time>2024-07-03T08:49:54Z</time>
      </trkpt>
      <trkpt lat="48.23157" lon="4.69201">
        <ele>171</ele>
        <time>2024-07-03T08:50:01Z</time>
      </trkpt>
      <trkpt lat="48.23139" lon="4.6929">
        <ele>171</ele>
        <time>2024-07-03T08:50:12Z</time>
      </trkpt>
      <trkpt lat="48.23138" lon="4.69376">
        <ele>171</ele>
        <time>2024-07-03T08:50:22Z</time>
      </trkpt>
      <trkpt lat="48.23141" lon="4.69432">
        <ele>171</ele>
        <time>2024-07-03T08:50:29Z</time>
      </trkpt>
      <trkpt lat="48.23157" lon="4.69563">
        <ele>169</ele>
        <time>2024-07-03T08:50:45Z</time>
      </trkpt>
      <trkpt lat="48.23156" lon="4.69606">
        <ele>168</ele>
        <time>2024-07-03T08:50:50Z</time>
      </trkpt>
      <trkpt lat="48.23144" lon="4.69717">
        <ele>167</ele>
        <time>2024-07-03T08:51:03Z</time>
      </trkpt>
      <trkpt lat="48.23133" lon="4.69769">
        <ele>166</ele>
        <time>2024-07-03T08:51:10Z</time>
      </trkpt>
      <trkpt lat="48.23125" lon="4.69791">
        <ele>166</ele>
        <time>2024-07-03T08:51:13Z</time>
      </trkpt>
      <trkpt lat="48.23081" lon="4.69852">
        <ele>167</ele>
        <time>2024-07-03T08:51:23Z</time>
      </trkpt>
      <trkpt lat="48.23077" lon="4.69866">
        <ele>166</ele>
        <time>2024-07-03T08:51:25Z</time>
      </trkpt>
      <trkpt lat="48.23067" lon="4.69938">
        <ele>166</ele>
        <time>2024-07-03T08:51:34Z</time>
      </trkpt>
      <trkpt lat="48.2304" lon="4.70056">
        <ele>172</ele>
        <time>2024-07-03T08:51:49Z</time>
      </trkpt>
      <trkpt lat="48.23015" lon="4.70143">
        <ele>172</ele>
        <time>2024-07-03T08:52:00Z</time>
      </trkpt>
      <trkpt lat="48.23011" lon="4.70154">
        <ele>172</ele>
        <time>2024-07-03T08:52:01Z</time>
      </trkpt>
      <trkpt lat="48.23005" lon="4.70162">
        <ele>172</ele>
        <time>2024-07-03T08:52:03Z</time>
      </trkpt>
      <trkpt lat="48.23" lon="4.70204">
        <ele>171</ele>
        <time>2024-07-03T08:52:08Z</time>
      </trkpt>
      <trkpt lat="48.22982" lon="4.70299">
        <ele>170</ele>
        <time>2024-07-03T08:52:19Z</time>
      </trkpt>
      <trkpt lat="48.22981" lon="4.70318">
        <ele>170</ele>
        <time>2024-07-03T08:52:22Z</time>
      </trkpt>
      <trkpt lat="48.22978" lon="4.70319">
        <ele>170</ele>
        <time>2024-07-03T08:52:22Z</time>
      </trkpt>
      <trkpt lat="48.22939" lon="4.70272">
        <ele>177</ele>
        <time>2024-07-03T08:52:31Z</time>
      </trkpt>
      <trkpt lat="48.22931" lon="4.70257">
        <ele>178</ele>
        <time>2024-07-03T08:52:33Z</time>
      </trkpt>
      <trkpt lat="48.22921" lon="4.70253">
        <ele>179</ele>
        <time>2024-07-03T08:52:35Z</time>
      </trkpt>
      <trkpt lat="48.22872" lon="4.70213">
        <ele>187</ele>
        <time>2024-07-03T08:52:45Z</time>
      </trkpt>
      <trkpt lat="48.22837" lon="4.70195">
        <ele>193</ele>
        <time>2024-07-03T08:52:52Z</time>
      </trkpt>
      <trkpt lat="48.22787" lon="4.70142">
        <ele>199</ele>
        <time>2024-07-03T08:53:03Z</time>
      </trkpt>
      <trkpt lat="48.22725" lon="4.70112">
        <ele>206</ele>
        <time>2024-07-03T08:53:14Z</time>
      </trkpt>
      <trkpt lat="48.22677" lon="4.70069">
        <ele>214</ele>
        <time>2024-07-03T08:53:24Z</time>
      </trkpt>
      <trkpt lat="48.22679" lon="4.70061">
        <ele>213</ele>
        <time>2024-07-03T08:53:25Z</time>
      </trkpt>
      <trkpt lat="48.22607" lon="4.70007">
        <ele>223</ele>
        <time>2024-07-03T08:53:40Z</time>
      </trkpt>
      <trkpt lat="48.22591" lon="4.69992">
        <ele>226</ele>
        <time>2024-07-03T08:53:43Z</time>
      </trkpt>
      <trkpt lat="48.22558" lon="4.69954">
        <ele>229</ele>
        <time>2024-07-03T08:53:50Z</time>
      </trkpt>
      <trkpt lat="48.22438" lon="4.6989">
        <ele>253</ele>
        <time>2024-07-03T08:54:13Z</time>
      </trkpt>
      <trkpt lat="48.22405" lon="4.69849">
        <ele>260</ele>
        <time>2024-07-03T08:54:21Z</time>
      </trkpt>
      <trkpt lat="48.22396" lon="4.69834">
        <ele>262</ele>
        <time>2024-07-03T08:54:23Z</time>
      </trkpt>
      <trkpt lat="48.22374" lon="4.69782">
        <ele>264</ele>
        <time>2024-07-03T08:54:30Z</time>
      </trkpt>
      <trkpt lat="48.22308" lon="4.69724">
        <ele>276</ele>
        <time>2024-07-03T08:54:44Z</time>
      </trkpt>
      <trkpt lat="48.22273" lon="4.69713">
        <ele>282</ele>
        <time>2024-07-03T08:54:50Z</time>
      </trkpt>
      <trkpt lat="48.22223" lon="4.69703">
        <ele>290</ele>
        <time>2024-07-03T08:54:59Z</time>
      </trkpt>
      <trkpt lat="48.22197" lon="4.69702">
        <ele>294</ele>
        <time>2024-07-03T08:55:04Z</time>
      </trkpt>
      <trkpt lat="48.22179" lon="4.69711">
        <ele>297</ele>
        <time>2024-07-03T08:55:07Z</time>
      </trkpt>
      <trkpt lat="48.2215" lon="4.69737">
        <ele>304</ele>
        <time>2024-07-03T08:55:13Z</time>
      </trkpt>
      <trkpt lat="48.221" lon="4.6987">
        <ele>310</ele>
        <time>2024-07-03T08:55:31Z</time>
      </trkpt>
      <trkpt lat="48.21939" lon="4.69876">
        <ele>311</ele>
        <time>2024-07-03T08:56:00Z</time>
      </trkpt>
    </trkseg>
  </trk>
  <trk>
    <name><![CDATA[31. Circuit d'Ailleville Le Val des vignes-17237895]]></name>
    <extensions>
      <line xmlns="http://www.topografix.com/GPX/gpx_style/0/2">
        <color>15fa05</color>
        <width>4</width>
      </line>
    </extensions>
    <trkseg>
      <trkpt lat="48.23297" lon="4.70679">
        <ele>170</ele>
        <time>2024-07-03T07:39:29Z</time>
      </trkpt>
      <trkpt lat="48.23477" lon="4.70466">
        <ele>165</ele>
        <time>2024-07-03T07:40:10Z</time>
      </trkpt>
      <trkpt lat="48.23799" lon="4.70834">
        <ele>162</ele>
        <time>2024-07-03T07:41:22Z</time>
      </trkpt>
      <trkpt lat="48.23941" lon="4.71084">
        <ele>162</ele>
        <time>2024-07-03T07:42:01Z</time>
      </trkpt>
      <trkpt lat="48.24332" lon="4.71142">
        <ele>176</ele>
        <time>2024-07-03T07:43:11Z</time>
      </trkpt>
      <trkpt lat="48.24366" lon="4.70919">
        <ele>171</ele>
        <time>2024-07-03T07:43:38Z</time>
      </trkpt>
      <trkpt lat="48.24457" lon="4.70724">
        <ele>168</ele>
        <time>2024-07-03T07:44:06Z</time>
      </trkpt>
      <trkpt lat="48.24463" lon="4.70579">
        <ele>169</ele>
        <time>2024-07-03T07:44:23Z</time>
      </trkpt>
      <trkpt lat="48.24491" lon="4.70526">
        <ele>170</ele>
        <time>2024-07-03T07:44:31Z</time>
      </trkpt>
      <trkpt lat="48.24601" lon="4.70242">
        <ele>170</ele>
        <time>2024-07-03T07:45:10Z</time>
      </trkpt>
      <trkpt lat="48.24649" lon="4.70173">
        <ele>170</ele>
        <time>2024-07-03T07:45:22Z</time>
      </trkpt>
      <trkpt lat="48.24688" lon="4.70088">
        <ele>173</ele>
        <time>2024-07-03T07:45:34Z</time>
      </trkpt>
      <trkpt lat="48.24741" lon="4.69912">
        <ele>177</ele>
        <time>2024-07-03T07:45:57Z</time>
      </trkpt>
      <trkpt lat="48.24787" lon="4.69718">
        <ele>180</ele>
        <time>2024-07-03T07:46:21Z</time>
      </trkpt>
      <trkpt lat="48.24875" lon="4.69451">
        <ele>181</ele>
        <time>2024-07-03T07:46:57Z</time>
      </trkpt>
      <trkpt lat="48.24889" lon="4.69422">
        <ele>181</ele>
        <time>2024-07-03T07:47:01Z</time>
      </trkpt>
      <trkpt lat="48.24958" lon="4.6922">
        <ele>176</ele>
        <time>2024-07-03T07:47:28Z</time>
      </trkpt>
      <trkpt lat="48.25003" lon="4.6912">
        <ele>169</ele>
        <time>2024-07-03T07:47:42Z</time>
      </trkpt>
      <trkpt lat="48.25031" lon="4.69046">
        <ele>168</ele>
        <time>2024-07-03T07:47:52Z</time>
      </trkpt>
      <trkpt lat="48.25036" lon="4.68995">
        <ele>169</ele>
        <time>2024-07-03T07:47:58Z</time>
      </trkpt>
      <trkpt lat="48.25038" lon="4.68884">
        <ele>170</ele>
        <time>2024-07-03T07:48:12Z</time>
      </trkpt>
      <trkpt lat="48.25045" lon="4.68822">
        <ele>171</ele>
        <time>2024-07-03T07:48:19Z</time>
      </trkpt>
      <trkpt lat="48.25063" lon="4.68757">
        <ele>171</ele>
        <time>2024-07-03T07:48:27Z</time>
      </trkpt>
      <trkpt lat="48.25078" lon="4.68724">
        <ele>171</ele>
        <time>2024-07-03T07:48:32Z</time>
      </trkpt>
      <trkpt lat="48.25094" lon="4.68706">
        <ele>172</ele>
        <time>2024-07-03T07:48:36Z</time>
      </trkpt>
      <trkpt lat="48.25103" lon="4.68685">
        <ele>172</ele>
        <time>2024-07-03T07:48:39Z</time>
      </trkpt>
      <trkpt lat="48.25129" lon="4.68645">
        <ele>173</ele>
        <time>2024-07-03T07:48:45Z</time>
      </trkpt>
      <trkpt lat="48.25164" lon="4.68603">
        <ele>173</ele>
        <time>2024-07-03T07:48:53Z</time>
      </trkpt>
      <trkpt lat="48.25189" lon="4.68583">
        <ele>175</ele>
        <time>2024-07-03T07:48:58Z</time>
      </trkpt>
      <trkpt lat="48.25208" lon="4.68572">
        <ele>176</ele>
        <time>2024-07-03T07:49:02Z</time>
      </trkpt>
      <trkpt lat="48.25247" lon="4.68605">
        <ele>180</ele>
        <time>2024-07-03T07:49:10Z</time>
      </trkpt>
      <trkpt lat="48.25295" lon="4.68658">
        <ele>184</ele>
        <time>2024-07-03T07:49:20Z</time>
      </trkpt>
      <trkpt lat="48.25314" lon="4.68676">
        <ele>186</ele>
        <time>2024-07-03T07:49:24Z</time>
      </trkpt>
      <trkpt lat="48.25302" lon="4.68652">
        <ele>184</ele>
        <time>2024-07-03T07:49:28Z</time>
      </trkpt>
      <trkpt lat="48.25298" lon="4.68573">
        <ele>184</ele>
        <time>2024-07-03T07:49:37Z</time>
      </trkpt>
      <trkpt lat="48.25275" lon="4.68455">
        <ele>180</ele>
        <time>2024-07-03T07:49:52Z</time>
      </trkpt>
      <trkpt lat="48.25263" lon="4.68357">
        <ele>176</ele>
        <time>2024-07-03T07:50:04Z</time>
      </trkpt>
      <trkpt lat="48.25226" lon="4.68246">
        <ele>172</ele>
        <time>2024-07-03T07:50:18Z</time>
      </trkpt>
      <trkpt lat="48.25232" lon="4.68175">
        <ele>171</ele>
        <time>2024-07-03T07:50:27Z</time>
      </trkpt>
      <trkpt lat="48.25212" lon="4.68155">
        <ele>170</ele>
        <time>2024-07-03T07:50:31Z</time>
      </trkpt>
      <trkpt lat="48.25173" lon="4.68136">
        <ele>168</ele>
        <time>2024-07-03T07:50:38Z</time>
      </trkpt>
      <trkpt lat="48.25178" lon="4.68094">
        <ele>168</ele>
        <time>2024-07-03T07:50:44Z</time>
      </trkpt>
      <trkpt lat="48.25076" lon="4.67966">
        <ele>160</ele>
        <time>2024-07-03T07:51:07Z</time>
      </trkpt>
      <trkpt lat="48.24988" lon="4.68125">
        <ele>159</ele>
        <time>2024-07-03T07:51:32Z</time>
      </trkpt>
      <trkpt lat="48.24982" lon="4.68141">
        <ele>159</ele>
        <time>2024-07-03T07:51:34Z</time>
      </trkpt>
      <trkpt lat="48.24938" lon="4.68153">
        <ele>158</ele>
        <time>2024-07-03T07:51:42Z</time>
      </trkpt>
      <trkpt lat="48.24843" lon="4.68276">
        <ele>157</ele>
        <time>2024-07-03T07:52:04Z</time>
      </trkpt>
      <trkpt lat="48.24716" lon="4.68462">
        <ele>158</ele>
        <time>2024-07-03T07:52:36Z</time>
      </trkpt>
      <trkpt lat="48.24673" lon="4.68425">
        <ele>158</ele>
        <time>2024-07-03T07:52:45Z</time>
      </trkpt>
      <trkpt lat="48.24683" lon="4.68374">
        <ele>159</ele>
        <time>2024-07-03T07:52:51Z</time>
      </trkpt>
      <trkpt lat="48.24679" lon="4.6831">
        <ele>159</ele>
        <time>2024-07-03T07:52:58Z</time>
      </trkpt>
      <trkpt lat="48.2471" lon="4.68253">
        <ele>159</ele>
        <time>2024-07-03T07:53:07Z</time>
      </trkpt>
      <trkpt lat="48.24854" lon="4.68032">
        <ele>158</ele>
        <time>2024-07-03T07:53:44Z</time>
      </trkpt>
      <trkpt lat="48.24885" lon="4.67963">
        <ele>158</ele>
        <time>2024-07-03T07:53:54Z</time>
      </trkpt>
      <trkpt lat="48.2501" lon="4.67885">
        <ele>157</ele>
        <time>2024-07-03T07:54:18Z</time>
      </trkpt>
      <trkpt lat="48.25195" lon="4.68095">
        <ele>168</ele>
        <time>2024-07-03T07:54:59Z</time>
      </trkpt>
      <trkpt lat="48.25218" lon="4.68115">
        <ele>169</ele>
        <time>2024-07-03T07:55:04Z</time>
      </trkpt>
      <trkpt lat="48.25257" lon="4.68118">
        <ele>171</ele>
        <time>2024-07-03T07:55:11Z</time>
      </trkpt>
      <trkpt lat="48.25292" lon="4.68158">
        <ele>173</ele>
        <time>2024-07-03T07:55:18Z</time>
      </trkpt>
      <trkpt lat="48.25362" lon="4.68214">
        <ele>179</ele>
        <time>2024-07-03T07:55:33Z</time>
      </trkpt>
      <trkpt lat="48.25439" lon="4.6826">
        <ele>183</ele>
        <time>2024-07-03T07:55:47Z</time>
      </trkpt>
      <trkpt lat="48.2548" lon="4.68199">
        <ele>183</ele>
        <time>2024-07-03T07:55:58Z</time>
      </trkpt>
      <trkpt lat="48.25498" lon="4.68125">
        <ele>181</ele>
        <time>2024-07-03T07:56:07Z</time>
      </trkpt>
      <trkpt lat="48.25504" lon="4.68137">
        <ele>182</ele>
        <time>2024-07-03T07:56:09Z</time>
      </trkpt>
      <trkpt lat="48.25459" lon="4.68259">
        <ele>184</ele>
        <time>2024-07-03T07:56:25Z</time>
      </trkpt>
      <trkpt lat="48.25552" lon="4.68359">
        <ele>193</ele>
        <time>2024-07-03T07:56:46Z</time>
      </trkpt>
      <trkpt lat="48.25429" lon="4.68565">
        <ele>195</ele>
        <time>2024-07-03T07:57:18Z</time>
      </trkpt>
      <trkpt lat="48.25396" lon="4.68626">
        <ele>194</ele>
        <time>2024-07-03T07:57:28Z</time>
      </trkpt>
      <trkpt lat="48.254" lon="4.68755">
        <ele>199</ele>
        <time>2024-07-03T07:57:43Z</time>
      </trkpt>
      <trkpt lat="48.25348" lon="4.68707">
        <ele>190</ele>
        <time>2024-07-03T07:57:54Z</time>
      </trkpt>
      <trkpt lat="48.25266" lon="4.68635">
        <ele>181</ele>
        <time>2024-07-03T07:58:11Z</time>
      </trkpt>
      <trkpt lat="48.25221" lon="4.68581">
        <ele>178</ele>
        <time>2024-07-03T07:58:21Z</time>
      </trkpt>
      <trkpt lat="48.25182" lon="4.68587">
        <ele>174</ele>
        <time>2024-07-03T07:58:28Z</time>
      </trkpt>
      <trkpt lat="48.251" lon="4.68694">
        <ele>172</ele>
        <time>2024-07-03T07:58:47Z</time>
      </trkpt>
      <trkpt lat="48.2506" lon="4.68774">
        <ele>171</ele>
        <time>2024-07-03T07:58:59Z</time>
      </trkpt>
      <trkpt lat="48.25038" lon="4.68856">
        <ele>171</ele>
        <time>2024-07-03T07:59:10Z</time>
      </trkpt>
      <trkpt lat="48.25026" lon="4.69062">
        <ele>168</ele>
        <time>2024-07-03T07:59:34Z</time>
      </trkpt>
      <trkpt lat="48.24925" lon="4.69302">
        <ele>180</ele>
        <time>2024-07-03T08:00:08Z</time>
      </trkpt>
      <trkpt lat="48.25067" lon="4.69383">
        <ele>192</ele>
        <time>2024-07-03T08:00:35Z</time>
      </trkpt>
      <trkpt lat="48.25177" lon="4.69485">
        <ele>203</ele>
        <time>2024-07-03T08:00:58Z</time>
      </trkpt>
      <trkpt lat="48.25177" lon="4.69727">
        <ele>241</ele>
        <time>2024-07-03T08:01:26Z</time>
      </trkpt>
      <trkpt lat="48.25111" lon="4.69823">
        <ele>240</ele>
        <time>2024-07-03T08:01:43Z</time>
      </trkpt>
      <trkpt lat="48.25084" lon="4.6998">
        <ele>241</ele>
        <time>2024-07-03T08:02:02Z</time>
      </trkpt>
      <trkpt lat="48.25114" lon="4.70148">
        <ele>239</ele>
        <time>2024-07-03T08:02:23Z</time>
      </trkpt>
      <trkpt lat="48.25246" lon="4.70351">
        <ele>247</ele>
        <time>2024-07-03T08:02:56Z</time>
      </trkpt>
      <trkpt lat="48.25277" lon="4.70457">
        <ele>250</ele>
        <time>2024-07-03T08:03:10Z</time>
      </trkpt>
      <trkpt lat="48.25271" lon="4.70567">
        <ele>255</ele>
        <time>2024-07-03T08:03:23Z</time>
      </trkpt>
      <trkpt lat="48.25302" lon="4.70673">
        <ele>261</ele>
        <time>2024-07-03T08:03:37Z</time>
      </trkpt>
      <trkpt lat="48.25191" lon="4.70643">
        <ele>246</ele>
        <time>2024-07-03T08:03:57Z</time>
      </trkpt>
      <trkpt lat="48.25162" lon="4.70644">
        <ele>240</ele>
        <time>2024-07-03T08:04:02Z</time>
      </trkpt>
      <trkpt lat="48.25131" lon="4.70696">
        <ele>233</ele>
        <time>2024-07-03T08:04:10Z</time>
      </trkpt>
      <trkpt lat="48.25107" lon="4.70715">
        <ele>227</ele>
        <time>2024-07-03T08:04:15Z</time>
      </trkpt>
      <trkpt lat="48.25032" lon="4.70761">
        <ele>212</ele>
        <time>2024-07-03T08:04:29Z</time>
      </trkpt>
      <trkpt lat="48.24944" lon="4.70786">
        <ele>203</ele>
        <time>2024-07-03T08:04:45Z</time>
      </trkpt>
      <trkpt lat="48.2482" lon="4.70791">
        <ele>190</ele>
        <time>2024-07-03T08:05:08Z</time>
      </trkpt>
      <trkpt lat="48.24772" lon="4.70769">
        <ele>185</ele>
        <time>2024-07-03T08:05:16Z</time>
      </trkpt>
      <trkpt lat="48.24712" lon="4.70821">
        <ele>179</ele>
        <time>2024-07-03T08:05:29Z</time>
      </trkpt>
      <trkpt lat="48.2464" lon="4.70843">
        <ele>174</ele>
        <time>2024-07-03T08:05:42Z</time>
      </trkpt>
      <trkpt lat="48.24553" lon="4.70773">
        <ele>172</ele>
        <time>2024-07-03T08:05:59Z</time>
      </trkpt>
      <trkpt lat="48.24468" lon="4.70733">
        <ele>168</ele>
        <time>2024-07-03T08:06:15Z</time>
      </trkpt>
      <trkpt lat="48.24377" lon="4.709">
        <ele>171</ele>
        <time>2024-07-03T08:06:41Z</time>
      </trkpt>
      <trkpt lat="48.24332" lon="4.71128">
        <ele>176</ele>
        <time>2024-07-03T08:07:09Z</time>
      </trkpt>
      <trkpt lat="48.23941" lon="4.71091">
        <ele>162</ele>
        <time>2024-07-03T08:08:19Z</time>
      </trkpt>
      <trkpt lat="48.23771" lon="4.70787">
        <ele>163</ele>
        <time>2024-07-03T08:09:06Z</time>
      </trkpt>
      <trkpt lat="48.23614" lon="4.70637">
        <ele>164</ele>
        <time>2024-07-03T08:09:39Z</time>
      </trkpt>
      <trkpt lat="48.23474" lon="4.70482">
        <ele>166</ele>
        <time>2024-07-03T08:10:10Z</time>
      </trkpt>
      <trkpt lat="48.23297" lon="4.70679">
        <ele>170</ele>
        <time>2024-07-03T08:10:49Z</time>
      </trkpt>
    </trkseg>
  </trk>
</gpx>